<?xml version="1.0" encoding="UTF-8"?>
<gpx version="1.1" creator="https://www.youtrack.es" xsi:schemaLocation="http://www.topografix.com/GPX/1/1 http://www.topografix.com/GPX/1/1/gpx.xsd http://www.garmin.com/xmlschemas/GpxExtensions/v3 http://www.garmin.com/xmlschemas/GpxExtensionsv3.xsd http://www.garmin.com/xmlschemas/TrackPointExtension/v1 http://www.garmin.com/xmlschemas/TrackPointExtensionv1.xsd" xmlns:gpxtpx="http://www.garmin.com/xmlschemas/TrackPointExtension/v1" xmlns:gpxx="http://www.garmin.com/xmlschemas/GpxExtensions/v3" xmlns:xsi="http://www.w3.org/2001/XMLSchema-instance">
  <metadata>
    <link href="https://www.youtrack.es">
      <text>YouTrack.es</text>
    </link>
    <time>2026-05-08T22:17:33Z</time>
  </metadata>
  <trk>
    <src>https://www.youtrack.es</src>
    <link href="https://www.youtrack.es/ruta/33230-pedraforca-comabona">
      <text>YouTrack.es</text>
    </link>
    <trkseg>
      <trkpt lat="42.246120" lon="1.721932">
        <ele>1567.665</ele>
        <time>2018-09-22T04:37:40Z</time>
      </trkpt>
      <trkpt lat="42.246128" lon="1.721931">
        <ele>1567.768</ele>
        <time>2018-09-22T04:37:41Z</time>
      </trkpt>
      <trkpt lat="42.246145" lon="1.721932">
        <ele>1567.714</ele>
        <time>2018-09-22T04:37:43Z</time>
      </trkpt>
      <trkpt lat="42.246157" lon="1.721934">
        <ele>1567.808</ele>
        <time>2018-09-22T04:37:45Z</time>
      </trkpt>
      <trkpt lat="42.246181" lon="1.721937">
        <ele>1567.828</ele>
        <time>2018-09-22T04:37:47Z</time>
      </trkpt>
      <trkpt lat="42.246246" lon="1.721945">
        <ele>1567.964</ele>
        <time>2018-09-22T04:37:52Z</time>
      </trkpt>
      <trkpt lat="42.246282" lon="1.721942">
        <ele>1568.315</ele>
        <time>2018-09-22T04:37:56Z</time>
      </trkpt>
      <trkpt lat="42.246288" lon="1.721946">
        <ele>1568.249</ele>
        <time>2018-09-22T04:37:58Z</time>
      </trkpt>
      <trkpt lat="42.246299" lon="1.721948">
        <ele>1568.215</ele>
        <time>2018-09-22T04:38:00Z</time>
      </trkpt>
      <trkpt lat="42.246309" lon="1.721939">
        <ele>1568.685</ele>
        <time>2018-09-22T04:38:01Z</time>
      </trkpt>
      <trkpt lat="42.246317" lon="1.721933">
        <ele>1568.967</ele>
        <time>2018-09-22T04:38:02Z</time>
      </trkpt>
      <trkpt lat="42.246358" lon="1.721946">
        <ele>1568.789</ele>
        <time>2018-09-22T04:38:13Z</time>
      </trkpt>
      <trkpt lat="42.246376" lon="1.721949">
        <ele>1568.726</ele>
        <time>2018-09-22T04:38:15Z</time>
      </trkpt>
      <trkpt lat="42.246406" lon="1.721977">
        <ele>1568.247</ele>
        <time>2018-09-22T04:38:19Z</time>
      </trkpt>
      <trkpt lat="42.246414" lon="1.721983">
        <ele>1568.211</ele>
        <time>2018-09-22T04:38:20Z</time>
      </trkpt>
      <trkpt lat="42.246517" lon="1.722054">
        <ele>1568.608</ele>
        <time>2018-09-22T04:38:28Z</time>
      </trkpt>
      <trkpt lat="42.246529" lon="1.722064">
        <ele>1568.634</ele>
        <time>2018-09-22T04:38:29Z</time>
      </trkpt>
      <trkpt lat="42.246569" lon="1.722098">
        <ele>1568.790</ele>
        <time>2018-09-22T04:38:32Z</time>
      </trkpt>
      <trkpt lat="42.246626" lon="1.722108">
        <ele>1570.031</ele>
        <time>2018-09-22T04:38:35Z</time>
      </trkpt>
      <trkpt lat="42.246659" lon="1.722126">
        <ele>1570.585</ele>
        <time>2018-09-22T04:38:37Z</time>
      </trkpt>
      <trkpt lat="42.246717" lon="1.722192">
        <ele>1571.251</ele>
        <time>2018-09-22T04:38:42Z</time>
      </trkpt>
      <trkpt lat="42.246729" lon="1.722202">
        <ele>1571.461</ele>
        <time>2018-09-22T04:38:43Z</time>
      </trkpt>
      <trkpt lat="42.246862" lon="1.722336">
        <ele>1573.613</ele>
        <time>2018-09-22T04:38:54Z</time>
      </trkpt>
      <trkpt lat="42.246905" lon="1.722387">
        <ele>1573.965</ele>
        <time>2018-09-22T04:38:58Z</time>
      </trkpt>
      <trkpt lat="42.246914" lon="1.722401">
        <ele>1573.995</ele>
        <time>2018-09-22T04:38:59Z</time>
      </trkpt>
      <trkpt lat="42.247007" lon="1.722494">
        <ele>1573.949</ele>
        <time>2018-09-22T04:39:07Z</time>
      </trkpt>
      <trkpt lat="42.247114" lon="1.722554">
        <ele>1575.423</ele>
        <time>2018-09-22T04:39:15Z</time>
      </trkpt>
      <trkpt lat="42.247188" lon="1.722575">
        <ele>1576.908</ele>
        <time>2018-09-22T04:39:21Z</time>
      </trkpt>
      <trkpt lat="42.247243" lon="1.722588">
        <ele>1576.471</ele>
        <time>2018-09-22T04:39:25Z</time>
      </trkpt>
      <trkpt lat="42.247387" lon="1.722460">
        <ele>1572.297</ele>
        <time>2018-09-22T04:39:40Z</time>
      </trkpt>
      <trkpt lat="42.247407" lon="1.722416">
        <ele>1571.918</ele>
        <time>2018-09-22T04:39:42Z</time>
      </trkpt>
      <trkpt lat="42.247405" lon="1.722397">
        <ele>1572.262</ele>
        <time>2018-09-22T04:39:43Z</time>
      </trkpt>
      <trkpt lat="42.247404" lon="1.722379">
        <ele>1572.558</ele>
        <time>2018-09-22T04:39:44Z</time>
      </trkpt>
      <trkpt lat="42.247408" lon="1.722155">
        <ele>1573.228</ele>
        <time>2018-09-22T04:39:56Z</time>
      </trkpt>
      <trkpt lat="42.247394" lon="1.722100">
        <ele>1573.020</ele>
        <time>2018-09-22T04:39:59Z</time>
      </trkpt>
      <trkpt lat="42.247326" lon="1.721964">
        <ele>1574.652</ele>
        <time>2018-09-22T04:40:08Z</time>
      </trkpt>
      <trkpt lat="42.247289" lon="1.721843">
        <ele>1574.261</ele>
        <time>2018-09-22T04:40:15Z</time>
      </trkpt>
      <trkpt lat="42.247233" lon="1.721712">
        <ele>1575.121</ele>
        <time>2018-09-22T04:40:22Z</time>
      </trkpt>
      <trkpt lat="42.247229" lon="1.721687">
        <ele>1574.913</ele>
        <time>2018-09-22T04:40:23Z</time>
      </trkpt>
      <trkpt lat="42.247215" lon="1.721603">
        <ele>1575.108</ele>
        <time>2018-09-22T04:40:27Z</time>
      </trkpt>
      <trkpt lat="42.247201" lon="1.721561">
        <ele>1575.938</ele>
        <time>2018-09-22T04:40:29Z</time>
      </trkpt>
      <trkpt lat="42.247204" lon="1.721480">
        <ele>1575.584</ele>
        <time>2018-09-22T04:40:33Z</time>
      </trkpt>
      <trkpt lat="42.247207" lon="1.721420">
        <ele>1575.175</ele>
        <time>2018-09-22T04:40:36Z</time>
      </trkpt>
      <trkpt lat="42.247215" lon="1.721317">
        <ele>1576.069</ele>
        <time>2018-09-22T04:40:41Z</time>
      </trkpt>
      <trkpt lat="42.247213" lon="1.721168">
        <ele>1579.435</ele>
        <time>2018-09-22T04:40:48Z</time>
      </trkpt>
      <trkpt lat="42.247200" lon="1.721058">
        <ele>1582.335</ele>
        <time>2018-09-22T04:40:53Z</time>
      </trkpt>
      <trkpt lat="42.247203" lon="1.720887">
        <ele>1584.117</ele>
        <time>2018-09-22T04:41:01Z</time>
      </trkpt>
      <trkpt lat="42.247237" lon="1.720787">
        <ele>1583.389</ele>
        <time>2018-09-22T04:41:08Z</time>
      </trkpt>
      <trkpt lat="42.247278" lon="1.720723">
        <ele>1581.935</ele>
        <time>2018-09-22T04:41:12Z</time>
      </trkpt>
      <trkpt lat="42.247312" lon="1.720631">
        <ele>1581.886</ele>
        <time>2018-09-22T04:41:18Z</time>
      </trkpt>
      <trkpt lat="42.247328" lon="1.720536">
        <ele>1583.214</ele>
        <time>2018-09-22T04:41:23Z</time>
      </trkpt>
      <trkpt lat="42.247345" lon="1.720374">
        <ele>1586.308</ele>
        <time>2018-09-22T04:41:31Z</time>
      </trkpt>
      <trkpt lat="42.247356" lon="1.720302">
        <ele>1587.675</ele>
        <time>2018-09-22T04:41:35Z</time>
      </trkpt>
      <trkpt lat="42.247358" lon="1.720277">
        <ele>1588.231</ele>
        <time>2018-09-22T04:41:36Z</time>
      </trkpt>
      <trkpt lat="42.247380" lon="1.720205">
        <ele>1590.492</ele>
        <time>2018-09-22T04:41:40Z</time>
      </trkpt>
      <trkpt lat="42.247396" lon="1.720194">
        <ele>1590.066</ele>
        <time>2018-09-22T04:41:41Z</time>
      </trkpt>
      <trkpt lat="42.247505" lon="1.720100">
        <ele>1588.082</ele>
        <time>2018-09-22T04:41:49Z</time>
      </trkpt>
      <trkpt lat="42.247550" lon="1.720082">
        <ele>1587.622</ele>
        <time>2018-09-22T04:41:52Z</time>
      </trkpt>
      <trkpt lat="42.247634" lon="1.720059">
        <ele>1585.954</ele>
        <time>2018-09-22T04:41:57Z</time>
      </trkpt>
      <trkpt lat="42.247731" lon="1.719926">
        <ele>1585.646</ele>
        <time>2018-09-22T04:42:07Z</time>
      </trkpt>
      <trkpt lat="42.247747" lon="1.719879">
        <ele>1585.225</ele>
        <time>2018-09-22T04:42:10Z</time>
      </trkpt>
      <trkpt lat="42.247754" lon="1.719845">
        <ele>1585.026</ele>
        <time>2018-09-22T04:42:12Z</time>
      </trkpt>
      <trkpt lat="42.247750" lon="1.719773">
        <ele>1585.808</ele>
        <time>2018-09-22T04:42:16Z</time>
      </trkpt>
      <trkpt lat="42.247751" lon="1.719735">
        <ele>1586.008</ele>
        <time>2018-09-22T04:42:18Z</time>
      </trkpt>
      <trkpt lat="42.247758" lon="1.719689">
        <ele>1585.764</ele>
        <time>2018-09-22T04:42:21Z</time>
      </trkpt>
      <trkpt lat="42.247768" lon="1.719572">
        <ele>1585.350</ele>
        <time>2018-09-22T04:42:27Z</time>
      </trkpt>
      <trkpt lat="42.247741" lon="1.719349">
        <ele>1588.691</ele>
        <time>2018-09-22T04:42:38Z</time>
      </trkpt>
      <trkpt lat="42.247771" lon="1.719188">
        <ele>1588.035</ele>
        <time>2018-09-22T04:42:46Z</time>
      </trkpt>
      <trkpt lat="42.247779" lon="1.719103">
        <ele>1585.981</ele>
        <time>2018-09-22T04:42:51Z</time>
      </trkpt>
      <trkpt lat="42.247669" lon="1.719009">
        <ele>1586.331</ele>
        <time>2018-09-22T04:43:01Z</time>
      </trkpt>
      <trkpt lat="42.247613" lon="1.718980">
        <ele>1586.593</ele>
        <time>2018-09-22T04:43:05Z</time>
      </trkpt>
      <trkpt lat="42.247528" lon="1.718960">
        <ele>1587.465</ele>
        <time>2018-09-22T04:43:10Z</time>
      </trkpt>
      <trkpt lat="42.247346" lon="1.718931">
        <ele>1587.128</ele>
        <time>2018-09-22T04:43:19Z</time>
      </trkpt>
      <trkpt lat="42.247240" lon="1.718896">
        <ele>1585.389</ele>
        <time>2018-09-22T04:43:24Z</time>
      </trkpt>
      <trkpt lat="42.247060" lon="1.718842">
        <ele>1582.817</ele>
        <time>2018-09-22T04:43:33Z</time>
      </trkpt>
      <trkpt lat="42.247010" lon="1.718824">
        <ele>1582.008</ele>
        <time>2018-09-22T04:43:36Z</time>
      </trkpt>
      <trkpt lat="42.246996" lon="1.718820">
        <ele>1581.844</ele>
        <time>2018-09-22T04:43:37Z</time>
      </trkpt>
      <trkpt lat="42.246941" lon="1.718797">
        <ele>1580.720</ele>
        <time>2018-09-22T04:43:40Z</time>
      </trkpt>
      <trkpt lat="42.246892" lon="1.718793">
        <ele>1580.951</ele>
        <time>2018-09-22T04:43:43Z</time>
      </trkpt>
      <trkpt lat="42.246826" lon="1.718813">
        <ele>1582.575</ele>
        <time>2018-09-22T04:43:47Z</time>
      </trkpt>
      <trkpt lat="42.246770" lon="1.718840">
        <ele>1584.221</ele>
        <time>2018-09-22T04:43:51Z</time>
      </trkpt>
      <trkpt lat="42.246706" lon="1.718870">
        <ele>1586.081</ele>
        <time>2018-09-22T04:43:56Z</time>
      </trkpt>
      <trkpt lat="42.246690" lon="1.718859">
        <ele>1585.573</ele>
        <time>2018-09-22T04:43:57Z</time>
      </trkpt>
      <trkpt lat="42.246614" lon="1.718864">
        <ele>1587.985</ele>
        <time>2018-09-22T04:44:05Z</time>
      </trkpt>
      <trkpt lat="42.246609" lon="1.718871">
        <ele>1588.416</ele>
        <time>2018-09-22T04:44:06Z</time>
      </trkpt>
      <trkpt lat="42.246596" lon="1.718881">
        <ele>1589.276</ele>
        <time>2018-09-22T04:44:08Z</time>
      </trkpt>
      <trkpt lat="42.246527" lon="1.718850">
        <ele>1590.913</ele>
        <time>2018-09-22T04:44:13Z</time>
      </trkpt>
      <trkpt lat="42.246462" lon="1.718783">
        <ele>1592.008</ele>
        <time>2018-09-22T04:44:19Z</time>
      </trkpt>
      <trkpt lat="42.246441" lon="1.718748">
        <ele>1592.363</ele>
        <time>2018-09-22T04:44:21Z</time>
      </trkpt>
      <trkpt lat="42.246418" lon="1.718713">
        <ele>1592.819</ele>
        <time>2018-09-22T04:44:23Z</time>
      </trkpt>
      <trkpt lat="42.246409" lon="1.718670">
        <ele>1592.690</ele>
        <time>2018-09-22T04:44:25Z</time>
      </trkpt>
      <trkpt lat="42.246405" lon="1.718626">
        <ele>1592.224</ele>
        <time>2018-09-22T04:44:27Z</time>
      </trkpt>
      <trkpt lat="42.246404" lon="1.718587">
        <ele>1591.860</ele>
        <time>2018-09-22T04:44:29Z</time>
      </trkpt>
      <trkpt lat="42.246405" lon="1.718545">
        <ele>1591.490</ele>
        <time>2018-09-22T04:44:31Z</time>
      </trkpt>
      <trkpt lat="42.246411" lon="1.718474">
        <ele>1590.492</ele>
        <time>2018-09-22T04:44:35Z</time>
      </trkpt>
      <trkpt lat="42.246378" lon="1.718339">
        <ele>1591.884</ele>
        <time>2018-09-22T04:44:42Z</time>
      </trkpt>
      <trkpt lat="42.246373" lon="1.718281">
        <ele>1592.297</ele>
        <time>2018-09-22T04:44:45Z</time>
      </trkpt>
      <trkpt lat="42.246375" lon="1.718227">
        <ele>1592.023</ele>
        <time>2018-09-22T04:44:48Z</time>
      </trkpt>
      <trkpt lat="42.246362" lon="1.718143">
        <ele>1593.025</ele>
        <time>2018-09-22T04:44:52Z</time>
      </trkpt>
      <trkpt lat="42.246361" lon="1.718126">
        <ele>1593.008</ele>
        <time>2018-09-22T04:44:53Z</time>
      </trkpt>
      <trkpt lat="42.246363" lon="1.718060">
        <ele>1592.931</ele>
        <time>2018-09-22T04:44:57Z</time>
      </trkpt>
      <trkpt lat="42.246351" lon="1.718025">
        <ele>1594.047</ele>
        <time>2018-09-22T04:44:59Z</time>
      </trkpt>
      <trkpt lat="42.246359" lon="1.718008">
        <ele>1593.668</ele>
        <time>2018-09-22T04:45:00Z</time>
      </trkpt>
      <trkpt lat="42.246373" lon="1.717838">
        <ele>1593.752</ele>
        <time>2018-09-22T04:45:09Z</time>
      </trkpt>
      <trkpt lat="42.246356" lon="1.717697">
        <ele>1596.018</ele>
        <time>2018-09-22T04:45:18Z</time>
      </trkpt>
      <trkpt lat="42.246376" lon="1.717577">
        <ele>1595.338</ele>
        <time>2018-09-22T04:45:24Z</time>
      </trkpt>
      <trkpt lat="42.246383" lon="1.717558">
        <ele>1595.080</ele>
        <time>2018-09-22T04:45:25Z</time>
      </trkpt>
      <trkpt lat="42.246384" lon="1.717523">
        <ele>1595.142</ele>
        <time>2018-09-22T04:45:27Z</time>
      </trkpt>
      <trkpt lat="42.246383" lon="1.717481">
        <ele>1595.531</ele>
        <time>2018-09-22T04:45:29Z</time>
      </trkpt>
      <trkpt lat="42.246410" lon="1.717341">
        <ele>1593.961</ele>
        <time>2018-09-22T04:45:36Z</time>
      </trkpt>
      <trkpt lat="42.246392" lon="1.717189">
        <ele>1596.207</ele>
        <time>2018-09-22T04:45:44Z</time>
      </trkpt>
      <trkpt lat="42.246391" lon="1.717172">
        <ele>1596.508</ele>
        <time>2018-09-22T04:45:45Z</time>
      </trkpt>
      <trkpt lat="42.246396" lon="1.717153">
        <ele>1596.415</ele>
        <time>2018-09-22T04:45:46Z</time>
      </trkpt>
      <trkpt lat="42.246400" lon="1.717100">
        <ele>1596.931</ele>
        <time>2018-09-22T04:45:49Z</time>
      </trkpt>
      <trkpt lat="42.246395" lon="1.717044">
        <ele>1598.042</ele>
        <time>2018-09-22T04:45:52Z</time>
      </trkpt>
      <trkpt lat="42.246395" lon="1.717024">
        <ele>1598.366</ele>
        <time>2018-09-22T04:45:53Z</time>
      </trkpt>
      <trkpt lat="42.246382" lon="1.716980">
        <ele>1599.962</ele>
        <time>2018-09-22T04:45:55Z</time>
      </trkpt>
      <trkpt lat="42.246396" lon="1.716937">
        <ele>1599.642</ele>
        <time>2018-09-22T04:45:57Z</time>
      </trkpt>
      <trkpt lat="42.246401" lon="1.716902">
        <ele>1600.084</ele>
        <time>2018-09-22T04:45:59Z</time>
      </trkpt>
      <trkpt lat="42.246403" lon="1.716874">
        <ele>1600.486</ele>
        <time>2018-09-22T04:46:01Z</time>
      </trkpt>
      <trkpt lat="42.246398" lon="1.716813">
        <ele>1602.137</ele>
        <time>2018-09-22T04:46:05Z</time>
      </trkpt>
      <trkpt lat="42.246397" lon="1.716797">
        <ele>1602.549</ele>
        <time>2018-09-22T04:46:06Z</time>
      </trkpt>
      <trkpt lat="42.246397" lon="1.716785">
        <ele>1602.813</ele>
        <time>2018-09-22T04:46:07Z</time>
      </trkpt>
      <trkpt lat="42.246392" lon="1.716763">
        <ele>1603.708</ele>
        <time>2018-09-22T04:46:09Z</time>
      </trkpt>
      <trkpt lat="42.246392" lon="1.716750">
        <ele>1603.985</ele>
        <time>2018-09-22T04:46:10Z</time>
      </trkpt>
      <trkpt lat="42.246396" lon="1.716667">
        <ele>1605.461</ele>
        <time>2018-09-22T04:46:15Z</time>
      </trkpt>
      <trkpt lat="42.246398" lon="1.716621">
        <ele>1606.212</ele>
        <time>2018-09-22T04:46:18Z</time>
      </trkpt>
      <trkpt lat="42.246411" lon="1.716583">
        <ele>1606.266</ele>
        <time>2018-09-22T04:46:20Z</time>
      </trkpt>
      <trkpt lat="42.246405" lon="1.716461">
        <ele>1609.342</ele>
        <time>2018-09-22T04:46:26Z</time>
      </trkpt>
      <trkpt lat="42.246401" lon="1.716450">
        <ele>1609.882</ele>
        <time>2018-09-22T04:46:27Z</time>
      </trkpt>
      <trkpt lat="42.246390" lon="1.716417">
        <ele>1611.334</ele>
        <time>2018-09-22T04:46:29Z</time>
      </trkpt>
      <trkpt lat="42.246400" lon="1.716378">
        <ele>1611.386</ele>
        <time>2018-09-22T04:46:31Z</time>
      </trkpt>
      <trkpt lat="42.246415" lon="1.716338">
        <ele>1610.613</ele>
        <time>2018-09-22T04:46:33Z</time>
      </trkpt>
      <trkpt lat="42.246422" lon="1.716278">
        <ele>1610.743</ele>
        <time>2018-09-22T04:46:36Z</time>
      </trkpt>
      <trkpt lat="42.246427" lon="1.716240">
        <ele>1610.707</ele>
        <time>2018-09-22T04:46:38Z</time>
      </trkpt>
      <trkpt lat="42.246441" lon="1.716218">
        <ele>1610.108</ele>
        <time>2018-09-22T04:46:39Z</time>
      </trkpt>
      <trkpt lat="42.246449" lon="1.716174">
        <ele>1610.053</ele>
        <time>2018-09-22T04:46:41Z</time>
      </trkpt>
      <trkpt lat="42.246447" lon="1.716142">
        <ele>1610.579</ele>
        <time>2018-09-22T04:46:43Z</time>
      </trkpt>
      <trkpt lat="42.246435" lon="1.716109">
        <ele>1611.430</ele>
        <time>2018-09-22T04:46:45Z</time>
      </trkpt>
      <trkpt lat="42.246426" lon="1.716095">
        <ele>1611.784</ele>
        <time>2018-09-22T04:46:46Z</time>
      </trkpt>
      <trkpt lat="42.246423" lon="1.716084">
        <ele>1611.830</ele>
        <time>2018-09-22T04:46:47Z</time>
      </trkpt>
      <trkpt lat="42.246432" lon="1.716083">
        <ele>1611.370</ele>
        <time>2018-09-22T04:46:48Z</time>
      </trkpt>
      <trkpt lat="42.246448" lon="1.716087">
        <ele>1610.512</ele>
        <time>2018-09-22T04:46:49Z</time>
      </trkpt>
      <trkpt lat="42.246472" lon="1.716100">
        <ele>1609.354</ele>
        <time>2018-09-22T04:46:51Z</time>
      </trkpt>
      <trkpt lat="42.246517" lon="1.716120">
        <ele>1606.938</ele>
        <time>2018-09-22T04:46:55Z</time>
      </trkpt>
      <trkpt lat="42.246534" lon="1.716113">
        <ele>1606.170</ele>
        <time>2018-09-22T04:46:58Z</time>
      </trkpt>
      <trkpt lat="42.246555" lon="1.716098">
        <ele>1604.917</ele>
        <time>2018-09-22T04:47:01Z</time>
      </trkpt>
      <trkpt lat="42.246565" lon="1.716094">
        <ele>1604.408</ele>
        <time>2018-09-22T04:47:03Z</time>
      </trkpt>
      <trkpt lat="42.246567" lon="1.716091">
        <ele>1604.315</ele>
        <time>2018-09-22T04:47:05Z</time>
      </trkpt>
      <trkpt lat="42.246565" lon="1.716108">
        <ele>1604.481</ele>
        <time>2018-09-22T04:47:10Z</time>
      </trkpt>
      <trkpt lat="42.246565" lon="1.716115">
        <ele>1604.462</ele>
        <time>2018-09-22T04:47:11Z</time>
      </trkpt>
      <trkpt lat="42.246547" lon="1.716136">
        <ele>1605.066</ele>
        <time>2018-09-22T04:47:13Z</time>
      </trkpt>
      <trkpt lat="42.246537" lon="1.716141">
        <ele>1605.582</ele>
        <time>2018-09-22T04:47:15Z</time>
      </trkpt>
      <trkpt lat="42.246528" lon="1.716134">
        <ele>1606.192</ele>
        <time>2018-09-22T04:47:17Z</time>
      </trkpt>
      <trkpt lat="42.246540" lon="1.716114">
        <ele>1605.784</ele>
        <time>2018-09-22T04:47:22Z</time>
      </trkpt>
      <trkpt lat="42.246549" lon="1.716110">
        <ele>1605.336</ele>
        <time>2018-09-22T04:47:23Z</time>
      </trkpt>
      <trkpt lat="42.246552" lon="1.716106">
        <ele>1605.199</ele>
        <time>2018-09-22T04:47:24Z</time>
      </trkpt>
      <trkpt lat="42.246559" lon="1.716099">
        <ele>1604.707</ele>
        <time>2018-09-22T04:47:25Z</time>
      </trkpt>
      <trkpt lat="42.246576" lon="1.716057">
        <ele>1603.627</ele>
        <time>2018-09-22T04:47:28Z</time>
      </trkpt>
      <trkpt lat="42.246596" lon="1.715983">
        <ele>1602.308</ele>
        <time>2018-09-22T04:47:32Z</time>
      </trkpt>
      <trkpt lat="42.246590" lon="1.715958">
        <ele>1602.551</ele>
        <time>2018-09-22T04:47:33Z</time>
      </trkpt>
      <trkpt lat="42.246565" lon="1.715896">
        <ele>1603.337</ele>
        <time>2018-09-22T04:47:36Z</time>
      </trkpt>
      <trkpt lat="42.246492" lon="1.715771">
        <ele>1603.958</ele>
        <time>2018-09-22T04:47:41Z</time>
      </trkpt>
      <trkpt lat="42.246446" lon="1.715708">
        <ele>1603.672</ele>
        <time>2018-09-22T04:47:44Z</time>
      </trkpt>
      <trkpt lat="42.246439" lon="1.715685">
        <ele>1603.138</ele>
        <time>2018-09-22T04:47:45Z</time>
      </trkpt>
      <trkpt lat="42.246419" lon="1.715652">
        <ele>1602.918</ele>
        <time>2018-09-22T04:47:47Z</time>
      </trkpt>
      <trkpt lat="42.246389" lon="1.715629">
        <ele>1603.360</ele>
        <time>2018-09-22T04:47:49Z</time>
      </trkpt>
      <trkpt lat="42.246386" lon="1.715606">
        <ele>1602.782</ele>
        <time>2018-09-22T04:47:50Z</time>
      </trkpt>
      <trkpt lat="42.246362" lon="1.715554">
        <ele>1602.093</ele>
        <time>2018-09-22T04:47:53Z</time>
      </trkpt>
      <trkpt lat="42.246351" lon="1.715540">
        <ele>1601.965</ele>
        <time>2018-09-22T04:47:54Z</time>
      </trkpt>
      <trkpt lat="42.246327" lon="1.715517">
        <ele>1602.021</ele>
        <time>2018-09-22T04:47:56Z</time>
      </trkpt>
      <trkpt lat="42.246326" lon="1.715506">
        <ele>1601.608</ele>
        <time>2018-09-22T04:47:57Z</time>
      </trkpt>
      <trkpt lat="42.246306" lon="1.715422">
        <ele>1598.791</ele>
        <time>2018-09-22T04:48:01Z</time>
      </trkpt>
      <trkpt lat="42.246286" lon="1.715382">
        <ele>1597.937</ele>
        <time>2018-09-22T04:48:03Z</time>
      </trkpt>
      <trkpt lat="42.246270" lon="1.715380">
        <ele>1598.518</ele>
        <time>2018-09-22T04:48:04Z</time>
      </trkpt>
      <trkpt lat="42.246248" lon="1.715332">
        <ele>1597.332</ele>
        <time>2018-09-22T04:48:07Z</time>
      </trkpt>
      <trkpt lat="42.246208" lon="1.715272">
        <ele>1596.458</ele>
        <time>2018-09-22T04:48:10Z</time>
      </trkpt>
      <trkpt lat="42.246196" lon="1.715211">
        <ele>1594.078</ele>
        <time>2018-09-22T04:48:13Z</time>
      </trkpt>
      <trkpt lat="42.246181" lon="1.715188">
        <ele>1593.510</ele>
        <time>2018-09-22T04:48:15Z</time>
      </trkpt>
      <trkpt lat="42.246178" lon="1.715166">
        <ele>1592.542</ele>
        <time>2018-09-22T04:48:16Z</time>
      </trkpt>
      <trkpt lat="42.246170" lon="1.715143">
        <ele>1591.794</ele>
        <time>2018-09-22T04:48:17Z</time>
      </trkpt>
      <trkpt lat="42.246159" lon="1.715114">
        <ele>1590.757</ele>
        <time>2018-09-22T04:48:18Z</time>
      </trkpt>
      <trkpt lat="42.246104" lon="1.715007">
        <ele>1587.722</ele>
        <time>2018-09-22T04:48:22Z</time>
      </trkpt>
      <trkpt lat="42.246070" lon="1.714956">
        <ele>1588.308</ele>
        <time>2018-09-22T04:48:25Z</time>
      </trkpt>
      <trkpt lat="42.246049" lon="1.714920">
        <ele>1588.811</ele>
        <time>2018-09-22T04:48:28Z</time>
      </trkpt>
      <trkpt lat="42.246036" lon="1.714915">
        <ele>1589.527</ele>
        <time>2018-09-22T04:48:29Z</time>
      </trkpt>
      <trkpt lat="42.246010" lon="1.714888">
        <ele>1590.718</ele>
        <time>2018-09-22T04:48:31Z</time>
      </trkpt>
      <trkpt lat="42.246010" lon="1.714855">
        <ele>1590.122</ele>
        <time>2018-09-22T04:48:33Z</time>
      </trkpt>
      <trkpt lat="42.246027" lon="1.714830">
        <ele>1588.418</ele>
        <time>2018-09-22T04:48:35Z</time>
      </trkpt>
      <trkpt lat="42.246039" lon="1.714815">
        <ele>1587.368</ele>
        <time>2018-09-22T04:48:38Z</time>
      </trkpt>
      <trkpt lat="42.246049" lon="1.714803">
        <ele>1586.460</ele>
        <time>2018-09-22T04:48:40Z</time>
      </trkpt>
      <trkpt lat="42.246067" lon="1.714781">
        <ele>1584.662</ele>
        <time>2018-09-22T04:48:43Z</time>
      </trkpt>
      <trkpt lat="42.246099" lon="1.714741">
        <ele>1581.367</ele>
        <time>2018-09-22T04:48:49Z</time>
      </trkpt>
      <trkpt lat="42.246109" lon="1.714743">
        <ele>1580.681</ele>
        <time>2018-09-22T04:48:51Z</time>
      </trkpt>
      <trkpt lat="42.246109" lon="1.714735">
        <ele>1580.419</ele>
        <time>2018-09-22T04:48:52Z</time>
      </trkpt>
      <trkpt lat="42.246115" lon="1.714726">
        <ele>1579.808</ele>
        <time>2018-09-22T04:48:53Z</time>
      </trkpt>
      <trkpt lat="42.246111" lon="1.714707">
        <ele>1580.198</ele>
        <time>2018-09-22T04:48:55Z</time>
      </trkpt>
      <trkpt lat="42.246114" lon="1.714689">
        <ele>1580.234</ele>
        <time>2018-09-22T04:48:56Z</time>
      </trkpt>
      <trkpt lat="42.246120" lon="1.714671">
        <ele>1580.165</ele>
        <time>2018-09-22T04:48:57Z</time>
      </trkpt>
      <trkpt lat="42.246120" lon="1.714647">
        <ele>1580.429</ele>
        <time>2018-09-22T04:48:58Z</time>
      </trkpt>
      <trkpt lat="42.246128" lon="1.714577">
        <ele>1580.985</ele>
        <time>2018-09-22T04:49:03Z</time>
      </trkpt>
      <trkpt lat="42.246123" lon="1.714541">
        <ele>1581.775</ele>
        <time>2018-09-22T04:49:05Z</time>
      </trkpt>
      <trkpt lat="42.246129" lon="1.714498">
        <ele>1581.947</ele>
        <time>2018-09-22T04:49:07Z</time>
      </trkpt>
      <trkpt lat="42.246163" lon="1.714409">
        <ele>1580.989</ele>
        <time>2018-09-22T04:49:11Z</time>
      </trkpt>
      <trkpt lat="42.246218" lon="1.714317">
        <ele>1578.924</ele>
        <time>2018-09-22T04:49:15Z</time>
      </trkpt>
      <trkpt lat="42.246235" lon="1.714255">
        <ele>1579.004</ele>
        <time>2018-09-22T04:49:17Z</time>
      </trkpt>
      <trkpt lat="42.246280" lon="1.714106">
        <ele>1578.514</ele>
        <time>2018-09-22T04:49:22Z</time>
      </trkpt>
      <trkpt lat="42.246297" lon="1.714046">
        <ele>1577.808</ele>
        <time>2018-09-22T04:49:24Z</time>
      </trkpt>
      <trkpt lat="42.246339" lon="1.713904">
        <ele>1576.174</ele>
        <time>2018-09-22T04:49:29Z</time>
      </trkpt>
      <trkpt lat="42.246404" lon="1.713717">
        <ele>1574.920</ele>
        <time>2018-09-22T04:49:36Z</time>
      </trkpt>
      <trkpt lat="42.246442" lon="1.713608">
        <ele>1574.341</ele>
        <time>2018-09-22T04:49:40Z</time>
      </trkpt>
      <trkpt lat="42.246482" lon="1.713431">
        <ele>1570.895</ele>
        <time>2018-09-22T04:49:46Z</time>
      </trkpt>
      <trkpt lat="42.246455" lon="1.713329">
        <ele>1571.551</ele>
        <time>2018-09-22T04:49:49Z</time>
      </trkpt>
      <trkpt lat="42.246335" lon="1.713211">
        <ele>1573.851</ele>
        <time>2018-09-22T04:49:55Z</time>
      </trkpt>
      <trkpt lat="42.246325" lon="1.713196">
        <ele>1573.983</ele>
        <time>2018-09-22T04:49:56Z</time>
      </trkpt>
      <trkpt lat="42.246306" lon="1.713181">
        <ele>1574.635</ele>
        <time>2018-09-22T04:49:57Z</time>
      </trkpt>
      <trkpt lat="42.246274" lon="1.713153">
        <ele>1575.812</ele>
        <time>2018-09-22T04:49:59Z</time>
      </trkpt>
      <trkpt lat="42.246276" lon="1.713107">
        <ele>1574.732</ele>
        <time>2018-09-22T04:50:01Z</time>
      </trkpt>
      <trkpt lat="42.246303" lon="1.713054">
        <ele>1571.805</ele>
        <time>2018-09-22T04:50:03Z</time>
      </trkpt>
      <trkpt lat="42.246307" lon="1.712995">
        <ele>1571.808</ele>
        <time>2018-09-22T04:50:05Z</time>
      </trkpt>
      <trkpt lat="42.246312" lon="1.712965">
        <ele>1571.653</ele>
        <time>2018-09-22T04:50:06Z</time>
      </trkpt>
      <trkpt lat="42.246364" lon="1.712838">
        <ele>1568.529</ele>
        <time>2018-09-22T04:50:10Z</time>
      </trkpt>
      <trkpt lat="42.246381" lon="1.712669">
        <ele>1565.990</ele>
        <time>2018-09-22T04:50:16Z</time>
      </trkpt>
      <trkpt lat="42.246349" lon="1.712506">
        <ele>1565.524</ele>
        <time>2018-09-22T04:50:21Z</time>
      </trkpt>
      <trkpt lat="42.246349" lon="1.712493">
        <ele>1565.290</ele>
        <time>2018-09-22T04:50:23Z</time>
      </trkpt>
      <trkpt lat="42.246350" lon="1.712476">
        <ele>1564.720</ele>
        <time>2018-09-22T04:50:24Z</time>
      </trkpt>
      <trkpt lat="42.246362" lon="1.712448">
        <ele>1563.342</ele>
        <time>2018-09-22T04:50:26Z</time>
      </trkpt>
      <trkpt lat="42.246364" lon="1.712414">
        <ele>1562.364</ele>
        <time>2018-09-22T04:50:28Z</time>
      </trkpt>
      <trkpt lat="42.246356" lon="1.712392">
        <ele>1562.312</ele>
        <time>2018-09-22T04:50:30Z</time>
      </trkpt>
      <trkpt lat="42.246360" lon="1.712386">
        <ele>1561.932</ele>
        <time>2018-09-22T04:50:31Z</time>
      </trkpt>
      <trkpt lat="42.246369" lon="1.712389">
        <ele>1561.405</ele>
        <time>2018-09-22T04:50:34Z</time>
      </trkpt>
      <trkpt lat="42.246373" lon="1.712390">
        <ele>1561.208</ele>
        <time>2018-09-22T04:50:35Z</time>
      </trkpt>
      <trkpt lat="42.246377" lon="1.712396">
        <ele>1561.123</ele>
        <time>2018-09-22T04:50:36Z</time>
      </trkpt>
      <trkpt lat="42.246391" lon="1.712399">
        <ele>1560.299</ele>
        <time>2018-09-22T04:50:38Z</time>
      </trkpt>
      <trkpt lat="42.246423" lon="1.712419">
        <ele>1558.770</ele>
        <time>2018-09-22T04:50:40Z</time>
      </trkpt>
      <trkpt lat="42.246439" lon="1.712430">
        <ele>1558.034</ele>
        <time>2018-09-22T04:50:41Z</time>
      </trkpt>
      <trkpt lat="42.246469" lon="1.712452">
        <ele>1556.690</ele>
        <time>2018-09-22T04:50:43Z</time>
      </trkpt>
      <trkpt lat="42.246495" lon="1.712475">
        <ele>1555.530</ele>
        <time>2018-09-22T04:50:45Z</time>
      </trkpt>
      <trkpt lat="42.246517" lon="1.712503">
        <ele>1554.742</ele>
        <time>2018-09-22T04:50:47Z</time>
      </trkpt>
      <trkpt lat="42.246544" lon="1.712542">
        <ele>1553.244</ele>
        <time>2018-09-22T04:50:49Z</time>
      </trkpt>
      <trkpt lat="42.246572" lon="1.712566">
        <ele>1551.445</ele>
        <time>2018-09-22T04:50:51Z</time>
      </trkpt>
      <trkpt lat="42.246619" lon="1.712589">
        <ele>1548.247</ele>
        <time>2018-09-22T04:50:54Z</time>
      </trkpt>
      <trkpt lat="42.246627" lon="1.712592">
        <ele>1547.711</ele>
        <time>2018-09-22T04:50:55Z</time>
      </trkpt>
      <trkpt lat="42.246637" lon="1.712597">
        <ele>1547.008</ele>
        <time>2018-09-22T04:50:56Z</time>
      </trkpt>
      <trkpt lat="42.246650" lon="1.712604">
        <ele>1546.166</ele>
        <time>2018-09-22T04:50:57Z</time>
      </trkpt>
      <trkpt lat="42.246664" lon="1.712614">
        <ele>1545.132</ele>
        <time>2018-09-22T04:50:58Z</time>
      </trkpt>
      <trkpt lat="42.246685" lon="1.712648">
        <ele>1543.723</ele>
        <time>2018-09-22T04:51:00Z</time>
      </trkpt>
      <trkpt lat="42.246688" lon="1.712672">
        <ele>1543.567</ele>
        <time>2018-09-22T04:51:02Z</time>
      </trkpt>
      <trkpt lat="42.246690" lon="1.712689">
        <ele>1543.363</ele>
        <time>2018-09-22T04:51:04Z</time>
      </trkpt>
      <trkpt lat="42.246701" lon="1.712693">
        <ele>1542.533</ele>
        <time>2018-09-22T04:51:06Z</time>
      </trkpt>
      <trkpt lat="42.246700" lon="1.712702">
        <ele>1542.645</ele>
        <time>2018-09-22T04:51:08Z</time>
      </trkpt>
      <trkpt lat="42.246699" lon="1.712728">
        <ele>1542.797</ele>
        <time>2018-09-22T04:51:11Z</time>
      </trkpt>
      <trkpt lat="42.246698" lon="1.712766">
        <ele>1542.787</ele>
        <time>2018-09-22T04:51:14Z</time>
      </trkpt>
      <trkpt lat="42.246692" lon="1.712797">
        <ele>1543.642</ele>
        <time>2018-09-22T04:51:17Z</time>
      </trkpt>
      <trkpt lat="42.246695" lon="1.712801">
        <ele>1543.526</ele>
        <time>2018-09-22T04:51:18Z</time>
      </trkpt>
      <trkpt lat="42.246710" lon="1.712873">
        <ele>1544.208</ele>
        <time>2018-09-22T04:51:22Z</time>
      </trkpt>
      <trkpt lat="42.246710" lon="1.712894">
        <ele>1544.770</ele>
        <time>2018-09-22T04:51:24Z</time>
      </trkpt>
      <trkpt lat="42.246751" lon="1.712912">
        <ele>1542.536</ele>
        <time>2018-09-22T04:51:28Z</time>
      </trkpt>
      <trkpt lat="42.246763" lon="1.712931">
        <ele>1542.387</ele>
        <time>2018-09-22T04:51:30Z</time>
      </trkpt>
      <trkpt lat="42.246783" lon="1.712959">
        <ele>1541.821</ele>
        <time>2018-09-22T04:51:32Z</time>
      </trkpt>
      <trkpt lat="42.246818" lon="1.712999">
        <ele>1541.037</ele>
        <time>2018-09-22T04:51:34Z</time>
      </trkpt>
      <trkpt lat="42.246918" lon="1.713092">
        <ele>1538.237</ele>
        <time>2018-09-22T04:51:41Z</time>
      </trkpt>
      <trkpt lat="42.246931" lon="1.713104">
        <ele>1537.769</ele>
        <time>2018-09-22T04:51:42Z</time>
      </trkpt>
      <trkpt lat="42.246951" lon="1.713119">
        <ele>1536.841</ele>
        <time>2018-09-22T04:51:43Z</time>
      </trkpt>
      <trkpt lat="42.246975" lon="1.713136">
        <ele>1535.565</ele>
        <time>2018-09-22T04:51:44Z</time>
      </trkpt>
      <trkpt lat="42.246993" lon="1.713158">
        <ele>1534.668</ele>
        <time>2018-09-22T04:51:46Z</time>
      </trkpt>
      <trkpt lat="42.246999" lon="1.713169">
        <ele>1534.514</ele>
        <time>2018-09-22T04:51:47Z</time>
      </trkpt>
      <trkpt lat="42.247007" lon="1.713186">
        <ele>1534.308</ele>
        <time>2018-09-22T04:51:48Z</time>
      </trkpt>
      <trkpt lat="42.247025" lon="1.713214">
        <ele>1533.648</ele>
        <time>2018-09-22T04:51:51Z</time>
      </trkpt>
      <trkpt lat="42.247056" lon="1.713245">
        <ele>1532.044</ele>
        <time>2018-09-22T04:51:54Z</time>
      </trkpt>
      <trkpt lat="42.247070" lon="1.713260">
        <ele>1531.315</ele>
        <time>2018-09-22T04:51:55Z</time>
      </trkpt>
      <trkpt lat="42.247097" lon="1.713336">
        <ele>1530.929</ele>
        <time>2018-09-22T04:51:58Z</time>
      </trkpt>
      <trkpt lat="42.247131" lon="1.713394">
        <ele>1528.215</ele>
        <time>2018-09-22T04:52:01Z</time>
      </trkpt>
      <trkpt lat="42.247162" lon="1.713426">
        <ele>1525.885</ele>
        <time>2018-09-22T04:52:03Z</time>
      </trkpt>
      <trkpt lat="42.247171" lon="1.713445">
        <ele>1525.197</ele>
        <time>2018-09-22T04:52:04Z</time>
      </trkpt>
      <trkpt lat="42.247170" lon="1.713496">
        <ele>1524.919</ele>
        <time>2018-09-22T04:52:07Z</time>
      </trkpt>
      <trkpt lat="42.247185" lon="1.713507">
        <ele>1523.923</ele>
        <time>2018-09-22T04:52:09Z</time>
      </trkpt>
      <trkpt lat="42.247192" lon="1.713493">
        <ele>1523.583</ele>
        <time>2018-09-22T04:52:12Z</time>
      </trkpt>
      <trkpt lat="42.247191" lon="1.713489">
        <ele>1523.511</ele>
        <time>2018-09-22T04:52:13Z</time>
      </trkpt>
      <trkpt lat="42.247199" lon="1.713486">
        <ele>1523.008</ele>
        <time>2018-09-22T04:52:14Z</time>
      </trkpt>
      <trkpt lat="42.247209" lon="1.713465">
        <ele>1522.454</ele>
        <time>2018-09-22T04:52:16Z</time>
      </trkpt>
      <trkpt lat="42.247216" lon="1.713435">
        <ele>1522.020</ele>
        <time>2018-09-22T04:52:18Z</time>
      </trkpt>
      <trkpt lat="42.247218" lon="1.713391">
        <ele>1522.091</ele>
        <time>2018-09-22T04:52:20Z</time>
      </trkpt>
      <trkpt lat="42.247212" lon="1.713364">
        <ele>1522.565</ele>
        <time>2018-09-22T04:52:21Z</time>
      </trkpt>
      <trkpt lat="42.247207" lon="1.713342">
        <ele>1523.011</ele>
        <time>2018-09-22T04:52:22Z</time>
      </trkpt>
      <trkpt lat="42.247207" lon="1.713323">
        <ele>1522.891</ele>
        <time>2018-09-22T04:52:23Z</time>
      </trkpt>
      <trkpt lat="42.247237" lon="1.713321">
        <ele>1520.673</ele>
        <time>2018-09-22T04:52:25Z</time>
      </trkpt>
      <trkpt lat="42.247261" lon="1.713379">
        <ele>1518.985</ele>
        <time>2018-09-22T04:52:28Z</time>
      </trkpt>
      <trkpt lat="42.247287" lon="1.713414">
        <ele>1516.915</ele>
        <time>2018-09-22T04:52:30Z</time>
      </trkpt>
      <trkpt lat="42.247297" lon="1.713427">
        <ele>1516.265</ele>
        <time>2018-09-22T04:52:31Z</time>
      </trkpt>
      <trkpt lat="42.247315" lon="1.713459">
        <ele>1514.811</ele>
        <time>2018-09-22T04:52:33Z</time>
      </trkpt>
      <trkpt lat="42.247344" lon="1.713481">
        <ele>1512.708</ele>
        <time>2018-09-22T04:52:36Z</time>
      </trkpt>
      <trkpt lat="42.247349" lon="1.713499">
        <ele>1512.393</ele>
        <time>2018-09-22T04:52:38Z</time>
      </trkpt>
      <trkpt lat="42.247355" lon="1.713508">
        <ele>1511.929</ele>
        <time>2018-09-22T04:52:39Z</time>
      </trkpt>
      <trkpt lat="42.247375" lon="1.713512">
        <ele>1510.420</ele>
        <time>2018-09-22T04:52:41Z</time>
      </trkpt>
      <trkpt lat="42.247377" lon="1.713509">
        <ele>1510.364</ele>
        <time>2018-09-22T04:52:42Z</time>
      </trkpt>
      <trkpt lat="42.247380" lon="1.713500">
        <ele>1510.110</ele>
        <time>2018-09-22T04:52:43Z</time>
      </trkpt>
      <trkpt lat="42.247379" lon="1.713492">
        <ele>1510.150</ele>
        <time>2018-09-22T04:52:44Z</time>
      </trkpt>
      <trkpt lat="42.247383" lon="1.713480">
        <ele>1509.992</ele>
        <time>2018-09-22T04:52:45Z</time>
      </trkpt>
      <trkpt lat="42.247397" lon="1.713443">
        <ele>1508.814</ele>
        <time>2018-09-22T04:52:47Z</time>
      </trkpt>
      <trkpt lat="42.247396" lon="1.713396">
        <ele>1508.916</ele>
        <time>2018-09-22T04:52:50Z</time>
      </trkpt>
      <trkpt lat="42.247402" lon="1.713383">
        <ele>1508.476</ele>
        <time>2018-09-22T04:52:52Z</time>
      </trkpt>
      <trkpt lat="42.247401" lon="1.713383">
        <ele>1508.513</ele>
        <time>2018-09-22T04:52:53Z</time>
      </trkpt>
      <trkpt lat="42.247410" lon="1.713371">
        <ele>1507.808</ele>
        <time>2018-09-22T04:52:55Z</time>
      </trkpt>
      <trkpt lat="42.247422" lon="1.713355">
        <ele>1506.923</ele>
        <time>2018-09-22T04:52:57Z</time>
      </trkpt>
      <trkpt lat="42.247421" lon="1.713343">
        <ele>1506.989</ele>
        <time>2018-09-22T04:52:58Z</time>
      </trkpt>
      <trkpt lat="42.247424" lon="1.713307">
        <ele>1506.280</ele>
        <time>2018-09-22T04:53:00Z</time>
      </trkpt>
      <trkpt lat="42.247430" lon="1.713295">
        <ele>1505.524</ele>
        <time>2018-09-22T04:53:01Z</time>
      </trkpt>
      <trkpt lat="42.247443" lon="1.713289">
        <ele>1504.560</ele>
        <time>2018-09-22T04:53:02Z</time>
      </trkpt>
      <trkpt lat="42.247467" lon="1.713255">
        <ele>1502.090</ele>
        <time>2018-09-22T04:53:05Z</time>
      </trkpt>
      <trkpt lat="42.247466" lon="1.713221">
        <ele>1501.562</ele>
        <time>2018-09-22T04:53:07Z</time>
      </trkpt>
      <trkpt lat="42.247471" lon="1.713200">
        <ele>1500.784</ele>
        <time>2018-09-22T04:53:09Z</time>
      </trkpt>
      <trkpt lat="42.247476" lon="1.713183">
        <ele>1500.087</ele>
        <time>2018-09-22T04:53:12Z</time>
      </trkpt>
      <trkpt lat="42.247503" lon="1.713214">
        <ele>1498.642</ele>
        <time>2018-09-22T04:53:19Z</time>
      </trkpt>
      <trkpt lat="42.247538" lon="1.713247">
        <ele>1496.826</ele>
        <time>2018-09-22T04:53:22Z</time>
      </trkpt>
      <trkpt lat="42.247570" lon="1.713264">
        <ele>1494.908</ele>
        <time>2018-09-22T04:53:25Z</time>
      </trkpt>
      <trkpt lat="42.247592" lon="1.713276">
        <ele>1493.610</ele>
        <time>2018-09-22T04:53:26Z</time>
      </trkpt>
      <trkpt lat="42.247615" lon="1.713293">
        <ele>1492.376</ele>
        <time>2018-09-22T04:53:27Z</time>
      </trkpt>
      <trkpt lat="42.247660" lon="1.713327">
        <ele>1489.957</ele>
        <time>2018-09-22T04:53:29Z</time>
      </trkpt>
      <trkpt lat="42.247681" lon="1.713344">
        <ele>1488.671</ele>
        <time>2018-09-22T04:53:30Z</time>
      </trkpt>
      <trkpt lat="42.247725" lon="1.713363">
        <ele>1485.757</ele>
        <time>2018-09-22T04:53:32Z</time>
      </trkpt>
      <trkpt lat="42.247731" lon="1.713364">
        <ele>1485.317</ele>
        <time>2018-09-22T04:53:33Z</time>
      </trkpt>
      <trkpt lat="42.247746" lon="1.713363">
        <ele>1484.369</ele>
        <time>2018-09-22T04:53:34Z</time>
      </trkpt>
      <trkpt lat="42.247775" lon="1.713375">
        <ele>1482.531</ele>
        <time>2018-09-22T04:53:36Z</time>
      </trkpt>
      <trkpt lat="42.247783" lon="1.713384">
        <ele>1481.935</ele>
        <time>2018-09-22T04:53:37Z</time>
      </trkpt>
      <trkpt lat="42.247824" lon="1.713420">
        <ele>1478.586</ele>
        <time>2018-09-22T04:53:40Z</time>
      </trkpt>
      <trkpt lat="42.247854" lon="1.713447">
        <ele>1476.014</ele>
        <time>2018-09-22T04:53:42Z</time>
      </trkpt>
      <trkpt lat="42.247888" lon="1.713476">
        <ele>1473.108</ele>
        <time>2018-09-22T04:53:44Z</time>
      </trkpt>
      <trkpt lat="42.247941" lon="1.713534">
        <ele>1468.435</ele>
        <time>2018-09-22T04:53:48Z</time>
      </trkpt>
      <trkpt lat="42.247933" lon="1.713572">
        <ele>1469.351</ele>
        <time>2018-09-22T04:53:50Z</time>
      </trkpt>
      <trkpt lat="42.247911" lon="1.713578">
        <ele>1471.492</ele>
        <time>2018-09-22T04:53:52Z</time>
      </trkpt>
      <trkpt lat="42.247903" lon="1.713591">
        <ele>1472.296</ele>
        <time>2018-09-22T04:53:54Z</time>
      </trkpt>
      <trkpt lat="42.247899" lon="1.713603">
        <ele>1472.612</ele>
        <time>2018-09-22T04:53:55Z</time>
      </trkpt>
      <trkpt lat="42.247879" lon="1.713653">
        <ele>1472.872</ele>
        <time>2018-09-22T04:53:58Z</time>
      </trkpt>
      <trkpt lat="42.247875" lon="1.713676">
        <ele>1472.244</ele>
        <time>2018-09-22T04:53:59Z</time>
      </trkpt>
      <trkpt lat="42.247870" lon="1.713701">
        <ele>1471.646</ele>
        <time>2018-09-22T04:54:00Z</time>
      </trkpt>
      <trkpt lat="42.247860" lon="1.713757">
        <ele>1470.447</ele>
        <time>2018-09-22T04:54:02Z</time>
      </trkpt>
      <trkpt lat="42.247854" lon="1.713827">
        <ele>1468.129</ele>
        <time>2018-09-22T04:54:05Z</time>
      </trkpt>
      <trkpt lat="42.247847" lon="1.713862">
        <ele>1467.321</ele>
        <time>2018-09-22T04:54:07Z</time>
      </trkpt>
      <trkpt lat="42.247841" lon="1.713882">
        <ele>1467.108</ele>
        <time>2018-09-22T04:54:08Z</time>
      </trkpt>
      <trkpt lat="42.247834" lon="1.713914">
        <ele>1467.656</ele>
        <time>2018-09-22T04:54:10Z</time>
      </trkpt>
      <trkpt lat="42.247838" lon="1.713937">
        <ele>1467.242</ele>
        <time>2018-09-22T04:54:12Z</time>
      </trkpt>
      <trkpt lat="42.247843" lon="1.713962">
        <ele>1466.873</ele>
        <time>2018-09-22T04:54:14Z</time>
      </trkpt>
      <trkpt lat="42.247851" lon="1.713984">
        <ele>1466.387</ele>
        <time>2018-09-22T04:54:16Z</time>
      </trkpt>
      <trkpt lat="42.247855" lon="1.713995">
        <ele>1466.083</ele>
        <time>2018-09-22T04:54:17Z</time>
      </trkpt>
      <trkpt lat="42.247858" lon="1.714007">
        <ele>1465.873</ele>
        <time>2018-09-22T04:54:20Z</time>
      </trkpt>
      <trkpt lat="42.247868" lon="1.714035">
        <ele>1465.215</ele>
        <time>2018-09-22T04:54:23Z</time>
      </trkpt>
      <trkpt lat="42.247864" lon="1.714050">
        <ele>1465.677</ele>
        <time>2018-09-22T04:54:24Z</time>
      </trkpt>
      <trkpt lat="42.247847" lon="1.714100">
        <ele>1467.052</ele>
        <time>2018-09-22T04:54:29Z</time>
      </trkpt>
      <trkpt lat="42.247905" lon="1.714112">
        <ele>1463.453</ele>
        <time>2018-09-22T04:54:32Z</time>
      </trkpt>
      <trkpt lat="42.247938" lon="1.714122">
        <ele>1461.508</ele>
        <time>2018-09-22T04:54:34Z</time>
      </trkpt>
      <trkpt lat="42.247963" lon="1.714148">
        <ele>1460.508</ele>
        <time>2018-09-22T04:54:36Z</time>
      </trkpt>
      <trkpt lat="42.247988" lon="1.714189">
        <ele>1460.977</ele>
        <time>2018-09-22T04:54:40Z</time>
      </trkpt>
      <trkpt lat="42.248001" lon="1.714211">
        <ele>1461.473</ele>
        <time>2018-09-22T04:54:42Z</time>
      </trkpt>
      <trkpt lat="42.248032" lon="1.714238">
        <ele>1461.324</ele>
        <time>2018-09-22T04:54:45Z</time>
      </trkpt>
      <trkpt lat="42.248058" lon="1.714269">
        <ele>1461.728</ele>
        <time>2018-09-22T04:54:47Z</time>
      </trkpt>
      <trkpt lat="42.248114" lon="1.714329">
        <ele>1460.454</ele>
        <time>2018-09-22T04:54:50Z</time>
      </trkpt>
      <trkpt lat="42.248174" lon="1.714400">
        <ele>1457.974</ele>
        <time>2018-09-22T04:54:54Z</time>
      </trkpt>
      <trkpt lat="42.248194" lon="1.714417">
        <ele>1456.536</ele>
        <time>2018-09-22T04:54:55Z</time>
      </trkpt>
      <trkpt lat="42.248219" lon="1.714453">
        <ele>1455.198</ele>
        <time>2018-09-22T04:54:57Z</time>
      </trkpt>
      <trkpt lat="42.248239" lon="1.714490">
        <ele>1453.867</ele>
        <time>2018-09-22T04:54:59Z</time>
      </trkpt>
      <trkpt lat="42.248250" lon="1.714512">
        <ele>1453.181</ele>
        <time>2018-09-22T04:55:00Z</time>
      </trkpt>
      <trkpt lat="42.248258" lon="1.714537">
        <ele>1452.819</ele>
        <time>2018-09-22T04:55:01Z</time>
      </trkpt>
      <trkpt lat="42.248270" lon="1.714585">
        <ele>1452.208</ele>
        <time>2018-09-22T04:55:03Z</time>
      </trkpt>
      <trkpt lat="42.248296" lon="1.714622">
        <ele>1449.658</ele>
        <time>2018-09-22T04:55:05Z</time>
      </trkpt>
      <trkpt lat="42.248308" lon="1.714640">
        <ele>1448.454</ele>
        <time>2018-09-22T04:55:06Z</time>
      </trkpt>
      <trkpt lat="42.248317" lon="1.714662">
        <ele>1447.555</ele>
        <time>2018-09-22T04:55:07Z</time>
      </trkpt>
      <trkpt lat="42.248333" lon="1.714702">
        <ele>1445.839</ele>
        <time>2018-09-22T04:55:09Z</time>
      </trkpt>
      <trkpt lat="42.248352" lon="1.714757">
        <ele>1445.085</ele>
        <time>2018-09-22T04:55:12Z</time>
      </trkpt>
      <trkpt lat="42.248372" lon="1.714789">
        <ele>1443.975</ele>
        <time>2018-09-22T04:55:14Z</time>
      </trkpt>
      <trkpt lat="42.248394" lon="1.714798">
        <ele>1442.287</ele>
        <time>2018-09-22T04:55:15Z</time>
      </trkpt>
      <trkpt lat="42.248400" lon="1.714813">
        <ele>1442.029</ele>
        <time>2018-09-22T04:55:16Z</time>
      </trkpt>
      <trkpt lat="42.248423" lon="1.714848">
        <ele>1440.613</ele>
        <time>2018-09-22T04:55:18Z</time>
      </trkpt>
      <trkpt lat="42.248445" lon="1.714930">
        <ele>1440.143</ele>
        <time>2018-09-22T04:55:21Z</time>
      </trkpt>
      <trkpt lat="42.248466" lon="1.714976">
        <ele>1439.107</ele>
        <time>2018-09-22T04:55:23Z</time>
      </trkpt>
      <trkpt lat="42.248475" lon="1.714997">
        <ele>1438.708</ele>
        <time>2018-09-22T04:55:24Z</time>
      </trkpt>
      <trkpt lat="42.248483" lon="1.715016">
        <ele>1438.573</ele>
        <time>2018-09-22T04:55:25Z</time>
      </trkpt>
      <trkpt lat="42.248529" lon="1.715068">
        <ele>1435.999</ele>
        <time>2018-09-22T04:55:28Z</time>
      </trkpt>
      <trkpt lat="42.248547" lon="1.715071">
        <ele>1434.620</ele>
        <time>2018-09-22T04:55:29Z</time>
      </trkpt>
      <trkpt lat="42.248580" lon="1.715135">
        <ele>1433.374</ele>
        <time>2018-09-22T04:55:32Z</time>
      </trkpt>
      <trkpt lat="42.248589" lon="1.715157">
        <ele>1433.120</ele>
        <time>2018-09-22T04:55:33Z</time>
      </trkpt>
      <trkpt lat="42.248604" lon="1.715216">
        <ele>1433.190</ele>
        <time>2018-09-22T04:55:35Z</time>
      </trkpt>
      <trkpt lat="42.248628" lon="1.715261">
        <ele>1432.392</ele>
        <time>2018-09-22T04:55:37Z</time>
      </trkpt>
      <trkpt lat="42.248641" lon="1.715281">
        <ele>1431.854</ele>
        <time>2018-09-22T04:55:38Z</time>
      </trkpt>
      <trkpt lat="42.248672" lon="1.715319">
        <ele>1430.325</ele>
        <time>2018-09-22T04:55:40Z</time>
      </trkpt>
      <trkpt lat="42.248678" lon="1.715338">
        <ele>1430.226</ele>
        <time>2018-09-22T04:55:41Z</time>
      </trkpt>
      <trkpt lat="42.248706" lon="1.715386">
        <ele>1429.208</ele>
        <time>2018-09-22T04:55:43Z</time>
      </trkpt>
      <trkpt lat="42.248739" lon="1.715436">
        <ele>1428.008</ele>
        <time>2018-09-22T04:55:45Z</time>
      </trkpt>
      <trkpt lat="42.248765" lon="1.715480">
        <ele>1427.144</ele>
        <time>2018-09-22T04:55:47Z</time>
      </trkpt>
      <trkpt lat="42.248819" lon="1.715537">
        <ele>1424.560</ele>
        <time>2018-09-22T04:55:50Z</time>
      </trkpt>
      <trkpt lat="42.248847" lon="1.715582">
        <ele>1423.751</ele>
        <time>2018-09-22T04:55:52Z</time>
      </trkpt>
      <trkpt lat="42.248868" lon="1.715628">
        <ele>1423.595</ele>
        <time>2018-09-22T04:55:54Z</time>
      </trkpt>
      <trkpt lat="42.248876" lon="1.715682">
        <ele>1424.551</ele>
        <time>2018-09-22T04:55:56Z</time>
      </trkpt>
      <trkpt lat="42.248881" lon="1.715704">
        <ele>1424.721</ele>
        <time>2018-09-22T04:55:58Z</time>
      </trkpt>
      <trkpt lat="42.248904" lon="1.715718">
        <ele>1423.613</ele>
        <time>2018-09-22T04:56:00Z</time>
      </trkpt>
      <trkpt lat="42.248967" lon="1.715771">
        <ele>1421.355</ele>
        <time>2018-09-22T04:56:03Z</time>
      </trkpt>
      <trkpt lat="42.249028" lon="1.715822">
        <ele>1419.197</ele>
        <time>2018-09-22T04:56:06Z</time>
      </trkpt>
      <trkpt lat="42.249072" lon="1.715872">
        <ele>1416.823</ele>
        <time>2018-09-22T04:56:09Z</time>
      </trkpt>
      <trkpt lat="42.249098" lon="1.715858">
        <ele>1415.225</ele>
        <time>2018-09-22T04:56:12Z</time>
      </trkpt>
      <trkpt lat="42.249088" lon="1.715801">
        <ele>1414.708</ele>
        <time>2018-09-22T04:56:16Z</time>
      </trkpt>
      <trkpt lat="42.249074" lon="1.715759">
        <ele>1414.191</ele>
        <time>2018-09-22T04:56:19Z</time>
      </trkpt>
      <trkpt lat="42.249071" lon="1.715753">
        <ele>1414.177</ele>
        <time>2018-09-22T04:56:20Z</time>
      </trkpt>
      <trkpt lat="42.249065" lon="1.715747">
        <ele>1414.368</ele>
        <time>2018-09-22T04:56:21Z</time>
      </trkpt>
      <trkpt lat="42.249068" lon="1.715726">
        <ele>1413.492</ele>
        <time>2018-09-22T04:56:24Z</time>
      </trkpt>
      <trkpt lat="42.249088" lon="1.715718">
        <ele>1411.858</ele>
        <time>2018-09-22T04:56:27Z</time>
      </trkpt>
      <trkpt lat="42.249075" lon="1.715683">
        <ele>1411.588</ele>
        <time>2018-09-22T04:56:29Z</time>
      </trkpt>
      <trkpt lat="42.249064" lon="1.715659">
        <ele>1411.430</ele>
        <time>2018-09-22T04:56:31Z</time>
      </trkpt>
      <trkpt lat="42.249054" lon="1.715627">
        <ele>1411.092</ele>
        <time>2018-09-22T04:56:33Z</time>
      </trkpt>
      <trkpt lat="42.249042" lon="1.715587">
        <ele>1410.537</ele>
        <time>2018-09-22T04:56:35Z</time>
      </trkpt>
      <trkpt lat="42.249042" lon="1.715556">
        <ele>1409.549</ele>
        <time>2018-09-22T04:56:37Z</time>
      </trkpt>
      <trkpt lat="42.249049" lon="1.715537">
        <ele>1408.513</ele>
        <time>2018-09-22T04:56:39Z</time>
      </trkpt>
      <trkpt lat="42.249050" lon="1.715529">
        <ele>1408.208</ele>
        <time>2018-09-22T04:56:40Z</time>
      </trkpt>
      <trkpt lat="42.249076" lon="1.715487">
        <ele>1405.475</ele>
        <time>2018-09-22T04:56:43Z</time>
      </trkpt>
      <trkpt lat="42.249080" lon="1.715473">
        <ele>1404.831</ele>
        <time>2018-09-22T04:56:45Z</time>
      </trkpt>
      <trkpt lat="42.249088" lon="1.715466">
        <ele>1404.142</ele>
        <time>2018-09-22T04:56:46Z</time>
      </trkpt>
      <trkpt lat="42.249074" lon="1.715396">
        <ele>1403.396</ele>
        <time>2018-09-22T04:56:49Z</time>
      </trkpt>
      <trkpt lat="42.249077" lon="1.715349">
        <ele>1401.982</ele>
        <time>2018-09-22T04:56:51Z</time>
      </trkpt>
      <trkpt lat="42.249084" lon="1.715298">
        <ele>1400.192</ele>
        <time>2018-09-22T04:56:53Z</time>
      </trkpt>
      <trkpt lat="42.249087" lon="1.715261">
        <ele>1399.014</ele>
        <time>2018-09-22T04:56:55Z</time>
      </trkpt>
      <trkpt lat="42.249089" lon="1.715233">
        <ele>1398.286</ele>
        <time>2018-09-22T04:56:57Z</time>
      </trkpt>
      <trkpt lat="42.249079" lon="1.715209">
        <ele>1398.315</ele>
        <time>2018-09-22T04:56:58Z</time>
      </trkpt>
      <trkpt lat="42.249081" lon="1.715190">
        <ele>1397.765</ele>
        <time>2018-09-22T04:56:59Z</time>
      </trkpt>
      <trkpt lat="42.249061" lon="1.715144">
        <ele>1398.011</ele>
        <time>2018-09-22T04:57:01Z</time>
      </trkpt>
      <trkpt lat="42.249062" lon="1.715127">
        <ele>1397.508</ele>
        <time>2018-09-22T04:57:02Z</time>
      </trkpt>
      <trkpt lat="42.249056" lon="1.715113">
        <ele>1397.683</ele>
        <time>2018-09-22T04:57:03Z</time>
      </trkpt>
      <trkpt lat="42.249053" lon="1.715096">
        <ele>1397.439</ele>
        <time>2018-09-22T04:57:04Z</time>
      </trkpt>
      <trkpt lat="42.249052" lon="1.715074">
        <ele>1397.030</ele>
        <time>2018-09-22T04:57:05Z</time>
      </trkpt>
      <trkpt lat="42.249047" lon="1.715038">
        <ele>1396.514</ele>
        <time>2018-09-22T04:57:07Z</time>
      </trkpt>
      <trkpt lat="42.249050" lon="1.715020">
        <ele>1395.890</ele>
        <time>2018-09-22T04:57:08Z</time>
      </trkpt>
      <trkpt lat="42.249050" lon="1.714990">
        <ele>1395.170</ele>
        <time>2018-09-22T04:57:09Z</time>
      </trkpt>
      <trkpt lat="42.249074" lon="1.714960">
        <ele>1392.852</ele>
        <time>2018-09-22T04:57:11Z</time>
      </trkpt>
      <trkpt lat="42.249079" lon="1.714950">
        <ele>1392.264</ele>
        <time>2018-09-22T04:57:12Z</time>
      </trkpt>
      <trkpt lat="42.249096" lon="1.714947">
        <ele>1390.935</ele>
        <time>2018-09-22T04:57:13Z</time>
      </trkpt>
      <trkpt lat="42.249131" lon="1.714952">
        <ele>1388.586</ele>
        <time>2018-09-22T04:57:15Z</time>
      </trkpt>
      <trkpt lat="42.249152" lon="1.714954">
        <ele>1387.014</ele>
        <time>2018-09-22T04:57:17Z</time>
      </trkpt>
      <trkpt lat="42.249157" lon="1.714955">
        <ele>1386.708</ele>
        <time>2018-09-22T04:57:18Z</time>
      </trkpt>
      <trkpt lat="42.249179" lon="1.714954">
        <ele>1385.115</ele>
        <time>2018-09-22T04:57:20Z</time>
      </trkpt>
      <trkpt lat="42.249198" lon="1.714957">
        <ele>1383.731</ele>
        <time>2018-09-22T04:57:21Z</time>
      </trkpt>
      <trkpt lat="42.249211" lon="1.714963">
        <ele>1383.082</ele>
        <time>2018-09-22T04:57:22Z</time>
      </trkpt>
      <trkpt lat="42.249244" lon="1.714980">
        <ele>1380.946</ele>
        <time>2018-09-22T04:57:24Z</time>
      </trkpt>
      <trkpt lat="42.249295" lon="1.715016">
        <ele>1378.162</ele>
        <time>2018-09-22T04:57:27Z</time>
      </trkpt>
      <trkpt lat="42.249317" lon="1.715050">
        <ele>1377.512</ele>
        <time>2018-09-22T04:57:29Z</time>
      </trkpt>
      <trkpt lat="42.249363" lon="1.715114">
        <ele>1376.014</ele>
        <time>2018-09-22T04:57:32Z</time>
      </trkpt>
      <trkpt lat="42.249397" lon="1.715138">
        <ele>1374.376</ele>
        <time>2018-09-22T04:57:34Z</time>
      </trkpt>
      <trkpt lat="42.249446" lon="1.715176">
        <ele>1371.954</ele>
        <time>2018-09-22T04:57:37Z</time>
      </trkpt>
      <trkpt lat="42.249450" lon="1.715257">
        <ele>1373.956</ele>
        <time>2018-09-22T04:57:41Z</time>
      </trkpt>
      <trkpt lat="42.249463" lon="1.715300">
        <ele>1374.111</ele>
        <time>2018-09-22T04:57:43Z</time>
      </trkpt>
      <trkpt lat="42.249512" lon="1.715371">
        <ele>1372.208</ele>
        <time>2018-09-22T04:57:47Z</time>
      </trkpt>
      <trkpt lat="42.249559" lon="1.715420">
        <ele>1370.127</ele>
        <time>2018-09-22T04:57:50Z</time>
      </trkpt>
      <trkpt lat="42.249587" lon="1.715452">
        <ele>1369.143</ele>
        <time>2018-09-22T04:57:52Z</time>
      </trkpt>
      <trkpt lat="42.249621" lon="1.715489">
        <ele>1367.724</ele>
        <time>2018-09-22T04:57:54Z</time>
      </trkpt>
      <trkpt lat="42.249678" lon="1.715559">
        <ele>1366.168</ele>
        <time>2018-09-22T04:57:58Z</time>
      </trkpt>
      <trkpt lat="42.249714" lon="1.715604">
        <ele>1365.174</ele>
        <time>2018-09-22T04:58:01Z</time>
      </trkpt>
      <trkpt lat="42.249770" lon="1.715654">
        <ele>1363.294</ele>
        <time>2018-09-22T04:58:04Z</time>
      </trkpt>
      <trkpt lat="42.249822" lon="1.715761">
        <ele>1363.286</ele>
        <time>2018-09-22T04:58:09Z</time>
      </trkpt>
      <trkpt lat="42.249862" lon="1.715787">
        <ele>1361.548</ele>
        <time>2018-09-22T04:58:12Z</time>
      </trkpt>
      <trkpt lat="42.249869" lon="1.715787">
        <ele>1361.021</ele>
        <time>2018-09-22T04:58:13Z</time>
      </trkpt>
      <trkpt lat="42.249888" lon="1.715794">
        <ele>1360.041</ele>
        <time>2018-09-22T04:58:16Z</time>
      </trkpt>
      <trkpt lat="42.249890" lon="1.715801">
        <ele>1360.105</ele>
        <time>2018-09-22T04:58:18Z</time>
      </trkpt>
      <trkpt lat="42.249888" lon="1.715794">
        <ele>1360.008</ele>
        <time>2018-09-22T04:58:20Z</time>
      </trkpt>
      <trkpt lat="42.249911" lon="1.715784">
        <ele>1358.294</ele>
        <time>2018-09-22T04:58:23Z</time>
      </trkpt>
      <trkpt lat="42.249924" lon="1.715791">
        <ele>1357.660</ele>
        <time>2018-09-22T04:58:24Z</time>
      </trkpt>
      <trkpt lat="42.249937" lon="1.715799">
        <ele>1357.061</ele>
        <time>2018-09-22T04:58:25Z</time>
      </trkpt>
      <trkpt lat="42.249949" lon="1.715807">
        <ele>1356.565</ele>
        <time>2018-09-22T04:58:26Z</time>
      </trkpt>
      <trkpt lat="42.249957" lon="1.715812">
        <ele>1356.191</ele>
        <time>2018-09-22T04:58:27Z</time>
      </trkpt>
      <trkpt lat="42.249985" lon="1.715811">
        <ele>1354.391</ele>
        <time>2018-09-22T04:58:29Z</time>
      </trkpt>
      <trkpt lat="42.249997" lon="1.715815">
        <ele>1353.673</ele>
        <time>2018-09-22T04:58:30Z</time>
      </trkpt>
      <trkpt lat="42.250020" lon="1.715820">
        <ele>1352.535</ele>
        <time>2018-09-22T04:58:32Z</time>
      </trkpt>
      <trkpt lat="42.250027" lon="1.715817">
        <ele>1352.187</ele>
        <time>2018-09-22T04:58:33Z</time>
      </trkpt>
      <trkpt lat="42.250047" lon="1.715811">
        <ele>1350.942</ele>
        <time>2018-09-22T04:58:35Z</time>
      </trkpt>
      <trkpt lat="42.250074" lon="1.715808">
        <ele>1349.526</ele>
        <time>2018-09-22T04:58:38Z</time>
      </trkpt>
      <trkpt lat="42.250094" lon="1.715800">
        <ele>1348.208</ele>
        <time>2018-09-22T04:58:40Z</time>
      </trkpt>
      <trkpt lat="42.250104" lon="1.715797">
        <ele>1347.670</ele>
        <time>2018-09-22T04:58:41Z</time>
      </trkpt>
      <trkpt lat="42.250131" lon="1.715789">
        <ele>1346.066</ele>
        <time>2018-09-22T04:58:43Z</time>
      </trkpt>
      <trkpt lat="42.250154" lon="1.715802">
        <ele>1345.347</ele>
        <time>2018-09-22T04:58:45Z</time>
      </trkpt>
      <trkpt lat="42.250161" lon="1.715813">
        <ele>1345.221</ele>
        <time>2018-09-22T04:58:46Z</time>
      </trkpt>
      <trkpt lat="42.250164" lon="1.715823">
        <ele>1345.497</ele>
        <time>2018-09-22T04:58:47Z</time>
      </trkpt>
      <trkpt lat="42.250156" lon="1.715830">
        <ele>1346.057</ele>
        <time>2018-09-22T04:58:48Z</time>
      </trkpt>
      <trkpt lat="42.250135" lon="1.715840">
        <ele>1346.979</ele>
        <time>2018-09-22T04:58:50Z</time>
      </trkpt>
      <trkpt lat="42.250124" lon="1.715846">
        <ele>1347.211</ele>
        <time>2018-09-22T04:58:51Z</time>
      </trkpt>
      <trkpt lat="42.250081" lon="1.715949">
        <ele>1345.888</ele>
        <time>2018-09-22T04:58:56Z</time>
      </trkpt>
      <trkpt lat="42.250058" lon="1.716062">
        <ele>1343.424</ele>
        <time>2018-09-22T04:59:00Z</time>
      </trkpt>
      <trkpt lat="42.250059" lon="1.716146">
        <ele>1341.126</ele>
        <time>2018-09-22T04:59:03Z</time>
      </trkpt>
      <trkpt lat="42.250030" lon="1.716222">
        <ele>1341.408</ele>
        <time>2018-09-22T04:59:07Z</time>
      </trkpt>
      <trkpt lat="42.250008" lon="1.716261">
        <ele>1341.820</ele>
        <time>2018-09-22T04:59:09Z</time>
      </trkpt>
      <trkpt lat="42.250012" lon="1.716292">
        <ele>1340.836</ele>
        <time>2018-09-22T04:59:12Z</time>
      </trkpt>
      <trkpt lat="42.250009" lon="1.716333">
        <ele>1340.027</ele>
        <time>2018-09-22T04:59:16Z</time>
      </trkpt>
      <trkpt lat="42.250016" lon="1.716353">
        <ele>1339.241</ele>
        <time>2018-09-22T04:59:17Z</time>
      </trkpt>
      <trkpt lat="42.250031" lon="1.716381">
        <ele>1338.157</ele>
        <time>2018-09-22T04:59:19Z</time>
      </trkpt>
      <trkpt lat="42.250037" lon="1.716387">
        <ele>1337.897</ele>
        <time>2018-09-22T04:59:20Z</time>
      </trkpt>
      <trkpt lat="42.250042" lon="1.716388">
        <ele>1337.649</ele>
        <time>2018-09-22T04:59:21Z</time>
      </trkpt>
      <trkpt lat="42.250053" lon="1.716393">
        <ele>1337.541</ele>
        <time>2018-09-22T04:59:24Z</time>
      </trkpt>
      <trkpt lat="42.250076" lon="1.716367">
        <ele>1336.854</ele>
        <time>2018-09-22T04:59:31Z</time>
      </trkpt>
      <trkpt lat="42.250130" lon="1.716339">
        <ele>1335.156</ele>
        <time>2018-09-22T04:59:35Z</time>
      </trkpt>
      <trkpt lat="42.250161" lon="1.716337">
        <ele>1333.811</ele>
        <time>2018-09-22T04:59:38Z</time>
      </trkpt>
      <trkpt lat="42.250173" lon="1.716345">
        <ele>1333.408</ele>
        <time>2018-09-22T04:59:39Z</time>
      </trkpt>
      <trkpt lat="42.250209" lon="1.716369">
        <ele>1332.157</ele>
        <time>2018-09-22T04:59:42Z</time>
      </trkpt>
      <trkpt lat="42.250246" lon="1.716381">
        <ele>1330.973</ele>
        <time>2018-09-22T04:59:45Z</time>
      </trkpt>
      <trkpt lat="42.250260" lon="1.716386">
        <ele>1330.564</ele>
        <time>2018-09-22T04:59:46Z</time>
      </trkpt>
      <trkpt lat="42.250314" lon="1.716386">
        <ele>1329.068</ele>
        <time>2018-09-22T04:59:49Z</time>
      </trkpt>
      <trkpt lat="42.250368" lon="1.716408">
        <ele>1328.984</ele>
        <time>2018-09-22T04:59:52Z</time>
      </trkpt>
      <trkpt lat="42.250441" lon="1.716464">
        <ele>1330.254</ele>
        <time>2018-09-22T04:59:56Z</time>
      </trkpt>
      <trkpt lat="42.250514" lon="1.716509">
        <ele>1330.456</ele>
        <time>2018-09-22T05:00:00Z</time>
      </trkpt>
      <trkpt lat="42.250531" lon="1.716528">
        <ele>1330.838</ele>
        <time>2018-09-22T05:00:01Z</time>
      </trkpt>
      <trkpt lat="42.250593" lon="1.716577">
        <ele>1330.668</ele>
        <time>2018-09-22T05:00:05Z</time>
      </trkpt>
      <trkpt lat="42.250612" lon="1.716589">
        <ele>1330.342</ele>
        <time>2018-09-22T05:00:06Z</time>
      </trkpt>
      <trkpt lat="42.250652" lon="1.716602">
        <ele>1328.926</ele>
        <time>2018-09-22T05:00:08Z</time>
      </trkpt>
      <trkpt lat="42.250718" lon="1.716620">
        <ele>1326.308</ele>
        <time>2018-09-22T05:00:11Z</time>
      </trkpt>
      <trkpt lat="42.250751" lon="1.716657">
        <ele>1326.148</ele>
        <time>2018-09-22T05:00:13Z</time>
      </trkpt>
      <trkpt lat="42.250776" lon="1.716672">
        <ele>1325.274</ele>
        <time>2018-09-22T05:00:14Z</time>
      </trkpt>
      <trkpt lat="42.250846" lon="1.716704">
        <ele>1322.195</ele>
        <time>2018-09-22T05:00:17Z</time>
      </trkpt>
      <trkpt lat="42.250896" lon="1.716723">
        <ele>1319.599</ele>
        <time>2018-09-22T05:00:19Z</time>
      </trkpt>
      <trkpt lat="42.250931" lon="1.716786">
        <ele>1318.825</ele>
        <time>2018-09-22T05:00:22Z</time>
      </trkpt>
      <trkpt lat="42.250980" lon="1.716853">
        <ele>1317.365</ele>
        <time>2018-09-22T05:00:25Z</time>
      </trkpt>
      <trkpt lat="42.251008" lon="1.716895">
        <ele>1316.557</ele>
        <time>2018-09-22T05:00:27Z</time>
      </trkpt>
      <trkpt lat="42.251019" lon="1.716913">
        <ele>1316.289</ele>
        <time>2018-09-22T05:00:28Z</time>
      </trkpt>
      <trkpt lat="42.251070" lon="1.716952">
        <ele>1313.842</ele>
        <time>2018-09-22T05:00:30Z</time>
      </trkpt>
      <trkpt lat="42.251102" lon="1.716987">
        <ele>1312.522</ele>
        <time>2018-09-22T05:00:32Z</time>
      </trkpt>
      <trkpt lat="42.251137" lon="1.717042">
        <ele>1311.214</ele>
        <time>2018-09-22T05:00:35Z</time>
      </trkpt>
      <trkpt lat="42.251150" lon="1.717062">
        <ele>1310.608</ele>
        <time>2018-09-22T05:00:36Z</time>
      </trkpt>
      <trkpt lat="42.251193" lon="1.717141">
        <ele>1308.976</ele>
        <time>2018-09-22T05:00:39Z</time>
      </trkpt>
      <trkpt lat="42.251209" lon="1.717192">
        <ele>1308.752</ele>
        <time>2018-09-22T05:00:41Z</time>
      </trkpt>
      <trkpt lat="42.251239" lon="1.717245">
        <ele>1307.123</ele>
        <time>2018-09-22T05:00:43Z</time>
      </trkpt>
      <trkpt lat="42.251259" lon="1.717305">
        <ele>1306.187</ele>
        <time>2018-09-22T05:00:45Z</time>
      </trkpt>
      <trkpt lat="42.251285" lon="1.717354">
        <ele>1304.563</ele>
        <time>2018-09-22T05:00:47Z</time>
      </trkpt>
      <trkpt lat="42.251316" lon="1.717410">
        <ele>1302.573</ele>
        <time>2018-09-22T05:00:49Z</time>
      </trkpt>
      <trkpt lat="42.251333" lon="1.717462">
        <ele>1301.435</ele>
        <time>2018-09-22T05:00:51Z</time>
      </trkpt>
      <trkpt lat="42.251346" lon="1.717481">
        <ele>1300.527</ele>
        <time>2018-09-22T05:00:52Z</time>
      </trkpt>
      <trkpt lat="42.251363" lon="1.717498">
        <ele>1299.188</ele>
        <time>2018-09-22T05:00:53Z</time>
      </trkpt>
      <trkpt lat="42.251373" lon="1.717523">
        <ele>1298.724</ele>
        <time>2018-09-22T05:00:54Z</time>
      </trkpt>
      <trkpt lat="42.251401" lon="1.717573">
        <ele>1297.526</ele>
        <time>2018-09-22T05:00:56Z</time>
      </trkpt>
      <trkpt lat="42.251428" lon="1.717653">
        <ele>1297.208</ele>
        <time>2018-09-22T05:00:59Z</time>
      </trkpt>
      <trkpt lat="42.251464" lon="1.717717">
        <ele>1296.350</ele>
        <time>2018-09-22T05:01:02Z</time>
      </trkpt>
      <trkpt lat="42.251501" lon="1.717788">
        <ele>1295.556</ele>
        <time>2018-09-22T05:01:05Z</time>
      </trkpt>
      <trkpt lat="42.251510" lon="1.717809">
        <ele>1295.067</ele>
        <time>2018-09-22T05:01:06Z</time>
      </trkpt>
      <trkpt lat="42.251520" lon="1.717851">
        <ele>1294.541</ele>
        <time>2018-09-22T05:01:08Z</time>
      </trkpt>
      <trkpt lat="42.251522" lon="1.717873">
        <ele>1294.537</ele>
        <time>2018-09-22T05:01:09Z</time>
      </trkpt>
      <trkpt lat="42.251544" lon="1.717943">
        <ele>1293.387</ele>
        <time>2018-09-22T05:01:12Z</time>
      </trkpt>
      <trkpt lat="42.251547" lon="1.717961">
        <ele>1293.159</ele>
        <time>2018-09-22T05:01:13Z</time>
      </trkpt>
      <trkpt lat="42.251547" lon="1.717979">
        <ele>1293.251</ele>
        <time>2018-09-22T05:01:14Z</time>
      </trkpt>
      <trkpt lat="42.251562" lon="1.718030">
        <ele>1292.319</ele>
        <time>2018-09-22T05:01:17Z</time>
      </trkpt>
      <trkpt lat="42.251574" lon="1.718052">
        <ele>1291.609</ele>
        <time>2018-09-22T05:01:18Z</time>
      </trkpt>
      <trkpt lat="42.251592" lon="1.718080">
        <ele>1289.919</ele>
        <time>2018-09-22T05:01:19Z</time>
      </trkpt>
      <trkpt lat="42.251605" lon="1.718115">
        <ele>1288.208</ele>
        <time>2018-09-22T05:01:21Z</time>
      </trkpt>
      <trkpt lat="42.251622" lon="1.718155">
        <ele>1286.243</ele>
        <time>2018-09-22T05:01:23Z</time>
      </trkpt>
      <trkpt lat="42.251633" lon="1.718194">
        <ele>1284.549</ele>
        <time>2018-09-22T05:01:25Z</time>
      </trkpt>
      <trkpt lat="42.251624" lon="1.718223">
        <ele>1284.410</ele>
        <time>2018-09-22T05:01:27Z</time>
      </trkpt>
      <trkpt lat="42.251626" lon="1.718255">
        <ele>1283.494</ele>
        <time>2018-09-22T05:01:29Z</time>
      </trkpt>
      <trkpt lat="42.251620" lon="1.718274">
        <ele>1283.360</ele>
        <time>2018-09-22T05:01:30Z</time>
      </trkpt>
      <trkpt lat="42.251623" lon="1.718316">
        <ele>1282.180</ele>
        <time>2018-09-22T05:01:32Z</time>
      </trkpt>
      <trkpt lat="42.251624" lon="1.718343">
        <ele>1281.332</ele>
        <time>2018-09-22T05:01:33Z</time>
      </trkpt>
      <trkpt lat="42.251625" lon="1.718367">
        <ele>1280.874</ele>
        <time>2018-09-22T05:01:34Z</time>
      </trkpt>
      <trkpt lat="42.251630" lon="1.718419">
        <ele>1279.477</ele>
        <time>2018-09-22T05:01:36Z</time>
      </trkpt>
      <trkpt lat="42.251635" lon="1.718453">
        <ele>1278.461</ele>
        <time>2018-09-22T05:01:37Z</time>
      </trkpt>
      <trkpt lat="42.251642" lon="1.718482">
        <ele>1277.427</ele>
        <time>2018-09-22T05:01:38Z</time>
      </trkpt>
      <trkpt lat="42.251645" lon="1.718537">
        <ele>1276.008</ele>
        <time>2018-09-22T05:01:40Z</time>
      </trkpt>
      <trkpt lat="42.251655" lon="1.718591">
        <ele>1274.159</ele>
        <time>2018-09-22T05:01:42Z</time>
      </trkpt>
      <trkpt lat="42.251646" lon="1.718660">
        <ele>1273.825</ele>
        <time>2018-09-22T05:01:44Z</time>
      </trkpt>
      <trkpt lat="42.251659" lon="1.718737">
        <ele>1272.196</ele>
        <time>2018-09-22T05:01:47Z</time>
      </trkpt>
      <trkpt lat="42.251672" lon="1.718767">
        <ele>1271.020</ele>
        <time>2018-09-22T05:01:49Z</time>
      </trkpt>
      <trkpt lat="42.251675" lon="1.718784">
        <ele>1270.686</ele>
        <time>2018-09-22T05:01:50Z</time>
      </trkpt>
      <trkpt lat="42.251682" lon="1.718809">
        <ele>1269.996</ele>
        <time>2018-09-22T05:01:51Z</time>
      </trkpt>
      <trkpt lat="42.251696" lon="1.718857">
        <ele>1268.548</ele>
        <time>2018-09-22T05:01:53Z</time>
      </trkpt>
      <trkpt lat="42.251711" lon="1.718907">
        <ele>1267.050</ele>
        <time>2018-09-22T05:01:55Z</time>
      </trkpt>
      <trkpt lat="42.251709" lon="1.718936">
        <ele>1266.827</ele>
        <time>2018-09-22T05:01:56Z</time>
      </trkpt>
      <trkpt lat="42.251706" lon="1.718986">
        <ele>1266.468</ele>
        <time>2018-09-22T05:01:58Z</time>
      </trkpt>
      <trkpt lat="42.251713" lon="1.719032">
        <ele>1265.514</ele>
        <time>2018-09-22T05:02:00Z</time>
      </trkpt>
      <trkpt lat="42.251720" lon="1.719072">
        <ele>1264.508</ele>
        <time>2018-09-22T05:02:02Z</time>
      </trkpt>
      <trkpt lat="42.251732" lon="1.719100">
        <ele>1263.514</ele>
        <time>2018-09-22T05:02:04Z</time>
      </trkpt>
      <trkpt lat="42.251739" lon="1.719120">
        <ele>1262.880</ele>
        <time>2018-09-22T05:02:05Z</time>
      </trkpt>
      <trkpt lat="42.251746" lon="1.719138">
        <ele>1262.291</ele>
        <time>2018-09-22T05:02:06Z</time>
      </trkpt>
      <trkpt lat="42.251751" lon="1.719155">
        <ele>1261.695</ele>
        <time>2018-09-22T05:02:07Z</time>
      </trkpt>
      <trkpt lat="42.251772" lon="1.719201">
        <ele>1259.551</ele>
        <time>2018-09-22T05:02:09Z</time>
      </trkpt>
      <trkpt lat="42.251801" lon="1.719249">
        <ele>1256.821</ele>
        <time>2018-09-22T05:02:11Z</time>
      </trkpt>
      <trkpt lat="42.251810" lon="1.719305">
        <ele>1255.223</ele>
        <time>2018-09-22T05:02:13Z</time>
      </trkpt>
      <trkpt lat="42.251820" lon="1.719358">
        <ele>1253.695</ele>
        <time>2018-09-22T05:02:15Z</time>
      </trkpt>
      <trkpt lat="42.251825" lon="1.719430">
        <ele>1252.197</ele>
        <time>2018-09-22T05:02:18Z</time>
      </trkpt>
      <trkpt lat="42.251829" lon="1.719454">
        <ele>1251.423</ele>
        <time>2018-09-22T05:02:19Z</time>
      </trkpt>
      <trkpt lat="42.251829" lon="1.719480">
        <ele>1250.625</ele>
        <time>2018-09-22T05:02:20Z</time>
      </trkpt>
      <trkpt lat="42.251828" lon="1.719520">
        <ele>1249.508</ele>
        <time>2018-09-22T05:02:22Z</time>
      </trkpt>
      <trkpt lat="42.251833" lon="1.719539">
        <ele>1248.721</ele>
        <time>2018-09-22T05:02:23Z</time>
      </trkpt>
      <trkpt lat="42.251842" lon="1.719559">
        <ele>1247.677</ele>
        <time>2018-09-22T05:02:24Z</time>
      </trkpt>
      <trkpt lat="42.251849" lon="1.719579">
        <ele>1246.778</ele>
        <time>2018-09-22T05:02:25Z</time>
      </trkpt>
      <trkpt lat="42.251847" lon="1.719591">
        <ele>1246.592</ele>
        <time>2018-09-22T05:02:26Z</time>
      </trkpt>
      <trkpt lat="42.251850" lon="1.719597">
        <ele>1246.268</ele>
        <time>2018-09-22T05:02:27Z</time>
      </trkpt>
      <trkpt lat="42.251860" lon="1.719606">
        <ele>1245.498</ele>
        <time>2018-09-22T05:02:28Z</time>
      </trkpt>
      <trkpt lat="42.251867" lon="1.719605">
        <ele>1245.060</ele>
        <time>2018-09-22T05:02:29Z</time>
      </trkpt>
      <trkpt lat="42.251883" lon="1.719602">
        <ele>1244.372</ele>
        <time>2018-09-22T05:02:31Z</time>
      </trkpt>
      <trkpt lat="42.251892" lon="1.719592">
        <ele>1244.124</ele>
        <time>2018-09-22T05:02:32Z</time>
      </trkpt>
      <trkpt lat="42.251919" lon="1.719567">
        <ele>1243.204</ele>
        <time>2018-09-22T05:02:34Z</time>
      </trkpt>
      <trkpt lat="42.251933" lon="1.719542">
        <ele>1243.114</ele>
        <time>2018-09-22T05:02:35Z</time>
      </trkpt>
      <trkpt lat="42.251966" lon="1.719487">
        <ele>1242.608</ele>
        <time>2018-09-22T05:02:38Z</time>
      </trkpt>
      <trkpt lat="42.251998" lon="1.719439">
        <ele>1241.824</ele>
        <time>2018-09-22T05:02:41Z</time>
      </trkpt>
      <trkpt lat="42.252004" lon="1.719413">
        <ele>1241.880</ele>
        <time>2018-09-22T05:02:43Z</time>
      </trkpt>
      <trkpt lat="42.252023" lon="1.719392">
        <ele>1240.921</ele>
        <time>2018-09-22T05:02:45Z</time>
      </trkpt>
      <trkpt lat="42.252030" lon="1.719376">
        <ele>1240.845</ele>
        <time>2018-09-22T05:02:46Z</time>
      </trkpt>
      <trkpt lat="42.252044" lon="1.719342">
        <ele>1240.571</ele>
        <time>2018-09-22T05:02:48Z</time>
      </trkpt>
      <trkpt lat="42.252065" lon="1.719312">
        <ele>1239.781</ele>
        <time>2018-09-22T05:02:50Z</time>
      </trkpt>
      <trkpt lat="42.252073" lon="1.719290">
        <ele>1239.673</ele>
        <time>2018-09-22T05:02:51Z</time>
      </trkpt>
      <trkpt lat="42.252093" lon="1.719260">
        <ele>1238.945</ele>
        <time>2018-09-22T05:02:53Z</time>
      </trkpt>
      <trkpt lat="42.252118" lon="1.719229">
        <ele>1237.989</ele>
        <time>2018-09-22T05:02:55Z</time>
      </trkpt>
      <trkpt lat="42.252127" lon="1.719212">
        <ele>1237.706</ele>
        <time>2018-09-22T05:02:56Z</time>
      </trkpt>
      <trkpt lat="42.252136" lon="1.719202">
        <ele>1237.326</ele>
        <time>2018-09-22T05:02:57Z</time>
      </trkpt>
      <trkpt lat="42.252178" lon="1.719168">
        <ele>1235.508</ele>
        <time>2018-09-22T05:03:00Z</time>
      </trkpt>
      <trkpt lat="42.252216" lon="1.719134">
        <ele>1233.720</ele>
        <time>2018-09-22T05:03:03Z</time>
      </trkpt>
      <trkpt lat="42.252242" lon="1.719104">
        <ele>1232.366</ele>
        <time>2018-09-22T05:03:05Z</time>
      </trkpt>
      <trkpt lat="42.252255" lon="1.719084">
        <ele>1231.797</ele>
        <time>2018-09-22T05:03:06Z</time>
      </trkpt>
      <trkpt lat="42.252279" lon="1.719043">
        <ele>1230.691</ele>
        <time>2018-09-22T05:03:08Z</time>
      </trkpt>
      <trkpt lat="42.252299" lon="1.719005">
        <ele>1229.727</ele>
        <time>2018-09-22T05:03:10Z</time>
      </trkpt>
      <trkpt lat="42.252306" lon="1.718979">
        <ele>1229.737</ele>
        <time>2018-09-22T05:03:11Z</time>
      </trkpt>
      <trkpt lat="42.252329" lon="1.718917">
        <ele>1229.179</ele>
        <time>2018-09-22T05:03:14Z</time>
      </trkpt>
      <trkpt lat="42.252344" lon="1.718883">
        <ele>1228.591</ele>
        <time>2018-09-22T05:03:16Z</time>
      </trkpt>
      <trkpt lat="42.252352" lon="1.718871">
        <ele>1228.252</ele>
        <time>2018-09-22T05:03:17Z</time>
      </trkpt>
      <trkpt lat="42.252356" lon="1.718866">
        <ele>1228.053</ele>
        <time>2018-09-22T05:03:18Z</time>
      </trkpt>
      <trkpt lat="42.252376" lon="1.718852">
        <ele>1226.908</ele>
        <time>2018-09-22T05:03:20Z</time>
      </trkpt>
      <trkpt lat="42.252400" lon="1.718815">
        <ele>1225.808</ele>
        <time>2018-09-22T05:03:22Z</time>
      </trkpt>
      <trkpt lat="42.252410" lon="1.718774">
        <ele>1225.577</ele>
        <time>2018-09-22T05:03:26Z</time>
      </trkpt>
      <trkpt lat="42.252415" lon="1.718747">
        <ele>1225.543</ele>
        <time>2018-09-22T05:03:28Z</time>
      </trkpt>
      <trkpt lat="42.252441" lon="1.718696">
        <ele>1224.344</ele>
        <time>2018-09-22T05:03:31Z</time>
      </trkpt>
      <trkpt lat="42.252468" lon="1.718640">
        <ele>1222.968</ele>
        <time>2018-09-22T05:03:35Z</time>
      </trkpt>
      <trkpt lat="42.252464" lon="1.718586">
        <ele>1223.594</ele>
        <time>2018-09-22T05:03:39Z</time>
      </trkpt>
      <trkpt lat="42.252469" lon="1.718551">
        <ele>1223.334</ele>
        <time>2018-09-22T05:03:44Z</time>
      </trkpt>
      <trkpt lat="42.252478" lon="1.718518">
        <ele>1222.846</ele>
        <time>2018-09-22T05:03:47Z</time>
      </trkpt>
      <trkpt lat="42.252486" lon="1.718513">
        <ele>1222.398</ele>
        <time>2018-09-22T05:03:48Z</time>
      </trkpt>
      <trkpt lat="42.252500" lon="1.718499">
        <ele>1221.479</ele>
        <time>2018-09-22T05:03:50Z</time>
      </trkpt>
      <trkpt lat="42.252517" lon="1.718460">
        <ele>1221.305</ele>
        <time>2018-09-22T05:03:53Z</time>
      </trkpt>
      <trkpt lat="42.252508" lon="1.718384">
        <ele>1221.725</ele>
        <time>2018-09-22T05:03:59Z</time>
      </trkpt>
      <trkpt lat="42.252501" lon="1.718376">
        <ele>1221.808</ele>
        <time>2018-09-22T05:04:03Z</time>
      </trkpt>
      <trkpt lat="42.252496" lon="1.718371">
        <ele>1222.189</ele>
        <time>2018-09-22T05:04:04Z</time>
      </trkpt>
      <trkpt lat="42.252492" lon="1.718342">
        <ele>1222.585</ele>
        <time>2018-09-22T05:04:07Z</time>
      </trkpt>
      <trkpt lat="42.252480" lon="1.718294">
        <ele>1223.816</ele>
        <time>2018-09-22T05:04:11Z</time>
      </trkpt>
      <trkpt lat="42.252470" lon="1.718279">
        <ele>1224.650</ele>
        <time>2018-09-22T05:04:12Z</time>
      </trkpt>
      <trkpt lat="42.252439" lon="1.718224">
        <ele>1227.476</ele>
        <time>2018-09-22T05:04:17Z</time>
      </trkpt>
      <trkpt lat="42.252425" lon="1.718210">
        <ele>1228.696</ele>
        <time>2018-09-22T05:04:19Z</time>
      </trkpt>
      <trkpt lat="42.252419" lon="1.718199">
        <ele>1229.248</ele>
        <time>2018-09-22T05:04:20Z</time>
      </trkpt>
      <trkpt lat="42.252410" lon="1.718161">
        <ele>1230.240</ele>
        <time>2018-09-22T05:04:23Z</time>
      </trkpt>
      <trkpt lat="42.252398" lon="1.718152">
        <ele>1231.297</ele>
        <time>2018-09-22T05:04:25Z</time>
      </trkpt>
      <trkpt lat="42.252414" lon="1.718136">
        <ele>1230.123</ele>
        <time>2018-09-22T05:04:27Z</time>
      </trkpt>
      <trkpt lat="42.252446" lon="1.718116">
        <ele>1227.825</ele>
        <time>2018-09-22T05:04:30Z</time>
      </trkpt>
      <trkpt lat="42.252471" lon="1.718104">
        <ele>1225.908</ele>
        <time>2018-09-22T05:04:32Z</time>
      </trkpt>
      <trkpt lat="42.252494" lon="1.718095">
        <ele>1224.191</ele>
        <time>2018-09-22T05:04:34Z</time>
      </trkpt>
      <trkpt lat="42.252506" lon="1.718093">
        <ele>1223.957</ele>
        <time>2018-09-22T05:04:35Z</time>
      </trkpt>
      <trkpt lat="42.252525" lon="1.718084">
        <ele>1224.528</ele>
        <time>2018-09-22T05:04:36Z</time>
      </trkpt>
      <trkpt lat="42.252600" lon="1.718094">
        <ele>1226.582</ele>
        <time>2018-09-22T05:04:41Z</time>
      </trkpt>
      <trkpt lat="42.252618" lon="1.718100">
        <ele>1226.988</ele>
        <time>2018-09-22T05:04:42Z</time>
      </trkpt>
      <trkpt lat="42.252630" lon="1.718102">
        <ele>1227.218</ele>
        <time>2018-09-22T05:04:43Z</time>
      </trkpt>
      <trkpt lat="42.252660" lon="1.718096">
        <ele>1228.230</ele>
        <time>2018-09-22T05:04:45Z</time>
      </trkpt>
      <trkpt lat="42.252682" lon="1.718099">
        <ele>1228.752</ele>
        <time>2018-09-22T05:04:47Z</time>
      </trkpt>
      <trkpt lat="42.252720" lon="1.718095">
        <ele>1229.992</ele>
        <time>2018-09-22T05:04:50Z</time>
      </trkpt>
      <trkpt lat="42.252758" lon="1.718138">
        <ele>1229.573</ele>
        <time>2018-09-22T05:04:54Z</time>
      </trkpt>
      <trkpt lat="42.252778" lon="1.718138">
        <ele>1230.020</ele>
        <time>2018-09-22T05:04:55Z</time>
      </trkpt>
      <trkpt lat="42.252803" lon="1.718156">
        <ele>1230.808</ele>
        <time>2018-09-22T05:04:58Z</time>
      </trkpt>
      <trkpt lat="42.252833" lon="1.718177">
        <ele>1231.891</ele>
        <time>2018-09-22T05:05:01Z</time>
      </trkpt>
      <trkpt lat="42.252854" lon="1.718199">
        <ele>1232.227</ele>
        <time>2018-09-22T05:05:03Z</time>
      </trkpt>
      <trkpt lat="42.252874" lon="1.718211">
        <ele>1232.938</ele>
        <time>2018-09-22T05:05:05Z</time>
      </trkpt>
      <trkpt lat="42.252886" lon="1.718222">
        <ele>1233.242</ele>
        <time>2018-09-22T05:05:06Z</time>
      </trkpt>
      <trkpt lat="42.252926" lon="1.718246">
        <ele>1234.648</ele>
        <time>2018-09-22T05:05:09Z</time>
      </trkpt>
      <trkpt lat="42.252937" lon="1.718257">
        <ele>1234.938</ele>
        <time>2018-09-22T05:05:10Z</time>
      </trkpt>
      <trkpt lat="42.252942" lon="1.718269">
        <ele>1234.790</ele>
        <time>2018-09-22T05:05:11Z</time>
      </trkpt>
      <trkpt lat="42.252955" lon="1.718282">
        <ele>1235.022</ele>
        <time>2018-09-22T05:05:13Z</time>
      </trkpt>
      <trkpt lat="42.252987" lon="1.718298">
        <ele>1236.388</ele>
        <time>2018-09-22T05:05:16Z</time>
      </trkpt>
      <trkpt lat="42.253047" lon="1.718353">
        <ele>1237.824</ele>
        <time>2018-09-22T05:05:22Z</time>
      </trkpt>
      <trkpt lat="42.253108" lon="1.718443">
        <ele>1238.926</ele>
        <time>2018-09-22T05:05:30Z</time>
      </trkpt>
      <trkpt lat="42.253126" lon="1.718466">
        <ele>1239.308</ele>
        <time>2018-09-22T05:05:32Z</time>
      </trkpt>
      <trkpt lat="42.253172" lon="1.718544">
        <ele>1240.060</ele>
        <time>2018-09-22T05:05:38Z</time>
      </trkpt>
      <trkpt lat="42.253197" lon="1.718580">
        <ele>1240.676</ele>
        <time>2018-09-22T05:05:41Z</time>
      </trkpt>
      <trkpt lat="42.253226" lon="1.718619">
        <ele>1241.497</ele>
        <time>2018-09-22T05:05:44Z</time>
      </trkpt>
      <trkpt lat="42.253250" lon="1.718680">
        <ele>1241.331</ele>
        <time>2018-09-22T05:05:48Z</time>
      </trkpt>
      <trkpt lat="42.253255" lon="1.718707">
        <ele>1241.027</ele>
        <time>2018-09-22T05:05:50Z</time>
      </trkpt>
      <trkpt lat="42.253268" lon="1.718735">
        <ele>1241.227</ele>
        <time>2018-09-22T05:05:53Z</time>
      </trkpt>
      <trkpt lat="42.253286" lon="1.718754">
        <ele>1242.159</ele>
        <time>2018-09-22T05:05:55Z</time>
      </trkpt>
      <trkpt lat="42.253293" lon="1.718770">
        <ele>1242.321</ele>
        <time>2018-09-22T05:05:56Z</time>
      </trkpt>
      <trkpt lat="42.253301" lon="1.718832">
        <ele>1241.441</ele>
        <time>2018-09-22T05:06:01Z</time>
      </trkpt>
      <trkpt lat="42.253316" lon="1.718855">
        <ele>1242.281</ele>
        <time>2018-09-22T05:06:03Z</time>
      </trkpt>
      <trkpt lat="42.253326" lon="1.718861">
        <ele>1242.909</ele>
        <time>2018-09-22T05:06:04Z</time>
      </trkpt>
      <trkpt lat="42.253352" lon="1.718894">
        <ele>1243.808</ele>
        <time>2018-09-22T05:06:07Z</time>
      </trkpt>
      <trkpt lat="42.253366" lon="1.718972">
        <ele>1242.636</ele>
        <time>2018-09-22T05:06:11Z</time>
      </trkpt>
      <trkpt lat="42.253437" lon="1.719139">
        <ele>1242.672</ele>
        <time>2018-09-22T05:06:19Z</time>
      </trkpt>
      <trkpt lat="42.253441" lon="1.719153">
        <ele>1242.593</ele>
        <time>2018-09-22T05:06:20Z</time>
      </trkpt>
      <trkpt lat="42.253451" lon="1.719186">
        <ele>1242.367</ele>
        <time>2018-09-22T05:06:22Z</time>
      </trkpt>
      <trkpt lat="42.253463" lon="1.719208">
        <ele>1242.693</ele>
        <time>2018-09-22T05:06:23Z</time>
      </trkpt>
      <trkpt lat="42.253487" lon="1.719255">
        <ele>1242.983</ele>
        <time>2018-09-22T05:06:26Z</time>
      </trkpt>
      <trkpt lat="42.253559" lon="1.719304">
        <ele>1246.075</ele>
        <time>2018-09-22T05:06:31Z</time>
      </trkpt>
      <trkpt lat="42.253565" lon="1.719312">
        <ele>1246.277</ele>
        <time>2018-09-22T05:06:32Z</time>
      </trkpt>
      <trkpt lat="42.253583" lon="1.719334">
        <ele>1246.725</ele>
        <time>2018-09-22T05:06:34Z</time>
      </trkpt>
      <trkpt lat="42.253598" lon="1.719351">
        <ele>1247.226</ele>
        <time>2018-09-22T05:06:36Z</time>
      </trkpt>
      <trkpt lat="42.253604" lon="1.719359">
        <ele>1247.408</ele>
        <time>2018-09-22T05:06:37Z</time>
      </trkpt>
      <trkpt lat="42.253615" lon="1.719394">
        <ele>1246.908</ele>
        <time>2018-09-22T05:06:40Z</time>
      </trkpt>
      <trkpt lat="42.253622" lon="1.719396">
        <ele>1246.774</ele>
        <time>2018-09-22T05:06:41Z</time>
      </trkpt>
      <trkpt lat="42.253644" lon="1.719407">
        <ele>1245.910</ele>
        <time>2018-09-22T05:06:43Z</time>
      </trkpt>
      <trkpt lat="42.253659" lon="1.719413">
        <ele>1245.411</ele>
        <time>2018-09-22T05:06:44Z</time>
      </trkpt>
      <trkpt lat="42.253683" lon="1.719404">
        <ele>1245.045</ele>
        <time>2018-09-22T05:06:46Z</time>
      </trkpt>
      <trkpt lat="42.253719" lon="1.719346">
        <ele>1245.791</ele>
        <time>2018-09-22T05:06:50Z</time>
      </trkpt>
      <trkpt lat="42.253734" lon="1.719323">
        <ele>1246.061</ele>
        <time>2018-09-22T05:06:52Z</time>
      </trkpt>
      <trkpt lat="42.253752" lon="1.719324">
        <ele>1245.643</ele>
        <time>2018-09-22T05:06:54Z</time>
      </trkpt>
      <trkpt lat="42.253765" lon="1.719324">
        <ele>1245.345</ele>
        <time>2018-09-22T05:06:56Z</time>
      </trkpt>
      <trkpt lat="42.253803" lon="1.719310">
        <ele>1245.093</ele>
        <time>2018-09-22T05:07:00Z</time>
      </trkpt>
      <trkpt lat="42.253837" lon="1.719296">
        <ele>1244.865</ele>
        <time>2018-09-22T05:07:04Z</time>
      </trkpt>
      <trkpt lat="42.253845" lon="1.719296">
        <ele>1244.721</ele>
        <time>2018-09-22T05:07:05Z</time>
      </trkpt>
      <trkpt lat="42.253864" lon="1.719295">
        <ele>1244.408</ele>
        <time>2018-09-22T05:07:07Z</time>
      </trkpt>
      <trkpt lat="42.253882" lon="1.719284">
        <ele>1244.411</ele>
        <time>2018-09-22T05:07:09Z</time>
      </trkpt>
      <trkpt lat="42.253889" lon="1.719271">
        <ele>1244.877</ele>
        <time>2018-09-22T05:07:10Z</time>
      </trkpt>
      <trkpt lat="42.253905" lon="1.719251">
        <ele>1244.778</ele>
        <time>2018-09-22T05:07:12Z</time>
      </trkpt>
      <trkpt lat="42.253949" lon="1.719189">
        <ele>1244.552</ele>
        <time>2018-09-22T05:07:17Z</time>
      </trkpt>
      <trkpt lat="42.253963" lon="1.719182">
        <ele>1243.958</ele>
        <time>2018-09-22T05:07:18Z</time>
      </trkpt>
      <trkpt lat="42.253989" lon="1.719162">
        <ele>1242.898</ele>
        <time>2018-09-22T05:07:20Z</time>
      </trkpt>
      <trkpt lat="42.254003" lon="1.719142">
        <ele>1242.120</ele>
        <time>2018-09-22T05:07:22Z</time>
      </trkpt>
      <trkpt lat="42.254009" lon="1.719126">
        <ele>1241.972</ele>
        <time>2018-09-22T05:07:23Z</time>
      </trkpt>
      <trkpt lat="42.254021" lon="1.719102">
        <ele>1241.399</ele>
        <time>2018-09-22T05:07:25Z</time>
      </trkpt>
      <trkpt lat="42.254029" lon="1.719087">
        <ele>1241.007</ele>
        <time>2018-09-22T05:07:26Z</time>
      </trkpt>
      <trkpt lat="42.254043" lon="1.719062">
        <ele>1240.327</ele>
        <time>2018-09-22T05:07:27Z</time>
      </trkpt>
      <trkpt lat="42.254053" lon="1.719043">
        <ele>1239.808</ele>
        <time>2018-09-22T05:07:28Z</time>
      </trkpt>
      <trkpt lat="42.254056" lon="1.719029">
        <ele>1239.731</ele>
        <time>2018-09-22T05:07:29Z</time>
      </trkpt>
      <trkpt lat="42.254069" lon="1.719003">
        <ele>1239.157</ele>
        <time>2018-09-22T05:07:31Z</time>
      </trkpt>
      <trkpt lat="42.254090" lon="1.718997">
        <ele>1237.918</ele>
        <time>2018-09-22T05:07:33Z</time>
      </trkpt>
      <trkpt lat="42.254100" lon="1.718994">
        <ele>1237.372</ele>
        <time>2018-09-22T05:07:36Z</time>
      </trkpt>
      <trkpt lat="42.254123" lon="1.718963">
        <ele>1236.118</ele>
        <time>2018-09-22T05:07:38Z</time>
      </trkpt>
      <trkpt lat="42.254131" lon="1.718938">
        <ele>1235.858</ele>
        <time>2018-09-22T05:07:39Z</time>
      </trkpt>
      <trkpt lat="42.254145" lon="1.718908">
        <ele>1235.120</ele>
        <time>2018-09-22T05:07:42Z</time>
      </trkpt>
      <trkpt lat="42.254159" lon="1.718881">
        <ele>1234.432</ele>
        <time>2018-09-22T05:07:44Z</time>
      </trkpt>
      <trkpt lat="42.254169" lon="1.718873">
        <ele>1234.056</ele>
        <time>2018-09-22T05:07:45Z</time>
      </trkpt>
      <trkpt lat="42.254182" lon="1.718865">
        <ele>1234.259</ele>
        <time>2018-09-22T05:07:47Z</time>
      </trkpt>
      <trkpt lat="42.254185" lon="1.718830">
        <ele>1234.414</ele>
        <time>2018-09-22T05:07:50Z</time>
      </trkpt>
      <trkpt lat="42.254188" lon="1.718826">
        <ele>1234.408</ele>
        <time>2018-09-22T05:07:51Z</time>
      </trkpt>
      <trkpt lat="42.254193" lon="1.718820">
        <ele>1234.527</ele>
        <time>2018-09-22T05:07:52Z</time>
      </trkpt>
      <trkpt lat="42.254206" lon="1.718804">
        <ele>1234.833</ele>
        <time>2018-09-22T05:07:55Z</time>
      </trkpt>
      <trkpt lat="42.254225" lon="1.718813">
        <ele>1235.194</ele>
        <time>2018-09-22T05:07:57Z</time>
      </trkpt>
      <trkpt lat="42.254245" lon="1.718830">
        <ele>1235.218</ele>
        <time>2018-09-22T05:07:59Z</time>
      </trkpt>
      <trkpt lat="42.254276" lon="1.718864">
        <ele>1235.124</ele>
        <time>2018-09-22T05:08:03Z</time>
      </trkpt>
      <trkpt lat="42.254290" lon="1.718871">
        <ele>1235.134</ele>
        <time>2018-09-22T05:08:04Z</time>
      </trkpt>
      <trkpt lat="42.254302" lon="1.718875">
        <ele>1235.296</ele>
        <time>2018-09-22T05:08:05Z</time>
      </trkpt>
      <trkpt lat="42.254318" lon="1.718887">
        <ele>1235.118</ele>
        <time>2018-09-22T05:08:06Z</time>
      </trkpt>
      <trkpt lat="42.254340" lon="1.718927">
        <ele>1234.514</ele>
        <time>2018-09-22T05:08:09Z</time>
      </trkpt>
      <trkpt lat="42.254346" lon="1.718951">
        <ele>1234.154</ele>
        <time>2018-09-22T05:08:11Z</time>
      </trkpt>
      <trkpt lat="42.254351" lon="1.718972">
        <ele>1233.709</ele>
        <time>2018-09-22T05:08:12Z</time>
      </trkpt>
      <trkpt lat="42.254378" lon="1.719008">
        <ele>1233.008</ele>
        <time>2018-09-22T05:08:15Z</time>
      </trkpt>
      <trkpt lat="42.254384" lon="1.719018">
        <ele>1232.873</ele>
        <time>2018-09-22T05:08:16Z</time>
      </trkpt>
      <trkpt lat="42.254389" lon="1.719025">
        <ele>1232.669</ele>
        <time>2018-09-22T05:08:17Z</time>
      </trkpt>
      <trkpt lat="42.254410" lon="1.719046">
        <ele>1232.110</ele>
        <time>2018-09-22T05:08:19Z</time>
      </trkpt>
      <trkpt lat="42.254430" lon="1.719095">
        <ele>1230.814</ele>
        <time>2018-09-22T05:08:23Z</time>
      </trkpt>
      <trkpt lat="42.254441" lon="1.719112">
        <ele>1230.450</ele>
        <time>2018-09-22T05:08:25Z</time>
      </trkpt>
      <trkpt lat="42.254463" lon="1.719153">
        <ele>1230.880</ele>
        <time>2018-09-22T05:08:29Z</time>
      </trkpt>
      <trkpt lat="42.254481" lon="1.719205">
        <ele>1232.172</ele>
        <time>2018-09-22T05:08:32Z</time>
      </trkpt>
      <trkpt lat="42.254487" lon="1.719223">
        <ele>1232.684</ele>
        <time>2018-09-22T05:08:33Z</time>
      </trkpt>
      <trkpt lat="42.254498" lon="1.719266">
        <ele>1233.696</ele>
        <time>2018-09-22T05:08:35Z</time>
      </trkpt>
      <trkpt lat="42.254498" lon="1.719303">
        <ele>1233.731</ele>
        <time>2018-09-22T05:08:36Z</time>
      </trkpt>
      <trkpt lat="42.254499" lon="1.719348">
        <ele>1233.924</ele>
        <time>2018-09-22T05:08:38Z</time>
      </trkpt>
      <trkpt lat="42.254505" lon="1.719373">
        <ele>1234.408</ele>
        <time>2018-09-22T05:08:40Z</time>
      </trkpt>
      <trkpt lat="42.254514" lon="1.719429">
        <ele>1235.261</ele>
        <time>2018-09-22T05:08:44Z</time>
      </trkpt>
      <trkpt lat="42.254513" lon="1.719447">
        <ele>1235.297</ele>
        <time>2018-09-22T05:08:45Z</time>
      </trkpt>
      <trkpt lat="42.254519" lon="1.719490">
        <ele>1236.658</ele>
        <time>2018-09-22T05:08:48Z</time>
      </trkpt>
      <trkpt lat="42.254530" lon="1.719542">
        <ele>1238.522</ele>
        <time>2018-09-22T05:08:52Z</time>
      </trkpt>
      <trkpt lat="42.254530" lon="1.719561">
        <ele>1238.978</ele>
        <time>2018-09-22T05:08:53Z</time>
      </trkpt>
      <trkpt lat="42.254506" lon="1.719670">
        <ele>1239.578</ele>
        <time>2018-09-22T05:08:59Z</time>
      </trkpt>
      <trkpt lat="42.254495" lon="1.719703">
        <ele>1239.480</ele>
        <time>2018-09-22T05:09:01Z</time>
      </trkpt>
      <trkpt lat="42.254493" lon="1.719741">
        <ele>1240.172</ele>
        <time>2018-09-22T05:09:03Z</time>
      </trkpt>
      <trkpt lat="42.254483" lon="1.719790">
        <ele>1240.673</ele>
        <time>2018-09-22T05:09:06Z</time>
      </trkpt>
      <trkpt lat="42.254467" lon="1.719852">
        <ele>1240.985</ele>
        <time>2018-09-22T05:09:10Z</time>
      </trkpt>
      <trkpt lat="42.254460" lon="1.719862">
        <ele>1240.613</ele>
        <time>2018-09-22T05:09:11Z</time>
      </trkpt>
      <trkpt lat="42.254448" lon="1.719941">
        <ele>1241.708</ele>
        <time>2018-09-22T05:09:15Z</time>
      </trkpt>
      <trkpt lat="42.254396" lon="1.720051">
        <ele>1240.499</ele>
        <time>2018-09-22T05:09:21Z</time>
      </trkpt>
      <trkpt lat="42.254381" lon="1.720102">
        <ele>1240.575</ele>
        <time>2018-09-22T05:09:24Z</time>
      </trkpt>
      <trkpt lat="42.254366" lon="1.720142">
        <ele>1240.326</ele>
        <time>2018-09-22T05:09:26Z</time>
      </trkpt>
      <trkpt lat="42.254335" lon="1.720228">
        <ele>1239.910</ele>
        <time>2018-09-22T05:09:31Z</time>
      </trkpt>
      <trkpt lat="42.254334" lon="1.720239">
        <ele>1240.156</ele>
        <time>2018-09-22T05:09:32Z</time>
      </trkpt>
      <trkpt lat="42.254337" lon="1.720246">
        <ele>1240.526</ele>
        <time>2018-09-22T05:09:33Z</time>
      </trkpt>
      <trkpt lat="42.254346" lon="1.720283">
        <ele>1241.938</ele>
        <time>2018-09-22T05:09:36Z</time>
      </trkpt>
      <trkpt lat="42.254348" lon="1.720297">
        <ele>1242.330</ele>
        <time>2018-09-22T05:09:37Z</time>
      </trkpt>
      <trkpt lat="42.254346" lon="1.720315">
        <ele>1242.463</ele>
        <time>2018-09-22T05:09:38Z</time>
      </trkpt>
      <trkpt lat="42.254348" lon="1.720342">
        <ele>1242.944</ele>
        <time>2018-09-22T05:09:40Z</time>
      </trkpt>
      <trkpt lat="42.254345" lon="1.720357">
        <ele>1242.918</ele>
        <time>2018-09-22T05:09:41Z</time>
      </trkpt>
      <trkpt lat="42.254345" lon="1.720398">
        <ele>1243.508</ele>
        <time>2018-09-22T05:09:44Z</time>
      </trkpt>
      <trkpt lat="42.254345" lon="1.720432">
        <ele>1243.998</ele>
        <time>2018-09-22T05:09:46Z</time>
      </trkpt>
      <trkpt lat="42.254336" lon="1.720448">
        <ele>1243.544</ele>
        <time>2018-09-22T05:09:47Z</time>
      </trkpt>
      <trkpt lat="42.254327" lon="1.720467">
        <ele>1243.185</ele>
        <time>2018-09-22T05:09:48Z</time>
      </trkpt>
      <trkpt lat="42.254326" lon="1.720532">
        <ele>1243.969</ele>
        <time>2018-09-22T05:09:52Z</time>
      </trkpt>
      <trkpt lat="42.254336" lon="1.720594">
        <ele>1245.345</ele>
        <time>2018-09-22T05:09:56Z</time>
      </trkpt>
      <trkpt lat="42.254341" lon="1.720610">
        <ele>1245.955</ele>
        <time>2018-09-22T05:09:58Z</time>
      </trkpt>
      <trkpt lat="42.254338" lon="1.720631">
        <ele>1245.817</ele>
        <time>2018-09-22T05:10:00Z</time>
      </trkpt>
      <trkpt lat="42.254339" lon="1.720665">
        <ele>1246.129</ele>
        <time>2018-09-22T05:10:02Z</time>
      </trkpt>
      <trkpt lat="42.254345" lon="1.720681">
        <ele>1246.848</ele>
        <time>2018-09-22T05:10:03Z</time>
      </trkpt>
      <trkpt lat="42.254350" lon="1.720717">
        <ele>1247.561</ele>
        <time>2018-09-22T05:10:05Z</time>
      </trkpt>
      <trkpt lat="42.254359" lon="1.720797">
        <ele>1248.817</ele>
        <time>2018-09-22T05:10:10Z</time>
      </trkpt>
      <trkpt lat="42.254346" lon="1.720852">
        <ele>1248.608</ele>
        <time>2018-09-22T05:10:14Z</time>
      </trkpt>
      <trkpt lat="42.254350" lon="1.720901">
        <ele>1250.086</ele>
        <time>2018-09-22T05:10:17Z</time>
      </trkpt>
      <trkpt lat="42.254284" lon="1.721039">
        <ele>1248.142</ele>
        <time>2018-09-22T05:10:25Z</time>
      </trkpt>
      <trkpt lat="42.254261" lon="1.721109">
        <ele>1248.013</ele>
        <time>2018-09-22T05:10:28Z</time>
      </trkpt>
      <trkpt lat="42.254239" lon="1.721146">
        <ele>1247.447</ele>
        <time>2018-09-22T05:10:30Z</time>
      </trkpt>
      <trkpt lat="42.254222" lon="1.721222">
        <ele>1248.353</ele>
        <time>2018-09-22T05:10:35Z</time>
      </trkpt>
      <trkpt lat="42.254220" lon="1.721252">
        <ele>1249.163</ele>
        <time>2018-09-22T05:10:37Z</time>
      </trkpt>
      <trkpt lat="42.254207" lon="1.721294">
        <ele>1249.385</ele>
        <time>2018-09-22T05:10:39Z</time>
      </trkpt>
      <trkpt lat="42.254201" lon="1.721334">
        <ele>1249.947</ele>
        <time>2018-09-22T05:10:41Z</time>
      </trkpt>
      <trkpt lat="42.254197" lon="1.721361">
        <ele>1250.589</ele>
        <time>2018-09-22T05:10:43Z</time>
      </trkpt>
      <trkpt lat="42.254197" lon="1.721373">
        <ele>1250.806</ele>
        <time>2018-09-22T05:10:44Z</time>
      </trkpt>
      <trkpt lat="42.254180" lon="1.721418">
        <ele>1250.926</ele>
        <time>2018-09-22T05:10:48Z</time>
      </trkpt>
      <trkpt lat="42.254176" lon="1.721437">
        <ele>1251.208</ele>
        <time>2018-09-22T05:10:49Z</time>
      </trkpt>
      <trkpt lat="42.254168" lon="1.721473">
        <ele>1251.860</ele>
        <time>2018-09-22T05:10:51Z</time>
      </trkpt>
      <trkpt lat="42.254161" lon="1.721488">
        <ele>1251.786</ele>
        <time>2018-09-22T05:10:52Z</time>
      </trkpt>
      <trkpt lat="42.254143" lon="1.721520">
        <ele>1251.447</ele>
        <time>2018-09-22T05:10:54Z</time>
      </trkpt>
      <trkpt lat="42.254131" lon="1.721556">
        <ele>1251.651</ele>
        <time>2018-09-22T05:10:56Z</time>
      </trkpt>
      <trkpt lat="42.254129" lon="1.721572">
        <ele>1251.947</ele>
        <time>2018-09-22T05:10:57Z</time>
      </trkpt>
      <trkpt lat="42.254128" lon="1.721606">
        <ele>1252.977</ele>
        <time>2018-09-22T05:10:59Z</time>
      </trkpt>
      <trkpt lat="42.254114" lon="1.721643">
        <ele>1253.159</ele>
        <time>2018-09-22T05:11:01Z</time>
      </trkpt>
      <trkpt lat="42.254097" lon="1.721687">
        <ele>1252.951</ele>
        <time>2018-09-22T05:11:04Z</time>
      </trkpt>
      <trkpt lat="42.254092" lon="1.721720">
        <ele>1253.348</ele>
        <time>2018-09-22T05:11:06Z</time>
      </trkpt>
      <trkpt lat="42.254085" lon="1.721731">
        <ele>1253.061</ele>
        <time>2018-09-22T05:11:07Z</time>
      </trkpt>
      <trkpt lat="42.254062" lon="1.721786">
        <ele>1252.617</ele>
        <time>2018-09-22T05:11:10Z</time>
      </trkpt>
      <trkpt lat="42.254044" lon="1.721836">
        <ele>1252.408</ele>
        <time>2018-09-22T05:11:13Z</time>
      </trkpt>
      <trkpt lat="42.254037" lon="1.721885">
        <ele>1253.186</ele>
        <time>2018-09-22T05:11:16Z</time>
      </trkpt>
      <trkpt lat="42.254036" lon="1.721915">
        <ele>1253.832</ele>
        <time>2018-09-22T05:11:18Z</time>
      </trkpt>
      <trkpt lat="42.254014" lon="1.721996">
        <ele>1254.333</ele>
        <time>2018-09-22T05:11:24Z</time>
      </trkpt>
      <trkpt lat="42.254022" lon="1.722019">
        <ele>1255.637</ele>
        <time>2018-09-22T05:11:26Z</time>
      </trkpt>
      <trkpt lat="42.254019" lon="1.722065">
        <ele>1256.643</ele>
        <time>2018-09-22T05:11:29Z</time>
      </trkpt>
      <trkpt lat="42.254006" lon="1.722126">
        <ele>1257.333</ele>
        <time>2018-09-22T05:11:33Z</time>
      </trkpt>
      <trkpt lat="42.254002" lon="1.722148">
        <ele>1257.625</ele>
        <time>2018-09-22T05:11:34Z</time>
      </trkpt>
      <trkpt lat="42.253998" lon="1.722182">
        <ele>1258.357</ele>
        <time>2018-09-22T05:11:36Z</time>
      </trkpt>
      <trkpt lat="42.253997" lon="1.722198">
        <ele>1258.789</ele>
        <time>2018-09-22T05:11:37Z</time>
      </trkpt>
      <trkpt lat="42.253990" lon="1.722211">
        <ele>1258.606</ele>
        <time>2018-09-22T05:11:38Z</time>
      </trkpt>
      <trkpt lat="42.253974" lon="1.722322">
        <ele>1259.526</ele>
        <time>2018-09-22T05:11:44Z</time>
      </trkpt>
      <trkpt lat="42.253908" lon="1.722558">
        <ele>1256.508</ele>
        <time>2018-09-22T05:11:57Z</time>
      </trkpt>
      <trkpt lat="42.253913" lon="1.722596">
        <ele>1255.140</ele>
        <time>2018-09-22T05:12:00Z</time>
      </trkpt>
      <trkpt lat="42.253922" lon="1.722604">
        <ele>1255.226</ele>
        <time>2018-09-22T05:12:02Z</time>
      </trkpt>
      <trkpt lat="42.253954" lon="1.722627">
        <ele>1255.917</ele>
        <time>2018-09-22T05:12:05Z</time>
      </trkpt>
      <trkpt lat="42.254023" lon="1.722667">
        <ele>1257.731</ele>
        <time>2018-09-22T05:12:11Z</time>
      </trkpt>
      <trkpt lat="42.254036" lon="1.722677">
        <ele>1257.987</ele>
        <time>2018-09-22T05:12:12Z</time>
      </trkpt>
      <trkpt lat="42.254113" lon="1.722721">
        <ele>1259.887</ele>
        <time>2018-09-22T05:12:17Z</time>
      </trkpt>
      <trkpt lat="42.254139" lon="1.722742">
        <ele>1260.219</ele>
        <time>2018-09-22T05:12:19Z</time>
      </trkpt>
      <trkpt lat="42.254149" lon="1.722752">
        <ele>1260.341</ele>
        <time>2018-09-22T05:12:20Z</time>
      </trkpt>
      <trkpt lat="42.254217" lon="1.722849">
        <ele>1256.747</ele>
        <time>2018-09-22T05:12:25Z</time>
      </trkpt>
      <trkpt lat="42.254355" lon="1.722942">
        <ele>1254.029</ele>
        <time>2018-09-22T05:12:33Z</time>
      </trkpt>
      <trkpt lat="42.254376" lon="1.722947">
        <ele>1254.121</ele>
        <time>2018-09-22T05:12:34Z</time>
      </trkpt>
      <trkpt lat="42.254494" lon="1.722951">
        <ele>1256.008</ele>
        <time>2018-09-22T05:12:40Z</time>
      </trkpt>
      <trkpt lat="42.254519" lon="1.722933">
        <ele>1257.586</ele>
        <time>2018-09-22T05:12:43Z</time>
      </trkpt>
      <trkpt lat="42.254557" lon="1.722926">
        <ele>1258.312</ele>
        <time>2018-09-22T05:12:46Z</time>
      </trkpt>
      <trkpt lat="42.254595" lon="1.722940">
        <ele>1257.793</ele>
        <time>2018-09-22T05:12:50Z</time>
      </trkpt>
      <trkpt lat="42.254635" lon="1.723001">
        <ele>1254.297</ele>
        <time>2018-09-22T05:12:55Z</time>
      </trkpt>
      <trkpt lat="42.254647" lon="1.723012">
        <ele>1253.723</ele>
        <time>2018-09-22T05:12:56Z</time>
      </trkpt>
      <trkpt lat="42.254656" lon="1.723015">
        <ele>1253.683</ele>
        <time>2018-09-22T05:12:57Z</time>
      </trkpt>
      <trkpt lat="42.254658" lon="1.723019">
        <ele>1253.415</ele>
        <time>2018-09-22T05:12:58Z</time>
      </trkpt>
      <trkpt lat="42.254665" lon="1.723019">
        <ele>1253.467</ele>
        <time>2018-09-22T05:13:00Z</time>
      </trkpt>
      <trkpt lat="42.254673" lon="1.723022">
        <ele>1253.323</ele>
        <time>2018-09-22T05:13:01Z</time>
      </trkpt>
      <trkpt lat="42.254711" lon="1.723079">
        <ele>1250.683</ele>
        <time>2018-09-22T05:13:05Z</time>
      </trkpt>
      <trkpt lat="42.254746" lon="1.723119">
        <ele>1248.611</ele>
        <time>2018-09-22T05:13:08Z</time>
      </trkpt>
      <trkpt lat="42.254798" lon="1.723175">
        <ele>1245.808</ele>
        <time>2018-09-22T05:13:12Z</time>
      </trkpt>
      <trkpt lat="42.254883" lon="1.723246">
        <ele>1242.434</ele>
        <time>2018-09-22T05:13:17Z</time>
      </trkpt>
      <trkpt lat="42.254937" lon="1.723289">
        <ele>1240.620</ele>
        <time>2018-09-22T05:13:20Z</time>
      </trkpt>
      <trkpt lat="42.254953" lon="1.723281">
        <ele>1240.991</ele>
        <time>2018-09-22T05:13:21Z</time>
      </trkpt>
      <trkpt lat="42.254975" lon="1.723241">
        <ele>1242.685</ele>
        <time>2018-09-22T05:13:24Z</time>
      </trkpt>
      <trkpt lat="42.254985" lon="1.723239">
        <ele>1242.791</ele>
        <time>2018-09-22T05:13:25Z</time>
      </trkpt>
      <trkpt lat="42.255005" lon="1.723265">
        <ele>1241.241</ele>
        <time>2018-09-22T05:13:28Z</time>
      </trkpt>
      <trkpt lat="42.255008" lon="1.723281">
        <ele>1240.383</ele>
        <time>2018-09-22T05:13:29Z</time>
      </trkpt>
      <trkpt lat="42.255009" lon="1.723308">
        <ele>1239.035</ele>
        <time>2018-09-22T05:13:31Z</time>
      </trkpt>
      <trkpt lat="42.255017" lon="1.723293">
        <ele>1238.949</ele>
        <time>2018-09-22T05:13:33Z</time>
      </trkpt>
      <trkpt lat="42.255035" lon="1.723243">
        <ele>1239.302</ele>
        <time>2018-09-22T05:13:36Z</time>
      </trkpt>
      <trkpt lat="42.255043" lon="1.723222">
        <ele>1239.722</ele>
        <time>2018-09-22T05:13:37Z</time>
      </trkpt>
      <trkpt lat="42.255056" lon="1.723212">
        <ele>1239.008</ele>
        <time>2018-09-22T05:13:38Z</time>
      </trkpt>
      <trkpt lat="42.255072" lon="1.723233">
        <ele>1236.566</ele>
        <time>2018-09-22T05:13:40Z</time>
      </trkpt>
      <trkpt lat="42.255080" lon="1.723274">
        <ele>1233.652</ele>
        <time>2018-09-22T05:13:43Z</time>
      </trkpt>
      <trkpt lat="42.255089" lon="1.723286">
        <ele>1232.083</ele>
        <time>2018-09-22T05:13:45Z</time>
      </trkpt>
      <trkpt lat="42.255084" lon="1.723229">
        <ele>1235.787</ele>
        <time>2018-09-22T05:13:48Z</time>
      </trkpt>
      <trkpt lat="42.255094" lon="1.723191">
        <ele>1237.163</ele>
        <time>2018-09-22T05:13:51Z</time>
      </trkpt>
      <trkpt lat="42.255108" lon="1.723168">
        <ele>1237.353</ele>
        <time>2018-09-22T05:13:53Z</time>
      </trkpt>
      <trkpt lat="42.255112" lon="1.723158">
        <ele>1237.615</ele>
        <time>2018-09-22T05:13:54Z</time>
      </trkpt>
      <trkpt lat="42.255118" lon="1.723147">
        <ele>1237.927</ele>
        <time>2018-09-22T05:13:55Z</time>
      </trkpt>
      <trkpt lat="42.255116" lon="1.723135">
        <ele>1238.848</ele>
        <time>2018-09-22T05:13:57Z</time>
      </trkpt>
      <trkpt lat="42.255125" lon="1.723123">
        <ele>1238.961</ele>
        <time>2018-09-22T05:13:59Z</time>
      </trkpt>
      <trkpt lat="42.255130" lon="1.723161">
        <ele>1236.017</ele>
        <time>2018-09-22T05:14:02Z</time>
      </trkpt>
      <trkpt lat="42.255137" lon="1.723164">
        <ele>1235.408</ele>
        <time>2018-09-22T05:14:03Z</time>
      </trkpt>
      <trkpt lat="42.255145" lon="1.723162">
        <ele>1234.926</ele>
        <time>2018-09-22T05:14:04Z</time>
      </trkpt>
      <trkpt lat="42.255155" lon="1.723161">
        <ele>1234.272</ele>
        <time>2018-09-22T05:14:06Z</time>
      </trkpt>
      <trkpt lat="42.255165" lon="1.723152">
        <ele>1234.283</ele>
        <time>2018-09-22T05:14:07Z</time>
      </trkpt>
      <trkpt lat="42.255179" lon="1.723125">
        <ele>1235.147</ele>
        <time>2018-09-22T05:14:09Z</time>
      </trkpt>
      <trkpt lat="42.255187" lon="1.723112">
        <ele>1235.643</ele>
        <time>2018-09-22T05:14:10Z</time>
      </trkpt>
      <trkpt lat="42.255197" lon="1.723101">
        <ele>1235.883</ele>
        <time>2018-09-22T05:14:11Z</time>
      </trkpt>
      <trkpt lat="42.255209" lon="1.723107">
        <ele>1234.545</ele>
        <time>2018-09-22T05:14:12Z</time>
      </trkpt>
      <trkpt lat="42.255227" lon="1.723119">
        <ele>1232.417</ele>
        <time>2018-09-22T05:14:14Z</time>
      </trkpt>
      <trkpt lat="42.255290" lon="1.723118">
        <ele>1228.815</ele>
        <time>2018-09-22T05:14:17Z</time>
      </trkpt>
      <trkpt lat="42.255315" lon="1.723134">
        <ele>1226.965</ele>
        <time>2018-09-22T05:14:19Z</time>
      </trkpt>
      <trkpt lat="42.255398" lon="1.723115">
        <ele>1226.611</ele>
        <time>2018-09-22T05:14:24Z</time>
      </trkpt>
      <trkpt lat="42.255407" lon="1.723108">
        <ele>1227.008</ele>
        <time>2018-09-22T05:14:25Z</time>
      </trkpt>
      <trkpt lat="42.255430" lon="1.723091">
        <ele>1227.813</ele>
        <time>2018-09-22T05:14:27Z</time>
      </trkpt>
      <trkpt lat="42.255439" lon="1.723073">
        <ele>1229.029</ele>
        <time>2018-09-22T05:14:28Z</time>
      </trkpt>
      <trkpt lat="42.255475" lon="1.723060">
        <ele>1229.020</ele>
        <time>2018-09-22T05:14:30Z</time>
      </trkpt>
      <trkpt lat="42.255504" lon="1.723033">
        <ele>1231.574</ele>
        <time>2018-09-22T05:14:32Z</time>
      </trkpt>
      <trkpt lat="42.255517" lon="1.723031">
        <ele>1231.680</ele>
        <time>2018-09-22T05:14:33Z</time>
      </trkpt>
      <trkpt lat="42.255622" lon="1.723016">
        <ele>1232.430</ele>
        <time>2018-09-22T05:14:38Z</time>
      </trkpt>
      <trkpt lat="42.255667" lon="1.723018">
        <ele>1231.762</ele>
        <time>2018-09-22T05:14:40Z</time>
      </trkpt>
      <trkpt lat="42.255692" lon="1.723110">
        <ele>1224.134</ele>
        <time>2018-09-22T05:14:43Z</time>
      </trkpt>
      <trkpt lat="42.255736" lon="1.723104">
        <ele>1224.797</ele>
        <time>2018-09-22T05:14:47Z</time>
      </trkpt>
      <trkpt lat="42.255743" lon="1.723095">
        <ele>1225.323</ele>
        <time>2018-09-22T05:14:48Z</time>
      </trkpt>
      <trkpt lat="42.255784" lon="1.723095">
        <ele>1225.425</ele>
        <time>2018-09-22T05:14:50Z</time>
      </trkpt>
      <trkpt lat="42.255860" lon="1.723100">
        <ele>1225.408</ele>
        <time>2018-09-22T05:14:55Z</time>
      </trkpt>
      <trkpt lat="42.255899" lon="1.723077">
        <ele>1226.721</ele>
        <time>2018-09-22T05:14:58Z</time>
      </trkpt>
      <trkpt lat="42.255904" lon="1.723067">
        <ele>1227.377</ele>
        <time>2018-09-22T05:15:00Z</time>
      </trkpt>
      <trkpt lat="42.255903" lon="1.723063">
        <ele>1227.598</ele>
        <time>2018-09-22T05:15:01Z</time>
      </trkpt>
      <trkpt lat="42.255909" lon="1.723043">
        <ele>1228.772</ele>
        <time>2018-09-22T05:15:15Z</time>
      </trkpt>
      <trkpt lat="42.255903" lon="1.723043">
        <ele>1228.738</ele>
        <time>2018-09-22T05:15:19Z</time>
      </trkpt>
      <trkpt lat="42.255902" lon="1.723040">
        <ele>1228.968</ele>
        <time>2018-09-22T05:15:22Z</time>
      </trkpt>
      <trkpt lat="42.255911" lon="1.723048">
        <ele>1228.430</ele>
        <time>2018-09-22T05:15:25Z</time>
      </trkpt>
      <trkpt lat="42.255922" lon="1.723076">
        <ele>1226.832</ele>
        <time>2018-09-22T05:15:30Z</time>
      </trkpt>
      <trkpt lat="42.255931" lon="1.723092">
        <ele>1225.998</ele>
        <time>2018-09-22T05:15:34Z</time>
      </trkpt>
      <trkpt lat="42.255939" lon="1.723076">
        <ele>1226.815</ele>
        <time>2018-09-22T05:15:40Z</time>
      </trkpt>
      <trkpt lat="42.255933" lon="1.723059">
        <ele>1227.726</ele>
        <time>2018-09-22T05:15:42Z</time>
      </trkpt>
      <trkpt lat="42.255953" lon="1.723063">
        <ele>1227.508</ele>
        <time>2018-09-22T05:15:45Z</time>
      </trkpt>
      <trkpt lat="42.255982" lon="1.723064">
        <ele>1227.521</ele>
        <time>2018-09-22T05:15:47Z</time>
      </trkpt>
      <trkpt lat="42.256028" lon="1.723038">
        <ele>1229.017</ele>
        <time>2018-09-22T05:15:50Z</time>
      </trkpt>
      <trkpt lat="42.256056" lon="1.723037">
        <ele>1229.048</ele>
        <time>2018-09-22T05:15:52Z</time>
      </trkpt>
      <trkpt lat="42.256096" lon="1.723049">
        <ele>1228.372</ele>
        <time>2018-09-22T05:15:55Z</time>
      </trkpt>
      <trkpt lat="42.256168" lon="1.723055">
        <ele>1229.098</ele>
        <time>2018-09-22T05:15:59Z</time>
      </trkpt>
      <trkpt lat="42.256182" lon="1.723059">
        <ele>1229.078</ele>
        <time>2018-09-22T05:16:00Z</time>
      </trkpt>
      <trkpt lat="42.256216" lon="1.723078">
        <ele>1228.670</ele>
        <time>2018-09-22T05:16:04Z</time>
      </trkpt>
      <trkpt lat="42.256223" lon="1.723088">
        <ele>1228.212</ele>
        <time>2018-09-22T05:16:06Z</time>
      </trkpt>
      <trkpt lat="42.256225" lon="1.723098">
        <ele>1227.614</ele>
        <time>2018-09-22T05:16:07Z</time>
      </trkpt>
      <trkpt lat="42.256230" lon="1.723105">
        <ele>1227.454</ele>
        <time>2018-09-22T05:16:08Z</time>
      </trkpt>
      <trkpt lat="42.256267" lon="1.723122">
        <ele>1227.009</ele>
        <time>2018-09-22T05:16:12Z</time>
      </trkpt>
      <trkpt lat="42.256278" lon="1.723129">
        <ele>1226.808</ele>
        <time>2018-09-22T05:16:13Z</time>
      </trkpt>
      <trkpt lat="42.256298" lon="1.723131">
        <ele>1227.153</ele>
        <time>2018-09-22T05:16:15Z</time>
      </trkpt>
      <trkpt lat="42.256328" lon="1.723156">
        <ele>1226.249</ele>
        <time>2018-09-22T05:16:17Z</time>
      </trkpt>
      <trkpt lat="42.256347" lon="1.723177">
        <ele>1225.290</ele>
        <time>2018-09-22T05:16:18Z</time>
      </trkpt>
      <trkpt lat="42.256407" lon="1.723242">
        <ele>1222.914</ele>
        <time>2018-09-22T05:16:21Z</time>
      </trkpt>
      <trkpt lat="42.256480" lon="1.723328">
        <ele>1220.570</ele>
        <time>2018-09-22T05:16:25Z</time>
      </trkpt>
      <trkpt lat="42.256566" lon="1.723426">
        <ele>1219.160</ele>
        <time>2018-09-22T05:16:29Z</time>
      </trkpt>
      <trkpt lat="42.256622" lon="1.723421">
        <ele>1221.322</ele>
        <time>2018-09-22T05:16:31Z</time>
      </trkpt>
      <trkpt lat="42.256720" lon="1.723393">
        <ele>1220.914</ele>
        <time>2018-09-22T05:16:36Z</time>
      </trkpt>
      <trkpt lat="42.256744" lon="1.723375">
        <ele>1220.239</ele>
        <time>2018-09-22T05:16:38Z</time>
      </trkpt>
      <trkpt lat="42.256768" lon="1.723336">
        <ele>1220.901</ele>
        <time>2018-09-22T05:16:40Z</time>
      </trkpt>
      <trkpt lat="42.256792" lon="1.723260">
        <ele>1224.321</ele>
        <time>2018-09-22T05:16:43Z</time>
      </trkpt>
      <trkpt lat="42.256819" lon="1.723178">
        <ele>1228.008</ele>
        <time>2018-09-22T05:16:46Z</time>
      </trkpt>
      <trkpt lat="42.256835" lon="1.723110">
        <ele>1231.455</ele>
        <time>2018-09-22T05:16:49Z</time>
      </trkpt>
      <trkpt lat="42.256842" lon="1.723098">
        <ele>1231.831</ele>
        <time>2018-09-22T05:16:50Z</time>
      </trkpt>
      <trkpt lat="42.256927" lon="1.723046">
        <ele>1230.982</ele>
        <time>2018-09-22T05:16:55Z</time>
      </trkpt>
      <trkpt lat="42.256949" lon="1.723039">
        <ele>1230.596</ele>
        <time>2018-09-22T05:16:56Z</time>
      </trkpt>
      <trkpt lat="42.257055" lon="1.723047">
        <ele>1223.382</ele>
        <time>2018-09-22T05:16:59Z</time>
      </trkpt>
      <trkpt lat="42.257231" lon="1.722999">
        <ele>1216.372</ele>
        <time>2018-09-22T05:17:05Z</time>
      </trkpt>
      <trkpt lat="42.257356" lon="1.722968">
        <ele>1214.564</ele>
        <time>2018-09-22T05:17:11Z</time>
      </trkpt>
      <trkpt lat="42.257402" lon="1.722951">
        <ele>1214.026</ele>
        <time>2018-09-22T05:17:13Z</time>
      </trkpt>
      <trkpt lat="42.257505" lon="1.722875">
        <ele>1215.279</ele>
        <time>2018-09-22T05:17:18Z</time>
      </trkpt>
      <trkpt lat="42.257634" lon="1.722830">
        <ele>1213.105</ele>
        <time>2018-09-22T05:17:24Z</time>
      </trkpt>
      <trkpt lat="42.257698" lon="1.722819">
        <ele>1211.125</ele>
        <time>2018-09-22T05:17:27Z</time>
      </trkpt>
      <trkpt lat="42.257755" lon="1.722774">
        <ele>1210.108</ele>
        <time>2018-09-22T05:17:30Z</time>
      </trkpt>
      <trkpt lat="42.257797" lon="1.722759">
        <ele>1209.459</ele>
        <time>2018-09-22T05:17:32Z</time>
      </trkpt>
      <trkpt lat="42.257831" lon="1.722737">
        <ele>1209.675</ele>
        <time>2018-09-22T05:17:34Z</time>
      </trkpt>
      <trkpt lat="42.257852" lon="1.722707">
        <ele>1210.366</ele>
        <time>2018-09-22T05:17:36Z</time>
      </trkpt>
      <trkpt lat="42.257877" lon="1.722681">
        <ele>1210.670</ele>
        <time>2018-09-22T05:17:38Z</time>
      </trkpt>
      <trkpt lat="42.257889" lon="1.722675">
        <ele>1210.556</ele>
        <time>2018-09-22T05:17:39Z</time>
      </trkpt>
      <trkpt lat="42.257900" lon="1.722675">
        <ele>1210.376</ele>
        <time>2018-09-22T05:17:40Z</time>
      </trkpt>
      <trkpt lat="42.257925" lon="1.722695">
        <ele>1209.248</ele>
        <time>2018-09-22T05:17:42Z</time>
      </trkpt>
      <trkpt lat="42.257956" lon="1.722727">
        <ele>1207.770</ele>
        <time>2018-09-22T05:17:45Z</time>
      </trkpt>
      <trkpt lat="42.257963" lon="1.722732">
        <ele>1207.426</ele>
        <time>2018-09-22T05:17:46Z</time>
      </trkpt>
      <trkpt lat="42.257989" lon="1.722747">
        <ele>1206.647</ele>
        <time>2018-09-22T05:17:49Z</time>
      </trkpt>
      <trkpt lat="42.258000" lon="1.722767">
        <ele>1206.011</ele>
        <time>2018-09-22T05:17:51Z</time>
      </trkpt>
      <trkpt lat="42.258012" lon="1.722780">
        <ele>1205.608</ele>
        <time>2018-09-22T05:17:53Z</time>
      </trkpt>
      <trkpt lat="42.258025" lon="1.722788">
        <ele>1205.584</ele>
        <time>2018-09-22T05:17:55Z</time>
      </trkpt>
      <trkpt lat="42.258031" lon="1.722814">
        <ele>1205.810</ele>
        <time>2018-09-22T05:17:57Z</time>
      </trkpt>
      <trkpt lat="42.258031" lon="1.722828">
        <ele>1206.051</ele>
        <time>2018-09-22T05:17:58Z</time>
      </trkpt>
      <trkpt lat="42.258027" lon="1.722840">
        <ele>1206.245</ele>
        <time>2018-09-22T05:17:59Z</time>
      </trkpt>
      <trkpt lat="42.258024" lon="1.722847">
        <ele>1206.351</ele>
        <time>2018-09-22T05:18:01Z</time>
      </trkpt>
      <trkpt lat="42.258105" lon="1.722803">
        <ele>1205.931</ele>
        <time>2018-09-22T05:18:29Z</time>
      </trkpt>
      <trkpt lat="42.258104" lon="1.722802">
        <ele>1205.953</ele>
        <time>2018-09-22T05:18:32Z</time>
      </trkpt>
      <trkpt lat="42.258106" lon="1.722802">
        <ele>1205.955</ele>
        <time>2018-09-22T05:18:34Z</time>
      </trkpt>
      <trkpt lat="42.258109" lon="1.722820">
        <ele>1206.357</ele>
        <time>2018-09-22T05:18:37Z</time>
      </trkpt>
      <trkpt lat="42.258098" lon="1.722844">
        <ele>1206.600</ele>
        <time>2018-09-22T05:18:41Z</time>
      </trkpt>
      <trkpt lat="42.258038" lon="1.722933">
        <ele>1207.620</ele>
        <time>2018-09-22T05:18:59Z</time>
      </trkpt>
      <trkpt lat="42.258009" lon="1.723000">
        <ele>1208.108</ele>
        <time>2018-09-22T05:19:04Z</time>
      </trkpt>
      <trkpt lat="42.257999" lon="1.723016">
        <ele>1208.127</ele>
        <time>2018-09-22T05:19:06Z</time>
      </trkpt>
      <trkpt lat="42.257997" lon="1.723025">
        <ele>1208.293</ele>
        <time>2018-09-22T05:19:07Z</time>
      </trkpt>
      <trkpt lat="42.257993" lon="1.723038">
        <ele>1208.214</ele>
        <time>2018-09-22T05:19:08Z</time>
      </trkpt>
      <trkpt lat="42.257992" lon="1.723052">
        <ele>1208.368</ele>
        <time>2018-09-22T05:19:09Z</time>
      </trkpt>
      <trkpt lat="42.257992" lon="1.723070">
        <ele>1208.734</ele>
        <time>2018-09-22T05:19:11Z</time>
      </trkpt>
      <trkpt lat="42.257963" lon="1.723100">
        <ele>1208.674</ele>
        <time>2018-09-22T05:19:16Z</time>
      </trkpt>
      <trkpt lat="42.257955" lon="1.723106">
        <ele>1208.646</ele>
        <time>2018-09-22T05:19:17Z</time>
      </trkpt>
      <trkpt lat="42.257940" lon="1.723126">
        <ele>1208.738</ele>
        <time>2018-09-22T05:19:19Z</time>
      </trkpt>
      <trkpt lat="42.257938" lon="1.723140">
        <ele>1208.946</ele>
        <time>2018-09-22T05:19:20Z</time>
      </trkpt>
      <trkpt lat="42.257930" lon="1.723153">
        <ele>1209.088</ele>
        <time>2018-09-22T05:19:22Z</time>
      </trkpt>
      <trkpt lat="42.257929" lon="1.723161">
        <ele>1209.216</ele>
        <time>2018-09-22T05:19:23Z</time>
      </trkpt>
      <trkpt lat="42.257934" lon="1.723181">
        <ele>1209.808</ele>
        <time>2018-09-22T05:19:25Z</time>
      </trkpt>
      <trkpt lat="42.257949" lon="1.723205">
        <ele>1210.796</ele>
        <time>2018-09-22T05:19:28Z</time>
      </trkpt>
      <trkpt lat="42.257959" lon="1.723211">
        <ele>1211.192</ele>
        <time>2018-09-22T05:19:30Z</time>
      </trkpt>
      <trkpt lat="42.257969" lon="1.723217">
        <ele>1211.423</ele>
        <time>2018-09-22T05:19:31Z</time>
      </trkpt>
      <trkpt lat="42.258001" lon="1.723241">
        <ele>1212.787</ele>
        <time>2018-09-22T05:19:34Z</time>
      </trkpt>
      <trkpt lat="42.258005" lon="1.723253">
        <ele>1213.113</ele>
        <time>2018-09-22T05:19:35Z</time>
      </trkpt>
      <trkpt lat="42.258017" lon="1.723287">
        <ele>1214.173</ele>
        <time>2018-09-22T05:19:38Z</time>
      </trkpt>
      <trkpt lat="42.258019" lon="1.723303">
        <ele>1214.595</ele>
        <time>2018-09-22T05:19:39Z</time>
      </trkpt>
      <trkpt lat="42.258045" lon="1.723365">
        <ele>1216.747</ele>
        <time>2018-09-22T05:19:43Z</time>
      </trkpt>
      <trkpt lat="42.258061" lon="1.723388">
        <ele>1217.556</ele>
        <time>2018-09-22T05:19:45Z</time>
      </trkpt>
      <trkpt lat="42.258070" lon="1.723398">
        <ele>1217.859</ele>
        <time>2018-09-22T05:19:46Z</time>
      </trkpt>
      <trkpt lat="42.258104" lon="1.723444">
        <ele>1219.214</ele>
        <time>2018-09-22T05:19:51Z</time>
      </trkpt>
      <trkpt lat="42.258114" lon="1.723446">
        <ele>1219.208</ele>
        <time>2018-09-22T05:19:53Z</time>
      </trkpt>
      <trkpt lat="42.258137" lon="1.723455">
        <ele>1219.557</ele>
        <time>2018-09-22T05:19:55Z</time>
      </trkpt>
      <trkpt lat="42.258155" lon="1.723499">
        <ele>1220.673</ele>
        <time>2018-09-22T05:19:59Z</time>
      </trkpt>
      <trkpt lat="42.258156" lon="1.723506">
        <ele>1220.824</ele>
        <time>2018-09-22T05:20:00Z</time>
      </trkpt>
      <trkpt lat="42.258161" lon="1.723529">
        <ele>1221.498</ele>
        <time>2018-09-22T05:20:02Z</time>
      </trkpt>
      <trkpt lat="42.258170" lon="1.723550">
        <ele>1222.024</ele>
        <time>2018-09-22T05:20:04Z</time>
      </trkpt>
      <trkpt lat="42.258177" lon="1.723564">
        <ele>1222.314</ele>
        <time>2018-09-22T05:20:06Z</time>
      </trkpt>
      <trkpt lat="42.258183" lon="1.723571">
        <ele>1222.516</ele>
        <time>2018-09-22T05:20:07Z</time>
      </trkpt>
      <trkpt lat="42.258184" lon="1.723611">
        <ele>1223.518</ele>
        <time>2018-09-22T05:20:10Z</time>
      </trkpt>
      <trkpt lat="42.258169" lon="1.723623">
        <ele>1224.028</ele>
        <time>2018-09-22T05:20:12Z</time>
      </trkpt>
      <trkpt lat="42.258152" lon="1.723627">
        <ele>1224.289</ele>
        <time>2018-09-22T05:20:14Z</time>
      </trkpt>
      <trkpt lat="42.258138" lon="1.723653">
        <ele>1225.217</ele>
        <time>2018-09-22T05:20:16Z</time>
      </trkpt>
      <trkpt lat="42.258127" lon="1.723679">
        <ele>1226.208</ele>
        <time>2018-09-22T05:20:18Z</time>
      </trkpt>
      <trkpt lat="42.258120" lon="1.723692">
        <ele>1226.844</ele>
        <time>2018-09-22T05:20:19Z</time>
      </trkpt>
      <trkpt lat="42.258112" lon="1.723702">
        <ele>1227.270</ele>
        <time>2018-09-22T05:20:20Z</time>
      </trkpt>
      <trkpt lat="42.258081" lon="1.723723">
        <ele>1228.261</ele>
        <time>2018-09-22T05:20:23Z</time>
      </trkpt>
      <trkpt lat="42.258078" lon="1.723727">
        <ele>1228.425</ele>
        <time>2018-09-22T05:20:24Z</time>
      </trkpt>
      <trkpt lat="42.258074" lon="1.723732">
        <ele>1228.641</ele>
        <time>2018-09-22T05:20:26Z</time>
      </trkpt>
      <trkpt lat="42.258071" lon="1.723745">
        <ele>1229.171</ele>
        <time>2018-09-22T05:20:27Z</time>
      </trkpt>
      <trkpt lat="42.258061" lon="1.723753">
        <ele>1229.583</ele>
        <time>2018-09-22T05:20:28Z</time>
      </trkpt>
      <trkpt lat="42.258037" lon="1.723778">
        <ele>1230.215</ele>
        <time>2018-09-22T05:20:31Z</time>
      </trkpt>
      <trkpt lat="42.258023" lon="1.723790">
        <ele>1230.479</ele>
        <time>2018-09-22T05:20:32Z</time>
      </trkpt>
      <trkpt lat="42.257980" lon="1.723813">
        <ele>1230.505</ele>
        <time>2018-09-22T05:20:35Z</time>
      </trkpt>
      <trkpt lat="42.257947" lon="1.723833">
        <ele>1230.725</ele>
        <time>2018-09-22T05:20:38Z</time>
      </trkpt>
      <trkpt lat="42.257910" lon="1.723846">
        <ele>1230.608</ele>
        <time>2018-09-22T05:20:41Z</time>
      </trkpt>
      <trkpt lat="42.257891" lon="1.723893">
        <ele>1232.129</ele>
        <time>2018-09-22T05:20:46Z</time>
      </trkpt>
      <trkpt lat="42.257877" lon="1.723909">
        <ele>1232.275</ele>
        <time>2018-09-22T05:20:48Z</time>
      </trkpt>
      <trkpt lat="42.257867" lon="1.723915">
        <ele>1232.226</ele>
        <time>2018-09-22T05:20:49Z</time>
      </trkpt>
      <trkpt lat="42.257820" lon="1.723952">
        <ele>1232.370</ele>
        <time>2018-09-22T05:20:53Z</time>
      </trkpt>
      <trkpt lat="42.257801" lon="1.724008">
        <ele>1233.366</ele>
        <time>2018-09-22T05:20:57Z</time>
      </trkpt>
      <trkpt lat="42.257797" lon="1.724018">
        <ele>1233.596</ele>
        <time>2018-09-22T05:20:58Z</time>
      </trkpt>
      <trkpt lat="42.257788" lon="1.724037">
        <ele>1233.858</ele>
        <time>2018-09-22T05:21:00Z</time>
      </trkpt>
      <trkpt lat="42.257775" lon="1.724062">
        <ele>1234.250</ele>
        <time>2018-09-22T05:21:02Z</time>
      </trkpt>
      <trkpt lat="42.257767" lon="1.724073">
        <ele>1234.144</ele>
        <time>2018-09-22T05:21:03Z</time>
      </trkpt>
      <trkpt lat="42.257768" lon="1.724080">
        <ele>1234.405</ele>
        <time>2018-09-22T05:21:04Z</time>
      </trkpt>
      <trkpt lat="42.257774" lon="1.724084">
        <ele>1234.715</ele>
        <time>2018-09-22T05:21:05Z</time>
      </trkpt>
      <trkpt lat="42.257779" lon="1.724087">
        <ele>1235.008</ele>
        <time>2018-09-22T05:21:06Z</time>
      </trkpt>
      <trkpt lat="42.257791" lon="1.724094">
        <ele>1235.346</ele>
        <time>2018-09-22T05:21:07Z</time>
      </trkpt>
      <trkpt lat="42.257803" lon="1.724099">
        <ele>1235.682</ele>
        <time>2018-09-22T05:21:08Z</time>
      </trkpt>
      <trkpt lat="42.257831" lon="1.724107">
        <ele>1236.343</ele>
        <time>2018-09-22T05:21:10Z</time>
      </trkpt>
      <trkpt lat="42.257876" lon="1.724123">
        <ele>1237.387</ele>
        <time>2018-09-22T05:21:15Z</time>
      </trkpt>
      <trkpt lat="42.257891" lon="1.724149">
        <ele>1238.263</ele>
        <time>2018-09-22T05:21:18Z</time>
      </trkpt>
      <trkpt lat="42.257895" lon="1.724166">
        <ele>1238.653</ele>
        <time>2018-09-22T05:21:19Z</time>
      </trkpt>
      <trkpt lat="42.257882" lon="1.724219">
        <ele>1239.295</ele>
        <time>2018-09-22T05:21:23Z</time>
      </trkpt>
      <trkpt lat="42.257876" lon="1.724244">
        <ele>1239.547</ele>
        <time>2018-09-22T05:21:25Z</time>
      </trkpt>
      <trkpt lat="42.257874" lon="1.724258">
        <ele>1239.632</ele>
        <time>2018-09-22T05:21:26Z</time>
      </trkpt>
      <trkpt lat="42.257874" lon="1.724268">
        <ele>1239.892</ele>
        <time>2018-09-22T05:21:27Z</time>
      </trkpt>
      <trkpt lat="42.257868" lon="1.724271">
        <ele>1239.811</ele>
        <time>2018-09-22T05:21:28Z</time>
      </trkpt>
      <trkpt lat="42.257853" lon="1.724286">
        <ele>1239.808</ele>
        <time>2018-09-22T05:21:33Z</time>
      </trkpt>
      <trkpt lat="42.257850" lon="1.724299">
        <ele>1239.975</ele>
        <time>2018-09-22T05:21:36Z</time>
      </trkpt>
      <trkpt lat="42.257859" lon="1.724287">
        <ele>1239.951</ele>
        <time>2018-09-22T05:21:41Z</time>
      </trkpt>
      <trkpt lat="42.257878" lon="1.724285">
        <ele>1240.142</ele>
        <time>2018-09-22T05:21:43Z</time>
      </trkpt>
      <trkpt lat="42.257915" lon="1.724269">
        <ele>1240.436</ele>
        <time>2018-09-22T05:21:46Z</time>
      </trkpt>
      <trkpt lat="42.257986" lon="1.724220">
        <ele>1240.792</ele>
        <time>2018-09-22T05:21:52Z</time>
      </trkpt>
      <trkpt lat="42.258009" lon="1.724196">
        <ele>1240.742</ele>
        <time>2018-09-22T05:21:54Z</time>
      </trkpt>
      <trkpt lat="42.258032" lon="1.724179">
        <ele>1240.894</ele>
        <time>2018-09-22T05:21:56Z</time>
      </trkpt>
      <trkpt lat="42.258066" lon="1.724169">
        <ele>1240.826</ele>
        <time>2018-09-22T05:21:58Z</time>
      </trkpt>
      <trkpt lat="42.258119" lon="1.724173">
        <ele>1240.122</ele>
        <time>2018-09-22T05:22:01Z</time>
      </trkpt>
      <trkpt lat="42.258134" lon="1.724169">
        <ele>1239.962</ele>
        <time>2018-09-22T05:22:02Z</time>
      </trkpt>
      <trkpt lat="42.258279" lon="1.724230">
        <ele>1239.208</ele>
        <time>2018-09-22T05:22:10Z</time>
      </trkpt>
      <trkpt lat="42.258308" lon="1.724274">
        <ele>1239.908</ele>
        <time>2018-09-22T05:22:13Z</time>
      </trkpt>
      <trkpt lat="42.258317" lon="1.724291">
        <ele>1240.234</ele>
        <time>2018-09-22T05:22:14Z</time>
      </trkpt>
      <trkpt lat="42.258379" lon="1.724348">
        <ele>1241.640</ele>
        <time>2018-09-22T05:22:18Z</time>
      </trkpt>
      <trkpt lat="42.258386" lon="1.724377">
        <ele>1242.481</ele>
        <time>2018-09-22T05:22:21Z</time>
      </trkpt>
      <trkpt lat="42.258399" lon="1.724399">
        <ele>1243.025</ele>
        <time>2018-09-22T05:22:23Z</time>
      </trkpt>
      <trkpt lat="42.258425" lon="1.724403">
        <ele>1243.181</ele>
        <time>2018-09-22T05:22:25Z</time>
      </trkpt>
      <trkpt lat="42.258525" lon="1.724373">
        <ele>1242.571</ele>
        <time>2018-09-22T05:22:30Z</time>
      </trkpt>
      <trkpt lat="42.258631" lon="1.724306">
        <ele>1240.753</ele>
        <time>2018-09-22T05:22:36Z</time>
      </trkpt>
      <trkpt lat="42.258727" lon="1.724315">
        <ele>1242.045</ele>
        <time>2018-09-22T05:22:41Z</time>
      </trkpt>
      <trkpt lat="42.258813" lon="1.724288">
        <ele>1242.164</ele>
        <time>2018-09-22T05:22:45Z</time>
      </trkpt>
      <trkpt lat="42.258848" lon="1.724260">
        <ele>1241.506</ele>
        <time>2018-09-22T05:22:47Z</time>
      </trkpt>
      <trkpt lat="42.258882" lon="1.724232">
        <ele>1241.016</ele>
        <time>2018-09-22T05:22:51Z</time>
      </trkpt>
      <trkpt lat="42.258910" lon="1.724235">
        <ele>1241.508</ele>
        <time>2018-09-22T05:22:53Z</time>
      </trkpt>
      <trkpt lat="42.258969" lon="1.724263">
        <ele>1243.478</ele>
        <time>2018-09-22T05:22:57Z</time>
      </trkpt>
      <trkpt lat="42.258983" lon="1.724262">
        <ele>1243.654</ele>
        <time>2018-09-22T05:22:58Z</time>
      </trkpt>
      <trkpt lat="42.258997" lon="1.724260">
        <ele>1243.835</ele>
        <time>2018-09-22T05:22:59Z</time>
      </trkpt>
      <trkpt lat="42.259021" lon="1.724249">
        <ele>1243.849</ele>
        <time>2018-09-22T05:23:01Z</time>
      </trkpt>
      <trkpt lat="42.259030" lon="1.724243">
        <ele>1243.735</ele>
        <time>2018-09-22T05:23:02Z</time>
      </trkpt>
      <trkpt lat="42.259044" lon="1.724237">
        <ele>1243.795</ele>
        <time>2018-09-22T05:23:03Z</time>
      </trkpt>
      <trkpt lat="42.259236" lon="1.724164">
        <ele>1243.157</ele>
        <time>2018-09-22T05:23:14Z</time>
      </trkpt>
      <trkpt lat="42.259359" lon="1.724157">
        <ele>1243.369</ele>
        <time>2018-09-22T05:23:20Z</time>
      </trkpt>
      <trkpt lat="42.259443" lon="1.724190">
        <ele>1244.727</ele>
        <time>2018-09-22T05:23:24Z</time>
      </trkpt>
      <trkpt lat="42.259579" lon="1.724341">
        <ele>1247.268</ele>
        <time>2018-09-22T05:23:31Z</time>
      </trkpt>
      <trkpt lat="42.259661" lon="1.724388">
        <ele>1246.914</ele>
        <time>2018-09-22T05:23:34Z</time>
      </trkpt>
      <trkpt lat="42.259781" lon="1.724467">
        <ele>1246.608</ele>
        <time>2018-09-22T05:23:41Z</time>
      </trkpt>
      <trkpt lat="42.259853" lon="1.724520">
        <ele>1246.884</ele>
        <time>2018-09-22T05:23:46Z</time>
      </trkpt>
      <trkpt lat="42.260040" lon="1.724586">
        <ele>1246.330</ele>
        <time>2018-09-22T05:23:55Z</time>
      </trkpt>
      <trkpt lat="42.260189" lon="1.724637">
        <ele>1246.621</ele>
        <time>2018-09-22T05:24:01Z</time>
      </trkpt>
      <trkpt lat="42.260380" lon="1.724711">
        <ele>1247.735</ele>
        <time>2018-09-22T05:24:10Z</time>
      </trkpt>
      <trkpt lat="42.260401" lon="1.724720">
        <ele>1247.991</ele>
        <time>2018-09-22T05:24:11Z</time>
      </trkpt>
      <trkpt lat="42.260529" lon="1.724758">
        <ele>1249.061</ele>
        <time>2018-09-22T05:24:17Z</time>
      </trkpt>
      <trkpt lat="42.260640" lon="1.724809">
        <ele>1250.623</ele>
        <time>2018-09-22T05:24:24Z</time>
      </trkpt>
      <trkpt lat="42.260666" lon="1.724813">
        <ele>1250.745</ele>
        <time>2018-09-22T05:24:27Z</time>
      </trkpt>
      <trkpt lat="42.260681" lon="1.724821">
        <ele>1250.979</ele>
        <time>2018-09-22T05:24:28Z</time>
      </trkpt>
      <trkpt lat="42.260717" lon="1.724846">
        <ele>1251.405</ele>
        <time>2018-09-22T05:24:31Z</time>
      </trkpt>
      <trkpt lat="42.260750" lon="1.724893">
        <ele>1252.125</ele>
        <time>2018-09-22T05:24:34Z</time>
      </trkpt>
      <trkpt lat="42.260793" lon="1.724973">
        <ele>1253.008</ele>
        <time>2018-09-22T05:24:40Z</time>
      </trkpt>
      <trkpt lat="42.260805" lon="1.724997">
        <ele>1253.229</ele>
        <time>2018-09-22T05:24:42Z</time>
      </trkpt>
      <trkpt lat="42.260850" lon="1.725041">
        <ele>1254.465</ele>
        <time>2018-09-22T05:24:46Z</time>
      </trkpt>
      <trkpt lat="42.260860" lon="1.725049">
        <ele>1254.756</ele>
        <time>2018-09-22T05:24:47Z</time>
      </trkpt>
      <trkpt lat="42.260904" lon="1.725065">
        <ele>1255.610</ele>
        <time>2018-09-22T05:24:51Z</time>
      </trkpt>
      <trkpt lat="42.260969" lon="1.725075">
        <ele>1256.526</ele>
        <time>2018-09-22T05:24:56Z</time>
      </trkpt>
      <trkpt lat="42.261008" lon="1.725147">
        <ele>1257.796</ele>
        <time>2018-09-22T05:25:02Z</time>
      </trkpt>
      <trkpt lat="42.261043" lon="1.725231">
        <ele>1258.468</ele>
        <time>2018-09-22T05:25:08Z</time>
      </trkpt>
      <trkpt lat="42.261067" lon="1.725286">
        <ele>1258.640</ele>
        <time>2018-09-22T05:25:13Z</time>
      </trkpt>
      <trkpt lat="42.261066" lon="1.725299">
        <ele>1258.879</ele>
        <time>2018-09-22T05:25:14Z</time>
      </trkpt>
      <trkpt lat="42.261107" lon="1.725344">
        <ele>1258.805</ele>
        <time>2018-09-22T05:25:19Z</time>
      </trkpt>
      <trkpt lat="42.261138" lon="1.725444">
        <ele>1260.825</ele>
        <time>2018-09-22T05:25:25Z</time>
      </trkpt>
      <trkpt lat="42.261142" lon="1.725456">
        <ele>1261.008</ele>
        <time>2018-09-22T05:25:26Z</time>
      </trkpt>
      <trkpt lat="42.261161" lon="1.725509">
        <ele>1262.179</ele>
        <time>2018-09-22T05:25:30Z</time>
      </trkpt>
      <trkpt lat="42.261188" lon="1.725548">
        <ele>1263.185</ele>
        <time>2018-09-22T05:25:33Z</time>
      </trkpt>
      <trkpt lat="42.261226" lon="1.725600">
        <ele>1265.066</ele>
        <time>2018-09-22T05:25:37Z</time>
      </trkpt>
      <trkpt lat="42.261241" lon="1.725626">
        <ele>1265.820</ele>
        <time>2018-09-22T05:25:39Z</time>
      </trkpt>
      <trkpt lat="42.261246" lon="1.725642">
        <ele>1266.136</ele>
        <time>2018-09-22T05:25:41Z</time>
      </trkpt>
      <trkpt lat="42.261253" lon="1.725650">
        <ele>1266.456</ele>
        <time>2018-09-22T05:25:42Z</time>
      </trkpt>
      <trkpt lat="42.261282" lon="1.725710">
        <ele>1267.658</ele>
        <time>2018-09-22T05:25:46Z</time>
      </trkpt>
      <trkpt lat="42.261290" lon="1.725726">
        <ele>1267.890</ele>
        <time>2018-09-22T05:25:47Z</time>
      </trkpt>
      <trkpt lat="42.261317" lon="1.725811">
        <ele>1268.826</ele>
        <time>2018-09-22T05:25:52Z</time>
      </trkpt>
      <trkpt lat="42.261319" lon="1.725838">
        <ele>1269.047</ele>
        <time>2018-09-22T05:25:54Z</time>
      </trkpt>
      <trkpt lat="42.261318" lon="1.725862">
        <ele>1269.311</ele>
        <time>2018-09-22T05:25:56Z</time>
      </trkpt>
      <trkpt lat="42.261328" lon="1.725942">
        <ele>1270.308</ele>
        <time>2018-09-22T05:26:02Z</time>
      </trkpt>
      <trkpt lat="42.261353" lon="1.725945">
        <ele>1270.194</ele>
        <time>2018-09-22T05:26:05Z</time>
      </trkpt>
      <trkpt lat="42.261365" lon="1.725950">
        <ele>1270.070</ele>
        <time>2018-09-22T05:26:07Z</time>
      </trkpt>
      <trkpt lat="42.261399" lon="1.725978">
        <ele>1270.511</ele>
        <time>2018-09-22T05:26:11Z</time>
      </trkpt>
      <trkpt lat="42.261419" lon="1.725995">
        <ele>1271.645</ele>
        <time>2018-09-22T05:26:14Z</time>
      </trkpt>
      <trkpt lat="42.261431" lon="1.726008">
        <ele>1272.311</ele>
        <time>2018-09-22T05:26:16Z</time>
      </trkpt>
      <trkpt lat="42.261454" lon="1.726033">
        <ele>1273.711</ele>
        <time>2018-09-22T05:26:19Z</time>
      </trkpt>
      <trkpt lat="42.261462" lon="1.726062">
        <ele>1274.373</ele>
        <time>2018-09-22T05:26:21Z</time>
      </trkpt>
      <trkpt lat="42.261470" lon="1.726087">
        <ele>1274.855</ele>
        <time>2018-09-22T05:26:24Z</time>
      </trkpt>
      <trkpt lat="42.261477" lon="1.726092">
        <ele>1275.263</ele>
        <time>2018-09-22T05:26:25Z</time>
      </trkpt>
      <trkpt lat="42.261472" lon="1.726121">
        <ele>1275.244</ele>
        <time>2018-09-22T05:26:28Z</time>
      </trkpt>
      <trkpt lat="42.261463" lon="1.726175">
        <ele>1275.318</ele>
        <time>2018-09-22T05:26:32Z</time>
      </trkpt>
      <trkpt lat="42.261465" lon="1.726184">
        <ele>1275.508</ele>
        <time>2018-09-22T05:26:33Z</time>
      </trkpt>
      <trkpt lat="42.261468" lon="1.726212">
        <ele>1275.998</ele>
        <time>2018-09-22T05:26:36Z</time>
      </trkpt>
      <trkpt lat="42.261472" lon="1.726218">
        <ele>1276.234</ele>
        <time>2018-09-22T05:26:37Z</time>
      </trkpt>
      <trkpt lat="42.261514" lon="1.726279">
        <ele>1278.895</ele>
        <time>2018-09-22T05:26:41Z</time>
      </trkpt>
      <trkpt lat="42.261537" lon="1.726328">
        <ele>1280.399</ele>
        <time>2018-09-22T05:26:45Z</time>
      </trkpt>
      <trkpt lat="42.261541" lon="1.726340">
        <ele>1280.655</ele>
        <time>2018-09-22T05:26:46Z</time>
      </trkpt>
      <trkpt lat="42.261545" lon="1.726348">
        <ele>1280.975</ele>
        <time>2018-09-22T05:26:47Z</time>
      </trkpt>
      <trkpt lat="42.261565" lon="1.726371">
        <ele>1282.057</ele>
        <time>2018-09-22T05:26:50Z</time>
      </trkpt>
      <trkpt lat="42.261572" lon="1.726383">
        <ele>1282.529</ele>
        <time>2018-09-22T05:26:51Z</time>
      </trkpt>
      <trkpt lat="42.261577" lon="1.726395">
        <ele>1282.882</ele>
        <time>2018-09-22T05:26:52Z</time>
      </trkpt>
      <trkpt lat="42.261580" lon="1.726407">
        <ele>1283.043</ele>
        <time>2018-09-22T05:26:53Z</time>
      </trkpt>
      <trkpt lat="42.261576" lon="1.726431">
        <ele>1283.017</ele>
        <time>2018-09-22T05:26:55Z</time>
      </trkpt>
      <trkpt lat="42.261578" lon="1.726463">
        <ele>1283.208</ele>
        <time>2018-09-22T05:26:57Z</time>
      </trkpt>
      <trkpt lat="42.261587" lon="1.726504">
        <ele>1283.860</ele>
        <time>2018-09-22T05:27:00Z</time>
      </trkpt>
      <trkpt lat="42.261594" lon="1.726541">
        <ele>1284.376</ele>
        <time>2018-09-22T05:27:02Z</time>
      </trkpt>
      <trkpt lat="42.261616" lon="1.726598">
        <ele>1285.317</ele>
        <time>2018-09-22T05:27:06Z</time>
      </trkpt>
      <trkpt lat="42.261618" lon="1.726630">
        <ele>1285.441</ele>
        <time>2018-09-22T05:27:08Z</time>
      </trkpt>
      <trkpt lat="42.261612" lon="1.726712">
        <ele>1286.077</ele>
        <time>2018-09-22T05:27:14Z</time>
      </trkpt>
      <trkpt lat="42.261614" lon="1.726738">
        <ele>1286.377</ele>
        <time>2018-09-22T05:27:16Z</time>
      </trkpt>
      <trkpt lat="42.261628" lon="1.726752">
        <ele>1286.969</ele>
        <time>2018-09-22T05:27:18Z</time>
      </trkpt>
      <trkpt lat="42.261635" lon="1.726764">
        <ele>1287.241</ele>
        <time>2018-09-22T05:27:19Z</time>
      </trkpt>
      <trkpt lat="42.261644" lon="1.726775">
        <ele>1287.681</ele>
        <time>2018-09-22T05:27:20Z</time>
      </trkpt>
      <trkpt lat="42.261651" lon="1.726821">
        <ele>1288.361</ele>
        <time>2018-09-22T05:27:23Z</time>
      </trkpt>
      <trkpt lat="42.261655" lon="1.726845">
        <ele>1288.617</ele>
        <time>2018-09-22T05:27:25Z</time>
      </trkpt>
      <trkpt lat="42.261662" lon="1.726857">
        <ele>1288.908</ele>
        <time>2018-09-22T05:27:26Z</time>
      </trkpt>
      <trkpt lat="42.261666" lon="1.726869">
        <ele>1289.150</ele>
        <time>2018-09-22T05:27:27Z</time>
      </trkpt>
      <trkpt lat="42.261671" lon="1.726880">
        <ele>1289.666</ele>
        <time>2018-09-22T05:27:28Z</time>
      </trkpt>
      <trkpt lat="42.261676" lon="1.726925">
        <ele>1290.467</ele>
        <time>2018-09-22T05:27:31Z</time>
      </trkpt>
      <trkpt lat="42.261674" lon="1.726979">
        <ele>1291.081</ele>
        <time>2018-09-22T05:27:35Z</time>
      </trkpt>
      <trkpt lat="42.261677" lon="1.726992">
        <ele>1291.427</ele>
        <time>2018-09-22T05:27:36Z</time>
      </trkpt>
      <trkpt lat="42.261681" lon="1.727025">
        <ele>1292.297</ele>
        <time>2018-09-22T05:27:38Z</time>
      </trkpt>
      <trkpt lat="42.261689" lon="1.727055">
        <ele>1293.119</ele>
        <time>2018-09-22T05:27:41Z</time>
      </trkpt>
      <trkpt lat="42.261693" lon="1.727070">
        <ele>1293.791</ele>
        <time>2018-09-22T05:27:43Z</time>
      </trkpt>
      <trkpt lat="42.261692" lon="1.727081">
        <ele>1293.789</ele>
        <time>2018-09-22T05:27:44Z</time>
      </trkpt>
      <trkpt lat="42.261667" lon="1.727189">
        <ele>1293.506</ele>
        <time>2018-09-22T05:27:50Z</time>
      </trkpt>
      <trkpt lat="42.261667" lon="1.727207">
        <ele>1293.826</ele>
        <time>2018-09-22T05:27:51Z</time>
      </trkpt>
      <trkpt lat="42.261674" lon="1.727240">
        <ele>1294.608</ele>
        <time>2018-09-22T05:27:53Z</time>
      </trkpt>
      <trkpt lat="42.261677" lon="1.727254">
        <ele>1295.070</ele>
        <time>2018-09-22T05:27:54Z</time>
      </trkpt>
      <trkpt lat="42.261674" lon="1.727280">
        <ele>1295.026</ele>
        <time>2018-09-22T05:27:56Z</time>
      </trkpt>
      <trkpt lat="42.261671" lon="1.727323">
        <ele>1295.337</ele>
        <time>2018-09-22T05:27:59Z</time>
      </trkpt>
      <trkpt lat="42.261670" lon="1.727353">
        <ele>1295.621</ele>
        <time>2018-09-22T05:28:01Z</time>
      </trkpt>
      <trkpt lat="42.261684" lon="1.727398">
        <ele>1297.147</ele>
        <time>2018-09-22T05:28:06Z</time>
      </trkpt>
      <trkpt lat="42.261693" lon="1.727443">
        <ele>1298.157</ele>
        <time>2018-09-22T05:28:09Z</time>
      </trkpt>
      <trkpt lat="42.261702" lon="1.727464">
        <ele>1299.029</ele>
        <time>2018-09-22T05:28:11Z</time>
      </trkpt>
      <trkpt lat="42.261703" lon="1.727475">
        <ele>1299.251</ele>
        <time>2018-09-22T05:28:13Z</time>
      </trkpt>
      <trkpt lat="42.261700" lon="1.727545">
        <ele>1299.674</ele>
        <time>2018-09-22T05:28:18Z</time>
      </trkpt>
      <trkpt lat="42.261705" lon="1.727624">
        <ele>1300.656</ele>
        <time>2018-09-22T05:28:22Z</time>
      </trkpt>
      <trkpt lat="42.261702" lon="1.727656">
        <ele>1300.721</ele>
        <time>2018-09-22T05:28:24Z</time>
      </trkpt>
      <trkpt lat="42.261699" lon="1.727686">
        <ele>1300.808</ele>
        <time>2018-09-22T05:28:26Z</time>
      </trkpt>
      <trkpt lat="42.261703" lon="1.727693">
        <ele>1301.159</ele>
        <time>2018-09-22T05:28:27Z</time>
      </trkpt>
      <trkpt lat="42.261706" lon="1.727709">
        <ele>1301.475</ele>
        <time>2018-09-22T05:28:28Z</time>
      </trkpt>
      <trkpt lat="42.261705" lon="1.727739">
        <ele>1301.616</ele>
        <time>2018-09-22T05:28:30Z</time>
      </trkpt>
      <trkpt lat="42.261711" lon="1.727772">
        <ele>1302.180</ele>
        <time>2018-09-22T05:28:33Z</time>
      </trkpt>
      <trkpt lat="42.261713" lon="1.727792">
        <ele>1302.516</ele>
        <time>2018-09-22T05:28:35Z</time>
      </trkpt>
      <trkpt lat="42.261727" lon="1.727845">
        <ele>1303.946</ele>
        <time>2018-09-22T05:28:38Z</time>
      </trkpt>
      <trkpt lat="42.261737" lon="1.727884">
        <ele>1304.838</ele>
        <time>2018-09-22T05:28:40Z</time>
      </trkpt>
      <trkpt lat="42.261737" lon="1.727912">
        <ele>1305.290</ele>
        <time>2018-09-22T05:28:42Z</time>
      </trkpt>
      <trkpt lat="42.261748" lon="1.727937">
        <ele>1305.997</ele>
        <time>2018-09-22T05:28:45Z</time>
      </trkpt>
      <trkpt lat="42.261752" lon="1.727950">
        <ele>1306.223</ele>
        <time>2018-09-22T05:28:46Z</time>
      </trkpt>
      <trkpt lat="42.261740" lon="1.727982">
        <ele>1306.225</ele>
        <time>2018-09-22T05:28:49Z</time>
      </trkpt>
      <trkpt lat="42.261740" lon="1.727989">
        <ele>1306.208</ele>
        <time>2018-09-22T05:28:50Z</time>
      </trkpt>
      <trkpt lat="42.261739" lon="1.727997">
        <ele>1306.321</ele>
        <time>2018-09-22T05:28:51Z</time>
      </trkpt>
      <trkpt lat="42.261733" lon="1.728004">
        <ele>1306.267</ele>
        <time>2018-09-22T05:28:53Z</time>
      </trkpt>
      <trkpt lat="42.261727" lon="1.728018">
        <ele>1306.258</ele>
        <time>2018-09-22T05:28:54Z</time>
      </trkpt>
      <trkpt lat="42.261726" lon="1.728025">
        <ele>1306.392</ele>
        <time>2018-09-22T05:28:55Z</time>
      </trkpt>
      <trkpt lat="42.261727" lon="1.728042">
        <ele>1306.518</ele>
        <time>2018-09-22T05:28:57Z</time>
      </trkpt>
      <trkpt lat="42.261739" lon="1.728080">
        <ele>1307.458</ele>
        <time>2018-09-22T05:28:59Z</time>
      </trkpt>
      <trkpt lat="42.261747" lon="1.728090">
        <ele>1307.990</ele>
        <time>2018-09-22T05:29:00Z</time>
      </trkpt>
      <trkpt lat="42.261764" lon="1.728102">
        <ele>1308.522</ele>
        <time>2018-09-22T05:29:02Z</time>
      </trkpt>
      <trkpt lat="42.261788" lon="1.728128">
        <ele>1309.673</ele>
        <time>2018-09-22T05:29:04Z</time>
      </trkpt>
      <trkpt lat="42.261800" lon="1.728157">
        <ele>1310.485</ele>
        <time>2018-09-22T05:29:06Z</time>
      </trkpt>
      <trkpt lat="42.261805" lon="1.728169">
        <ele>1310.813</ele>
        <time>2018-09-22T05:29:07Z</time>
      </trkpt>
      <trkpt lat="42.261807" lon="1.728179">
        <ele>1311.008</ele>
        <time>2018-09-22T05:29:08Z</time>
      </trkpt>
      <trkpt lat="42.261819" lon="1.728197">
        <ele>1311.619</ele>
        <time>2018-09-22T05:29:10Z</time>
      </trkpt>
      <trkpt lat="42.261818" lon="1.728208">
        <ele>1311.755</ele>
        <time>2018-09-22T05:29:11Z</time>
      </trkpt>
      <trkpt lat="42.261834" lon="1.728235">
        <ele>1312.646</ele>
        <time>2018-09-22T05:29:15Z</time>
      </trkpt>
      <trkpt lat="42.261829" lon="1.728249">
        <ele>1312.770</ele>
        <time>2018-09-22T05:29:17Z</time>
      </trkpt>
      <trkpt lat="42.261810" lon="1.728247">
        <ele>1312.296</ele>
        <time>2018-09-22T05:29:20Z</time>
      </trkpt>
      <trkpt lat="42.261770" lon="1.728112">
        <ele>1308.976</ele>
        <time>2018-09-22T05:29:42Z</time>
      </trkpt>
      <trkpt lat="42.261747" lon="1.728111">
        <ele>1308.228</ele>
        <time>2018-09-22T05:29:47Z</time>
      </trkpt>
      <trkpt lat="42.261737" lon="1.728087">
        <ele>1307.550</ele>
        <time>2018-09-22T05:29:54Z</time>
      </trkpt>
      <trkpt lat="42.261799" lon="1.727960">
        <ele>1308.079</ele>
        <time>2018-09-22T05:30:17Z</time>
      </trkpt>
      <trkpt lat="42.261792" lon="1.727969">
        <ele>1307.805</ele>
        <time>2018-09-22T05:30:19Z</time>
      </trkpt>
      <trkpt lat="42.261782" lon="1.727992">
        <ele>1307.725</ele>
        <time>2018-09-22T05:30:21Z</time>
      </trkpt>
      <trkpt lat="42.261776" lon="1.728020">
        <ele>1307.808</ele>
        <time>2018-09-22T05:30:24Z</time>
      </trkpt>
      <trkpt lat="42.261760" lon="1.728055">
        <ele>1307.669</ele>
        <time>2018-09-22T05:30:27Z</time>
      </trkpt>
      <trkpt lat="42.261749" lon="1.728073">
        <ele>1307.635</ele>
        <time>2018-09-22T05:30:29Z</time>
      </trkpt>
      <trkpt lat="42.261767" lon="1.728146">
        <ele>1309.346</ele>
        <time>2018-09-22T05:30:33Z</time>
      </trkpt>
      <trkpt lat="42.261817" lon="1.728291">
        <ele>1313.120</ele>
        <time>2018-09-22T05:30:36Z</time>
      </trkpt>
      <trkpt lat="42.261819" lon="1.728359">
        <ele>1314.276</ele>
        <time>2018-09-22T05:30:39Z</time>
      </trkpt>
      <trkpt lat="42.261827" lon="1.728428">
        <ele>1315.416</ele>
        <time>2018-09-22T05:30:43Z</time>
      </trkpt>
      <trkpt lat="42.261829" lon="1.728447">
        <ele>1315.778</ele>
        <time>2018-09-22T05:30:44Z</time>
      </trkpt>
      <trkpt lat="42.261835" lon="1.728483">
        <ele>1316.390</ele>
        <time>2018-09-22T05:30:46Z</time>
      </trkpt>
      <trkpt lat="42.261849" lon="1.728543">
        <ele>1317.458</ele>
        <time>2018-09-22T05:30:49Z</time>
      </trkpt>
      <trkpt lat="42.261866" lon="1.728576">
        <ele>1318.052</ele>
        <time>2018-09-22T05:30:52Z</time>
      </trkpt>
      <trkpt lat="42.261878" lon="1.728594">
        <ele>1318.317</ele>
        <time>2018-09-22T05:30:54Z</time>
      </trkpt>
      <trkpt lat="42.261889" lon="1.728620">
        <ele>1318.708</ele>
        <time>2018-09-22T05:30:56Z</time>
      </trkpt>
      <trkpt lat="42.261927" lon="1.728653">
        <ele>1319.437</ele>
        <time>2018-09-22T05:31:00Z</time>
      </trkpt>
      <trkpt lat="42.261967" lon="1.728693">
        <ele>1320.753</ele>
        <time>2018-09-22T05:31:04Z</time>
      </trkpt>
      <trkpt lat="42.261987" lon="1.728736">
        <ele>1321.894</ele>
        <time>2018-09-22T05:31:07Z</time>
      </trkpt>
      <trkpt lat="42.262005" lon="1.728786">
        <ele>1323.068</ele>
        <time>2018-09-22T05:31:11Z</time>
      </trkpt>
      <trkpt lat="42.262007" lon="1.728793">
        <ele>1323.154</ele>
        <time>2018-09-22T05:31:12Z</time>
      </trkpt>
      <trkpt lat="42.262011" lon="1.728797">
        <ele>1323.334</ele>
        <time>2018-09-22T05:31:13Z</time>
      </trkpt>
      <trkpt lat="42.262021" lon="1.728795">
        <ele>1323.636</ele>
        <time>2018-09-22T05:31:16Z</time>
      </trkpt>
      <trkpt lat="42.262030" lon="1.728816">
        <ele>1324.118</ele>
        <time>2018-09-22T05:31:18Z</time>
      </trkpt>
      <trkpt lat="42.262042" lon="1.728836">
        <ele>1324.744</ele>
        <time>2018-09-22T05:31:20Z</time>
      </trkpt>
      <trkpt lat="42.262047" lon="1.728848">
        <ele>1324.905</ele>
        <time>2018-09-22T05:31:21Z</time>
      </trkpt>
      <trkpt lat="42.262061" lon="1.728889">
        <ele>1325.715</ele>
        <time>2018-09-22T05:31:24Z</time>
      </trkpt>
      <trkpt lat="42.262065" lon="1.728897">
        <ele>1326.008</ele>
        <time>2018-09-22T05:31:25Z</time>
      </trkpt>
      <trkpt lat="42.262073" lon="1.728908">
        <ele>1326.456</ele>
        <time>2018-09-22T05:31:27Z</time>
      </trkpt>
      <trkpt lat="42.262075" lon="1.728929">
        <ele>1326.762</ele>
        <time>2018-09-22T05:31:29Z</time>
      </trkpt>
      <trkpt lat="42.262099" lon="1.728961">
        <ele>1327.653</ele>
        <time>2018-09-22T05:31:34Z</time>
      </trkpt>
      <trkpt lat="42.262107" lon="1.728969">
        <ele>1327.897</ele>
        <time>2018-09-22T05:31:35Z</time>
      </trkpt>
      <trkpt lat="42.262137" lon="1.729015">
        <ele>1328.563</ele>
        <time>2018-09-22T05:31:38Z</time>
      </trkpt>
      <trkpt lat="42.262140" lon="1.729030">
        <ele>1328.693</ele>
        <time>2018-09-22T05:31:39Z</time>
      </trkpt>
      <trkpt lat="42.262149" lon="1.729061">
        <ele>1328.795</ele>
        <time>2018-09-22T05:31:41Z</time>
      </trkpt>
      <trkpt lat="42.262159" lon="1.729074">
        <ele>1328.717</ele>
        <time>2018-09-22T05:31:42Z</time>
      </trkpt>
      <trkpt lat="42.262167" lon="1.729079">
        <ele>1328.761</ele>
        <time>2018-09-22T05:31:43Z</time>
      </trkpt>
      <trkpt lat="42.262169" lon="1.729103">
        <ele>1328.721</ele>
        <time>2018-09-22T05:31:45Z</time>
      </trkpt>
      <trkpt lat="42.262180" lon="1.729123">
        <ele>1328.613</ele>
        <time>2018-09-22T05:31:47Z</time>
      </trkpt>
      <trkpt lat="42.262186" lon="1.729127">
        <ele>1328.508</ele>
        <time>2018-09-22T05:31:48Z</time>
      </trkpt>
      <trkpt lat="42.262191" lon="1.729140">
        <ele>1328.478</ele>
        <time>2018-09-22T05:31:49Z</time>
      </trkpt>
      <trkpt lat="42.262196" lon="1.729147">
        <ele>1328.444</ele>
        <time>2018-09-22T05:31:50Z</time>
      </trkpt>
      <trkpt lat="42.262200" lon="1.729153">
        <ele>1328.315</ele>
        <time>2018-09-22T05:31:51Z</time>
      </trkpt>
      <trkpt lat="42.262207" lon="1.729174">
        <ele>1328.379</ele>
        <time>2018-09-22T05:31:53Z</time>
      </trkpt>
      <trkpt lat="42.262235" lon="1.729224">
        <ele>1330.325</ele>
        <time>2018-09-22T05:31:57Z</time>
      </trkpt>
      <trkpt lat="42.262261" lon="1.729246">
        <ele>1332.225</ele>
        <time>2018-09-22T05:32:00Z</time>
      </trkpt>
      <trkpt lat="42.262275" lon="1.729261">
        <ele>1333.327</ele>
        <time>2018-09-22T05:32:02Z</time>
      </trkpt>
      <trkpt lat="42.262304" lon="1.729297">
        <ele>1335.589</ele>
        <time>2018-09-22T05:32:06Z</time>
      </trkpt>
      <trkpt lat="42.262308" lon="1.729326">
        <ele>1336.259</ele>
        <time>2018-09-22T05:32:08Z</time>
      </trkpt>
      <trkpt lat="42.262309" lon="1.729332">
        <ele>1336.303</ele>
        <time>2018-09-22T05:32:09Z</time>
      </trkpt>
      <trkpt lat="42.262325" lon="1.729337">
        <ele>1337.123</ele>
        <time>2018-09-22T05:32:12Z</time>
      </trkpt>
      <trkpt lat="42.262346" lon="1.729347">
        <ele>1338.108</ele>
        <time>2018-09-22T05:32:15Z</time>
      </trkpt>
      <trkpt lat="42.262355" lon="1.729344">
        <ele>1338.427</ele>
        <time>2018-09-22T05:32:16Z</time>
      </trkpt>
      <trkpt lat="42.262356" lon="1.729348">
        <ele>1338.573</ele>
        <time>2018-09-22T05:32:17Z</time>
      </trkpt>
      <trkpt lat="42.262366" lon="1.729364">
        <ele>1339.194</ele>
        <time>2018-09-22T05:32:22Z</time>
      </trkpt>
      <trkpt lat="42.262381" lon="1.729427">
        <ele>1340.498</ele>
        <time>2018-09-22T05:32:29Z</time>
      </trkpt>
      <trkpt lat="42.262394" lon="1.729445">
        <ele>1340.984</ele>
        <time>2018-09-22T05:32:32Z</time>
      </trkpt>
      <trkpt lat="42.262398" lon="1.729456">
        <ele>1341.294</ele>
        <time>2018-09-22T05:32:34Z</time>
      </trkpt>
      <trkpt lat="42.262420" lon="1.729512">
        <ele>1342.676</ele>
        <time>2018-09-22T05:32:40Z</time>
      </trkpt>
      <trkpt lat="42.262393" lon="1.729575">
        <ele>1343.168</ele>
        <time>2018-09-22T05:32:44Z</time>
      </trkpt>
      <trkpt lat="42.262403" lon="1.729614">
        <ele>1343.951</ele>
        <time>2018-09-22T05:32:47Z</time>
      </trkpt>
      <trkpt lat="42.262417" lon="1.729631">
        <ele>1344.201</ele>
        <time>2018-09-22T05:32:49Z</time>
      </trkpt>
      <trkpt lat="42.262423" lon="1.729675">
        <ele>1344.911</ele>
        <time>2018-09-22T05:32:52Z</time>
      </trkpt>
      <trkpt lat="42.262433" lon="1.729677">
        <ele>1344.908</ele>
        <time>2018-09-22T05:32:54Z</time>
      </trkpt>
      <trkpt lat="42.262452" lon="1.729674">
        <ele>1344.847</ele>
        <time>2018-09-22T05:32:57Z</time>
      </trkpt>
      <trkpt lat="42.262457" lon="1.729672">
        <ele>1344.883</ele>
        <time>2018-09-22T05:32:58Z</time>
      </trkpt>
      <trkpt lat="42.262484" lon="1.729664">
        <ele>1344.774</ele>
        <time>2018-09-22T05:33:01Z</time>
      </trkpt>
      <trkpt lat="42.262498" lon="1.729670">
        <ele>1344.898</ele>
        <time>2018-09-22T05:33:03Z</time>
      </trkpt>
      <trkpt lat="42.262499" lon="1.729686">
        <ele>1344.884</ele>
        <time>2018-09-22T05:33:05Z</time>
      </trkpt>
      <trkpt lat="42.262498" lon="1.729689">
        <ele>1344.884</ele>
        <time>2018-09-22T05:33:06Z</time>
      </trkpt>
      <trkpt lat="42.262501" lon="1.729700">
        <ele>1344.986</ele>
        <time>2018-09-22T05:33:09Z</time>
      </trkpt>
      <trkpt lat="42.262507" lon="1.729706">
        <ele>1345.368</ele>
        <time>2018-09-22T05:33:10Z</time>
      </trkpt>
      <trkpt lat="42.262522" lon="1.729728">
        <ele>1346.583</ele>
        <time>2018-09-22T05:33:13Z</time>
      </trkpt>
      <trkpt lat="42.262532" lon="1.729792">
        <ele>1347.825</ele>
        <time>2018-09-22T05:33:16Z</time>
      </trkpt>
      <trkpt lat="42.262544" lon="1.729817">
        <ele>1348.717</ele>
        <time>2018-09-22T05:33:19Z</time>
      </trkpt>
      <trkpt lat="42.262536" lon="1.729877">
        <ele>1348.908</ele>
        <time>2018-09-22T05:33:22Z</time>
      </trkpt>
      <trkpt lat="42.262546" lon="1.729910">
        <ele>1349.720</ele>
        <time>2018-09-22T05:33:24Z</time>
      </trkpt>
      <trkpt lat="42.262556" lon="1.729930">
        <ele>1350.496</ele>
        <time>2018-09-22T05:33:26Z</time>
      </trkpt>
      <trkpt lat="42.262581" lon="1.729979">
        <ele>1351.767</ele>
        <time>2018-09-22T05:33:29Z</time>
      </trkpt>
      <trkpt lat="42.262583" lon="1.729995">
        <ele>1351.941</ele>
        <time>2018-09-22T05:33:30Z</time>
      </trkpt>
      <trkpt lat="42.262599" lon="1.730036">
        <ele>1353.267</ele>
        <time>2018-09-22T05:33:33Z</time>
      </trkpt>
      <trkpt lat="42.262613" lon="1.730055">
        <ele>1353.987</ele>
        <time>2018-09-22T05:33:36Z</time>
      </trkpt>
      <trkpt lat="42.262628" lon="1.730074">
        <ele>1354.579</ele>
        <time>2018-09-22T05:33:40Z</time>
      </trkpt>
      <trkpt lat="42.262660" lon="1.730108">
        <ele>1355.441</ele>
        <time>2018-09-22T05:33:44Z</time>
      </trkpt>
      <trkpt lat="42.262670" lon="1.730128">
        <ele>1355.628</ele>
        <time>2018-09-22T05:33:46Z</time>
      </trkpt>
      <trkpt lat="42.262681" lon="1.730160">
        <ele>1355.889</ele>
        <time>2018-09-22T05:33:48Z</time>
      </trkpt>
      <trkpt lat="42.262690" lon="1.730171">
        <ele>1355.817</ele>
        <time>2018-09-22T05:33:49Z</time>
      </trkpt>
      <trkpt lat="42.262729" lon="1.730221">
        <ele>1355.508</ele>
        <time>2018-09-22T05:33:54Z</time>
      </trkpt>
      <trkpt lat="42.262758" lon="1.730250">
        <ele>1354.824</ele>
        <time>2018-09-22T05:33:58Z</time>
      </trkpt>
      <trkpt lat="42.262789" lon="1.730254">
        <ele>1354.760</ele>
        <time>2018-09-22T05:34:01Z</time>
      </trkpt>
      <trkpt lat="42.262807" lon="1.730253">
        <ele>1355.381</ele>
        <time>2018-09-22T05:34:03Z</time>
      </trkpt>
      <trkpt lat="42.262878" lon="1.730220">
        <ele>1358.325</ele>
        <time>2018-09-22T05:34:09Z</time>
      </trkpt>
      <trkpt lat="42.262904" lon="1.730226">
        <ele>1359.051</ele>
        <time>2018-09-22T05:34:11Z</time>
      </trkpt>
      <trkpt lat="42.262912" lon="1.730227">
        <ele>1359.341</ele>
        <time>2018-09-22T05:34:12Z</time>
      </trkpt>
      <trkpt lat="42.262932" lon="1.730242">
        <ele>1359.593</ele>
        <time>2018-09-22T05:34:14Z</time>
      </trkpt>
      <trkpt lat="42.262963" lon="1.730317">
        <ele>1359.765</ele>
        <time>2018-09-22T05:34:20Z</time>
      </trkpt>
      <trkpt lat="42.263009" lon="1.730360">
        <ele>1360.943</ele>
        <time>2018-09-22T05:34:25Z</time>
      </trkpt>
      <trkpt lat="42.263066" lon="1.730406">
        <ele>1361.964</ele>
        <time>2018-09-22T05:34:31Z</time>
      </trkpt>
      <trkpt lat="42.263081" lon="1.730425">
        <ele>1362.410</ele>
        <time>2018-09-22T05:34:32Z</time>
      </trkpt>
      <trkpt lat="42.263099" lon="1.730436">
        <ele>1363.008</ele>
        <time>2018-09-22T05:34:33Z</time>
      </trkpt>
      <trkpt lat="42.263111" lon="1.730446">
        <ele>1363.536</ele>
        <time>2018-09-22T05:34:34Z</time>
      </trkpt>
      <trkpt lat="42.263116" lon="1.730457">
        <ele>1363.622</ele>
        <time>2018-09-22T05:34:35Z</time>
      </trkpt>
      <trkpt lat="42.263146" lon="1.730511">
        <ele>1364.253</ele>
        <time>2018-09-22T05:34:39Z</time>
      </trkpt>
      <trkpt lat="42.263163" lon="1.730553">
        <ele>1364.417</ele>
        <time>2018-09-22T05:34:42Z</time>
      </trkpt>
      <trkpt lat="42.263179" lon="1.730614">
        <ele>1366.543</ele>
        <time>2018-09-22T05:34:47Z</time>
      </trkpt>
      <trkpt lat="42.263189" lon="1.730629">
        <ele>1367.053</ele>
        <time>2018-09-22T05:34:49Z</time>
      </trkpt>
      <trkpt lat="42.263202" lon="1.730643">
        <ele>1367.765</ele>
        <time>2018-09-22T05:34:51Z</time>
      </trkpt>
      <trkpt lat="42.263208" lon="1.730653">
        <ele>1368.087</ele>
        <time>2018-09-22T05:34:52Z</time>
      </trkpt>
      <trkpt lat="42.263224" lon="1.730665">
        <ele>1368.568</ele>
        <time>2018-09-22T05:34:53Z</time>
      </trkpt>
      <trkpt lat="42.263228" lon="1.730678">
        <ele>1368.842</ele>
        <time>2018-09-22T05:34:54Z</time>
      </trkpt>
      <trkpt lat="42.263226" lon="1.730696">
        <ele>1369.126</ele>
        <time>2018-09-22T05:34:55Z</time>
      </trkpt>
      <trkpt lat="42.263233" lon="1.730722">
        <ele>1369.708</ele>
        <time>2018-09-22T05:34:57Z</time>
      </trkpt>
      <trkpt lat="42.263236" lon="1.730736">
        <ele>1370.038</ele>
        <time>2018-09-22T05:34:58Z</time>
      </trkpt>
      <trkpt lat="42.263235" lon="1.730777">
        <ele>1370.774</ele>
        <time>2018-09-22T05:35:01Z</time>
      </trkpt>
      <trkpt lat="42.263260" lon="1.730811">
        <ele>1371.235</ele>
        <time>2018-09-22T05:35:04Z</time>
      </trkpt>
      <trkpt lat="42.263278" lon="1.730846">
        <ele>1371.629</ele>
        <time>2018-09-22T05:35:07Z</time>
      </trkpt>
      <trkpt lat="42.263284" lon="1.730853">
        <ele>1371.775</ele>
        <time>2018-09-22T05:35:08Z</time>
      </trkpt>
      <trkpt lat="42.263298" lon="1.730864">
        <ele>1371.775</ele>
        <time>2018-09-22T05:35:09Z</time>
      </trkpt>
      <trkpt lat="42.263295" lon="1.730886">
        <ele>1372.157</ele>
        <time>2018-09-22T05:35:10Z</time>
      </trkpt>
      <trkpt lat="42.263301" lon="1.730952">
        <ele>1373.249</ele>
        <time>2018-09-22T05:35:13Z</time>
      </trkpt>
      <trkpt lat="42.263309" lon="1.730963">
        <ele>1373.233</ele>
        <time>2018-09-22T05:35:14Z</time>
      </trkpt>
      <trkpt lat="42.263332" lon="1.730995">
        <ele>1373.323</ele>
        <time>2018-09-22T05:35:16Z</time>
      </trkpt>
      <trkpt lat="42.263357" lon="1.731019">
        <ele>1375.315</ele>
        <time>2018-09-22T05:35:18Z</time>
      </trkpt>
      <trkpt lat="42.263361" lon="1.731031">
        <ele>1375.808</ele>
        <time>2018-09-22T05:35:19Z</time>
      </trkpt>
      <trkpt lat="42.263381" lon="1.731062">
        <ele>1377.615</ele>
        <time>2018-09-22T05:35:22Z</time>
      </trkpt>
      <trkpt lat="42.263422" lon="1.731104">
        <ele>1380.911</ele>
        <time>2018-09-22T05:35:26Z</time>
      </trkpt>
      <trkpt lat="42.263442" lon="1.731120">
        <ele>1382.512</ele>
        <time>2018-09-22T05:35:29Z</time>
      </trkpt>
      <trkpt lat="42.263446" lon="1.731124">
        <ele>1382.866</ele>
        <time>2018-09-22T05:35:30Z</time>
      </trkpt>
      <trkpt lat="42.263449" lon="1.731129">
        <ele>1383.152</ele>
        <time>2018-09-22T05:35:32Z</time>
      </trkpt>
      <trkpt lat="42.263453" lon="1.731144">
        <ele>1383.532</ele>
        <time>2018-09-22T05:35:35Z</time>
      </trkpt>
      <trkpt lat="42.263458" lon="1.731156">
        <ele>1383.974</ele>
        <time>2018-09-22T05:35:36Z</time>
      </trkpt>
      <trkpt lat="42.263462" lon="1.731187">
        <ele>1384.536</ele>
        <time>2018-09-22T05:35:38Z</time>
      </trkpt>
      <trkpt lat="42.263463" lon="1.731202">
        <ele>1384.737</ele>
        <time>2018-09-22T05:35:39Z</time>
      </trkpt>
      <trkpt lat="42.263465" lon="1.731222">
        <ele>1385.049</ele>
        <time>2018-09-22T05:35:40Z</time>
      </trkpt>
      <trkpt lat="42.263468" lon="1.731234">
        <ele>1385.313</ele>
        <time>2018-09-22T05:35:41Z</time>
      </trkpt>
      <trkpt lat="42.263475" lon="1.731324">
        <ele>1386.508</ele>
        <time>2018-09-22T05:35:46Z</time>
      </trkpt>
      <trkpt lat="42.263480" lon="1.731350">
        <ele>1387.015</ele>
        <time>2018-09-22T05:35:48Z</time>
      </trkpt>
      <trkpt lat="42.263489" lon="1.731365">
        <ele>1387.631</ele>
        <time>2018-09-22T05:35:50Z</time>
      </trkpt>
      <trkpt lat="42.263494" lon="1.731417">
        <ele>1388.212</ele>
        <time>2018-09-22T05:35:54Z</time>
      </trkpt>
      <trkpt lat="42.263496" lon="1.731469">
        <ele>1388.746</ele>
        <time>2018-09-22T05:35:56Z</time>
      </trkpt>
      <trkpt lat="42.263502" lon="1.731488">
        <ele>1389.142</ele>
        <time>2018-09-22T05:35:57Z</time>
      </trkpt>
      <trkpt lat="42.263524" lon="1.731534">
        <ele>1390.232</ele>
        <time>2018-09-22T05:36:00Z</time>
      </trkpt>
      <trkpt lat="42.263554" lon="1.731560">
        <ele>1391.374</ele>
        <time>2018-09-22T05:36:03Z</time>
      </trkpt>
      <trkpt lat="42.263561" lon="1.731574">
        <ele>1391.626</ele>
        <time>2018-09-22T05:36:04Z</time>
      </trkpt>
      <trkpt lat="42.263565" lon="1.731582">
        <ele>1391.739</ele>
        <time>2018-09-22T05:36:05Z</time>
      </trkpt>
      <trkpt lat="42.263576" lon="1.731617">
        <ele>1392.101</ele>
        <time>2018-09-22T05:36:08Z</time>
      </trkpt>
      <trkpt lat="42.263582" lon="1.731642">
        <ele>1392.221</ele>
        <time>2018-09-22T05:36:10Z</time>
      </trkpt>
      <trkpt lat="42.263582" lon="1.731681">
        <ele>1392.408</ele>
        <time>2018-09-22T05:36:13Z</time>
      </trkpt>
      <trkpt lat="42.263585" lon="1.731702">
        <ele>1392.625</ele>
        <time>2018-09-22T05:36:14Z</time>
      </trkpt>
      <trkpt lat="42.263586" lon="1.731727">
        <ele>1392.981</ele>
        <time>2018-09-22T05:36:15Z</time>
      </trkpt>
      <trkpt lat="42.263588" lon="1.731744">
        <ele>1393.182</ele>
        <time>2018-09-22T05:36:16Z</time>
      </trkpt>
      <trkpt lat="42.263588" lon="1.731790">
        <ele>1393.576</ele>
        <time>2018-09-22T05:36:18Z</time>
      </trkpt>
      <trkpt lat="42.263584" lon="1.731857">
        <ele>1394.022</ele>
        <time>2018-09-22T05:36:23Z</time>
      </trkpt>
      <trkpt lat="42.263582" lon="1.731876">
        <ele>1394.232</ele>
        <time>2018-09-22T05:36:24Z</time>
      </trkpt>
      <trkpt lat="42.263583" lon="1.731912">
        <ele>1394.584</ele>
        <time>2018-09-22T05:36:26Z</time>
      </trkpt>
      <trkpt lat="42.263586" lon="1.731962">
        <ele>1395.076</ele>
        <time>2018-09-22T05:36:29Z</time>
      </trkpt>
      <trkpt lat="42.263583" lon="1.731990">
        <ele>1395.254</ele>
        <time>2018-09-22T05:36:30Z</time>
      </trkpt>
      <trkpt lat="42.263584" lon="1.732056">
        <ele>1395.856</ele>
        <time>2018-09-22T05:36:35Z</time>
      </trkpt>
      <trkpt lat="42.263583" lon="1.732063">
        <ele>1395.811</ele>
        <time>2018-09-22T05:36:36Z</time>
      </trkpt>
      <trkpt lat="42.263581" lon="1.732078">
        <ele>1396.008</ele>
        <time>2018-09-22T05:36:38Z</time>
      </trkpt>
      <trkpt lat="42.263577" lon="1.732088">
        <ele>1396.167</ele>
        <time>2018-09-22T05:36:39Z</time>
      </trkpt>
      <trkpt lat="42.263576" lon="1.732095">
        <ele>1396.183</ele>
        <time>2018-09-22T05:36:40Z</time>
      </trkpt>
      <trkpt lat="42.263576" lon="1.732101">
        <ele>1396.244</ele>
        <time>2018-09-22T05:36:41Z</time>
      </trkpt>
      <trkpt lat="42.263588" lon="1.732138">
        <ele>1396.468</ele>
        <time>2018-09-22T05:36:44Z</time>
      </trkpt>
      <trkpt lat="42.263592" lon="1.732202">
        <ele>1396.954</ele>
        <time>2018-09-22T05:36:48Z</time>
      </trkpt>
      <trkpt lat="42.263594" lon="1.732254">
        <ele>1397.354</ele>
        <time>2018-09-22T05:36:50Z</time>
      </trkpt>
      <trkpt lat="42.263594" lon="1.732300">
        <ele>1397.736</ele>
        <time>2018-09-22T05:36:52Z</time>
      </trkpt>
      <trkpt lat="42.263597" lon="1.732339">
        <ele>1398.078</ele>
        <time>2018-09-22T05:36:54Z</time>
      </trkpt>
      <trkpt lat="42.263603" lon="1.732363">
        <ele>1398.112</ele>
        <time>2018-09-22T05:36:56Z</time>
      </trkpt>
      <trkpt lat="42.263624" lon="1.732421">
        <ele>1399.332</ele>
        <time>2018-09-22T05:37:01Z</time>
      </trkpt>
      <trkpt lat="42.263624" lon="1.732436">
        <ele>1399.305</ele>
        <time>2018-09-22T05:37:02Z</time>
      </trkpt>
      <trkpt lat="42.263630" lon="1.732451">
        <ele>1399.808</ele>
        <time>2018-09-22T05:37:04Z</time>
      </trkpt>
      <trkpt lat="42.263627" lon="1.732462">
        <ele>1399.733</ele>
        <time>2018-09-22T05:37:05Z</time>
      </trkpt>
      <trkpt lat="42.263635" lon="1.732502">
        <ele>1400.429</ele>
        <time>2018-09-22T05:37:07Z</time>
      </trkpt>
      <trkpt lat="42.263638" lon="1.732524">
        <ele>1401.080</ele>
        <time>2018-09-22T05:37:08Z</time>
      </trkpt>
      <trkpt lat="42.263646" lon="1.732537">
        <ele>1401.634</ele>
        <time>2018-09-22T05:37:09Z</time>
      </trkpt>
      <trkpt lat="42.263665" lon="1.732567">
        <ele>1403.050</ele>
        <time>2018-09-22T05:37:11Z</time>
      </trkpt>
      <trkpt lat="42.263695" lon="1.732623">
        <ele>1405.170</ele>
        <time>2018-09-22T05:37:15Z</time>
      </trkpt>
      <trkpt lat="42.263702" lon="1.732632">
        <ele>1405.532</ele>
        <time>2018-09-22T05:37:16Z</time>
      </trkpt>
      <trkpt lat="42.263746" lon="1.732668">
        <ele>1407.664</ele>
        <time>2018-09-22T05:37:20Z</time>
      </trkpt>
      <trkpt lat="42.263758" lon="1.732673">
        <ele>1408.194</ele>
        <time>2018-09-22T05:37:21Z</time>
      </trkpt>
      <trkpt lat="42.263761" lon="1.732690">
        <ele>1408.257</ele>
        <time>2018-09-22T05:37:22Z</time>
      </trkpt>
      <trkpt lat="42.263768" lon="1.732740">
        <ele>1408.522</ele>
        <time>2018-09-22T05:37:25Z</time>
      </trkpt>
      <trkpt lat="42.263805" lon="1.732793">
        <ele>1409.708</ele>
        <time>2018-09-22T05:37:29Z</time>
      </trkpt>
      <trkpt lat="42.263811" lon="1.732803">
        <ele>1409.991</ele>
        <time>2018-09-22T05:37:30Z</time>
      </trkpt>
      <trkpt lat="42.263822" lon="1.732822">
        <ele>1410.287</ele>
        <time>2018-09-22T05:37:32Z</time>
      </trkpt>
      <trkpt lat="42.263828" lon="1.732831">
        <ele>1410.488</ele>
        <time>2018-09-22T05:37:33Z</time>
      </trkpt>
      <trkpt lat="42.263846" lon="1.732893">
        <ele>1410.952</ele>
        <time>2018-09-22T05:37:36Z</time>
      </trkpt>
      <trkpt lat="42.263857" lon="1.732908">
        <ele>1411.188</ele>
        <time>2018-09-22T05:37:37Z</time>
      </trkpt>
      <trkpt lat="42.263863" lon="1.732924">
        <ele>1411.278</ele>
        <time>2018-09-22T05:37:38Z</time>
      </trkpt>
      <trkpt lat="42.263875" lon="1.732930">
        <ele>1411.380</ele>
        <time>2018-09-22T05:37:39Z</time>
      </trkpt>
      <trkpt lat="42.263886" lon="1.732949">
        <ele>1411.382</ele>
        <time>2018-09-22T05:37:40Z</time>
      </trkpt>
      <trkpt lat="42.263888" lon="1.732966">
        <ele>1411.329</ele>
        <time>2018-09-22T05:37:41Z</time>
      </trkpt>
      <trkpt lat="42.263889" lon="1.732983">
        <ele>1411.200</ele>
        <time>2018-09-22T05:37:42Z</time>
      </trkpt>
      <trkpt lat="42.263899" lon="1.732989">
        <ele>1411.820</ele>
        <time>2018-09-22T05:37:43Z</time>
      </trkpt>
      <trkpt lat="42.263902" lon="1.732998">
        <ele>1412.008</ele>
        <time>2018-09-22T05:37:44Z</time>
      </trkpt>
      <trkpt lat="42.263916" lon="1.733013">
        <ele>1412.744</ele>
        <time>2018-09-22T05:37:46Z</time>
      </trkpt>
      <trkpt lat="42.263933" lon="1.733041">
        <ele>1413.680</ele>
        <time>2018-09-22T05:37:48Z</time>
      </trkpt>
      <trkpt lat="42.263942" lon="1.733070">
        <ele>1414.271</ele>
        <time>2018-09-22T05:37:50Z</time>
      </trkpt>
      <trkpt lat="42.263966" lon="1.733095">
        <ele>1415.995</ele>
        <time>2018-09-22T05:37:53Z</time>
      </trkpt>
      <trkpt lat="42.263977" lon="1.733097">
        <ele>1416.621</ele>
        <time>2018-09-22T05:37:54Z</time>
      </trkpt>
      <trkpt lat="42.263982" lon="1.733138">
        <ele>1417.531</ele>
        <time>2018-09-22T05:37:57Z</time>
      </trkpt>
      <trkpt lat="42.264002" lon="1.733175">
        <ele>1419.233</ele>
        <time>2018-09-22T05:38:00Z</time>
      </trkpt>
      <trkpt lat="42.264024" lon="1.733235">
        <ele>1421.345</ele>
        <time>2018-09-22T05:38:04Z</time>
      </trkpt>
      <trkpt lat="42.264023" lon="1.733249">
        <ele>1421.574</ele>
        <time>2018-09-22T05:38:05Z</time>
      </trkpt>
      <trkpt lat="42.264033" lon="1.733276">
        <ele>1422.456</ele>
        <time>2018-09-22T05:38:08Z</time>
      </trkpt>
      <trkpt lat="42.264034" lon="1.733284">
        <ele>1422.621</ele>
        <time>2018-09-22T05:38:09Z</time>
      </trkpt>
      <trkpt lat="42.264028" lon="1.733308">
        <ele>1422.608</ele>
        <time>2018-09-22T05:38:11Z</time>
      </trkpt>
      <trkpt lat="42.264025" lon="1.733325">
        <ele>1422.659</ele>
        <time>2018-09-22T05:38:12Z</time>
      </trkpt>
      <trkpt lat="42.264024" lon="1.733340">
        <ele>1422.845</ele>
        <time>2018-09-22T05:38:13Z</time>
      </trkpt>
      <trkpt lat="42.264023" lon="1.733350">
        <ele>1422.946</ele>
        <time>2018-09-22T05:38:14Z</time>
      </trkpt>
      <trkpt lat="42.264029" lon="1.733360">
        <ele>1423.470</ele>
        <time>2018-09-22T05:38:16Z</time>
      </trkpt>
      <trkpt lat="42.264041" lon="1.733388">
        <ele>1424.476</ele>
        <time>2018-09-22T05:38:18Z</time>
      </trkpt>
      <trkpt lat="42.264046" lon="1.733420">
        <ele>1425.116</ele>
        <time>2018-09-22T05:38:20Z</time>
      </trkpt>
      <trkpt lat="42.264041" lon="1.733453">
        <ele>1425.278</ele>
        <time>2018-09-22T05:38:22Z</time>
      </trkpt>
      <trkpt lat="42.264040" lon="1.733476">
        <ele>1425.470</ele>
        <time>2018-09-22T05:38:23Z</time>
      </trkpt>
      <trkpt lat="42.264038" lon="1.733490">
        <ele>1425.576</ele>
        <time>2018-09-22T05:38:24Z</time>
      </trkpt>
      <trkpt lat="42.264048" lon="1.733531">
        <ele>1426.590</ele>
        <time>2018-09-22T05:38:26Z</time>
      </trkpt>
      <trkpt lat="42.264048" lon="1.733579">
        <ele>1427.219</ele>
        <time>2018-09-22T05:38:28Z</time>
      </trkpt>
      <trkpt lat="42.264048" lon="1.733626">
        <ele>1427.708</ele>
        <time>2018-09-22T05:38:31Z</time>
      </trkpt>
      <trkpt lat="42.264058" lon="1.733634">
        <ele>1428.329</ele>
        <time>2018-09-22T05:38:32Z</time>
      </trkpt>
      <trkpt lat="42.264053" lon="1.733691">
        <ele>1428.725</ele>
        <time>2018-09-22T05:38:36Z</time>
      </trkpt>
      <trkpt lat="42.264042" lon="1.733744">
        <ele>1428.836</ele>
        <time>2018-09-22T05:38:40Z</time>
      </trkpt>
      <trkpt lat="42.264036" lon="1.733795">
        <ele>1429.190</ele>
        <time>2018-09-22T05:38:44Z</time>
      </trkpt>
      <trkpt lat="42.264042" lon="1.733816">
        <ele>1429.756</ele>
        <time>2018-09-22T05:38:46Z</time>
      </trkpt>
      <trkpt lat="42.264049" lon="1.733833">
        <ele>1430.266</ele>
        <time>2018-09-22T05:38:47Z</time>
      </trkpt>
      <trkpt lat="42.264050" lon="1.733845">
        <ele>1430.468</ele>
        <time>2018-09-22T05:38:48Z</time>
      </trkpt>
      <trkpt lat="42.264050" lon="1.733856">
        <ele>1430.540</ele>
        <time>2018-09-22T05:38:49Z</time>
      </trkpt>
      <trkpt lat="42.264045" lon="1.733870">
        <ele>1430.522</ele>
        <time>2018-09-22T05:38:50Z</time>
      </trkpt>
      <trkpt lat="42.264054" lon="1.733937">
        <ele>1431.562</ele>
        <time>2018-09-22T05:38:53Z</time>
      </trkpt>
      <trkpt lat="42.264057" lon="1.733968">
        <ele>1431.908</ele>
        <time>2018-09-22T05:38:55Z</time>
      </trkpt>
      <trkpt lat="42.264070" lon="1.733997">
        <ele>1432.708</ele>
        <time>2018-09-22T05:38:57Z</time>
      </trkpt>
      <trkpt lat="42.264088" lon="1.734047">
        <ele>1433.824</ele>
        <time>2018-09-22T05:39:01Z</time>
      </trkpt>
      <trkpt lat="42.264090" lon="1.734056">
        <ele>1433.950</ele>
        <time>2018-09-22T05:39:02Z</time>
      </trkpt>
      <trkpt lat="42.264108" lon="1.734110">
        <ele>1434.991</ele>
        <time>2018-09-22T05:39:06Z</time>
      </trkpt>
      <trkpt lat="42.264116" lon="1.734152">
        <ele>1435.485</ele>
        <time>2018-09-22T05:39:08Z</time>
      </trkpt>
      <trkpt lat="42.264110" lon="1.734170">
        <ele>1435.491</ele>
        <time>2018-09-22T05:39:09Z</time>
      </trkpt>
      <trkpt lat="42.264101" lon="1.734183">
        <ele>1435.381</ele>
        <time>2018-09-22T05:39:10Z</time>
      </trkpt>
      <trkpt lat="42.264099" lon="1.734196">
        <ele>1435.433</ele>
        <time>2018-09-22T05:39:11Z</time>
      </trkpt>
      <trkpt lat="42.264096" lon="1.734211">
        <ele>1435.555</ele>
        <time>2018-09-22T05:39:12Z</time>
      </trkpt>
      <trkpt lat="42.264098" lon="1.734224">
        <ele>1435.711</ele>
        <time>2018-09-22T05:39:13Z</time>
      </trkpt>
      <trkpt lat="42.264104" lon="1.734241">
        <ele>1436.021</ele>
        <time>2018-09-22T05:39:14Z</time>
      </trkpt>
      <trkpt lat="42.264117" lon="1.734314">
        <ele>1437.203</ele>
        <time>2018-09-22T05:39:17Z</time>
      </trkpt>
      <trkpt lat="42.264129" lon="1.734352">
        <ele>1437.708</ele>
        <time>2018-09-22T05:39:19Z</time>
      </trkpt>
      <trkpt lat="42.264145" lon="1.734413">
        <ele>1438.583</ele>
        <time>2018-09-22T05:39:23Z</time>
      </trkpt>
      <trkpt lat="42.264145" lon="1.734454">
        <ele>1438.979</ele>
        <time>2018-09-22T05:39:25Z</time>
      </trkpt>
      <trkpt lat="42.264166" lon="1.734520">
        <ele>1439.290</ele>
        <time>2018-09-22T05:39:28Z</time>
      </trkpt>
      <trkpt lat="42.264183" lon="1.734568">
        <ele>1440.084</ele>
        <time>2018-09-22T05:39:31Z</time>
      </trkpt>
      <trkpt lat="42.264227" lon="1.734613">
        <ele>1441.650</ele>
        <time>2018-09-22T05:39:36Z</time>
      </trkpt>
      <trkpt lat="42.264238" lon="1.734629">
        <ele>1441.950</ele>
        <time>2018-09-22T05:39:37Z</time>
      </trkpt>
      <trkpt lat="42.264251" lon="1.734651">
        <ele>1442.312</ele>
        <time>2018-09-22T05:39:39Z</time>
      </trkpt>
      <trkpt lat="42.264264" lon="1.734684">
        <ele>1442.634</ele>
        <time>2018-09-22T05:39:43Z</time>
      </trkpt>
      <trkpt lat="42.264256" lon="1.734702">
        <ele>1442.345</ele>
        <time>2018-09-22T05:39:44Z</time>
      </trkpt>
      <trkpt lat="42.264257" lon="1.734720">
        <ele>1442.247</ele>
        <time>2018-09-22T05:39:45Z</time>
      </trkpt>
      <trkpt lat="42.264253" lon="1.734774">
        <ele>1443.311</ele>
        <time>2018-09-22T05:39:48Z</time>
      </trkpt>
      <trkpt lat="42.264252" lon="1.734856">
        <ele>1445.208</ele>
        <time>2018-09-22T05:39:53Z</time>
      </trkpt>
      <trkpt lat="42.264248" lon="1.734871">
        <ele>1445.456</ele>
        <time>2018-09-22T05:39:55Z</time>
      </trkpt>
      <trkpt lat="42.264244" lon="1.734885">
        <ele>1445.722</ele>
        <time>2018-09-22T05:39:56Z</time>
      </trkpt>
      <trkpt lat="42.264243" lon="1.734940">
        <ele>1446.983</ele>
        <time>2018-09-22T05:40:00Z</time>
      </trkpt>
      <trkpt lat="42.264250" lon="1.734964">
        <ele>1447.637</ele>
        <time>2018-09-22T05:40:02Z</time>
      </trkpt>
      <trkpt lat="42.264250" lon="1.734979">
        <ele>1448.063</ele>
        <time>2018-09-22T05:40:03Z</time>
      </trkpt>
      <trkpt lat="42.264248" lon="1.735009">
        <ele>1448.793</ele>
        <time>2018-09-22T05:40:05Z</time>
      </trkpt>
      <trkpt lat="42.264244" lon="1.735027">
        <ele>1449.215</ele>
        <time>2018-09-22T05:40:07Z</time>
      </trkpt>
      <trkpt lat="42.264245" lon="1.735038">
        <ele>1449.677</ele>
        <time>2018-09-22T05:40:08Z</time>
      </trkpt>
      <trkpt lat="42.264246" lon="1.735043">
        <ele>1449.857</ele>
        <time>2018-09-22T05:40:09Z</time>
      </trkpt>
      <trkpt lat="42.264253" lon="1.735047">
        <ele>1450.000</ele>
        <time>2018-09-22T05:40:10Z</time>
      </trkpt>
      <trkpt lat="42.264262" lon="1.735053">
        <ele>1450.420</ele>
        <time>2018-09-22T05:40:11Z</time>
      </trkpt>
      <trkpt lat="42.264269" lon="1.735061">
        <ele>1450.808</ele>
        <time>2018-09-22T05:40:12Z</time>
      </trkpt>
      <trkpt lat="42.264272" lon="1.735065">
        <ele>1450.917</ele>
        <time>2018-09-22T05:40:13Z</time>
      </trkpt>
      <trkpt lat="42.264273" lon="1.735075">
        <ele>1451.313</ele>
        <time>2018-09-22T05:40:15Z</time>
      </trkpt>
      <trkpt lat="42.264267" lon="1.735106">
        <ele>1452.274</ele>
        <time>2018-09-22T05:40:19Z</time>
      </trkpt>
      <trkpt lat="42.264254" lon="1.735134">
        <ele>1452.918</ele>
        <time>2018-09-22T05:40:22Z</time>
      </trkpt>
      <trkpt lat="42.264255" lon="1.735143">
        <ele>1453.244</ele>
        <time>2018-09-22T05:40:23Z</time>
      </trkpt>
      <trkpt lat="42.264240" lon="1.735188">
        <ele>1454.594</ele>
        <time>2018-09-22T05:40:27Z</time>
      </trkpt>
      <trkpt lat="42.264237" lon="1.735196">
        <ele>1454.716</ele>
        <time>2018-09-22T05:40:28Z</time>
      </trkpt>
      <trkpt lat="42.264233" lon="1.735217">
        <ele>1455.458</ele>
        <time>2018-09-22T05:40:30Z</time>
      </trkpt>
      <trkpt lat="42.264230" lon="1.735237">
        <ele>1456.071</ele>
        <time>2018-09-22T05:40:32Z</time>
      </trkpt>
      <trkpt lat="42.264250" lon="1.735279">
        <ele>1457.641</ele>
        <time>2018-09-22T05:40:37Z</time>
      </trkpt>
      <trkpt lat="42.264254" lon="1.735300">
        <ele>1458.115</ele>
        <time>2018-09-22T05:40:38Z</time>
      </trkpt>
      <trkpt lat="42.264260" lon="1.735318">
        <ele>1458.608</ele>
        <time>2018-09-22T05:40:40Z</time>
      </trkpt>
      <trkpt lat="42.264265" lon="1.735339">
        <ele>1459.259</ele>
        <time>2018-09-22T05:40:42Z</time>
      </trkpt>
      <trkpt lat="42.264263" lon="1.735376">
        <ele>1460.155</ele>
        <time>2018-09-22T05:40:45Z</time>
      </trkpt>
      <trkpt lat="42.264272" lon="1.735422">
        <ele>1461.436</ele>
        <time>2018-09-22T05:40:49Z</time>
      </trkpt>
      <trkpt lat="42.264281" lon="1.735442">
        <ele>1461.910</ele>
        <time>2018-09-22T05:40:51Z</time>
      </trkpt>
      <trkpt lat="42.264278" lon="1.735467">
        <ele>1462.596</ele>
        <time>2018-09-22T05:40:53Z</time>
      </trkpt>
      <trkpt lat="42.264280" lon="1.735482">
        <ele>1462.966</ele>
        <time>2018-09-22T05:40:54Z</time>
      </trkpt>
      <trkpt lat="42.264308" lon="1.735498">
        <ele>1463.538</ele>
        <time>2018-09-22T05:40:57Z</time>
      </trkpt>
      <trkpt lat="42.264319" lon="1.735500">
        <ele>1463.690</ele>
        <time>2018-09-22T05:40:59Z</time>
      </trkpt>
      <trkpt lat="42.264326" lon="1.735518">
        <ele>1464.274</ele>
        <time>2018-09-22T05:41:01Z</time>
      </trkpt>
      <trkpt lat="42.264328" lon="1.735549">
        <ele>1464.956</ele>
        <time>2018-09-22T05:41:03Z</time>
      </trkpt>
      <trkpt lat="42.264331" lon="1.735559">
        <ele>1465.221</ele>
        <time>2018-09-22T05:41:04Z</time>
      </trkpt>
      <trkpt lat="42.264331" lon="1.735584">
        <ele>1465.808</ele>
        <time>2018-09-22T05:41:06Z</time>
      </trkpt>
      <trkpt lat="42.264319" lon="1.735634">
        <ele>1467.079</ele>
        <time>2018-09-22T05:41:08Z</time>
      </trkpt>
      <trkpt lat="42.264309" lon="1.735666">
        <ele>1467.735</ele>
        <time>2018-09-22T05:41:10Z</time>
      </trkpt>
      <trkpt lat="42.264309" lon="1.735678">
        <ele>1468.056</ele>
        <time>2018-09-22T05:41:11Z</time>
      </trkpt>
      <trkpt lat="42.264312" lon="1.735686">
        <ele>1468.240</ele>
        <time>2018-09-22T05:41:12Z</time>
      </trkpt>
      <trkpt lat="42.264309" lon="1.735728">
        <ele>1469.336</ele>
        <time>2018-09-22T05:41:15Z</time>
      </trkpt>
      <trkpt lat="42.264307" lon="1.735757">
        <ele>1470.096</ele>
        <time>2018-09-22T05:41:17Z</time>
      </trkpt>
      <trkpt lat="42.264306" lon="1.735783">
        <ele>1470.798</ele>
        <time>2018-09-22T05:41:19Z</time>
      </trkpt>
      <trkpt lat="42.264314" lon="1.735823">
        <ele>1471.660</ele>
        <time>2018-09-22T05:41:21Z</time>
      </trkpt>
      <trkpt lat="42.264331" lon="1.735851">
        <ele>1472.243</ele>
        <time>2018-09-22T05:41:23Z</time>
      </trkpt>
      <trkpt lat="42.264335" lon="1.735860">
        <ele>1472.364</ele>
        <time>2018-09-22T05:41:24Z</time>
      </trkpt>
      <trkpt lat="42.264337" lon="1.735869">
        <ele>1472.510</ele>
        <time>2018-09-22T05:41:25Z</time>
      </trkpt>
      <trkpt lat="42.264353" lon="1.735906">
        <ele>1473.208</ele>
        <time>2018-09-22T05:41:28Z</time>
      </trkpt>
      <trkpt lat="42.264355" lon="1.735919">
        <ele>1473.496</ele>
        <time>2018-09-22T05:41:29Z</time>
      </trkpt>
      <trkpt lat="42.264355" lon="1.735932">
        <ele>1473.762</ele>
        <time>2018-09-22T05:41:30Z</time>
      </trkpt>
      <trkpt lat="42.264361" lon="1.735941">
        <ele>1473.863</ele>
        <time>2018-09-22T05:41:31Z</time>
      </trkpt>
      <trkpt lat="42.264356" lon="1.735958">
        <ele>1474.367</ele>
        <time>2018-09-22T05:41:33Z</time>
      </trkpt>
      <trkpt lat="42.264350" lon="1.735956">
        <ele>1474.353</ele>
        <time>2018-09-22T05:41:35Z</time>
      </trkpt>
      <trkpt lat="42.264349" lon="1.735959">
        <ele>1474.483</ele>
        <time>2018-09-22T05:41:36Z</time>
      </trkpt>
      <trkpt lat="42.264351" lon="1.735964">
        <ele>1474.465</ele>
        <time>2018-09-22T05:41:39Z</time>
      </trkpt>
      <trkpt lat="42.264350" lon="1.735975">
        <ele>1474.717</ele>
        <time>2018-09-22T05:41:40Z</time>
      </trkpt>
      <trkpt lat="42.264350" lon="1.736010">
        <ele>1475.542</ele>
        <time>2018-09-22T05:41:42Z</time>
      </trkpt>
      <trkpt lat="42.264355" lon="1.736037">
        <ele>1476.022</ele>
        <time>2018-09-22T05:41:44Z</time>
      </trkpt>
      <trkpt lat="42.264359" lon="1.736062">
        <ele>1476.414</ele>
        <time>2018-09-22T05:41:46Z</time>
      </trkpt>
      <trkpt lat="42.264370" lon="1.736095">
        <ele>1476.908</ele>
        <time>2018-09-22T05:41:48Z</time>
      </trkpt>
      <trkpt lat="42.264372" lon="1.736127">
        <ele>1477.566</ele>
        <time>2018-09-22T05:41:50Z</time>
      </trkpt>
      <trkpt lat="42.264391" lon="1.736203">
        <ele>1478.542</ele>
        <time>2018-09-22T05:41:56Z</time>
      </trkpt>
      <trkpt lat="42.264391" lon="1.736215">
        <ele>1478.733</ele>
        <time>2018-09-22T05:41:57Z</time>
      </trkpt>
      <trkpt lat="42.264392" lon="1.736226">
        <ele>1478.957</ele>
        <time>2018-09-22T05:41:58Z</time>
      </trkpt>
      <trkpt lat="42.264389" lon="1.736248">
        <ele>1479.363</ele>
        <time>2018-09-22T05:42:00Z</time>
      </trkpt>
      <trkpt lat="42.264383" lon="1.736256">
        <ele>1479.673</ele>
        <time>2018-09-22T05:42:01Z</time>
      </trkpt>
      <trkpt lat="42.264376" lon="1.736269">
        <ele>1480.065</ele>
        <time>2018-09-22T05:42:03Z</time>
      </trkpt>
      <trkpt lat="42.264372" lon="1.736290">
        <ele>1480.577</ele>
        <time>2018-09-22T05:42:05Z</time>
      </trkpt>
      <trkpt lat="42.264366" lon="1.736305">
        <ele>1480.925</ele>
        <time>2018-09-22T05:42:06Z</time>
      </trkpt>
      <trkpt lat="42.264361" lon="1.736338">
        <ele>1481.726</ele>
        <time>2018-09-22T05:42:09Z</time>
      </trkpt>
      <trkpt lat="42.264353" lon="1.736371">
        <ele>1482.608</ele>
        <time>2018-09-22T05:42:12Z</time>
      </trkpt>
      <trkpt lat="42.264354" lon="1.736386">
        <ele>1482.808</ele>
        <time>2018-09-22T05:42:13Z</time>
      </trkpt>
      <trkpt lat="42.264359" lon="1.736422">
        <ele>1483.674</ele>
        <time>2018-09-22T05:42:16Z</time>
      </trkpt>
      <trkpt lat="42.264361" lon="1.736434">
        <ele>1483.890</ele>
        <time>2018-09-22T05:42:17Z</time>
      </trkpt>
      <trkpt lat="42.264365" lon="1.736449">
        <ele>1484.151</ele>
        <time>2018-09-22T05:42:18Z</time>
      </trkpt>
      <trkpt lat="42.264376" lon="1.736477">
        <ele>1484.485</ele>
        <time>2018-09-22T05:42:20Z</time>
      </trkpt>
      <trkpt lat="42.264379" lon="1.736490">
        <ele>1484.641</ele>
        <time>2018-09-22T05:42:21Z</time>
      </trkpt>
      <trkpt lat="42.264391" lon="1.736529">
        <ele>1485.281</ele>
        <time>2018-09-22T05:42:24Z</time>
      </trkpt>
      <trkpt lat="42.264398" lon="1.736572">
        <ele>1486.113</ele>
        <time>2018-09-22T05:42:28Z</time>
      </trkpt>
      <trkpt lat="42.264398" lon="1.736581">
        <ele>1486.345</ele>
        <time>2018-09-22T05:42:29Z</time>
      </trkpt>
      <trkpt lat="42.264391" lon="1.736602">
        <ele>1487.022</ele>
        <time>2018-09-22T05:42:31Z</time>
      </trkpt>
      <trkpt lat="42.264390" lon="1.736605">
        <ele>1487.162</ele>
        <time>2018-09-22T05:42:32Z</time>
      </trkpt>
      <trkpt lat="42.264384" lon="1.736612">
        <ele>1487.508</ele>
        <time>2018-09-22T05:42:33Z</time>
      </trkpt>
      <trkpt lat="42.264380" lon="1.736618">
        <ele>1487.808</ele>
        <time>2018-09-22T05:42:34Z</time>
      </trkpt>
      <trkpt lat="42.264373" lon="1.736650">
        <ele>1488.824</ele>
        <time>2018-09-22T05:42:39Z</time>
      </trkpt>
      <trkpt lat="42.264370" lon="1.736662">
        <ele>1489.270</ele>
        <time>2018-09-22T05:42:40Z</time>
      </trkpt>
      <trkpt lat="42.264358" lon="1.736683">
        <ele>1490.171</ele>
        <time>2018-09-22T05:42:42Z</time>
      </trkpt>
      <trkpt lat="42.264351" lon="1.736703">
        <ele>1490.735</ele>
        <time>2018-09-22T05:42:44Z</time>
      </trkpt>
      <trkpt lat="42.264342" lon="1.736718">
        <ele>1491.291</ele>
        <time>2018-09-22T05:42:46Z</time>
      </trkpt>
      <trkpt lat="42.264340" lon="1.736759">
        <ele>1492.131</ele>
        <time>2018-09-22T05:42:49Z</time>
      </trkpt>
      <trkpt lat="42.264341" lon="1.736761">
        <ele>1492.163</ele>
        <time>2018-09-22T05:42:50Z</time>
      </trkpt>
      <trkpt lat="42.264335" lon="1.736799">
        <ele>1493.145</ele>
        <time>2018-09-22T05:42:54Z</time>
      </trkpt>
      <trkpt lat="42.264347" lon="1.736842">
        <ele>1493.545</ele>
        <time>2018-09-22T05:42:58Z</time>
      </trkpt>
      <trkpt lat="42.264351" lon="1.736852">
        <ele>1493.547</ele>
        <time>2018-09-22T05:42:59Z</time>
      </trkpt>
      <trkpt lat="42.264347" lon="1.736889">
        <ele>1494.411</ele>
        <time>2018-09-22T05:43:01Z</time>
      </trkpt>
      <trkpt lat="42.264375" lon="1.736897">
        <ele>1493.608</ele>
        <time>2018-09-22T05:43:03Z</time>
      </trkpt>
      <trkpt lat="42.264391" lon="1.736894">
        <ele>1492.956</ele>
        <time>2018-09-22T05:43:04Z</time>
      </trkpt>
      <trkpt lat="42.264401" lon="1.736899">
        <ele>1492.732</ele>
        <time>2018-09-22T05:43:05Z</time>
      </trkpt>
      <trkpt lat="42.264415" lon="1.736905">
        <ele>1492.313</ele>
        <time>2018-09-22T05:43:06Z</time>
      </trkpt>
      <trkpt lat="42.264421" lon="1.736906">
        <ele>1492.197</ele>
        <time>2018-09-22T05:43:07Z</time>
      </trkpt>
      <trkpt lat="42.264419" lon="1.736905">
        <ele>1492.153</ele>
        <time>2018-09-22T05:43:08Z</time>
      </trkpt>
      <trkpt lat="42.264419" lon="1.736921">
        <ele>1492.523</ele>
        <time>2018-09-22T05:43:10Z</time>
      </trkpt>
      <trkpt lat="42.264419" lon="1.736931">
        <ele>1492.635</ele>
        <time>2018-09-22T05:43:11Z</time>
      </trkpt>
      <trkpt lat="42.264415" lon="1.736942">
        <ele>1493.087</ele>
        <time>2018-09-22T05:43:12Z</time>
      </trkpt>
      <trkpt lat="42.264415" lon="1.736990">
        <ele>1494.111</ele>
        <time>2018-09-22T05:43:14Z</time>
      </trkpt>
      <trkpt lat="42.264409" lon="1.737007">
        <ele>1494.821</ele>
        <time>2018-09-22T05:43:15Z</time>
      </trkpt>
      <trkpt lat="42.264407" lon="1.737038">
        <ele>1495.603</ele>
        <time>2018-09-22T05:43:17Z</time>
      </trkpt>
      <trkpt lat="42.264407" lon="1.737097">
        <ele>1497.108</ele>
        <time>2018-09-22T05:43:20Z</time>
      </trkpt>
      <trkpt lat="42.264393" lon="1.737133">
        <ele>1498.493</ele>
        <time>2018-09-22T05:43:23Z</time>
      </trkpt>
      <trkpt lat="42.264392" lon="1.737143">
        <ele>1498.779</ele>
        <time>2018-09-22T05:43:24Z</time>
      </trkpt>
      <trkpt lat="42.264388" lon="1.737187">
        <ele>1499.910</ele>
        <time>2018-09-22T05:43:26Z</time>
      </trkpt>
      <trkpt lat="42.264384" lon="1.737220">
        <ele>1500.874</ele>
        <time>2018-09-22T05:43:28Z</time>
      </trkpt>
      <trkpt lat="42.264379" lon="1.737235">
        <ele>1501.340</ele>
        <time>2018-09-22T05:43:29Z</time>
      </trkpt>
      <trkpt lat="42.264378" lon="1.737272">
        <ele>1502.080</ele>
        <time>2018-09-22T05:43:32Z</time>
      </trkpt>
      <trkpt lat="42.264377" lon="1.737284">
        <ele>1502.372</ele>
        <time>2018-09-22T05:43:33Z</time>
      </trkpt>
      <trkpt lat="42.264364" lon="1.737346">
        <ele>1503.974</ele>
        <time>2018-09-22T05:43:37Z</time>
      </trkpt>
      <trkpt lat="42.264364" lon="1.737364">
        <ele>1504.258</ele>
        <time>2018-09-22T05:43:38Z</time>
      </trkpt>
      <trkpt lat="42.264370" lon="1.737405">
        <ele>1504.852</ele>
        <time>2018-09-22T05:43:41Z</time>
      </trkpt>
      <trkpt lat="42.264369" lon="1.737420">
        <ele>1505.217</ele>
        <time>2018-09-22T05:43:42Z</time>
      </trkpt>
      <trkpt lat="42.264373" lon="1.737470">
        <ele>1505.908</ele>
        <time>2018-09-22T05:43:45Z</time>
      </trkpt>
      <trkpt lat="42.264388" lon="1.737501">
        <ele>1506.037</ele>
        <time>2018-09-22T05:43:48Z</time>
      </trkpt>
      <trkpt lat="42.264388" lon="1.737524">
        <ele>1506.533</ele>
        <time>2018-09-22T05:43:50Z</time>
      </trkpt>
      <trkpt lat="42.264381" lon="1.737566">
        <ele>1507.614</ele>
        <time>2018-09-22T05:43:54Z</time>
      </trkpt>
      <trkpt lat="42.264378" lon="1.737576">
        <ele>1507.978</ele>
        <time>2018-09-22T05:43:55Z</time>
      </trkpt>
      <trkpt lat="42.264377" lon="1.737589">
        <ele>1508.294</ele>
        <time>2018-09-22T05:43:56Z</time>
      </trkpt>
      <trkpt lat="42.264362" lon="1.737642">
        <ele>1509.924</ele>
        <time>2018-09-22T05:43:59Z</time>
      </trkpt>
      <trkpt lat="42.264351" lon="1.737663">
        <ele>1510.696</ele>
        <time>2018-09-22T05:44:00Z</time>
      </trkpt>
      <trkpt lat="42.264347" lon="1.737692">
        <ele>1511.468</ele>
        <time>2018-09-22T05:44:03Z</time>
      </trkpt>
      <trkpt lat="42.264346" lon="1.737703">
        <ele>1511.661</ele>
        <time>2018-09-22T05:44:04Z</time>
      </trkpt>
      <trkpt lat="42.264352" lon="1.737751">
        <ele>1512.421</ele>
        <time>2018-09-22T05:44:07Z</time>
      </trkpt>
      <trkpt lat="42.264363" lon="1.737794">
        <ele>1512.913</ele>
        <time>2018-09-22T05:44:10Z</time>
      </trkpt>
      <trkpt lat="42.264363" lon="1.737825">
        <ele>1513.508</ele>
        <time>2018-09-22T05:44:12Z</time>
      </trkpt>
      <trkpt lat="42.264366" lon="1.737834">
        <ele>1513.678</ele>
        <time>2018-09-22T05:44:13Z</time>
      </trkpt>
      <trkpt lat="42.264367" lon="1.737851">
        <ele>1513.864</ele>
        <time>2018-09-22T05:44:14Z</time>
      </trkpt>
      <trkpt lat="42.264377" lon="1.737879">
        <ele>1514.145</ele>
        <time>2018-09-22T05:44:16Z</time>
      </trkpt>
      <trkpt lat="42.264390" lon="1.737904">
        <ele>1514.169</ele>
        <time>2018-09-22T05:44:18Z</time>
      </trkpt>
      <trkpt lat="42.264395" lon="1.737918">
        <ele>1514.265</ele>
        <time>2018-09-22T05:44:19Z</time>
      </trkpt>
      <trkpt lat="42.264402" lon="1.737940">
        <ele>1514.315</ele>
        <time>2018-09-22T05:44:21Z</time>
      </trkpt>
      <trkpt lat="42.264403" lon="1.737947">
        <ele>1514.447</ele>
        <time>2018-09-22T05:44:22Z</time>
      </trkpt>
      <trkpt lat="42.264407" lon="1.737956">
        <ele>1514.419</ele>
        <time>2018-09-22T05:44:24Z</time>
      </trkpt>
      <trkpt lat="42.264414" lon="1.737964">
        <ele>1514.413</ele>
        <time>2018-09-22T05:44:26Z</time>
      </trkpt>
      <trkpt lat="42.264415" lon="1.737973">
        <ele>1514.543</ele>
        <time>2018-09-22T05:44:27Z</time>
      </trkpt>
      <trkpt lat="42.264413" lon="1.738000">
        <ele>1515.107</ele>
        <time>2018-09-22T05:44:29Z</time>
      </trkpt>
      <trkpt lat="42.264405" lon="1.738039">
        <ele>1516.008</ele>
        <time>2018-09-22T05:44:31Z</time>
      </trkpt>
      <trkpt lat="42.264407" lon="1.738063">
        <ele>1516.523</ele>
        <time>2018-09-22T05:44:33Z</time>
      </trkpt>
      <trkpt lat="42.264403" lon="1.738076">
        <ele>1516.989</ele>
        <time>2018-09-22T05:44:34Z</time>
      </trkpt>
      <trkpt lat="42.264395" lon="1.738100">
        <ele>1517.770</ele>
        <time>2018-09-22T05:44:36Z</time>
      </trkpt>
      <trkpt lat="42.264405" lon="1.738128">
        <ele>1517.984</ele>
        <time>2018-09-22T05:44:38Z</time>
      </trkpt>
      <trkpt lat="42.264404" lon="1.738153">
        <ele>1518.510</ele>
        <time>2018-09-22T05:44:40Z</time>
      </trkpt>
      <trkpt lat="42.264411" lon="1.738186">
        <ele>1519.010</ele>
        <time>2018-09-22T05:44:42Z</time>
      </trkpt>
      <trkpt lat="42.264414" lon="1.738220">
        <ele>1519.672</ele>
        <time>2018-09-22T05:44:44Z</time>
      </trkpt>
      <trkpt lat="42.264415" lon="1.738231">
        <ele>1519.854</ele>
        <time>2018-09-22T05:44:45Z</time>
      </trkpt>
      <trkpt lat="42.264416" lon="1.738248">
        <ele>1520.124</ele>
        <time>2018-09-22T05:44:46Z</time>
      </trkpt>
      <trkpt lat="42.264420" lon="1.738264">
        <ele>1520.304</ele>
        <time>2018-09-22T05:44:47Z</time>
      </trkpt>
      <trkpt lat="42.264415" lon="1.738281">
        <ele>1520.914</ele>
        <time>2018-09-22T05:44:48Z</time>
      </trkpt>
      <trkpt lat="42.264412" lon="1.738302">
        <ele>1521.408</ele>
        <time>2018-09-22T05:44:50Z</time>
      </trkpt>
      <trkpt lat="42.264408" lon="1.738316">
        <ele>1521.934</ele>
        <time>2018-09-22T05:44:51Z</time>
      </trkpt>
      <trkpt lat="42.264409" lon="1.738330">
        <ele>1522.290</ele>
        <time>2018-09-22T05:44:52Z</time>
      </trkpt>
      <trkpt lat="42.264391" lon="1.738385">
        <ele>1524.041</ele>
        <time>2018-09-22T05:44:56Z</time>
      </trkpt>
      <trkpt lat="42.264385" lon="1.738404">
        <ele>1524.555</ele>
        <time>2018-09-22T05:44:57Z</time>
      </trkpt>
      <trkpt lat="42.264382" lon="1.738431">
        <ele>1525.221</ele>
        <time>2018-09-22T05:44:59Z</time>
      </trkpt>
      <trkpt lat="42.264376" lon="1.738469">
        <ele>1526.251</ele>
        <time>2018-09-22T05:45:02Z</time>
      </trkpt>
      <trkpt lat="42.264365" lon="1.738506">
        <ele>1527.483</ele>
        <time>2018-09-22T05:45:05Z</time>
      </trkpt>
      <trkpt lat="42.264358" lon="1.738519">
        <ele>1527.955</ele>
        <time>2018-09-22T05:45:06Z</time>
      </trkpt>
      <trkpt lat="42.264350" lon="1.738546">
        <ele>1528.736</ele>
        <time>2018-09-22T05:45:08Z</time>
      </trkpt>
      <trkpt lat="42.264341" lon="1.738598">
        <ele>1530.117</ele>
        <time>2018-09-22T05:45:11Z</time>
      </trkpt>
      <trkpt lat="42.264340" lon="1.738654">
        <ele>1531.118</ele>
        <time>2018-09-22T05:45:14Z</time>
      </trkpt>
      <trkpt lat="42.264343" lon="1.738696">
        <ele>1531.808</ele>
        <time>2018-09-22T05:45:17Z</time>
      </trkpt>
      <trkpt lat="42.264348" lon="1.738708">
        <ele>1531.845</ele>
        <time>2018-09-22T05:45:18Z</time>
      </trkpt>
      <trkpt lat="42.264352" lon="1.738720">
        <ele>1531.931</ele>
        <time>2018-09-22T05:45:19Z</time>
      </trkpt>
      <trkpt lat="42.264356" lon="1.738729">
        <ele>1531.942</ele>
        <time>2018-09-22T05:45:20Z</time>
      </trkpt>
      <trkpt lat="42.264353" lon="1.738754">
        <ele>1532.546</ele>
        <time>2018-09-22T05:45:22Z</time>
      </trkpt>
      <trkpt lat="42.264354" lon="1.738770">
        <ele>1532.812</ele>
        <time>2018-09-22T05:45:23Z</time>
      </trkpt>
      <trkpt lat="42.264369" lon="1.738821">
        <ele>1533.232</ele>
        <time>2018-09-22T05:45:26Z</time>
      </trkpt>
      <trkpt lat="42.264372" lon="1.738835">
        <ele>1533.324</ele>
        <time>2018-09-22T05:45:27Z</time>
      </trkpt>
      <trkpt lat="42.264358" lon="1.738888">
        <ele>1534.776</ele>
        <time>2018-09-22T05:45:31Z</time>
      </trkpt>
      <trkpt lat="42.264358" lon="1.738902">
        <ele>1535.089</ele>
        <time>2018-09-22T05:45:32Z</time>
      </trkpt>
      <trkpt lat="42.264361" lon="1.738950">
        <ele>1535.806</ele>
        <time>2018-09-22T05:45:35Z</time>
      </trkpt>
      <trkpt lat="42.264356" lon="1.738962">
        <ele>1536.226</ele>
        <time>2018-09-22T05:45:36Z</time>
      </trkpt>
      <trkpt lat="42.264352" lon="1.738978">
        <ele>1536.708</ele>
        <time>2018-09-22T05:45:37Z</time>
      </trkpt>
      <trkpt lat="42.264350" lon="1.738990">
        <ele>1537.010</ele>
        <time>2018-09-22T05:45:38Z</time>
      </trkpt>
      <trkpt lat="42.264346" lon="1.739005">
        <ele>1537.416</ele>
        <time>2018-09-22T05:45:39Z</time>
      </trkpt>
      <trkpt lat="42.264349" lon="1.739038">
        <ele>1537.977</ele>
        <time>2018-09-22T05:45:42Z</time>
      </trkpt>
      <trkpt lat="42.264342" lon="1.739060">
        <ele>1538.681</ele>
        <time>2018-09-22T05:45:45Z</time>
      </trkpt>
      <trkpt lat="42.264344" lon="1.739093">
        <ele>1539.117</ele>
        <time>2018-09-22T05:45:48Z</time>
      </trkpt>
      <trkpt lat="42.264344" lon="1.739105">
        <ele>1539.437</ele>
        <time>2018-09-22T05:45:49Z</time>
      </trkpt>
      <trkpt lat="42.264326" lon="1.739175">
        <ele>1541.399</ele>
        <time>2018-09-22T05:45:53Z</time>
      </trkpt>
      <trkpt lat="42.264322" lon="1.739209">
        <ele>1542.171</ele>
        <time>2018-09-22T05:45:55Z</time>
      </trkpt>
      <trkpt lat="42.264306" lon="1.739241">
        <ele>1543.195</ele>
        <time>2018-09-22T05:45:57Z</time>
      </trkpt>
      <trkpt lat="42.264299" lon="1.739276">
        <ele>1543.949</ele>
        <time>2018-09-22T05:45:59Z</time>
      </trkpt>
      <trkpt lat="42.264297" lon="1.739324">
        <ele>1544.823</ele>
        <time>2018-09-22T05:46:02Z</time>
      </trkpt>
      <trkpt lat="42.264292" lon="1.739405">
        <ele>1546.208</ele>
        <time>2018-09-22T05:46:07Z</time>
      </trkpt>
      <trkpt lat="42.264295" lon="1.739442">
        <ele>1546.841</ele>
        <time>2018-09-22T05:46:11Z</time>
      </trkpt>
      <trkpt lat="42.264284" lon="1.739492">
        <ele>1548.237</ele>
        <time>2018-09-22T05:46:16Z</time>
      </trkpt>
      <trkpt lat="42.264282" lon="1.739497">
        <ele>1548.388</ele>
        <time>2018-09-22T05:46:17Z</time>
      </trkpt>
      <trkpt lat="42.264286" lon="1.739502">
        <ele>1548.332</ele>
        <time>2018-09-22T05:46:18Z</time>
      </trkpt>
      <trkpt lat="42.264304" lon="1.739552">
        <ele>1548.818</ele>
        <time>2018-09-22T05:46:23Z</time>
      </trkpt>
      <trkpt lat="42.264313" lon="1.739573">
        <ele>1549.068</ele>
        <time>2018-09-22T05:46:25Z</time>
      </trkpt>
      <trkpt lat="42.264314" lon="1.739627">
        <ele>1550.160</ele>
        <time>2018-09-22T05:46:28Z</time>
      </trkpt>
      <trkpt lat="42.264315" lon="1.739644">
        <ele>1550.592</ele>
        <time>2018-09-22T05:46:29Z</time>
      </trkpt>
      <trkpt lat="42.264323" lon="1.739681">
        <ele>1551.069</ele>
        <time>2018-09-22T05:46:31Z</time>
      </trkpt>
      <trkpt lat="42.264331" lon="1.739733">
        <ele>1551.804</ele>
        <time>2018-09-22T05:46:34Z</time>
      </trkpt>
      <trkpt lat="42.264343" lon="1.739756">
        <ele>1551.924</ele>
        <time>2018-09-22T05:46:36Z</time>
      </trkpt>
      <trkpt lat="42.264357" lon="1.739769">
        <ele>1551.708</ele>
        <time>2018-09-22T05:46:38Z</time>
      </trkpt>
      <trkpt lat="42.264367" lon="1.739790">
        <ele>1551.828</ele>
        <time>2018-09-22T05:46:40Z</time>
      </trkpt>
      <trkpt lat="42.264370" lon="1.739804">
        <ele>1552.134</ele>
        <time>2018-09-22T05:46:41Z</time>
      </trkpt>
      <trkpt lat="42.264380" lon="1.739834">
        <ele>1552.475</ele>
        <time>2018-09-22T05:46:43Z</time>
      </trkpt>
      <trkpt lat="42.264379" lon="1.739851">
        <ele>1552.749</ele>
        <time>2018-09-22T05:46:44Z</time>
      </trkpt>
      <trkpt lat="42.264385" lon="1.739916">
        <ele>1553.965</ele>
        <time>2018-09-22T05:46:48Z</time>
      </trkpt>
      <trkpt lat="42.264387" lon="1.739940">
        <ele>1554.385</ele>
        <time>2018-09-22T05:46:50Z</time>
      </trkpt>
      <trkpt lat="42.264382" lon="1.739954">
        <ele>1554.877</ele>
        <time>2018-09-22T05:46:51Z</time>
      </trkpt>
      <trkpt lat="42.264385" lon="1.739973">
        <ele>1555.179</ele>
        <time>2018-09-22T05:46:53Z</time>
      </trkpt>
      <trkpt lat="42.264382" lon="1.739998">
        <ele>1555.769</ele>
        <time>2018-09-22T05:46:55Z</time>
      </trkpt>
      <trkpt lat="42.264380" lon="1.740012">
        <ele>1556.104</ele>
        <time>2018-09-22T05:46:56Z</time>
      </trkpt>
      <trkpt lat="42.264378" lon="1.740047">
        <ele>1556.824</ele>
        <time>2018-09-22T05:46:58Z</time>
      </trkpt>
      <trkpt lat="42.264379" lon="1.740062">
        <ele>1557.108</ele>
        <time>2018-09-22T05:46:59Z</time>
      </trkpt>
      <trkpt lat="42.264371" lon="1.740115">
        <ele>1558.478</ele>
        <time>2018-09-22T05:47:03Z</time>
      </trkpt>
      <trkpt lat="42.264370" lon="1.740126">
        <ele>1558.724</ele>
        <time>2018-09-22T05:47:04Z</time>
      </trkpt>
      <trkpt lat="42.264363" lon="1.740148">
        <ele>1559.385</ele>
        <time>2018-09-22T05:47:07Z</time>
      </trkpt>
      <trkpt lat="42.264365" lon="1.740158">
        <ele>1559.529</ele>
        <time>2018-09-22T05:47:08Z</time>
      </trkpt>
      <trkpt lat="42.264365" lon="1.740170">
        <ele>1559.725</ele>
        <time>2018-09-22T05:47:09Z</time>
      </trkpt>
      <trkpt lat="42.264357" lon="1.740205">
        <ele>1560.715</ele>
        <time>2018-09-22T05:47:12Z</time>
      </trkpt>
      <trkpt lat="42.264351" lon="1.740214">
        <ele>1561.097</ele>
        <time>2018-09-22T05:47:13Z</time>
      </trkpt>
      <trkpt lat="42.264353" lon="1.740225">
        <ele>1561.249</ele>
        <time>2018-09-22T05:47:14Z</time>
      </trkpt>
      <trkpt lat="42.264367" lon="1.740265">
        <ele>1561.677</ele>
        <time>2018-09-22T05:47:17Z</time>
      </trkpt>
      <trkpt lat="42.264371" lon="1.740370">
        <ele>1563.661</ele>
        <time>2018-09-22T05:47:25Z</time>
      </trkpt>
      <trkpt lat="42.264383" lon="1.740396">
        <ele>1563.727</ele>
        <time>2018-09-22T05:47:29Z</time>
      </trkpt>
      <trkpt lat="42.264382" lon="1.740413">
        <ele>1564.108</ele>
        <time>2018-09-22T05:47:31Z</time>
      </trkpt>
      <trkpt lat="42.264357" lon="1.740452">
        <ele>1565.539</ele>
        <time>2018-09-22T05:47:34Z</time>
      </trkpt>
      <trkpt lat="42.264353" lon="1.740462">
        <ele>1565.825</ele>
        <time>2018-09-22T05:47:35Z</time>
      </trkpt>
      <trkpt lat="42.264343" lon="1.740482">
        <ele>1566.456</ele>
        <time>2018-09-22T05:47:37Z</time>
      </trkpt>
      <trkpt lat="42.264339" lon="1.740495">
        <ele>1566.830</ele>
        <time>2018-09-22T05:47:38Z</time>
      </trkpt>
      <trkpt lat="42.264341" lon="1.740560">
        <ele>1568.076</ele>
        <time>2018-09-22T05:47:42Z</time>
      </trkpt>
      <trkpt lat="42.264341" lon="1.740575">
        <ele>1568.356</ele>
        <time>2018-09-22T05:47:43Z</time>
      </trkpt>
      <trkpt lat="42.264349" lon="1.740675">
        <ele>1570.018</ele>
        <time>2018-09-22T05:47:50Z</time>
      </trkpt>
      <trkpt lat="42.264423" lon="1.740788">
        <ele>1569.850</ele>
        <time>2018-09-22T05:48:00Z</time>
      </trkpt>
      <trkpt lat="42.264424" lon="1.740795">
        <ele>1569.983</ele>
        <time>2018-09-22T05:48:01Z</time>
      </trkpt>
      <trkpt lat="42.264430" lon="1.740798">
        <ele>1569.825</ele>
        <time>2018-09-22T05:48:02Z</time>
      </trkpt>
      <trkpt lat="42.264438" lon="1.740826">
        <ele>1570.017</ele>
        <time>2018-09-22T05:48:04Z</time>
      </trkpt>
      <trkpt lat="42.264446" lon="1.740852">
        <ele>1570.208</ele>
        <time>2018-09-22T05:48:06Z</time>
      </trkpt>
      <trkpt lat="42.264441" lon="1.740881">
        <ele>1570.760</ele>
        <time>2018-09-22T05:48:08Z</time>
      </trkpt>
      <trkpt lat="42.264469" lon="1.740916">
        <ele>1571.436</ele>
        <time>2018-09-22T05:48:11Z</time>
      </trkpt>
      <trkpt lat="42.264499" lon="1.741035">
        <ele>1573.377</ele>
        <time>2018-09-22T05:48:19Z</time>
      </trkpt>
      <trkpt lat="42.264507" lon="1.741062">
        <ele>1573.771</ele>
        <time>2018-09-22T05:48:21Z</time>
      </trkpt>
      <trkpt lat="42.264514" lon="1.741076">
        <ele>1574.017</ele>
        <time>2018-09-22T05:48:22Z</time>
      </trkpt>
      <trkpt lat="42.264521" lon="1.741090">
        <ele>1574.287</ele>
        <time>2018-09-22T05:48:23Z</time>
      </trkpt>
      <trkpt lat="42.264529" lon="1.741113">
        <ele>1574.639</ele>
        <time>2018-09-22T05:48:25Z</time>
      </trkpt>
      <trkpt lat="42.264547" lon="1.741194">
        <ele>1574.421</ele>
        <time>2018-09-22T05:48:30Z</time>
      </trkpt>
      <trkpt lat="42.264561" lon="1.741270">
        <ele>1574.116</ele>
        <time>2018-09-22T05:48:36Z</time>
      </trkpt>
      <trkpt lat="42.264565" lon="1.741278">
        <ele>1574.076</ele>
        <time>2018-09-22T05:48:37Z</time>
      </trkpt>
      <trkpt lat="42.264568" lon="1.741283">
        <ele>1574.013</ele>
        <time>2018-09-22T05:48:38Z</time>
      </trkpt>
      <trkpt lat="42.264572" lon="1.741300">
        <ele>1573.908</ele>
        <time>2018-09-22T05:48:40Z</time>
      </trkpt>
      <trkpt lat="42.264566" lon="1.741304">
        <ele>1573.943</ele>
        <time>2018-09-22T05:48:42Z</time>
      </trkpt>
      <trkpt lat="42.264546" lon="1.741294">
        <ele>1574.029</ele>
        <time>2018-09-22T05:48:45Z</time>
      </trkpt>
      <trkpt lat="42.264566" lon="1.741298">
        <ele>1573.990</ele>
        <time>2018-09-22T05:48:55Z</time>
      </trkpt>
      <trkpt lat="42.264596" lon="1.741318">
        <ele>1573.854</ele>
        <time>2018-09-22T05:48:58Z</time>
      </trkpt>
      <trkpt lat="42.264626" lon="1.741338">
        <ele>1573.710</ele>
        <time>2018-09-22T05:49:01Z</time>
      </trkpt>
      <trkpt lat="42.264645" lon="1.741347">
        <ele>1573.610</ele>
        <time>2018-09-22T05:49:03Z</time>
      </trkpt>
      <trkpt lat="42.264665" lon="1.741359">
        <ele>1573.452</ele>
        <time>2018-09-22T05:49:05Z</time>
      </trkpt>
      <trkpt lat="42.264695" lon="1.741376">
        <ele>1573.264</ele>
        <time>2018-09-22T05:49:08Z</time>
      </trkpt>
      <trkpt lat="42.264708" lon="1.741379">
        <ele>1573.124</ele>
        <time>2018-09-22T05:49:10Z</time>
      </trkpt>
      <trkpt lat="42.264747" lon="1.741369">
        <ele>1573.604</ele>
        <time>2018-09-22T05:49:14Z</time>
      </trkpt>
      <trkpt lat="42.264836" lon="1.741382">
        <ele>1575.114</ele>
        <time>2018-09-22T05:49:23Z</time>
      </trkpt>
      <trkpt lat="42.264898" lon="1.741379">
        <ele>1576.308</ele>
        <time>2018-09-22T05:49:29Z</time>
      </trkpt>
      <trkpt lat="42.265006" lon="1.741461">
        <ele>1576.644</ele>
        <time>2018-09-22T05:49:38Z</time>
      </trkpt>
      <trkpt lat="42.265077" lon="1.741521">
        <ele>1577.960</ele>
        <time>2018-09-22T05:49:44Z</time>
      </trkpt>
      <trkpt lat="42.265169" lon="1.741643">
        <ele>1578.561</ele>
        <time>2018-09-22T05:49:54Z</time>
      </trkpt>
      <trkpt lat="42.265173" lon="1.741651">
        <ele>1578.595</ele>
        <time>2018-09-22T05:49:55Z</time>
      </trkpt>
      <trkpt lat="42.265178" lon="1.741666">
        <ele>1578.471</ele>
        <time>2018-09-22T05:49:56Z</time>
      </trkpt>
      <trkpt lat="42.265197" lon="1.741715">
        <ele>1578.241</ele>
        <time>2018-09-22T05:49:59Z</time>
      </trkpt>
      <trkpt lat="42.265199" lon="1.741730">
        <ele>1578.043</ele>
        <time>2018-09-22T05:50:00Z</time>
      </trkpt>
      <trkpt lat="42.265209" lon="1.741745">
        <ele>1578.135</ele>
        <time>2018-09-22T05:50:02Z</time>
      </trkpt>
      <trkpt lat="42.265217" lon="1.741749">
        <ele>1578.355</ele>
        <time>2018-09-22T05:50:04Z</time>
      </trkpt>
      <trkpt lat="42.265245" lon="1.741768">
        <ele>1579.007</ele>
        <time>2018-09-22T05:50:08Z</time>
      </trkpt>
      <trkpt lat="42.265253" lon="1.741778">
        <ele>1579.017</ele>
        <time>2018-09-22T05:50:09Z</time>
      </trkpt>
      <trkpt lat="42.265260" lon="1.741787">
        <ele>1579.108</ele>
        <time>2018-09-22T05:50:10Z</time>
      </trkpt>
      <trkpt lat="42.265293" lon="1.741830">
        <ele>1579.797</ele>
        <time>2018-09-22T05:50:14Z</time>
      </trkpt>
      <trkpt lat="42.265306" lon="1.741837">
        <ele>1580.183</ele>
        <time>2018-09-22T05:50:15Z</time>
      </trkpt>
      <trkpt lat="42.265336" lon="1.741861">
        <ele>1581.034</ele>
        <time>2018-09-22T05:50:18Z</time>
      </trkpt>
      <trkpt lat="42.265426" lon="1.741988">
        <ele>1582.388</ele>
        <time>2018-09-22T05:50:29Z</time>
      </trkpt>
      <trkpt lat="42.265431" lon="1.741998">
        <ele>1582.234</ele>
        <time>2018-09-22T05:50:30Z</time>
      </trkpt>
      <trkpt lat="42.265445" lon="1.742032">
        <ele>1582.024</ele>
        <time>2018-09-22T05:50:33Z</time>
      </trkpt>
      <trkpt lat="42.265457" lon="1.742055">
        <ele>1581.966</ele>
        <time>2018-09-22T05:50:35Z</time>
      </trkpt>
      <trkpt lat="42.265569" lon="1.742212">
        <ele>1582.728</ele>
        <time>2018-09-22T05:50:48Z</time>
      </trkpt>
      <trkpt lat="42.265582" lon="1.742209">
        <ele>1583.281</ele>
        <time>2018-09-22T05:50:49Z</time>
      </trkpt>
      <trkpt lat="42.265575" lon="1.742212">
        <ele>1582.961</ele>
        <time>2018-09-22T05:50:53Z</time>
      </trkpt>
      <trkpt lat="42.265577" lon="1.742215">
        <ele>1582.917</ele>
        <time>2018-09-22T05:50:55Z</time>
      </trkpt>
      <trkpt lat="42.265589" lon="1.742261">
        <ele>1582.008</ele>
        <time>2018-09-22T05:51:04Z</time>
      </trkpt>
      <trkpt lat="42.265594" lon="1.742275">
        <ele>1581.870</ele>
        <time>2018-09-22T05:51:16Z</time>
      </trkpt>
      <trkpt lat="42.265594" lon="1.742279">
        <ele>1581.766</ele>
        <time>2018-09-22T05:51:20Z</time>
      </trkpt>
      <trkpt lat="42.265595" lon="1.742281">
        <ele>1581.737</ele>
        <time>2018-09-22T05:51:22Z</time>
      </trkpt>
      <trkpt lat="42.265597" lon="1.742282">
        <ele>1581.721</ele>
        <time>2018-09-22T05:51:26Z</time>
      </trkpt>
      <trkpt lat="42.265571" lon="1.742238">
        <ele>1582.147</ele>
        <time>2018-09-22T05:51:45Z</time>
      </trkpt>
      <trkpt lat="42.265603" lon="1.742273">
        <ele>1582.297</ele>
        <time>2018-09-22T05:51:49Z</time>
      </trkpt>
      <trkpt lat="42.265679" lon="1.742342">
        <ele>1583.059</ele>
        <time>2018-09-22T05:51:57Z</time>
      </trkpt>
      <trkpt lat="42.265762" lon="1.742395">
        <ele>1584.481</ele>
        <time>2018-09-22T05:52:05Z</time>
      </trkpt>
      <trkpt lat="42.265768" lon="1.742404">
        <ele>1584.415</ele>
        <time>2018-09-22T05:52:06Z</time>
      </trkpt>
      <trkpt lat="42.265793" lon="1.742429">
        <ele>1584.565</ele>
        <time>2018-09-22T05:52:09Z</time>
      </trkpt>
      <trkpt lat="42.265803" lon="1.742449">
        <ele>1584.411</ele>
        <time>2018-09-22T05:52:11Z</time>
      </trkpt>
      <trkpt lat="42.265850" lon="1.742461">
        <ele>1585.508</ele>
        <time>2018-09-22T05:52:16Z</time>
      </trkpt>
      <trkpt lat="42.265867" lon="1.742474">
        <ele>1585.623</ele>
        <time>2018-09-22T05:52:18Z</time>
      </trkpt>
      <trkpt lat="42.265909" lon="1.742479">
        <ele>1586.589</ele>
        <time>2018-09-22T05:52:22Z</time>
      </trkpt>
      <trkpt lat="42.266011" lon="1.742495">
        <ele>1588.690</ele>
        <time>2018-09-22T05:52:31Z</time>
      </trkpt>
      <trkpt lat="42.266050" lon="1.742517">
        <ele>1588.914</ele>
        <time>2018-09-22T05:52:35Z</time>
      </trkpt>
      <trkpt lat="42.266126" lon="1.742584">
        <ele>1589.320</ele>
        <time>2018-09-22T05:52:42Z</time>
      </trkpt>
      <trkpt lat="42.266164" lon="1.742646">
        <ele>1589.440</ele>
        <time>2018-09-22T05:52:46Z</time>
      </trkpt>
      <trkpt lat="42.266180" lon="1.742683">
        <ele>1589.352</ele>
        <time>2018-09-22T05:52:48Z</time>
      </trkpt>
      <trkpt lat="42.266206" lon="1.742741">
        <ele>1589.044</ele>
        <time>2018-09-22T05:52:52Z</time>
      </trkpt>
      <trkpt lat="42.266271" lon="1.742814">
        <ele>1591.029</ele>
        <time>2018-09-22T05:52:58Z</time>
      </trkpt>
      <trkpt lat="42.266300" lon="1.742891">
        <ele>1591.400</ele>
        <time>2018-09-22T05:53:03Z</time>
      </trkpt>
      <trkpt lat="42.266327" lon="1.742925">
        <ele>1592.420</ele>
        <time>2018-09-22T05:53:06Z</time>
      </trkpt>
      <trkpt lat="42.266398" lon="1.743053">
        <ele>1594.408</ele>
        <time>2018-09-22T05:53:15Z</time>
      </trkpt>
      <trkpt lat="42.266452" lon="1.743153">
        <ele>1594.954</ele>
        <time>2018-09-22T05:53:22Z</time>
      </trkpt>
      <trkpt lat="42.266465" lon="1.743164">
        <ele>1595.360</ele>
        <time>2018-09-22T05:53:23Z</time>
      </trkpt>
      <trkpt lat="42.266516" lon="1.743323">
        <ele>1594.611</ele>
        <time>2018-09-22T05:53:32Z</time>
      </trkpt>
      <trkpt lat="42.266514" lon="1.743381">
        <ele>1592.965</ele>
        <time>2018-09-22T05:53:35Z</time>
      </trkpt>
      <trkpt lat="42.266558" lon="1.743460">
        <ele>1592.291</ele>
        <time>2018-09-22T05:53:42Z</time>
      </trkpt>
      <trkpt lat="42.266648" lon="1.743462">
        <ele>1595.611</ele>
        <time>2018-09-22T05:53:49Z</time>
      </trkpt>
      <trkpt lat="42.266684" lon="1.743458">
        <ele>1596.923</ele>
        <time>2018-09-22T05:53:52Z</time>
      </trkpt>
      <trkpt lat="42.266727" lon="1.743463">
        <ele>1597.875</ele>
        <time>2018-09-22T05:53:56Z</time>
      </trkpt>
      <trkpt lat="42.266783" lon="1.743444">
        <ele>1599.813</ele>
        <time>2018-09-22T05:54:01Z</time>
      </trkpt>
      <trkpt lat="42.266803" lon="1.743436">
        <ele>1600.643</ele>
        <time>2018-09-22T05:54:03Z</time>
      </trkpt>
      <trkpt lat="42.266864" lon="1.743430">
        <ele>1602.207</ele>
        <time>2018-09-22T05:54:07Z</time>
      </trkpt>
      <trkpt lat="42.266913" lon="1.743477">
        <ele>1602.008</ele>
        <time>2018-09-22T05:54:11Z</time>
      </trkpt>
      <trkpt lat="42.266999" lon="1.743545">
        <ele>1602.813</ele>
        <time>2018-09-22T05:54:17Z</time>
      </trkpt>
      <trkpt lat="42.267052" lon="1.743595">
        <ele>1603.689</ele>
        <time>2018-09-22T05:54:22Z</time>
      </trkpt>
      <trkpt lat="42.267111" lon="1.743692">
        <ele>1604.620</ele>
        <time>2018-09-22T05:54:29Z</time>
      </trkpt>
      <trkpt lat="42.267126" lon="1.743718">
        <ele>1604.984</ele>
        <time>2018-09-22T05:54:31Z</time>
      </trkpt>
      <trkpt lat="42.267132" lon="1.743729">
        <ele>1605.060</ele>
        <time>2018-09-22T05:54:32Z</time>
      </trkpt>
      <trkpt lat="42.267164" lon="1.743774">
        <ele>1605.520</ele>
        <time>2018-09-22T05:54:36Z</time>
      </trkpt>
      <trkpt lat="42.267192" lon="1.743817">
        <ele>1605.972</ele>
        <time>2018-09-22T05:54:40Z</time>
      </trkpt>
      <trkpt lat="42.267217" lon="1.743830">
        <ele>1606.634</ele>
        <time>2018-09-22T05:54:42Z</time>
      </trkpt>
      <trkpt lat="42.267267" lon="1.743859">
        <ele>1607.436</ele>
        <time>2018-09-22T05:54:47Z</time>
      </trkpt>
      <trkpt lat="42.267273" lon="1.743867">
        <ele>1607.417</ele>
        <time>2018-09-22T05:54:48Z</time>
      </trkpt>
      <trkpt lat="42.267305" lon="1.743886">
        <ele>1607.818</ele>
        <time>2018-09-22T05:54:51Z</time>
      </trkpt>
      <trkpt lat="42.267408" lon="1.743962">
        <ele>1608.608</ele>
        <time>2018-09-22T05:55:00Z</time>
      </trkpt>
      <trkpt lat="42.267430" lon="1.743977">
        <ele>1608.785</ele>
        <time>2018-09-22T05:55:02Z</time>
      </trkpt>
      <trkpt lat="42.267443" lon="1.744002">
        <ele>1608.481</ele>
        <time>2018-09-22T05:55:04Z</time>
      </trkpt>
      <trkpt lat="42.267574" lon="1.744086">
        <ele>1609.282</ele>
        <time>2018-09-22T05:55:14Z</time>
      </trkpt>
      <trkpt lat="42.267606" lon="1.744099">
        <ele>1609.636</ele>
        <time>2018-09-22T05:55:17Z</time>
      </trkpt>
      <trkpt lat="42.267625" lon="1.744105">
        <ele>1609.942</ele>
        <time>2018-09-22T05:55:19Z</time>
      </trkpt>
      <trkpt lat="42.267685" lon="1.744003">
        <ele>1613.112</ele>
        <time>2018-09-22T05:55:26Z</time>
      </trkpt>
      <trkpt lat="42.267678" lon="1.743973">
        <ele>1613.574</ele>
        <time>2018-09-22T05:55:28Z</time>
      </trkpt>
      <trkpt lat="42.267656" lon="1.743951">
        <ele>1613.556</ele>
        <time>2018-09-22T05:55:30Z</time>
      </trkpt>
      <trkpt lat="42.267622" lon="1.743918">
        <ele>1613.622</ele>
        <time>2018-09-22T05:55:33Z</time>
      </trkpt>
      <trkpt lat="42.267571" lon="1.743890">
        <ele>1613.262</ele>
        <time>2018-09-22T05:55:38Z</time>
      </trkpt>
      <trkpt lat="42.267562" lon="1.743859">
        <ele>1613.608</ele>
        <time>2018-09-22T05:55:40Z</time>
      </trkpt>
      <trkpt lat="42.267506" lon="1.743803">
        <ele>1613.608</ele>
        <time>2018-09-22T05:55:46Z</time>
      </trkpt>
      <trkpt lat="42.267389" lon="1.743631">
        <ele>1613.844</ele>
        <time>2018-09-22T05:55:59Z</time>
      </trkpt>
      <trkpt lat="42.267349" lon="1.743517">
        <ele>1614.720</ele>
        <time>2018-09-22T05:56:06Z</time>
      </trkpt>
      <trkpt lat="42.267338" lon="1.743497">
        <ele>1614.761</ele>
        <time>2018-09-22T05:56:08Z</time>
      </trkpt>
      <trkpt lat="42.267330" lon="1.743491">
        <ele>1614.675</ele>
        <time>2018-09-22T05:56:09Z</time>
      </trkpt>
      <trkpt lat="42.267328" lon="1.743475">
        <ele>1614.891</ele>
        <time>2018-09-22T05:56:10Z</time>
      </trkpt>
      <trkpt lat="42.267297" lon="1.743397">
        <ele>1615.141</ele>
        <time>2018-09-22T05:56:16Z</time>
      </trkpt>
      <trkpt lat="42.267278" lon="1.743311">
        <ele>1616.093</ele>
        <time>2018-09-22T05:56:20Z</time>
      </trkpt>
      <trkpt lat="42.267276" lon="1.743274">
        <ele>1616.715</ele>
        <time>2018-09-22T05:56:22Z</time>
      </trkpt>
      <trkpt lat="42.267261" lon="1.743181">
        <ele>1618.348</ele>
        <time>2018-09-22T05:56:27Z</time>
      </trkpt>
      <trkpt lat="42.267265" lon="1.743165">
        <ele>1618.761</ele>
        <time>2018-09-22T05:56:28Z</time>
      </trkpt>
      <trkpt lat="42.267271" lon="1.743157">
        <ele>1619.117</ele>
        <time>2018-09-22T05:56:29Z</time>
      </trkpt>
      <trkpt lat="42.267269" lon="1.743131">
        <ele>1619.508</ele>
        <time>2018-09-22T05:56:32Z</time>
      </trkpt>
      <trkpt lat="42.267268" lon="1.743100">
        <ele>1620.256</ele>
        <time>2018-09-22T05:56:36Z</time>
      </trkpt>
      <trkpt lat="42.267261" lon="1.743087">
        <ele>1620.332</ele>
        <time>2018-09-22T05:56:40Z</time>
      </trkpt>
      <trkpt lat="42.267291" lon="1.743042">
        <ele>1622.083</ele>
        <time>2018-09-22T05:56:44Z</time>
      </trkpt>
      <trkpt lat="42.267297" lon="1.743022">
        <ele>1622.567</ele>
        <time>2018-09-22T05:56:45Z</time>
      </trkpt>
      <trkpt lat="42.267312" lon="1.742986">
        <ele>1623.733</ele>
        <time>2018-09-22T05:56:48Z</time>
      </trkpt>
      <trkpt lat="42.267313" lon="1.742945">
        <ele>1624.593</ele>
        <time>2018-09-22T05:56:52Z</time>
      </trkpt>
      <trkpt lat="42.267334" lon="1.742910">
        <ele>1625.795</ele>
        <time>2018-09-22T05:56:56Z</time>
      </trkpt>
      <trkpt lat="42.267343" lon="1.742888">
        <ele>1626.417</ele>
        <time>2018-09-22T05:56:58Z</time>
      </trkpt>
      <trkpt lat="42.267352" lon="1.742873">
        <ele>1626.821</ele>
        <time>2018-09-22T05:57:00Z</time>
      </trkpt>
      <trkpt lat="42.267352" lon="1.742867">
        <ele>1627.041</ele>
        <time>2018-09-22T05:57:01Z</time>
      </trkpt>
      <trkpt lat="42.267355" lon="1.742861">
        <ele>1627.205</ele>
        <time>2018-09-22T05:57:02Z</time>
      </trkpt>
      <trkpt lat="42.267358" lon="1.742854">
        <ele>1627.408</ele>
        <time>2018-09-22T05:57:03Z</time>
      </trkpt>
      <trkpt lat="42.267361" lon="1.742847">
        <ele>1627.674</ele>
        <time>2018-09-22T05:57:04Z</time>
      </trkpt>
      <trkpt lat="42.267370" lon="1.742832">
        <ele>1628.130</ele>
        <time>2018-09-22T05:57:08Z</time>
      </trkpt>
      <trkpt lat="42.267368" lon="1.742786">
        <ele>1628.921</ele>
        <time>2018-09-22T05:57:12Z</time>
      </trkpt>
      <trkpt lat="42.267388" lon="1.742744">
        <ele>1630.245</ele>
        <time>2018-09-22T05:57:16Z</time>
      </trkpt>
      <trkpt lat="42.267396" lon="1.742732">
        <ele>1630.661</ele>
        <time>2018-09-22T05:57:17Z</time>
      </trkpt>
      <trkpt lat="42.267415" lon="1.742719">
        <ele>1631.391</ele>
        <time>2018-09-22T05:57:19Z</time>
      </trkpt>
      <trkpt lat="42.267426" lon="1.742705">
        <ele>1631.893</ele>
        <time>2018-09-22T05:57:21Z</time>
      </trkpt>
      <trkpt lat="42.267430" lon="1.742692">
        <ele>1632.225</ele>
        <time>2018-09-22T05:57:23Z</time>
      </trkpt>
      <trkpt lat="42.267433" lon="1.742685">
        <ele>1632.455</ele>
        <time>2018-09-22T05:57:24Z</time>
      </trkpt>
      <trkpt lat="42.267437" lon="1.742671">
        <ele>1632.807</ele>
        <time>2018-09-22T05:57:25Z</time>
      </trkpt>
      <trkpt lat="42.267444" lon="1.742663">
        <ele>1633.117</ele>
        <time>2018-09-22T05:57:26Z</time>
      </trkpt>
      <trkpt lat="42.267455" lon="1.742655">
        <ele>1633.608</ele>
        <time>2018-09-22T05:57:27Z</time>
      </trkpt>
      <trkpt lat="42.267469" lon="1.742645">
        <ele>1634.167</ele>
        <time>2018-09-22T05:57:28Z</time>
      </trkpt>
      <trkpt lat="42.267490" lon="1.742635">
        <ele>1634.883</ele>
        <time>2018-09-22T05:57:30Z</time>
      </trkpt>
      <trkpt lat="42.267510" lon="1.742630">
        <ele>1635.424</ele>
        <time>2018-09-22T05:57:32Z</time>
      </trkpt>
      <trkpt lat="42.267546" lon="1.742599">
        <ele>1636.978</ele>
        <time>2018-09-22T05:57:36Z</time>
      </trkpt>
      <trkpt lat="42.267577" lon="1.742587">
        <ele>1637.994</ele>
        <time>2018-09-22T05:57:39Z</time>
      </trkpt>
      <trkpt lat="42.267583" lon="1.742581">
        <ele>1638.234</ele>
        <time>2018-09-22T05:57:40Z</time>
      </trkpt>
      <trkpt lat="42.267586" lon="1.742574">
        <ele>1638.426</ele>
        <time>2018-09-22T05:57:41Z</time>
      </trkpt>
      <trkpt lat="42.267592" lon="1.742557">
        <ele>1638.868</ele>
        <time>2018-09-22T05:57:43Z</time>
      </trkpt>
      <trkpt lat="42.267597" lon="1.742519">
        <ele>1639.743</ele>
        <time>2018-09-22T05:57:47Z</time>
      </trkpt>
      <trkpt lat="42.267599" lon="1.742502">
        <ele>1640.064</ele>
        <time>2018-09-22T05:57:48Z</time>
      </trkpt>
      <trkpt lat="42.267605" lon="1.742482">
        <ele>1640.510</ele>
        <time>2018-09-22T05:57:50Z</time>
      </trkpt>
      <trkpt lat="42.267624" lon="1.742469">
        <ele>1641.108</ele>
        <time>2018-09-22T05:57:52Z</time>
      </trkpt>
      <trkpt lat="42.267638" lon="1.742465">
        <ele>1641.576</ele>
        <time>2018-09-22T05:57:53Z</time>
      </trkpt>
      <trkpt lat="42.267647" lon="1.742458">
        <ele>1641.882</ele>
        <time>2018-09-22T05:57:54Z</time>
      </trkpt>
      <trkpt lat="42.267658" lon="1.742459">
        <ele>1642.063</ele>
        <time>2018-09-22T05:57:55Z</time>
      </trkpt>
      <trkpt lat="42.267668" lon="1.742456">
        <ele>1642.357</ele>
        <time>2018-09-22T05:57:56Z</time>
      </trkpt>
      <trkpt lat="42.267679" lon="1.742451">
        <ele>1642.673</ele>
        <time>2018-09-22T05:57:57Z</time>
      </trkpt>
      <trkpt lat="42.267689" lon="1.742449">
        <ele>1642.943</ele>
        <time>2018-09-22T05:57:58Z</time>
      </trkpt>
      <trkpt lat="42.267712" lon="1.742458">
        <ele>1643.215</ele>
        <time>2018-09-22T05:58:00Z</time>
      </trkpt>
      <trkpt lat="42.267724" lon="1.742462">
        <ele>1643.477</ele>
        <time>2018-09-22T05:58:01Z</time>
      </trkpt>
      <trkpt lat="42.267785" lon="1.742495">
        <ele>1644.293</ele>
        <time>2018-09-22T05:58:07Z</time>
      </trkpt>
      <trkpt lat="42.267808" lon="1.742490">
        <ele>1644.965</ele>
        <time>2018-09-22T05:58:09Z</time>
      </trkpt>
      <trkpt lat="42.267823" lon="1.742476">
        <ele>1645.521</ele>
        <time>2018-09-22T05:58:11Z</time>
      </trkpt>
      <trkpt lat="42.267829" lon="1.742468">
        <ele>1645.808</ele>
        <time>2018-09-22T05:58:12Z</time>
      </trkpt>
      <trkpt lat="42.267853" lon="1.742447">
        <ele>1646.861</ele>
        <time>2018-09-22T05:58:15Z</time>
      </trkpt>
      <trkpt lat="42.267872" lon="1.742444">
        <ele>1647.367</ele>
        <time>2018-09-22T05:58:17Z</time>
      </trkpt>
      <trkpt lat="42.267891" lon="1.742428">
        <ele>1648.078</ele>
        <time>2018-09-22T05:58:19Z</time>
      </trkpt>
      <trkpt lat="42.267898" lon="1.742421">
        <ele>1648.312</ele>
        <time>2018-09-22T05:58:20Z</time>
      </trkpt>
      <trkpt lat="42.267909" lon="1.742412">
        <ele>1648.768</ele>
        <time>2018-09-22T05:58:22Z</time>
      </trkpt>
      <trkpt lat="42.267923" lon="1.742412">
        <ele>1649.028</ele>
        <time>2018-09-22T05:58:24Z</time>
      </trkpt>
      <trkpt lat="42.267925" lon="1.742398">
        <ele>1649.390</ele>
        <time>2018-09-22T05:58:26Z</time>
      </trkpt>
      <trkpt lat="42.267924" lon="1.742389">
        <ele>1649.452</ele>
        <time>2018-09-22T05:58:27Z</time>
      </trkpt>
      <trkpt lat="42.267923" lon="1.742388">
        <ele>1649.497</ele>
        <time>2018-09-22T05:58:28Z</time>
      </trkpt>
      <trkpt lat="42.267918" lon="1.742391">
        <ele>1649.223</ele>
        <time>2018-09-22T05:58:30Z</time>
      </trkpt>
      <trkpt lat="42.267927" lon="1.742380">
        <ele>1649.625</ele>
        <time>2018-09-22T05:58:35Z</time>
      </trkpt>
      <trkpt lat="42.267926" lon="1.742366">
        <ele>1649.808</ele>
        <time>2018-09-22T05:58:37Z</time>
      </trkpt>
      <trkpt lat="42.267945" lon="1.742321">
        <ele>1651.041</ele>
        <time>2018-09-22T05:58:41Z</time>
      </trkpt>
      <trkpt lat="42.267950" lon="1.742313">
        <ele>1651.247</ele>
        <time>2018-09-22T05:58:42Z</time>
      </trkpt>
      <trkpt lat="42.267955" lon="1.742311">
        <ele>1651.488</ele>
        <time>2018-09-22T05:58:43Z</time>
      </trkpt>
      <trkpt lat="42.267973" lon="1.742319">
        <ele>1651.792</ele>
        <time>2018-09-22T05:58:46Z</time>
      </trkpt>
      <trkpt lat="42.267985" lon="1.742324">
        <ele>1651.918</ele>
        <time>2018-09-22T05:59:00Z</time>
      </trkpt>
      <trkpt lat="42.267990" lon="1.742385">
        <ele>1651.158</ele>
        <time>2018-09-22T05:59:10Z</time>
      </trkpt>
      <trkpt lat="42.267992" lon="1.742385">
        <ele>1651.170</ele>
        <time>2018-09-22T05:59:14Z</time>
      </trkpt>
      <trkpt lat="42.267994" lon="1.742393">
        <ele>1651.092</ele>
        <time>2018-09-22T05:59:17Z</time>
      </trkpt>
      <trkpt lat="42.267993" lon="1.742400">
        <ele>1650.989</ele>
        <time>2018-09-22T05:59:20Z</time>
      </trkpt>
      <trkpt lat="42.267992" lon="1.742406">
        <ele>1650.806</ele>
        <time>2018-09-22T05:59:23Z</time>
      </trkpt>
      <trkpt lat="42.267991" lon="1.742403">
        <ele>1650.826</ele>
        <time>2018-09-22T05:59:26Z</time>
      </trkpt>
      <trkpt lat="42.267963" lon="1.742371">
        <ele>1650.608</ele>
        <time>2018-09-22T05:59:48Z</time>
      </trkpt>
      <trkpt lat="42.267961" lon="1.742366">
        <ele>1650.790</ele>
        <time>2018-09-22T05:59:52Z</time>
      </trkpt>
      <trkpt lat="42.267961" lon="1.742365">
        <ele>1650.736</ele>
        <time>2018-09-22T05:59:59Z</time>
      </trkpt>
      <trkpt lat="42.267961" lon="1.742364">
        <ele>1650.797</ele>
        <time>2018-09-22T06:00:08Z</time>
      </trkpt>
      <trkpt lat="42.267961" lon="1.742363">
        <ele>1650.791</ele>
        <time>2018-09-22T06:00:12Z</time>
      </trkpt>
      <trkpt lat="42.267961" lon="1.742362">
        <ele>1650.767</ele>
        <time>2018-09-22T06:00:19Z</time>
      </trkpt>
      <trkpt lat="42.267961" lon="1.742358">
        <ele>1650.887</ele>
        <time>2018-09-22T06:00:26Z</time>
      </trkpt>
      <trkpt lat="42.267960" lon="1.742355">
        <ele>1650.849</ele>
        <time>2018-09-22T06:00:39Z</time>
      </trkpt>
      <trkpt lat="42.267960" lon="1.742352">
        <ele>1650.881</ele>
        <time>2018-09-22T06:01:07Z</time>
      </trkpt>
      <trkpt lat="42.267960" lon="1.742349">
        <ele>1650.911</ele>
        <time>2018-09-22T06:01:19Z</time>
      </trkpt>
      <trkpt lat="42.267960" lon="1.742350">
        <ele>1650.921</ele>
        <time>2018-09-22T06:01:26Z</time>
      </trkpt>
      <trkpt lat="42.267954" lon="1.742343">
        <ele>1650.803</ele>
        <time>2018-09-22T06:01:31Z</time>
      </trkpt>
      <trkpt lat="42.267954" lon="1.742337">
        <ele>1651.008</ele>
        <time>2018-09-22T06:01:38Z</time>
      </trkpt>
      <trkpt lat="42.267952" lon="1.742298">
        <ele>1651.573</ele>
        <time>2018-09-22T06:01:43Z</time>
      </trkpt>
      <trkpt lat="42.267954" lon="1.742288">
        <ele>1651.749</ele>
        <time>2018-09-22T06:01:44Z</time>
      </trkpt>
      <trkpt lat="42.267960" lon="1.742247">
        <ele>1652.580</ele>
        <time>2018-09-22T06:01:47Z</time>
      </trkpt>
      <trkpt lat="42.267966" lon="1.742233">
        <ele>1652.884</ele>
        <time>2018-09-22T06:01:48Z</time>
      </trkpt>
      <trkpt lat="42.267971" lon="1.742169">
        <ele>1654.050</ele>
        <time>2018-09-22T06:01:52Z</time>
      </trkpt>
      <trkpt lat="42.267964" lon="1.742120">
        <ele>1654.730</ele>
        <time>2018-09-22T06:01:55Z</time>
      </trkpt>
      <trkpt lat="42.267972" lon="1.742044">
        <ele>1656.292</ele>
        <time>2018-09-22T06:01:59Z</time>
      </trkpt>
      <trkpt lat="42.267985" lon="1.742001">
        <ele>1657.244</ele>
        <time>2018-09-22T06:02:02Z</time>
      </trkpt>
      <trkpt lat="42.268007" lon="1.741952">
        <ele>1658.629</ele>
        <time>2018-09-22T06:02:06Z</time>
      </trkpt>
      <trkpt lat="42.268016" lon="1.741932">
        <ele>1659.100</ele>
        <time>2018-09-22T06:02:08Z</time>
      </trkpt>
      <trkpt lat="42.268027" lon="1.741909">
        <ele>1659.820</ele>
        <time>2018-09-22T06:02:10Z</time>
      </trkpt>
      <trkpt lat="42.268049" lon="1.741876">
        <ele>1660.808</ele>
        <time>2018-09-22T06:02:14Z</time>
      </trkpt>
      <trkpt lat="42.268055" lon="1.741866">
        <ele>1661.184</ele>
        <time>2018-09-22T06:02:15Z</time>
      </trkpt>
      <trkpt lat="42.268061" lon="1.741858">
        <ele>1661.380</ele>
        <time>2018-09-22T06:02:16Z</time>
      </trkpt>
      <trkpt lat="42.268067" lon="1.741850">
        <ele>1661.651</ele>
        <time>2018-09-22T06:02:17Z</time>
      </trkpt>
      <trkpt lat="42.268072" lon="1.741845">
        <ele>1661.855</ele>
        <time>2018-09-22T06:02:18Z</time>
      </trkpt>
      <trkpt lat="42.268077" lon="1.741837">
        <ele>1662.121</ele>
        <time>2018-09-22T06:02:19Z</time>
      </trkpt>
      <trkpt lat="42.268080" lon="1.741832">
        <ele>1662.241</ele>
        <time>2018-09-22T06:02:20Z</time>
      </trkpt>
      <trkpt lat="42.268087" lon="1.741829">
        <ele>1662.473</ele>
        <time>2018-09-22T06:02:21Z</time>
      </trkpt>
      <trkpt lat="42.268094" lon="1.741829">
        <ele>1662.635</ele>
        <time>2018-09-22T06:02:22Z</time>
      </trkpt>
      <trkpt lat="42.268099" lon="1.741822">
        <ele>1662.819</ele>
        <time>2018-09-22T06:02:23Z</time>
      </trkpt>
      <trkpt lat="42.268109" lon="1.741807">
        <ele>1663.309</ele>
        <time>2018-09-22T06:02:25Z</time>
      </trkpt>
      <trkpt lat="42.268126" lon="1.741791">
        <ele>1663.919</ele>
        <time>2018-09-22T06:02:27Z</time>
      </trkpt>
      <trkpt lat="42.268138" lon="1.741783">
        <ele>1664.308</ele>
        <time>2018-09-22T06:02:29Z</time>
      </trkpt>
      <trkpt lat="42.268147" lon="1.741773">
        <ele>1664.783</ele>
        <time>2018-09-22T06:02:30Z</time>
      </trkpt>
      <trkpt lat="42.268174" lon="1.741747">
        <ele>1665.869</ele>
        <time>2018-09-22T06:02:33Z</time>
      </trkpt>
      <trkpt lat="42.268188" lon="1.741729">
        <ele>1666.450</ele>
        <time>2018-09-22T06:02:35Z</time>
      </trkpt>
      <trkpt lat="42.268202" lon="1.741708">
        <ele>1667.034</ele>
        <time>2018-09-22T06:02:37Z</time>
      </trkpt>
      <trkpt lat="42.268225" lon="1.741694">
        <ele>1667.810</ele>
        <time>2018-09-22T06:02:40Z</time>
      </trkpt>
      <trkpt lat="42.268235" lon="1.741688">
        <ele>1668.290</ele>
        <time>2018-09-22T06:02:41Z</time>
      </trkpt>
      <trkpt lat="42.268247" lon="1.741687">
        <ele>1668.582</ele>
        <time>2018-09-22T06:02:42Z</time>
      </trkpt>
      <trkpt lat="42.268282" lon="1.741702">
        <ele>1669.114</ele>
        <time>2018-09-22T06:02:45Z</time>
      </trkpt>
      <trkpt lat="42.268302" lon="1.741729">
        <ele>1669.324</ele>
        <time>2018-09-22T06:02:47Z</time>
      </trkpt>
      <trkpt lat="42.268319" lon="1.741730">
        <ele>1669.704</ele>
        <time>2018-09-22T06:02:48Z</time>
      </trkpt>
      <trkpt lat="42.268332" lon="1.741739">
        <ele>1669.914</ele>
        <time>2018-09-22T06:02:49Z</time>
      </trkpt>
      <trkpt lat="42.268349" lon="1.741742">
        <ele>1670.308</ele>
        <time>2018-09-22T06:02:50Z</time>
      </trkpt>
      <trkpt lat="42.268355" lon="1.741743">
        <ele>1670.574</ele>
        <time>2018-09-22T06:02:51Z</time>
      </trkpt>
      <trkpt lat="42.268380" lon="1.741742">
        <ele>1671.350</ele>
        <time>2018-09-22T06:02:53Z</time>
      </trkpt>
      <trkpt lat="42.268402" lon="1.741728">
        <ele>1672.241</ele>
        <time>2018-09-22T06:02:55Z</time>
      </trkpt>
      <trkpt lat="42.268411" lon="1.741704">
        <ele>1672.715</ele>
        <time>2018-09-22T06:02:57Z</time>
      </trkpt>
      <trkpt lat="42.268424" lon="1.741693">
        <ele>1673.391</ele>
        <time>2018-09-22T06:02:58Z</time>
      </trkpt>
      <trkpt lat="42.268439" lon="1.741682">
        <ele>1673.871</ele>
        <time>2018-09-22T06:02:59Z</time>
      </trkpt>
      <trkpt lat="42.268457" lon="1.741671">
        <ele>1674.593</ele>
        <time>2018-09-22T06:03:01Z</time>
      </trkpt>
      <trkpt lat="42.268465" lon="1.741666">
        <ele>1674.885</ele>
        <time>2018-09-22T06:03:02Z</time>
      </trkpt>
      <trkpt lat="42.268483" lon="1.741651">
        <ele>1675.524</ele>
        <time>2018-09-22T06:03:04Z</time>
      </trkpt>
      <trkpt lat="42.268505" lon="1.741588">
        <ele>1677.204</ele>
        <time>2018-09-22T06:03:08Z</time>
      </trkpt>
      <trkpt lat="42.268526" lon="1.741563">
        <ele>1678.314</ele>
        <time>2018-09-22T06:03:11Z</time>
      </trkpt>
      <trkpt lat="42.268533" lon="1.741555">
        <ele>1678.608</ele>
        <time>2018-09-22T06:03:12Z</time>
      </trkpt>
      <trkpt lat="42.268541" lon="1.741538">
        <ele>1679.244</ele>
        <time>2018-09-22T06:03:14Z</time>
      </trkpt>
      <trkpt lat="42.268548" lon="1.741531">
        <ele>1679.510</ele>
        <time>2018-09-22T06:03:15Z</time>
      </trkpt>
      <trkpt lat="42.268555" lon="1.741520">
        <ele>1679.971</ele>
        <time>2018-09-22T06:03:16Z</time>
      </trkpt>
      <trkpt lat="42.268559" lon="1.741509">
        <ele>1680.215</ele>
        <time>2018-09-22T06:03:17Z</time>
      </trkpt>
      <trkpt lat="42.268562" lon="1.741493">
        <ele>1680.651</ele>
        <time>2018-09-22T06:03:18Z</time>
      </trkpt>
      <trkpt lat="42.268565" lon="1.741476">
        <ele>1680.971</ele>
        <time>2018-09-22T06:03:19Z</time>
      </trkpt>
      <trkpt lat="42.268574" lon="1.741446">
        <ele>1681.843</ele>
        <time>2018-09-22T06:03:21Z</time>
      </trkpt>
      <trkpt lat="42.268585" lon="1.741436">
        <ele>1682.335</ele>
        <time>2018-09-22T06:03:23Z</time>
      </trkpt>
      <trkpt lat="42.268591" lon="1.741438">
        <ele>1682.419</ele>
        <time>2018-09-22T06:03:24Z</time>
      </trkpt>
      <trkpt lat="42.268597" lon="1.741442">
        <ele>1682.609</ele>
        <time>2018-09-22T06:03:25Z</time>
      </trkpt>
      <trkpt lat="42.268602" lon="1.741440">
        <ele>1682.719</ele>
        <time>2018-09-22T06:03:26Z</time>
      </trkpt>
      <trkpt lat="42.268599" lon="1.741433">
        <ele>1682.808</ele>
        <time>2018-09-22T06:03:28Z</time>
      </trkpt>
      <trkpt lat="42.268601" lon="1.741413">
        <ele>1683.233</ele>
        <time>2018-09-22T06:03:31Z</time>
      </trkpt>
      <trkpt lat="42.268607" lon="1.741404">
        <ele>1683.639</ele>
        <time>2018-09-22T06:03:32Z</time>
      </trkpt>
      <trkpt lat="42.268620" lon="1.741390">
        <ele>1684.260</ele>
        <time>2018-09-22T06:03:34Z</time>
      </trkpt>
      <trkpt lat="42.268627" lon="1.741381">
        <ele>1684.644</ele>
        <time>2018-09-22T06:03:35Z</time>
      </trkpt>
      <trkpt lat="42.268638" lon="1.741357">
        <ele>1685.360</ele>
        <time>2018-09-22T06:03:39Z</time>
      </trkpt>
      <trkpt lat="42.268643" lon="1.741353">
        <ele>1685.510</ele>
        <time>2018-09-22T06:03:40Z</time>
      </trkpt>
      <trkpt lat="42.268656" lon="1.741336">
        <ele>1686.222</ele>
        <time>2018-09-22T06:03:43Z</time>
      </trkpt>
      <trkpt lat="42.268661" lon="1.741331">
        <ele>1686.464</ele>
        <time>2018-09-22T06:03:44Z</time>
      </trkpt>
      <trkpt lat="42.268675" lon="1.741288">
        <ele>1687.531</ele>
        <time>2018-09-22T06:03:47Z</time>
      </trkpt>
      <trkpt lat="42.268685" lon="1.741262">
        <ele>1688.261</ele>
        <time>2018-09-22T06:03:49Z</time>
      </trkpt>
      <trkpt lat="42.268692" lon="1.741252">
        <ele>1688.607</ele>
        <time>2018-09-22T06:03:50Z</time>
      </trkpt>
      <trkpt lat="42.268719" lon="1.741221">
        <ele>1689.908</ele>
        <time>2018-09-22T06:03:54Z</time>
      </trkpt>
      <trkpt lat="42.268740" lon="1.741198">
        <ele>1690.965</ele>
        <time>2018-09-22T06:03:57Z</time>
      </trkpt>
      <trkpt lat="42.268749" lon="1.741173">
        <ele>1691.551</ele>
        <time>2018-09-22T06:03:59Z</time>
      </trkpt>
      <trkpt lat="42.268757" lon="1.741172">
        <ele>1691.832</ele>
        <time>2018-09-22T06:04:00Z</time>
      </trkpt>
      <trkpt lat="42.268768" lon="1.741168">
        <ele>1692.256</ele>
        <time>2018-09-22T06:04:02Z</time>
      </trkpt>
      <trkpt lat="42.268776" lon="1.741117">
        <ele>1693.222</ele>
        <time>2018-09-22T06:04:06Z</time>
      </trkpt>
      <trkpt lat="42.268788" lon="1.741062">
        <ele>1694.732</ele>
        <time>2018-09-22T06:04:11Z</time>
      </trkpt>
      <trkpt lat="42.268796" lon="1.741051">
        <ele>1695.274</ele>
        <time>2018-09-22T06:04:12Z</time>
      </trkpt>
      <trkpt lat="42.268800" lon="1.741042">
        <ele>1695.636</ele>
        <time>2018-09-22T06:04:13Z</time>
      </trkpt>
      <trkpt lat="42.268808" lon="1.741028">
        <ele>1696.157</ele>
        <time>2018-09-22T06:04:15Z</time>
      </trkpt>
      <trkpt lat="42.268808" lon="1.741021">
        <ele>1696.300</ele>
        <time>2018-09-22T06:04:16Z</time>
      </trkpt>
      <trkpt lat="42.268812" lon="1.741019">
        <ele>1696.420</ele>
        <time>2018-09-22T06:04:17Z</time>
      </trkpt>
      <trkpt lat="42.268825" lon="1.741008">
        <ele>1697.108</ele>
        <time>2018-09-22T06:04:19Z</time>
      </trkpt>
      <trkpt lat="42.268834" lon="1.741004">
        <ele>1697.587</ele>
        <time>2018-09-22T06:04:20Z</time>
      </trkpt>
      <trkpt lat="42.268849" lon="1.740993">
        <ele>1698.243</ele>
        <time>2018-09-22T06:04:22Z</time>
      </trkpt>
      <trkpt lat="42.268862" lon="1.740980">
        <ele>1698.964</ele>
        <time>2018-09-22T06:04:24Z</time>
      </trkpt>
      <trkpt lat="42.268863" lon="1.740969">
        <ele>1699.238</ele>
        <time>2018-09-22T06:04:25Z</time>
      </trkpt>
      <trkpt lat="42.268856" lon="1.740962">
        <ele>1699.114</ele>
        <time>2018-09-22T06:04:26Z</time>
      </trkpt>
      <trkpt lat="42.268858" lon="1.740948">
        <ele>1699.544</ele>
        <time>2018-09-22T06:04:27Z</time>
      </trkpt>
      <trkpt lat="42.268864" lon="1.740941">
        <ele>1699.876</ele>
        <time>2018-09-22T06:04:29Z</time>
      </trkpt>
      <trkpt lat="42.268868" lon="1.740934">
        <ele>1700.128</ele>
        <time>2018-09-22T06:04:30Z</time>
      </trkpt>
      <trkpt lat="42.268871" lon="1.740920">
        <ele>1700.524</ele>
        <time>2018-09-22T06:04:31Z</time>
      </trkpt>
      <trkpt lat="42.268871" lon="1.740906">
        <ele>1700.804</ele>
        <time>2018-09-22T06:04:32Z</time>
      </trkpt>
      <trkpt lat="42.268876" lon="1.740890">
        <ele>1701.314</ele>
        <time>2018-09-22T06:04:33Z</time>
      </trkpt>
      <trkpt lat="42.268884" lon="1.740872">
        <ele>1701.908</ele>
        <time>2018-09-22T06:04:35Z</time>
      </trkpt>
      <trkpt lat="42.268908" lon="1.740861">
        <ele>1703.064</ele>
        <time>2018-09-22T06:04:38Z</time>
      </trkpt>
      <trkpt lat="42.268917" lon="1.740844">
        <ele>1703.690</ele>
        <time>2018-09-22T06:04:39Z</time>
      </trkpt>
      <trkpt lat="42.268924" lon="1.740828">
        <ele>1704.251</ele>
        <time>2018-09-22T06:04:40Z</time>
      </trkpt>
      <trkpt lat="42.268931" lon="1.740818">
        <ele>1704.675</ele>
        <time>2018-09-22T06:04:41Z</time>
      </trkpt>
      <trkpt lat="42.268953" lon="1.740784">
        <ele>1706.171</ele>
        <time>2018-09-22T06:04:44Z</time>
      </trkpt>
      <trkpt lat="42.268953" lon="1.740776">
        <ele>1706.321</ele>
        <time>2018-09-22T06:04:45Z</time>
      </trkpt>
      <trkpt lat="42.268956" lon="1.740768">
        <ele>1706.583</ele>
        <time>2018-09-22T06:04:46Z</time>
      </trkpt>
      <trkpt lat="42.268966" lon="1.740760">
        <ele>1707.035</ele>
        <time>2018-09-22T06:04:48Z</time>
      </trkpt>
      <trkpt lat="42.268985" lon="1.740734">
        <ele>1708.237</ele>
        <time>2018-09-22T06:04:49Z</time>
      </trkpt>
      <trkpt lat="42.268990" lon="1.740729">
        <ele>1708.549</ele>
        <time>2018-09-22T06:04:50Z</time>
      </trkpt>
      <trkpt lat="42.268994" lon="1.740720">
        <ele>1708.813</ele>
        <time>2018-09-22T06:04:52Z</time>
      </trkpt>
      <trkpt lat="42.268992" lon="1.740714">
        <ele>1708.908</ele>
        <time>2018-09-22T06:04:53Z</time>
      </trkpt>
      <trkpt lat="42.268986" lon="1.740678">
        <ele>1709.415</ele>
        <time>2018-09-22T06:04:56Z</time>
      </trkpt>
      <trkpt lat="42.268983" lon="1.740665">
        <ele>1709.781</ele>
        <time>2018-09-22T06:04:57Z</time>
      </trkpt>
      <trkpt lat="42.268985" lon="1.740647">
        <ele>1710.142</ele>
        <time>2018-09-22T06:04:58Z</time>
      </trkpt>
      <trkpt lat="42.268984" lon="1.740631">
        <ele>1710.476</ele>
        <time>2018-09-22T06:04:59Z</time>
      </trkpt>
      <trkpt lat="42.268988" lon="1.740624">
        <ele>1710.772</ele>
        <time>2018-09-22T06:05:00Z</time>
      </trkpt>
      <trkpt lat="42.269007" lon="1.740592">
        <ele>1712.022</ele>
        <time>2018-09-22T06:05:03Z</time>
      </trkpt>
      <trkpt lat="42.269012" lon="1.740584">
        <ele>1712.314</ele>
        <time>2018-09-22T06:05:04Z</time>
      </trkpt>
      <trkpt lat="42.269027" lon="1.740558">
        <ele>1713.446</ele>
        <time>2018-09-22T06:05:05Z</time>
      </trkpt>
      <trkpt lat="42.269058" lon="1.740507">
        <ele>1715.478</ele>
        <time>2018-09-22T06:05:08Z</time>
      </trkpt>
      <trkpt lat="42.269065" lon="1.740496">
        <ele>1715.933</ele>
        <time>2018-09-22T06:05:09Z</time>
      </trkpt>
      <trkpt lat="42.269068" lon="1.740487">
        <ele>1716.126</ele>
        <time>2018-09-22T06:05:11Z</time>
      </trkpt>
      <trkpt lat="42.269068" lon="1.740480">
        <ele>1716.308</ele>
        <time>2018-09-22T06:05:12Z</time>
      </trkpt>
      <trkpt lat="42.269057" lon="1.740444">
        <ele>1716.689</ele>
        <time>2018-09-22T06:05:15Z</time>
      </trkpt>
      <trkpt lat="42.269053" lon="1.740431">
        <ele>1716.865</ele>
        <time>2018-09-22T06:05:16Z</time>
      </trkpt>
      <trkpt lat="42.269053" lon="1.740398">
        <ele>1717.466</ele>
        <time>2018-09-22T06:05:18Z</time>
      </trkpt>
      <trkpt lat="42.269045" lon="1.740363">
        <ele>1717.910</ele>
        <time>2018-09-22T06:05:21Z</time>
      </trkpt>
      <trkpt lat="42.269034" lon="1.740336">
        <ele>1718.056</ele>
        <time>2018-09-22T06:05:23Z</time>
      </trkpt>
      <trkpt lat="42.269037" lon="1.740330">
        <ele>1718.296</ele>
        <time>2018-09-22T06:05:24Z</time>
      </trkpt>
      <trkpt lat="42.269038" lon="1.740310">
        <ele>1718.798</ele>
        <time>2018-09-22T06:05:26Z</time>
      </trkpt>
      <trkpt lat="42.269036" lon="1.740301">
        <ele>1718.860</ele>
        <time>2018-09-22T06:05:28Z</time>
      </trkpt>
      <trkpt lat="42.269037" lon="1.740285">
        <ele>1719.111</ele>
        <time>2018-09-22T06:05:29Z</time>
      </trkpt>
      <trkpt lat="42.269040" lon="1.740251">
        <ele>1719.821</ele>
        <time>2018-09-22T06:05:31Z</time>
      </trkpt>
      <trkpt lat="42.269037" lon="1.740239">
        <ele>1719.903</ele>
        <time>2018-09-22T06:05:32Z</time>
      </trkpt>
      <trkpt lat="42.269027" lon="1.740198">
        <ele>1720.208</ele>
        <time>2018-09-22T06:05:35Z</time>
      </trkpt>
      <trkpt lat="42.269023" lon="1.740182">
        <ele>1720.393</ele>
        <time>2018-09-22T06:05:36Z</time>
      </trkpt>
      <trkpt lat="42.269014" lon="1.740118">
        <ele>1721.159</ele>
        <time>2018-09-22T06:05:40Z</time>
      </trkpt>
      <trkpt lat="42.269014" lon="1.740105">
        <ele>1721.310</ele>
        <time>2018-09-22T06:05:41Z</time>
      </trkpt>
      <trkpt lat="42.269037" lon="1.740041">
        <ele>1723.164</ele>
        <time>2018-09-22T06:05:47Z</time>
      </trkpt>
      <trkpt lat="42.269029" lon="1.740010">
        <ele>1723.350</ele>
        <time>2018-09-22T06:05:49Z</time>
      </trkpt>
      <trkpt lat="42.269025" lon="1.739977">
        <ele>1723.770</ele>
        <time>2018-09-22T06:05:51Z</time>
      </trkpt>
      <trkpt lat="42.269018" lon="1.739966">
        <ele>1723.622</ele>
        <time>2018-09-22T06:05:52Z</time>
      </trkpt>
      <trkpt lat="42.269013" lon="1.739932">
        <ele>1723.984</ele>
        <time>2018-09-22T06:05:55Z</time>
      </trkpt>
      <trkpt lat="42.269015" lon="1.739895">
        <ele>1724.542</ele>
        <time>2018-09-22T06:05:57Z</time>
      </trkpt>
      <trkpt lat="42.269021" lon="1.739848">
        <ele>1725.422</ele>
        <time>2018-09-22T06:05:59Z</time>
      </trkpt>
      <trkpt lat="42.269023" lon="1.739833">
        <ele>1725.714</ele>
        <time>2018-09-22T06:06:00Z</time>
      </trkpt>
      <trkpt lat="42.269025" lon="1.739820">
        <ele>1726.008</ele>
        <time>2018-09-22T06:06:01Z</time>
      </trkpt>
      <trkpt lat="42.269030" lon="1.739805">
        <ele>1726.376</ele>
        <time>2018-09-22T06:06:02Z</time>
      </trkpt>
      <trkpt lat="42.269052" lon="1.739778">
        <ele>1727.492</ele>
        <time>2018-09-22T06:06:06Z</time>
      </trkpt>
      <trkpt lat="42.269055" lon="1.739771">
        <ele>1727.693</ele>
        <time>2018-09-22T06:06:07Z</time>
      </trkpt>
      <trkpt lat="42.269056" lon="1.739764">
        <ele>1727.847</ele>
        <time>2018-09-22T06:06:08Z</time>
      </trkpt>
      <trkpt lat="42.269052" lon="1.739734">
        <ele>1728.143</ele>
        <time>2018-09-22T06:06:10Z</time>
      </trkpt>
      <trkpt lat="42.269058" lon="1.739718">
        <ele>1728.563</ele>
        <time>2018-09-22T06:06:11Z</time>
      </trkpt>
      <trkpt lat="42.269066" lon="1.739701">
        <ele>1729.035</ele>
        <time>2018-09-22T06:06:12Z</time>
      </trkpt>
      <trkpt lat="42.269082" lon="1.739675">
        <ele>1729.837</ele>
        <time>2018-09-22T06:06:14Z</time>
      </trkpt>
      <trkpt lat="42.269090" lon="1.739665">
        <ele>1730.273</ele>
        <time>2018-09-22T06:06:15Z</time>
      </trkpt>
      <trkpt lat="42.269106" lon="1.739589">
        <ele>1731.885</ele>
        <time>2018-09-22T06:06:19Z</time>
      </trkpt>
      <trkpt lat="42.269105" lon="1.739579">
        <ele>1731.913</ele>
        <time>2018-09-22T06:06:20Z</time>
      </trkpt>
      <trkpt lat="42.269116" lon="1.739567">
        <ele>1732.508</ele>
        <time>2018-09-22T06:06:23Z</time>
      </trkpt>
      <trkpt lat="42.269130" lon="1.739563">
        <ele>1733.029</ele>
        <time>2018-09-22T06:06:24Z</time>
      </trkpt>
      <trkpt lat="42.269147" lon="1.739554">
        <ele>1733.755</ele>
        <time>2018-09-22T06:06:26Z</time>
      </trkpt>
      <trkpt lat="42.269163" lon="1.739531">
        <ele>1734.636</ele>
        <time>2018-09-22T06:06:28Z</time>
      </trkpt>
      <trkpt lat="42.269174" lon="1.739494">
        <ele>1735.510</ele>
        <time>2018-09-22T06:06:31Z</time>
      </trkpt>
      <trkpt lat="42.269181" lon="1.739482">
        <ele>1735.916</ele>
        <time>2018-09-22T06:06:32Z</time>
      </trkpt>
      <trkpt lat="42.269190" lon="1.739474">
        <ele>1736.466</ele>
        <time>2018-09-22T06:06:33Z</time>
      </trkpt>
      <trkpt lat="42.269203" lon="1.739466">
        <ele>1736.988</ele>
        <time>2018-09-22T06:06:34Z</time>
      </trkpt>
      <trkpt lat="42.269210" lon="1.739459">
        <ele>1737.380</ele>
        <time>2018-09-22T06:06:35Z</time>
      </trkpt>
      <trkpt lat="42.269222" lon="1.739442">
        <ele>1738.076</ele>
        <time>2018-09-22T06:06:37Z</time>
      </trkpt>
      <trkpt lat="42.269249" lon="1.739407">
        <ele>1739.390</ele>
        <time>2018-09-22T06:06:40Z</time>
      </trkpt>
      <trkpt lat="42.269258" lon="1.739402">
        <ele>1739.619</ele>
        <time>2018-09-22T06:06:41Z</time>
      </trkpt>
      <trkpt lat="42.269265" lon="1.739393">
        <ele>1740.008</ele>
        <time>2018-09-22T06:06:42Z</time>
      </trkpt>
      <trkpt lat="42.269272" lon="1.739367">
        <ele>1740.589</ele>
        <time>2018-09-22T06:06:45Z</time>
      </trkpt>
      <trkpt lat="42.269276" lon="1.739355">
        <ele>1740.785</ele>
        <time>2018-09-22T06:06:46Z</time>
      </trkpt>
      <trkpt lat="42.269279" lon="1.739338">
        <ele>1741.016</ele>
        <time>2018-09-22T06:06:47Z</time>
      </trkpt>
      <trkpt lat="42.269280" lon="1.739324">
        <ele>1741.230</ele>
        <time>2018-09-22T06:06:48Z</time>
      </trkpt>
      <trkpt lat="42.269279" lon="1.739306">
        <ele>1741.396</ele>
        <time>2018-09-22T06:06:49Z</time>
      </trkpt>
      <trkpt lat="42.269277" lon="1.739274">
        <ele>1741.526</ele>
        <time>2018-09-22T06:06:51Z</time>
      </trkpt>
      <trkpt lat="42.269280" lon="1.739265">
        <ele>1741.778</ele>
        <time>2018-09-22T06:06:53Z</time>
      </trkpt>
      <trkpt lat="42.269295" lon="1.739221">
        <ele>1742.620</ele>
        <time>2018-09-22T06:06:56Z</time>
      </trkpt>
      <trkpt lat="42.269303" lon="1.739204">
        <ele>1743.052</ele>
        <time>2018-09-22T06:06:57Z</time>
      </trkpt>
      <trkpt lat="42.269307" lon="1.739188">
        <ele>1743.353</ele>
        <time>2018-09-22T06:06:58Z</time>
      </trkpt>
      <trkpt lat="42.269326" lon="1.739126">
        <ele>1744.308</ele>
        <time>2018-09-22T06:07:02Z</time>
      </trkpt>
      <trkpt lat="42.269333" lon="1.739117">
        <ele>1744.608</ele>
        <time>2018-09-22T06:07:03Z</time>
      </trkpt>
      <trkpt lat="42.269372" lon="1.739101">
        <ele>1746.047</ele>
        <time>2018-09-22T06:07:06Z</time>
      </trkpt>
      <trkpt lat="42.269392" lon="1.739096">
        <ele>1746.783</ele>
        <time>2018-09-22T06:07:07Z</time>
      </trkpt>
      <trkpt lat="42.269411" lon="1.739091">
        <ele>1747.454</ele>
        <time>2018-09-22T06:07:09Z</time>
      </trkpt>
      <trkpt lat="42.269418" lon="1.739088">
        <ele>1747.698</ele>
        <time>2018-09-22T06:07:10Z</time>
      </trkpt>
      <trkpt lat="42.269428" lon="1.739088">
        <ele>1747.944</ele>
        <time>2018-09-22T06:07:11Z</time>
      </trkpt>
      <trkpt lat="42.269443" lon="1.739077">
        <ele>1748.614</ele>
        <time>2018-09-22T06:07:13Z</time>
      </trkpt>
      <trkpt lat="42.269457" lon="1.739062">
        <ele>1749.116</ele>
        <time>2018-09-22T06:07:15Z</time>
      </trkpt>
      <trkpt lat="42.269462" lon="1.739062">
        <ele>1749.368</ele>
        <time>2018-09-22T06:07:16Z</time>
      </trkpt>
      <trkpt lat="42.269480" lon="1.739061">
        <ele>1750.042</ele>
        <time>2018-09-22T06:07:18Z</time>
      </trkpt>
      <trkpt lat="42.269491" lon="1.739052">
        <ele>1750.422</ele>
        <time>2018-09-22T06:07:20Z</time>
      </trkpt>
      <trkpt lat="42.269492" lon="1.739034">
        <ele>1750.614</ele>
        <time>2018-09-22T06:07:22Z</time>
      </trkpt>
      <trkpt lat="42.269497" lon="1.739021">
        <ele>1750.908</ele>
        <time>2018-09-22T06:07:23Z</time>
      </trkpt>
      <trkpt lat="42.269548" lon="1.738999">
        <ele>1752.966</ele>
        <time>2018-09-22T06:07:27Z</time>
      </trkpt>
      <trkpt lat="42.269582" lon="1.738987">
        <ele>1754.242</ele>
        <time>2018-09-22T06:07:31Z</time>
      </trkpt>
      <trkpt lat="42.269610" lon="1.738990">
        <ele>1755.243</ele>
        <time>2018-09-22T06:07:34Z</time>
      </trkpt>
      <trkpt lat="42.269643" lon="1.738989">
        <ele>1756.477</ele>
        <time>2018-09-22T06:07:37Z</time>
      </trkpt>
      <trkpt lat="42.269681" lon="1.738989">
        <ele>1757.863</ele>
        <time>2018-09-22T06:07:40Z</time>
      </trkpt>
      <trkpt lat="42.269697" lon="1.738981">
        <ele>1758.483</ele>
        <time>2018-09-22T06:07:41Z</time>
      </trkpt>
      <trkpt lat="42.269710" lon="1.738977">
        <ele>1758.995</ele>
        <time>2018-09-22T06:07:42Z</time>
      </trkpt>
      <trkpt lat="42.269725" lon="1.738974">
        <ele>1759.477</ele>
        <time>2018-09-22T06:07:43Z</time>
      </trkpt>
      <trkpt lat="42.269733" lon="1.738971">
        <ele>1759.864</ele>
        <time>2018-09-22T06:07:44Z</time>
      </trkpt>
      <trkpt lat="42.269749" lon="1.738966">
        <ele>1760.406</ele>
        <time>2018-09-22T06:07:47Z</time>
      </trkpt>
      <trkpt lat="42.269756" lon="1.738951">
        <ele>1760.816</ele>
        <time>2018-09-22T06:07:49Z</time>
      </trkpt>
      <trkpt lat="42.269765" lon="1.738944">
        <ele>1761.208</ele>
        <time>2018-09-22T06:07:50Z</time>
      </trkpt>
      <trkpt lat="42.269778" lon="1.738945">
        <ele>1761.738</ele>
        <time>2018-09-22T06:07:51Z</time>
      </trkpt>
      <trkpt lat="42.269785" lon="1.738950">
        <ele>1761.964</ele>
        <time>2018-09-22T06:07:52Z</time>
      </trkpt>
      <trkpt lat="42.269795" lon="1.738953">
        <ele>1762.315</ele>
        <time>2018-09-22T06:07:53Z</time>
      </trkpt>
      <trkpt lat="42.269815" lon="1.738956">
        <ele>1763.159</ele>
        <time>2018-09-22T06:07:59Z</time>
      </trkpt>
      <trkpt lat="42.269850" lon="1.738986">
        <ele>1764.295</ele>
        <time>2018-09-22T06:08:06Z</time>
      </trkpt>
      <trkpt lat="42.269887" lon="1.739004">
        <ele>1765.465</ele>
        <time>2018-09-22T06:08:11Z</time>
      </trkpt>
      <trkpt lat="42.269924" lon="1.739036">
        <ele>1766.547</ele>
        <time>2018-09-22T06:08:16Z</time>
      </trkpt>
      <trkpt lat="42.269934" lon="1.739039">
        <ele>1766.819</ele>
        <time>2018-09-22T06:08:17Z</time>
      </trkpt>
      <trkpt lat="42.269951" lon="1.739033">
        <ele>1767.658</ele>
        <time>2018-09-22T06:08:19Z</time>
      </trkpt>
      <trkpt lat="42.269964" lon="1.739031">
        <ele>1768.152</ele>
        <time>2018-09-22T06:08:20Z</time>
      </trkpt>
      <trkpt lat="42.269996" lon="1.739040">
        <ele>1769.117</ele>
        <time>2018-09-22T06:08:23Z</time>
      </trkpt>
      <trkpt lat="42.270010" lon="1.739044">
        <ele>1769.608</ele>
        <time>2018-09-22T06:08:26Z</time>
      </trkpt>
      <trkpt lat="42.270017" lon="1.739047">
        <ele>1769.937</ele>
        <time>2018-09-22T06:08:27Z</time>
      </trkpt>
      <trkpt lat="42.270025" lon="1.739046">
        <ele>1770.223</ele>
        <time>2018-09-22T06:08:28Z</time>
      </trkpt>
      <trkpt lat="42.270036" lon="1.739030">
        <ele>1770.824</ele>
        <time>2018-09-22T06:08:30Z</time>
      </trkpt>
      <trkpt lat="42.270039" lon="1.739027">
        <ele>1770.948</ele>
        <time>2018-09-22T06:08:31Z</time>
      </trkpt>
      <trkpt lat="42.270046" lon="1.739028">
        <ele>1771.294</ele>
        <time>2018-09-22T06:08:32Z</time>
      </trkpt>
      <trkpt lat="42.270053" lon="1.739032">
        <ele>1771.454</ele>
        <time>2018-09-22T06:08:33Z</time>
      </trkpt>
      <trkpt lat="42.270072" lon="1.739044">
        <ele>1772.026</ele>
        <time>2018-09-22T06:08:35Z</time>
      </trkpt>
      <trkpt lat="42.270082" lon="1.739042">
        <ele>1772.488</ele>
        <time>2018-09-22T06:08:36Z</time>
      </trkpt>
      <trkpt lat="42.270104" lon="1.739023">
        <ele>1773.431</ele>
        <time>2018-09-22T06:08:40Z</time>
      </trkpt>
      <trkpt lat="42.270111" lon="1.739005">
        <ele>1773.861</ele>
        <time>2018-09-22T06:08:42Z</time>
      </trkpt>
      <trkpt lat="42.270119" lon="1.738992">
        <ele>1774.307</ele>
        <time>2018-09-22T06:08:44Z</time>
      </trkpt>
      <trkpt lat="42.270117" lon="1.738983">
        <ele>1774.308</ele>
        <time>2018-09-22T06:08:45Z</time>
      </trkpt>
      <trkpt lat="42.270121" lon="1.738975">
        <ele>1774.545</ele>
        <time>2018-09-22T06:08:46Z</time>
      </trkpt>
      <trkpt lat="42.270118" lon="1.738965">
        <ele>1774.561</ele>
        <time>2018-09-22T06:08:47Z</time>
      </trkpt>
      <trkpt lat="42.270130" lon="1.738944">
        <ele>1775.152</ele>
        <time>2018-09-22T06:08:49Z</time>
      </trkpt>
      <trkpt lat="42.270143" lon="1.738936">
        <ele>1775.736</ele>
        <time>2018-09-22T06:08:50Z</time>
      </trkpt>
      <trkpt lat="42.270161" lon="1.738935">
        <ele>1776.412</ele>
        <time>2018-09-22T06:08:52Z</time>
      </trkpt>
      <trkpt lat="42.270174" lon="1.738945">
        <ele>1776.842</ele>
        <time>2018-09-22T06:08:53Z</time>
      </trkpt>
      <trkpt lat="42.270196" lon="1.738959">
        <ele>1777.474</ele>
        <time>2018-09-22T06:08:55Z</time>
      </trkpt>
      <trkpt lat="42.270221" lon="1.738971">
        <ele>1778.266</ele>
        <time>2018-09-22T06:08:58Z</time>
      </trkpt>
      <trkpt lat="42.270245" lon="1.738969">
        <ele>1779.294</ele>
        <time>2018-09-22T06:09:01Z</time>
      </trkpt>
      <trkpt lat="42.270275" lon="1.738965">
        <ele>1780.357</ele>
        <time>2018-09-22T06:09:04Z</time>
      </trkpt>
      <trkpt lat="42.270281" lon="1.738966">
        <ele>1780.522</ele>
        <time>2018-09-22T06:09:05Z</time>
      </trkpt>
      <trkpt lat="42.270286" lon="1.738966">
        <ele>1780.708</ele>
        <time>2018-09-22T06:09:06Z</time>
      </trkpt>
      <trkpt lat="42.270291" lon="1.738967">
        <ele>1780.981</ele>
        <time>2018-09-22T06:09:07Z</time>
      </trkpt>
      <trkpt lat="42.270299" lon="1.738959">
        <ele>1781.387</ele>
        <time>2018-09-22T06:09:09Z</time>
      </trkpt>
      <trkpt lat="42.270317" lon="1.738938">
        <ele>1782.138</ele>
        <time>2018-09-22T06:09:12Z</time>
      </trkpt>
      <trkpt lat="42.270325" lon="1.738935">
        <ele>1782.552</ele>
        <time>2018-09-22T06:09:13Z</time>
      </trkpt>
      <trkpt lat="42.270328" lon="1.738932">
        <ele>1782.658</ele>
        <time>2018-09-22T06:09:14Z</time>
      </trkpt>
      <trkpt lat="42.270336" lon="1.738922">
        <ele>1783.088</ele>
        <time>2018-09-22T06:09:16Z</time>
      </trkpt>
      <trkpt lat="42.270338" lon="1.738922">
        <ele>1783.180</ele>
        <time>2018-09-22T06:09:17Z</time>
      </trkpt>
      <trkpt lat="42.270341" lon="1.738919">
        <ele>1783.212</ele>
        <time>2018-09-22T06:09:18Z</time>
      </trkpt>
      <trkpt lat="42.270354" lon="1.738901">
        <ele>1783.928</ele>
        <time>2018-09-22T06:09:20Z</time>
      </trkpt>
      <trkpt lat="42.270359" lon="1.738896">
        <ele>1784.189</ele>
        <time>2018-09-22T06:09:21Z</time>
      </trkpt>
      <trkpt lat="42.270366" lon="1.738894">
        <ele>1784.417</ele>
        <time>2018-09-22T06:09:22Z</time>
      </trkpt>
      <trkpt lat="42.270374" lon="1.738890">
        <ele>1784.708</ele>
        <time>2018-09-22T06:09:24Z</time>
      </trkpt>
      <trkpt lat="42.270376" lon="1.738887">
        <ele>1784.944</ele>
        <time>2018-09-22T06:09:25Z</time>
      </trkpt>
      <trkpt lat="42.270392" lon="1.738869">
        <ele>1785.650</ele>
        <time>2018-09-22T06:09:27Z</time>
      </trkpt>
      <trkpt lat="42.270403" lon="1.738859">
        <ele>1786.261</ele>
        <time>2018-09-22T06:09:29Z</time>
      </trkpt>
      <trkpt lat="42.270453" lon="1.738871">
        <ele>1788.015</ele>
        <time>2018-09-22T06:09:33Z</time>
      </trkpt>
      <trkpt lat="42.270464" lon="1.738876">
        <ele>1788.471</ele>
        <time>2018-09-22T06:09:34Z</time>
      </trkpt>
      <trkpt lat="42.270476" lon="1.738884">
        <ele>1788.861</ele>
        <time>2018-09-22T06:09:35Z</time>
      </trkpt>
      <trkpt lat="42.270487" lon="1.738888">
        <ele>1789.213</ele>
        <time>2018-09-22T06:09:36Z</time>
      </trkpt>
      <trkpt lat="42.270496" lon="1.738894">
        <ele>1789.645</ele>
        <time>2018-09-22T06:09:37Z</time>
      </trkpt>
      <trkpt lat="42.270507" lon="1.738900">
        <ele>1789.979</ele>
        <time>2018-09-22T06:09:38Z</time>
      </trkpt>
      <trkpt lat="42.270518" lon="1.738902">
        <ele>1790.305</ele>
        <time>2018-09-22T06:09:40Z</time>
      </trkpt>
      <trkpt lat="42.270529" lon="1.738900">
        <ele>1790.825</ele>
        <time>2018-09-22T06:09:41Z</time>
      </trkpt>
      <trkpt lat="42.270535" lon="1.738895">
        <ele>1791.108</ele>
        <time>2018-09-22T06:09:42Z</time>
      </trkpt>
      <trkpt lat="42.270540" lon="1.738893">
        <ele>1791.389</ele>
        <time>2018-09-22T06:09:43Z</time>
      </trkpt>
      <trkpt lat="42.270547" lon="1.738886">
        <ele>1791.635</ele>
        <time>2018-09-22T06:09:44Z</time>
      </trkpt>
      <trkpt lat="42.270569" lon="1.738872">
        <ele>1792.656</ele>
        <time>2018-09-22T06:09:46Z</time>
      </trkpt>
      <trkpt lat="42.270585" lon="1.738871">
        <ele>1793.160</ele>
        <time>2018-09-22T06:09:48Z</time>
      </trkpt>
      <trkpt lat="42.270610" lon="1.738858">
        <ele>1794.136</ele>
        <time>2018-09-22T06:09:50Z</time>
      </trkpt>
      <trkpt lat="42.270624" lon="1.738860">
        <ele>1794.676</ele>
        <time>2018-09-22T06:09:51Z</time>
      </trkpt>
      <trkpt lat="42.270638" lon="1.738865">
        <ele>1795.178</ele>
        <time>2018-09-22T06:09:52Z</time>
      </trkpt>
      <trkpt lat="42.270658" lon="1.738887">
        <ele>1795.790</ele>
        <time>2018-09-22T06:09:54Z</time>
      </trkpt>
      <trkpt lat="42.270673" lon="1.738906">
        <ele>1796.047</ele>
        <time>2018-09-22T06:09:57Z</time>
      </trkpt>
      <trkpt lat="42.270682" lon="1.738901">
        <ele>1796.429</ele>
        <time>2018-09-22T06:09:58Z</time>
      </trkpt>
      <trkpt lat="42.270690" lon="1.738898">
        <ele>1796.721</ele>
        <time>2018-09-22T06:09:59Z</time>
      </trkpt>
      <trkpt lat="42.270705" lon="1.738886">
        <ele>1797.308</ele>
        <time>2018-09-22T06:10:01Z</time>
      </trkpt>
      <trkpt lat="42.270713" lon="1.738894">
        <ele>1797.646</ele>
        <time>2018-09-22T06:10:02Z</time>
      </trkpt>
      <trkpt lat="42.270724" lon="1.738899">
        <ele>1797.992</ele>
        <time>2018-09-22T06:10:03Z</time>
      </trkpt>
      <trkpt lat="42.270740" lon="1.738904">
        <ele>1798.523</ele>
        <time>2018-09-22T06:10:05Z</time>
      </trkpt>
      <trkpt lat="42.270753" lon="1.738899">
        <ele>1799.067</ele>
        <time>2018-09-22T06:10:07Z</time>
      </trkpt>
      <trkpt lat="42.270756" lon="1.738896">
        <ele>1799.153</ele>
        <time>2018-09-22T06:10:08Z</time>
      </trkpt>
      <trkpt lat="42.270757" lon="1.738891">
        <ele>1799.233</ele>
        <time>2018-09-22T06:10:09Z</time>
      </trkpt>
      <trkpt lat="42.270777" lon="1.738875">
        <ele>1800.095</ele>
        <time>2018-09-22T06:10:12Z</time>
      </trkpt>
      <trkpt lat="42.270795" lon="1.738861">
        <ele>1800.837</ele>
        <time>2018-09-22T06:10:16Z</time>
      </trkpt>
      <trkpt lat="42.270802" lon="1.738856">
        <ele>1801.063</ele>
        <time>2018-09-22T06:10:17Z</time>
      </trkpt>
      <trkpt lat="42.270819" lon="1.738825">
        <ele>1801.944</ele>
        <time>2018-09-22T06:10:20Z</time>
      </trkpt>
      <trkpt lat="42.270824" lon="1.738818">
        <ele>1802.118</ele>
        <time>2018-09-22T06:10:21Z</time>
      </trkpt>
      <trkpt lat="42.270831" lon="1.738805">
        <ele>1802.508</ele>
        <time>2018-09-22T06:10:22Z</time>
      </trkpt>
      <trkpt lat="42.270851" lon="1.738785">
        <ele>1803.368</ele>
        <time>2018-09-22T06:10:24Z</time>
      </trkpt>
      <trkpt lat="42.270864" lon="1.738782">
        <ele>1803.844</ele>
        <time>2018-09-22T06:10:25Z</time>
      </trkpt>
      <trkpt lat="42.270872" lon="1.738778">
        <ele>1804.165</ele>
        <time>2018-09-22T06:10:26Z</time>
      </trkpt>
      <trkpt lat="42.270890" lon="1.738778">
        <ele>1804.869</ele>
        <time>2018-09-22T06:10:28Z</time>
      </trkpt>
      <trkpt lat="42.270905" lon="1.738773">
        <ele>1805.325</ele>
        <time>2018-09-22T06:10:30Z</time>
      </trkpt>
      <trkpt lat="42.270921" lon="1.738742">
        <ele>1806.075</ele>
        <time>2018-09-22T06:10:33Z</time>
      </trkpt>
      <trkpt lat="42.270929" lon="1.738731">
        <ele>1806.367</ele>
        <time>2018-09-22T06:10:34Z</time>
      </trkpt>
      <trkpt lat="42.270936" lon="1.738720">
        <ele>1806.619</ele>
        <time>2018-09-22T06:10:35Z</time>
      </trkpt>
      <trkpt lat="42.270950" lon="1.738699">
        <ele>1807.184</ele>
        <time>2018-09-22T06:10:37Z</time>
      </trkpt>
      <trkpt lat="42.270966" lon="1.738697">
        <ele>1807.607</ele>
        <time>2018-09-22T06:10:39Z</time>
      </trkpt>
      <trkpt lat="42.270998" lon="1.738685">
        <ele>1808.617</ele>
        <time>2018-09-22T06:10:42Z</time>
      </trkpt>
      <trkpt lat="42.271008" lon="1.738686">
        <ele>1809.008</ele>
        <time>2018-09-22T06:10:43Z</time>
      </trkpt>
      <trkpt lat="42.271021" lon="1.738691">
        <ele>1809.490</ele>
        <time>2018-09-22T06:10:44Z</time>
      </trkpt>
      <trkpt lat="42.271052" lon="1.738702">
        <ele>1810.426</ele>
        <time>2018-09-22T06:10:47Z</time>
      </trkpt>
      <trkpt lat="42.271086" lon="1.738710">
        <ele>1811.597</ele>
        <time>2018-09-22T06:10:51Z</time>
      </trkpt>
      <trkpt lat="42.271091" lon="1.738707">
        <ele>1811.651</ele>
        <time>2018-09-22T06:10:52Z</time>
      </trkpt>
      <trkpt lat="42.271109" lon="1.738720">
        <ele>1812.397</ele>
        <time>2018-09-22T06:10:55Z</time>
      </trkpt>
      <trkpt lat="42.271118" lon="1.738716">
        <ele>1812.757</ele>
        <time>2018-09-22T06:10:57Z</time>
      </trkpt>
      <trkpt lat="42.271151" lon="1.738721">
        <ele>1814.479</ele>
        <time>2018-09-22T06:11:00Z</time>
      </trkpt>
      <trkpt lat="42.271176" lon="1.738776">
        <ele>1815.821</ele>
        <time>2018-09-22T06:11:04Z</time>
      </trkpt>
      <trkpt lat="42.271185" lon="1.738797">
        <ele>1816.332</ele>
        <time>2018-09-22T06:11:06Z</time>
      </trkpt>
      <trkpt lat="42.271190" lon="1.738804">
        <ele>1816.592</ele>
        <time>2018-09-22T06:11:07Z</time>
      </trkpt>
      <trkpt lat="42.271196" lon="1.738813">
        <ele>1816.811</ele>
        <time>2018-09-22T06:11:08Z</time>
      </trkpt>
      <trkpt lat="42.271199" lon="1.738820">
        <ele>1817.008</ele>
        <time>2018-09-22T06:11:09Z</time>
      </trkpt>
      <trkpt lat="42.271207" lon="1.738830">
        <ele>1817.455</ele>
        <time>2018-09-22T06:11:10Z</time>
      </trkpt>
      <trkpt lat="42.271214" lon="1.738831">
        <ele>1817.741</ele>
        <time>2018-09-22T06:11:11Z</time>
      </trkpt>
      <trkpt lat="42.271228" lon="1.738839">
        <ele>1818.462</ele>
        <time>2018-09-22T06:11:12Z</time>
      </trkpt>
      <trkpt lat="42.271238" lon="1.738848">
        <ele>1818.926</ele>
        <time>2018-09-22T06:11:13Z</time>
      </trkpt>
      <trkpt lat="42.271253" lon="1.738853">
        <ele>1819.662</ele>
        <time>2018-09-22T06:11:15Z</time>
      </trkpt>
      <trkpt lat="42.271282" lon="1.738837">
        <ele>1821.012</ele>
        <time>2018-09-22T06:11:18Z</time>
      </trkpt>
      <trkpt lat="42.271292" lon="1.738845">
        <ele>1821.594</ele>
        <time>2018-09-22T06:11:19Z</time>
      </trkpt>
      <trkpt lat="42.271314" lon="1.738860">
        <ele>1822.536</ele>
        <time>2018-09-22T06:11:21Z</time>
      </trkpt>
      <trkpt lat="42.271322" lon="1.738865">
        <ele>1822.985</ele>
        <time>2018-09-22T06:11:22Z</time>
      </trkpt>
      <trkpt lat="42.271330" lon="1.738866">
        <ele>1823.289</ele>
        <time>2018-09-22T06:11:23Z</time>
      </trkpt>
      <trkpt lat="42.271351" lon="1.738879">
        <ele>1824.217</ele>
        <time>2018-09-22T06:11:26Z</time>
      </trkpt>
      <trkpt lat="42.271354" lon="1.738877">
        <ele>1824.408</ele>
        <time>2018-09-22T06:11:30Z</time>
      </trkpt>
      <trkpt lat="42.271356" lon="1.738891">
        <ele>1824.470</ele>
        <time>2018-09-22T06:11:32Z</time>
      </trkpt>
      <trkpt lat="42.271369" lon="1.738898">
        <ele>1825.076</ele>
        <time>2018-09-22T06:11:34Z</time>
      </trkpt>
      <trkpt lat="42.271377" lon="1.738903">
        <ele>1825.427</ele>
        <time>2018-09-22T06:11:36Z</time>
      </trkpt>
      <trkpt lat="42.271383" lon="1.738909">
        <ele>1825.631</ele>
        <time>2018-09-22T06:11:37Z</time>
      </trkpt>
      <trkpt lat="42.271390" lon="1.738908">
        <ele>1826.037</ele>
        <time>2018-09-22T06:11:38Z</time>
      </trkpt>
      <trkpt lat="42.271397" lon="1.738905">
        <ele>1826.437</ele>
        <time>2018-09-22T06:11:39Z</time>
      </trkpt>
      <trkpt lat="42.271405" lon="1.738908">
        <ele>1826.839</ele>
        <time>2018-09-22T06:11:40Z</time>
      </trkpt>
      <trkpt lat="42.271416" lon="1.738915">
        <ele>1827.441</ele>
        <time>2018-09-22T06:11:42Z</time>
      </trkpt>
      <trkpt lat="42.271431" lon="1.738925">
        <ele>1828.296</ele>
        <time>2018-09-22T06:11:44Z</time>
      </trkpt>
      <trkpt lat="42.271463" lon="1.738970">
        <ele>1829.831</ele>
        <time>2018-09-22T06:11:48Z</time>
      </trkpt>
      <trkpt lat="42.271472" lon="1.738970">
        <ele>1830.324</ele>
        <time>2018-09-22T06:11:49Z</time>
      </trkpt>
      <trkpt lat="42.271487" lon="1.738980">
        <ele>1831.208</ele>
        <time>2018-09-22T06:11:51Z</time>
      </trkpt>
      <trkpt lat="42.271493" lon="1.738996">
        <ele>1831.471</ele>
        <time>2018-09-22T06:11:52Z</time>
      </trkpt>
      <trkpt lat="42.271500" lon="1.739009">
        <ele>1831.857</ele>
        <time>2018-09-22T06:11:53Z</time>
      </trkpt>
      <trkpt lat="42.271513" lon="1.739041">
        <ele>1832.338</ele>
        <time>2018-09-22T06:11:55Z</time>
      </trkpt>
      <trkpt lat="42.271529" lon="1.739073">
        <ele>1833.092</ele>
        <time>2018-09-22T06:11:57Z</time>
      </trkpt>
      <trkpt lat="42.271536" lon="1.739081">
        <ele>1833.318</ele>
        <time>2018-09-22T06:11:58Z</time>
      </trkpt>
      <trkpt lat="42.271544" lon="1.739090">
        <ele>1833.858</ele>
        <time>2018-09-22T06:11:59Z</time>
      </trkpt>
      <trkpt lat="42.271566" lon="1.739118">
        <ele>1834.850</ele>
        <time>2018-09-22T06:12:02Z</time>
      </trkpt>
      <trkpt lat="42.271576" lon="1.739132">
        <ele>1835.382</ele>
        <time>2018-09-22T06:12:04Z</time>
      </trkpt>
      <trkpt lat="42.271584" lon="1.739132">
        <ele>1835.721</ele>
        <time>2018-09-22T06:12:05Z</time>
      </trkpt>
      <trkpt lat="42.271590" lon="1.739139">
        <ele>1836.041</ele>
        <time>2018-09-22T06:12:07Z</time>
      </trkpt>
      <trkpt lat="42.271592" lon="1.739145">
        <ele>1836.005</ele>
        <time>2018-09-22T06:12:08Z</time>
      </trkpt>
      <trkpt lat="42.271597" lon="1.739152">
        <ele>1836.308</ele>
        <time>2018-09-22T06:12:09Z</time>
      </trkpt>
      <trkpt lat="42.271624" lon="1.739179">
        <ele>1837.674</ele>
        <time>2018-09-22T06:12:13Z</time>
      </trkpt>
      <trkpt lat="42.271635" lon="1.739201">
        <ele>1838.150</ele>
        <time>2018-09-22T06:12:15Z</time>
      </trkpt>
      <trkpt lat="42.271633" lon="1.739208">
        <ele>1838.081</ele>
        <time>2018-09-22T06:12:16Z</time>
      </trkpt>
      <trkpt lat="42.271636" lon="1.739207">
        <ele>1838.145</ele>
        <time>2018-09-22T06:12:17Z</time>
      </trkpt>
      <trkpt lat="42.271643" lon="1.739202">
        <ele>1838.581</ele>
        <time>2018-09-22T06:12:19Z</time>
      </trkpt>
      <trkpt lat="42.271645" lon="1.739194">
        <ele>1838.721</ele>
        <time>2018-09-22T06:12:20Z</time>
      </trkpt>
      <trkpt lat="42.271647" lon="1.739184">
        <ele>1838.883</ele>
        <time>2018-09-22T06:12:21Z</time>
      </trkpt>
      <trkpt lat="42.271653" lon="1.739163">
        <ele>1839.395</ele>
        <time>2018-09-22T06:12:23Z</time>
      </trkpt>
      <trkpt lat="42.271659" lon="1.739139">
        <ele>1839.727</ele>
        <time>2018-09-22T06:12:25Z</time>
      </trkpt>
      <trkpt lat="42.271674" lon="1.739130">
        <ele>1840.668</ele>
        <time>2018-09-22T06:12:27Z</time>
      </trkpt>
      <trkpt lat="42.271701" lon="1.739146">
        <ele>1842.114</ele>
        <time>2018-09-22T06:12:29Z</time>
      </trkpt>
      <trkpt lat="42.271711" lon="1.739158">
        <ele>1842.508</ele>
        <time>2018-09-22T06:12:30Z</time>
      </trkpt>
      <trkpt lat="42.271718" lon="1.739163">
        <ele>1842.954</ele>
        <time>2018-09-22T06:12:31Z</time>
      </trkpt>
      <trkpt lat="42.271724" lon="1.739163">
        <ele>1843.370</ele>
        <time>2018-09-22T06:12:32Z</time>
      </trkpt>
      <trkpt lat="42.271728" lon="1.739157">
        <ele>1843.511</ele>
        <time>2018-09-22T06:12:33Z</time>
      </trkpt>
      <trkpt lat="42.271732" lon="1.739149">
        <ele>1843.895</ele>
        <time>2018-09-22T06:12:34Z</time>
      </trkpt>
      <trkpt lat="42.271742" lon="1.739136">
        <ele>1844.561</ele>
        <time>2018-09-22T06:12:37Z</time>
      </trkpt>
      <trkpt lat="42.271747" lon="1.739141">
        <ele>1844.851</ele>
        <time>2018-09-22T06:12:38Z</time>
      </trkpt>
      <trkpt lat="42.271765" lon="1.739151">
        <ele>1845.713</ele>
        <time>2018-09-22T06:12:41Z</time>
      </trkpt>
      <trkpt lat="42.271790" lon="1.739175">
        <ele>1847.075</ele>
        <time>2018-09-22T06:12:45Z</time>
      </trkpt>
      <trkpt lat="42.271795" lon="1.739180">
        <ele>1847.341</ele>
        <time>2018-09-22T06:12:46Z</time>
      </trkpt>
      <trkpt lat="42.271799" lon="1.739187">
        <ele>1847.581</ele>
        <time>2018-09-22T06:12:47Z</time>
      </trkpt>
      <trkpt lat="42.271803" lon="1.739189">
        <ele>1847.709</ele>
        <time>2018-09-22T06:12:48Z</time>
      </trkpt>
      <trkpt lat="42.271806" lon="1.739193">
        <ele>1847.908</ele>
        <time>2018-09-22T06:12:49Z</time>
      </trkpt>
      <trkpt lat="42.271818" lon="1.739188">
        <ele>1848.666</ele>
        <time>2018-09-22T06:12:52Z</time>
      </trkpt>
      <trkpt lat="42.271845" lon="1.739211">
        <ele>1850.032</ele>
        <time>2018-09-22T06:12:55Z</time>
      </trkpt>
      <trkpt lat="42.271872" lon="1.739230">
        <ele>1851.423</ele>
        <time>2018-09-22T06:12:58Z</time>
      </trkpt>
      <trkpt lat="42.271879" lon="1.739233">
        <ele>1851.797</ele>
        <time>2018-09-22T06:12:59Z</time>
      </trkpt>
      <trkpt lat="42.271883" lon="1.739242">
        <ele>1851.963</ele>
        <time>2018-09-22T06:13:00Z</time>
      </trkpt>
      <trkpt lat="42.271881" lon="1.739245">
        <ele>1851.863</ele>
        <time>2018-09-22T06:13:04Z</time>
      </trkpt>
      <trkpt lat="42.271902" lon="1.739218">
        <ele>1853.265</ele>
        <time>2018-09-22T06:13:09Z</time>
      </trkpt>
      <trkpt lat="42.271912" lon="1.739219">
        <ele>1853.777</ele>
        <time>2018-09-22T06:13:10Z</time>
      </trkpt>
      <trkpt lat="42.271946" lon="1.739208">
        <ele>1855.792</ele>
        <time>2018-09-22T06:13:14Z</time>
      </trkpt>
      <trkpt lat="42.271955" lon="1.739194">
        <ele>1856.373</ele>
        <time>2018-09-22T06:13:18Z</time>
      </trkpt>
      <trkpt lat="42.271974" lon="1.739173">
        <ele>1857.520</ele>
        <time>2018-09-22T06:13:23Z</time>
      </trkpt>
      <trkpt lat="42.271993" lon="1.739131">
        <ele>1858.808</ele>
        <time>2018-09-22T06:13:27Z</time>
      </trkpt>
      <trkpt lat="42.272021" lon="1.739106">
        <ele>1860.531</ele>
        <time>2018-09-22T06:13:32Z</time>
      </trkpt>
      <trkpt lat="42.272022" lon="1.739098">
        <ele>1860.657</ele>
        <time>2018-09-22T06:13:33Z</time>
      </trkpt>
      <trkpt lat="42.272028" lon="1.739095">
        <ele>1860.968</ele>
        <time>2018-09-22T06:13:37Z</time>
      </trkpt>
      <trkpt lat="42.272033" lon="1.739097">
        <ele>1861.292</ele>
        <time>2018-09-22T06:13:46Z</time>
      </trkpt>
      <trkpt lat="42.272032" lon="1.739094">
        <ele>1861.148</ele>
        <time>2018-09-22T06:13:47Z</time>
      </trkpt>
      <trkpt lat="42.272033" lon="1.739090">
        <ele>1861.288</ele>
        <time>2018-09-22T06:13:54Z</time>
      </trkpt>
      <trkpt lat="42.272030" lon="1.739078">
        <ele>1861.160</ele>
        <time>2018-09-22T06:13:59Z</time>
      </trkpt>
      <trkpt lat="42.272034" lon="1.739060">
        <ele>1861.482</ele>
        <time>2018-09-22T06:14:01Z</time>
      </trkpt>
      <trkpt lat="42.272046" lon="1.739044">
        <ele>1862.256</ele>
        <time>2018-09-22T06:14:04Z</time>
      </trkpt>
      <trkpt lat="42.272056" lon="1.739035">
        <ele>1862.759</ele>
        <time>2018-09-22T06:14:06Z</time>
      </trkpt>
      <trkpt lat="42.272073" lon="1.739025">
        <ele>1863.714</ele>
        <time>2018-09-22T06:14:09Z</time>
      </trkpt>
      <trkpt lat="42.272096" lon="1.739003">
        <ele>1865.008</ele>
        <time>2018-09-22T06:14:13Z</time>
      </trkpt>
      <trkpt lat="42.272114" lon="1.738976">
        <ele>1866.187</ele>
        <time>2018-09-22T06:14:16Z</time>
      </trkpt>
      <trkpt lat="42.272118" lon="1.738970">
        <ele>1866.323</ele>
        <time>2018-09-22T06:14:17Z</time>
      </trkpt>
      <trkpt lat="42.272132" lon="1.738953">
        <ele>1867.144</ele>
        <time>2018-09-22T06:14:20Z</time>
      </trkpt>
      <trkpt lat="42.272137" lon="1.738941">
        <ele>1867.468</ele>
        <time>2018-09-22T06:14:21Z</time>
      </trkpt>
      <trkpt lat="42.272151" lon="1.738934">
        <ele>1868.284</ele>
        <time>2018-09-22T06:14:23Z</time>
      </trkpt>
      <trkpt lat="42.272156" lon="1.738929">
        <ele>1868.494</ele>
        <time>2018-09-22T06:14:24Z</time>
      </trkpt>
      <trkpt lat="42.272160" lon="1.738926">
        <ele>1868.726</ele>
        <time>2018-09-22T06:14:25Z</time>
      </trkpt>
      <trkpt lat="42.272166" lon="1.738920">
        <ele>1869.038</ele>
        <time>2018-09-22T06:14:26Z</time>
      </trkpt>
      <trkpt lat="42.272174" lon="1.738916">
        <ele>1869.466</ele>
        <time>2018-09-22T06:14:27Z</time>
      </trkpt>
      <trkpt lat="42.272185" lon="1.738891">
        <ele>1870.029</ele>
        <time>2018-09-22T06:14:30Z</time>
      </trkpt>
      <trkpt lat="42.272207" lon="1.738866">
        <ele>1871.421</ele>
        <time>2018-09-22T06:14:34Z</time>
      </trkpt>
      <trkpt lat="42.272224" lon="1.738854">
        <ele>1872.408</ele>
        <time>2018-09-22T06:14:38Z</time>
      </trkpt>
      <trkpt lat="42.272243" lon="1.738815">
        <ele>1874.068</ele>
        <time>2018-09-22T06:14:45Z</time>
      </trkpt>
      <trkpt lat="42.272254" lon="1.738780">
        <ele>1875.014</ele>
        <time>2018-09-22T06:14:49Z</time>
      </trkpt>
      <trkpt lat="42.272261" lon="1.738779">
        <ele>1875.455</ele>
        <time>2018-09-22T06:14:52Z</time>
      </trkpt>
      <trkpt lat="42.272297" lon="1.738775">
        <ele>1877.579</ele>
        <time>2018-09-22T06:14:59Z</time>
      </trkpt>
      <trkpt lat="42.272307" lon="1.738745">
        <ele>1878.445</ele>
        <time>2018-09-22T06:15:03Z</time>
      </trkpt>
      <trkpt lat="42.272310" lon="1.738719">
        <ele>1878.785</ele>
        <time>2018-09-22T06:15:06Z</time>
      </trkpt>
      <trkpt lat="42.272321" lon="1.738704">
        <ele>1879.587</ele>
        <time>2018-09-22T06:15:08Z</time>
      </trkpt>
      <trkpt lat="42.272327" lon="1.738700">
        <ele>1879.949</ele>
        <time>2018-09-22T06:15:09Z</time>
      </trkpt>
      <trkpt lat="42.272342" lon="1.738693">
        <ele>1880.876</ele>
        <time>2018-09-22T06:15:11Z</time>
      </trkpt>
      <trkpt lat="42.272347" lon="1.738687">
        <ele>1881.190</ele>
        <time>2018-09-22T06:15:12Z</time>
      </trkpt>
      <trkpt lat="42.272351" lon="1.738663">
        <ele>1881.519</ele>
        <time>2018-09-22T06:15:15Z</time>
      </trkpt>
      <trkpt lat="42.272363" lon="1.738637">
        <ele>1882.408</ele>
        <time>2018-09-22T06:15:19Z</time>
      </trkpt>
      <trkpt lat="42.272385" lon="1.738597">
        <ele>1883.869</ele>
        <time>2018-09-22T06:15:25Z</time>
      </trkpt>
      <trkpt lat="42.272394" lon="1.738559">
        <ele>1884.365</ele>
        <time>2018-09-22T06:15:30Z</time>
      </trkpt>
      <trkpt lat="42.272423" lon="1.738542">
        <ele>1886.086</ele>
        <time>2018-09-22T06:15:35Z</time>
      </trkpt>
      <trkpt lat="42.272427" lon="1.738539">
        <ele>1886.250</ele>
        <time>2018-09-22T06:15:36Z</time>
      </trkpt>
      <trkpt lat="42.272445" lon="1.738542">
        <ele>1887.246</ele>
        <time>2018-09-22T06:15:38Z</time>
      </trkpt>
      <trkpt lat="42.272457" lon="1.738539">
        <ele>1887.836</ele>
        <time>2018-09-22T06:15:40Z</time>
      </trkpt>
      <trkpt lat="42.272459" lon="1.738533">
        <ele>1888.018</ele>
        <time>2018-09-22T06:15:41Z</time>
      </trkpt>
      <trkpt lat="42.272470" lon="1.738508">
        <ele>1888.610</ele>
        <time>2018-09-22T06:15:44Z</time>
      </trkpt>
      <trkpt lat="42.272477" lon="1.738502">
        <ele>1889.146</ele>
        <time>2018-09-22T06:15:45Z</time>
      </trkpt>
      <trkpt lat="42.272495" lon="1.738472">
        <ele>1890.188</ele>
        <time>2018-09-22T06:15:50Z</time>
      </trkpt>
      <trkpt lat="42.272501" lon="1.738440">
        <ele>1890.716</ele>
        <time>2018-09-22T06:15:53Z</time>
      </trkpt>
      <trkpt lat="42.272510" lon="1.738426">
        <ele>1891.208</ele>
        <time>2018-09-22T06:15:55Z</time>
      </trkpt>
      <trkpt lat="42.272514" lon="1.738417">
        <ele>1891.586</ele>
        <time>2018-09-22T06:15:56Z</time>
      </trkpt>
      <trkpt lat="42.272516" lon="1.738394">
        <ele>1891.612</ele>
        <time>2018-09-22T06:15:58Z</time>
      </trkpt>
      <trkpt lat="42.272517" lon="1.738385">
        <ele>1891.733</ele>
        <time>2018-09-22T06:15:59Z</time>
      </trkpt>
      <trkpt lat="42.272524" lon="1.738357">
        <ele>1892.287</ele>
        <time>2018-09-22T06:16:02Z</time>
      </trkpt>
      <trkpt lat="42.272525" lon="1.738351">
        <ele>1892.393</ele>
        <time>2018-09-22T06:16:03Z</time>
      </trkpt>
      <trkpt lat="42.272539" lon="1.738317">
        <ele>1892.783</ele>
        <time>2018-09-22T06:16:07Z</time>
      </trkpt>
      <trkpt lat="42.272542" lon="1.738309">
        <ele>1892.815</ele>
        <time>2018-09-22T06:16:08Z</time>
      </trkpt>
      <trkpt lat="42.272551" lon="1.738292">
        <ele>1892.917</ele>
        <time>2018-09-22T06:16:10Z</time>
      </trkpt>
      <trkpt lat="42.272566" lon="1.738265">
        <ele>1893.248</ele>
        <time>2018-09-22T06:16:14Z</time>
      </trkpt>
      <trkpt lat="42.272597" lon="1.738244">
        <ele>1894.561</ele>
        <time>2018-09-22T06:16:19Z</time>
      </trkpt>
      <trkpt lat="42.272653" lon="1.738286">
        <ele>1898.317</ele>
        <time>2018-09-22T06:16:26Z</time>
      </trkpt>
      <trkpt lat="42.272660" lon="1.738291">
        <ele>1898.708</ele>
        <time>2018-09-22T06:16:27Z</time>
      </trkpt>
      <trkpt lat="42.272674" lon="1.738293">
        <ele>1899.586</ele>
        <time>2018-09-22T06:16:29Z</time>
      </trkpt>
      <trkpt lat="42.272682" lon="1.738295">
        <ele>1900.072</ele>
        <time>2018-09-22T06:16:30Z</time>
      </trkpt>
      <trkpt lat="42.272715" lon="1.738291">
        <ele>1901.713</ele>
        <time>2018-09-22T06:16:35Z</time>
      </trkpt>
      <trkpt lat="42.272740" lon="1.738278">
        <ele>1902.757</ele>
        <time>2018-09-22T06:16:39Z</time>
      </trkpt>
      <trkpt lat="42.272747" lon="1.738273">
        <ele>1903.093</ele>
        <time>2018-09-22T06:16:40Z</time>
      </trkpt>
      <trkpt lat="42.272761" lon="1.738263">
        <ele>1903.663</ele>
        <time>2018-09-22T06:16:43Z</time>
      </trkpt>
      <trkpt lat="42.272766" lon="1.738258">
        <ele>1903.745</ele>
        <time>2018-09-22T06:16:44Z</time>
      </trkpt>
      <trkpt lat="42.272771" lon="1.738259">
        <ele>1904.027</ele>
        <time>2018-09-22T06:16:45Z</time>
      </trkpt>
      <trkpt lat="42.272787" lon="1.738256">
        <ele>1904.881</ele>
        <time>2018-09-22T06:16:48Z</time>
      </trkpt>
      <trkpt lat="42.272804" lon="1.738240">
        <ele>1905.461</ele>
        <time>2018-09-22T06:16:52Z</time>
      </trkpt>
      <trkpt lat="42.272810" lon="1.738218">
        <ele>1905.317</ele>
        <time>2018-09-22T06:16:55Z</time>
      </trkpt>
      <trkpt lat="42.272813" lon="1.738214">
        <ele>1905.408</ele>
        <time>2018-09-22T06:16:56Z</time>
      </trkpt>
      <trkpt lat="42.272814" lon="1.738205">
        <ele>1905.230</ele>
        <time>2018-09-22T06:16:57Z</time>
      </trkpt>
      <trkpt lat="42.272820" lon="1.738175">
        <ele>1905.096</ele>
        <time>2018-09-22T06:17:00Z</time>
      </trkpt>
      <trkpt lat="42.272863" lon="1.738195">
        <ele>1907.987</ele>
        <time>2018-09-22T06:17:08Z</time>
      </trkpt>
      <trkpt lat="42.272897" lon="1.738217">
        <ele>1910.331</ele>
        <time>2018-09-22T06:17:13Z</time>
      </trkpt>
      <trkpt lat="42.272903" lon="1.738216">
        <ele>1910.657</ele>
        <time>2018-09-22T06:17:14Z</time>
      </trkpt>
      <trkpt lat="42.272917" lon="1.738215">
        <ele>1911.477</ele>
        <time>2018-09-22T06:17:16Z</time>
      </trkpt>
      <trkpt lat="42.272932" lon="1.738225">
        <ele>1912.519</ele>
        <time>2018-09-22T06:17:18Z</time>
      </trkpt>
      <trkpt lat="42.272939" lon="1.738209">
        <ele>1912.671</ele>
        <time>2018-09-22T06:17:22Z</time>
      </trkpt>
      <trkpt lat="42.272951" lon="1.738207">
        <ele>1913.243</ele>
        <time>2018-09-22T06:17:23Z</time>
      </trkpt>
      <trkpt lat="42.272959" lon="1.738204">
        <ele>1913.664</ele>
        <time>2018-09-22T06:17:24Z</time>
      </trkpt>
      <trkpt lat="42.272961" lon="1.738200">
        <ele>1913.610</ele>
        <time>2018-09-22T06:17:25Z</time>
      </trkpt>
      <trkpt lat="42.272975" lon="1.738176">
        <ele>1913.908</ele>
        <time>2018-09-22T06:17:29Z</time>
      </trkpt>
      <trkpt lat="42.272982" lon="1.738170">
        <ele>1914.246</ele>
        <time>2018-09-22T06:17:30Z</time>
      </trkpt>
      <trkpt lat="42.273004" lon="1.738133">
        <ele>1914.742</ele>
        <time>2018-09-22T06:17:35Z</time>
      </trkpt>
      <trkpt lat="42.273031" lon="1.738129">
        <ele>1916.193</ele>
        <time>2018-09-22T06:17:37Z</time>
      </trkpt>
      <trkpt lat="42.273047" lon="1.738132">
        <ele>1917.127</ele>
        <time>2018-09-22T06:17:39Z</time>
      </trkpt>
      <trkpt lat="42.273073" lon="1.738136">
        <ele>1918.663</ele>
        <time>2018-09-22T06:17:42Z</time>
      </trkpt>
      <trkpt lat="42.273099" lon="1.738146">
        <ele>1920.213</ele>
        <time>2018-09-22T06:17:45Z</time>
      </trkpt>
      <trkpt lat="42.273104" lon="1.738156">
        <ele>1920.745</ele>
        <time>2018-09-22T06:17:47Z</time>
      </trkpt>
      <trkpt lat="42.273114" lon="1.738158">
        <ele>1921.327</ele>
        <time>2018-09-22T06:17:49Z</time>
      </trkpt>
      <trkpt lat="42.273119" lon="1.738160">
        <ele>1921.717</ele>
        <time>2018-09-22T06:17:50Z</time>
      </trkpt>
      <trkpt lat="42.273124" lon="1.738160">
        <ele>1921.987</ele>
        <time>2018-09-22T06:17:52Z</time>
      </trkpt>
      <trkpt lat="42.273133" lon="1.738163">
        <ele>1922.515</ele>
        <time>2018-09-22T06:17:54Z</time>
      </trkpt>
      <trkpt lat="42.273162" lon="1.738157">
        <ele>1923.908</ele>
        <time>2018-09-22T06:17:59Z</time>
      </trkpt>
      <trkpt lat="42.273201" lon="1.738163">
        <ele>1926.113</ele>
        <time>2018-09-22T06:18:04Z</time>
      </trkpt>
      <trkpt lat="42.273223" lon="1.738173">
        <ele>1927.529</ele>
        <time>2018-09-22T06:18:07Z</time>
      </trkpt>
      <trkpt lat="42.273239" lon="1.738168">
        <ele>1928.310</ele>
        <time>2018-09-22T06:18:10Z</time>
      </trkpt>
      <trkpt lat="42.273256" lon="1.738165">
        <ele>1929.184</ele>
        <time>2018-09-22T06:18:13Z</time>
      </trkpt>
      <trkpt lat="42.273273" lon="1.738181">
        <ele>1930.450</ele>
        <time>2018-09-22T06:18:18Z</time>
      </trkpt>
      <trkpt lat="42.273299" lon="1.738204">
        <ele>1932.380</ele>
        <time>2018-09-22T06:18:23Z</time>
      </trkpt>
      <trkpt lat="42.273306" lon="1.738219">
        <ele>1933.022</ele>
        <time>2018-09-22T06:18:26Z</time>
      </trkpt>
      <trkpt lat="42.273309" lon="1.738227">
        <ele>1933.324</ele>
        <time>2018-09-22T06:18:27Z</time>
      </trkpt>
      <trkpt lat="42.273320" lon="1.738254">
        <ele>1934.588</ele>
        <time>2018-09-22T06:18:30Z</time>
      </trkpt>
      <trkpt lat="42.273335" lon="1.738285">
        <ele>1936.024</ele>
        <time>2018-09-22T06:18:35Z</time>
      </trkpt>
      <trkpt lat="42.273341" lon="1.738287">
        <ele>1936.326</ele>
        <time>2018-09-22T06:18:38Z</time>
      </trkpt>
      <trkpt lat="42.273358" lon="1.738276">
        <ele>1937.108</ele>
        <time>2018-09-22T06:18:42Z</time>
      </trkpt>
      <trkpt lat="42.273398" lon="1.738281">
        <ele>1939.490</ele>
        <time>2018-09-22T06:18:48Z</time>
      </trkpt>
      <trkpt lat="42.273415" lon="1.738312">
        <ele>1940.946</ele>
        <time>2018-09-22T06:18:52Z</time>
      </trkpt>
      <trkpt lat="42.273418" lon="1.738325">
        <ele>1941.347</ele>
        <time>2018-09-22T06:18:55Z</time>
      </trkpt>
      <trkpt lat="42.273428" lon="1.738323">
        <ele>1941.961</ele>
        <time>2018-09-22T06:18:57Z</time>
      </trkpt>
      <trkpt lat="42.273450" lon="1.738299">
        <ele>1942.587</ele>
        <time>2018-09-22T06:19:02Z</time>
      </trkpt>
      <trkpt lat="42.273469" lon="1.738287">
        <ele>1943.457</ele>
        <time>2018-09-22T06:19:06Z</time>
      </trkpt>
      <trkpt lat="42.273488" lon="1.738282">
        <ele>1944.369</ele>
        <time>2018-09-22T06:19:10Z</time>
      </trkpt>
      <trkpt lat="42.273511" lon="1.738299">
        <ele>1945.941</ele>
        <time>2018-09-22T06:19:14Z</time>
      </trkpt>
      <trkpt lat="42.273514" lon="1.738307">
        <ele>1946.244</ele>
        <time>2018-09-22T06:19:15Z</time>
      </trkpt>
      <trkpt lat="42.273523" lon="1.738331">
        <ele>1947.205</ele>
        <time>2018-09-22T06:19:19Z</time>
      </trkpt>
      <trkpt lat="42.273533" lon="1.738325">
        <ele>1947.615</ele>
        <time>2018-09-22T06:19:23Z</time>
      </trkpt>
      <trkpt lat="42.273554" lon="1.738321">
        <ele>1948.608</ele>
        <time>2018-09-22T06:19:26Z</time>
      </trkpt>
      <trkpt lat="42.273554" lon="1.738325">
        <ele>1948.726</ele>
        <time>2018-09-22T06:19:27Z</time>
      </trkpt>
      <trkpt lat="42.273571" lon="1.738310">
        <ele>1949.432</ele>
        <time>2018-09-22T06:19:31Z</time>
      </trkpt>
      <trkpt lat="42.273605" lon="1.738317">
        <ele>1951.373</ele>
        <time>2018-09-22T06:19:37Z</time>
      </trkpt>
      <trkpt lat="42.273623" lon="1.738307">
        <ele>1952.297</ele>
        <time>2018-09-22T06:19:41Z</time>
      </trkpt>
      <trkpt lat="42.273634" lon="1.738299">
        <ele>1952.783</ele>
        <time>2018-09-22T06:19:43Z</time>
      </trkpt>
      <trkpt lat="42.273644" lon="1.738295">
        <ele>1953.373</ele>
        <time>2018-09-22T06:19:45Z</time>
      </trkpt>
      <trkpt lat="42.273656" lon="1.738278">
        <ele>1953.615</ele>
        <time>2018-09-22T06:19:48Z</time>
      </trkpt>
      <trkpt lat="42.273679" lon="1.738267">
        <ele>1954.927</ele>
        <time>2018-09-22T06:19:52Z</time>
      </trkpt>
      <trkpt lat="42.273687" lon="1.738268">
        <ele>1955.426</ele>
        <time>2018-09-22T06:20:00Z</time>
      </trkpt>
      <trkpt lat="42.273706" lon="1.738289">
        <ele>1956.947</ele>
        <time>2018-09-22T06:20:06Z</time>
      </trkpt>
      <trkpt lat="42.273708" lon="1.738299">
        <ele>1957.211</ele>
        <time>2018-09-22T06:20:07Z</time>
      </trkpt>
      <trkpt lat="42.273712" lon="1.738306">
        <ele>1957.608</ele>
        <time>2018-09-22T06:20:08Z</time>
      </trkpt>
      <trkpt lat="42.273715" lon="1.738312">
        <ele>1957.984</ele>
        <time>2018-09-22T06:20:09Z</time>
      </trkpt>
      <trkpt lat="42.273720" lon="1.738318">
        <ele>1958.320</ele>
        <time>2018-09-22T06:20:11Z</time>
      </trkpt>
      <trkpt lat="42.273725" lon="1.738322">
        <ele>1958.781</ele>
        <time>2018-09-22T06:20:12Z</time>
      </trkpt>
      <trkpt lat="42.273730" lon="1.738329">
        <ele>1959.185</ele>
        <time>2018-09-22T06:20:13Z</time>
      </trkpt>
      <trkpt lat="42.273735" lon="1.738336">
        <ele>1959.591</ele>
        <time>2018-09-22T06:20:14Z</time>
      </trkpt>
      <trkpt lat="42.273737" lon="1.738346">
        <ele>1959.811</ele>
        <time>2018-09-22T06:20:15Z</time>
      </trkpt>
      <trkpt lat="42.273756" lon="1.738384">
        <ele>1961.363</ele>
        <time>2018-09-22T06:20:21Z</time>
      </trkpt>
      <trkpt lat="42.273772" lon="1.738384">
        <ele>1962.325</ele>
        <time>2018-09-22T06:20:24Z</time>
      </trkpt>
      <trkpt lat="42.273775" lon="1.738389">
        <ele>1962.616</ele>
        <time>2018-09-22T06:20:25Z</time>
      </trkpt>
      <trkpt lat="42.273783" lon="1.738408">
        <ele>1963.376</ele>
        <time>2018-09-22T06:20:30Z</time>
      </trkpt>
      <trkpt lat="42.273789" lon="1.738346">
        <ele>1963.013</ele>
        <time>2018-09-22T06:20:38Z</time>
      </trkpt>
      <trkpt lat="42.273836" lon="1.738315">
        <ele>1965.308</ele>
        <time>2018-09-22T06:20:48Z</time>
      </trkpt>
      <trkpt lat="42.273850" lon="1.738291">
        <ele>1965.743</ele>
        <time>2018-09-22T06:20:51Z</time>
      </trkpt>
      <trkpt lat="42.273854" lon="1.738284">
        <ele>1965.819</ele>
        <time>2018-09-22T06:20:52Z</time>
      </trkpt>
      <trkpt lat="42.273860" lon="1.738278">
        <ele>1966.040</ele>
        <time>2018-09-22T06:20:53Z</time>
      </trkpt>
      <trkpt lat="42.273869" lon="1.738274">
        <ele>1966.584</ele>
        <time>2018-09-22T06:20:54Z</time>
      </trkpt>
      <trkpt lat="42.273874" lon="1.738273">
        <ele>1966.860</ele>
        <time>2018-09-22T06:20:55Z</time>
      </trkpt>
      <trkpt lat="42.273878" lon="1.738271">
        <ele>1966.990</ele>
        <time>2018-09-22T06:20:56Z</time>
      </trkpt>
      <trkpt lat="42.273881" lon="1.738265">
        <ele>1967.092</ele>
        <time>2018-09-22T06:20:57Z</time>
      </trkpt>
      <trkpt lat="42.273885" lon="1.738261">
        <ele>1967.224</ele>
        <time>2018-09-22T06:20:58Z</time>
      </trkpt>
      <trkpt lat="42.273915" lon="1.738239">
        <ele>1968.552</ele>
        <time>2018-09-22T06:21:08Z</time>
      </trkpt>
      <trkpt lat="42.273930" lon="1.738226">
        <ele>1969.253</ele>
        <time>2018-09-22T06:21:11Z</time>
      </trkpt>
      <trkpt lat="42.273939" lon="1.738223">
        <ele>1969.608</ele>
        <time>2018-09-22T06:21:13Z</time>
      </trkpt>
      <trkpt lat="42.273947" lon="1.738229">
        <ele>1970.208</ele>
        <time>2018-09-22T06:21:14Z</time>
      </trkpt>
      <trkpt lat="42.273956" lon="1.738231">
        <ele>1970.977</ele>
        <time>2018-09-22T06:21:15Z</time>
      </trkpt>
      <trkpt lat="42.273962" lon="1.738241">
        <ele>1971.423</ele>
        <time>2018-09-22T06:21:16Z</time>
      </trkpt>
      <trkpt lat="42.273965" lon="1.738253">
        <ele>1971.964</ele>
        <time>2018-09-22T06:21:17Z</time>
      </trkpt>
      <trkpt lat="42.273969" lon="1.738265">
        <ele>1972.448</ele>
        <time>2018-09-22T06:21:18Z</time>
      </trkpt>
      <trkpt lat="42.273982" lon="1.738302">
        <ele>1973.954</ele>
        <time>2018-09-22T06:21:22Z</time>
      </trkpt>
      <trkpt lat="42.273979" lon="1.738308">
        <ele>1973.924</ele>
        <time>2018-09-22T06:21:23Z</time>
      </trkpt>
      <trkpt lat="42.273978" lon="1.738313">
        <ele>1974.046</ele>
        <time>2018-09-22T06:21:25Z</time>
      </trkpt>
      <trkpt lat="42.273981" lon="1.738310">
        <ele>1974.178</ele>
        <time>2018-09-22T06:21:26Z</time>
      </trkpt>
      <trkpt lat="42.274008" lon="1.738340">
        <ele>1976.366</ele>
        <time>2018-09-22T06:21:31Z</time>
      </trkpt>
      <trkpt lat="42.274010" lon="1.738380">
        <ele>1976.929</ele>
        <time>2018-09-22T06:21:35Z</time>
      </trkpt>
      <trkpt lat="42.274014" lon="1.738412">
        <ele>1977.521</ele>
        <time>2018-09-22T06:21:42Z</time>
      </trkpt>
      <trkpt lat="42.274017" lon="1.738418">
        <ele>1977.708</ele>
        <time>2018-09-22T06:21:43Z</time>
      </trkpt>
      <trkpt lat="42.274022" lon="1.738423">
        <ele>1978.198</ele>
        <time>2018-09-22T06:21:44Z</time>
      </trkpt>
      <trkpt lat="42.274027" lon="1.738439">
        <ele>1978.684</ele>
        <time>2018-09-22T06:21:46Z</time>
      </trkpt>
      <trkpt lat="42.274028" lon="1.738465">
        <ele>1978.965</ele>
        <time>2018-09-22T06:21:48Z</time>
      </trkpt>
      <trkpt lat="42.274045" lon="1.738464">
        <ele>1979.989</ele>
        <time>2018-09-22T06:21:58Z</time>
      </trkpt>
      <trkpt lat="42.274054" lon="1.738479">
        <ele>1980.645</ele>
        <time>2018-09-22T06:22:01Z</time>
      </trkpt>
      <trkpt lat="42.274053" lon="1.738481">
        <ele>1980.615</ele>
        <time>2018-09-22T06:22:02Z</time>
      </trkpt>
      <trkpt lat="42.274072" lon="1.738477">
        <ele>1981.727</ele>
        <time>2018-09-22T06:22:07Z</time>
      </trkpt>
      <trkpt lat="42.274080" lon="1.738475">
        <ele>1982.269</ele>
        <time>2018-09-22T06:22:11Z</time>
      </trkpt>
      <trkpt lat="42.274108" lon="1.738459">
        <ele>1983.726</ele>
        <time>2018-09-22T06:22:15Z</time>
      </trkpt>
      <trkpt lat="42.274148" lon="1.738457">
        <ele>1986.147</ele>
        <time>2018-09-22T06:22:21Z</time>
      </trkpt>
      <trkpt lat="42.274154" lon="1.738451">
        <ele>1986.411</ele>
        <time>2018-09-22T06:22:22Z</time>
      </trkpt>
      <trkpt lat="42.274157" lon="1.738438">
        <ele>1986.508</ele>
        <time>2018-09-22T06:22:24Z</time>
      </trkpt>
      <trkpt lat="42.274162" lon="1.738417">
        <ele>1986.684</ele>
        <time>2018-09-22T06:22:26Z</time>
      </trkpt>
      <trkpt lat="42.274168" lon="1.738394">
        <ele>1986.750</ele>
        <time>2018-09-22T06:22:28Z</time>
      </trkpt>
      <trkpt lat="42.274171" lon="1.738380">
        <ele>1986.771</ele>
        <time>2018-09-22T06:22:29Z</time>
      </trkpt>
      <trkpt lat="42.274174" lon="1.738368">
        <ele>1986.865</ele>
        <time>2018-09-22T06:22:30Z</time>
      </trkpt>
      <trkpt lat="42.274180" lon="1.738358">
        <ele>1987.041</ele>
        <time>2018-09-22T06:22:31Z</time>
      </trkpt>
      <trkpt lat="42.274188" lon="1.738352">
        <ele>1987.441</ele>
        <time>2018-09-22T06:22:32Z</time>
      </trkpt>
      <trkpt lat="42.274206" lon="1.738339">
        <ele>1988.453</ele>
        <time>2018-09-22T06:22:35Z</time>
      </trkpt>
      <trkpt lat="42.274235" lon="1.738304">
        <ele>1989.445</ele>
        <time>2018-09-22T06:22:41Z</time>
      </trkpt>
      <trkpt lat="42.274241" lon="1.738300">
        <ele>1989.727</ele>
        <time>2018-09-22T06:22:42Z</time>
      </trkpt>
      <trkpt lat="42.274274" lon="1.738300">
        <ele>1991.768</ele>
        <time>2018-09-22T06:22:46Z</time>
      </trkpt>
      <trkpt lat="42.274285" lon="1.738279">
        <ele>1991.914</ele>
        <time>2018-09-22T06:22:49Z</time>
      </trkpt>
      <trkpt lat="42.274291" lon="1.738273">
        <ele>1992.108</ele>
        <time>2018-09-22T06:22:50Z</time>
      </trkpt>
      <trkpt lat="42.274296" lon="1.738265">
        <ele>1992.224</ele>
        <time>2018-09-22T06:22:51Z</time>
      </trkpt>
      <trkpt lat="42.274324" lon="1.738234">
        <ele>1993.020</ele>
        <time>2018-09-22T06:22:55Z</time>
      </trkpt>
      <trkpt lat="42.274361" lon="1.738207">
        <ele>1994.531</ele>
        <time>2018-09-22T06:23:02Z</time>
      </trkpt>
      <trkpt lat="42.274371" lon="1.738198">
        <ele>1994.835</ele>
        <time>2018-09-22T06:23:04Z</time>
      </trkpt>
      <trkpt lat="42.274375" lon="1.738182">
        <ele>1994.631</ele>
        <time>2018-09-22T06:23:06Z</time>
      </trkpt>
      <trkpt lat="42.274382" lon="1.738175">
        <ele>1994.851</ele>
        <time>2018-09-22T06:23:08Z</time>
      </trkpt>
      <trkpt lat="42.274394" lon="1.738145">
        <ele>1994.773</ele>
        <time>2018-09-22T06:23:12Z</time>
      </trkpt>
      <trkpt lat="42.274409" lon="1.738132">
        <ele>1995.225</ele>
        <time>2018-09-22T06:23:14Z</time>
      </trkpt>
      <trkpt lat="42.274439" lon="1.738122">
        <ele>1996.666</ele>
        <time>2018-09-22T06:23:19Z</time>
      </trkpt>
      <trkpt lat="42.274474" lon="1.738118">
        <ele>1998.429</ele>
        <time>2018-09-22T06:23:24Z</time>
      </trkpt>
      <trkpt lat="42.274508" lon="1.738111">
        <ele>2000.021</ele>
        <time>2018-09-22T06:23:28Z</time>
      </trkpt>
      <trkpt lat="42.274530" lon="1.738102">
        <ele>2000.908</ele>
        <time>2018-09-22T06:23:32Z</time>
      </trkpt>
      <trkpt lat="42.274564" lon="1.738092">
        <ele>2002.418</ele>
        <time>2018-09-22T06:23:36Z</time>
      </trkpt>
      <trkpt lat="42.274583" lon="1.738075">
        <ele>2003.054</ele>
        <time>2018-09-22T06:23:39Z</time>
      </trkpt>
      <trkpt lat="42.274605" lon="1.738071">
        <ele>2004.175</ele>
        <time>2018-09-22T06:23:43Z</time>
      </trkpt>
      <trkpt lat="42.274640" lon="1.738063">
        <ele>2005.769</ele>
        <time>2018-09-22T06:23:47Z</time>
      </trkpt>
      <trkpt lat="42.274682" lon="1.738053">
        <ele>2007.725</ele>
        <time>2018-09-22T06:23:53Z</time>
      </trkpt>
      <trkpt lat="42.274688" lon="1.738047">
        <ele>2007.965</ele>
        <time>2018-09-22T06:23:54Z</time>
      </trkpt>
      <trkpt lat="42.274692" lon="1.738039">
        <ele>2007.947</ele>
        <time>2018-09-22T06:23:55Z</time>
      </trkpt>
      <trkpt lat="42.274698" lon="1.738030">
        <ele>2008.149</ele>
        <time>2018-09-22T06:23:56Z</time>
      </trkpt>
      <trkpt lat="42.274703" lon="1.738018">
        <ele>2008.135</ele>
        <time>2018-09-22T06:23:57Z</time>
      </trkpt>
      <trkpt lat="42.274710" lon="1.738011">
        <ele>2008.386</ele>
        <time>2018-09-22T06:23:58Z</time>
      </trkpt>
      <trkpt lat="42.274727" lon="1.737983">
        <ele>2008.714</ele>
        <time>2018-09-22T06:24:02Z</time>
      </trkpt>
      <trkpt lat="42.274731" lon="1.737979">
        <ele>2008.908</ele>
        <time>2018-09-22T06:24:03Z</time>
      </trkpt>
      <trkpt lat="42.274751" lon="1.737956">
        <ele>2009.745</ele>
        <time>2018-09-22T06:24:07Z</time>
      </trkpt>
      <trkpt lat="42.274785" lon="1.737946">
        <ele>2011.681</ele>
        <time>2018-09-22T06:24:13Z</time>
      </trkpt>
      <trkpt lat="42.274805" lon="1.737934">
        <ele>2012.642</ele>
        <time>2018-09-22T06:24:17Z</time>
      </trkpt>
      <trkpt lat="42.274809" lon="1.737933">
        <ele>2012.956</ele>
        <time>2018-09-22T06:24:18Z</time>
      </trkpt>
      <trkpt lat="42.274830" lon="1.737928">
        <ele>2014.222</ele>
        <time>2018-09-22T06:24:21Z</time>
      </trkpt>
      <trkpt lat="42.274853" lon="1.737903">
        <ele>2015.212</ele>
        <time>2018-09-22T06:24:26Z</time>
      </trkpt>
      <trkpt lat="42.274865" lon="1.737877">
        <ele>2015.514</ele>
        <time>2018-09-22T06:24:29Z</time>
      </trkpt>
      <trkpt lat="42.274871" lon="1.737876">
        <ele>2015.956</ele>
        <time>2018-09-22T06:24:30Z</time>
      </trkpt>
      <trkpt lat="42.274886" lon="1.737869">
        <ele>2016.881</ele>
        <time>2018-09-22T06:24:35Z</time>
      </trkpt>
      <trkpt lat="42.274905" lon="1.737885">
        <ele>2018.261</ele>
        <time>2018-09-22T06:24:38Z</time>
      </trkpt>
      <trkpt lat="42.274905" lon="1.737880">
        <ele>2018.217</ele>
        <time>2018-09-22T06:24:39Z</time>
      </trkpt>
      <trkpt lat="42.274909" lon="1.737864">
        <ele>2018.208</ele>
        <time>2018-09-22T06:24:42Z</time>
      </trkpt>
      <trkpt lat="42.274915" lon="1.737837">
        <ele>2018.130</ele>
        <time>2018-09-22T06:24:46Z</time>
      </trkpt>
      <trkpt lat="42.274926" lon="1.737819">
        <ele>2018.616</ele>
        <time>2018-09-22T06:24:49Z</time>
      </trkpt>
      <trkpt lat="42.274933" lon="1.737809">
        <ele>2018.927</ele>
        <time>2018-09-22T06:24:51Z</time>
      </trkpt>
      <trkpt lat="42.274959" lon="1.737786">
        <ele>2020.371</ele>
        <time>2018-09-22T06:24:57Z</time>
      </trkpt>
      <trkpt lat="42.274975" lon="1.737784">
        <ele>2021.367</ele>
        <time>2018-09-22T06:25:01Z</time>
      </trkpt>
      <trkpt lat="42.274998" lon="1.737748">
        <ele>2022.237</ele>
        <time>2018-09-22T06:25:06Z</time>
      </trkpt>
      <trkpt lat="42.275019" lon="1.737710">
        <ele>2022.619</ele>
        <time>2018-09-22T06:25:11Z</time>
      </trkpt>
      <trkpt lat="42.275062" lon="1.737731">
        <ele>2025.651</ele>
        <time>2018-09-22T06:25:16Z</time>
      </trkpt>
      <trkpt lat="42.275084" lon="1.737754">
        <ele>2027.317</ele>
        <time>2018-09-22T06:25:19Z</time>
      </trkpt>
      <trkpt lat="42.275096" lon="1.737763">
        <ele>2028.287</ele>
        <time>2018-09-22T06:25:21Z</time>
      </trkpt>
      <trkpt lat="42.275103" lon="1.737767">
        <ele>2028.715</ele>
        <time>2018-09-22T06:25:22Z</time>
      </trkpt>
      <trkpt lat="42.275124" lon="1.737805">
        <ele>2030.608</ele>
        <time>2018-09-22T06:25:27Z</time>
      </trkpt>
      <trkpt lat="42.275147" lon="1.737840">
        <ele>2032.593</ele>
        <time>2018-09-22T06:25:31Z</time>
      </trkpt>
      <trkpt lat="42.275153" lon="1.737861">
        <ele>2033.389</ele>
        <time>2018-09-22T06:25:36Z</time>
      </trkpt>
      <trkpt lat="42.275164" lon="1.737847">
        <ele>2033.740</ele>
        <time>2018-09-22T06:25:40Z</time>
      </trkpt>
      <trkpt lat="42.275171" lon="1.737834">
        <ele>2033.984</ele>
        <time>2018-09-22T06:25:44Z</time>
      </trkpt>
      <trkpt lat="42.275188" lon="1.737860">
        <ele>2035.490</ele>
        <time>2018-09-22T06:25:48Z</time>
      </trkpt>
      <trkpt lat="42.275197" lon="1.737871">
        <ele>2036.180</ele>
        <time>2018-09-22T06:25:49Z</time>
      </trkpt>
      <trkpt lat="42.275218" lon="1.737890">
        <ele>2037.762</ele>
        <time>2018-09-22T06:25:51Z</time>
      </trkpt>
      <trkpt lat="42.275236" lon="1.737905">
        <ele>2039.234</ele>
        <time>2018-09-22T06:25:53Z</time>
      </trkpt>
      <trkpt lat="42.275238" lon="1.737909">
        <ele>2039.481</ele>
        <time>2018-09-22T06:25:55Z</time>
      </trkpt>
      <trkpt lat="42.275240" lon="1.737909">
        <ele>2039.561</ele>
        <time>2018-09-22T06:25:56Z</time>
      </trkpt>
      <trkpt lat="42.275256" lon="1.737900">
        <ele>2040.217</ele>
        <time>2018-09-22T06:25:59Z</time>
      </trkpt>
      <trkpt lat="42.275280" lon="1.737859">
        <ele>2040.808</ele>
        <time>2018-09-22T06:26:05Z</time>
      </trkpt>
      <trkpt lat="42.275281" lon="1.737846">
        <ele>2040.760</ele>
        <time>2018-09-22T06:26:07Z</time>
      </trkpt>
      <trkpt lat="42.275287" lon="1.737825">
        <ele>2040.676</ele>
        <time>2018-09-22T06:26:10Z</time>
      </trkpt>
      <trkpt lat="42.275293" lon="1.737793">
        <ele>2040.387</ele>
        <time>2018-09-22T06:26:14Z</time>
      </trkpt>
      <trkpt lat="42.275296" lon="1.737787">
        <ele>2040.451</ele>
        <time>2018-09-22T06:26:15Z</time>
      </trkpt>
      <trkpt lat="42.275306" lon="1.737779">
        <ele>2041.057</ele>
        <time>2018-09-22T06:26:19Z</time>
      </trkpt>
      <trkpt lat="42.275322" lon="1.737793">
        <ele>2042.597</ele>
        <time>2018-09-22T06:26:23Z</time>
      </trkpt>
      <trkpt lat="42.275331" lon="1.737803">
        <ele>2043.319</ele>
        <time>2018-09-22T06:26:28Z</time>
      </trkpt>
      <trkpt lat="42.275335" lon="1.737769">
        <ele>2042.961</ele>
        <time>2018-09-22T06:26:32Z</time>
      </trkpt>
      <trkpt lat="42.275399" lon="1.737782">
        <ele>2047.826</ele>
        <time>2018-09-22T06:26:43Z</time>
      </trkpt>
      <trkpt lat="42.275410" lon="1.737785">
        <ele>2048.647</ele>
        <time>2018-09-22T06:26:47Z</time>
      </trkpt>
      <trkpt lat="42.275429" lon="1.737785">
        <ele>2050.011</ele>
        <time>2018-09-22T06:26:50Z</time>
      </trkpt>
      <trkpt lat="42.275417" lon="1.737704">
        <ele>2047.708</ele>
        <time>2018-09-22T06:26:59Z</time>
      </trkpt>
      <trkpt lat="42.275426" lon="1.737688">
        <ele>2048.094</ele>
        <time>2018-09-22T06:27:01Z</time>
      </trkpt>
      <trkpt lat="42.275431" lon="1.737684">
        <ele>2048.310</ele>
        <time>2018-09-22T06:27:02Z</time>
      </trkpt>
      <trkpt lat="42.275431" lon="1.737679">
        <ele>2048.231</ele>
        <time>2018-09-22T06:27:03Z</time>
      </trkpt>
      <trkpt lat="42.275434" lon="1.737671">
        <ele>2048.225</ele>
        <time>2018-09-22T06:27:04Z</time>
      </trkpt>
      <trkpt lat="42.275462" lon="1.737636">
        <ele>2049.581</ele>
        <time>2018-09-22T06:27:09Z</time>
      </trkpt>
      <trkpt lat="42.275474" lon="1.737622">
        <ele>2050.191</ele>
        <time>2018-09-22T06:27:11Z</time>
      </trkpt>
      <trkpt lat="42.275486" lon="1.737618">
        <ele>2050.823</ele>
        <time>2018-09-22T06:27:13Z</time>
      </trkpt>
      <trkpt lat="42.275500" lon="1.737616">
        <ele>2051.785</ele>
        <time>2018-09-22T06:27:15Z</time>
      </trkpt>
      <trkpt lat="42.275524" lon="1.737626">
        <ele>2053.584</ele>
        <time>2018-09-22T06:27:18Z</time>
      </trkpt>
      <trkpt lat="42.275526" lon="1.737615">
        <ele>2053.407</ele>
        <time>2018-09-22T06:27:21Z</time>
      </trkpt>
      <trkpt lat="42.275536" lon="1.737623">
        <ele>2054.317</ele>
        <time>2018-09-22T06:27:26Z</time>
      </trkpt>
      <trkpt lat="42.275561" lon="1.737614">
        <ele>2055.808</ele>
        <time>2018-09-22T06:27:31Z</time>
      </trkpt>
      <trkpt lat="42.275574" lon="1.737608">
        <ele>2056.560</ele>
        <time>2018-09-22T06:27:34Z</time>
      </trkpt>
      <trkpt lat="42.275578" lon="1.737604">
        <ele>2056.626</ele>
        <time>2018-09-22T06:27:35Z</time>
      </trkpt>
      <trkpt lat="42.275595" lon="1.737590">
        <ele>2057.517</ele>
        <time>2018-09-22T06:27:38Z</time>
      </trkpt>
      <trkpt lat="42.275612" lon="1.737573">
        <ele>2058.311</ele>
        <time>2018-09-22T06:27:41Z</time>
      </trkpt>
      <trkpt lat="42.275631" lon="1.737560">
        <ele>2059.387</ele>
        <time>2018-09-22T06:27:44Z</time>
      </trkpt>
      <trkpt lat="42.275653" lon="1.737541">
        <ele>2060.437</ele>
        <time>2018-09-22T06:27:48Z</time>
      </trkpt>
      <trkpt lat="42.275679" lon="1.737532">
        <ele>2062.069</ele>
        <time>2018-09-22T06:27:52Z</time>
      </trkpt>
      <trkpt lat="42.275678" lon="1.737526">
        <ele>2061.851</ele>
        <time>2018-09-22T06:27:53Z</time>
      </trkpt>
      <trkpt lat="42.275699" lon="1.737497">
        <ele>2062.787</ele>
        <time>2018-09-22T06:27:58Z</time>
      </trkpt>
      <trkpt lat="42.275712" lon="1.737494">
        <ele>2063.542</ele>
        <time>2018-09-22T06:28:01Z</time>
      </trkpt>
      <trkpt lat="42.275737" lon="1.737511">
        <ele>2065.526</ele>
        <time>2018-09-22T06:28:04Z</time>
      </trkpt>
      <trkpt lat="42.275740" lon="1.737517">
        <ele>2065.908</ele>
        <time>2018-09-22T06:28:05Z</time>
      </trkpt>
      <trkpt lat="42.275747" lon="1.737532">
        <ele>2066.680</ele>
        <time>2018-09-22T06:28:07Z</time>
      </trkpt>
      <trkpt lat="42.275747" lon="1.737538">
        <ele>2066.746</ele>
        <time>2018-09-22T06:28:08Z</time>
      </trkpt>
      <trkpt lat="42.275743" lon="1.737564">
        <ele>2066.877</ele>
        <time>2018-09-22T06:28:11Z</time>
      </trkpt>
      <trkpt lat="42.275757" lon="1.737617">
        <ele>2068.641</ele>
        <time>2018-09-22T06:28:17Z</time>
      </trkpt>
      <trkpt lat="42.275767" lon="1.737601">
        <ele>2069.057</ele>
        <time>2018-09-22T06:28:22Z</time>
      </trkpt>
      <trkpt lat="42.275773" lon="1.737594">
        <ele>2069.397</ele>
        <time>2018-09-22T06:28:23Z</time>
      </trkpt>
      <trkpt lat="42.275781" lon="1.737579">
        <ele>2069.639</ele>
        <time>2018-09-22T06:28:25Z</time>
      </trkpt>
      <trkpt lat="42.275792" lon="1.737561">
        <ele>2070.071</ele>
        <time>2018-09-22T06:28:28Z</time>
      </trkpt>
      <trkpt lat="42.275823" lon="1.737536">
        <ele>2071.853</ele>
        <time>2018-09-22T06:28:35Z</time>
      </trkpt>
      <trkpt lat="42.275837" lon="1.737528">
        <ele>2072.604</ele>
        <time>2018-09-22T06:28:38Z</time>
      </trkpt>
      <trkpt lat="42.275857" lon="1.737496">
        <ele>2073.414</ele>
        <time>2018-09-22T06:28:42Z</time>
      </trkpt>
      <trkpt lat="42.275861" lon="1.737490">
        <ele>2073.508</ele>
        <time>2018-09-22T06:28:43Z</time>
      </trkpt>
      <trkpt lat="42.275875" lon="1.737470">
        <ele>2074.037</ele>
        <time>2018-09-22T06:28:46Z</time>
      </trkpt>
      <trkpt lat="42.275882" lon="1.737454">
        <ele>2074.123</ele>
        <time>2018-09-22T06:28:49Z</time>
      </trkpt>
      <trkpt lat="42.275886" lon="1.737452">
        <ele>2074.334</ele>
        <time>2018-09-22T06:28:50Z</time>
      </trkpt>
      <trkpt lat="42.275891" lon="1.737449">
        <ele>2074.668</ele>
        <time>2018-09-22T06:28:51Z</time>
      </trkpt>
      <trkpt lat="42.275896" lon="1.737449">
        <ele>2074.934</ele>
        <time>2018-09-22T06:28:52Z</time>
      </trkpt>
      <trkpt lat="42.275910" lon="1.737450">
        <ele>2075.834</ele>
        <time>2018-09-22T06:28:55Z</time>
      </trkpt>
      <trkpt lat="42.275941" lon="1.737475">
        <ele>2078.446</ele>
        <time>2018-09-22T06:29:01Z</time>
      </trkpt>
      <trkpt lat="42.275942" lon="1.737492">
        <ele>2078.828</ele>
        <time>2018-09-22T06:29:06Z</time>
      </trkpt>
      <trkpt lat="42.275953" lon="1.737466">
        <ele>2079.087</ele>
        <time>2018-09-22T06:29:10Z</time>
      </trkpt>
      <trkpt lat="42.275968" lon="1.737466">
        <ele>2080.042</ele>
        <time>2018-09-22T06:29:12Z</time>
      </trkpt>
      <trkpt lat="42.275992" lon="1.737484">
        <ele>2081.926</ele>
        <time>2018-09-22T06:29:15Z</time>
      </trkpt>
      <trkpt lat="42.275995" lon="1.737497">
        <ele>2082.408</ele>
        <time>2018-09-22T06:29:17Z</time>
      </trkpt>
      <trkpt lat="42.275995" lon="1.737485">
        <ele>2082.140</ele>
        <time>2018-09-22T06:29:22Z</time>
      </trkpt>
      <trkpt lat="42.276009" lon="1.737503">
        <ele>2083.486</ele>
        <time>2018-09-22T06:29:30Z</time>
      </trkpt>
      <trkpt lat="42.276034" lon="1.737504">
        <ele>2085.037</ele>
        <time>2018-09-22T06:29:37Z</time>
      </trkpt>
      <trkpt lat="42.276054" lon="1.737475">
        <ele>2085.781</ele>
        <time>2018-09-22T06:29:43Z</time>
      </trkpt>
      <trkpt lat="42.276055" lon="1.737459">
        <ele>2085.477</ele>
        <time>2018-09-22T06:29:45Z</time>
      </trkpt>
      <trkpt lat="42.276058" lon="1.737448">
        <ele>2085.487</ele>
        <time>2018-09-22T06:29:46Z</time>
      </trkpt>
      <trkpt lat="42.276061" lon="1.737435">
        <ele>2085.369</ele>
        <time>2018-09-22T06:29:47Z</time>
      </trkpt>
      <trkpt lat="42.276072" lon="1.737421">
        <ele>2085.781</ele>
        <time>2018-09-22T06:29:49Z</time>
      </trkpt>
      <trkpt lat="42.276075" lon="1.737417">
        <ele>2085.818</ele>
        <time>2018-09-22T06:29:50Z</time>
      </trkpt>
      <trkpt lat="42.276081" lon="1.737415">
        <ele>2086.298</ele>
        <time>2018-09-22T06:29:51Z</time>
      </trkpt>
      <trkpt lat="42.276083" lon="1.737414">
        <ele>2086.217</ele>
        <time>2018-09-22T06:29:52Z</time>
      </trkpt>
      <trkpt lat="42.276081" lon="1.737412">
        <ele>2086.108</ele>
        <time>2018-09-22T06:29:53Z</time>
      </trkpt>
      <trkpt lat="42.276094" lon="1.737400">
        <ele>2086.723</ele>
        <time>2018-09-22T06:29:55Z</time>
      </trkpt>
      <trkpt lat="42.276117" lon="1.737356">
        <ele>2087.249</ele>
        <time>2018-09-22T06:29:59Z</time>
      </trkpt>
      <trkpt lat="42.276130" lon="1.737349">
        <ele>2088.080</ele>
        <time>2018-09-22T06:30:01Z</time>
      </trkpt>
      <trkpt lat="42.276160" lon="1.737338">
        <ele>2089.784</ele>
        <time>2018-09-22T06:30:05Z</time>
      </trkpt>
      <trkpt lat="42.276165" lon="1.737329">
        <ele>2089.860</ele>
        <time>2018-09-22T06:30:06Z</time>
      </trkpt>
      <trkpt lat="42.276167" lon="1.737322">
        <ele>2089.870</ele>
        <time>2018-09-22T06:30:07Z</time>
      </trkpt>
      <trkpt lat="42.276169" lon="1.737319">
        <ele>2089.972</ele>
        <time>2018-09-22T06:30:08Z</time>
      </trkpt>
      <trkpt lat="42.276184" lon="1.737298">
        <ele>2090.484</ele>
        <time>2018-09-22T06:30:11Z</time>
      </trkpt>
      <trkpt lat="42.276200" lon="1.737284">
        <ele>2091.174</ele>
        <time>2018-09-22T06:30:13Z</time>
      </trkpt>
      <trkpt lat="42.276205" lon="1.737279">
        <ele>2091.356</ele>
        <time>2018-09-22T06:30:14Z</time>
      </trkpt>
      <trkpt lat="42.276220" lon="1.737251">
        <ele>2091.721</ele>
        <time>2018-09-22T06:30:17Z</time>
      </trkpt>
      <trkpt lat="42.276226" lon="1.737244">
        <ele>2091.908</ele>
        <time>2018-09-22T06:30:18Z</time>
      </trkpt>
      <trkpt lat="42.276235" lon="1.737238">
        <ele>2092.499</ele>
        <time>2018-09-22T06:30:19Z</time>
      </trkpt>
      <trkpt lat="42.276241" lon="1.737226">
        <ele>2092.565</ele>
        <time>2018-09-22T06:30:21Z</time>
      </trkpt>
      <trkpt lat="42.276244" lon="1.737215">
        <ele>2092.396</ele>
        <time>2018-09-22T06:30:22Z</time>
      </trkpt>
      <trkpt lat="42.276250" lon="1.737199">
        <ele>2092.310</ele>
        <time>2018-09-22T06:30:24Z</time>
      </trkpt>
      <trkpt lat="42.276263" lon="1.737159">
        <ele>2092.146</ele>
        <time>2018-09-22T06:30:27Z</time>
      </trkpt>
      <trkpt lat="42.276267" lon="1.737150">
        <ele>2092.176</ele>
        <time>2018-09-22T06:30:28Z</time>
      </trkpt>
      <trkpt lat="42.276273" lon="1.737140">
        <ele>2092.298</ele>
        <time>2018-09-22T06:30:29Z</time>
      </trkpt>
      <trkpt lat="42.276282" lon="1.737131">
        <ele>2092.620</ele>
        <time>2018-09-22T06:30:30Z</time>
      </trkpt>
      <trkpt lat="42.276292" lon="1.737126">
        <ele>2093.124</ele>
        <time>2018-09-22T06:30:31Z</time>
      </trkpt>
      <trkpt lat="42.276300" lon="1.737124">
        <ele>2093.604</ele>
        <time>2018-09-22T06:30:32Z</time>
      </trkpt>
      <trkpt lat="42.276312" lon="1.737123">
        <ele>2094.314</ele>
        <time>2018-09-22T06:30:34Z</time>
      </trkpt>
      <trkpt lat="42.276320" lon="1.737121">
        <ele>2094.808</ele>
        <time>2018-09-22T06:30:36Z</time>
      </trkpt>
      <trkpt lat="42.276338" lon="1.737121">
        <ele>2096.054</ele>
        <time>2018-09-22T06:30:39Z</time>
      </trkpt>
      <trkpt lat="42.276359" lon="1.737140">
        <ele>2097.930</ele>
        <time>2018-09-22T06:30:43Z</time>
      </trkpt>
      <trkpt lat="42.276380" lon="1.737154">
        <ele>2099.711</ele>
        <time>2018-09-22T06:30:45Z</time>
      </trkpt>
      <trkpt lat="42.276403" lon="1.737160">
        <ele>2101.325</ele>
        <time>2018-09-22T06:30:48Z</time>
      </trkpt>
      <trkpt lat="42.276423" lon="1.737139">
        <ele>2102.061</ele>
        <time>2018-09-22T06:30:51Z</time>
      </trkpt>
      <trkpt lat="42.276435" lon="1.737097">
        <ele>2101.781</ele>
        <time>2018-09-22T06:30:54Z</time>
      </trkpt>
      <trkpt lat="42.276442" lon="1.737082">
        <ele>2101.813</ele>
        <time>2018-09-22T06:30:56Z</time>
      </trkpt>
      <trkpt lat="42.276451" lon="1.737067">
        <ele>2101.975</ele>
        <time>2018-09-22T06:30:58Z</time>
      </trkpt>
      <trkpt lat="42.276478" lon="1.737045">
        <ele>2103.147</ele>
        <time>2018-09-22T06:31:03Z</time>
      </trkpt>
      <trkpt lat="42.276498" lon="1.737035">
        <ele>2104.129</ele>
        <time>2018-09-22T06:31:07Z</time>
      </trkpt>
      <trkpt lat="42.276504" lon="1.737039">
        <ele>2104.521</ele>
        <time>2018-09-22T06:31:08Z</time>
      </trkpt>
      <trkpt lat="42.276534" lon="1.737008">
        <ele>2105.508</ele>
        <time>2018-09-22T06:31:13Z</time>
      </trkpt>
      <trkpt lat="42.276550" lon="1.736989">
        <ele>2106.066</ele>
        <time>2018-09-22T06:31:16Z</time>
      </trkpt>
      <trkpt lat="42.276552" lon="1.736984">
        <ele>2106.082</ele>
        <time>2018-09-22T06:31:17Z</time>
      </trkpt>
      <trkpt lat="42.276560" lon="1.736918">
        <ele>2105.363</ele>
        <time>2018-09-22T06:31:22Z</time>
      </trkpt>
      <trkpt lat="42.276551" lon="1.736879">
        <ele>2104.597</ele>
        <time>2018-09-22T06:31:24Z</time>
      </trkpt>
      <trkpt lat="42.276567" lon="1.736783">
        <ele>2105.153</ele>
        <time>2018-09-22T06:31:31Z</time>
      </trkpt>
      <trkpt lat="42.276580" lon="1.736743">
        <ele>2105.743</ele>
        <time>2018-09-22T06:31:35Z</time>
      </trkpt>
      <trkpt lat="42.276584" lon="1.736736">
        <ele>2105.985</ele>
        <time>2018-09-22T06:31:36Z</time>
      </trkpt>
      <trkpt lat="42.276587" lon="1.736730">
        <ele>2106.127</ele>
        <time>2018-09-22T06:31:37Z</time>
      </trkpt>
      <trkpt lat="42.276594" lon="1.736727">
        <ele>2106.562</ele>
        <time>2018-09-22T06:31:38Z</time>
      </trkpt>
      <trkpt lat="42.276610" lon="1.736696">
        <ele>2107.483</ele>
        <time>2018-09-22T06:31:43Z</time>
      </trkpt>
      <trkpt lat="42.276631" lon="1.736681">
        <ele>2108.711</ele>
        <time>2018-09-22T06:31:47Z</time>
      </trkpt>
      <trkpt lat="42.276655" lon="1.736646">
        <ele>2110.208</ele>
        <time>2018-09-22T06:31:52Z</time>
      </trkpt>
      <trkpt lat="42.276671" lon="1.736625">
        <ele>2111.398</ele>
        <time>2018-09-22T06:31:56Z</time>
      </trkpt>
      <trkpt lat="42.276671" lon="1.736616">
        <ele>2111.374</ele>
        <time>2018-09-22T06:31:57Z</time>
      </trkpt>
      <trkpt lat="42.276673" lon="1.736607">
        <ele>2111.425</ele>
        <time>2018-09-22T06:31:58Z</time>
      </trkpt>
      <trkpt lat="42.276684" lon="1.736593">
        <ele>2112.259</ele>
        <time>2018-09-22T06:32:01Z</time>
      </trkpt>
      <trkpt lat="42.276687" lon="1.736588">
        <ele>2112.515</ele>
        <time>2018-09-22T06:32:02Z</time>
      </trkpt>
      <trkpt lat="42.276691" lon="1.736581">
        <ele>2112.765</ele>
        <time>2018-09-22T06:32:03Z</time>
      </trkpt>
      <trkpt lat="42.276694" lon="1.736575">
        <ele>2112.917</ele>
        <time>2018-09-22T06:32:04Z</time>
      </trkpt>
      <trkpt lat="42.276703" lon="1.736546">
        <ele>2113.649</ele>
        <time>2018-09-22T06:32:08Z</time>
      </trkpt>
      <trkpt lat="42.276718" lon="1.736513">
        <ele>2114.687</ele>
        <time>2018-09-22T06:32:14Z</time>
      </trkpt>
      <trkpt lat="42.276740" lon="1.736522">
        <ele>2116.242</ele>
        <time>2018-09-22T06:32:16Z</time>
      </trkpt>
      <trkpt lat="42.276753" lon="1.736519">
        <ele>2117.126</ele>
        <time>2018-09-22T06:32:19Z</time>
      </trkpt>
      <trkpt lat="42.276754" lon="1.736470">
        <ele>2117.108</ele>
        <time>2018-09-22T06:32:23Z</time>
      </trkpt>
      <trkpt lat="42.276776" lon="1.736435">
        <ele>2118.610</ele>
        <time>2018-09-22T06:32:29Z</time>
      </trkpt>
      <trkpt lat="42.276784" lon="1.736423">
        <ele>2119.176</ele>
        <time>2018-09-22T06:32:31Z</time>
      </trkpt>
      <trkpt lat="42.276788" lon="1.736406">
        <ele>2119.397</ele>
        <time>2018-09-22T06:32:33Z</time>
      </trkpt>
      <trkpt lat="42.276805" lon="1.736376">
        <ele>2120.641</ele>
        <time>2018-09-22T06:32:37Z</time>
      </trkpt>
      <trkpt lat="42.276829" lon="1.736328">
        <ele>2122.997</ele>
        <time>2018-09-22T06:32:42Z</time>
      </trkpt>
      <trkpt lat="42.276856" lon="1.736291">
        <ele>2125.267</ele>
        <time>2018-09-22T06:32:48Z</time>
      </trkpt>
      <trkpt lat="42.276860" lon="1.736256">
        <ele>2125.929</ele>
        <time>2018-09-22T06:32:52Z</time>
      </trkpt>
      <trkpt lat="42.276861" lon="1.736249">
        <ele>2126.051</ele>
        <time>2018-09-22T06:32:53Z</time>
      </trkpt>
      <trkpt lat="42.276858" lon="1.736235">
        <ele>2126.034</ele>
        <time>2018-09-22T06:32:55Z</time>
      </trkpt>
      <trkpt lat="42.276857" lon="1.736218">
        <ele>2126.255</ele>
        <time>2018-09-22T06:32:57Z</time>
      </trkpt>
      <trkpt lat="42.276855" lon="1.736204">
        <ele>2126.310</ele>
        <time>2018-09-22T06:32:58Z</time>
      </trkpt>
      <trkpt lat="42.276853" lon="1.736181">
        <ele>2126.408</ele>
        <time>2018-09-22T06:33:01Z</time>
      </trkpt>
      <trkpt lat="42.276862" lon="1.736164">
        <ele>2127.375</ele>
        <time>2018-09-22T06:33:05Z</time>
      </trkpt>
      <trkpt lat="42.276869" lon="1.736143">
        <ele>2127.911</ele>
        <time>2018-09-22T06:33:07Z</time>
      </trkpt>
      <trkpt lat="42.276875" lon="1.736124">
        <ele>2128.542</ele>
        <time>2018-09-22T06:33:09Z</time>
      </trkpt>
      <trkpt lat="42.276878" lon="1.736115">
        <ele>2128.866</ele>
        <time>2018-09-22T06:33:11Z</time>
      </trkpt>
      <trkpt lat="42.276886" lon="1.736096">
        <ele>2129.592</ele>
        <time>2018-09-22T06:33:13Z</time>
      </trkpt>
      <trkpt lat="42.276889" lon="1.736087">
        <ele>2129.812</ele>
        <time>2018-09-22T06:33:14Z</time>
      </trkpt>
      <trkpt lat="42.276912" lon="1.736062">
        <ele>2131.574</ele>
        <time>2018-09-22T06:33:18Z</time>
      </trkpt>
      <trkpt lat="42.276930" lon="1.736067">
        <ele>2132.646</ele>
        <time>2018-09-22T06:33:20Z</time>
      </trkpt>
      <trkpt lat="42.276944" lon="1.736074">
        <ele>2133.478</ele>
        <time>2018-09-22T06:33:22Z</time>
      </trkpt>
      <trkpt lat="42.276967" lon="1.736063">
        <ele>2134.733</ele>
        <time>2018-09-22T06:33:26Z</time>
      </trkpt>
      <trkpt lat="42.277013" lon="1.736065">
        <ele>2137.026</ele>
        <time>2018-09-22T06:33:31Z</time>
      </trkpt>
      <trkpt lat="42.277048" lon="1.736062">
        <ele>2138.808</ele>
        <time>2018-09-22T06:33:35Z</time>
      </trkpt>
      <trkpt lat="42.277053" lon="1.736064">
        <ele>2139.199</ele>
        <time>2018-09-22T06:33:36Z</time>
      </trkpt>
      <trkpt lat="42.277067" lon="1.736064">
        <ele>2139.895</ele>
        <time>2018-09-22T06:33:38Z</time>
      </trkpt>
      <trkpt lat="42.277074" lon="1.736060">
        <ele>2140.246</ele>
        <time>2018-09-22T06:33:39Z</time>
      </trkpt>
      <trkpt lat="42.277083" lon="1.736049">
        <ele>2140.720</ele>
        <time>2018-09-22T06:33:41Z</time>
      </trkpt>
      <trkpt lat="42.277096" lon="1.736030">
        <ele>2141.496</ele>
        <time>2018-09-22T06:33:44Z</time>
      </trkpt>
      <trkpt lat="42.277101" lon="1.736021">
        <ele>2141.796</ele>
        <time>2018-09-22T06:33:45Z</time>
      </trkpt>
      <trkpt lat="42.277111" lon="1.736006">
        <ele>2142.238</ele>
        <time>2018-09-22T06:33:47Z</time>
      </trkpt>
      <trkpt lat="42.277115" lon="1.736003">
        <ele>2142.430</ele>
        <time>2018-09-22T06:33:48Z</time>
      </trkpt>
      <trkpt lat="42.277141" lon="1.735995">
        <ele>2143.693</ele>
        <time>2018-09-22T06:33:52Z</time>
      </trkpt>
      <trkpt lat="42.277160" lon="1.735950">
        <ele>2144.565</ele>
        <time>2018-09-22T06:33:57Z</time>
      </trkpt>
      <trkpt lat="42.277164" lon="1.735925">
        <ele>2144.721</ele>
        <time>2018-09-22T06:33:59Z</time>
      </trkpt>
      <trkpt lat="42.277180" lon="1.735910">
        <ele>2145.408</ele>
        <time>2018-09-22T06:34:02Z</time>
      </trkpt>
      <trkpt lat="42.277186" lon="1.735907">
        <ele>2145.741</ele>
        <time>2018-09-22T06:34:03Z</time>
      </trkpt>
      <trkpt lat="42.277200" lon="1.735876">
        <ele>2146.217</ele>
        <time>2018-09-22T06:34:07Z</time>
      </trkpt>
      <trkpt lat="42.277220" lon="1.735878">
        <ele>2147.018</ele>
        <time>2018-09-22T06:34:09Z</time>
      </trkpt>
      <trkpt lat="42.277233" lon="1.735882">
        <ele>2147.562</ele>
        <time>2018-09-22T06:34:11Z</time>
      </trkpt>
      <trkpt lat="42.277246" lon="1.735874">
        <ele>2148.068</ele>
        <time>2018-09-22T06:34:14Z</time>
      </trkpt>
      <trkpt lat="42.277273" lon="1.735851">
        <ele>2148.938</ele>
        <time>2018-09-22T06:34:18Z</time>
      </trkpt>
      <trkpt lat="42.277280" lon="1.735848">
        <ele>2149.110</ele>
        <time>2018-09-22T06:34:19Z</time>
      </trkpt>
      <trkpt lat="42.277296" lon="1.735851">
        <ele>2149.772</ele>
        <time>2018-09-22T06:34:21Z</time>
      </trkpt>
      <trkpt lat="42.277308" lon="1.735856">
        <ele>2150.247</ele>
        <time>2018-09-22T06:34:22Z</time>
      </trkpt>
      <trkpt lat="42.277320" lon="1.735858">
        <ele>2150.729</ele>
        <time>2018-09-22T06:34:23Z</time>
      </trkpt>
      <trkpt lat="42.277330" lon="1.735859">
        <ele>2151.021</ele>
        <time>2018-09-22T06:34:24Z</time>
      </trkpt>
      <trkpt lat="42.277337" lon="1.735856">
        <ele>2151.308</ele>
        <time>2018-09-22T06:34:25Z</time>
      </trkpt>
      <trkpt lat="42.277345" lon="1.735848">
        <ele>2151.516</ele>
        <time>2018-09-22T06:34:27Z</time>
      </trkpt>
      <trkpt lat="42.277373" lon="1.735828">
        <ele>2152.442</ele>
        <time>2018-09-22T06:34:30Z</time>
      </trkpt>
      <trkpt lat="42.277400" lon="1.735822">
        <ele>2153.323</ele>
        <time>2018-09-22T06:34:33Z</time>
      </trkpt>
      <trkpt lat="42.277407" lon="1.735823">
        <ele>2153.657</ele>
        <time>2018-09-22T06:34:34Z</time>
      </trkpt>
      <trkpt lat="42.277417" lon="1.735823">
        <ele>2154.063</ele>
        <time>2018-09-22T06:34:35Z</time>
      </trkpt>
      <trkpt lat="42.277445" lon="1.735820">
        <ele>2155.013</ele>
        <time>2018-09-22T06:34:38Z</time>
      </trkpt>
      <trkpt lat="42.277453" lon="1.735819">
        <ele>2155.365</ele>
        <time>2018-09-22T06:34:39Z</time>
      </trkpt>
      <trkpt lat="42.277462" lon="1.735817">
        <ele>2155.657</ele>
        <time>2018-09-22T06:34:40Z</time>
      </trkpt>
      <trkpt lat="42.277468" lon="1.735813">
        <ele>2155.832</ele>
        <time>2018-09-22T06:34:41Z</time>
      </trkpt>
      <trkpt lat="42.277490" lon="1.735797">
        <ele>2156.692</ele>
        <time>2018-09-22T06:34:45Z</time>
      </trkpt>
      <trkpt lat="42.277495" lon="1.735794">
        <ele>2156.811</ele>
        <time>2018-09-22T06:34:46Z</time>
      </trkpt>
      <trkpt lat="42.277506" lon="1.735754">
        <ele>2157.208</ele>
        <time>2018-09-22T06:34:51Z</time>
      </trkpt>
      <trkpt lat="42.277510" lon="1.735725">
        <ele>2157.385</ele>
        <time>2018-09-22T06:34:55Z</time>
      </trkpt>
      <trkpt lat="42.277516" lon="1.735709">
        <ele>2157.511</ele>
        <time>2018-09-22T06:34:59Z</time>
      </trkpt>
      <trkpt lat="42.277517" lon="1.735708">
        <ele>2157.562</ele>
        <time>2018-09-22T06:35:00Z</time>
      </trkpt>
      <trkpt lat="42.277531" lon="1.735693">
        <ele>2157.976</ele>
        <time>2018-09-22T06:35:04Z</time>
      </trkpt>
      <trkpt lat="42.277535" lon="1.735693">
        <ele>2158.172</ele>
        <time>2018-09-22T06:35:05Z</time>
      </trkpt>
      <trkpt lat="42.277538" lon="1.735688">
        <ele>2158.272</ele>
        <time>2018-09-22T06:35:06Z</time>
      </trkpt>
      <trkpt lat="42.277542" lon="1.735675">
        <ele>2158.384</ele>
        <time>2018-09-22T06:35:08Z</time>
      </trkpt>
      <trkpt lat="42.277574" lon="1.735632">
        <ele>2159.196</ele>
        <time>2018-09-22T06:35:17Z</time>
      </trkpt>
      <trkpt lat="42.277571" lon="1.735635">
        <ele>2159.092</ele>
        <time>2018-09-22T06:35:18Z</time>
      </trkpt>
      <trkpt lat="42.277567" lon="1.735640">
        <ele>2158.973</ele>
        <time>2018-09-22T06:35:23Z</time>
      </trkpt>
      <trkpt lat="42.277575" lon="1.735645">
        <ele>2159.220</ele>
        <time>2018-09-22T06:35:32Z</time>
      </trkpt>
      <trkpt lat="42.277575" lon="1.735645">
        <ele>2159.208</ele>
        <time>2018-09-22T06:35:38Z</time>
      </trkpt>
      <trkpt lat="42.277576" lon="1.735645">
        <ele>2159.281</ele>
        <time>2018-09-22T06:35:52Z</time>
      </trkpt>
      <trkpt lat="42.277582" lon="1.735640">
        <ele>2159.487</ele>
        <time>2018-09-22T06:36:05Z</time>
      </trkpt>
      <trkpt lat="42.277585" lon="1.735637">
        <ele>2159.478</ele>
        <time>2018-09-22T06:36:15Z</time>
      </trkpt>
      <trkpt lat="42.277576" lon="1.735640">
        <ele>2159.272</ele>
        <time>2018-09-22T06:36:25Z</time>
      </trkpt>
      <trkpt lat="42.277570" lon="1.735639">
        <ele>2159.028</ele>
        <time>2018-09-22T06:36:34Z</time>
      </trkpt>
      <trkpt lat="42.277575" lon="1.735661">
        <ele>2159.258</ele>
        <time>2018-09-22T06:36:49Z</time>
      </trkpt>
      <trkpt lat="42.277572" lon="1.735663">
        <ele>2159.270</ele>
        <time>2018-09-22T06:36:55Z</time>
      </trkpt>
      <trkpt lat="42.277569" lon="1.735648">
        <ele>2159.052</ele>
        <time>2018-09-22T06:37:12Z</time>
      </trkpt>
      <trkpt lat="42.277566" lon="1.735650">
        <ele>2158.982</ele>
        <time>2018-09-22T06:37:15Z</time>
      </trkpt>
      <trkpt lat="42.277589" lon="1.735635">
        <ele>2159.643</ele>
        <time>2018-09-22T06:37:33Z</time>
      </trkpt>
      <trkpt lat="42.277605" lon="1.735634">
        <ele>2160.017</ele>
        <time>2018-09-22T06:37:49Z</time>
      </trkpt>
      <trkpt lat="42.277591" lon="1.735629">
        <ele>2159.608</ele>
        <time>2018-09-22T06:38:00Z</time>
      </trkpt>
      <trkpt lat="42.277559" lon="1.735643">
        <ele>2158.750</ele>
        <time>2018-09-22T06:38:09Z</time>
      </trkpt>
      <trkpt lat="42.277540" lon="1.735642">
        <ele>2158.136</ele>
        <time>2018-09-22T06:38:25Z</time>
      </trkpt>
      <trkpt lat="42.277539" lon="1.735644">
        <ele>2158.187</ele>
        <time>2018-09-22T06:38:31Z</time>
      </trkpt>
      <trkpt lat="42.277539" lon="1.735648">
        <ele>2158.161</ele>
        <time>2018-09-22T06:38:39Z</time>
      </trkpt>
      <trkpt lat="42.277540" lon="1.735650">
        <ele>2158.167</ele>
        <time>2018-09-22T06:38:45Z</time>
      </trkpt>
      <trkpt lat="42.277539" lon="1.735652">
        <ele>2158.167</ele>
        <time>2018-09-22T06:38:57Z</time>
      </trkpt>
      <trkpt lat="42.277553" lon="1.735660">
        <ele>2158.679</ele>
        <time>2018-09-22T06:39:13Z</time>
      </trkpt>
      <trkpt lat="42.277558" lon="1.735657">
        <ele>2158.781</ele>
        <time>2018-09-22T06:39:22Z</time>
      </trkpt>
      <trkpt lat="42.277554" lon="1.735655">
        <ele>2158.668</ele>
        <time>2018-09-22T06:39:28Z</time>
      </trkpt>
      <trkpt lat="42.277554" lon="1.735653">
        <ele>2158.642</ele>
        <time>2018-09-22T06:39:32Z</time>
      </trkpt>
      <trkpt lat="42.277554" lon="1.735652">
        <ele>2158.626</ele>
        <time>2018-09-22T06:39:41Z</time>
      </trkpt>
      <trkpt lat="42.277553" lon="1.735647">
        <ele>2158.608</ele>
        <time>2018-09-22T06:40:01Z</time>
      </trkpt>
      <trkpt lat="42.277553" lon="1.735646">
        <ele>2158.588</ele>
        <time>2018-09-22T06:40:11Z</time>
      </trkpt>
      <trkpt lat="42.277555" lon="1.735645">
        <ele>2158.634</ele>
        <time>2018-09-22T06:40:23Z</time>
      </trkpt>
      <trkpt lat="42.277568" lon="1.735661">
        <ele>2159.095</ele>
        <time>2018-09-22T06:40:55Z</time>
      </trkpt>
      <trkpt lat="42.277570" lon="1.735660">
        <ele>2159.169</ele>
        <time>2018-09-22T06:40:57Z</time>
      </trkpt>
      <trkpt lat="42.277606" lon="1.735631">
        <ele>2160.035</ele>
        <time>2018-09-22T06:41:05Z</time>
      </trkpt>
      <trkpt lat="42.277662" lon="1.735519">
        <ele>2161.175</ele>
        <time>2018-09-22T06:41:15Z</time>
      </trkpt>
      <trkpt lat="42.277667" lon="1.735506">
        <ele>2161.317</ele>
        <time>2018-09-22T06:41:16Z</time>
      </trkpt>
      <trkpt lat="42.277683" lon="1.735483">
        <ele>2161.799</ele>
        <time>2018-09-22T06:41:18Z</time>
      </trkpt>
      <trkpt lat="42.277725" lon="1.735445">
        <ele>2162.571</ele>
        <time>2018-09-22T06:41:23Z</time>
      </trkpt>
      <trkpt lat="42.277814" lon="1.735319">
        <ele>2163.741</ele>
        <time>2018-09-22T06:41:36Z</time>
      </trkpt>
      <trkpt lat="42.277848" lon="1.735291">
        <ele>2164.115</ele>
        <time>2018-09-22T06:41:39Z</time>
      </trkpt>
      <trkpt lat="42.277869" lon="1.735272">
        <ele>2164.308</ele>
        <time>2018-09-22T06:41:41Z</time>
      </trkpt>
      <trkpt lat="42.277891" lon="1.735257">
        <ele>2164.669</ele>
        <time>2018-09-22T06:41:43Z</time>
      </trkpt>
      <trkpt lat="42.277950" lon="1.735204">
        <ele>2165.645</ele>
        <time>2018-09-22T06:41:48Z</time>
      </trkpt>
      <trkpt lat="42.277962" lon="1.735193">
        <ele>2165.876</ele>
        <time>2018-09-22T06:41:49Z</time>
      </trkpt>
      <trkpt lat="42.277974" lon="1.735173">
        <ele>2166.080</ele>
        <time>2018-09-22T06:41:51Z</time>
      </trkpt>
      <trkpt lat="42.278015" lon="1.735089">
        <ele>2166.976</ele>
        <time>2018-09-22T06:41:57Z</time>
      </trkpt>
      <trkpt lat="42.278077" lon="1.735049">
        <ele>2168.296</ele>
        <time>2018-09-22T06:42:02Z</time>
      </trkpt>
      <trkpt lat="42.278122" lon="1.734989">
        <ele>2169.478</ele>
        <time>2018-09-22T06:42:07Z</time>
      </trkpt>
      <trkpt lat="42.278132" lon="1.734985">
        <ele>2169.650</ele>
        <time>2018-09-22T06:42:08Z</time>
      </trkpt>
      <trkpt lat="42.278171" lon="1.734980">
        <ele>2170.573</ele>
        <time>2018-09-22T06:42:12Z</time>
      </trkpt>
      <trkpt lat="42.278217" lon="1.734950">
        <ele>2171.685</ele>
        <time>2018-09-22T06:42:16Z</time>
      </trkpt>
      <trkpt lat="42.278264" lon="1.734935">
        <ele>2172.613</ele>
        <time>2018-09-22T06:42:20Z</time>
      </trkpt>
      <trkpt lat="42.278277" lon="1.734937">
        <ele>2172.908</ele>
        <time>2018-09-22T06:42:21Z</time>
      </trkpt>
      <trkpt lat="42.278326" lon="1.734950">
        <ele>2174.089</ele>
        <time>2018-09-22T06:42:25Z</time>
      </trkpt>
      <trkpt lat="42.278339" lon="1.734951">
        <ele>2174.365</ele>
        <time>2018-09-22T06:42:26Z</time>
      </trkpt>
      <trkpt lat="42.278357" lon="1.734949">
        <ele>2174.896</ele>
        <time>2018-09-22T06:42:28Z</time>
      </trkpt>
      <trkpt lat="42.278376" lon="1.734949">
        <ele>2175.370</ele>
        <time>2018-09-22T06:42:30Z</time>
      </trkpt>
      <trkpt lat="42.278386" lon="1.734947">
        <ele>2175.726</ele>
        <time>2018-09-22T06:42:31Z</time>
      </trkpt>
      <trkpt lat="42.278409" lon="1.734949">
        <ele>2176.376</ele>
        <time>2018-09-22T06:42:33Z</time>
      </trkpt>
      <trkpt lat="42.278420" lon="1.734943">
        <ele>2176.658</ele>
        <time>2018-09-22T06:42:34Z</time>
      </trkpt>
      <trkpt lat="42.278433" lon="1.734937">
        <ele>2177.030</ele>
        <time>2018-09-22T06:42:35Z</time>
      </trkpt>
      <trkpt lat="42.278457" lon="1.734920">
        <ele>2177.813</ele>
        <time>2018-09-22T06:42:37Z</time>
      </trkpt>
      <trkpt lat="42.278465" lon="1.734912">
        <ele>2178.143</ele>
        <time>2018-09-22T06:42:38Z</time>
      </trkpt>
      <trkpt lat="42.278472" lon="1.734899">
        <ele>2178.307</ele>
        <time>2018-09-22T06:42:39Z</time>
      </trkpt>
      <trkpt lat="42.278481" lon="1.734887">
        <ele>2178.608</ele>
        <time>2018-09-22T06:42:40Z</time>
      </trkpt>
      <trkpt lat="42.278486" lon="1.734872">
        <ele>2178.843</ele>
        <time>2018-09-22T06:42:41Z</time>
      </trkpt>
      <trkpt lat="42.278504" lon="1.734814">
        <ele>2179.579</ele>
        <time>2018-09-22T06:42:45Z</time>
      </trkpt>
      <trkpt lat="42.278509" lon="1.734805">
        <ele>2179.740</ele>
        <time>2018-09-22T06:42:46Z</time>
      </trkpt>
      <trkpt lat="42.278514" lon="1.734794">
        <ele>2179.944</ele>
        <time>2018-09-22T06:42:47Z</time>
      </trkpt>
      <trkpt lat="42.278520" lon="1.734786">
        <ele>2180.120</ele>
        <time>2018-09-22T06:42:48Z</time>
      </trkpt>
      <trkpt lat="42.278522" lon="1.734777">
        <ele>2180.210</ele>
        <time>2018-09-22T06:42:49Z</time>
      </trkpt>
      <trkpt lat="42.278531" lon="1.734757">
        <ele>2180.552</ele>
        <time>2018-09-22T06:42:51Z</time>
      </trkpt>
      <trkpt lat="42.278541" lon="1.734748">
        <ele>2180.844</ele>
        <time>2018-09-22T06:42:52Z</time>
      </trkpt>
      <trkpt lat="42.278552" lon="1.734742">
        <ele>2181.298</ele>
        <time>2018-09-22T06:42:53Z</time>
      </trkpt>
      <trkpt lat="42.278563" lon="1.734736">
        <ele>2181.515</ele>
        <time>2018-09-22T06:42:54Z</time>
      </trkpt>
      <trkpt lat="42.278582" lon="1.734727">
        <ele>2182.126</ele>
        <time>2018-09-22T06:42:56Z</time>
      </trkpt>
      <trkpt lat="42.278596" lon="1.734726">
        <ele>2182.508</ele>
        <time>2018-09-22T06:42:57Z</time>
      </trkpt>
      <trkpt lat="42.278608" lon="1.734725">
        <ele>2182.881</ele>
        <time>2018-09-22T06:42:58Z</time>
      </trkpt>
      <trkpt lat="42.278617" lon="1.734726">
        <ele>2183.147</ele>
        <time>2018-09-22T06:42:59Z</time>
      </trkpt>
      <trkpt lat="42.278641" lon="1.734731">
        <ele>2183.978</ele>
        <time>2018-09-22T06:43:01Z</time>
      </trkpt>
      <trkpt lat="42.278702" lon="1.734762">
        <ele>2185.712</ele>
        <time>2018-09-22T06:43:06Z</time>
      </trkpt>
      <trkpt lat="42.278755" lon="1.734770">
        <ele>2187.418</ele>
        <time>2018-09-22T06:43:11Z</time>
      </trkpt>
      <trkpt lat="42.278792" lon="1.734773">
        <ele>2188.618</ele>
        <time>2018-09-22T06:43:14Z</time>
      </trkpt>
      <trkpt lat="42.278814" lon="1.734772">
        <ele>2189.460</ele>
        <time>2018-09-22T06:43:16Z</time>
      </trkpt>
      <trkpt lat="42.278839" lon="1.734755">
        <ele>2190.282</ele>
        <time>2018-09-22T06:43:20Z</time>
      </trkpt>
      <trkpt lat="42.278850" lon="1.734743">
        <ele>2190.617</ele>
        <time>2018-09-22T06:43:22Z</time>
      </trkpt>
      <trkpt lat="42.278857" lon="1.734741">
        <ele>2190.987</ele>
        <time>2018-09-22T06:43:23Z</time>
      </trkpt>
      <trkpt lat="42.278871" lon="1.734706">
        <ele>2191.715</ele>
        <time>2018-09-22T06:43:27Z</time>
      </trkpt>
      <trkpt lat="42.278876" lon="1.734692">
        <ele>2192.208</ele>
        <time>2018-09-22T06:43:29Z</time>
      </trkpt>
      <trkpt lat="42.278880" lon="1.734685">
        <ele>2192.543</ele>
        <time>2018-09-22T06:43:30Z</time>
      </trkpt>
      <trkpt lat="42.278895" lon="1.734650">
        <ele>2193.759</ele>
        <time>2018-09-22T06:43:34Z</time>
      </trkpt>
      <trkpt lat="42.278913" lon="1.734626">
        <ele>2195.040</ele>
        <time>2018-09-22T06:43:37Z</time>
      </trkpt>
      <trkpt lat="42.278916" lon="1.734620">
        <ele>2195.224</ele>
        <time>2018-09-22T06:43:38Z</time>
      </trkpt>
      <trkpt lat="42.278925" lon="1.734600">
        <ele>2195.990</ele>
        <time>2018-09-22T06:43:41Z</time>
      </trkpt>
      <trkpt lat="42.278947" lon="1.734571">
        <ele>2197.310</ele>
        <time>2018-09-22T06:43:44Z</time>
      </trkpt>
      <trkpt lat="42.278964" lon="1.734566">
        <ele>2197.962</ele>
        <time>2018-09-22T06:43:46Z</time>
      </trkpt>
      <trkpt lat="42.278970" lon="1.734561">
        <ele>2198.364</ele>
        <time>2018-09-22T06:43:49Z</time>
      </trkpt>
      <trkpt lat="42.279031" lon="1.734543">
        <ele>2200.652</ele>
        <time>2018-09-22T06:43:55Z</time>
      </trkpt>
      <trkpt lat="42.279039" lon="1.734541">
        <ele>2200.953</ele>
        <time>2018-09-22T06:43:56Z</time>
      </trkpt>
      <trkpt lat="42.279053" lon="1.734544">
        <ele>2201.408</ele>
        <time>2018-09-22T06:43:58Z</time>
      </trkpt>
      <trkpt lat="42.279062" lon="1.734546">
        <ele>2201.708</ele>
        <time>2018-09-22T06:43:59Z</time>
      </trkpt>
      <trkpt lat="42.279080" lon="1.734535">
        <ele>2202.457</ele>
        <time>2018-09-22T06:44:02Z</time>
      </trkpt>
      <trkpt lat="42.279086" lon="1.734526">
        <ele>2202.773</ele>
        <time>2018-09-22T06:44:03Z</time>
      </trkpt>
      <trkpt lat="42.279114" lon="1.734504">
        <ele>2203.884</ele>
        <time>2018-09-22T06:44:07Z</time>
      </trkpt>
      <trkpt lat="42.279124" lon="1.734506">
        <ele>2204.158</ele>
        <time>2018-09-22T06:44:08Z</time>
      </trkpt>
      <trkpt lat="42.279141" lon="1.734505">
        <ele>2204.734</ele>
        <time>2018-09-22T06:44:10Z</time>
      </trkpt>
      <trkpt lat="42.279152" lon="1.734515">
        <ele>2205.074</ele>
        <time>2018-09-22T06:44:11Z</time>
      </trkpt>
      <trkpt lat="42.279156" lon="1.734515">
        <ele>2205.176</ele>
        <time>2018-09-22T06:44:12Z</time>
      </trkpt>
      <trkpt lat="42.279169" lon="1.734526">
        <ele>2205.588</ele>
        <time>2018-09-22T06:44:15Z</time>
      </trkpt>
      <trkpt lat="42.279175" lon="1.734528">
        <ele>2205.794</ele>
        <time>2018-09-22T06:44:16Z</time>
      </trkpt>
      <trkpt lat="42.279192" lon="1.734523">
        <ele>2206.357</ele>
        <time>2018-09-22T06:44:18Z</time>
      </trkpt>
      <trkpt lat="42.279196" lon="1.734525">
        <ele>2206.522</ele>
        <time>2018-09-22T06:44:19Z</time>
      </trkpt>
      <trkpt lat="42.279200" lon="1.734524">
        <ele>2206.608</ele>
        <time>2018-09-22T06:44:20Z</time>
      </trkpt>
      <trkpt lat="42.279217" lon="1.734537">
        <ele>2207.181</ele>
        <time>2018-09-22T06:44:23Z</time>
      </trkpt>
      <trkpt lat="42.279246" lon="1.734575">
        <ele>2208.077</ele>
        <time>2018-09-22T06:44:26Z</time>
      </trkpt>
      <trkpt lat="42.279270" lon="1.734580">
        <ele>2208.998</ele>
        <time>2018-09-22T06:44:29Z</time>
      </trkpt>
      <trkpt lat="42.279283" lon="1.734593">
        <ele>2209.322</ele>
        <time>2018-09-22T06:44:32Z</time>
      </trkpt>
      <trkpt lat="42.279280" lon="1.734594">
        <ele>2209.278</ele>
        <time>2018-09-22T06:44:34Z</time>
      </trkpt>
      <trkpt lat="42.279279" lon="1.734597">
        <ele>2209.178</ele>
        <time>2018-09-22T06:44:35Z</time>
      </trkpt>
      <trkpt lat="42.279296" lon="1.734597">
        <ele>2209.830</ele>
        <time>2018-09-22T06:44:40Z</time>
      </trkpt>
      <trkpt lat="42.279309" lon="1.734598">
        <ele>2210.222</ele>
        <time>2018-09-22T06:44:42Z</time>
      </trkpt>
      <trkpt lat="42.279319" lon="1.734600">
        <ele>2210.646</ele>
        <time>2018-09-22T06:44:43Z</time>
      </trkpt>
      <trkpt lat="42.279348" lon="1.734610">
        <ele>2211.788</ele>
        <time>2018-09-22T06:44:48Z</time>
      </trkpt>
      <trkpt lat="42.279372" lon="1.734590">
        <ele>2212.716</ele>
        <time>2018-09-22T06:44:54Z</time>
      </trkpt>
      <trkpt lat="42.279412" lon="1.734589">
        <ele>2214.208</ele>
        <time>2018-09-22T06:44:58Z</time>
      </trkpt>
      <trkpt lat="42.279451" lon="1.734558">
        <ele>2215.766</ele>
        <time>2018-09-22T06:45:04Z</time>
      </trkpt>
      <trkpt lat="42.279482" lon="1.734540">
        <ele>2216.632</ele>
        <time>2018-09-22T06:45:08Z</time>
      </trkpt>
      <trkpt lat="42.279528" lon="1.734512">
        <ele>2217.913</ele>
        <time>2018-09-22T06:45:14Z</time>
      </trkpt>
      <trkpt lat="42.279578" lon="1.734490">
        <ele>2219.277</ele>
        <time>2018-09-22T06:45:20Z</time>
      </trkpt>
      <trkpt lat="42.279596" lon="1.734487">
        <ele>2219.713</ele>
        <time>2018-09-22T06:45:23Z</time>
      </trkpt>
      <trkpt lat="42.279646" lon="1.734474">
        <ele>2221.013</ele>
        <time>2018-09-22T06:45:28Z</time>
      </trkpt>
      <trkpt lat="42.279654" lon="1.734474">
        <ele>2221.235</ele>
        <time>2018-09-22T06:45:29Z</time>
      </trkpt>
      <trkpt lat="42.279662" lon="1.734466">
        <ele>2221.497</ele>
        <time>2018-09-22T06:45:30Z</time>
      </trkpt>
      <trkpt lat="42.279718" lon="1.734454">
        <ele>2222.821</ele>
        <time>2018-09-22T06:45:34Z</time>
      </trkpt>
      <trkpt lat="42.279758" lon="1.734442">
        <ele>2224.041</ele>
        <time>2018-09-22T06:45:38Z</time>
      </trkpt>
      <trkpt lat="42.279784" lon="1.734427">
        <ele>2224.905</ele>
        <time>2018-09-22T06:45:41Z</time>
      </trkpt>
      <trkpt lat="42.279807" lon="1.734422">
        <ele>2225.608</ele>
        <time>2018-09-22T06:45:44Z</time>
      </trkpt>
      <trkpt lat="42.279828" lon="1.734411">
        <ele>2226.424</ele>
        <time>2018-09-22T06:45:46Z</time>
      </trkpt>
      <trkpt lat="42.279854" lon="1.734408">
        <ele>2227.120</ele>
        <time>2018-09-22T06:45:49Z</time>
      </trkpt>
      <trkpt lat="42.279857" lon="1.734396">
        <ele>2227.411</ele>
        <time>2018-09-22T06:45:50Z</time>
      </trkpt>
      <trkpt lat="42.279864" lon="1.734398">
        <ele>2227.585</ele>
        <time>2018-09-22T06:45:51Z</time>
      </trkpt>
      <trkpt lat="42.279904" lon="1.734396">
        <ele>2228.711</ele>
        <time>2018-09-22T06:45:55Z</time>
      </trkpt>
      <trkpt lat="42.279930" lon="1.734391">
        <ele>2229.511</ele>
        <time>2018-09-22T06:45:58Z</time>
      </trkpt>
      <trkpt lat="42.279939" lon="1.734389">
        <ele>2229.873</ele>
        <time>2018-09-22T06:45:59Z</time>
      </trkpt>
      <trkpt lat="42.279968" lon="1.734388">
        <ele>2230.625</ele>
        <time>2018-09-22T06:46:02Z</time>
      </trkpt>
      <trkpt lat="42.279976" lon="1.734394">
        <ele>2230.858</ele>
        <time>2018-09-22T06:46:03Z</time>
      </trkpt>
      <trkpt lat="42.280000" lon="1.734378">
        <ele>2231.752</ele>
        <time>2018-09-22T06:46:06Z</time>
      </trkpt>
      <trkpt lat="42.280012" lon="1.734364">
        <ele>2232.317</ele>
        <time>2018-09-22T06:46:08Z</time>
      </trkpt>
      <trkpt lat="42.280032" lon="1.734321">
        <ele>2233.508</ele>
        <time>2018-09-22T06:46:12Z</time>
      </trkpt>
      <trkpt lat="42.280038" lon="1.734311">
        <ele>2233.827</ele>
        <time>2018-09-22T06:46:13Z</time>
      </trkpt>
      <trkpt lat="42.280061" lon="1.734300">
        <ele>2234.853</ele>
        <time>2018-09-22T06:46:16Z</time>
      </trkpt>
      <trkpt lat="42.280065" lon="1.734302">
        <ele>2235.054</ele>
        <time>2018-09-22T06:46:17Z</time>
      </trkpt>
      <trkpt lat="42.280108" lon="1.734311">
        <ele>2236.538</ele>
        <time>2018-09-22T06:46:23Z</time>
      </trkpt>
      <trkpt lat="42.280150" lon="1.734343">
        <ele>2237.894</ele>
        <time>2018-09-22T06:46:27Z</time>
      </trkpt>
      <trkpt lat="42.280187" lon="1.734358">
        <ele>2239.194</ele>
        <time>2018-09-22T06:46:31Z</time>
      </trkpt>
      <trkpt lat="42.280209" lon="1.734379">
        <ele>2239.836</ele>
        <time>2018-09-22T06:46:33Z</time>
      </trkpt>
      <trkpt lat="42.280222" lon="1.734388">
        <ele>2240.278</ele>
        <time>2018-09-22T06:46:34Z</time>
      </trkpt>
      <trkpt lat="42.280263" lon="1.734393">
        <ele>2241.879</ele>
        <time>2018-09-22T06:46:39Z</time>
      </trkpt>
      <trkpt lat="42.280262" lon="1.734342">
        <ele>2242.105</ele>
        <time>2018-09-22T06:46:42Z</time>
      </trkpt>
      <trkpt lat="42.280260" lon="1.734311">
        <ele>2242.325</ele>
        <time>2018-09-22T06:46:44Z</time>
      </trkpt>
      <trkpt lat="42.280257" lon="1.734296">
        <ele>2242.208</ele>
        <time>2018-09-22T06:46:45Z</time>
      </trkpt>
      <trkpt lat="42.280255" lon="1.734279">
        <ele>2242.349</ele>
        <time>2018-09-22T06:46:47Z</time>
      </trkpt>
      <trkpt lat="42.280253" lon="1.734255">
        <ele>2242.495</ele>
        <time>2018-09-22T06:46:49Z</time>
      </trkpt>
      <trkpt lat="42.280254" lon="1.734228">
        <ele>2242.666</ele>
        <time>2018-09-22T06:46:52Z</time>
      </trkpt>
      <trkpt lat="42.280251" lon="1.734207">
        <ele>2242.730</ele>
        <time>2018-09-22T06:46:54Z</time>
      </trkpt>
      <trkpt lat="42.280255" lon="1.734192">
        <ele>2242.996</ele>
        <time>2018-09-22T06:46:55Z</time>
      </trkpt>
      <trkpt lat="42.280263" lon="1.734161">
        <ele>2243.556</ele>
        <time>2018-09-22T06:46:57Z</time>
      </trkpt>
      <trkpt lat="42.280270" lon="1.734140">
        <ele>2244.138</ele>
        <time>2018-09-22T06:46:59Z</time>
      </trkpt>
      <trkpt lat="42.280285" lon="1.734096">
        <ele>2245.340</ele>
        <time>2018-09-22T06:47:04Z</time>
      </trkpt>
      <trkpt lat="42.280289" lon="1.734064">
        <ele>2246.015</ele>
        <time>2018-09-22T06:47:08Z</time>
      </trkpt>
      <trkpt lat="42.280317" lon="1.734007">
        <ele>2248.165</ele>
        <time>2018-09-22T06:47:16Z</time>
      </trkpt>
      <trkpt lat="42.280351" lon="1.734017">
        <ele>2249.611</ele>
        <time>2018-09-22T06:47:19Z</time>
      </trkpt>
      <trkpt lat="42.280384" lon="1.734054">
        <ele>2250.508</ele>
        <time>2018-09-22T06:47:22Z</time>
      </trkpt>
      <trkpt lat="42.280415" lon="1.734093">
        <ele>2251.483</ele>
        <time>2018-09-22T06:47:26Z</time>
      </trkpt>
      <trkpt lat="42.280422" lon="1.734115">
        <ele>2251.439</ele>
        <time>2018-09-22T06:47:28Z</time>
      </trkpt>
      <trkpt lat="42.280459" lon="1.734167">
        <ele>2252.460</ele>
        <time>2018-09-22T06:47:32Z</time>
      </trkpt>
      <trkpt lat="42.280468" lon="1.734190">
        <ele>2252.754</ele>
        <time>2018-09-22T06:47:34Z</time>
      </trkpt>
      <trkpt lat="42.280497" lon="1.734215">
        <ele>2253.930</ele>
        <time>2018-09-22T06:47:38Z</time>
      </trkpt>
      <trkpt lat="42.280516" lon="1.734237">
        <ele>2254.660</ele>
        <time>2018-09-22T06:47:41Z</time>
      </trkpt>
      <trkpt lat="42.280543" lon="1.734251">
        <ele>2255.882</ele>
        <time>2018-09-22T06:47:44Z</time>
      </trkpt>
      <trkpt lat="42.280545" lon="1.734254">
        <ele>2255.824</ele>
        <time>2018-09-22T06:47:45Z</time>
      </trkpt>
      <trkpt lat="42.280557" lon="1.734278">
        <ele>2256.252</ele>
        <time>2018-09-22T06:47:48Z</time>
      </trkpt>
      <trkpt lat="42.280592" lon="1.734304">
        <ele>2257.753</ele>
        <time>2018-09-22T06:47:51Z</time>
      </trkpt>
      <trkpt lat="42.280602" lon="1.734317">
        <ele>2258.008</ele>
        <time>2018-09-22T06:47:52Z</time>
      </trkpt>
      <trkpt lat="42.280608" lon="1.734326">
        <ele>2258.208</ele>
        <time>2018-09-22T06:47:53Z</time>
      </trkpt>
      <trkpt lat="42.280617" lon="1.734324">
        <ele>2258.727</ele>
        <time>2018-09-22T06:47:56Z</time>
      </trkpt>
      <trkpt lat="42.280643" lon="1.734358">
        <ele>2259.593</ele>
        <time>2018-09-22T06:47:59Z</time>
      </trkpt>
      <trkpt lat="42.280662" lon="1.734400">
        <ele>2260.014</ele>
        <time>2018-09-22T06:48:02Z</time>
      </trkpt>
      <trkpt lat="42.280673" lon="1.734445">
        <ele>2260.198</ele>
        <time>2018-09-22T06:48:05Z</time>
      </trkpt>
      <trkpt lat="42.280692" lon="1.734474">
        <ele>2261.284</ele>
        <time>2018-09-22T06:48:08Z</time>
      </trkpt>
      <trkpt lat="42.280697" lon="1.734482">
        <ele>2261.584</ele>
        <time>2018-09-22T06:48:09Z</time>
      </trkpt>
      <trkpt lat="42.280716" lon="1.734499">
        <ele>2262.576</ele>
        <time>2018-09-22T06:48:12Z</time>
      </trkpt>
      <trkpt lat="42.280744" lon="1.734532">
        <ele>2263.958</ele>
        <time>2018-09-22T06:48:15Z</time>
      </trkpt>
      <trkpt lat="42.280768" lon="1.734579">
        <ele>2265.339</ele>
        <time>2018-09-22T06:48:20Z</time>
      </trkpt>
      <trkpt lat="42.280771" lon="1.734538">
        <ele>2265.101</ele>
        <time>2018-09-22T06:48:25Z</time>
      </trkpt>
      <trkpt lat="42.280774" lon="1.734513">
        <ele>2265.021</ele>
        <time>2018-09-22T06:48:27Z</time>
      </trkpt>
      <trkpt lat="42.280781" lon="1.734493">
        <ele>2265.108</ele>
        <time>2018-09-22T06:48:30Z</time>
      </trkpt>
      <trkpt lat="42.280788" lon="1.734487">
        <ele>2265.435</ele>
        <time>2018-09-22T06:48:31Z</time>
      </trkpt>
      <trkpt lat="42.280829" lon="1.734499">
        <ele>2267.281</ele>
        <time>2018-09-22T06:48:35Z</time>
      </trkpt>
      <trkpt lat="42.280842" lon="1.734483">
        <ele>2267.642</ele>
        <time>2018-09-22T06:48:38Z</time>
      </trkpt>
      <trkpt lat="42.280844" lon="1.734476">
        <ele>2267.646</ele>
        <time>2018-09-22T06:48:39Z</time>
      </trkpt>
      <trkpt lat="42.280886" lon="1.734503">
        <ele>2269.492</ele>
        <time>2018-09-22T06:48:45Z</time>
      </trkpt>
      <trkpt lat="42.280911" lon="1.734538">
        <ele>2270.542</ele>
        <time>2018-09-22T06:48:50Z</time>
      </trkpt>
      <trkpt lat="42.280917" lon="1.734554">
        <ele>2270.884</ele>
        <time>2018-09-22T06:48:51Z</time>
      </trkpt>
      <trkpt lat="42.280925" lon="1.734580">
        <ele>2271.246</ele>
        <time>2018-09-22T06:48:53Z</time>
      </trkpt>
      <trkpt lat="42.280929" lon="1.734598">
        <ele>2271.518</ele>
        <time>2018-09-22T06:48:55Z</time>
      </trkpt>
      <trkpt lat="42.280939" lon="1.734609">
        <ele>2271.998</ele>
        <time>2018-09-22T06:48:56Z</time>
      </trkpt>
      <trkpt lat="42.280948" lon="1.734622">
        <ele>2272.317</ele>
        <time>2018-09-22T06:48:57Z</time>
      </trkpt>
      <trkpt lat="42.280964" lon="1.734650">
        <ele>2272.908</ele>
        <time>2018-09-22T06:49:01Z</time>
      </trkpt>
      <trkpt lat="42.280974" lon="1.734656">
        <ele>2273.353</ele>
        <time>2018-09-22T06:49:02Z</time>
      </trkpt>
      <trkpt lat="42.280983" lon="1.734659">
        <ele>2273.679</ele>
        <time>2018-09-22T06:49:04Z</time>
      </trkpt>
      <trkpt lat="42.281000" lon="1.734641">
        <ele>2274.180</ele>
        <time>2018-09-22T06:49:07Z</time>
      </trkpt>
      <trkpt lat="42.281022" lon="1.734624">
        <ele>2274.834</ele>
        <time>2018-09-22T06:49:10Z</time>
      </trkpt>
      <trkpt lat="42.281030" lon="1.734621">
        <ele>2275.180</ele>
        <time>2018-09-22T06:49:11Z</time>
      </trkpt>
      <trkpt lat="42.281040" lon="1.734624">
        <ele>2275.490</ele>
        <time>2018-09-22T06:49:12Z</time>
      </trkpt>
      <trkpt lat="42.281049" lon="1.734618">
        <ele>2275.842</ele>
        <time>2018-09-22T06:49:14Z</time>
      </trkpt>
      <trkpt lat="42.281053" lon="1.734603">
        <ele>2275.974</ele>
        <time>2018-09-22T06:49:15Z</time>
      </trkpt>
      <trkpt lat="42.281059" lon="1.734594">
        <ele>2276.172</ele>
        <time>2018-09-22T06:49:16Z</time>
      </trkpt>
      <trkpt lat="42.281064" lon="1.734583">
        <ele>2276.213</ele>
        <time>2018-09-22T06:49:17Z</time>
      </trkpt>
      <trkpt lat="42.281067" lon="1.734574">
        <ele>2276.414</ele>
        <time>2018-09-22T06:49:18Z</time>
      </trkpt>
      <trkpt lat="42.281074" lon="1.734558">
        <ele>2276.608</ele>
        <time>2018-09-22T06:49:20Z</time>
      </trkpt>
      <trkpt lat="42.281077" lon="1.734549">
        <ele>2276.789</ele>
        <time>2018-09-22T06:49:21Z</time>
      </trkpt>
      <trkpt lat="42.281087" lon="1.734525">
        <ele>2277.185</ele>
        <time>2018-09-22T06:49:23Z</time>
      </trkpt>
      <trkpt lat="42.281094" lon="1.734513">
        <ele>2277.376</ele>
        <time>2018-09-22T06:49:24Z</time>
      </trkpt>
      <trkpt lat="42.281140" lon="1.734481">
        <ele>2278.750</ele>
        <time>2018-09-22T06:49:29Z</time>
      </trkpt>
      <trkpt lat="42.281162" lon="1.734465">
        <ele>2279.376</ele>
        <time>2018-09-22T06:49:32Z</time>
      </trkpt>
      <trkpt lat="42.281167" lon="1.734460">
        <ele>2279.456</ele>
        <time>2018-09-22T06:49:33Z</time>
      </trkpt>
      <trkpt lat="42.281178" lon="1.734460">
        <ele>2279.748</ele>
        <time>2018-09-22T06:49:34Z</time>
      </trkpt>
      <trkpt lat="42.281206" lon="1.734451">
        <ele>2280.390</ele>
        <time>2018-09-22T06:49:37Z</time>
      </trkpt>
      <trkpt lat="42.281229" lon="1.734440">
        <ele>2281.062</ele>
        <time>2018-09-22T06:49:40Z</time>
      </trkpt>
      <trkpt lat="42.281254" lon="1.734442">
        <ele>2281.683</ele>
        <time>2018-09-22T06:49:42Z</time>
      </trkpt>
      <trkpt lat="42.281292" lon="1.734444">
        <ele>2282.511</ele>
        <time>2018-09-22T06:49:45Z</time>
      </trkpt>
      <trkpt lat="42.281310" lon="1.734434">
        <ele>2283.108</ele>
        <time>2018-09-22T06:49:47Z</time>
      </trkpt>
      <trkpt lat="42.281354" lon="1.734421">
        <ele>2284.568</ele>
        <time>2018-09-22T06:49:51Z</time>
      </trkpt>
      <trkpt lat="42.281365" lon="1.734427">
        <ele>2284.774</ele>
        <time>2018-09-22T06:49:52Z</time>
      </trkpt>
      <trkpt lat="42.281393" lon="1.734449">
        <ele>2285.145</ele>
        <time>2018-09-22T06:49:55Z</time>
      </trkpt>
      <trkpt lat="42.281414" lon="1.734459">
        <ele>2286.029</ele>
        <time>2018-09-22T06:49:57Z</time>
      </trkpt>
      <trkpt lat="42.281429" lon="1.734467">
        <ele>2286.785</ele>
        <time>2018-09-22T06:49:58Z</time>
      </trkpt>
      <trkpt lat="42.281452" lon="1.734491">
        <ele>2287.845</ele>
        <time>2018-09-22T06:50:00Z</time>
      </trkpt>
      <trkpt lat="42.281477" lon="1.734505">
        <ele>2288.987</ele>
        <time>2018-09-22T06:50:03Z</time>
      </trkpt>
      <trkpt lat="42.281493" lon="1.734514">
        <ele>2289.699</ele>
        <time>2018-09-22T06:50:05Z</time>
      </trkpt>
      <trkpt lat="42.281514" lon="1.734519">
        <ele>2290.475</ele>
        <time>2018-09-22T06:50:07Z</time>
      </trkpt>
      <trkpt lat="42.281528" lon="1.734526">
        <ele>2291.028</ele>
        <time>2018-09-22T06:50:09Z</time>
      </trkpt>
      <trkpt lat="42.281533" lon="1.734532">
        <ele>2291.320</ele>
        <time>2018-09-22T06:50:10Z</time>
      </trkpt>
      <trkpt lat="42.281548" lon="1.734547">
        <ele>2292.008</ele>
        <time>2018-09-22T06:50:13Z</time>
      </trkpt>
      <trkpt lat="42.281567" lon="1.734548">
        <ele>2292.889</ele>
        <time>2018-09-22T06:50:15Z</time>
      </trkpt>
      <trkpt lat="42.281607" lon="1.734569">
        <ele>2294.595</ele>
        <time>2018-09-22T06:50:18Z</time>
      </trkpt>
      <trkpt lat="42.281623" lon="1.734577">
        <ele>2295.266</ele>
        <time>2018-09-22T06:50:20Z</time>
      </trkpt>
      <trkpt lat="42.281635" lon="1.734580">
        <ele>2295.720</ele>
        <time>2018-09-22T06:50:22Z</time>
      </trkpt>
      <trkpt lat="42.281652" lon="1.734575">
        <ele>2296.366</ele>
        <time>2018-09-22T06:50:25Z</time>
      </trkpt>
      <trkpt lat="42.281664" lon="1.734565">
        <ele>2296.786</ele>
        <time>2018-09-22T06:50:27Z</time>
      </trkpt>
      <trkpt lat="42.281670" lon="1.734560">
        <ele>2296.988</ele>
        <time>2018-09-22T06:50:28Z</time>
      </trkpt>
      <trkpt lat="42.281687" lon="1.734553">
        <ele>2297.830</ele>
        <time>2018-09-22T06:50:30Z</time>
      </trkpt>
      <trkpt lat="42.281705" lon="1.734554">
        <ele>2298.768</ele>
        <time>2018-09-22T06:50:32Z</time>
      </trkpt>
      <trkpt lat="42.281736" lon="1.734579">
        <ele>2300.442</ele>
        <time>2018-09-22T06:50:35Z</time>
      </trkpt>
      <trkpt lat="42.281737" lon="1.734586">
        <ele>2300.526</ele>
        <time>2018-09-22T06:50:36Z</time>
      </trkpt>
      <trkpt lat="42.281737" lon="1.734599">
        <ele>2300.608</ele>
        <time>2018-09-22T06:50:37Z</time>
      </trkpt>
      <trkpt lat="42.281736" lon="1.734641">
        <ele>2300.828</ele>
        <time>2018-09-22T06:50:40Z</time>
      </trkpt>
      <trkpt lat="42.281736" lon="1.734656">
        <ele>2300.874</ele>
        <time>2018-09-22T06:50:41Z</time>
      </trkpt>
      <trkpt lat="42.281731" lon="1.734669">
        <ele>2300.775</ele>
        <time>2018-09-22T06:50:42Z</time>
      </trkpt>
      <trkpt lat="42.281726" lon="1.734687">
        <ele>2300.539</ele>
        <time>2018-09-22T06:50:44Z</time>
      </trkpt>
      <trkpt lat="42.281725" lon="1.734698">
        <ele>2300.615</ele>
        <time>2018-09-22T06:50:45Z</time>
      </trkpt>
      <trkpt lat="42.281732" lon="1.734710">
        <ele>2301.075</ele>
        <time>2018-09-22T06:50:46Z</time>
      </trkpt>
      <trkpt lat="42.281757" lon="1.734761">
        <ele>2303.217</ele>
        <time>2018-09-22T06:50:50Z</time>
      </trkpt>
      <trkpt lat="42.281756" lon="1.734772">
        <ele>2303.549</ele>
        <time>2018-09-22T06:50:51Z</time>
      </trkpt>
      <trkpt lat="42.281755" lon="1.734795">
        <ele>2304.152</ele>
        <time>2018-09-22T06:50:53Z</time>
      </trkpt>
      <trkpt lat="42.281758" lon="1.734813">
        <ele>2304.753</ele>
        <time>2018-09-22T06:50:55Z</time>
      </trkpt>
      <trkpt lat="42.281763" lon="1.734815">
        <ele>2305.008</ele>
        <time>2018-09-22T06:50:56Z</time>
      </trkpt>
      <trkpt lat="42.281775" lon="1.734805">
        <ele>2305.308</ele>
        <time>2018-09-22T06:50:58Z</time>
      </trkpt>
      <trkpt lat="42.281782" lon="1.734799">
        <ele>2305.467</ele>
        <time>2018-09-22T06:50:59Z</time>
      </trkpt>
      <trkpt lat="42.281788" lon="1.734788">
        <ele>2305.413</ele>
        <time>2018-09-22T06:51:01Z</time>
      </trkpt>
      <trkpt lat="42.281787" lon="1.734782">
        <ele>2305.264</ele>
        <time>2018-09-22T06:51:02Z</time>
      </trkpt>
      <trkpt lat="42.281797" lon="1.734785">
        <ele>2305.818</ele>
        <time>2018-09-22T06:51:11Z</time>
      </trkpt>
      <trkpt lat="42.281817" lon="1.734780">
        <ele>2306.544</ele>
        <time>2018-09-22T06:51:15Z</time>
      </trkpt>
      <trkpt lat="42.281849" lon="1.734784">
        <ele>2308.134</ele>
        <time>2018-09-22T06:51:19Z</time>
      </trkpt>
      <trkpt lat="42.281859" lon="1.734790">
        <ele>2308.836</ele>
        <time>2018-09-22T06:51:20Z</time>
      </trkpt>
      <trkpt lat="42.281870" lon="1.734776">
        <ele>2308.868</ele>
        <time>2018-09-22T06:51:24Z</time>
      </trkpt>
      <trkpt lat="42.281887" lon="1.734768">
        <ele>2309.516</ele>
        <time>2018-09-22T06:51:27Z</time>
      </trkpt>
      <trkpt lat="42.281899" lon="1.734767">
        <ele>2310.076</ele>
        <time>2018-09-22T06:51:29Z</time>
      </trkpt>
      <trkpt lat="42.281918" lon="1.734767">
        <ele>2310.813</ele>
        <time>2018-09-22T06:51:32Z</time>
      </trkpt>
      <trkpt lat="42.281925" lon="1.734761">
        <ele>2311.008</ele>
        <time>2018-09-22T06:51:33Z</time>
      </trkpt>
      <trkpt lat="42.281948" lon="1.734772">
        <ele>2312.443</ele>
        <time>2018-09-22T06:51:36Z</time>
      </trkpt>
      <trkpt lat="42.281965" lon="1.734746">
        <ele>2312.649</ele>
        <time>2018-09-22T06:51:39Z</time>
      </trkpt>
      <trkpt lat="42.281976" lon="1.734729">
        <ele>2312.770</ele>
        <time>2018-09-22T06:51:41Z</time>
      </trkpt>
      <trkpt lat="42.281989" lon="1.734711">
        <ele>2313.224</ele>
        <time>2018-09-22T06:51:43Z</time>
      </trkpt>
      <trkpt lat="42.281996" lon="1.734706">
        <ele>2313.570</ele>
        <time>2018-09-22T06:51:44Z</time>
      </trkpt>
      <trkpt lat="42.282002" lon="1.734704">
        <ele>2313.960</ele>
        <time>2018-09-22T06:51:45Z</time>
      </trkpt>
      <trkpt lat="42.282016" lon="1.734704">
        <ele>2314.652</ele>
        <time>2018-09-22T06:51:47Z</time>
      </trkpt>
      <trkpt lat="42.282022" lon="1.734700">
        <ele>2314.894</ele>
        <time>2018-09-22T06:51:48Z</time>
      </trkpt>
      <trkpt lat="42.282046" lon="1.734684">
        <ele>2316.199</ele>
        <time>2018-09-22T06:51:52Z</time>
      </trkpt>
      <trkpt lat="42.282071" lon="1.734667">
        <ele>2317.307</ele>
        <time>2018-09-22T06:51:55Z</time>
      </trkpt>
      <trkpt lat="42.282076" lon="1.734662">
        <ele>2317.627</ele>
        <time>2018-09-22T06:51:56Z</time>
      </trkpt>
      <trkpt lat="42.282085" lon="1.734661">
        <ele>2318.008</ele>
        <time>2018-09-22T06:51:57Z</time>
      </trkpt>
      <trkpt lat="42.282108" lon="1.734646">
        <ele>2319.281</ele>
        <time>2018-09-22T06:52:01Z</time>
      </trkpt>
      <trkpt lat="42.282129" lon="1.734654">
        <ele>2320.227</ele>
        <time>2018-09-22T06:52:03Z</time>
      </trkpt>
      <trkpt lat="42.282141" lon="1.734666">
        <ele>2320.948</ele>
        <time>2018-09-22T06:52:04Z</time>
      </trkpt>
      <trkpt lat="42.282153" lon="1.734688">
        <ele>2321.592</ele>
        <time>2018-09-22T06:52:07Z</time>
      </trkpt>
      <trkpt lat="42.282170" lon="1.734708">
        <ele>2322.318</ele>
        <time>2018-09-22T06:52:09Z</time>
      </trkpt>
      <trkpt lat="42.282185" lon="1.734690">
        <ele>2323.118</ele>
        <time>2018-09-22T06:52:12Z</time>
      </trkpt>
      <trkpt lat="42.282188" lon="1.734677">
        <ele>2323.210</ele>
        <time>2018-09-22T06:52:13Z</time>
      </trkpt>
      <trkpt lat="42.282192" lon="1.734651">
        <ele>2323.492</ele>
        <time>2018-09-22T06:52:15Z</time>
      </trkpt>
      <trkpt lat="42.282192" lon="1.734639">
        <ele>2323.443</ele>
        <time>2018-09-22T06:52:16Z</time>
      </trkpt>
      <trkpt lat="42.282182" lon="1.734574">
        <ele>2322.964</ele>
        <time>2018-09-22T06:52:20Z</time>
      </trkpt>
      <trkpt lat="42.282177" lon="1.734553">
        <ele>2322.710</ele>
        <time>2018-09-22T06:52:21Z</time>
      </trkpt>
      <trkpt lat="42.282177" lon="1.734489">
        <ele>2322.708</ele>
        <time>2018-09-22T06:52:26Z</time>
      </trkpt>
      <trkpt lat="42.282174" lon="1.734399">
        <ele>2323.586</ele>
        <time>2018-09-22T06:52:32Z</time>
      </trkpt>
      <trkpt lat="42.282172" lon="1.734335">
        <ele>2324.812</ele>
        <time>2018-09-22T06:52:37Z</time>
      </trkpt>
      <trkpt lat="42.282178" lon="1.734304">
        <ele>2325.723</ele>
        <time>2018-09-22T06:52:40Z</time>
      </trkpt>
      <trkpt lat="42.282183" lon="1.734294">
        <ele>2326.297</ele>
        <time>2018-09-22T06:52:41Z</time>
      </trkpt>
      <trkpt lat="42.282187" lon="1.734284">
        <ele>2326.613</ele>
        <time>2018-09-22T06:52:42Z</time>
      </trkpt>
      <trkpt lat="42.282191" lon="1.734246">
        <ele>2327.753</ele>
        <time>2018-09-22T06:52:46Z</time>
      </trkpt>
      <trkpt lat="42.282195" lon="1.734225">
        <ele>2328.315</ele>
        <time>2018-09-22T06:52:48Z</time>
      </trkpt>
      <trkpt lat="42.282199" lon="1.734200">
        <ele>2329.157</ele>
        <time>2018-09-22T06:52:51Z</time>
      </trkpt>
      <trkpt lat="42.282198" lon="1.734178">
        <ele>2329.526</ele>
        <time>2018-09-22T06:52:53Z</time>
      </trkpt>
      <trkpt lat="42.282179" lon="1.734092">
        <ele>2330.747</ele>
        <time>2018-09-22T06:52:59Z</time>
      </trkpt>
      <trkpt lat="42.282173" lon="1.734054">
        <ele>2331.411</ele>
        <time>2018-09-22T06:53:02Z</time>
      </trkpt>
      <trkpt lat="42.282173" lon="1.734047">
        <ele>2331.608</ele>
        <time>2018-09-22T06:53:03Z</time>
      </trkpt>
      <trkpt lat="42.282169" lon="1.734019">
        <ele>2332.114</ele>
        <time>2018-09-22T06:53:06Z</time>
      </trkpt>
      <trkpt lat="42.282173" lon="1.733993">
        <ele>2332.910</ele>
        <time>2018-09-22T06:53:09Z</time>
      </trkpt>
      <trkpt lat="42.282177" lon="1.733986">
        <ele>2333.381</ele>
        <time>2018-09-22T06:53:11Z</time>
      </trkpt>
      <trkpt lat="42.282181" lon="1.733973">
        <ele>2333.935</ele>
        <time>2018-09-22T06:53:14Z</time>
      </trkpt>
      <trkpt lat="42.282188" lon="1.733961">
        <ele>2334.561</ele>
        <time>2018-09-22T06:53:18Z</time>
      </trkpt>
      <trkpt lat="42.282189" lon="1.733951">
        <ele>2334.871</ele>
        <time>2018-09-22T06:53:19Z</time>
      </trkpt>
      <trkpt lat="42.282189" lon="1.733924">
        <ele>2335.513</ele>
        <time>2018-09-22T06:53:21Z</time>
      </trkpt>
      <trkpt lat="42.282191" lon="1.733915">
        <ele>2335.845</ele>
        <time>2018-09-22T06:53:22Z</time>
      </trkpt>
      <trkpt lat="42.282199" lon="1.733880">
        <ele>2337.041</ele>
        <time>2018-09-22T06:53:26Z</time>
      </trkpt>
      <trkpt lat="42.282201" lon="1.733871">
        <ele>2337.381</ele>
        <time>2018-09-22T06:53:27Z</time>
      </trkpt>
      <trkpt lat="42.282202" lon="1.733859">
        <ele>2337.609</ele>
        <time>2018-09-22T06:53:28Z</time>
      </trkpt>
      <trkpt lat="42.282202" lon="1.733848">
        <ele>2337.808</ele>
        <time>2018-09-22T06:53:29Z</time>
      </trkpt>
      <trkpt lat="42.282207" lon="1.733802">
        <ele>2338.936</ele>
        <time>2018-09-22T06:53:33Z</time>
      </trkpt>
      <trkpt lat="42.282206" lon="1.733753">
        <ele>2339.792</ele>
        <time>2018-09-22T06:53:36Z</time>
      </trkpt>
      <trkpt lat="42.282208" lon="1.733718">
        <ele>2340.583</ele>
        <time>2018-09-22T06:53:39Z</time>
      </trkpt>
      <trkpt lat="42.282210" lon="1.733706">
        <ele>2340.837</ele>
        <time>2018-09-22T06:53:41Z</time>
      </trkpt>
      <trkpt lat="42.282210" lon="1.733699">
        <ele>2340.963</ele>
        <time>2018-09-22T06:53:42Z</time>
      </trkpt>
      <trkpt lat="42.282213" lon="1.733683">
        <ele>2341.313</ele>
        <time>2018-09-22T06:53:44Z</time>
      </trkpt>
      <trkpt lat="42.282221" lon="1.733672">
        <ele>2341.865</ele>
        <time>2018-09-22T06:53:46Z</time>
      </trkpt>
      <trkpt lat="42.282222" lon="1.733647">
        <ele>2342.397</ele>
        <time>2018-09-22T06:53:49Z</time>
      </trkpt>
      <trkpt lat="42.282221" lon="1.733631">
        <ele>2342.596</ele>
        <time>2018-09-22T06:53:51Z</time>
      </trkpt>
      <trkpt lat="42.282221" lon="1.733595">
        <ele>2343.331</ele>
        <time>2018-09-22T06:53:55Z</time>
      </trkpt>
      <trkpt lat="42.282236" lon="1.733582">
        <ele>2344.224</ele>
        <time>2018-09-22T06:53:57Z</time>
      </trkpt>
      <trkpt lat="42.282249" lon="1.733586">
        <ele>2344.708</ele>
        <time>2018-09-22T06:53:59Z</time>
      </trkpt>
      <trkpt lat="42.282287" lon="1.733604">
        <ele>2345.771</ele>
        <time>2018-09-22T06:54:03Z</time>
      </trkpt>
      <trkpt lat="42.282302" lon="1.733610">
        <ele>2346.147</ele>
        <time>2018-09-22T06:54:05Z</time>
      </trkpt>
      <trkpt lat="42.282320" lon="1.733617">
        <ele>2346.768</ele>
        <time>2018-09-22T06:54:07Z</time>
      </trkpt>
      <trkpt lat="42.282359" lon="1.733640">
        <ele>2347.862</ele>
        <time>2018-09-22T06:54:11Z</time>
      </trkpt>
      <trkpt lat="42.282365" lon="1.733647">
        <ele>2348.078</ele>
        <time>2018-09-22T06:54:12Z</time>
      </trkpt>
      <trkpt lat="42.282393" lon="1.733668">
        <ele>2348.788</ele>
        <time>2018-09-22T06:54:15Z</time>
      </trkpt>
      <trkpt lat="42.282422" lon="1.733680">
        <ele>2349.660</ele>
        <time>2018-09-22T06:54:19Z</time>
      </trkpt>
      <trkpt lat="42.282440" lon="1.733682">
        <ele>2350.382</ele>
        <time>2018-09-22T06:54:21Z</time>
      </trkpt>
      <trkpt lat="42.282446" lon="1.733686">
        <ele>2350.564</ele>
        <time>2018-09-22T06:54:22Z</time>
      </trkpt>
      <trkpt lat="42.282469" lon="1.733693">
        <ele>2351.306</ele>
        <time>2018-09-22T06:54:25Z</time>
      </trkpt>
      <trkpt lat="42.282480" lon="1.733694">
        <ele>2351.716</ele>
        <time>2018-09-22T06:54:26Z</time>
      </trkpt>
      <trkpt lat="42.282487" lon="1.733700">
        <ele>2351.808</ele>
        <time>2018-09-22T06:54:27Z</time>
      </trkpt>
      <trkpt lat="42.282497" lon="1.733707">
        <ele>2352.118</ele>
        <time>2018-09-22T06:54:28Z</time>
      </trkpt>
      <trkpt lat="42.282503" lon="1.733708">
        <ele>2352.324</ele>
        <time>2018-09-22T06:54:29Z</time>
      </trkpt>
      <trkpt lat="42.282514" lon="1.733712">
        <ele>2352.585</ele>
        <time>2018-09-22T06:54:30Z</time>
      </trkpt>
      <trkpt lat="42.282527" lon="1.733717">
        <ele>2352.759</ele>
        <time>2018-09-22T06:54:31Z</time>
      </trkpt>
      <trkpt lat="42.282545" lon="1.733723">
        <ele>2353.165</ele>
        <time>2018-09-22T06:54:33Z</time>
      </trkpt>
      <trkpt lat="42.282630" lon="1.733722">
        <ele>2355.395</ele>
        <time>2018-09-22T06:54:41Z</time>
      </trkpt>
      <trkpt lat="42.282660" lon="1.733715">
        <ele>2356.387</ele>
        <time>2018-09-22T06:54:44Z</time>
      </trkpt>
      <trkpt lat="42.282692" lon="1.733712">
        <ele>2357.179</ele>
        <time>2018-09-22T06:54:48Z</time>
      </trkpt>
      <trkpt lat="42.282713" lon="1.733726">
        <ele>2357.482</ele>
        <time>2018-09-22T06:54:50Z</time>
      </trkpt>
      <trkpt lat="42.282723" lon="1.733732">
        <ele>2357.543</ele>
        <time>2018-09-22T06:54:51Z</time>
      </trkpt>
      <trkpt lat="42.282731" lon="1.733735">
        <ele>2357.617</ele>
        <time>2018-09-22T06:54:52Z</time>
      </trkpt>
      <trkpt lat="42.282750" lon="1.733730">
        <ele>2358.208</ele>
        <time>2018-09-22T06:54:54Z</time>
      </trkpt>
      <trkpt lat="42.282759" lon="1.733724">
        <ele>2358.640</ele>
        <time>2018-09-22T06:54:55Z</time>
      </trkpt>
      <trkpt lat="42.282769" lon="1.733716">
        <ele>2359.116</ele>
        <time>2018-09-22T06:54:56Z</time>
      </trkpt>
      <trkpt lat="42.282789" lon="1.733696">
        <ele>2360.197</ele>
        <time>2018-09-22T06:54:59Z</time>
      </trkpt>
      <trkpt lat="42.282793" lon="1.733691">
        <ele>2360.321</ele>
        <time>2018-09-22T06:55:00Z</time>
      </trkpt>
      <trkpt lat="42.282805" lon="1.733686">
        <ele>2360.837</ele>
        <time>2018-09-22T06:55:02Z</time>
      </trkpt>
      <trkpt lat="42.282804" lon="1.733672">
        <ele>2361.117</ele>
        <time>2018-09-22T06:55:05Z</time>
      </trkpt>
      <trkpt lat="42.282807" lon="1.733631">
        <ele>2362.229</ele>
        <time>2018-09-22T06:55:09Z</time>
      </trkpt>
      <trkpt lat="42.282815" lon="1.733627">
        <ele>2362.531</ele>
        <time>2018-09-22T06:55:10Z</time>
      </trkpt>
      <trkpt lat="42.282845" lon="1.733624">
        <ele>2363.314</ele>
        <time>2018-09-22T06:55:14Z</time>
      </trkpt>
      <trkpt lat="42.282855" lon="1.733617">
        <ele>2363.854</ele>
        <time>2018-09-22T06:55:16Z</time>
      </trkpt>
      <trkpt lat="42.282865" lon="1.733610">
        <ele>2364.209</ele>
        <time>2018-09-22T06:55:18Z</time>
      </trkpt>
      <trkpt lat="42.282869" lon="1.733605">
        <ele>2364.408</ele>
        <time>2018-09-22T06:55:19Z</time>
      </trkpt>
      <trkpt lat="42.282879" lon="1.733587">
        <ele>2365.483</ele>
        <time>2018-09-22T06:55:22Z</time>
      </trkpt>
      <trkpt lat="42.282880" lon="1.733582">
        <ele>2365.669</ele>
        <time>2018-09-22T06:55:23Z</time>
      </trkpt>
      <trkpt lat="42.282883" lon="1.733575">
        <ele>2365.940</ele>
        <time>2018-09-22T06:55:24Z</time>
      </trkpt>
      <trkpt lat="42.282893" lon="1.733565">
        <ele>2366.534</ele>
        <time>2018-09-22T06:55:26Z</time>
      </trkpt>
      <trkpt lat="42.282916" lon="1.733556">
        <ele>2367.450</ele>
        <time>2018-09-22T06:55:29Z</time>
      </trkpt>
      <trkpt lat="42.282945" lon="1.733547">
        <ele>2368.530</ele>
        <time>2018-09-22T06:55:33Z</time>
      </trkpt>
      <trkpt lat="42.282962" lon="1.733542">
        <ele>2369.162</ele>
        <time>2018-09-22T06:55:35Z</time>
      </trkpt>
      <trkpt lat="42.282970" lon="1.733543">
        <ele>2369.334</ele>
        <time>2018-09-22T06:55:36Z</time>
      </trkpt>
      <trkpt lat="42.282979" lon="1.733543">
        <ele>2369.587</ele>
        <time>2018-09-22T06:55:37Z</time>
      </trkpt>
      <trkpt lat="42.282986" lon="1.733543">
        <ele>2369.742</ele>
        <time>2018-09-22T06:55:38Z</time>
      </trkpt>
      <trkpt lat="42.282992" lon="1.733543">
        <ele>2369.826</ele>
        <time>2018-09-22T06:55:39Z</time>
      </trkpt>
      <trkpt lat="42.282993" lon="1.733543">
        <ele>2369.808</ele>
        <time>2018-09-22T06:55:40Z</time>
      </trkpt>
      <trkpt lat="42.283009" lon="1.733523">
        <ele>2370.930</ele>
        <time>2018-09-22T06:55:49Z</time>
      </trkpt>
      <trkpt lat="42.283025" lon="1.733523">
        <ele>2371.466</ele>
        <time>2018-09-22T06:55:51Z</time>
      </trkpt>
      <trkpt lat="42.283032" lon="1.733522">
        <ele>2371.677</ele>
        <time>2018-09-22T06:55:52Z</time>
      </trkpt>
      <trkpt lat="42.283039" lon="1.733516">
        <ele>2372.021</ele>
        <time>2018-09-22T06:55:53Z</time>
      </trkpt>
      <trkpt lat="42.283076" lon="1.733484">
        <ele>2374.027</ele>
        <time>2018-09-22T06:55:58Z</time>
      </trkpt>
      <trkpt lat="42.283113" lon="1.733476">
        <ele>2375.267</ele>
        <time>2018-09-22T06:56:02Z</time>
      </trkpt>
      <trkpt lat="42.283127" lon="1.733471">
        <ele>2375.769</ele>
        <time>2018-09-22T06:56:04Z</time>
      </trkpt>
      <trkpt lat="42.283154" lon="1.733474">
        <ele>2376.231</ele>
        <time>2018-09-22T06:56:06Z</time>
      </trkpt>
      <trkpt lat="42.283168" lon="1.733471">
        <ele>2376.626</ele>
        <time>2018-09-22T06:56:08Z</time>
      </trkpt>
      <trkpt lat="42.283174" lon="1.733468">
        <ele>2376.847</ele>
        <time>2018-09-22T06:56:09Z</time>
      </trkpt>
      <trkpt lat="42.283198" lon="1.733465">
        <ele>2377.511</ele>
        <time>2018-09-22T06:56:12Z</time>
      </trkpt>
      <trkpt lat="42.283205" lon="1.733465">
        <ele>2377.608</ele>
        <time>2018-09-22T06:56:13Z</time>
      </trkpt>
      <trkpt lat="42.283235" lon="1.733456">
        <ele>2378.514</ele>
        <time>2018-09-22T06:56:16Z</time>
      </trkpt>
      <trkpt lat="42.283237" lon="1.733452">
        <ele>2378.750</ele>
        <time>2018-09-22T06:56:17Z</time>
      </trkpt>
      <trkpt lat="42.283240" lon="1.733448">
        <ele>2378.821</ele>
        <time>2018-09-22T06:56:18Z</time>
      </trkpt>
      <trkpt lat="42.283252" lon="1.733445">
        <ele>2379.245</ele>
        <time>2018-09-22T06:56:20Z</time>
      </trkpt>
      <trkpt lat="42.283263" lon="1.733410">
        <ele>2380.281</ele>
        <time>2018-09-22T06:56:24Z</time>
      </trkpt>
      <trkpt lat="42.283270" lon="1.733387">
        <ele>2380.811</ele>
        <time>2018-09-22T06:56:26Z</time>
      </trkpt>
      <trkpt lat="42.283270" lon="1.733373">
        <ele>2381.243</ele>
        <time>2018-09-22T06:56:27Z</time>
      </trkpt>
      <trkpt lat="42.283273" lon="1.733354">
        <ele>2381.615</ele>
        <time>2018-09-22T06:56:29Z</time>
      </trkpt>
      <trkpt lat="42.283278" lon="1.733338">
        <ele>2382.125</ele>
        <time>2018-09-22T06:56:31Z</time>
      </trkpt>
      <trkpt lat="42.283287" lon="1.733312">
        <ele>2383.126</ele>
        <time>2018-09-22T06:56:33Z</time>
      </trkpt>
      <trkpt lat="42.283293" lon="1.733301">
        <ele>2383.608</ele>
        <time>2018-09-22T06:56:34Z</time>
      </trkpt>
      <trkpt lat="42.283315" lon="1.733295">
        <ele>2384.108</ele>
        <time>2018-09-22T06:56:37Z</time>
      </trkpt>
      <trkpt lat="42.283324" lon="1.733275">
        <ele>2384.964</ele>
        <time>2018-09-22T06:56:40Z</time>
      </trkpt>
      <trkpt lat="42.283342" lon="1.733257">
        <ele>2386.030</ele>
        <time>2018-09-22T06:56:43Z</time>
      </trkpt>
      <trkpt lat="42.283363" lon="1.733234">
        <ele>2387.691</ele>
        <time>2018-09-22T06:56:46Z</time>
      </trkpt>
      <trkpt lat="42.283373" lon="1.733220">
        <ele>2388.435</ele>
        <time>2018-09-22T06:56:48Z</time>
      </trkpt>
      <trkpt lat="42.283380" lon="1.733213">
        <ele>2388.921</ele>
        <time>2018-09-22T06:56:49Z</time>
      </trkpt>
      <trkpt lat="42.283411" lon="1.733190">
        <ele>2390.681</ele>
        <time>2018-09-22T06:56:53Z</time>
      </trkpt>
      <trkpt lat="42.283411" lon="1.733175">
        <ele>2391.043</ele>
        <time>2018-09-22T06:56:55Z</time>
      </trkpt>
      <trkpt lat="42.283435" lon="1.733166">
        <ele>2392.195</ele>
        <time>2018-09-22T06:56:59Z</time>
      </trkpt>
      <trkpt lat="42.283442" lon="1.733149">
        <ele>2392.766</ele>
        <time>2018-09-22T06:57:01Z</time>
      </trkpt>
      <trkpt lat="42.283455" lon="1.733135">
        <ele>2393.529</ele>
        <time>2018-09-22T06:57:04Z</time>
      </trkpt>
      <trkpt lat="42.283485" lon="1.733109">
        <ele>2394.921</ele>
        <time>2018-09-22T06:57:09Z</time>
      </trkpt>
      <trkpt lat="42.283509" lon="1.733085">
        <ele>2396.108</ele>
        <time>2018-09-22T06:57:13Z</time>
      </trkpt>
      <trkpt lat="42.283507" lon="1.733071">
        <ele>2396.358</ele>
        <time>2018-09-22T06:57:15Z</time>
      </trkpt>
      <trkpt lat="42.283512" lon="1.733060">
        <ele>2396.774</ele>
        <time>2018-09-22T06:57:18Z</time>
      </trkpt>
      <trkpt lat="42.283520" lon="1.733031">
        <ele>2397.725</ele>
        <time>2018-09-22T06:57:22Z</time>
      </trkpt>
      <trkpt lat="42.283519" lon="1.733003">
        <ele>2398.689</ele>
        <time>2018-09-22T06:57:25Z</time>
      </trkpt>
      <trkpt lat="42.283541" lon="1.732994">
        <ele>2399.325</ele>
        <time>2018-09-22T06:57:29Z</time>
      </trkpt>
      <trkpt lat="42.283551" lon="1.732998">
        <ele>2399.395</ele>
        <time>2018-09-22T06:57:30Z</time>
      </trkpt>
      <trkpt lat="42.283564" lon="1.733008">
        <ele>2399.327</ele>
        <time>2018-09-22T06:57:31Z</time>
      </trkpt>
      <trkpt lat="42.283572" lon="1.733010">
        <ele>2399.419</ele>
        <time>2018-09-22T06:57:32Z</time>
      </trkpt>
      <trkpt lat="42.283576" lon="1.733013">
        <ele>2399.439</ele>
        <time>2018-09-22T06:57:33Z</time>
      </trkpt>
      <trkpt lat="42.283607" lon="1.733010">
        <ele>2400.001</ele>
        <time>2018-09-22T06:57:39Z</time>
      </trkpt>
      <trkpt lat="42.283604" lon="1.732989">
        <ele>2400.521</ele>
        <time>2018-09-22T06:57:43Z</time>
      </trkpt>
      <trkpt lat="42.283615" lon="1.732955">
        <ele>2401.608</ele>
        <time>2018-09-22T06:57:54Z</time>
      </trkpt>
      <trkpt lat="42.283618" lon="1.732951">
        <ele>2401.835</ele>
        <time>2018-09-22T06:57:55Z</time>
      </trkpt>
      <trkpt lat="42.283624" lon="1.732948">
        <ele>2402.161</ele>
        <time>2018-09-22T06:57:56Z</time>
      </trkpt>
      <trkpt lat="42.283629" lon="1.732944">
        <ele>2402.332</ele>
        <time>2018-09-22T06:57:57Z</time>
      </trkpt>
      <trkpt lat="42.283643" lon="1.732933">
        <ele>2403.046</ele>
        <time>2018-09-22T06:58:00Z</time>
      </trkpt>
      <trkpt lat="42.283647" lon="1.732893">
        <ele>2404.012</ele>
        <time>2018-09-22T06:58:06Z</time>
      </trkpt>
      <trkpt lat="42.283647" lon="1.732877">
        <ele>2404.422</ele>
        <time>2018-09-22T06:58:09Z</time>
      </trkpt>
      <trkpt lat="42.283643" lon="1.732869">
        <ele>2404.514</ele>
        <time>2018-09-22T06:58:10Z</time>
      </trkpt>
      <trkpt lat="42.283633" lon="1.732851">
        <ele>2404.746</ele>
        <time>2018-09-22T06:58:13Z</time>
      </trkpt>
      <trkpt lat="42.283634" lon="1.732849">
        <ele>2404.712</ele>
        <time>2018-09-22T06:58:14Z</time>
      </trkpt>
      <trkpt lat="42.283634" lon="1.732850">
        <ele>2404.732</ele>
        <time>2018-09-22T06:58:15Z</time>
      </trkpt>
      <trkpt lat="42.283618" lon="1.732879">
        <ele>2403.605</ele>
        <time>2018-09-22T06:58:22Z</time>
      </trkpt>
      <trkpt lat="42.283654" lon="1.732817">
        <ele>2406.008</ele>
        <time>2018-09-22T06:58:37Z</time>
      </trkpt>
      <trkpt lat="42.283672" lon="1.732789">
        <ele>2407.093</ele>
        <time>2018-09-22T06:58:40Z</time>
      </trkpt>
      <trkpt lat="42.283677" lon="1.732781">
        <ele>2407.319</ele>
        <time>2018-09-22T06:58:41Z</time>
      </trkpt>
      <trkpt lat="42.283682" lon="1.732773">
        <ele>2407.660</ele>
        <time>2018-09-22T06:58:42Z</time>
      </trkpt>
      <trkpt lat="42.283689" lon="1.732760">
        <ele>2408.184</ele>
        <time>2018-09-22T06:58:44Z</time>
      </trkpt>
      <trkpt lat="42.283692" lon="1.732750">
        <ele>2408.330</ele>
        <time>2018-09-22T06:58:45Z</time>
      </trkpt>
      <trkpt lat="42.283696" lon="1.732733">
        <ele>2408.850</ele>
        <time>2018-09-22T06:58:47Z</time>
      </trkpt>
      <trkpt lat="42.283700" lon="1.732713">
        <ele>2409.432</ele>
        <time>2018-09-22T06:58:49Z</time>
      </trkpt>
      <trkpt lat="42.283707" lon="1.732670">
        <ele>2410.574</ele>
        <time>2018-09-22T06:58:53Z</time>
      </trkpt>
      <trkpt lat="42.283720" lon="1.732616">
        <ele>2411.834</ele>
        <time>2018-09-22T06:58:58Z</time>
      </trkpt>
      <trkpt lat="42.283726" lon="1.732592">
        <ele>2412.455</ele>
        <time>2018-09-22T06:59:00Z</time>
      </trkpt>
      <trkpt lat="42.283732" lon="1.732550">
        <ele>2413.310</ele>
        <time>2018-09-22T06:59:04Z</time>
      </trkpt>
      <trkpt lat="42.283740" lon="1.732519">
        <ele>2414.008</ele>
        <time>2018-09-22T06:59:07Z</time>
      </trkpt>
      <trkpt lat="42.283755" lon="1.732486">
        <ele>2414.845</ele>
        <time>2018-09-22T06:59:11Z</time>
      </trkpt>
      <trkpt lat="42.283771" lon="1.732461">
        <ele>2415.381</ele>
        <time>2018-09-22T06:59:15Z</time>
      </trkpt>
      <trkpt lat="42.283798" lon="1.732409">
        <ele>2416.422</ele>
        <time>2018-09-22T06:59:21Z</time>
      </trkpt>
      <trkpt lat="42.283800" lon="1.732390">
        <ele>2416.776</ele>
        <time>2018-09-22T06:59:23Z</time>
      </trkpt>
      <trkpt lat="42.283809" lon="1.732340">
        <ele>2417.682</ele>
        <time>2018-09-22T06:59:27Z</time>
      </trkpt>
      <trkpt lat="42.283813" lon="1.732327">
        <ele>2417.832</ele>
        <time>2018-09-22T06:59:28Z</time>
      </trkpt>
      <trkpt lat="42.283822" lon="1.732292">
        <ele>2418.484</ele>
        <time>2018-09-22T06:59:31Z</time>
      </trkpt>
      <trkpt lat="42.283824" lon="1.732278">
        <ele>2418.716</ele>
        <time>2018-09-22T06:59:32Z</time>
      </trkpt>
      <trkpt lat="42.283828" lon="1.732257">
        <ele>2419.057</ele>
        <time>2018-09-22T06:59:34Z</time>
      </trkpt>
      <trkpt lat="42.283831" lon="1.732227">
        <ele>2419.500</ele>
        <time>2018-09-22T06:59:37Z</time>
      </trkpt>
      <trkpt lat="42.283831" lon="1.732219">
        <ele>2419.620</ele>
        <time>2018-09-22T06:59:38Z</time>
      </trkpt>
      <trkpt lat="42.283834" lon="1.732201">
        <ele>2420.008</ele>
        <time>2018-09-22T06:59:41Z</time>
      </trkpt>
      <trkpt lat="42.283837" lon="1.732177">
        <ele>2420.517</ele>
        <time>2018-09-22T06:59:43Z</time>
      </trkpt>
      <trkpt lat="42.283838" lon="1.732168">
        <ele>2420.783</ele>
        <time>2018-09-22T06:59:44Z</time>
      </trkpt>
      <trkpt lat="42.283841" lon="1.732132">
        <ele>2421.414</ele>
        <time>2018-09-22T06:59:47Z</time>
      </trkpt>
      <trkpt lat="42.283854" lon="1.732088">
        <ele>2422.278</ele>
        <time>2018-09-22T06:59:52Z</time>
      </trkpt>
      <trkpt lat="42.283856" lon="1.732050">
        <ele>2423.054</ele>
        <time>2018-09-22T06:59:56Z</time>
      </trkpt>
      <trkpt lat="42.283846" lon="1.731996">
        <ele>2424.374</ele>
        <time>2018-09-22T07:00:01Z</time>
      </trkpt>
      <trkpt lat="42.283845" lon="1.731967">
        <ele>2424.996</ele>
        <time>2018-09-22T07:00:04Z</time>
      </trkpt>
      <trkpt lat="42.283852" lon="1.731945">
        <ele>2425.348</ele>
        <time>2018-09-22T07:00:07Z</time>
      </trkpt>
      <trkpt lat="42.283851" lon="1.731912">
        <ele>2426.248</ele>
        <time>2018-09-22T07:00:11Z</time>
      </trkpt>
      <trkpt lat="42.283840" lon="1.731843">
        <ele>2427.961</ele>
        <time>2018-09-22T07:00:19Z</time>
      </trkpt>
      <trkpt lat="42.283838" lon="1.731808">
        <ele>2428.717</ele>
        <time>2018-09-22T07:00:23Z</time>
      </trkpt>
      <trkpt lat="42.283837" lon="1.731789">
        <ele>2429.208</ele>
        <time>2018-09-22T07:00:25Z</time>
      </trkpt>
      <trkpt lat="42.283831" lon="1.731767">
        <ele>2429.876</ele>
        <time>2018-09-22T07:00:27Z</time>
      </trkpt>
      <trkpt lat="42.283823" lon="1.731708">
        <ele>2431.262</ele>
        <time>2018-09-22T07:00:33Z</time>
      </trkpt>
      <trkpt lat="42.283822" lon="1.731686">
        <ele>2431.763</ele>
        <time>2018-09-22T07:00:35Z</time>
      </trkpt>
      <trkpt lat="42.283817" lon="1.731676">
        <ele>2432.067</ele>
        <time>2018-09-22T07:00:36Z</time>
      </trkpt>
      <trkpt lat="42.283816" lon="1.731654">
        <ele>2432.673</ele>
        <time>2018-09-22T07:00:38Z</time>
      </trkpt>
      <trkpt lat="42.283820" lon="1.731646">
        <ele>2432.823</ele>
        <time>2018-09-22T07:00:39Z</time>
      </trkpt>
      <trkpt lat="42.283825" lon="1.731626">
        <ele>2433.425</ele>
        <time>2018-09-22T07:00:41Z</time>
      </trkpt>
      <trkpt lat="42.283832" lon="1.731591">
        <ele>2434.497</ele>
        <time>2018-09-22T07:00:45Z</time>
      </trkpt>
      <trkpt lat="42.283830" lon="1.731581">
        <ele>2434.739</ele>
        <time>2018-09-22T07:00:46Z</time>
      </trkpt>
      <trkpt lat="42.283830" lon="1.731574">
        <ele>2434.901</ele>
        <time>2018-09-22T07:00:47Z</time>
      </trkpt>
      <trkpt lat="42.283832" lon="1.731528">
        <ele>2436.321</ele>
        <time>2018-09-22T07:00:52Z</time>
      </trkpt>
      <trkpt lat="42.283833" lon="1.731510">
        <ele>2436.808</ele>
        <time>2018-09-22T07:00:54Z</time>
      </trkpt>
      <trkpt lat="42.283836" lon="1.731507">
        <ele>2436.875</ele>
        <time>2018-09-22T07:00:55Z</time>
      </trkpt>
      <trkpt lat="42.283837" lon="1.731489">
        <ele>2437.421</ele>
        <time>2018-09-22T07:00:58Z</time>
      </trkpt>
      <trkpt lat="42.283838" lon="1.731480">
        <ele>2437.652</ele>
        <time>2018-09-22T07:00:59Z</time>
      </trkpt>
      <trkpt lat="42.283821" lon="1.731418">
        <ele>2439.636</ele>
        <time>2018-09-22T07:01:06Z</time>
      </trkpt>
      <trkpt lat="42.283820" lon="1.731412">
        <ele>2439.882</ele>
        <time>2018-09-22T07:01:07Z</time>
      </trkpt>
      <trkpt lat="42.283819" lon="1.731406">
        <ele>2440.012</ele>
        <time>2018-09-22T07:01:08Z</time>
      </trkpt>
      <trkpt lat="42.283819" lon="1.731400">
        <ele>2440.134</ele>
        <time>2018-09-22T07:01:09Z</time>
      </trkpt>
      <trkpt lat="42.283823" lon="1.731354">
        <ele>2441.656</ele>
        <time>2018-09-22T07:01:14Z</time>
      </trkpt>
      <trkpt lat="42.283821" lon="1.731325">
        <ele>2442.658</ele>
        <time>2018-09-22T07:01:17Z</time>
      </trkpt>
      <trkpt lat="42.283825" lon="1.731254">
        <ele>2444.952</ele>
        <time>2018-09-22T07:01:28Z</time>
      </trkpt>
      <trkpt lat="42.283822" lon="1.731236">
        <ele>2445.517</ele>
        <time>2018-09-22T07:01:31Z</time>
      </trkpt>
      <trkpt lat="42.283819" lon="1.731216">
        <ele>2446.208</ele>
        <time>2018-09-22T07:01:34Z</time>
      </trkpt>
      <trkpt lat="42.283817" lon="1.731178">
        <ele>2447.597</ele>
        <time>2018-09-22T07:01:39Z</time>
      </trkpt>
      <trkpt lat="42.283819" lon="1.731169">
        <ele>2447.893</ele>
        <time>2018-09-22T07:01:40Z</time>
      </trkpt>
      <trkpt lat="42.283821" lon="1.731143">
        <ele>2448.654</ele>
        <time>2018-09-22T07:01:45Z</time>
      </trkpt>
      <trkpt lat="42.283822" lon="1.731139">
        <ele>2448.748</ele>
        <time>2018-09-22T07:01:46Z</time>
      </trkpt>
      <trkpt lat="42.283828" lon="1.731119">
        <ele>2449.434</ele>
        <time>2018-09-22T07:01:52Z</time>
      </trkpt>
      <trkpt lat="42.283829" lon="1.731108">
        <ele>2449.744</ele>
        <time>2018-09-22T07:01:54Z</time>
      </trkpt>
      <trkpt lat="42.283820" lon="1.731079">
        <ele>2450.936</ele>
        <time>2018-09-22T07:01:58Z</time>
      </trkpt>
      <trkpt lat="42.283818" lon="1.731072">
        <ele>2451.198</ele>
        <time>2018-09-22T07:01:59Z</time>
      </trkpt>
      <trkpt lat="42.283811" lon="1.731043">
        <ele>2452.223</ele>
        <time>2018-09-22T07:02:02Z</time>
      </trkpt>
      <trkpt lat="42.283800" lon="1.730990">
        <ele>2454.283</ele>
        <time>2018-09-22T07:02:09Z</time>
      </trkpt>
      <trkpt lat="42.283799" lon="1.730987">
        <ele>2454.411</ele>
        <time>2018-09-22T07:02:10Z</time>
      </trkpt>
      <trkpt lat="42.283791" lon="1.730967">
        <ele>2455.208</ele>
        <time>2018-09-22T07:02:13Z</time>
      </trkpt>
      <trkpt lat="42.283780" lon="1.730938">
        <ele>2456.454</ele>
        <time>2018-09-22T07:02:17Z</time>
      </trkpt>
      <trkpt lat="42.283772" lon="1.730930">
        <ele>2456.790</ele>
        <time>2018-09-22T07:02:19Z</time>
      </trkpt>
      <trkpt lat="42.283777" lon="1.730920">
        <ele>2457.071</ele>
        <time>2018-09-22T07:02:24Z</time>
      </trkpt>
      <trkpt lat="42.283771" lon="1.730895">
        <ele>2458.065</ele>
        <time>2018-09-22T07:02:28Z</time>
      </trkpt>
      <trkpt lat="42.283766" lon="1.730865">
        <ele>2459.161</ele>
        <time>2018-09-22T07:02:32Z</time>
      </trkpt>
      <trkpt lat="42.283750" lon="1.730852">
        <ele>2459.881</ele>
        <time>2018-09-22T07:02:35Z</time>
      </trkpt>
      <trkpt lat="42.283746" lon="1.730848">
        <ele>2460.013</ele>
        <time>2018-09-22T07:02:36Z</time>
      </trkpt>
      <trkpt lat="42.283740" lon="1.730844">
        <ele>2460.275</ele>
        <time>2018-09-22T07:02:37Z</time>
      </trkpt>
      <trkpt lat="42.283734" lon="1.730842">
        <ele>2460.323</ele>
        <time>2018-09-22T07:02:38Z</time>
      </trkpt>
      <trkpt lat="42.283695" lon="1.730816">
        <ele>2461.783</ele>
        <time>2018-09-22T07:02:44Z</time>
      </trkpt>
      <trkpt lat="42.283680" lon="1.730790">
        <ele>2462.711</ele>
        <time>2018-09-22T07:02:49Z</time>
      </trkpt>
      <trkpt lat="42.283673" lon="1.730778">
        <ele>2463.208</ele>
        <time>2018-09-22T07:02:51Z</time>
      </trkpt>
      <trkpt lat="42.283662" lon="1.730756">
        <ele>2464.164</ele>
        <time>2018-09-22T07:02:55Z</time>
      </trkpt>
      <trkpt lat="42.283655" lon="1.730732">
        <ele>2465.140</ele>
        <time>2018-09-22T07:02:59Z</time>
      </trkpt>
      <trkpt lat="42.283641" lon="1.730693">
        <ele>2466.641</ele>
        <time>2018-09-22T07:03:05Z</time>
      </trkpt>
      <trkpt lat="42.283635" lon="1.730659">
        <ele>2467.985</ele>
        <time>2018-09-22T07:03:11Z</time>
      </trkpt>
      <trkpt lat="42.283638" lon="1.730638">
        <ele>2468.651</ele>
        <time>2018-09-22T07:03:15Z</time>
      </trkpt>
      <trkpt lat="42.283641" lon="1.730625">
        <ele>2469.011</ele>
        <time>2018-09-22T07:03:17Z</time>
      </trkpt>
      <trkpt lat="42.283646" lon="1.730610">
        <ele>2469.543</ele>
        <time>2018-09-22T07:03:19Z</time>
      </trkpt>
      <trkpt lat="42.283647" lon="1.730604">
        <ele>2469.735</ele>
        <time>2018-09-22T07:03:20Z</time>
      </trkpt>
      <trkpt lat="42.283667" lon="1.730594">
        <ele>2469.829</ele>
        <time>2018-09-22T07:03:23Z</time>
      </trkpt>
      <trkpt lat="42.283679" lon="1.730568">
        <ele>2470.500</ele>
        <time>2018-09-22T07:03:26Z</time>
      </trkpt>
      <trkpt lat="42.283682" lon="1.730516">
        <ele>2472.020</ele>
        <time>2018-09-22T07:03:31Z</time>
      </trkpt>
      <trkpt lat="42.283686" lon="1.730506">
        <ele>2472.208</ele>
        <time>2018-09-22T07:03:32Z</time>
      </trkpt>
      <trkpt lat="42.283692" lon="1.730473">
        <ele>2473.064</ele>
        <time>2018-09-22T07:03:35Z</time>
      </trkpt>
      <trkpt lat="42.283691" lon="1.730448">
        <ele>2473.750</ele>
        <time>2018-09-22T07:03:37Z</time>
      </trkpt>
      <trkpt lat="42.283693" lon="1.730437">
        <ele>2473.951</ele>
        <time>2018-09-22T07:03:38Z</time>
      </trkpt>
      <trkpt lat="42.283698" lon="1.730426">
        <ele>2474.125</ele>
        <time>2018-09-22T07:03:39Z</time>
      </trkpt>
      <trkpt lat="42.283700" lon="1.730389">
        <ele>2475.121</ele>
        <time>2018-09-22T07:03:42Z</time>
      </trkpt>
      <trkpt lat="42.283702" lon="1.730364">
        <ele>2475.711</ele>
        <time>2018-09-22T07:03:45Z</time>
      </trkpt>
      <trkpt lat="42.283714" lon="1.730338">
        <ele>2476.293</ele>
        <time>2018-09-22T07:03:50Z</time>
      </trkpt>
      <trkpt lat="42.283717" lon="1.730333">
        <ele>2476.275</ele>
        <time>2018-09-22T07:03:51Z</time>
      </trkpt>
      <trkpt lat="42.283727" lon="1.730261">
        <ele>2477.949</ele>
        <time>2018-09-22T07:04:02Z</time>
      </trkpt>
      <trkpt lat="42.283715" lon="1.730249">
        <ele>2478.402</ele>
        <time>2018-09-22T07:04:04Z</time>
      </trkpt>
      <trkpt lat="42.283709" lon="1.730243">
        <ele>2478.722</ele>
        <time>2018-09-22T07:04:05Z</time>
      </trkpt>
      <trkpt lat="42.283702" lon="1.730196">
        <ele>2480.108</ele>
        <time>2018-09-22T07:04:11Z</time>
      </trkpt>
      <trkpt lat="42.283705" lon="1.730173">
        <ele>2480.776</ele>
        <time>2018-09-22T07:04:15Z</time>
      </trkpt>
      <trkpt lat="42.283700" lon="1.730139">
        <ele>2481.732</ele>
        <time>2018-09-22T07:04:19Z</time>
      </trkpt>
      <trkpt lat="42.283701" lon="1.730124">
        <ele>2482.193</ele>
        <time>2018-09-22T07:04:22Z</time>
      </trkpt>
      <trkpt lat="42.283715" lon="1.730106">
        <ele>2482.187</ele>
        <time>2018-09-22T07:04:25Z</time>
      </trkpt>
      <trkpt lat="42.283719" lon="1.730099">
        <ele>2482.213</ele>
        <time>2018-09-22T07:04:26Z</time>
      </trkpt>
      <trkpt lat="42.283725" lon="1.730080">
        <ele>2482.473</ele>
        <time>2018-09-22T07:04:28Z</time>
      </trkpt>
      <trkpt lat="42.283729" lon="1.730059">
        <ele>2482.815</ele>
        <time>2018-09-22T07:04:31Z</time>
      </trkpt>
      <trkpt lat="42.283728" lon="1.730048">
        <ele>2483.137</ele>
        <time>2018-09-22T07:04:32Z</time>
      </trkpt>
      <trkpt lat="42.283722" lon="1.730030">
        <ele>2483.843</ele>
        <time>2018-09-22T07:04:34Z</time>
      </trkpt>
      <trkpt lat="42.283702" lon="1.729989">
        <ele>2485.664</ele>
        <time>2018-09-22T07:04:39Z</time>
      </trkpt>
      <trkpt lat="42.283688" lon="1.729965">
        <ele>2486.710</ele>
        <time>2018-09-22T07:04:42Z</time>
      </trkpt>
      <trkpt lat="42.283684" lon="1.729947">
        <ele>2487.308</ele>
        <time>2018-09-22T07:04:44Z</time>
      </trkpt>
      <trkpt lat="42.283681" lon="1.729910">
        <ele>2488.486</ele>
        <time>2018-09-22T07:04:47Z</time>
      </trkpt>
      <trkpt lat="42.283681" lon="1.729878">
        <ele>2489.162</ele>
        <time>2018-09-22T07:04:50Z</time>
      </trkpt>
      <trkpt lat="42.283676" lon="1.729833">
        <ele>2490.483</ele>
        <time>2018-09-22T07:04:54Z</time>
      </trkpt>
      <trkpt lat="42.283675" lon="1.729820">
        <ele>2490.867</ele>
        <time>2018-09-22T07:04:55Z</time>
      </trkpt>
      <trkpt lat="42.283674" lon="1.729809">
        <ele>2491.143</ele>
        <time>2018-09-22T07:04:56Z</time>
      </trkpt>
      <trkpt lat="42.283686" lon="1.729729">
        <ele>2492.613</ele>
        <time>2018-09-22T07:05:04Z</time>
      </trkpt>
      <trkpt lat="42.283678" lon="1.729681">
        <ele>2494.195</ele>
        <time>2018-09-22T07:05:08Z</time>
      </trkpt>
      <trkpt lat="42.283675" lon="1.729634">
        <ele>2495.437</ele>
        <time>2018-09-22T07:05:12Z</time>
      </trkpt>
      <trkpt lat="42.283673" lon="1.729599">
        <ele>2496.437</ele>
        <time>2018-09-22T07:05:15Z</time>
      </trkpt>
      <trkpt lat="42.283671" lon="1.729588">
        <ele>2496.849</ele>
        <time>2018-09-22T07:05:16Z</time>
      </trkpt>
      <trkpt lat="42.283663" lon="1.729563">
        <ele>2497.713</ele>
        <time>2018-09-22T07:05:19Z</time>
      </trkpt>
      <trkpt lat="42.283663" lon="1.729553">
        <ele>2498.008</ele>
        <time>2018-09-22T07:05:20Z</time>
      </trkpt>
      <trkpt lat="42.283662" lon="1.729530">
        <ele>2498.675</ele>
        <time>2018-09-22T07:05:24Z</time>
      </trkpt>
      <trkpt lat="42.283662" lon="1.729523">
        <ele>2498.821</ele>
        <time>2018-09-22T07:05:25Z</time>
      </trkpt>
      <trkpt lat="42.283655" lon="1.729429">
        <ele>2501.512</ele>
        <time>2018-09-22T07:05:38Z</time>
      </trkpt>
      <trkpt lat="42.283645" lon="1.729399">
        <ele>2502.926</ele>
        <time>2018-09-22T07:05:42Z</time>
      </trkpt>
      <trkpt lat="42.283664" lon="1.729343">
        <ele>2503.912</ele>
        <time>2018-09-22T07:05:48Z</time>
      </trkpt>
      <trkpt lat="42.283668" lon="1.729323">
        <ele>2504.342</ele>
        <time>2018-09-22T07:05:50Z</time>
      </trkpt>
      <trkpt lat="42.283668" lon="1.729311">
        <ele>2504.724</ele>
        <time>2018-09-22T07:05:51Z</time>
      </trkpt>
      <trkpt lat="42.283661" lon="1.729281">
        <ele>2506.076</ele>
        <time>2018-09-22T07:05:54Z</time>
      </trkpt>
      <trkpt lat="42.283664" lon="1.729215">
        <ele>2507.923</ele>
        <time>2018-09-22T07:06:02Z</time>
      </trkpt>
      <trkpt lat="42.283663" lon="1.729196">
        <ele>2508.683</ele>
        <time>2018-09-22T07:06:05Z</time>
      </trkpt>
      <trkpt lat="42.283656" lon="1.729164">
        <ele>2509.911</ele>
        <time>2018-09-22T07:06:09Z</time>
      </trkpt>
      <trkpt lat="42.283657" lon="1.729151">
        <ele>2510.308</ele>
        <time>2018-09-22T07:06:10Z</time>
      </trkpt>
      <trkpt lat="42.283657" lon="1.729126">
        <ele>2511.214</ele>
        <time>2018-09-22T07:06:13Z</time>
      </trkpt>
      <trkpt lat="42.283658" lon="1.729078">
        <ele>2512.970</ele>
        <time>2018-09-22T07:06:20Z</time>
      </trkpt>
      <trkpt lat="42.283658" lon="1.729072">
        <ele>2513.021</ele>
        <time>2018-09-22T07:06:22Z</time>
      </trkpt>
      <trkpt lat="42.283661" lon="1.729065">
        <ele>2513.285</ele>
        <time>2018-09-22T07:06:24Z</time>
      </trkpt>
      <trkpt lat="42.283663" lon="1.729051">
        <ele>2513.521</ele>
        <time>2018-09-22T07:06:26Z</time>
      </trkpt>
      <trkpt lat="42.283665" lon="1.729045">
        <ele>2513.671</ele>
        <time>2018-09-22T07:06:27Z</time>
      </trkpt>
      <trkpt lat="42.283665" lon="1.729037">
        <ele>2513.923</ele>
        <time>2018-09-22T07:06:28Z</time>
      </trkpt>
      <trkpt lat="42.283670" lon="1.729005">
        <ele>2514.715</ele>
        <time>2018-09-22T07:06:33Z</time>
      </trkpt>
      <trkpt lat="42.283672" lon="1.728996">
        <ele>2515.069</ele>
        <time>2018-09-22T07:06:34Z</time>
      </trkpt>
      <trkpt lat="42.283674" lon="1.728980">
        <ele>2515.404</ele>
        <time>2018-09-22T07:06:36Z</time>
      </trkpt>
      <trkpt lat="42.283675" lon="1.728971">
        <ele>2515.724</ele>
        <time>2018-09-22T07:06:37Z</time>
      </trkpt>
      <trkpt lat="42.283673" lon="1.728951">
        <ele>2516.408</ele>
        <time>2018-09-22T07:06:39Z</time>
      </trkpt>
      <trkpt lat="42.283666" lon="1.728924">
        <ele>2517.818</ele>
        <time>2018-09-22T07:06:42Z</time>
      </trkpt>
      <trkpt lat="42.283654" lon="1.728934">
        <ele>2518.174</ele>
        <time>2018-09-22T07:06:45Z</time>
      </trkpt>
      <trkpt lat="42.283627" lon="1.728921">
        <ele>2519.915</ele>
        <time>2018-09-22T07:06:51Z</time>
      </trkpt>
      <trkpt lat="42.283592" lon="1.728912">
        <ele>2521.229</ele>
        <time>2018-09-22T07:06:57Z</time>
      </trkpt>
      <trkpt lat="42.283562" lon="1.728853">
        <ele>2523.015</ele>
        <time>2018-09-22T07:07:06Z</time>
      </trkpt>
      <trkpt lat="42.283565" lon="1.728827">
        <ele>2523.625</ele>
        <time>2018-09-22T07:07:10Z</time>
      </trkpt>
      <trkpt lat="42.283565" lon="1.728783">
        <ele>2524.747</ele>
        <time>2018-09-22T07:07:14Z</time>
      </trkpt>
      <trkpt lat="42.283564" lon="1.728775">
        <ele>2524.979</ele>
        <time>2018-09-22T07:07:15Z</time>
      </trkpt>
      <trkpt lat="42.283566" lon="1.728763">
        <ele>2525.286</ele>
        <time>2018-09-22T07:07:17Z</time>
      </trkpt>
      <trkpt lat="42.283568" lon="1.728745">
        <ele>2525.760</ele>
        <time>2018-09-22T07:07:19Z</time>
      </trkpt>
      <trkpt lat="42.283576" lon="1.728645">
        <ele>2528.126</ele>
        <time>2018-09-22T07:07:30Z</time>
      </trkpt>
      <trkpt lat="42.283587" lon="1.728588">
        <ele>2529.408</ele>
        <time>2018-09-22T07:07:35Z</time>
      </trkpt>
      <trkpt lat="42.283597" lon="1.728537">
        <ele>2530.350</ele>
        <time>2018-09-22T07:07:39Z</time>
      </trkpt>
      <trkpt lat="42.283600" lon="1.728524">
        <ele>2530.526</ele>
        <time>2018-09-22T07:07:40Z</time>
      </trkpt>
      <trkpt lat="42.283603" lon="1.728511">
        <ele>2530.777</ele>
        <time>2018-09-22T07:07:41Z</time>
      </trkpt>
      <trkpt lat="42.283615" lon="1.728477">
        <ele>2531.161</ele>
        <time>2018-09-22T07:07:44Z</time>
      </trkpt>
      <trkpt lat="42.283624" lon="1.728456">
        <ele>2531.117</ele>
        <time>2018-09-22T07:07:46Z</time>
      </trkpt>
      <trkpt lat="42.283635" lon="1.728431">
        <ele>2531.167</ele>
        <time>2018-09-22T07:07:48Z</time>
      </trkpt>
      <trkpt lat="42.283642" lon="1.728420">
        <ele>2531.069</ele>
        <time>2018-09-22T07:07:49Z</time>
      </trkpt>
      <trkpt lat="42.283647" lon="1.728412">
        <ele>2530.971</ele>
        <time>2018-09-22T07:07:50Z</time>
      </trkpt>
      <trkpt lat="42.283653" lon="1.728400">
        <ele>2530.854</ele>
        <time>2018-09-22T07:07:51Z</time>
      </trkpt>
      <trkpt lat="42.283655" lon="1.728369">
        <ele>2531.456</ele>
        <time>2018-09-22T07:07:53Z</time>
      </trkpt>
      <trkpt lat="42.283657" lon="1.728316">
        <ele>2532.211</ele>
        <time>2018-09-22T07:07:56Z</time>
      </trkpt>
      <trkpt lat="42.283661" lon="1.728288">
        <ele>2532.408</ele>
        <time>2018-09-22T07:07:58Z</time>
      </trkpt>
      <trkpt lat="42.283659" lon="1.728262">
        <ele>2532.867</ele>
        <time>2018-09-22T07:08:00Z</time>
      </trkpt>
      <trkpt lat="42.283660" lon="1.728250">
        <ele>2533.083</ele>
        <time>2018-09-22T07:08:01Z</time>
      </trkpt>
      <trkpt lat="42.283663" lon="1.728220">
        <ele>2533.284</ele>
        <time>2018-09-22T07:08:03Z</time>
      </trkpt>
      <trkpt lat="42.283677" lon="1.728117">
        <ele>2534.248</ele>
        <time>2018-09-22T07:08:10Z</time>
      </trkpt>
      <trkpt lat="42.283686" lon="1.728077">
        <ele>2534.554</ele>
        <time>2018-09-22T07:08:13Z</time>
      </trkpt>
      <trkpt lat="42.283694" lon="1.728054">
        <ele>2534.684</ele>
        <time>2018-09-22T07:08:15Z</time>
      </trkpt>
      <trkpt lat="42.283697" lon="1.728041">
        <ele>2534.756</ele>
        <time>2018-09-22T07:08:16Z</time>
      </trkpt>
      <trkpt lat="42.283704" lon="1.727989">
        <ele>2535.168</ele>
        <time>2018-09-22T07:08:20Z</time>
      </trkpt>
      <trkpt lat="42.283703" lon="1.727944">
        <ele>2535.893</ele>
        <time>2018-09-22T07:08:23Z</time>
      </trkpt>
      <trkpt lat="42.283706" lon="1.727917">
        <ele>2536.165</ele>
        <time>2018-09-22T07:08:25Z</time>
      </trkpt>
      <trkpt lat="42.283708" lon="1.727910">
        <ele>2536.121</ele>
        <time>2018-09-22T07:08:26Z</time>
      </trkpt>
      <trkpt lat="42.283707" lon="1.727882">
        <ele>2536.508</ele>
        <time>2018-09-22T07:08:28Z</time>
      </trkpt>
      <trkpt lat="42.283712" lon="1.727847">
        <ele>2536.891</ele>
        <time>2018-09-22T07:08:31Z</time>
      </trkpt>
      <trkpt lat="42.283718" lon="1.727801">
        <ele>2537.367</ele>
        <time>2018-09-22T07:08:35Z</time>
      </trkpt>
      <trkpt lat="42.283715" lon="1.727782">
        <ele>2537.688</ele>
        <time>2018-09-22T07:08:37Z</time>
      </trkpt>
      <trkpt lat="42.283737" lon="1.727757">
        <ele>2537.392</ele>
        <time>2018-09-22T07:08:42Z</time>
      </trkpt>
      <trkpt lat="42.283737" lon="1.727716">
        <ele>2537.468</ele>
        <time>2018-09-22T07:08:52Z</time>
      </trkpt>
      <trkpt lat="42.283735" lon="1.727677">
        <ele>2537.578</ele>
        <time>2018-09-22T07:08:55Z</time>
      </trkpt>
      <trkpt lat="42.283732" lon="1.727552">
        <ele>2537.920</ele>
        <time>2018-09-22T07:09:04Z</time>
      </trkpt>
      <trkpt lat="42.283730" lon="1.727541">
        <ele>2538.042</ele>
        <time>2018-09-22T07:09:05Z</time>
      </trkpt>
      <trkpt lat="42.283724" lon="1.727515">
        <ele>2538.387</ele>
        <time>2018-09-22T07:09:07Z</time>
      </trkpt>
      <trkpt lat="42.283721" lon="1.727502">
        <ele>2538.442</ele>
        <time>2018-09-22T07:09:08Z</time>
      </trkpt>
      <trkpt lat="42.283714" lon="1.727464">
        <ele>2538.626</ele>
        <time>2018-09-22T07:09:11Z</time>
      </trkpt>
      <trkpt lat="42.283711" lon="1.727433">
        <ele>2538.708</ele>
        <time>2018-09-22T07:09:13Z</time>
      </trkpt>
      <trkpt lat="42.283709" lon="1.727419">
        <ele>2538.880</ele>
        <time>2018-09-22T07:09:14Z</time>
      </trkpt>
      <trkpt lat="42.283711" lon="1.727391">
        <ele>2538.626</ele>
        <time>2018-09-22T07:09:16Z</time>
      </trkpt>
      <trkpt lat="42.283716" lon="1.727303">
        <ele>2538.417</ele>
        <time>2018-09-22T07:09:22Z</time>
      </trkpt>
      <trkpt lat="42.283713" lon="1.727289">
        <ele>2538.531</ele>
        <time>2018-09-22T07:09:23Z</time>
      </trkpt>
      <trkpt lat="42.283706" lon="1.727241">
        <ele>2538.867</ele>
        <time>2018-09-22T07:09:26Z</time>
      </trkpt>
      <trkpt lat="42.283705" lon="1.727229">
        <ele>2538.967</ele>
        <time>2018-09-22T07:09:27Z</time>
      </trkpt>
      <trkpt lat="42.283704" lon="1.727219">
        <ele>2538.929</ele>
        <time>2018-09-22T07:09:28Z</time>
      </trkpt>
      <trkpt lat="42.283704" lon="1.727195">
        <ele>2538.991</ele>
        <time>2018-09-22T07:09:31Z</time>
      </trkpt>
      <trkpt lat="42.283705" lon="1.727193">
        <ele>2538.881</ele>
        <time>2018-09-22T07:09:33Z</time>
      </trkpt>
      <trkpt lat="42.283712" lon="1.727163">
        <ele>2538.461</ele>
        <time>2018-09-22T07:09:38Z</time>
      </trkpt>
      <trkpt lat="42.283715" lon="1.727159">
        <ele>2538.217</ele>
        <time>2018-09-22T07:09:40Z</time>
      </trkpt>
      <trkpt lat="42.283730" lon="1.727220">
        <ele>2537.508</ele>
        <time>2018-09-22T07:09:48Z</time>
      </trkpt>
      <trkpt lat="42.283742" lon="1.727269">
        <ele>2537.040</ele>
        <time>2018-09-22T07:09:52Z</time>
      </trkpt>
      <trkpt lat="42.283765" lon="1.727348">
        <ele>2536.216</ele>
        <time>2018-09-22T07:09:57Z</time>
      </trkpt>
      <trkpt lat="42.283766" lon="1.727400">
        <ele>2536.497</ele>
        <time>2018-09-22T07:10:00Z</time>
      </trkpt>
      <trkpt lat="42.283768" lon="1.727433">
        <ele>2536.541</ele>
        <time>2018-09-22T07:10:02Z</time>
      </trkpt>
      <trkpt lat="42.283766" lon="1.727450">
        <ele>2536.717</ele>
        <time>2018-09-22T07:10:03Z</time>
      </trkpt>
      <trkpt lat="42.283759" lon="1.727532">
        <ele>2537.157</ele>
        <time>2018-09-22T07:10:08Z</time>
      </trkpt>
      <trkpt lat="42.283756" lon="1.727565">
        <ele>2537.279</ele>
        <time>2018-09-22T07:10:10Z</time>
      </trkpt>
      <trkpt lat="42.283754" lon="1.727595">
        <ele>2537.251</ele>
        <time>2018-09-22T07:10:12Z</time>
      </trkpt>
      <trkpt lat="42.283769" lon="1.727646">
        <ele>2536.712</ele>
        <time>2018-09-22T07:10:16Z</time>
      </trkpt>
      <trkpt lat="42.283773" lon="1.727656">
        <ele>2536.632</ele>
        <time>2018-09-22T07:10:17Z</time>
      </trkpt>
      <trkpt lat="42.283774" lon="1.727665">
        <ele>2536.505</ele>
        <time>2018-09-22T07:10:18Z</time>
      </trkpt>
      <trkpt lat="42.283774" lon="1.727669">
        <ele>2536.508</ele>
        <time>2018-09-22T07:10:23Z</time>
      </trkpt>
      <trkpt lat="42.283759" lon="1.727661">
        <ele>2536.963</ele>
        <time>2018-09-22T07:10:27Z</time>
      </trkpt>
      <trkpt lat="42.283754" lon="1.727658">
        <ele>2537.149</ele>
        <time>2018-09-22T07:10:32Z</time>
      </trkpt>
      <trkpt lat="42.283757" lon="1.727652">
        <ele>2537.020</ele>
        <time>2018-09-22T07:10:36Z</time>
      </trkpt>
      <trkpt lat="42.283756" lon="1.727650">
        <ele>2537.024</ele>
        <time>2018-09-22T07:10:40Z</time>
      </trkpt>
      <trkpt lat="42.283757" lon="1.727650">
        <ele>2537.040</ele>
        <time>2018-09-22T07:10:41Z</time>
      </trkpt>
      <trkpt lat="42.283789" lon="1.727682">
        <ele>2536.160</ele>
        <time>2018-09-22T07:10:53Z</time>
      </trkpt>
      <trkpt lat="42.283786" lon="1.727690">
        <ele>2536.292</ele>
        <time>2018-09-22T07:10:59Z</time>
      </trkpt>
      <trkpt lat="42.283789" lon="1.727696">
        <ele>2536.144</ele>
        <time>2018-09-22T07:11:09Z</time>
      </trkpt>
      <trkpt lat="42.283789" lon="1.727697">
        <ele>2536.121</ele>
        <time>2018-09-22T07:11:13Z</time>
      </trkpt>
      <trkpt lat="42.283788" lon="1.727697">
        <ele>2536.241</ele>
        <time>2018-09-22T07:11:36Z</time>
      </trkpt>
      <trkpt lat="42.283788" lon="1.727697">
        <ele>2536.205</ele>
        <time>2018-09-22T07:11:38Z</time>
      </trkpt>
      <trkpt lat="42.283786" lon="1.727694">
        <ele>2536.208</ele>
        <time>2018-09-22T07:11:48Z</time>
      </trkpt>
      <trkpt lat="42.283773" lon="1.727692">
        <ele>2536.594</ele>
        <time>2018-09-22T07:11:57Z</time>
      </trkpt>
      <trkpt lat="42.283770" lon="1.727690">
        <ele>2536.610</ele>
        <time>2018-09-22T07:12:17Z</time>
      </trkpt>
      <trkpt lat="42.283770" lon="1.727691">
        <ele>2536.631</ele>
        <time>2018-09-22T07:12:21Z</time>
      </trkpt>
      <trkpt lat="42.283755" lon="1.727676">
        <ele>2537.015</ele>
        <time>2018-09-22T07:12:42Z</time>
      </trkpt>
      <trkpt lat="42.283755" lon="1.727698">
        <ele>2537.091</ele>
        <time>2018-09-22T07:13:00Z</time>
      </trkpt>
      <trkpt lat="42.283752" lon="1.727710">
        <ele>2537.051</ele>
        <time>2018-09-22T07:13:01Z</time>
      </trkpt>
      <trkpt lat="42.283752" lon="1.727718">
        <ele>2537.083</ele>
        <time>2018-09-22T07:13:02Z</time>
      </trkpt>
      <trkpt lat="42.283750" lon="1.727741">
        <ele>2537.025</ele>
        <time>2018-09-22T07:13:04Z</time>
      </trkpt>
      <trkpt lat="42.283750" lon="1.727755">
        <ele>2537.016</ele>
        <time>2018-09-22T07:13:05Z</time>
      </trkpt>
      <trkpt lat="42.283751" lon="1.727782">
        <ele>2536.976</ele>
        <time>2018-09-22T07:13:07Z</time>
      </trkpt>
      <trkpt lat="42.283750" lon="1.727795">
        <ele>2536.713</ele>
        <time>2018-09-22T07:13:08Z</time>
      </trkpt>
      <trkpt lat="42.283749" lon="1.727836">
        <ele>2536.108</ele>
        <time>2018-09-22T07:13:11Z</time>
      </trkpt>
      <trkpt lat="42.283747" lon="1.727850">
        <ele>2536.093</ele>
        <time>2018-09-22T07:13:12Z</time>
      </trkpt>
      <trkpt lat="42.283744" lon="1.727864">
        <ele>2535.929</ele>
        <time>2018-09-22T07:13:13Z</time>
      </trkpt>
      <trkpt lat="42.283747" lon="1.727919">
        <ele>2535.080</ele>
        <time>2018-09-22T07:13:17Z</time>
      </trkpt>
      <trkpt lat="42.283744" lon="1.727944">
        <ele>2534.794</ele>
        <time>2018-09-22T07:13:19Z</time>
      </trkpt>
      <trkpt lat="42.283741" lon="1.727972">
        <ele>2534.460</ele>
        <time>2018-09-22T07:13:21Z</time>
      </trkpt>
      <trkpt lat="42.283736" lon="1.728004">
        <ele>2534.120</ele>
        <time>2018-09-22T07:13:23Z</time>
      </trkpt>
      <trkpt lat="42.283725" lon="1.728031">
        <ele>2534.012</ele>
        <time>2018-09-22T07:13:25Z</time>
      </trkpt>
      <trkpt lat="42.283724" lon="1.728055">
        <ele>2533.774</ele>
        <time>2018-09-22T07:13:27Z</time>
      </trkpt>
      <trkpt lat="42.283718" lon="1.728110">
        <ele>2533.065</ele>
        <time>2018-09-22T07:13:31Z</time>
      </trkpt>
      <trkpt lat="42.283703" lon="1.728201">
        <ele>2532.068</ele>
        <time>2018-09-22T07:13:37Z</time>
      </trkpt>
      <trkpt lat="42.283699" lon="1.728233">
        <ele>2531.714</ele>
        <time>2018-09-22T07:13:39Z</time>
      </trkpt>
      <trkpt lat="42.283695" lon="1.728268">
        <ele>2531.308</ele>
        <time>2018-09-22T07:13:41Z</time>
      </trkpt>
      <trkpt lat="42.283693" lon="1.728285">
        <ele>2531.118</ele>
        <time>2018-09-22T07:13:42Z</time>
      </trkpt>
      <trkpt lat="42.283686" lon="1.728313">
        <ele>2531.024</ele>
        <time>2018-09-22T07:13:44Z</time>
      </trkpt>
      <trkpt lat="42.283676" lon="1.728343">
        <ele>2531.035</ele>
        <time>2018-09-22T07:13:46Z</time>
      </trkpt>
      <trkpt lat="42.283670" lon="1.728386">
        <ele>2530.499</ele>
        <time>2018-09-22T07:13:48Z</time>
      </trkpt>
      <trkpt lat="42.283656" lon="1.728478">
        <ele>2529.185</ele>
        <time>2018-09-22T07:13:52Z</time>
      </trkpt>
      <trkpt lat="42.283638" lon="1.728583">
        <ele>2528.045</ele>
        <time>2018-09-22T07:13:56Z</time>
      </trkpt>
      <trkpt lat="42.283625" lon="1.728654">
        <ele>2527.197</ele>
        <time>2018-09-22T07:13:59Z</time>
      </trkpt>
      <trkpt lat="42.283623" lon="1.728701">
        <ele>2526.169</ele>
        <time>2018-09-22T07:14:01Z</time>
      </trkpt>
      <trkpt lat="42.283627" lon="1.728766">
        <ele>2524.273</ele>
        <time>2018-09-22T07:14:04Z</time>
      </trkpt>
      <trkpt lat="42.283635" lon="1.728805">
        <ele>2522.885</ele>
        <time>2018-09-22T07:14:06Z</time>
      </trkpt>
      <trkpt lat="42.283639" lon="1.728825">
        <ele>2522.113</ele>
        <time>2018-09-22T07:14:07Z</time>
      </trkpt>
      <trkpt lat="42.283643" lon="1.728844">
        <ele>2521.408</ele>
        <time>2018-09-22T07:14:08Z</time>
      </trkpt>
      <trkpt lat="42.283643" lon="1.728863">
        <ele>2520.939</ele>
        <time>2018-09-22T07:14:09Z</time>
      </trkpt>
      <trkpt lat="42.283632" lon="1.728900">
        <ele>2520.455</ele>
        <time>2018-09-22T07:14:12Z</time>
      </trkpt>
      <trkpt lat="42.283627" lon="1.728913">
        <ele>2520.386</ele>
        <time>2018-09-22T07:14:14Z</time>
      </trkpt>
      <trkpt lat="42.283648" lon="1.728919">
        <ele>2518.910</ele>
        <time>2018-09-22T07:14:16Z</time>
      </trkpt>
      <trkpt lat="42.283656" lon="1.728923">
        <ele>2518.456</ele>
        <time>2018-09-22T07:14:17Z</time>
      </trkpt>
      <trkpt lat="42.283662" lon="1.728927">
        <ele>2517.916</ele>
        <time>2018-09-22T07:14:18Z</time>
      </trkpt>
      <trkpt lat="42.283677" lon="1.728943">
        <ele>2516.528</ele>
        <time>2018-09-22T07:14:23Z</time>
      </trkpt>
      <trkpt lat="42.283683" lon="1.728967">
        <ele>2515.440</ele>
        <time>2018-09-22T07:14:26Z</time>
      </trkpt>
      <trkpt lat="42.283700" lon="1.728983">
        <ele>2514.021</ele>
        <time>2018-09-22T07:14:29Z</time>
      </trkpt>
      <trkpt lat="42.283715" lon="1.729001">
        <ele>2512.641</ele>
        <time>2018-09-22T07:14:33Z</time>
      </trkpt>
      <trkpt lat="42.283719" lon="1.729033">
        <ele>2511.305</ele>
        <time>2018-09-22T07:14:35Z</time>
      </trkpt>
      <trkpt lat="42.283719" lon="1.729076">
        <ele>2509.908</ele>
        <time>2018-09-22T07:14:37Z</time>
      </trkpt>
      <trkpt lat="42.283714" lon="1.729094">
        <ele>2509.634</ele>
        <time>2018-09-22T07:14:38Z</time>
      </trkpt>
      <trkpt lat="42.283713" lon="1.729111">
        <ele>2509.050</ele>
        <time>2018-09-22T07:14:39Z</time>
      </trkpt>
      <trkpt lat="42.283714" lon="1.729151">
        <ele>2507.621</ele>
        <time>2018-09-22T07:14:41Z</time>
      </trkpt>
      <trkpt lat="42.283716" lon="1.729193">
        <ele>2506.235</ele>
        <time>2018-09-22T07:14:43Z</time>
      </trkpt>
      <trkpt lat="42.283726" lon="1.729231">
        <ele>2504.651</ele>
        <time>2018-09-22T07:14:45Z</time>
      </trkpt>
      <trkpt lat="42.283725" lon="1.729270">
        <ele>2503.471</ele>
        <time>2018-09-22T07:14:47Z</time>
      </trkpt>
      <trkpt lat="42.283721" lon="1.729316">
        <ele>2502.273</ele>
        <time>2018-09-22T07:14:49Z</time>
      </trkpt>
      <trkpt lat="42.283703" lon="1.729386">
        <ele>2500.855</ele>
        <time>2018-09-22T07:14:52Z</time>
      </trkpt>
      <trkpt lat="42.283699" lon="1.729452">
        <ele>2499.058</ele>
        <time>2018-09-22T07:14:55Z</time>
      </trkpt>
      <trkpt lat="42.283702" lon="1.729498">
        <ele>2497.752</ele>
        <time>2018-09-22T07:14:57Z</time>
      </trkpt>
      <trkpt lat="42.283711" lon="1.729549">
        <ele>2496.017</ele>
        <time>2018-09-22T07:14:59Z</time>
      </trkpt>
      <trkpt lat="42.283717" lon="1.729600">
        <ele>2494.408</ele>
        <time>2018-09-22T07:15:01Z</time>
      </trkpt>
      <trkpt lat="42.283731" lon="1.729651">
        <ele>2492.627</ele>
        <time>2018-09-22T07:15:03Z</time>
      </trkpt>
      <trkpt lat="42.283737" lon="1.729700">
        <ele>2491.183</ele>
        <time>2018-09-22T07:15:05Z</time>
      </trkpt>
      <trkpt lat="42.283742" lon="1.729784">
        <ele>2488.884</ele>
        <time>2018-09-22T07:15:08Z</time>
      </trkpt>
      <trkpt lat="42.283756" lon="1.729860">
        <ele>2486.528</ele>
        <time>2018-09-22T07:15:11Z</time>
      </trkpt>
      <trkpt lat="42.283764" lon="1.729906">
        <ele>2485.164</ele>
        <time>2018-09-22T07:15:13Z</time>
      </trkpt>
      <trkpt lat="42.283781" lon="1.729973">
        <ele>2482.834</ele>
        <time>2018-09-22T07:15:16Z</time>
      </trkpt>
      <trkpt lat="42.283792" lon="1.730060">
        <ele>2480.526</ele>
        <time>2018-09-22T07:15:20Z</time>
      </trkpt>
      <trkpt lat="42.283798" lon="1.730110">
        <ele>2479.338</ele>
        <time>2018-09-22T07:15:22Z</time>
      </trkpt>
      <trkpt lat="42.283774" lon="1.730155">
        <ele>2479.196</ele>
        <time>2018-09-22T07:15:24Z</time>
      </trkpt>
      <trkpt lat="42.283759" lon="1.730186">
        <ele>2478.831</ele>
        <time>2018-09-22T07:15:26Z</time>
      </trkpt>
      <trkpt lat="42.283759" lon="1.730200">
        <ele>2478.524</ele>
        <time>2018-09-22T07:15:27Z</time>
      </trkpt>
      <trkpt lat="42.283765" lon="1.730213">
        <ele>2478.108</ele>
        <time>2018-09-22T07:15:28Z</time>
      </trkpt>
      <trkpt lat="42.283769" lon="1.730247">
        <ele>2477.241</ele>
        <time>2018-09-22T07:15:30Z</time>
      </trkpt>
      <trkpt lat="42.283763" lon="1.730283">
        <ele>2476.527</ele>
        <time>2018-09-22T07:15:32Z</time>
      </trkpt>
      <trkpt lat="42.283770" lon="1.730311">
        <ele>2475.748</ele>
        <time>2018-09-22T07:15:34Z</time>
      </trkpt>
      <trkpt lat="42.283773" lon="1.730328">
        <ele>2475.292</ele>
        <time>2018-09-22T07:15:35Z</time>
      </trkpt>
      <trkpt lat="42.283776" lon="1.730347">
        <ele>2474.728</ele>
        <time>2018-09-22T07:15:36Z</time>
      </trkpt>
      <trkpt lat="42.283781" lon="1.730383">
        <ele>2473.718</ele>
        <time>2018-09-22T07:15:38Z</time>
      </trkpt>
      <trkpt lat="42.283797" lon="1.730455">
        <ele>2471.750</ele>
        <time>2018-09-22T07:15:42Z</time>
      </trkpt>
      <trkpt lat="42.283811" lon="1.730548">
        <ele>2469.222</ele>
        <time>2018-09-22T07:15:46Z</time>
      </trkpt>
      <trkpt lat="42.283806" lon="1.730573">
        <ele>2468.678</ele>
        <time>2018-09-22T07:15:48Z</time>
      </trkpt>
      <trkpt lat="42.283802" lon="1.730581">
        <ele>2468.433</ele>
        <time>2018-09-22T07:15:49Z</time>
      </trkpt>
      <trkpt lat="42.283798" lon="1.730587">
        <ele>2468.226</ele>
        <time>2018-09-22T07:15:50Z</time>
      </trkpt>
      <trkpt lat="42.283792" lon="1.730601">
        <ele>2467.808</ele>
        <time>2018-09-22T07:15:52Z</time>
      </trkpt>
      <trkpt lat="42.283767" lon="1.730611">
        <ele>2467.869</ele>
        <time>2018-09-22T07:15:55Z</time>
      </trkpt>
      <trkpt lat="42.283747" lon="1.730623">
        <ele>2467.735</ele>
        <time>2018-09-22T07:15:57Z</time>
      </trkpt>
      <trkpt lat="42.283732" lon="1.730643">
        <ele>2467.246</ele>
        <time>2018-09-22T07:15:59Z</time>
      </trkpt>
      <trkpt lat="42.283731" lon="1.730654">
        <ele>2466.820</ele>
        <time>2018-09-22T07:16:00Z</time>
      </trkpt>
      <trkpt lat="42.283731" lon="1.730675">
        <ele>2466.126</ele>
        <time>2018-09-22T07:16:02Z</time>
      </trkpt>
      <trkpt lat="42.283731" lon="1.730687">
        <ele>2465.796</ele>
        <time>2018-09-22T07:16:03Z</time>
      </trkpt>
      <trkpt lat="42.283733" lon="1.730722">
        <ele>2464.598</ele>
        <time>2018-09-22T07:16:06Z</time>
      </trkpt>
      <trkpt lat="42.283732" lon="1.730755">
        <ele>2463.320</ele>
        <time>2018-09-22T07:16:09Z</time>
      </trkpt>
      <trkpt lat="42.283744" lon="1.730792">
        <ele>2461.949</ele>
        <time>2018-09-22T07:16:12Z</time>
      </trkpt>
      <trkpt lat="42.283754" lon="1.730816">
        <ele>2461.002</ele>
        <time>2018-09-22T07:16:14Z</time>
      </trkpt>
      <trkpt lat="42.283750" lon="1.730855">
        <ele>2459.722</ele>
        <time>2018-09-22T07:16:17Z</time>
      </trkpt>
      <trkpt lat="42.283757" lon="1.730868">
        <ele>2459.108</ele>
        <time>2018-09-22T07:16:18Z</time>
      </trkpt>
      <trkpt lat="42.283777" lon="1.730892">
        <ele>2458.066</ele>
        <time>2018-09-22T07:16:20Z</time>
      </trkpt>
      <trkpt lat="42.283795" lon="1.730917">
        <ele>2456.982</ele>
        <time>2018-09-22T07:16:22Z</time>
      </trkpt>
      <trkpt lat="42.283866" lon="1.730962">
        <ele>2454.693</ele>
        <time>2018-09-22T07:16:27Z</time>
      </trkpt>
      <trkpt lat="42.283881" lon="1.730992">
        <ele>2453.387</ele>
        <time>2018-09-22T07:16:29Z</time>
      </trkpt>
      <trkpt lat="42.283883" lon="1.731010">
        <ele>2452.783</ele>
        <time>2018-09-22T07:16:30Z</time>
      </trkpt>
      <trkpt lat="42.283876" lon="1.731085">
        <ele>2450.083</ele>
        <time>2018-09-22T07:16:34Z</time>
      </trkpt>
      <trkpt lat="42.283873" lon="1.731107">
        <ele>2449.315</ele>
        <time>2018-09-22T07:16:36Z</time>
      </trkpt>
      <trkpt lat="42.283877" lon="1.731117">
        <ele>2448.967</ele>
        <time>2018-09-22T07:16:38Z</time>
      </trkpt>
      <trkpt lat="42.283879" lon="1.731150">
        <ele>2447.832</ele>
        <time>2018-09-22T07:16:41Z</time>
      </trkpt>
      <trkpt lat="42.283871" lon="1.731174">
        <ele>2447.192</ele>
        <time>2018-09-22T07:16:43Z</time>
      </trkpt>
      <trkpt lat="42.283867" lon="1.731187">
        <ele>2446.711</ele>
        <time>2018-09-22T07:16:44Z</time>
      </trkpt>
      <trkpt lat="42.283868" lon="1.731202">
        <ele>2446.208</ele>
        <time>2018-09-22T07:16:45Z</time>
      </trkpt>
      <trkpt lat="42.283870" lon="1.731216">
        <ele>2445.755</ele>
        <time>2018-09-22T07:16:46Z</time>
      </trkpt>
      <trkpt lat="42.283874" lon="1.731232">
        <ele>2445.211</ele>
        <time>2018-09-22T07:16:48Z</time>
      </trkpt>
      <trkpt lat="42.283877" lon="1.731243">
        <ele>2444.832</ele>
        <time>2018-09-22T07:16:52Z</time>
      </trkpt>
      <trkpt lat="42.283865" lon="1.731248">
        <ele>2444.726</ele>
        <time>2018-09-22T07:16:59Z</time>
      </trkpt>
      <trkpt lat="42.283848" lon="1.731244">
        <ele>2445.032</ele>
        <time>2018-09-22T07:17:24Z</time>
      </trkpt>
      <trkpt lat="42.283842" lon="1.731254">
        <ele>2444.882</ele>
        <time>2018-09-22T07:17:39Z</time>
      </trkpt>
      <trkpt lat="42.283852" lon="1.731277">
        <ele>2443.984</ele>
        <time>2018-09-22T07:17:50Z</time>
      </trkpt>
      <trkpt lat="42.283848" lon="1.731268">
        <ele>2444.246</ele>
        <time>2018-09-22T07:17:59Z</time>
      </trkpt>
      <trkpt lat="42.283872" lon="1.731259">
        <ele>2444.397</ele>
        <time>2018-09-22T07:18:19Z</time>
      </trkpt>
      <trkpt lat="42.283872" lon="1.731260">
        <ele>2444.323</ele>
        <time>2018-09-22T07:18:20Z</time>
      </trkpt>
      <trkpt lat="42.283869" lon="1.731261">
        <ele>2444.325</ele>
        <time>2018-09-22T07:18:23Z</time>
      </trkpt>
      <trkpt lat="42.283875" lon="1.731238">
        <ele>2445.008</ele>
        <time>2018-09-22T07:18:36Z</time>
      </trkpt>
      <trkpt lat="42.283872" lon="1.731234">
        <ele>2445.131</ele>
        <time>2018-09-22T07:18:40Z</time>
      </trkpt>
      <trkpt lat="42.283874" lon="1.731229">
        <ele>2445.397</ele>
        <time>2018-09-22T07:19:02Z</time>
      </trkpt>
      <trkpt lat="42.283874" lon="1.731230">
        <ele>2445.278</ele>
        <time>2018-09-22T07:19:14Z</time>
      </trkpt>
      <trkpt lat="42.283875" lon="1.731228">
        <ele>2445.382</ele>
        <time>2018-09-22T07:19:15Z</time>
      </trkpt>
      <trkpt lat="42.283874" lon="1.731229">
        <ele>2445.328</ele>
        <time>2018-09-22T07:19:18Z</time>
      </trkpt>
      <trkpt lat="42.283873" lon="1.731229">
        <ele>2445.388</ele>
        <time>2018-09-22T07:19:34Z</time>
      </trkpt>
      <trkpt lat="42.283874" lon="1.731228">
        <ele>2445.340</ele>
        <time>2018-09-22T07:20:04Z</time>
      </trkpt>
      <trkpt lat="42.283875" lon="1.731224">
        <ele>2445.462</ele>
        <time>2018-09-22T07:20:28Z</time>
      </trkpt>
      <trkpt lat="42.283876" lon="1.731224">
        <ele>2445.488</ele>
        <time>2018-09-22T07:20:41Z</time>
      </trkpt>
      <trkpt lat="42.283875" lon="1.731225">
        <ele>2445.424</ele>
        <time>2018-09-22T07:20:48Z</time>
      </trkpt>
      <trkpt lat="42.283878" lon="1.731223">
        <ele>2445.426</ele>
        <time>2018-09-22T07:21:07Z</time>
      </trkpt>
      <trkpt lat="42.283876" lon="1.731225">
        <ele>2445.408</ele>
        <time>2018-09-22T07:21:22Z</time>
      </trkpt>
      <trkpt lat="42.283886" lon="1.731221">
        <ele>2445.410</ele>
        <time>2018-09-22T07:21:31Z</time>
      </trkpt>
      <trkpt lat="42.283890" lon="1.731241">
        <ele>2444.776</ele>
        <time>2018-09-22T07:21:35Z</time>
      </trkpt>
      <trkpt lat="42.283870" lon="1.731251">
        <ele>2444.637</ele>
        <time>2018-09-22T07:21:43Z</time>
      </trkpt>
      <trkpt lat="42.283885" lon="1.731194">
        <ele>2446.331</ele>
        <time>2018-09-22T07:21:53Z</time>
      </trkpt>
      <trkpt lat="42.283882" lon="1.731218">
        <ele>2445.677</ele>
        <time>2018-09-22T07:21:59Z</time>
      </trkpt>
      <trkpt lat="42.283880" lon="1.731214">
        <ele>2445.727</ele>
        <time>2018-09-22T07:22:02Z</time>
      </trkpt>
      <trkpt lat="42.283874" lon="1.731226">
        <ele>2445.499</ele>
        <time>2018-09-22T07:22:24Z</time>
      </trkpt>
      <trkpt lat="42.283884" lon="1.731242">
        <ele>2444.761</ele>
        <time>2018-09-22T07:22:47Z</time>
      </trkpt>
      <trkpt lat="42.283876" lon="1.731232">
        <ele>2445.295</ele>
        <time>2018-09-22T07:22:59Z</time>
      </trkpt>
      <trkpt lat="42.283860" lon="1.731247">
        <ele>2444.849</ele>
        <time>2018-09-22T07:23:11Z</time>
      </trkpt>
      <trkpt lat="42.283851" lon="1.731245">
        <ele>2445.023</ele>
        <time>2018-09-22T07:23:23Z</time>
      </trkpt>
      <trkpt lat="42.283834" lon="1.731232">
        <ele>2445.608</ele>
        <time>2018-09-22T07:23:28Z</time>
      </trkpt>
      <trkpt lat="42.283845" lon="1.731232">
        <ele>2445.481</ele>
        <time>2018-09-22T07:23:53Z</time>
      </trkpt>
      <trkpt lat="42.283857" lon="1.731244">
        <ele>2444.957</ele>
        <time>2018-09-22T07:24:00Z</time>
      </trkpt>
      <trkpt lat="42.283865" lon="1.731230">
        <ele>2445.388</ele>
        <time>2018-09-22T07:24:21Z</time>
      </trkpt>
      <trkpt lat="42.283861" lon="1.731220">
        <ele>2445.782</ele>
        <time>2018-09-22T07:24:32Z</time>
      </trkpt>
      <trkpt lat="42.283863" lon="1.731230">
        <ele>2445.348</ele>
        <time>2018-09-22T07:24:56Z</time>
      </trkpt>
      <trkpt lat="42.283849" lon="1.731334">
        <ele>2442.018</ele>
        <time>2018-09-22T07:25:11Z</time>
      </trkpt>
      <trkpt lat="42.283851" lon="1.731342">
        <ele>2441.870</ele>
        <time>2018-09-22T07:25:13Z</time>
      </trkpt>
      <trkpt lat="42.283844" lon="1.731340">
        <ele>2441.992</ele>
        <time>2018-09-22T07:25:16Z</time>
      </trkpt>
      <trkpt lat="42.283849" lon="1.731365">
        <ele>2441.081</ele>
        <time>2018-09-22T07:25:21Z</time>
      </trkpt>
      <trkpt lat="42.283851" lon="1.731373">
        <ele>2440.861</ele>
        <time>2018-09-22T07:25:22Z</time>
      </trkpt>
      <trkpt lat="42.283852" lon="1.731377">
        <ele>2440.617</ele>
        <time>2018-09-22T07:25:23Z</time>
      </trkpt>
      <trkpt lat="42.283856" lon="1.731404">
        <ele>2439.708</ele>
        <time>2018-09-22T07:25:26Z</time>
      </trkpt>
      <trkpt lat="42.283861" lon="1.731420">
        <ele>2439.290</ele>
        <time>2018-09-22T07:25:28Z</time>
      </trkpt>
      <trkpt lat="42.283864" lon="1.731428">
        <ele>2439.096</ele>
        <time>2018-09-22T07:25:29Z</time>
      </trkpt>
      <trkpt lat="42.283869" lon="1.731433">
        <ele>2438.867</ele>
        <time>2018-09-22T07:25:30Z</time>
      </trkpt>
      <trkpt lat="42.283887" lon="1.731464">
        <ele>2437.851</ele>
        <time>2018-09-22T07:25:33Z</time>
      </trkpt>
      <trkpt lat="42.283898" lon="1.731497">
        <ele>2436.537</ele>
        <time>2018-09-22T07:25:36Z</time>
      </trkpt>
      <trkpt lat="42.283897" lon="1.731509">
        <ele>2436.247</ele>
        <time>2018-09-22T07:25:37Z</time>
      </trkpt>
      <trkpt lat="42.283874" lon="1.731566">
        <ele>2434.989</ele>
        <time>2018-09-22T07:25:42Z</time>
      </trkpt>
      <trkpt lat="42.283870" lon="1.731578">
        <ele>2434.671</ele>
        <time>2018-09-22T07:25:43Z</time>
      </trkpt>
      <trkpt lat="42.283871" lon="1.731602">
        <ele>2433.913</ele>
        <time>2018-09-22T07:25:45Z</time>
      </trkpt>
      <trkpt lat="42.283873" lon="1.731615">
        <ele>2433.543</ele>
        <time>2018-09-22T07:25:46Z</time>
      </trkpt>
      <trkpt lat="42.283878" lon="1.731672">
        <ele>2431.907</ele>
        <time>2018-09-22T07:25:50Z</time>
      </trkpt>
      <trkpt lat="42.283876" lon="1.731684">
        <ele>2431.608</ele>
        <time>2018-09-22T07:25:51Z</time>
      </trkpt>
      <trkpt lat="42.283875" lon="1.731705">
        <ele>2431.153</ele>
        <time>2018-09-22T07:25:53Z</time>
      </trkpt>
      <trkpt lat="42.283879" lon="1.731720">
        <ele>2430.739</ele>
        <time>2018-09-22T07:25:54Z</time>
      </trkpt>
      <trkpt lat="42.283883" lon="1.731735">
        <ele>2430.250</ele>
        <time>2018-09-22T07:25:55Z</time>
      </trkpt>
      <trkpt lat="42.283895" lon="1.731790">
        <ele>2428.694</ele>
        <time>2018-09-22T07:25:58Z</time>
      </trkpt>
      <trkpt lat="42.283920" lon="1.731834">
        <ele>2426.420</ele>
        <time>2018-09-22T07:26:00Z</time>
      </trkpt>
      <trkpt lat="42.283951" lon="1.731873">
        <ele>2424.170</ele>
        <time>2018-09-22T07:26:02Z</time>
      </trkpt>
      <trkpt lat="42.283976" lon="1.731937">
        <ele>2421.482</ele>
        <time>2018-09-22T07:26:05Z</time>
      </trkpt>
      <trkpt lat="42.283986" lon="1.732044">
        <ele>2418.684</ele>
        <time>2018-09-22T07:26:09Z</time>
      </trkpt>
      <trkpt lat="42.283990" lon="1.732126">
        <ele>2416.744</ele>
        <time>2018-09-22T07:26:12Z</time>
      </trkpt>
      <trkpt lat="42.283983" lon="1.732171">
        <ele>2416.005</ele>
        <time>2018-09-22T07:26:14Z</time>
      </trkpt>
      <trkpt lat="42.283973" lon="1.732260">
        <ele>2414.715</ele>
        <time>2018-09-22T07:26:18Z</time>
      </trkpt>
      <trkpt lat="42.283975" lon="1.732300">
        <ele>2414.008</ele>
        <time>2018-09-22T07:26:20Z</time>
      </trkpt>
      <trkpt lat="42.283977" lon="1.732332">
        <ele>2413.526</ele>
        <time>2018-09-22T07:26:22Z</time>
      </trkpt>
      <trkpt lat="42.283961" lon="1.732408">
        <ele>2413.062</ele>
        <time>2018-09-22T07:26:27Z</time>
      </trkpt>
      <trkpt lat="42.283949" lon="1.732488">
        <ele>2412.343</ele>
        <time>2018-09-22T07:26:32Z</time>
      </trkpt>
      <trkpt lat="42.283947" lon="1.732504">
        <ele>2412.267</ele>
        <time>2018-09-22T07:26:33Z</time>
      </trkpt>
      <trkpt lat="42.283949" lon="1.732540">
        <ele>2411.753</ele>
        <time>2018-09-22T07:26:35Z</time>
      </trkpt>
      <trkpt lat="42.283949" lon="1.732573">
        <ele>2411.473</ele>
        <time>2018-09-22T07:26:37Z</time>
      </trkpt>
      <trkpt lat="42.283942" lon="1.732603">
        <ele>2411.475</ele>
        <time>2018-09-22T07:26:39Z</time>
      </trkpt>
      <trkpt lat="42.283915" lon="1.732689">
        <ele>2411.857</ele>
        <time>2018-09-22T07:26:45Z</time>
      </trkpt>
      <trkpt lat="42.283905" lon="1.732696">
        <ele>2412.117</ele>
        <time>2018-09-22T07:26:46Z</time>
      </trkpt>
      <trkpt lat="42.283861" lon="1.732707">
        <ele>2412.287</ele>
        <time>2018-09-22T07:26:50Z</time>
      </trkpt>
      <trkpt lat="42.283833" lon="1.732721">
        <ele>2411.615</ele>
        <time>2018-09-22T07:26:53Z</time>
      </trkpt>
      <trkpt lat="42.283823" lon="1.732722">
        <ele>2411.408</ele>
        <time>2018-09-22T07:26:54Z</time>
      </trkpt>
      <trkpt lat="42.283810" lon="1.732734">
        <ele>2410.983</ele>
        <time>2018-09-22T07:26:56Z</time>
      </trkpt>
      <trkpt lat="42.283804" lon="1.732777">
        <ele>2410.159</ele>
        <time>2018-09-22T07:26:59Z</time>
      </trkpt>
      <trkpt lat="42.283800" lon="1.732789">
        <ele>2409.990</ele>
        <time>2018-09-22T07:27:00Z</time>
      </trkpt>
      <trkpt lat="42.283798" lon="1.732803">
        <ele>2409.664</ele>
        <time>2018-09-22T07:27:01Z</time>
      </trkpt>
      <trkpt lat="42.283793" lon="1.732877">
        <ele>2408.390</ele>
        <time>2018-09-22T07:27:06Z</time>
      </trkpt>
      <trkpt lat="42.283816" lon="1.732942">
        <ele>2408.070</ele>
        <time>2018-09-22T07:27:10Z</time>
      </trkpt>
      <trkpt lat="42.283832" lon="1.732973">
        <ele>2408.082</ele>
        <time>2018-09-22T07:27:13Z</time>
      </trkpt>
      <trkpt lat="42.283852" lon="1.732995">
        <ele>2408.474</ele>
        <time>2018-09-22T07:27:16Z</time>
      </trkpt>
      <trkpt lat="42.283870" lon="1.733014">
        <ele>2408.881</ele>
        <time>2018-09-22T07:27:18Z</time>
      </trkpt>
      <trkpt lat="42.283878" lon="1.733026">
        <ele>2408.961</ele>
        <time>2018-09-22T07:27:19Z</time>
      </trkpt>
      <trkpt lat="42.283889" lon="1.733057">
        <ele>2408.917</ele>
        <time>2018-09-22T07:27:21Z</time>
      </trkpt>
      <trkpt lat="42.283901" lon="1.733118">
        <ele>2408.608</ele>
        <time>2018-09-22T07:27:25Z</time>
      </trkpt>
      <trkpt lat="42.283915" lon="1.733181">
        <ele>2408.170</ele>
        <time>2018-09-22T07:27:29Z</time>
      </trkpt>
      <trkpt lat="42.283944" lon="1.733227">
        <ele>2406.756</ele>
        <time>2018-09-22T07:27:33Z</time>
      </trkpt>
      <trkpt lat="42.283965" lon="1.733245">
        <ele>2405.697</ele>
        <time>2018-09-22T07:27:35Z</time>
      </trkpt>
      <trkpt lat="42.283971" lon="1.733262">
        <ele>2405.381</ele>
        <time>2018-09-22T07:27:36Z</time>
      </trkpt>
      <trkpt lat="42.283976" lon="1.733283">
        <ele>2405.037</ele>
        <time>2018-09-22T07:27:37Z</time>
      </trkpt>
      <trkpt lat="42.284012" lon="1.733366">
        <ele>2403.037</ele>
        <time>2018-09-22T07:27:40Z</time>
      </trkpt>
      <trkpt lat="42.284042" lon="1.733422">
        <ele>2401.429</ele>
        <time>2018-09-22T07:27:42Z</time>
      </trkpt>
      <trkpt lat="42.284063" lon="1.733519">
        <ele>2400.421</ele>
        <time>2018-09-22T07:27:45Z</time>
      </trkpt>
      <trkpt lat="42.284054" lon="1.733712">
        <ele>2401.316</ele>
        <time>2018-09-22T07:27:51Z</time>
      </trkpt>
      <trkpt lat="42.284063" lon="1.733860">
        <ele>2400.676</ele>
        <time>2018-09-22T07:27:56Z</time>
      </trkpt>
      <trkpt lat="42.284069" lon="1.733957">
        <ele>2400.013</ele>
        <time>2018-09-22T07:27:59Z</time>
      </trkpt>
      <trkpt lat="42.284075" lon="1.734018">
        <ele>2399.408</ele>
        <time>2018-09-22T07:28:01Z</time>
      </trkpt>
      <trkpt lat="42.284090" lon="1.734074">
        <ele>2398.343</ele>
        <time>2018-09-22T07:28:03Z</time>
      </trkpt>
      <trkpt lat="42.284101" lon="1.734131">
        <ele>2397.629</ele>
        <time>2018-09-22T07:28:05Z</time>
      </trkpt>
      <trkpt lat="42.284185" lon="1.734353">
        <ele>2395.610</ele>
        <time>2018-09-22T07:28:13Z</time>
      </trkpt>
      <trkpt lat="42.284271" lon="1.734574">
        <ele>2395.094</ele>
        <time>2018-09-22T07:28:21Z</time>
      </trkpt>
      <trkpt lat="42.284287" lon="1.734598">
        <ele>2394.590</ele>
        <time>2018-09-22T07:28:22Z</time>
      </trkpt>
      <trkpt lat="42.284385" lon="1.734803">
        <ele>2392.890</ele>
        <time>2018-09-22T07:28:29Z</time>
      </trkpt>
      <trkpt lat="42.284425" lon="1.734915">
        <ele>2393.022</ele>
        <time>2018-09-22T07:28:33Z</time>
      </trkpt>
      <trkpt lat="42.284426" lon="1.734929">
        <ele>2393.334</ele>
        <time>2018-09-22T07:28:34Z</time>
      </trkpt>
      <trkpt lat="42.284430" lon="1.734933">
        <ele>2393.261</ele>
        <time>2018-09-22T07:28:35Z</time>
      </trkpt>
      <trkpt lat="42.284469" lon="1.734911">
        <ele>2391.021</ele>
        <time>2018-09-22T07:28:42Z</time>
      </trkpt>
      <trkpt lat="42.284482" lon="1.734913">
        <ele>2390.513</ele>
        <time>2018-09-22T07:28:43Z</time>
      </trkpt>
      <trkpt lat="42.284506" lon="1.734920">
        <ele>2389.708</ele>
        <time>2018-09-22T07:28:45Z</time>
      </trkpt>
      <trkpt lat="42.284550" lon="1.734924">
        <ele>2388.018</ele>
        <time>2018-09-22T07:28:48Z</time>
      </trkpt>
      <trkpt lat="42.284565" lon="1.734927">
        <ele>2387.514</ele>
        <time>2018-09-22T07:28:49Z</time>
      </trkpt>
      <trkpt lat="42.284575" lon="1.734936">
        <ele>2387.375</ele>
        <time>2018-09-22T07:28:50Z</time>
      </trkpt>
      <trkpt lat="42.284601" lon="1.734951">
        <ele>2386.699</ele>
        <time>2018-09-22T07:28:52Z</time>
      </trkpt>
      <trkpt lat="42.284629" lon="1.734973">
        <ele>2386.035</ele>
        <time>2018-09-22T07:28:54Z</time>
      </trkpt>
      <trkpt lat="42.284643" lon="1.734989">
        <ele>2385.875</ele>
        <time>2018-09-22T07:28:55Z</time>
      </trkpt>
      <trkpt lat="42.284740" lon="1.735145">
        <ele>2385.487</ele>
        <time>2018-09-22T07:29:02Z</time>
      </trkpt>
      <trkpt lat="42.284846" lon="1.735240">
        <ele>2383.699</ele>
        <time>2018-09-22T07:29:07Z</time>
      </trkpt>
      <trkpt lat="42.284930" lon="1.735322">
        <ele>2382.796</ele>
        <time>2018-09-22T07:29:11Z</time>
      </trkpt>
      <trkpt lat="42.285090" lon="1.735480">
        <ele>2380.831</ele>
        <time>2018-09-22T07:29:19Z</time>
      </trkpt>
      <trkpt lat="42.285216" lon="1.735586">
        <ele>2378.924</ele>
        <time>2018-09-22T07:29:27Z</time>
      </trkpt>
      <trkpt lat="42.285258" lon="1.735614">
        <ele>2378.008</ele>
        <time>2018-09-22T07:29:29Z</time>
      </trkpt>
      <trkpt lat="42.285320" lon="1.735649">
        <ele>2376.451</ele>
        <time>2018-09-22T07:29:32Z</time>
      </trkpt>
      <trkpt lat="42.285359" lon="1.735657">
        <ele>2375.097</ele>
        <time>2018-09-22T07:29:34Z</time>
      </trkpt>
      <trkpt lat="42.285379" lon="1.735669">
        <ele>2374.558</ele>
        <time>2018-09-22T07:29:35Z</time>
      </trkpt>
      <trkpt lat="42.285420" lon="1.735683">
        <ele>2373.342</ele>
        <time>2018-09-22T07:29:37Z</time>
      </trkpt>
      <trkpt lat="42.285465" lon="1.735707">
        <ele>2372.218</ele>
        <time>2018-09-22T07:29:39Z</time>
      </trkpt>
      <trkpt lat="42.285505" lon="1.735745">
        <ele>2371.668</ele>
        <time>2018-09-22T07:29:41Z</time>
      </trkpt>
      <trkpt lat="42.285601" lon="1.735851">
        <ele>2370.660</ele>
        <time>2018-09-22T07:29:46Z</time>
      </trkpt>
      <trkpt lat="42.285661" lon="1.735925">
        <ele>2369.832</ele>
        <time>2018-09-22T07:29:50Z</time>
      </trkpt>
      <trkpt lat="42.285783" lon="1.736038">
        <ele>2367.469</ele>
        <time>2018-09-22T07:29:57Z</time>
      </trkpt>
      <trkpt lat="42.285861" lon="1.736105">
        <ele>2366.104</ele>
        <time>2018-09-22T07:30:01Z</time>
      </trkpt>
      <trkpt lat="42.285993" lon="1.736205">
        <ele>2363.924</ele>
        <time>2018-09-22T07:30:07Z</time>
      </trkpt>
      <trkpt lat="42.286059" lon="1.736246">
        <ele>2362.708</ele>
        <time>2018-09-22T07:30:10Z</time>
      </trkpt>
      <trkpt lat="42.286137" lon="1.736309">
        <ele>2361.648</ele>
        <time>2018-09-22T07:30:14Z</time>
      </trkpt>
      <trkpt lat="42.286263" lon="1.736344">
        <ele>2359.644</ele>
        <time>2018-09-22T07:30:20Z</time>
      </trkpt>
      <trkpt lat="42.286352" lon="1.736339">
        <ele>2357.815</ele>
        <time>2018-09-22T07:30:24Z</time>
      </trkpt>
      <trkpt lat="42.286427" lon="1.736367">
        <ele>2356.769</ele>
        <time>2018-09-22T07:30:27Z</time>
      </trkpt>
      <trkpt lat="42.286495" lon="1.736421">
        <ele>2355.895</ele>
        <time>2018-09-22T07:30:30Z</time>
      </trkpt>
      <trkpt lat="42.286581" lon="1.736474">
        <ele>2354.295</ele>
        <time>2018-09-22T07:30:34Z</time>
      </trkpt>
      <trkpt lat="42.286716" lon="1.736659">
        <ele>2352.677</ele>
        <time>2018-09-22T07:30:42Z</time>
      </trkpt>
      <trkpt lat="42.286804" lon="1.736708">
        <ele>2350.019</ele>
        <time>2018-09-22T07:30:46Z</time>
      </trkpt>
      <trkpt lat="42.286862" lon="1.736739">
        <ele>2348.538</ele>
        <time>2018-09-22T07:30:49Z</time>
      </trkpt>
      <trkpt lat="42.286938" lon="1.736818">
        <ele>2346.570</ele>
        <time>2018-09-22T07:30:53Z</time>
      </trkpt>
      <trkpt lat="42.286965" lon="1.736845">
        <ele>2346.017</ele>
        <time>2018-09-22T07:30:55Z</time>
      </trkpt>
      <trkpt lat="42.286999" lon="1.736862">
        <ele>2345.508</ele>
        <time>2018-09-22T07:30:57Z</time>
      </trkpt>
      <trkpt lat="42.287013" lon="1.736869">
        <ele>2345.345</ele>
        <time>2018-09-22T07:30:58Z</time>
      </trkpt>
      <trkpt lat="42.287030" lon="1.736886">
        <ele>2345.131</ele>
        <time>2018-09-22T07:30:59Z</time>
      </trkpt>
      <trkpt lat="42.287062" lon="1.736922">
        <ele>2344.732</ele>
        <time>2018-09-22T07:31:01Z</time>
      </trkpt>
      <trkpt lat="42.287102" lon="1.736950">
        <ele>2344.166</ele>
        <time>2018-09-22T07:31:03Z</time>
      </trkpt>
      <trkpt lat="42.287134" lon="1.736974">
        <ele>2343.182</ele>
        <time>2018-09-22T07:31:05Z</time>
      </trkpt>
      <trkpt lat="42.287190" lon="1.737024">
        <ele>2341.482</ele>
        <time>2018-09-22T07:31:08Z</time>
      </trkpt>
      <trkpt lat="42.287257" lon="1.737093">
        <ele>2340.124</ele>
        <time>2018-09-22T07:31:12Z</time>
      </trkpt>
      <trkpt lat="42.287296" lon="1.737122">
        <ele>2340.016</ele>
        <time>2018-09-22T07:31:14Z</time>
      </trkpt>
      <trkpt lat="42.287321" lon="1.737186">
        <ele>2339.325</ele>
        <time>2018-09-22T07:31:17Z</time>
      </trkpt>
      <trkpt lat="42.287341" lon="1.737237">
        <ele>2338.726</ele>
        <time>2018-09-22T07:31:19Z</time>
      </trkpt>
      <trkpt lat="42.287394" lon="1.737346">
        <ele>2337.008</ele>
        <time>2018-09-22T07:31:23Z</time>
      </trkpt>
      <trkpt lat="42.287429" lon="1.737396">
        <ele>2336.608</ele>
        <time>2018-09-22T07:31:25Z</time>
      </trkpt>
      <trkpt lat="42.287471" lon="1.737436">
        <ele>2336.634</ele>
        <time>2018-09-22T07:31:27Z</time>
      </trkpt>
      <trkpt lat="42.287500" lon="1.737484">
        <ele>2336.370</ele>
        <time>2018-09-22T07:31:29Z</time>
      </trkpt>
      <trkpt lat="42.287514" lon="1.737513">
        <ele>2335.841</ele>
        <time>2018-09-22T07:31:30Z</time>
      </trkpt>
      <trkpt lat="42.287582" lon="1.737609">
        <ele>2333.175</ele>
        <time>2018-09-22T07:31:34Z</time>
      </trkpt>
      <trkpt lat="42.287691" lon="1.737691">
        <ele>2330.831</ele>
        <time>2018-09-22T07:31:39Z</time>
      </trkpt>
      <trkpt lat="42.287741" lon="1.737716">
        <ele>2330.151</ele>
        <time>2018-09-22T07:31:41Z</time>
      </trkpt>
      <trkpt lat="42.287802" lon="1.737746">
        <ele>2329.183</ele>
        <time>2018-09-22T07:31:44Z</time>
      </trkpt>
      <trkpt lat="42.287813" lon="1.737749">
        <ele>2329.185</ele>
        <time>2018-09-22T07:31:45Z</time>
      </trkpt>
      <trkpt lat="42.287860" lon="1.737735">
        <ele>2330.642</ele>
        <time>2018-09-22T07:31:48Z</time>
      </trkpt>
      <trkpt lat="42.287934" lon="1.737749">
        <ele>2330.822</ele>
        <time>2018-09-22T07:31:57Z</time>
      </trkpt>
      <trkpt lat="42.287955" lon="1.737756">
        <ele>2330.814</ele>
        <time>2018-09-22T07:32:00Z</time>
      </trkpt>
      <trkpt lat="42.287976" lon="1.737760">
        <ele>2330.908</ele>
        <time>2018-09-22T07:32:02Z</time>
      </trkpt>
      <trkpt lat="42.288008" lon="1.737754">
        <ele>2331.736</ele>
        <time>2018-09-22T07:32:05Z</time>
      </trkpt>
      <trkpt lat="42.288036" lon="1.737746">
        <ele>2332.562</ele>
        <time>2018-09-22T07:32:08Z</time>
      </trkpt>
      <trkpt lat="42.288037" lon="1.737751">
        <ele>2332.293</ele>
        <time>2018-09-22T07:32:09Z</time>
      </trkpt>
      <trkpt lat="42.288082" lon="1.737835">
        <ele>2329.927</ele>
        <time>2018-09-22T07:32:14Z</time>
      </trkpt>
      <trkpt lat="42.288096" lon="1.737852">
        <ele>2329.993</ele>
        <time>2018-09-22T07:32:15Z</time>
      </trkpt>
      <trkpt lat="42.288108" lon="1.737868">
        <ele>2329.833</ele>
        <time>2018-09-22T07:32:16Z</time>
      </trkpt>
      <trkpt lat="42.288118" lon="1.737883">
        <ele>2329.655</ele>
        <time>2018-09-22T07:32:17Z</time>
      </trkpt>
      <trkpt lat="42.288151" lon="1.737933">
        <ele>2329.027</ele>
        <time>2018-09-22T07:32:21Z</time>
      </trkpt>
      <trkpt lat="42.288164" lon="1.737945">
        <ele>2329.166</ele>
        <time>2018-09-22T07:32:23Z</time>
      </trkpt>
      <trkpt lat="42.288175" lon="1.737954">
        <ele>2329.229</ele>
        <time>2018-09-22T07:32:25Z</time>
      </trkpt>
      <trkpt lat="42.288203" lon="1.737957">
        <ele>2330.521</ele>
        <time>2018-09-22T07:32:29Z</time>
      </trkpt>
      <trkpt lat="42.288243" lon="1.737990">
        <ele>2330.908</ele>
        <time>2018-09-22T07:32:33Z</time>
      </trkpt>
      <trkpt lat="42.288276" lon="1.738049">
        <ele>2329.678</ele>
        <time>2018-09-22T07:32:37Z</time>
      </trkpt>
      <trkpt lat="42.288280" lon="1.738065">
        <ele>2329.214</ele>
        <time>2018-09-22T07:32:39Z</time>
      </trkpt>
      <trkpt lat="42.288283" lon="1.738074">
        <ele>2329.055</ele>
        <time>2018-09-22T07:32:40Z</time>
      </trkpt>
      <trkpt lat="42.288290" lon="1.738117">
        <ele>2327.929</ele>
        <time>2018-09-22T07:32:43Z</time>
      </trkpt>
      <trkpt lat="42.288295" lon="1.738141">
        <ele>2327.455</ele>
        <time>2018-09-22T07:32:44Z</time>
      </trkpt>
      <trkpt lat="42.288297" lon="1.738189">
        <ele>2326.075</ele>
        <time>2018-09-22T07:32:46Z</time>
      </trkpt>
      <trkpt lat="42.288304" lon="1.738233">
        <ele>2325.027</ele>
        <time>2018-09-22T07:32:48Z</time>
      </trkpt>
      <trkpt lat="42.288313" lon="1.738249">
        <ele>2325.149</ele>
        <time>2018-09-22T07:32:49Z</time>
      </trkpt>
      <trkpt lat="42.288341" lon="1.738296">
        <ele>2325.682</ele>
        <time>2018-09-22T07:32:54Z</time>
      </trkpt>
      <trkpt lat="42.288330" lon="1.738355">
        <ele>2323.043</ele>
        <time>2018-09-22T07:32:58Z</time>
      </trkpt>
      <trkpt lat="42.288336" lon="1.738368">
        <ele>2323.017</ele>
        <time>2018-09-22T07:32:59Z</time>
      </trkpt>
      <trkpt lat="42.288353" lon="1.738428">
        <ele>2322.408</ele>
        <time>2018-09-22T07:33:02Z</time>
      </trkpt>
      <trkpt lat="42.288356" lon="1.738449">
        <ele>2321.960</ele>
        <time>2018-09-22T07:33:03Z</time>
      </trkpt>
      <trkpt lat="42.288363" lon="1.738497">
        <ele>2320.716</ele>
        <time>2018-09-22T07:33:05Z</time>
      </trkpt>
      <trkpt lat="42.288365" lon="1.738555">
        <ele>2318.947</ele>
        <time>2018-09-22T07:33:07Z</time>
      </trkpt>
      <trkpt lat="42.288380" lon="1.738644">
        <ele>2316.481</ele>
        <time>2018-09-22T07:33:10Z</time>
      </trkpt>
      <trkpt lat="42.288422" lon="1.738717">
        <ele>2315.797</ele>
        <time>2018-09-22T07:33:13Z</time>
      </trkpt>
      <trkpt lat="42.288461" lon="1.738766">
        <ele>2315.947</ele>
        <time>2018-09-22T07:33:16Z</time>
      </trkpt>
      <trkpt lat="42.288497" lon="1.738828">
        <ele>2315.199</ele>
        <time>2018-09-22T07:33:19Z</time>
      </trkpt>
      <trkpt lat="42.288546" lon="1.738877">
        <ele>2315.881</ele>
        <time>2018-09-22T07:33:22Z</time>
      </trkpt>
      <trkpt lat="42.288551" lon="1.738902">
        <ele>2315.114</ele>
        <time>2018-09-22T07:33:23Z</time>
      </trkpt>
      <trkpt lat="42.288574" lon="1.739032">
        <ele>2312.954</ele>
        <time>2018-09-22T07:33:28Z</time>
      </trkpt>
      <trkpt lat="42.288587" lon="1.739085">
        <ele>2312.409</ele>
        <time>2018-09-22T07:33:30Z</time>
      </trkpt>
      <trkpt lat="42.288606" lon="1.739152">
        <ele>2312.008</ele>
        <time>2018-09-22T07:33:33Z</time>
      </trkpt>
      <trkpt lat="42.288630" lon="1.739213">
        <ele>2312.233</ele>
        <time>2018-09-22T07:33:38Z</time>
      </trkpt>
      <trkpt lat="42.288631" lon="1.739221">
        <ele>2312.179</ele>
        <time>2018-09-22T07:33:39Z</time>
      </trkpt>
      <trkpt lat="42.288641" lon="1.739273">
        <ele>2311.450</ele>
        <time>2018-09-22T07:33:43Z</time>
      </trkpt>
      <trkpt lat="42.288653" lon="1.739298">
        <ele>2311.674</ele>
        <time>2018-09-22T07:33:44Z</time>
      </trkpt>
      <trkpt lat="42.288688" lon="1.739408">
        <ele>2311.060</ele>
        <time>2018-09-22T07:33:50Z</time>
      </trkpt>
      <trkpt lat="42.288700" lon="1.739440">
        <ele>2310.910</ele>
        <time>2018-09-22T07:33:53Z</time>
      </trkpt>
      <trkpt lat="42.288728" lon="1.739485">
        <ele>2311.212</ele>
        <time>2018-09-22T07:33:56Z</time>
      </trkpt>
      <trkpt lat="42.288782" lon="1.739684">
        <ele>2307.394</ele>
        <time>2018-09-22T07:34:03Z</time>
      </trkpt>
      <trkpt lat="42.288797" lon="1.739725">
        <ele>2306.516</ele>
        <time>2018-09-22T07:34:05Z</time>
      </trkpt>
      <trkpt lat="42.288821" lon="1.739789">
        <ele>2304.976</ele>
        <time>2018-09-22T07:34:08Z</time>
      </trkpt>
      <trkpt lat="42.288864" lon="1.739840">
        <ele>2304.713</ele>
        <time>2018-09-22T07:34:11Z</time>
      </trkpt>
      <trkpt lat="42.288890" lon="1.739887">
        <ele>2303.908</ele>
        <time>2018-09-22T07:34:14Z</time>
      </trkpt>
      <trkpt lat="42.288901" lon="1.739907">
        <ele>2303.643</ele>
        <time>2018-09-22T07:34:15Z</time>
      </trkpt>
      <trkpt lat="42.288928" lon="1.739951">
        <ele>2302.949</ele>
        <time>2018-09-22T07:34:17Z</time>
      </trkpt>
      <trkpt lat="42.288939" lon="1.740002">
        <ele>2301.270</ele>
        <time>2018-09-22T07:34:19Z</time>
      </trkpt>
      <trkpt lat="42.288955" lon="1.740051">
        <ele>2299.834</ele>
        <time>2018-09-22T07:34:21Z</time>
      </trkpt>
      <trkpt lat="42.288991" lon="1.740117">
        <ele>2298.770</ele>
        <time>2018-09-22T07:34:24Z</time>
      </trkpt>
      <trkpt lat="42.289047" lon="1.740168">
        <ele>2299.160</ele>
        <time>2018-09-22T07:34:28Z</time>
      </trkpt>
      <trkpt lat="42.289086" lon="1.740276">
        <ele>2296.352</ele>
        <time>2018-09-22T07:34:33Z</time>
      </trkpt>
      <trkpt lat="42.289123" lon="1.740341">
        <ele>2295.544</ele>
        <time>2018-09-22T07:34:36Z</time>
      </trkpt>
      <trkpt lat="42.289189" lon="1.740419">
        <ele>2295.996</ele>
        <time>2018-09-22T07:34:40Z</time>
      </trkpt>
      <trkpt lat="42.289304" lon="1.740606">
        <ele>2294.231</ele>
        <time>2018-09-22T07:34:48Z</time>
      </trkpt>
      <trkpt lat="42.289448" lon="1.740748">
        <ele>2295.924</ele>
        <time>2018-09-22T07:34:56Z</time>
      </trkpt>
      <trkpt lat="42.289579" lon="1.740942">
        <ele>2296.108</ele>
        <time>2018-09-22T07:35:05Z</time>
      </trkpt>
      <trkpt lat="42.289647" lon="1.741011">
        <ele>2297.341</ele>
        <time>2018-09-22T07:35:09Z</time>
      </trkpt>
      <trkpt lat="42.289720" lon="1.741240">
        <ele>2293.297</ele>
        <time>2018-09-22T07:35:17Z</time>
      </trkpt>
      <trkpt lat="42.289732" lon="1.741252">
        <ele>2293.338</ele>
        <time>2018-09-22T07:35:18Z</time>
      </trkpt>
      <trkpt lat="42.289760" lon="1.741276">
        <ele>2293.872</ele>
        <time>2018-09-22T07:35:21Z</time>
      </trkpt>
      <trkpt lat="42.289778" lon="1.741283">
        <ele>2294.498</ele>
        <time>2018-09-22T07:35:24Z</time>
      </trkpt>
      <trkpt lat="42.289810" lon="1.741299">
        <ele>2295.428</ele>
        <time>2018-09-22T07:35:28Z</time>
      </trkpt>
      <trkpt lat="42.289845" lon="1.741338">
        <ele>2295.870</ele>
        <time>2018-09-22T07:35:31Z</time>
      </trkpt>
      <trkpt lat="42.289852" lon="1.741367">
        <ele>2295.232</ele>
        <time>2018-09-22T07:35:33Z</time>
      </trkpt>
      <trkpt lat="42.289853" lon="1.741382">
        <ele>2294.817</ele>
        <time>2018-09-22T07:35:34Z</time>
      </trkpt>
      <trkpt lat="42.289850" lon="1.741437">
        <ele>2293.987</ele>
        <time>2018-09-22T07:35:38Z</time>
      </trkpt>
      <trkpt lat="42.289820" lon="1.741464">
        <ele>2292.115</ele>
        <time>2018-09-22T07:35:41Z</time>
      </trkpt>
      <trkpt lat="42.289783" lon="1.741523">
        <ele>2289.808</ele>
        <time>2018-09-22T07:35:45Z</time>
      </trkpt>
      <trkpt lat="42.289776" lon="1.741559">
        <ele>2289.233</ele>
        <time>2018-09-22T07:35:47Z</time>
      </trkpt>
      <trkpt lat="42.289760" lon="1.741649">
        <ele>2287.769</ele>
        <time>2018-09-22T07:35:52Z</time>
      </trkpt>
      <trkpt lat="42.289773" lon="1.741677">
        <ele>2287.980</ele>
        <time>2018-09-22T07:35:54Z</time>
      </trkpt>
      <trkpt lat="42.289804" lon="1.741752">
        <ele>2287.254</ele>
        <time>2018-09-22T07:35:59Z</time>
      </trkpt>
      <trkpt lat="42.289810" lon="1.741767">
        <ele>2287.030</ele>
        <time>2018-09-22T07:36:00Z</time>
      </trkpt>
      <trkpt lat="42.289822" lon="1.741813">
        <ele>2286.220</ele>
        <time>2018-09-22T07:36:03Z</time>
      </trkpt>
      <trkpt lat="42.289853" lon="1.741895">
        <ele>2285.182</ele>
        <time>2018-09-22T07:36:08Z</time>
      </trkpt>
      <trkpt lat="42.289860" lon="1.741913">
        <ele>2284.844</ele>
        <time>2018-09-22T07:36:09Z</time>
      </trkpt>
      <trkpt lat="42.289878" lon="1.741948">
        <ele>2284.584</ele>
        <time>2018-09-22T07:36:11Z</time>
      </trkpt>
      <trkpt lat="42.289894" lon="1.741975">
        <ele>2284.307</ele>
        <time>2018-09-22T07:36:13Z</time>
      </trkpt>
      <trkpt lat="42.289930" lon="1.741997">
        <ele>2285.117</ele>
        <time>2018-09-22T07:36:17Z</time>
      </trkpt>
      <trkpt lat="42.289960" lon="1.742072">
        <ele>2284.308</ele>
        <time>2018-09-22T07:36:22Z</time>
      </trkpt>
      <trkpt lat="42.289970" lon="1.742082">
        <ele>2284.370</ele>
        <time>2018-09-22T07:36:23Z</time>
      </trkpt>
      <trkpt lat="42.290006" lon="1.742119">
        <ele>2284.776</ele>
        <time>2018-09-22T07:36:26Z</time>
      </trkpt>
      <trkpt lat="42.290035" lon="1.742147">
        <ele>2284.617</ele>
        <time>2018-09-22T07:36:30Z</time>
      </trkpt>
      <trkpt lat="42.290063" lon="1.742194">
        <ele>2284.011</ele>
        <time>2018-09-22T07:36:33Z</time>
      </trkpt>
      <trkpt lat="42.290068" lon="1.742212">
        <ele>2283.717</ele>
        <time>2018-09-22T07:36:34Z</time>
      </trkpt>
      <trkpt lat="42.290073" lon="1.742230">
        <ele>2283.347</ele>
        <time>2018-09-22T07:36:35Z</time>
      </trkpt>
      <trkpt lat="42.290104" lon="1.742260">
        <ele>2283.489</ele>
        <time>2018-09-22T07:36:37Z</time>
      </trkpt>
      <trkpt lat="42.290116" lon="1.742262">
        <ele>2283.651</ele>
        <time>2018-09-22T07:36:38Z</time>
      </trkpt>
      <trkpt lat="42.290164" lon="1.742276">
        <ele>2284.539</ele>
        <time>2018-09-22T07:36:42Z</time>
      </trkpt>
      <trkpt lat="42.290172" lon="1.742274">
        <ele>2284.701</ele>
        <time>2018-09-22T07:36:43Z</time>
      </trkpt>
      <trkpt lat="42.290180" lon="1.742274">
        <ele>2284.921</ele>
        <time>2018-09-22T07:36:44Z</time>
      </trkpt>
      <trkpt lat="42.290190" lon="1.742283">
        <ele>2285.008</ele>
        <time>2018-09-22T07:36:45Z</time>
      </trkpt>
      <trkpt lat="42.290198" lon="1.742296">
        <ele>2285.025</ele>
        <time>2018-09-22T07:36:46Z</time>
      </trkpt>
      <trkpt lat="42.290216" lon="1.742384">
        <ele>2284.261</ele>
        <time>2018-09-22T07:36:51Z</time>
      </trkpt>
      <trkpt lat="42.290218" lon="1.742480">
        <ele>2282.932</ele>
        <time>2018-09-22T07:36:57Z</time>
      </trkpt>
      <trkpt lat="42.290223" lon="1.742537">
        <ele>2282.146</ele>
        <time>2018-09-22T07:37:00Z</time>
      </trkpt>
      <trkpt lat="42.290209" lon="1.742629">
        <ele>2279.842</ele>
        <time>2018-09-22T07:37:05Z</time>
      </trkpt>
      <trkpt lat="42.290203" lon="1.742648">
        <ele>2279.262</ele>
        <time>2018-09-22T07:37:06Z</time>
      </trkpt>
      <trkpt lat="42.290192" lon="1.742680">
        <ele>2278.164</ele>
        <time>2018-09-22T07:37:08Z</time>
      </trkpt>
      <trkpt lat="42.290179" lon="1.742732">
        <ele>2276.696</ele>
        <time>2018-09-22T07:37:11Z</time>
      </trkpt>
      <trkpt lat="42.290170" lon="1.742771">
        <ele>2275.564</ele>
        <time>2018-09-22T07:37:13Z</time>
      </trkpt>
      <trkpt lat="42.290168" lon="1.742790">
        <ele>2275.006</ele>
        <time>2018-09-22T07:37:14Z</time>
      </trkpt>
      <trkpt lat="42.290165" lon="1.742809">
        <ele>2274.516</ele>
        <time>2018-09-22T07:37:15Z</time>
      </trkpt>
      <trkpt lat="42.290163" lon="1.742825">
        <ele>2274.108</ele>
        <time>2018-09-22T07:37:16Z</time>
      </trkpt>
      <trkpt lat="42.290163" lon="1.742842">
        <ele>2273.838</ele>
        <time>2018-09-22T07:37:17Z</time>
      </trkpt>
      <trkpt lat="42.290186" lon="1.742945">
        <ele>2272.654</ele>
        <time>2018-09-22T07:37:22Z</time>
      </trkpt>
      <trkpt lat="42.290193" lon="1.742957">
        <ele>2272.645</ele>
        <time>2018-09-22T07:37:23Z</time>
      </trkpt>
      <trkpt lat="42.290236" lon="1.743035">
        <ele>2272.239</ele>
        <time>2018-09-22T07:37:28Z</time>
      </trkpt>
      <trkpt lat="42.290296" lon="1.743138">
        <ele>2271.235</ele>
        <time>2018-09-22T07:37:36Z</time>
      </trkpt>
      <trkpt lat="42.290313" lon="1.743179">
        <ele>2270.355</ele>
        <time>2018-09-22T07:37:39Z</time>
      </trkpt>
      <trkpt lat="42.290331" lon="1.743223">
        <ele>2269.567</ele>
        <time>2018-09-22T07:37:42Z</time>
      </trkpt>
      <trkpt lat="42.290336" lon="1.743240">
        <ele>2269.149</ele>
        <time>2018-09-22T07:37:43Z</time>
      </trkpt>
      <trkpt lat="42.290372" lon="1.743309">
        <ele>2267.699</ele>
        <time>2018-09-22T07:37:48Z</time>
      </trkpt>
      <trkpt lat="42.290395" lon="1.743351">
        <ele>2266.907</ele>
        <time>2018-09-22T07:37:51Z</time>
      </trkpt>
      <trkpt lat="42.290410" lon="1.743372">
        <ele>2266.627</ele>
        <time>2018-09-22T07:37:53Z</time>
      </trkpt>
      <trkpt lat="42.290421" lon="1.743401">
        <ele>2266.208</ele>
        <time>2018-09-22T07:37:55Z</time>
      </trkpt>
      <trkpt lat="42.290437" lon="1.743447">
        <ele>2265.591</ele>
        <time>2018-09-22T07:37:58Z</time>
      </trkpt>
      <trkpt lat="42.290455" lon="1.743468">
        <ele>2265.367</ele>
        <time>2018-09-22T07:38:00Z</time>
      </trkpt>
      <trkpt lat="42.290481" lon="1.743498">
        <ele>2265.058</ele>
        <time>2018-09-22T07:38:02Z</time>
      </trkpt>
      <trkpt lat="42.290490" lon="1.743556">
        <ele>2264.072</ele>
        <time>2018-09-22T07:38:05Z</time>
      </trkpt>
      <trkpt lat="42.290496" lon="1.743574">
        <ele>2263.828</ele>
        <time>2018-09-22T07:38:06Z</time>
      </trkpt>
      <trkpt lat="42.290556" lon="1.743729">
        <ele>2262.388</ele>
        <time>2018-09-22T07:38:15Z</time>
      </trkpt>
      <trkpt lat="42.290578" lon="1.743800">
        <ele>2261.870</ele>
        <time>2018-09-22T07:38:19Z</time>
      </trkpt>
      <trkpt lat="42.290613" lon="1.743949">
        <ele>2260.572</ele>
        <time>2018-09-22T07:38:27Z</time>
      </trkpt>
      <trkpt lat="42.290624" lon="1.744008">
        <ele>2259.944</ele>
        <time>2018-09-22T07:38:30Z</time>
      </trkpt>
      <trkpt lat="42.290621" lon="1.744094">
        <ele>2258.505</ele>
        <time>2018-09-22T07:38:35Z</time>
      </trkpt>
      <trkpt lat="42.290586" lon="1.744188">
        <ele>2256.415</ele>
        <time>2018-09-22T07:38:41Z</time>
      </trkpt>
      <trkpt lat="42.290566" lon="1.744263">
        <ele>2255.108</ele>
        <time>2018-09-22T07:38:45Z</time>
      </trkpt>
      <trkpt lat="42.290553" lon="1.744299">
        <ele>2254.546</ele>
        <time>2018-09-22T07:38:47Z</time>
      </trkpt>
      <trkpt lat="42.290543" lon="1.744368">
        <ele>2253.672</ele>
        <time>2018-09-22T07:38:51Z</time>
      </trkpt>
      <trkpt lat="42.290530" lon="1.744440">
        <ele>2252.533</ele>
        <time>2018-09-22T07:38:55Z</time>
      </trkpt>
      <trkpt lat="42.290526" lon="1.744544">
        <ele>2250.987</ele>
        <time>2018-09-22T07:39:00Z</time>
      </trkpt>
      <trkpt lat="42.290535" lon="1.744608">
        <ele>2250.223</ele>
        <time>2018-09-22T07:39:03Z</time>
      </trkpt>
      <trkpt lat="42.290543" lon="1.744642">
        <ele>2249.883</ele>
        <time>2018-09-22T07:39:05Z</time>
      </trkpt>
      <trkpt lat="42.290547" lon="1.744681">
        <ele>2249.445</ele>
        <time>2018-09-22T07:39:07Z</time>
      </trkpt>
      <trkpt lat="42.290549" lon="1.744718">
        <ele>2248.997</ele>
        <time>2018-09-22T07:39:09Z</time>
      </trkpt>
      <trkpt lat="42.290548" lon="1.744738">
        <ele>2248.672</ele>
        <time>2018-09-22T07:39:10Z</time>
      </trkpt>
      <trkpt lat="42.290547" lon="1.744773">
        <ele>2248.213</ele>
        <time>2018-09-22T07:39:12Z</time>
      </trkpt>
      <trkpt lat="42.290569" lon="1.744844">
        <ele>2247.714</ele>
        <time>2018-09-22T07:39:16Z</time>
      </trkpt>
      <trkpt lat="42.290572" lon="1.744859">
        <ele>2247.508</ele>
        <time>2018-09-22T07:39:17Z</time>
      </trkpt>
      <trkpt lat="42.290581" lon="1.744876">
        <ele>2247.429</ele>
        <time>2018-09-22T07:39:18Z</time>
      </trkpt>
      <trkpt lat="42.290645" lon="1.744987">
        <ele>2246.175</ele>
        <time>2018-09-22T07:39:23Z</time>
      </trkpt>
      <trkpt lat="42.290679" lon="1.745058">
        <ele>2245.576</ele>
        <time>2018-09-22T07:39:28Z</time>
      </trkpt>
      <trkpt lat="42.290690" lon="1.745090">
        <ele>2245.290</ele>
        <time>2018-09-22T07:39:30Z</time>
      </trkpt>
      <trkpt lat="42.290707" lon="1.745121">
        <ele>2244.836</ele>
        <time>2018-09-22T07:39:32Z</time>
      </trkpt>
      <trkpt lat="42.290719" lon="1.745137">
        <ele>2244.566</ele>
        <time>2018-09-22T07:39:33Z</time>
      </trkpt>
      <trkpt lat="42.290740" lon="1.745203">
        <ele>2243.598</ele>
        <time>2018-09-22T07:39:37Z</time>
      </trkpt>
      <trkpt lat="42.290738" lon="1.745220">
        <ele>2243.360</ele>
        <time>2018-09-22T07:39:38Z</time>
      </trkpt>
      <trkpt lat="42.290738" lon="1.745238">
        <ele>2243.154</ele>
        <time>2018-09-22T07:39:39Z</time>
      </trkpt>
      <trkpt lat="42.290731" lon="1.745328">
        <ele>2242.356</ele>
        <time>2018-09-22T07:39:44Z</time>
      </trkpt>
      <trkpt lat="42.290730" lon="1.745342">
        <ele>2242.211</ele>
        <time>2018-09-22T07:39:45Z</time>
      </trkpt>
      <trkpt lat="42.290763" lon="1.745399">
        <ele>2240.908</ele>
        <time>2018-09-22T07:39:48Z</time>
      </trkpt>
      <trkpt lat="42.290792" lon="1.745444">
        <ele>2239.617</ele>
        <time>2018-09-22T07:39:51Z</time>
      </trkpt>
      <trkpt lat="42.290804" lon="1.745455">
        <ele>2239.233</ele>
        <time>2018-09-22T07:39:52Z</time>
      </trkpt>
      <trkpt lat="42.290826" lon="1.745476">
        <ele>2238.364</ele>
        <time>2018-09-22T07:39:54Z</time>
      </trkpt>
      <trkpt lat="42.290830" lon="1.745481">
        <ele>2238.138</ele>
        <time>2018-09-22T07:39:55Z</time>
      </trkpt>
      <trkpt lat="42.290841" lon="1.745487">
        <ele>2237.994</ele>
        <time>2018-09-22T07:39:58Z</time>
      </trkpt>
      <trkpt lat="42.290857" lon="1.745529">
        <ele>2237.394</ele>
        <time>2018-09-22T07:40:02Z</time>
      </trkpt>
      <trkpt lat="42.290865" lon="1.745557">
        <ele>2236.846</ele>
        <time>2018-09-22T07:40:04Z</time>
      </trkpt>
      <trkpt lat="42.290892" lon="1.745628">
        <ele>2234.188</ele>
        <time>2018-09-22T07:40:07Z</time>
      </trkpt>
      <trkpt lat="42.290895" lon="1.745650">
        <ele>2233.325</ele>
        <time>2018-09-22T07:40:08Z</time>
      </trkpt>
      <trkpt lat="42.290893" lon="1.745678">
        <ele>2232.326</ele>
        <time>2018-09-22T07:40:10Z</time>
      </trkpt>
      <trkpt lat="42.290893" lon="1.745689">
        <ele>2232.008</ele>
        <time>2018-09-22T07:40:11Z</time>
      </trkpt>
      <trkpt lat="42.290895" lon="1.745697">
        <ele>2231.608</ele>
        <time>2018-09-22T07:40:12Z</time>
      </trkpt>
      <trkpt lat="42.290909" lon="1.745703">
        <ele>2230.934</ele>
        <time>2018-09-22T07:40:14Z</time>
      </trkpt>
      <trkpt lat="42.290922" lon="1.745706">
        <ele>2230.470</ele>
        <time>2018-09-22T07:40:15Z</time>
      </trkpt>
      <trkpt lat="42.290944" lon="1.745715">
        <ele>2229.441</ele>
        <time>2018-09-22T07:40:17Z</time>
      </trkpt>
      <trkpt lat="42.290947" lon="1.745737">
        <ele>2228.235</ele>
        <time>2018-09-22T07:40:20Z</time>
      </trkpt>
      <trkpt lat="42.290939" lon="1.745740">
        <ele>2228.451</ele>
        <time>2018-09-22T07:40:21Z</time>
      </trkpt>
      <trkpt lat="42.290930" lon="1.745741">
        <ele>2228.771</ele>
        <time>2018-09-22T07:40:22Z</time>
      </trkpt>
      <trkpt lat="42.290909" lon="1.745760">
        <ele>2228.763</ele>
        <time>2018-09-22T07:40:24Z</time>
      </trkpt>
      <trkpt lat="42.290890" lon="1.745775">
        <ele>2229.045</ele>
        <time>2018-09-22T07:40:26Z</time>
      </trkpt>
      <trkpt lat="42.290869" lon="1.745806">
        <ele>2228.985</ele>
        <time>2018-09-22T07:40:29Z</time>
      </trkpt>
      <trkpt lat="42.290862" lon="1.745835">
        <ele>2228.389</ele>
        <time>2018-09-22T07:40:31Z</time>
      </trkpt>
      <trkpt lat="42.290852" lon="1.745868">
        <ele>2227.717</ele>
        <time>2018-09-22T07:40:33Z</time>
      </trkpt>
      <trkpt lat="42.290843" lon="1.745897">
        <ele>2227.208</ele>
        <time>2018-09-22T07:40:35Z</time>
      </trkpt>
      <trkpt lat="42.290836" lon="1.745910">
        <ele>2227.190</ele>
        <time>2018-09-22T07:40:36Z</time>
      </trkpt>
      <trkpt lat="42.290816" lon="1.745946">
        <ele>2226.856</ele>
        <time>2018-09-22T07:40:39Z</time>
      </trkpt>
      <trkpt lat="42.290802" lon="1.745970">
        <ele>2226.867</ele>
        <time>2018-09-22T07:40:41Z</time>
      </trkpt>
      <trkpt lat="42.290787" lon="1.745998">
        <ele>2226.841</ele>
        <time>2018-09-22T07:40:44Z</time>
      </trkpt>
      <trkpt lat="42.290794" lon="1.746013">
        <ele>2225.877</ele>
        <time>2018-09-22T07:40:47Z</time>
      </trkpt>
      <trkpt lat="42.290798" lon="1.746048">
        <ele>2224.557</ele>
        <time>2018-09-22T07:40:50Z</time>
      </trkpt>
      <trkpt lat="42.290800" lon="1.746057">
        <ele>2224.049</ele>
        <time>2018-09-22T07:40:51Z</time>
      </trkpt>
      <trkpt lat="42.290797" lon="1.746081">
        <ele>2223.461</ele>
        <time>2018-09-22T07:40:55Z</time>
      </trkpt>
      <trkpt lat="42.290788" lon="1.746101">
        <ele>2223.437</ele>
        <time>2018-09-22T07:40:57Z</time>
      </trkpt>
      <trkpt lat="42.290782" lon="1.746114">
        <ele>2223.449</ele>
        <time>2018-09-22T07:40:58Z</time>
      </trkpt>
      <trkpt lat="42.290787" lon="1.746194">
        <ele>2221.313</ele>
        <time>2018-09-22T07:41:03Z</time>
      </trkpt>
      <trkpt lat="42.290792" lon="1.746215">
        <ele>2220.408</ele>
        <time>2018-09-22T07:41:04Z</time>
      </trkpt>
      <trkpt lat="42.290799" lon="1.746270">
        <ele>2218.825</ele>
        <time>2018-09-22T07:41:07Z</time>
      </trkpt>
      <trkpt lat="42.290803" lon="1.746302">
        <ele>2217.971</ele>
        <time>2018-09-22T07:41:09Z</time>
      </trkpt>
      <trkpt lat="42.290809" lon="1.746330">
        <ele>2216.872</ele>
        <time>2018-09-22T07:41:11Z</time>
      </trkpt>
      <trkpt lat="42.290807" lon="1.746375">
        <ele>2215.936</ele>
        <time>2018-09-22T07:41:14Z</time>
      </trkpt>
      <trkpt lat="42.290806" lon="1.746388">
        <ele>2215.872</ele>
        <time>2018-09-22T07:41:15Z</time>
      </trkpt>
      <trkpt lat="42.290808" lon="1.746401">
        <ele>2215.582</ele>
        <time>2018-09-22T07:41:16Z</time>
      </trkpt>
      <trkpt lat="42.290810" lon="1.746418">
        <ele>2215.294</ele>
        <time>2018-09-22T07:41:17Z</time>
      </trkpt>
      <trkpt lat="42.290808" lon="1.746431">
        <ele>2215.276</ele>
        <time>2018-09-22T07:41:18Z</time>
      </trkpt>
      <trkpt lat="42.290806" lon="1.746440">
        <ele>2215.265</ele>
        <time>2018-09-22T07:41:19Z</time>
      </trkpt>
      <trkpt lat="42.290801" lon="1.746445">
        <ele>2215.568</ele>
        <time>2018-09-22T07:41:20Z</time>
      </trkpt>
      <trkpt lat="42.290759" lon="1.746435">
        <ele>2218.514</ele>
        <time>2018-09-22T07:41:51Z</time>
      </trkpt>
      <trkpt lat="42.290758" lon="1.746430">
        <ele>2218.508</ele>
        <time>2018-09-22T07:41:57Z</time>
      </trkpt>
      <trkpt lat="42.290754" lon="1.746418">
        <ele>2218.988</ele>
        <time>2018-09-22T07:42:07Z</time>
      </trkpt>
      <trkpt lat="42.290763" lon="1.746430">
        <ele>2218.244</ele>
        <time>2018-09-22T07:42:15Z</time>
      </trkpt>
      <trkpt lat="42.290784" lon="1.746432">
        <ele>2216.835</ele>
        <time>2018-09-22T07:42:18Z</time>
      </trkpt>
      <trkpt lat="42.290808" lon="1.746414">
        <ele>2215.499</ele>
        <time>2018-09-22T07:42:21Z</time>
      </trkpt>
      <trkpt lat="42.290819" lon="1.746404">
        <ele>2214.795</ele>
        <time>2018-09-22T07:42:22Z</time>
      </trkpt>
      <trkpt lat="42.290866" lon="1.746372">
        <ele>2212.685</ele>
        <time>2018-09-22T07:42:25Z</time>
      </trkpt>
      <trkpt lat="42.290898" lon="1.746354">
        <ele>2211.397</ele>
        <time>2018-09-22T07:42:27Z</time>
      </trkpt>
      <trkpt lat="42.290921" lon="1.746325">
        <ele>2210.779</ele>
        <time>2018-09-22T07:42:29Z</time>
      </trkpt>
      <trkpt lat="42.290933" lon="1.746306">
        <ele>2210.573</ele>
        <time>2018-09-22T07:42:30Z</time>
      </trkpt>
      <trkpt lat="42.290981" lon="1.746227">
        <ele>2209.885</ele>
        <time>2018-09-22T07:42:34Z</time>
      </trkpt>
      <trkpt lat="42.291030" lon="1.746152">
        <ele>2209.013</ele>
        <time>2018-09-22T07:42:38Z</time>
      </trkpt>
      <trkpt lat="42.291062" lon="1.746129">
        <ele>2208.008</ele>
        <time>2018-09-22T07:42:40Z</time>
      </trkpt>
      <trkpt lat="42.291095" lon="1.746113">
        <ele>2206.779</ele>
        <time>2018-09-22T07:42:42Z</time>
      </trkpt>
      <trkpt lat="42.291127" lon="1.746090">
        <ele>2206.065</ele>
        <time>2018-09-22T07:42:44Z</time>
      </trkpt>
      <trkpt lat="42.291169" lon="1.746055">
        <ele>2205.686</ele>
        <time>2018-09-22T07:42:47Z</time>
      </trkpt>
      <trkpt lat="42.291183" lon="1.746044">
        <ele>2205.540</ele>
        <time>2018-09-22T07:42:48Z</time>
      </trkpt>
      <trkpt lat="42.291217" lon="1.746016">
        <ele>2205.266</ele>
        <time>2018-09-22T07:42:50Z</time>
      </trkpt>
      <trkpt lat="42.291256" lon="1.745966">
        <ele>2205.726</ele>
        <time>2018-09-22T07:42:53Z</time>
      </trkpt>
      <trkpt lat="42.291294" lon="1.745922">
        <ele>2206.248</ele>
        <time>2018-09-22T07:42:56Z</time>
      </trkpt>
      <trkpt lat="42.291306" lon="1.745909">
        <ele>2206.330</ele>
        <time>2018-09-22T07:42:57Z</time>
      </trkpt>
      <trkpt lat="42.291319" lon="1.745905">
        <ele>2206.163</ele>
        <time>2018-09-22T07:42:58Z</time>
      </trkpt>
      <trkpt lat="42.291374" lon="1.745922">
        <ele>2203.644</ele>
        <time>2018-09-22T07:43:02Z</time>
      </trkpt>
      <trkpt lat="42.291429" lon="1.745937">
        <ele>2202.318</ele>
        <time>2018-09-22T07:43:05Z</time>
      </trkpt>
      <trkpt lat="42.291467" lon="1.745945">
        <ele>2201.708</ele>
        <time>2018-09-22T07:43:07Z</time>
      </trkpt>
      <trkpt lat="42.291505" lon="1.745946">
        <ele>2201.568</ele>
        <time>2018-09-22T07:43:09Z</time>
      </trkpt>
      <trkpt lat="42.291521" lon="1.745951">
        <ele>2201.264</ele>
        <time>2018-09-22T07:43:10Z</time>
      </trkpt>
      <trkpt lat="42.291575" lon="1.745981">
        <ele>2199.595</ele>
        <time>2018-09-22T07:43:13Z</time>
      </trkpt>
      <trkpt lat="42.291635" lon="1.746010">
        <ele>2197.949</ele>
        <time>2018-09-22T07:43:16Z</time>
      </trkpt>
      <trkpt lat="42.291670" lon="1.746039">
        <ele>2196.415</ele>
        <time>2018-09-22T07:43:18Z</time>
      </trkpt>
      <trkpt lat="42.291682" lon="1.746058">
        <ele>2195.675</ele>
        <time>2018-09-22T07:43:19Z</time>
      </trkpt>
      <trkpt lat="42.291694" lon="1.746082">
        <ele>2194.737</ele>
        <time>2018-09-22T07:43:20Z</time>
      </trkpt>
      <trkpt lat="42.291720" lon="1.746132">
        <ele>2192.729</ele>
        <time>2018-09-22T07:43:22Z</time>
      </trkpt>
      <trkpt lat="42.291743" lon="1.746176">
        <ele>2190.844</ele>
        <time>2018-09-22T07:43:24Z</time>
      </trkpt>
      <trkpt lat="42.291779" lon="1.746243">
        <ele>2188.105</ele>
        <time>2018-09-22T07:43:27Z</time>
      </trkpt>
      <trkpt lat="42.291803" lon="1.746291">
        <ele>2186.215</ele>
        <time>2018-09-22T07:43:29Z</time>
      </trkpt>
      <trkpt lat="42.291825" lon="1.746330">
        <ele>2184.708</ele>
        <time>2018-09-22T07:43:31Z</time>
      </trkpt>
      <trkpt lat="42.291835" lon="1.746351">
        <ele>2183.846</ele>
        <time>2018-09-22T07:43:32Z</time>
      </trkpt>
      <trkpt lat="42.291841" lon="1.746369">
        <ele>2183.092</ele>
        <time>2018-09-22T07:43:33Z</time>
      </trkpt>
      <trkpt lat="42.291857" lon="1.746403">
        <ele>2181.873</ele>
        <time>2018-09-22T07:43:35Z</time>
      </trkpt>
      <trkpt lat="42.291862" lon="1.746447">
        <ele>2180.097</ele>
        <time>2018-09-22T07:43:37Z</time>
      </trkpt>
      <trkpt lat="42.291862" lon="1.746484">
        <ele>2178.573</ele>
        <time>2018-09-22T07:43:39Z</time>
      </trkpt>
      <trkpt lat="42.291866" lon="1.746503">
        <ele>2177.713</ele>
        <time>2018-09-22T07:43:40Z</time>
      </trkpt>
      <trkpt lat="42.291875" lon="1.746524">
        <ele>2177.045</ele>
        <time>2018-09-22T07:43:41Z</time>
      </trkpt>
      <trkpt lat="42.291883" lon="1.746564">
        <ele>2175.427</ele>
        <time>2018-09-22T07:43:43Z</time>
      </trkpt>
      <trkpt lat="42.291897" lon="1.746604">
        <ele>2173.912</ele>
        <time>2018-09-22T07:43:45Z</time>
      </trkpt>
      <trkpt lat="42.291913" lon="1.746640">
        <ele>2172.632</ele>
        <time>2018-09-22T07:43:47Z</time>
      </trkpt>
      <trkpt lat="42.291928" lon="1.746681">
        <ele>2171.005</ele>
        <time>2018-09-22T07:43:49Z</time>
      </trkpt>
      <trkpt lat="42.291937" lon="1.746703">
        <ele>2170.008</ele>
        <time>2018-09-22T07:43:50Z</time>
      </trkpt>
      <trkpt lat="42.291947" lon="1.746727">
        <ele>2168.953</ele>
        <time>2018-09-22T07:43:51Z</time>
      </trkpt>
      <trkpt lat="42.291952" lon="1.746750">
        <ele>2167.939</ele>
        <time>2018-09-22T07:43:52Z</time>
      </trkpt>
      <trkpt lat="42.291978" lon="1.746790">
        <ele>2166.420</ele>
        <time>2018-09-22T07:43:54Z</time>
      </trkpt>
      <trkpt lat="42.292001" lon="1.746818">
        <ele>2165.334</ele>
        <time>2018-09-22T07:43:56Z</time>
      </trkpt>
      <trkpt lat="42.292027" lon="1.746846">
        <ele>2164.320</ele>
        <time>2018-09-22T07:43:58Z</time>
      </trkpt>
      <trkpt lat="42.292038" lon="1.746859">
        <ele>2163.840</ele>
        <time>2018-09-22T07:43:59Z</time>
      </trkpt>
      <trkpt lat="42.292047" lon="1.746872">
        <ele>2163.332</ele>
        <time>2018-09-22T07:44:00Z</time>
      </trkpt>
      <trkpt lat="42.292087" lon="1.746910">
        <ele>2161.854</ele>
        <time>2018-09-22T07:44:03Z</time>
      </trkpt>
      <trkpt lat="42.292099" lon="1.746954">
        <ele>2159.766</ele>
        <time>2018-09-22T07:44:05Z</time>
      </trkpt>
      <trkpt lat="42.292124" lon="1.746991">
        <ele>2158.329</ele>
        <time>2018-09-22T07:44:07Z</time>
      </trkpt>
      <trkpt lat="42.292133" lon="1.747009">
        <ele>2157.621</ele>
        <time>2018-09-22T07:44:08Z</time>
      </trkpt>
      <trkpt lat="42.292138" lon="1.747028">
        <ele>2156.808</ele>
        <time>2018-09-22T07:44:09Z</time>
      </trkpt>
      <trkpt lat="42.292160" lon="1.747070">
        <ele>2155.268</ele>
        <time>2018-09-22T07:44:11Z</time>
      </trkpt>
      <trkpt lat="42.292181" lon="1.747102">
        <ele>2154.014</ele>
        <time>2018-09-22T07:44:13Z</time>
      </trkpt>
      <trkpt lat="42.292205" lon="1.747133">
        <ele>2152.995</ele>
        <time>2018-09-22T07:44:15Z</time>
      </trkpt>
      <trkpt lat="42.292230" lon="1.747173">
        <ele>2151.479</ele>
        <time>2018-09-22T07:44:17Z</time>
      </trkpt>
      <trkpt lat="42.292255" lon="1.747227">
        <ele>2149.345</ele>
        <time>2018-09-22T07:44:20Z</time>
      </trkpt>
      <trkpt lat="42.292259" lon="1.747241">
        <ele>2148.745</ele>
        <time>2018-09-22T07:44:21Z</time>
      </trkpt>
      <trkpt lat="42.292260" lon="1.747255">
        <ele>2148.117</ele>
        <time>2018-09-22T07:44:22Z</time>
      </trkpt>
      <trkpt lat="42.292265" lon="1.747273">
        <ele>2147.359</ele>
        <time>2018-09-22T07:44:23Z</time>
      </trkpt>
      <trkpt lat="42.292276" lon="1.747291">
        <ele>2146.679</ele>
        <time>2018-09-22T07:44:24Z</time>
      </trkpt>
      <trkpt lat="42.292300" lon="1.747324">
        <ele>2145.505</ele>
        <time>2018-09-22T07:44:26Z</time>
      </trkpt>
      <trkpt lat="42.292322" lon="1.747350">
        <ele>2144.625</ele>
        <time>2018-09-22T07:44:28Z</time>
      </trkpt>
      <trkpt lat="42.292308" lon="1.747383">
        <ele>2142.808</ele>
        <time>2018-09-22T07:44:30Z</time>
      </trkpt>
      <trkpt lat="42.292308" lon="1.747403">
        <ele>2141.919</ele>
        <time>2018-09-22T07:44:31Z</time>
      </trkpt>
      <trkpt lat="42.292317" lon="1.747428">
        <ele>2140.825</ele>
        <time>2018-09-22T07:44:32Z</time>
      </trkpt>
      <trkpt lat="42.292346" lon="1.747464">
        <ele>2139.566</ele>
        <time>2018-09-22T07:44:34Z</time>
      </trkpt>
      <trkpt lat="42.292394" lon="1.747521">
        <ele>2137.570</ele>
        <time>2018-09-22T07:44:37Z</time>
      </trkpt>
      <trkpt lat="42.292416" lon="1.747553">
        <ele>2136.346</ele>
        <time>2018-09-22T07:44:39Z</time>
      </trkpt>
      <trkpt lat="42.292438" lon="1.747583">
        <ele>2135.266</ele>
        <time>2018-09-22T07:44:41Z</time>
      </trkpt>
      <trkpt lat="42.292458" lon="1.747597">
        <ele>2134.928</ele>
        <time>2018-09-22T07:44:42Z</time>
      </trkpt>
      <trkpt lat="42.292498" lon="1.747601">
        <ele>2135.230</ele>
        <time>2018-09-22T07:44:44Z</time>
      </trkpt>
      <trkpt lat="42.292523" lon="1.747634">
        <ele>2133.968</ele>
        <time>2018-09-22T07:44:46Z</time>
      </trkpt>
      <trkpt lat="42.292529" lon="1.747657">
        <ele>2132.942</ele>
        <time>2018-09-22T07:44:47Z</time>
      </trkpt>
      <trkpt lat="42.292545" lon="1.747694">
        <ele>2131.426</ele>
        <time>2018-09-22T07:44:49Z</time>
      </trkpt>
      <trkpt lat="42.292567" lon="1.747734">
        <ele>2129.708</ele>
        <time>2018-09-22T07:44:51Z</time>
      </trkpt>
      <trkpt lat="42.292588" lon="1.747770">
        <ele>2128.338</ele>
        <time>2018-09-22T07:44:53Z</time>
      </trkpt>
      <trkpt lat="42.292613" lon="1.747803">
        <ele>2127.114</ele>
        <time>2018-09-22T07:44:55Z</time>
      </trkpt>
      <trkpt lat="42.292627" lon="1.747811">
        <ele>2126.995</ele>
        <time>2018-09-22T07:44:56Z</time>
      </trkpt>
      <trkpt lat="42.292645" lon="1.747821">
        <ele>2126.619</ele>
        <time>2018-09-22T07:44:57Z</time>
      </trkpt>
      <trkpt lat="42.292671" lon="1.747842">
        <ele>2126.055</ele>
        <time>2018-09-22T07:44:59Z</time>
      </trkpt>
      <trkpt lat="42.292699" lon="1.747870">
        <ele>2125.155</ele>
        <time>2018-09-22T07:45:01Z</time>
      </trkpt>
      <trkpt lat="42.292751" lon="1.747928">
        <ele>2123.247</ele>
        <time>2018-09-22T07:45:04Z</time>
      </trkpt>
      <trkpt lat="42.292810" lon="1.747974">
        <ele>2121.969</ele>
        <time>2018-09-22T07:45:07Z</time>
      </trkpt>
      <trkpt lat="42.292916" lon="1.748034">
        <ele>2120.878</ele>
        <time>2018-09-22T07:45:11Z</time>
      </trkpt>
      <trkpt lat="42.293076" lon="1.748170">
        <ele>2117.633</ele>
        <time>2018-09-22T07:45:19Z</time>
      </trkpt>
      <trkpt lat="42.293094" lon="1.748185">
        <ele>2116.626</ele>
        <time>2018-09-22T07:45:20Z</time>
      </trkpt>
      <trkpt lat="42.293162" lon="1.748188">
        <ele>2114.408</ele>
        <time>2018-09-22T07:45:23Z</time>
      </trkpt>
      <trkpt lat="42.293234" lon="1.748163">
        <ele>2112.839</ele>
        <time>2018-09-22T07:45:26Z</time>
      </trkpt>
      <trkpt lat="42.293333" lon="1.747994">
        <ele>2113.575</ele>
        <time>2018-09-22T07:45:33Z</time>
      </trkpt>
      <trkpt lat="42.293429" lon="1.747766">
        <ele>2113.486</ele>
        <time>2018-09-22T07:45:41Z</time>
      </trkpt>
      <trkpt lat="42.293510" lon="1.747526">
        <ele>2113.990</ele>
        <time>2018-09-22T07:45:50Z</time>
      </trkpt>
      <trkpt lat="42.293546" lon="1.747411">
        <ele>2114.226</ele>
        <time>2018-09-22T07:45:54Z</time>
      </trkpt>
      <trkpt lat="42.293635" lon="1.747177">
        <ele>2112.976</ele>
        <time>2018-09-22T07:46:02Z</time>
      </trkpt>
      <trkpt lat="42.293644" lon="1.747070">
        <ele>2114.258</ele>
        <time>2018-09-22T07:46:05Z</time>
      </trkpt>
      <trkpt lat="42.293701" lon="1.746886">
        <ele>2116.150</ele>
        <time>2018-09-22T07:46:11Z</time>
      </trkpt>
      <trkpt lat="42.293840" lon="1.746711">
        <ele>2116.575</ele>
        <time>2018-09-22T07:46:19Z</time>
      </trkpt>
      <trkpt lat="42.293991" lon="1.746573">
        <ele>2114.828</ele>
        <time>2018-09-22T07:46:27Z</time>
      </trkpt>
      <trkpt lat="42.294070" lon="1.746402">
        <ele>2114.620</ele>
        <time>2018-09-22T07:46:35Z</time>
      </trkpt>
      <trkpt lat="42.294062" lon="1.746350">
        <ele>2115.308</ele>
        <time>2018-09-22T07:46:38Z</time>
      </trkpt>
      <trkpt lat="42.294062" lon="1.746320">
        <ele>2115.339</ele>
        <time>2018-09-22T07:46:40Z</time>
      </trkpt>
      <trkpt lat="42.294070" lon="1.746304">
        <ele>2114.875</ele>
        <time>2018-09-22T07:46:41Z</time>
      </trkpt>
      <trkpt lat="42.294068" lon="1.746262">
        <ele>2114.986</ele>
        <time>2018-09-22T07:46:43Z</time>
      </trkpt>
      <trkpt lat="42.294066" lon="1.746242">
        <ele>2115.050</ele>
        <time>2018-09-22T07:46:44Z</time>
      </trkpt>
      <trkpt lat="42.294062" lon="1.746206">
        <ele>2115.276</ele>
        <time>2018-09-22T07:46:46Z</time>
      </trkpt>
      <trkpt lat="42.294090" lon="1.746002">
        <ele>2114.626</ele>
        <time>2018-09-22T07:46:59Z</time>
      </trkpt>
      <trkpt lat="42.294101" lon="1.745970">
        <ele>2114.288</ele>
        <time>2018-09-22T07:47:01Z</time>
      </trkpt>
      <trkpt lat="42.294118" lon="1.745904">
        <ele>2113.830</ele>
        <time>2018-09-22T07:47:04Z</time>
      </trkpt>
      <trkpt lat="42.294115" lon="1.745854">
        <ele>2114.637</ele>
        <time>2018-09-22T07:47:06Z</time>
      </trkpt>
      <trkpt lat="42.294109" lon="1.745831">
        <ele>2115.449</ele>
        <time>2018-09-22T07:47:07Z</time>
      </trkpt>
      <trkpt lat="42.294102" lon="1.745803">
        <ele>2116.913</ele>
        <time>2018-09-22T07:47:09Z</time>
      </trkpt>
      <trkpt lat="42.294104" lon="1.745772">
        <ele>2117.808</ele>
        <time>2018-09-22T07:47:11Z</time>
      </trkpt>
      <trkpt lat="42.294106" lon="1.745729">
        <ele>2119.195</ele>
        <time>2018-09-22T07:47:13Z</time>
      </trkpt>
      <trkpt lat="42.294105" lon="1.745651">
        <ele>2122.041</ele>
        <time>2018-09-22T07:47:17Z</time>
      </trkpt>
      <trkpt lat="42.294108" lon="1.745614">
        <ele>2123.092</ele>
        <time>2018-09-22T07:47:19Z</time>
      </trkpt>
      <trkpt lat="42.294110" lon="1.745593">
        <ele>2123.696</ele>
        <time>2018-09-22T07:47:20Z</time>
      </trkpt>
      <trkpt lat="42.294116" lon="1.745578">
        <ele>2123.672</ele>
        <time>2018-09-22T07:47:21Z</time>
      </trkpt>
      <trkpt lat="42.294136" lon="1.745532">
        <ele>2123.892</ele>
        <time>2018-09-22T07:47:24Z</time>
      </trkpt>
      <trkpt lat="42.294149" lon="1.745484">
        <ele>2125.164</ele>
        <time>2018-09-22T07:47:27Z</time>
      </trkpt>
      <trkpt lat="42.294152" lon="1.745465">
        <ele>2125.846</ele>
        <time>2018-09-22T07:47:28Z</time>
      </trkpt>
      <trkpt lat="42.294178" lon="1.745412">
        <ele>2126.362</ele>
        <time>2018-09-22T07:47:32Z</time>
      </trkpt>
      <trkpt lat="42.294189" lon="1.745387">
        <ele>2126.883</ele>
        <time>2018-09-22T07:47:34Z</time>
      </trkpt>
      <trkpt lat="42.294197" lon="1.745378">
        <ele>2126.611</ele>
        <time>2018-09-22T07:47:35Z</time>
      </trkpt>
      <trkpt lat="42.294207" lon="1.745370">
        <ele>2126.308</ele>
        <time>2018-09-22T07:47:36Z</time>
      </trkpt>
      <trkpt lat="42.294218" lon="1.745361">
        <ele>2125.928</ele>
        <time>2018-09-22T07:47:37Z</time>
      </trkpt>
      <trkpt lat="42.294235" lon="1.745340">
        <ele>2125.724</ele>
        <time>2018-09-22T07:47:39Z</time>
      </trkpt>
      <trkpt lat="42.294239" lon="1.745330">
        <ele>2125.945</ele>
        <time>2018-09-22T07:47:40Z</time>
      </trkpt>
      <trkpt lat="42.294242" lon="1.745321">
        <ele>2126.189</ele>
        <time>2018-09-22T07:47:41Z</time>
      </trkpt>
      <trkpt lat="42.294248" lon="1.745305">
        <ele>2126.595</ele>
        <time>2018-09-22T07:47:43Z</time>
      </trkpt>
      <trkpt lat="42.294260" lon="1.745273">
        <ele>2127.245</ele>
        <time>2018-09-22T07:47:46Z</time>
      </trkpt>
      <trkpt lat="42.294272" lon="1.745248">
        <ele>2127.657</ele>
        <time>2018-09-22T07:47:48Z</time>
      </trkpt>
      <trkpt lat="42.294281" lon="1.745224">
        <ele>2128.229</ele>
        <time>2018-09-22T07:47:50Z</time>
      </trkpt>
      <trkpt lat="42.294288" lon="1.745213">
        <ele>2128.373</ele>
        <time>2018-09-22T07:47:51Z</time>
      </trkpt>
      <trkpt lat="42.294296" lon="1.745203">
        <ele>2128.385</ele>
        <time>2018-09-22T07:47:52Z</time>
      </trkpt>
      <trkpt lat="42.294317" lon="1.745135">
        <ele>2130.613</ele>
        <time>2018-09-22T07:47:57Z</time>
      </trkpt>
      <trkpt lat="42.294343" lon="1.745118">
        <ele>2129.808</ele>
        <time>2018-09-22T07:47:59Z</time>
      </trkpt>
      <trkpt lat="42.294435" lon="1.745056">
        <ele>2127.269</ele>
        <time>2018-09-22T07:48:06Z</time>
      </trkpt>
      <trkpt lat="42.294442" lon="1.745035">
        <ele>2128.045</ele>
        <time>2018-09-22T07:48:08Z</time>
      </trkpt>
      <trkpt lat="42.294450" lon="1.745028">
        <ele>2128.186</ele>
        <time>2018-09-22T07:48:09Z</time>
      </trkpt>
      <trkpt lat="42.294459" lon="1.745018">
        <ele>2128.410</ele>
        <time>2018-09-22T07:48:10Z</time>
      </trkpt>
      <trkpt lat="42.294467" lon="1.745011">
        <ele>2128.736</ele>
        <time>2018-09-22T07:48:11Z</time>
      </trkpt>
      <trkpt lat="42.294471" lon="1.745001">
        <ele>2129.226</ele>
        <time>2018-09-22T07:48:12Z</time>
      </trkpt>
      <trkpt lat="42.294480" lon="1.744987">
        <ele>2129.918</ele>
        <time>2018-09-22T07:48:14Z</time>
      </trkpt>
      <trkpt lat="42.294485" lon="1.744979">
        <ele>2130.240</ele>
        <time>2018-09-22T07:48:15Z</time>
      </trkpt>
      <trkpt lat="42.294498" lon="1.744960">
        <ele>2131.052</ele>
        <time>2018-09-22T07:48:17Z</time>
      </trkpt>
      <trkpt lat="42.294505" lon="1.744938">
        <ele>2132.253</ele>
        <time>2018-09-22T07:48:19Z</time>
      </trkpt>
      <trkpt lat="42.294501" lon="1.744910">
        <ele>2134.008</ele>
        <time>2018-09-22T07:48:21Z</time>
      </trkpt>
      <trkpt lat="42.294503" lon="1.744901">
        <ele>2134.508</ele>
        <time>2018-09-22T07:48:22Z</time>
      </trkpt>
      <trkpt lat="42.294508" lon="1.744895">
        <ele>2134.747</ele>
        <time>2018-09-22T07:48:23Z</time>
      </trkpt>
      <trkpt lat="42.294518" lon="1.744885">
        <ele>2135.053</ele>
        <time>2018-09-22T07:48:24Z</time>
      </trkpt>
      <trkpt lat="42.294546" lon="1.744857">
        <ele>2135.754</ele>
        <time>2018-09-22T07:48:28Z</time>
      </trkpt>
      <trkpt lat="42.294551" lon="1.744848">
        <ele>2136.178</ele>
        <time>2018-09-22T07:48:29Z</time>
      </trkpt>
      <trkpt lat="42.294568" lon="1.744821">
        <ele>2137.074</ele>
        <time>2018-09-22T07:48:32Z</time>
      </trkpt>
      <trkpt lat="42.294575" lon="1.744810">
        <ele>2137.424</ele>
        <time>2018-09-22T07:48:33Z</time>
      </trkpt>
      <trkpt lat="42.294582" lon="1.744805">
        <ele>2137.426</ele>
        <time>2018-09-22T07:48:34Z</time>
      </trkpt>
      <trkpt lat="42.294592" lon="1.744792">
        <ele>2137.738</ele>
        <time>2018-09-22T07:48:37Z</time>
      </trkpt>
      <trkpt lat="42.294592" lon="1.744785">
        <ele>2138.191</ele>
        <time>2018-09-22T07:48:38Z</time>
      </trkpt>
      <trkpt lat="42.294594" lon="1.744778">
        <ele>2138.481</ele>
        <time>2018-09-22T07:48:39Z</time>
      </trkpt>
      <trkpt lat="42.294603" lon="1.744762">
        <ele>2138.919</ele>
        <time>2018-09-22T07:48:41Z</time>
      </trkpt>
      <trkpt lat="42.294614" lon="1.744744">
        <ele>2139.408</ele>
        <time>2018-09-22T07:48:44Z</time>
      </trkpt>
      <trkpt lat="42.294616" lon="1.744736">
        <ele>2139.891</ele>
        <time>2018-09-22T07:48:45Z</time>
      </trkpt>
      <trkpt lat="42.294643" lon="1.744730">
        <ele>2139.017</ele>
        <time>2018-09-22T07:48:48Z</time>
      </trkpt>
      <trkpt lat="42.294677" lon="1.744723">
        <ele>2137.928</ele>
        <time>2018-09-22T07:48:53Z</time>
      </trkpt>
      <trkpt lat="42.294689" lon="1.744719">
        <ele>2137.652</ele>
        <time>2018-09-22T07:48:55Z</time>
      </trkpt>
      <trkpt lat="42.294695" lon="1.744703">
        <ele>2138.038</ele>
        <time>2018-09-22T07:48:57Z</time>
      </trkpt>
      <trkpt lat="42.294698" lon="1.744689">
        <ele>2138.558</ele>
        <time>2018-09-22T07:48:58Z</time>
      </trkpt>
      <trkpt lat="42.294701" lon="1.744675">
        <ele>2138.970</ele>
        <time>2018-09-22T07:48:59Z</time>
      </trkpt>
      <trkpt lat="42.294705" lon="1.744630">
        <ele>2140.832</ele>
        <time>2018-09-22T07:49:02Z</time>
      </trkpt>
      <trkpt lat="42.294709" lon="1.744620">
        <ele>2141.027</ele>
        <time>2018-09-22T07:49:03Z</time>
      </trkpt>
      <trkpt lat="42.294712" lon="1.744601">
        <ele>2141.768</ele>
        <time>2018-09-22T07:49:05Z</time>
      </trkpt>
      <trkpt lat="42.294712" lon="1.744586">
        <ele>2142.414</ele>
        <time>2018-09-22T07:49:07Z</time>
      </trkpt>
      <trkpt lat="42.294711" lon="1.744569">
        <ele>2143.108</ele>
        <time>2018-09-22T07:49:09Z</time>
      </trkpt>
      <trkpt lat="42.294761" lon="1.744491">
        <ele>2142.484</ele>
        <time>2018-09-22T07:49:17Z</time>
      </trkpt>
      <trkpt lat="42.294767" lon="1.744479">
        <ele>2142.410</ele>
        <time>2018-09-22T07:49:18Z</time>
      </trkpt>
      <trkpt lat="42.294773" lon="1.744469">
        <ele>2142.381</ele>
        <time>2018-09-22T07:49:19Z</time>
      </trkpt>
      <trkpt lat="42.294783" lon="1.744456">
        <ele>2142.165</ele>
        <time>2018-09-22T07:49:21Z</time>
      </trkpt>
      <trkpt lat="42.294792" lon="1.744429">
        <ele>2142.881</ele>
        <time>2018-09-22T07:49:24Z</time>
      </trkpt>
      <trkpt lat="42.294803" lon="1.744394">
        <ele>2143.941</ele>
        <time>2018-09-22T07:49:27Z</time>
      </trkpt>
      <trkpt lat="42.294813" lon="1.744365">
        <ele>2145.093</ele>
        <time>2018-09-22T07:49:30Z</time>
      </trkpt>
      <trkpt lat="42.294815" lon="1.744356">
        <ele>2145.475</ele>
        <time>2018-09-22T07:49:31Z</time>
      </trkpt>
      <trkpt lat="42.294819" lon="1.744341">
        <ele>2146.062</ele>
        <time>2018-09-22T07:49:33Z</time>
      </trkpt>
      <trkpt lat="42.294830" lon="1.744340">
        <ele>2145.383</ele>
        <time>2018-09-22T07:49:34Z</time>
      </trkpt>
      <trkpt lat="42.294850" lon="1.744335">
        <ele>2144.411</ele>
        <time>2018-09-22T07:49:36Z</time>
      </trkpt>
      <trkpt lat="42.294853" lon="1.744284">
        <ele>2147.708</ele>
        <time>2018-09-22T07:49:40Z</time>
      </trkpt>
      <trkpt lat="42.294859" lon="1.744251">
        <ele>2149.678</ele>
        <time>2018-09-22T07:49:42Z</time>
      </trkpt>
      <trkpt lat="42.294853" lon="1.744190">
        <ele>2154.154</ele>
        <time>2018-09-22T07:49:46Z</time>
      </trkpt>
      <trkpt lat="42.294855" lon="1.744182">
        <ele>2154.635</ele>
        <time>2018-09-22T07:49:47Z</time>
      </trkpt>
      <trkpt lat="42.294856" lon="1.744169">
        <ele>2155.479</ele>
        <time>2018-09-22T07:49:48Z</time>
      </trkpt>
      <trkpt lat="42.294866" lon="1.744149">
        <ele>2155.875</ele>
        <time>2018-09-22T07:49:50Z</time>
      </trkpt>
      <trkpt lat="42.294891" lon="1.744131">
        <ele>2155.375</ele>
        <time>2018-09-22T07:49:53Z</time>
      </trkpt>
      <trkpt lat="42.294910" lon="1.744123">
        <ele>2154.827</ele>
        <time>2018-09-22T07:49:55Z</time>
      </trkpt>
      <trkpt lat="42.294930" lon="1.744113">
        <ele>2154.249</ele>
        <time>2018-09-22T07:49:57Z</time>
      </trkpt>
      <trkpt lat="42.294948" lon="1.744095">
        <ele>2153.887</ele>
        <time>2018-09-22T07:50:00Z</time>
      </trkpt>
      <trkpt lat="42.294956" lon="1.744092">
        <ele>2153.642</ele>
        <time>2018-09-22T07:50:01Z</time>
      </trkpt>
      <trkpt lat="42.294964" lon="1.744087">
        <ele>2153.326</ele>
        <time>2018-09-22T07:50:02Z</time>
      </trkpt>
      <trkpt lat="42.294969" lon="1.744068">
        <ele>2153.408</ele>
        <time>2018-09-22T07:50:04Z</time>
      </trkpt>
      <trkpt lat="42.294978" lon="1.743997">
        <ele>2153.920</ele>
        <time>2018-09-22T07:50:10Z</time>
      </trkpt>
      <trkpt lat="42.294981" lon="1.743985">
        <ele>2153.966</ele>
        <time>2018-09-22T07:50:11Z</time>
      </trkpt>
      <trkpt lat="42.294981" lon="1.743946">
        <ele>2154.497</ele>
        <time>2018-09-22T07:50:14Z</time>
      </trkpt>
      <trkpt lat="42.294949" lon="1.743825">
        <ele>2159.161</ele>
        <time>2018-09-22T07:50:20Z</time>
      </trkpt>
      <trkpt lat="42.294965" lon="1.743762">
        <ele>2159.957</ele>
        <time>2018-09-22T07:50:23Z</time>
      </trkpt>
      <trkpt lat="42.294979" lon="1.743732">
        <ele>2159.917</ele>
        <time>2018-09-22T07:50:25Z</time>
      </trkpt>
      <trkpt lat="42.294988" lon="1.743721">
        <ele>2159.539</ele>
        <time>2018-09-22T07:50:26Z</time>
      </trkpt>
      <trkpt lat="42.295002" lon="1.743695">
        <ele>2159.341</ele>
        <time>2018-09-22T07:50:28Z</time>
      </trkpt>
      <trkpt lat="42.295022" lon="1.743665">
        <ele>2158.824</ele>
        <time>2018-09-22T07:50:31Z</time>
      </trkpt>
      <trkpt lat="42.295030" lon="1.743660">
        <ele>2158.404</ele>
        <time>2018-09-22T07:50:32Z</time>
      </trkpt>
      <trkpt lat="42.295037" lon="1.743655">
        <ele>2158.114</ele>
        <time>2018-09-22T07:50:33Z</time>
      </trkpt>
      <trkpt lat="42.295044" lon="1.743643">
        <ele>2158.008</ele>
        <time>2018-09-22T07:50:35Z</time>
      </trkpt>
      <trkpt lat="42.295068" lon="1.743619">
        <ele>2157.364</ele>
        <time>2018-09-22T07:50:38Z</time>
      </trkpt>
      <trkpt lat="42.295083" lon="1.743585">
        <ele>2157.090</ele>
        <time>2018-09-22T07:50:41Z</time>
      </trkpt>
      <trkpt lat="42.295092" lon="1.743573">
        <ele>2156.791</ele>
        <time>2018-09-22T07:50:42Z</time>
      </trkpt>
      <trkpt lat="42.295109" lon="1.743552">
        <ele>2156.015</ele>
        <time>2018-09-22T07:50:44Z</time>
      </trkpt>
      <trkpt lat="42.295114" lon="1.743520">
        <ele>2156.311</ele>
        <time>2018-09-22T07:50:46Z</time>
      </trkpt>
      <trkpt lat="42.295121" lon="1.743471">
        <ele>2156.961</ele>
        <time>2018-09-22T07:50:49Z</time>
      </trkpt>
      <trkpt lat="42.295131" lon="1.743382">
        <ele>2158.383</ele>
        <time>2018-09-22T07:50:54Z</time>
      </trkpt>
      <trkpt lat="42.295151" lon="1.743341">
        <ele>2158.215</ele>
        <time>2018-09-22T07:50:57Z</time>
      </trkpt>
      <trkpt lat="42.295164" lon="1.743310">
        <ele>2157.512</ele>
        <time>2018-09-22T07:50:59Z</time>
      </trkpt>
      <trkpt lat="42.295165" lon="1.743294">
        <ele>2157.332</ele>
        <time>2018-09-22T07:51:00Z</time>
      </trkpt>
      <trkpt lat="42.295156" lon="1.743247">
        <ele>2157.005</ele>
        <time>2018-09-22T07:51:03Z</time>
      </trkpt>
      <trkpt lat="42.295152" lon="1.743231">
        <ele>2156.908</ele>
        <time>2018-09-22T07:51:04Z</time>
      </trkpt>
      <trkpt lat="42.295140" lon="1.743196">
        <ele>2156.963</ele>
        <time>2018-09-22T07:51:06Z</time>
      </trkpt>
      <trkpt lat="42.295128" lon="1.743156">
        <ele>2156.939</ele>
        <time>2018-09-22T07:51:09Z</time>
      </trkpt>
      <trkpt lat="42.295090" lon="1.743088">
        <ele>2157.520</ele>
        <time>2018-09-22T07:51:14Z</time>
      </trkpt>
      <trkpt lat="42.295083" lon="1.743071">
        <ele>2157.674</ele>
        <time>2018-09-22T07:51:15Z</time>
      </trkpt>
      <trkpt lat="42.295052" lon="1.743008">
        <ele>2156.820</ele>
        <time>2018-09-22T07:51:18Z</time>
      </trkpt>
      <trkpt lat="42.294996" lon="1.742948">
        <ele>2156.950</ele>
        <time>2018-09-22T07:51:22Z</time>
      </trkpt>
      <trkpt lat="42.294936" lon="1.742877">
        <ele>2157.042</ele>
        <time>2018-09-22T07:51:26Z</time>
      </trkpt>
      <trkpt lat="42.294911" lon="1.742839">
        <ele>2156.724</ele>
        <time>2018-09-22T07:51:28Z</time>
      </trkpt>
      <trkpt lat="42.294897" lon="1.742797">
        <ele>2155.634</ele>
        <time>2018-09-22T07:51:30Z</time>
      </trkpt>
      <trkpt lat="42.294854" lon="1.742742">
        <ele>2155.555</ele>
        <time>2018-09-22T07:51:33Z</time>
      </trkpt>
      <trkpt lat="42.294851" lon="1.742720">
        <ele>2155.010</ele>
        <time>2018-09-22T07:51:34Z</time>
      </trkpt>
      <trkpt lat="42.294854" lon="1.742636">
        <ele>2152.008</ele>
        <time>2018-09-22T07:51:37Z</time>
      </trkpt>
      <trkpt lat="42.294850" lon="1.742583">
        <ele>2150.415</ele>
        <time>2018-09-22T07:51:39Z</time>
      </trkpt>
      <trkpt lat="42.294820" lon="1.742498">
        <ele>2149.391</ele>
        <time>2018-09-22T07:51:42Z</time>
      </trkpt>
      <trkpt lat="42.294777" lon="1.742410">
        <ele>2149.642</ele>
        <time>2018-09-22T07:51:45Z</time>
      </trkpt>
      <trkpt lat="42.294755" lon="1.742323">
        <ele>2148.826</ele>
        <time>2018-09-22T07:51:48Z</time>
      </trkpt>
      <trkpt lat="42.294728" lon="1.742212">
        <ele>2147.422</ele>
        <time>2018-09-22T07:51:52Z</time>
      </trkpt>
      <trkpt lat="42.294658" lon="1.742064">
        <ele>2146.652</ele>
        <time>2018-09-22T07:51:58Z</time>
      </trkpt>
      <trkpt lat="42.294591" lon="1.741974">
        <ele>2146.944</ele>
        <time>2018-09-22T07:52:03Z</time>
      </trkpt>
      <trkpt lat="42.294577" lon="1.741919">
        <ele>2146.166</ele>
        <time>2018-09-22T07:52:06Z</time>
      </trkpt>
      <trkpt lat="42.294547" lon="1.741814">
        <ele>2145.195</ele>
        <time>2018-09-22T07:52:12Z</time>
      </trkpt>
      <trkpt lat="42.294539" lon="1.741742">
        <ele>2143.849</ele>
        <time>2018-09-22T07:52:15Z</time>
      </trkpt>
      <trkpt lat="42.294511" lon="1.741653">
        <ele>2143.123</ele>
        <time>2018-09-22T07:52:18Z</time>
      </trkpt>
      <trkpt lat="42.294501" lon="1.741545">
        <ele>2141.408</ele>
        <time>2018-09-22T07:52:22Z</time>
      </trkpt>
      <trkpt lat="42.294510" lon="1.741490">
        <ele>2140.261</ele>
        <time>2018-09-22T07:52:24Z</time>
      </trkpt>
      <trkpt lat="42.294508" lon="1.741409">
        <ele>2138.717</ele>
        <time>2018-09-22T07:52:27Z</time>
      </trkpt>
      <trkpt lat="42.294487" lon="1.741327">
        <ele>2137.818</ele>
        <time>2018-09-22T07:52:30Z</time>
      </trkpt>
      <trkpt lat="42.294488" lon="1.741267">
        <ele>2136.792</ele>
        <time>2018-09-22T07:52:32Z</time>
      </trkpt>
      <trkpt lat="42.294501" lon="1.741214">
        <ele>2135.528</ele>
        <time>2018-09-22T07:52:34Z</time>
      </trkpt>
      <trkpt lat="42.294494" lon="1.741140">
        <ele>2134.448</ele>
        <time>2018-09-22T07:52:37Z</time>
      </trkpt>
      <trkpt lat="42.294479" lon="1.741123">
        <ele>2134.420</ele>
        <time>2018-09-22T07:52:38Z</time>
      </trkpt>
      <trkpt lat="42.294394" lon="1.741072">
        <ele>2135.222</ele>
        <time>2018-09-22T07:52:42Z</time>
      </trkpt>
      <trkpt lat="42.294249" lon="1.740952">
        <ele>2136.983</ele>
        <time>2018-09-22T07:52:49Z</time>
      </trkpt>
      <trkpt lat="42.294197" lon="1.740696">
        <ele>2134.725</ele>
        <time>2018-09-22T07:52:57Z</time>
      </trkpt>
      <trkpt lat="42.294185" lon="1.740637">
        <ele>2134.317</ele>
        <time>2018-09-22T07:52:59Z</time>
      </trkpt>
      <trkpt lat="42.294145" lon="1.740386">
        <ele>2131.808</ele>
        <time>2018-09-22T07:53:07Z</time>
      </trkpt>
      <trkpt lat="42.294083" lon="1.740232">
        <ele>2131.790</ele>
        <time>2018-09-22T07:53:14Z</time>
      </trkpt>
      <trkpt lat="42.294095" lon="1.740103">
        <ele>2129.676</ele>
        <time>2018-09-22T07:53:19Z</time>
      </trkpt>
      <trkpt lat="42.294099" lon="1.740044">
        <ele>2128.757</ele>
        <time>2018-09-22T07:53:21Z</time>
      </trkpt>
      <trkpt lat="42.294097" lon="1.739947">
        <ele>2127.411</ele>
        <time>2018-09-22T07:53:24Z</time>
      </trkpt>
      <trkpt lat="42.294078" lon="1.739858">
        <ele>2126.617</ele>
        <time>2018-09-22T07:53:27Z</time>
      </trkpt>
      <trkpt lat="42.294020" lon="1.739721">
        <ele>2126.227</ele>
        <time>2018-09-22T07:53:32Z</time>
      </trkpt>
      <trkpt lat="42.294018" lon="1.739587">
        <ele>2124.139</ele>
        <time>2018-09-22T07:53:37Z</time>
      </trkpt>
      <trkpt lat="42.294008" lon="1.739557">
        <ele>2123.991</ele>
        <time>2018-09-22T07:53:38Z</time>
      </trkpt>
      <trkpt lat="42.293989" lon="1.739463">
        <ele>2123.089</ele>
        <time>2018-09-22T07:53:41Z</time>
      </trkpt>
      <trkpt lat="42.293959" lon="1.739370">
        <ele>2122.806</ele>
        <time>2018-09-22T07:53:44Z</time>
      </trkpt>
      <trkpt lat="42.293945" lon="1.739209">
        <ele>2121.426</ele>
        <time>2018-09-22T07:53:50Z</time>
      </trkpt>
      <trkpt lat="42.293917" lon="1.739008">
        <ele>2120.208</ele>
        <time>2018-09-22T07:53:57Z</time>
      </trkpt>
      <trkpt lat="42.293914" lon="1.738929">
        <ele>2119.430</ele>
        <time>2018-09-22T07:54:00Z</time>
      </trkpt>
      <trkpt lat="42.293867" lon="1.738782">
        <ele>2118.976</ele>
        <time>2018-09-22T07:54:06Z</time>
      </trkpt>
      <trkpt lat="42.293801" lon="1.738551">
        <ele>2118.547</ele>
        <time>2018-09-22T07:54:15Z</time>
      </trkpt>
      <trkpt lat="42.293854" lon="1.738382">
        <ele>2116.421</ele>
        <time>2018-09-22T07:54:21Z</time>
      </trkpt>
      <trkpt lat="42.293824" lon="1.738217">
        <ele>2118.387</ele>
        <time>2018-09-22T07:54:26Z</time>
      </trkpt>
      <trkpt lat="42.293993" lon="1.738094">
        <ele>2114.397</ele>
        <time>2018-09-22T07:54:34Z</time>
      </trkpt>
      <trkpt lat="42.294010" lon="1.738078">
        <ele>2113.829</ele>
        <time>2018-09-22T07:54:35Z</time>
      </trkpt>
      <trkpt lat="42.294028" lon="1.738035">
        <ele>2113.471</ele>
        <time>2018-09-22T07:54:37Z</time>
      </trkpt>
      <trkpt lat="42.294049" lon="1.737797">
        <ele>2112.221</ele>
        <time>2018-09-22T07:54:46Z</time>
      </trkpt>
      <trkpt lat="42.294054" lon="1.737768">
        <ele>2111.941</ele>
        <time>2018-09-22T07:54:47Z</time>
      </trkpt>
      <trkpt lat="42.294054" lon="1.737696">
        <ele>2111.305</ele>
        <time>2018-09-22T07:54:49Z</time>
      </trkpt>
      <trkpt lat="42.294029" lon="1.737596">
        <ele>2111.308</ele>
        <time>2018-09-22T07:54:52Z</time>
      </trkpt>
      <trkpt lat="42.293976" lon="1.737348">
        <ele>2110.954</ele>
        <time>2018-09-22T07:55:00Z</time>
      </trkpt>
      <trkpt lat="42.293971" lon="1.737316">
        <ele>2110.830</ele>
        <time>2018-09-22T07:55:01Z</time>
      </trkpt>
      <trkpt lat="42.293926" lon="1.737156">
        <ele>2110.791</ele>
        <time>2018-09-22T07:55:06Z</time>
      </trkpt>
      <trkpt lat="42.293817" lon="1.736925">
        <ele>2110.985</ele>
        <time>2018-09-22T07:55:14Z</time>
      </trkpt>
      <trkpt lat="42.293786" lon="1.736790">
        <ele>2109.721</ele>
        <time>2018-09-22T07:55:19Z</time>
      </trkpt>
      <trkpt lat="42.293685" lon="1.736589">
        <ele>2110.231</ele>
        <time>2018-09-22T07:55:27Z</time>
      </trkpt>
      <trkpt lat="42.293677" lon="1.736551">
        <ele>2110.043</ele>
        <time>2018-09-22T07:55:29Z</time>
      </trkpt>
      <trkpt lat="42.293691" lon="1.736481">
        <ele>2108.685</ele>
        <time>2018-09-22T07:55:32Z</time>
      </trkpt>
      <trkpt lat="42.293682" lon="1.736439">
        <ele>2108.376</ele>
        <time>2018-09-22T07:55:34Z</time>
      </trkpt>
      <trkpt lat="42.293637" lon="1.736348">
        <ele>2108.790</ele>
        <time>2018-09-22T07:55:39Z</time>
      </trkpt>
      <trkpt lat="42.293565" lon="1.736268">
        <ele>2109.819</ele>
        <time>2018-09-22T07:55:44Z</time>
      </trkpt>
      <trkpt lat="42.293559" lon="1.736107">
        <ele>2108.008</ele>
        <time>2018-09-22T07:55:50Z</time>
      </trkpt>
      <trkpt lat="42.293557" lon="1.736081">
        <ele>2107.649</ele>
        <time>2018-09-22T07:55:51Z</time>
      </trkpt>
      <trkpt lat="42.293562" lon="1.736019">
        <ele>2106.465</ele>
        <time>2018-09-22T07:55:53Z</time>
      </trkpt>
      <trkpt lat="42.293572" lon="1.735996">
        <ele>2105.856</ele>
        <time>2018-09-22T07:55:54Z</time>
      </trkpt>
      <trkpt lat="42.293599" lon="1.735918">
        <ele>2103.860</ele>
        <time>2018-09-22T07:55:57Z</time>
      </trkpt>
      <trkpt lat="42.293630" lon="1.735853">
        <ele>2101.956</ele>
        <time>2018-09-22T07:56:00Z</time>
      </trkpt>
      <trkpt lat="42.293631" lon="1.735810">
        <ele>2101.196</ele>
        <time>2018-09-22T07:56:02Z</time>
      </trkpt>
      <trkpt lat="42.293643" lon="1.735764">
        <ele>2100.018</ele>
        <time>2018-09-22T07:56:04Z</time>
      </trkpt>
      <trkpt lat="42.293666" lon="1.735714">
        <ele>2098.660</ele>
        <time>2018-09-22T07:56:06Z</time>
      </trkpt>
      <trkpt lat="42.293662" lon="1.735625">
        <ele>2097.148</ele>
        <time>2018-09-22T07:56:09Z</time>
      </trkpt>
      <trkpt lat="42.293661" lon="1.735601">
        <ele>2096.761</ele>
        <time>2018-09-22T07:56:10Z</time>
      </trkpt>
      <trkpt lat="42.293651" lon="1.735574">
        <ele>2096.417</ele>
        <time>2018-09-22T07:56:11Z</time>
      </trkpt>
      <trkpt lat="42.293609" lon="1.735481">
        <ele>2095.708</ele>
        <time>2018-09-22T07:56:15Z</time>
      </trkpt>
      <trkpt lat="42.293599" lon="1.735460">
        <ele>2095.686</ele>
        <time>2018-09-22T07:56:16Z</time>
      </trkpt>
      <trkpt lat="42.293604" lon="1.735402">
        <ele>2094.472</ele>
        <time>2018-09-22T07:56:19Z</time>
      </trkpt>
      <trkpt lat="42.293595" lon="1.735332">
        <ele>2093.323</ele>
        <time>2018-09-22T07:56:22Z</time>
      </trkpt>
      <trkpt lat="42.293578" lon="1.735292">
        <ele>2093.197</ele>
        <time>2018-09-22T07:56:24Z</time>
      </trkpt>
      <trkpt lat="42.293540" lon="1.735212">
        <ele>2091.713</ele>
        <time>2018-09-22T07:56:27Z</time>
      </trkpt>
      <trkpt lat="42.293537" lon="1.735192">
        <ele>2091.133</ele>
        <time>2018-09-22T07:56:28Z</time>
      </trkpt>
      <trkpt lat="42.293537" lon="1.735176">
        <ele>2090.655</ele>
        <time>2018-09-22T07:56:29Z</time>
      </trkpt>
      <trkpt lat="42.293530" lon="1.735151">
        <ele>2090.057</ele>
        <time>2018-09-22T07:56:31Z</time>
      </trkpt>
      <trkpt lat="42.293529" lon="1.735111">
        <ele>2088.871</ele>
        <time>2018-09-22T07:56:33Z</time>
      </trkpt>
      <trkpt lat="42.293518" lon="1.735057">
        <ele>2087.441</ele>
        <time>2018-09-22T07:56:35Z</time>
      </trkpt>
      <trkpt lat="42.293511" lon="1.735031">
        <ele>2086.815</ele>
        <time>2018-09-22T07:56:36Z</time>
      </trkpt>
      <trkpt lat="42.293503" lon="1.735000">
        <ele>2086.008</ele>
        <time>2018-09-22T07:56:37Z</time>
      </trkpt>
      <trkpt lat="42.293488" lon="1.734907">
        <ele>2083.569</ele>
        <time>2018-09-22T07:56:40Z</time>
      </trkpt>
      <trkpt lat="42.293485" lon="1.734876">
        <ele>2082.675</ele>
        <time>2018-09-22T07:56:41Z</time>
      </trkpt>
      <trkpt lat="42.293486" lon="1.734845">
        <ele>2081.636</ele>
        <time>2018-09-22T07:56:42Z</time>
      </trkpt>
      <trkpt lat="42.293484" lon="1.734800">
        <ele>2080.240</ele>
        <time>2018-09-22T07:56:44Z</time>
      </trkpt>
      <trkpt lat="42.293473" lon="1.734762">
        <ele>2079.226</ele>
        <time>2018-09-22T07:56:46Z</time>
      </trkpt>
      <trkpt lat="42.293463" lon="1.734722">
        <ele>2078.156</ele>
        <time>2018-09-22T07:56:48Z</time>
      </trkpt>
      <trkpt lat="42.293448" lon="1.734698">
        <ele>2077.758</ele>
        <time>2018-09-22T07:56:49Z</time>
      </trkpt>
      <trkpt lat="42.293441" lon="1.734676">
        <ele>2077.260</ele>
        <time>2018-09-22T07:56:50Z</time>
      </trkpt>
      <trkpt lat="42.293448" lon="1.734655">
        <ele>2076.438</ele>
        <time>2018-09-22T07:56:51Z</time>
      </trkpt>
      <trkpt lat="42.293468" lon="1.734613">
        <ele>2074.770</ele>
        <time>2018-09-22T07:56:53Z</time>
      </trkpt>
      <trkpt lat="42.293478" lon="1.734584">
        <ele>2073.617</ele>
        <time>2018-09-22T07:56:54Z</time>
      </trkpt>
      <trkpt lat="42.293485" lon="1.734561">
        <ele>2072.808</ele>
        <time>2018-09-22T07:56:55Z</time>
      </trkpt>
      <trkpt lat="42.293495" lon="1.734539">
        <ele>2071.965</ele>
        <time>2018-09-22T07:56:56Z</time>
      </trkpt>
      <trkpt lat="42.293523" lon="1.734524">
        <ele>2070.981</ele>
        <time>2018-09-22T07:56:58Z</time>
      </trkpt>
      <trkpt lat="42.293549" lon="1.734524">
        <ele>2070.492</ele>
        <time>2018-09-22T07:57:00Z</time>
      </trkpt>
      <trkpt lat="42.293605" lon="1.734508">
        <ele>2068.996</ele>
        <time>2018-09-22T07:57:03Z</time>
      </trkpt>
      <trkpt lat="42.293641" lon="1.734500">
        <ele>2067.862</ele>
        <time>2018-09-22T07:57:05Z</time>
      </trkpt>
      <trkpt lat="42.293673" lon="1.734475">
        <ele>2066.262</ele>
        <time>2018-09-22T07:57:07Z</time>
      </trkpt>
      <trkpt lat="42.293701" lon="1.734433">
        <ele>2064.444</ele>
        <time>2018-09-22T07:57:09Z</time>
      </trkpt>
      <trkpt lat="42.293733" lon="1.734395">
        <ele>2062.646</ele>
        <time>2018-09-22T07:57:11Z</time>
      </trkpt>
      <trkpt lat="42.293769" lon="1.734365">
        <ele>2061.027</ele>
        <time>2018-09-22T07:57:13Z</time>
      </trkpt>
      <trkpt lat="42.293785" lon="1.734311">
        <ele>2059.368</ele>
        <time>2018-09-22T07:57:15Z</time>
      </trkpt>
      <trkpt lat="42.293793" lon="1.734264">
        <ele>2058.014</ele>
        <time>2018-09-22T07:57:17Z</time>
      </trkpt>
      <trkpt lat="42.293773" lon="1.734211">
        <ele>2057.108</ele>
        <time>2018-09-22T07:57:19Z</time>
      </trkpt>
      <trkpt lat="42.293736" lon="1.734131">
        <ele>2055.484</ele>
        <time>2018-09-22T07:57:22Z</time>
      </trkpt>
      <trkpt lat="42.293720" lon="1.734094">
        <ele>2054.320</ele>
        <time>2018-09-22T07:57:24Z</time>
      </trkpt>
      <trkpt lat="42.293722" lon="1.734076">
        <ele>2053.611</ele>
        <time>2018-09-22T07:57:25Z</time>
      </trkpt>
      <trkpt lat="42.293733" lon="1.734063">
        <ele>2053.035</ele>
        <time>2018-09-22T07:57:26Z</time>
      </trkpt>
      <trkpt lat="42.293744" lon="1.734058">
        <ele>2052.641</ele>
        <time>2018-09-22T07:57:27Z</time>
      </trkpt>
      <trkpt lat="42.293769" lon="1.734061">
        <ele>2052.431</ele>
        <time>2018-09-22T07:57:29Z</time>
      </trkpt>
      <trkpt lat="42.293777" lon="1.734048">
        <ele>2051.833</ele>
        <time>2018-09-22T07:57:30Z</time>
      </trkpt>
      <trkpt lat="42.293770" lon="1.734033">
        <ele>2051.395</ele>
        <time>2018-09-22T07:57:31Z</time>
      </trkpt>
      <trkpt lat="42.293765" lon="1.733998">
        <ele>2050.231</ele>
        <time>2018-09-22T07:57:33Z</time>
      </trkpt>
      <trkpt lat="42.293768" lon="1.733986">
        <ele>2049.761</ele>
        <time>2018-09-22T07:57:34Z</time>
      </trkpt>
      <trkpt lat="42.293769" lon="1.733972">
        <ele>2049.207</ele>
        <time>2018-09-22T07:57:35Z</time>
      </trkpt>
      <trkpt lat="42.293761" lon="1.733954">
        <ele>2048.708</ele>
        <time>2018-09-22T07:57:36Z</time>
      </trkpt>
      <trkpt lat="42.293726" lon="1.733928">
        <ele>2048.185</ele>
        <time>2018-09-22T07:57:38Z</time>
      </trkpt>
      <trkpt lat="42.293668" lon="1.733897">
        <ele>2047.681</ele>
        <time>2018-09-22T07:57:41Z</time>
      </trkpt>
      <trkpt lat="42.293645" lon="1.733860">
        <ele>2046.322</ele>
        <time>2018-09-22T07:57:44Z</time>
      </trkpt>
      <trkpt lat="42.293645" lon="1.733842">
        <ele>2045.556</ele>
        <time>2018-09-22T07:57:45Z</time>
      </trkpt>
      <trkpt lat="42.293643" lon="1.733827">
        <ele>2044.852</ele>
        <time>2018-09-22T07:57:46Z</time>
      </trkpt>
      <trkpt lat="42.293637" lon="1.733815">
        <ele>2044.362</ele>
        <time>2018-09-22T07:57:47Z</time>
      </trkpt>
      <trkpt lat="42.293629" lon="1.733789">
        <ele>2043.234</ele>
        <time>2018-09-22T07:57:49Z</time>
      </trkpt>
      <trkpt lat="42.293623" lon="1.733763">
        <ele>2042.066</ele>
        <time>2018-09-22T07:57:51Z</time>
      </trkpt>
      <trkpt lat="42.293603" lon="1.733734">
        <ele>2040.724</ele>
        <time>2018-09-22T07:57:53Z</time>
      </trkpt>
      <trkpt lat="42.293568" lon="1.733704">
        <ele>2039.104</ele>
        <time>2018-09-22T07:57:56Z</time>
      </trkpt>
      <trkpt lat="42.293534" lon="1.733667">
        <ele>2037.214</ele>
        <time>2018-09-22T07:57:59Z</time>
      </trkpt>
      <trkpt lat="42.293509" lon="1.733638">
        <ele>2035.808</ele>
        <time>2018-09-22T07:58:01Z</time>
      </trkpt>
      <trkpt lat="42.293481" lon="1.733606">
        <ele>2034.374</ele>
        <time>2018-09-22T07:58:03Z</time>
      </trkpt>
      <trkpt lat="42.293454" lon="1.733590">
        <ele>2033.530</ele>
        <time>2018-09-22T07:58:05Z</time>
      </trkpt>
      <trkpt lat="42.293431" lon="1.733559">
        <ele>2032.251</ele>
        <time>2018-09-22T07:58:07Z</time>
      </trkpt>
      <trkpt lat="42.293411" lon="1.733531">
        <ele>2031.065</ele>
        <time>2018-09-22T07:58:09Z</time>
      </trkpt>
      <trkpt lat="42.293421" lon="1.733504">
        <ele>2029.971</ele>
        <time>2018-09-22T07:58:11Z</time>
      </trkpt>
      <trkpt lat="42.293429" lon="1.733489">
        <ele>2029.311</ele>
        <time>2018-09-22T07:58:12Z</time>
      </trkpt>
      <trkpt lat="42.293413" lon="1.733467">
        <ele>2028.433</ele>
        <time>2018-09-22T07:58:14Z</time>
      </trkpt>
      <trkpt lat="42.293400" lon="1.733449">
        <ele>2027.685</ele>
        <time>2018-09-22T07:58:15Z</time>
      </trkpt>
      <trkpt lat="42.293396" lon="1.733430">
        <ele>2026.915</ele>
        <time>2018-09-22T07:58:16Z</time>
      </trkpt>
      <trkpt lat="42.293408" lon="1.733408">
        <ele>2026.065</ele>
        <time>2018-09-22T07:58:18Z</time>
      </trkpt>
      <trkpt lat="42.293414" lon="1.733397">
        <ele>2025.511</ele>
        <time>2018-09-22T07:58:19Z</time>
      </trkpt>
      <trkpt lat="42.293418" lon="1.733380">
        <ele>2024.908</ele>
        <time>2018-09-22T07:58:20Z</time>
      </trkpt>
      <trkpt lat="42.293425" lon="1.733367">
        <ele>2024.353</ele>
        <time>2018-09-22T07:58:21Z</time>
      </trkpt>
      <trkpt lat="42.293454" lon="1.733350">
        <ele>2023.689</ele>
        <time>2018-09-22T07:58:23Z</time>
      </trkpt>
      <trkpt lat="42.293488" lon="1.733335">
        <ele>2023.040</ele>
        <time>2018-09-22T07:58:25Z</time>
      </trkpt>
      <trkpt lat="42.293477" lon="1.733306">
        <ele>2021.834</ele>
        <time>2018-09-22T07:58:27Z</time>
      </trkpt>
      <trkpt lat="42.293459" lon="1.733274">
        <ele>2020.430</ele>
        <time>2018-09-22T07:58:29Z</time>
      </trkpt>
      <trkpt lat="42.293446" lon="1.733245">
        <ele>2019.180</ele>
        <time>2018-09-22T07:58:31Z</time>
      </trkpt>
      <trkpt lat="42.293429" lon="1.733215">
        <ele>2017.812</ele>
        <time>2018-09-22T07:58:33Z</time>
      </trkpt>
      <trkpt lat="42.293426" lon="1.733203">
        <ele>2017.324</ele>
        <time>2018-09-22T07:58:34Z</time>
      </trkpt>
      <trkpt lat="42.293422" lon="1.733184">
        <ele>2016.542</ele>
        <time>2018-09-22T07:58:35Z</time>
      </trkpt>
      <trkpt lat="42.293439" lon="1.733119">
        <ele>2013.722</ele>
        <time>2018-09-22T07:58:38Z</time>
      </trkpt>
      <trkpt lat="42.293467" lon="1.733100">
        <ele>2012.914</ele>
        <time>2018-09-22T07:58:40Z</time>
      </trkpt>
      <trkpt lat="42.293491" lon="1.733087">
        <ele>2012.308</ele>
        <time>2018-09-22T07:58:42Z</time>
      </trkpt>
      <trkpt lat="42.293515" lon="1.733066">
        <ele>2011.476</ele>
        <time>2018-09-22T07:58:44Z</time>
      </trkpt>
      <trkpt lat="42.293494" lon="1.733026">
        <ele>2009.972</ele>
        <time>2018-09-22T07:58:46Z</time>
      </trkpt>
      <trkpt lat="42.293478" lon="1.732986">
        <ele>2008.693</ele>
        <time>2018-09-22T07:58:48Z</time>
      </trkpt>
      <trkpt lat="42.293448" lon="1.732915">
        <ele>2006.277</ele>
        <time>2018-09-22T07:58:51Z</time>
      </trkpt>
      <trkpt lat="42.293439" lon="1.732871">
        <ele>2004.763</ele>
        <time>2018-09-22T07:58:53Z</time>
      </trkpt>
      <trkpt lat="42.293435" lon="1.732849">
        <ele>2004.073</ele>
        <time>2018-09-22T07:58:54Z</time>
      </trkpt>
      <trkpt lat="42.293433" lon="1.732827">
        <ele>2003.315</ele>
        <time>2018-09-22T07:58:55Z</time>
      </trkpt>
      <trkpt lat="42.293431" lon="1.732812">
        <ele>2002.877</ele>
        <time>2018-09-22T07:58:56Z</time>
      </trkpt>
      <trkpt lat="42.293426" lon="1.732802">
        <ele>2002.417</ele>
        <time>2018-09-22T07:58:57Z</time>
      </trkpt>
      <trkpt lat="42.293400" lon="1.732777">
        <ele>2001.787</ele>
        <time>2018-09-22T07:58:59Z</time>
      </trkpt>
      <trkpt lat="42.293397" lon="1.732762">
        <ele>2001.215</ele>
        <time>2018-09-22T07:59:00Z</time>
      </trkpt>
      <trkpt lat="42.293401" lon="1.732741">
        <ele>2000.508</ele>
        <time>2018-09-22T07:59:01Z</time>
      </trkpt>
      <trkpt lat="42.293407" lon="1.732715">
        <ele>1999.693</ele>
        <time>2018-09-22T07:59:02Z</time>
      </trkpt>
      <trkpt lat="42.293422" lon="1.732682">
        <ele>1998.559</ele>
        <time>2018-09-22T07:59:04Z</time>
      </trkpt>
      <trkpt lat="42.293450" lon="1.732667">
        <ele>1997.950</ele>
        <time>2018-09-22T07:59:06Z</time>
      </trkpt>
      <trkpt lat="42.293469" lon="1.732651">
        <ele>1997.384</ele>
        <time>2018-09-22T07:59:07Z</time>
      </trkpt>
      <trkpt lat="42.293482" lon="1.732641">
        <ele>1997.040</ele>
        <time>2018-09-22T07:59:08Z</time>
      </trkpt>
      <trkpt lat="42.293507" lon="1.732614">
        <ele>1996.040</ele>
        <time>2018-09-22T07:59:10Z</time>
      </trkpt>
      <trkpt lat="42.293538" lon="1.732579">
        <ele>1994.852</ele>
        <time>2018-09-22T07:59:12Z</time>
      </trkpt>
      <trkpt lat="42.293560" lon="1.732543">
        <ele>1993.574</ele>
        <time>2018-09-22T07:59:14Z</time>
      </trkpt>
      <trkpt lat="42.293570" lon="1.732524">
        <ele>1992.973</ele>
        <time>2018-09-22T07:59:15Z</time>
      </trkpt>
      <trkpt lat="42.293587" lon="1.732500">
        <ele>1992.085</ele>
        <time>2018-09-22T07:59:16Z</time>
      </trkpt>
      <trkpt lat="42.293596" lon="1.732473">
        <ele>1991.213</ele>
        <time>2018-09-22T07:59:17Z</time>
      </trkpt>
      <trkpt lat="42.293589" lon="1.732443">
        <ele>1990.308</ele>
        <time>2018-09-22T07:59:18Z</time>
      </trkpt>
      <trkpt lat="42.293575" lon="1.732354">
        <ele>1987.729</ele>
        <time>2018-09-22T07:59:21Z</time>
      </trkpt>
      <trkpt lat="42.293560" lon="1.732302">
        <ele>1986.235</ele>
        <time>2018-09-22T07:59:23Z</time>
      </trkpt>
      <trkpt lat="42.293539" lon="1.732256">
        <ele>1984.776</ele>
        <time>2018-09-22T07:59:25Z</time>
      </trkpt>
      <trkpt lat="42.293526" lon="1.732215">
        <ele>1983.480</ele>
        <time>2018-09-22T07:59:27Z</time>
      </trkpt>
      <trkpt lat="42.293502" lon="1.732185">
        <ele>1982.636</ele>
        <time>2018-09-22T07:59:29Z</time>
      </trkpt>
      <trkpt lat="42.293493" lon="1.732165">
        <ele>1982.076</ele>
        <time>2018-09-22T07:59:31Z</time>
      </trkpt>
      <trkpt lat="42.293487" lon="1.732149">
        <ele>1981.568</ele>
        <time>2018-09-22T07:59:32Z</time>
      </trkpt>
      <trkpt lat="42.293485" lon="1.732087">
        <ele>1979.940</ele>
        <time>2018-09-22T07:59:34Z</time>
      </trkpt>
      <trkpt lat="42.293498" lon="1.732025">
        <ele>1978.337</ele>
        <time>2018-09-22T07:59:36Z</time>
      </trkpt>
      <trkpt lat="42.293510" lon="1.732000">
        <ele>1977.749</ele>
        <time>2018-09-22T07:59:37Z</time>
      </trkpt>
      <trkpt lat="42.293529" lon="1.731964">
        <ele>1976.913</ele>
        <time>2018-09-22T07:59:39Z</time>
      </trkpt>
      <trkpt lat="42.293527" lon="1.731943">
        <ele>1976.308</ele>
        <time>2018-09-22T07:59:40Z</time>
      </trkpt>
      <trkpt lat="42.293507" lon="1.731901">
        <ele>1975.145</ele>
        <time>2018-09-22T07:59:42Z</time>
      </trkpt>
      <trkpt lat="42.293474" lon="1.731867">
        <ele>1974.011</ele>
        <time>2018-09-22T07:59:44Z</time>
      </trkpt>
      <trkpt lat="42.293456" lon="1.731860">
        <ele>1973.762</ele>
        <time>2018-09-22T07:59:45Z</time>
      </trkpt>
      <trkpt lat="42.293399" lon="1.731833">
        <ele>1972.666</ele>
        <time>2018-09-22T07:59:48Z</time>
      </trkpt>
      <trkpt lat="42.293373" lon="1.731798">
        <ele>1971.632</ele>
        <time>2018-09-22T07:59:50Z</time>
      </trkpt>
      <trkpt lat="42.293361" lon="1.731782">
        <ele>1971.162</ele>
        <time>2018-09-22T07:59:51Z</time>
      </trkpt>
      <trkpt lat="42.293356" lon="1.731738">
        <ele>1969.994</ele>
        <time>2018-09-22T07:59:53Z</time>
      </trkpt>
      <trkpt lat="42.293362" lon="1.731664">
        <ele>1968.126</ele>
        <time>2018-09-22T07:59:55Z</time>
      </trkpt>
      <trkpt lat="42.293354" lon="1.731588">
        <ele>1966.962</ele>
        <time>2018-09-22T07:59:57Z</time>
      </trkpt>
      <trkpt lat="42.293314" lon="1.731456">
        <ele>1964.583</ele>
        <time>2018-09-22T08:00:01Z</time>
      </trkpt>
      <trkpt lat="42.293281" lon="1.731404">
        <ele>1963.011</ele>
        <time>2018-09-22T08:00:03Z</time>
      </trkpt>
      <trkpt lat="42.293274" lon="1.731392">
        <ele>1962.708</ele>
        <time>2018-09-22T08:00:04Z</time>
      </trkpt>
      <trkpt lat="42.293232" lon="1.731343">
        <ele>1961.238</ele>
        <time>2018-09-22T08:00:08Z</time>
      </trkpt>
      <trkpt lat="42.293181" lon="1.731352">
        <ele>1960.244</ele>
        <time>2018-09-22T08:00:11Z</time>
      </trkpt>
      <trkpt lat="42.293128" lon="1.731354">
        <ele>1959.095</ele>
        <time>2018-09-22T08:00:14Z</time>
      </trkpt>
      <trkpt lat="42.293096" lon="1.731361">
        <ele>1958.459</ele>
        <time>2018-09-22T08:00:16Z</time>
      </trkpt>
      <trkpt lat="42.293080" lon="1.731364">
        <ele>1958.165</ele>
        <time>2018-09-22T08:00:17Z</time>
      </trkpt>
      <trkpt lat="42.293015" lon="1.731375">
        <ele>1956.425</ele>
        <time>2018-09-22T08:00:20Z</time>
      </trkpt>
      <trkpt lat="42.292981" lon="1.731398">
        <ele>1955.757</ele>
        <time>2018-09-22T08:00:22Z</time>
      </trkpt>
      <trkpt lat="42.292940" lon="1.731445">
        <ele>1955.619</ele>
        <time>2018-09-22T08:00:24Z</time>
      </trkpt>
      <trkpt lat="42.292927" lon="1.731471">
        <ele>1955.863</ele>
        <time>2018-09-22T08:00:25Z</time>
      </trkpt>
      <trkpt lat="42.292911" lon="1.731511">
        <ele>1956.444</ele>
        <time>2018-09-22T08:00:27Z</time>
      </trkpt>
      <trkpt lat="42.292845" lon="1.731514">
        <ele>1954.718</ele>
        <time>2018-09-22T08:00:31Z</time>
      </trkpt>
      <trkpt lat="42.292815" lon="1.731509">
        <ele>1953.808</ele>
        <time>2018-09-22T08:00:33Z</time>
      </trkpt>
      <trkpt lat="42.292754" lon="1.731479">
        <ele>1952.118</ele>
        <time>2018-09-22T08:00:38Z</time>
      </trkpt>
      <trkpt lat="42.292724" lon="1.731428">
        <ele>1950.854</ele>
        <time>2018-09-22T08:00:42Z</time>
      </trkpt>
      <trkpt lat="42.292657" lon="1.731372">
        <ele>1949.885</ele>
        <time>2018-09-22T08:00:48Z</time>
      </trkpt>
      <trkpt lat="42.292648" lon="1.731368">
        <ele>1949.889</ele>
        <time>2018-09-22T08:00:49Z</time>
      </trkpt>
      <trkpt lat="42.292605" lon="1.731322">
        <ele>1949.135</ele>
        <time>2018-09-22T08:00:53Z</time>
      </trkpt>
      <trkpt lat="42.292577" lon="1.731272">
        <ele>1948.285</ele>
        <time>2018-09-22T08:00:57Z</time>
      </trkpt>
      <trkpt lat="42.292565" lon="1.731262">
        <ele>1948.037</ele>
        <time>2018-09-22T08:00:59Z</time>
      </trkpt>
      <trkpt lat="42.292560" lon="1.731253">
        <ele>1947.949</ele>
        <time>2018-09-22T08:01:00Z</time>
      </trkpt>
      <trkpt lat="42.292536" lon="1.731231">
        <ele>1947.631</ele>
        <time>2018-09-22T08:01:02Z</time>
      </trkpt>
      <trkpt lat="42.292519" lon="1.731200">
        <ele>1947.061</ele>
        <time>2018-09-22T08:01:04Z</time>
      </trkpt>
      <trkpt lat="42.292505" lon="1.731181">
        <ele>1946.707</ele>
        <time>2018-09-22T08:01:05Z</time>
      </trkpt>
      <trkpt lat="42.292462" lon="1.731129">
        <ele>1945.808</ele>
        <time>2018-09-22T08:01:08Z</time>
      </trkpt>
      <trkpt lat="42.292408" lon="1.731020">
        <ele>1943.195</ele>
        <time>2018-09-22T08:01:13Z</time>
      </trkpt>
      <trkpt lat="42.292351" lon="1.730990">
        <ele>1942.681</ele>
        <time>2018-09-22T08:01:17Z</time>
      </trkpt>
      <trkpt lat="42.292343" lon="1.730982">
        <ele>1942.442</ele>
        <time>2018-09-22T08:01:18Z</time>
      </trkpt>
      <trkpt lat="42.292341" lon="1.730975">
        <ele>1942.236</ele>
        <time>2018-09-22T08:01:19Z</time>
      </trkpt>
      <trkpt lat="42.292349" lon="1.730933">
        <ele>1940.872</ele>
        <time>2018-09-22T08:01:22Z</time>
      </trkpt>
      <trkpt lat="42.292345" lon="1.730915">
        <ele>1940.272</ele>
        <time>2018-09-22T08:01:23Z</time>
      </trkpt>
      <trkpt lat="42.292337" lon="1.730903">
        <ele>1939.824</ele>
        <time>2018-09-22T08:01:24Z</time>
      </trkpt>
      <trkpt lat="42.292290" lon="1.730925">
        <ele>1940.866</ele>
        <time>2018-09-22T08:01:30Z</time>
      </trkpt>
      <trkpt lat="42.292238" lon="1.730934">
        <ele>1941.523</ele>
        <time>2018-09-22T08:01:34Z</time>
      </trkpt>
      <trkpt lat="42.292202" lon="1.730921">
        <ele>1941.783</ele>
        <time>2018-09-22T08:01:37Z</time>
      </trkpt>
      <trkpt lat="42.292181" lon="1.730911">
        <ele>1941.911</ele>
        <time>2018-09-22T08:01:39Z</time>
      </trkpt>
      <trkpt lat="42.292200" lon="1.730883">
        <ele>1940.508</ele>
        <time>2018-09-22T08:01:42Z</time>
      </trkpt>
      <trkpt lat="42.292205" lon="1.730879">
        <ele>1940.274</ele>
        <time>2018-09-22T08:01:43Z</time>
      </trkpt>
      <trkpt lat="42.292223" lon="1.730852">
        <ele>1938.670</ele>
        <time>2018-09-22T08:01:46Z</time>
      </trkpt>
      <trkpt lat="42.292226" lon="1.730842">
        <ele>1938.251</ele>
        <time>2018-09-22T08:01:47Z</time>
      </trkpt>
      <trkpt lat="42.292222" lon="1.730825">
        <ele>1937.795</ele>
        <time>2018-09-22T08:01:49Z</time>
      </trkpt>
      <trkpt lat="42.292200" lon="1.730814">
        <ele>1938.381</ele>
        <time>2018-09-22T08:01:52Z</time>
      </trkpt>
      <trkpt lat="42.292195" lon="1.730804">
        <ele>1938.241</ele>
        <time>2018-09-22T08:01:53Z</time>
      </trkpt>
      <trkpt lat="42.292190" lon="1.730793">
        <ele>1938.163</ele>
        <time>2018-09-22T08:01:54Z</time>
      </trkpt>
      <trkpt lat="42.292186" lon="1.730763">
        <ele>1937.595</ele>
        <time>2018-09-22T08:01:56Z</time>
      </trkpt>
      <trkpt lat="42.292180" lon="1.730755">
        <ele>1937.586</ele>
        <time>2018-09-22T08:01:57Z</time>
      </trkpt>
      <trkpt lat="42.292169" lon="1.730749">
        <ele>1937.860</ele>
        <time>2018-09-22T08:01:58Z</time>
      </trkpt>
      <trkpt lat="42.292153" lon="1.730727">
        <ele>1938.126</ele>
        <time>2018-09-22T08:02:00Z</time>
      </trkpt>
      <trkpt lat="42.292155" lon="1.730689">
        <ele>1937.108</ele>
        <time>2018-09-22T08:02:02Z</time>
      </trkpt>
      <trkpt lat="42.292157" lon="1.730672">
        <ele>1936.630</ele>
        <time>2018-09-22T08:02:03Z</time>
      </trkpt>
      <trkpt lat="42.292160" lon="1.730659">
        <ele>1936.286</ele>
        <time>2018-09-22T08:02:04Z</time>
      </trkpt>
      <trkpt lat="42.292154" lon="1.730608">
        <ele>1935.377</ele>
        <time>2018-09-22T08:02:07Z</time>
      </trkpt>
      <trkpt lat="42.292154" lon="1.730586">
        <ele>1934.891</ele>
        <time>2018-09-22T08:02:08Z</time>
      </trkpt>
      <trkpt lat="42.292151" lon="1.730514">
        <ele>1934.037</ele>
        <time>2018-09-22T08:02:11Z</time>
      </trkpt>
      <trkpt lat="42.292151" lon="1.730494">
        <ele>1933.947</ele>
        <time>2018-09-22T08:02:12Z</time>
      </trkpt>
      <trkpt lat="42.292144" lon="1.730448">
        <ele>1933.969</ele>
        <time>2018-09-22T08:02:15Z</time>
      </trkpt>
      <trkpt lat="42.292129" lon="1.730404">
        <ele>1934.671</ele>
        <time>2018-09-22T08:02:18Z</time>
      </trkpt>
      <trkpt lat="42.292118" lon="1.730314">
        <ele>1934.611</ele>
        <time>2018-09-22T08:02:24Z</time>
      </trkpt>
      <trkpt lat="42.292107" lon="1.730275">
        <ele>1935.021</ele>
        <time>2018-09-22T08:02:27Z</time>
      </trkpt>
      <trkpt lat="42.292104" lon="1.730229">
        <ele>1935.403</ele>
        <time>2018-09-22T08:02:30Z</time>
      </trkpt>
      <trkpt lat="42.292107" lon="1.730215">
        <ele>1935.308</ele>
        <time>2018-09-22T08:02:31Z</time>
      </trkpt>
      <trkpt lat="42.292117" lon="1.730198">
        <ele>1934.993</ele>
        <time>2018-09-22T08:02:32Z</time>
      </trkpt>
      <trkpt lat="42.292124" lon="1.730184">
        <ele>1934.599</ele>
        <time>2018-09-22T08:02:33Z</time>
      </trkpt>
      <trkpt lat="42.292126" lon="1.730157">
        <ele>1934.570</ele>
        <time>2018-09-22T08:02:35Z</time>
      </trkpt>
      <trkpt lat="42.292136" lon="1.730091">
        <ele>1934.464</ele>
        <time>2018-09-22T08:02:38Z</time>
      </trkpt>
      <trkpt lat="42.292154" lon="1.730049">
        <ele>1933.690</ele>
        <time>2018-09-22T08:02:41Z</time>
      </trkpt>
      <trkpt lat="42.292154" lon="1.730039">
        <ele>1933.610</ele>
        <time>2018-09-22T08:02:42Z</time>
      </trkpt>
      <trkpt lat="42.292154" lon="1.729995">
        <ele>1934.032</ele>
        <time>2018-09-22T08:02:45Z</time>
      </trkpt>
      <trkpt lat="42.292158" lon="1.729958">
        <ele>1934.374</ele>
        <time>2018-09-22T08:02:47Z</time>
      </trkpt>
      <trkpt lat="42.292184" lon="1.729855">
        <ele>1934.535</ele>
        <time>2018-09-22T08:02:53Z</time>
      </trkpt>
      <trkpt lat="42.292188" lon="1.729834">
        <ele>1934.686</ele>
        <time>2018-09-22T08:02:54Z</time>
      </trkpt>
      <trkpt lat="42.292192" lon="1.729690">
        <ele>1936.214</ele>
        <time>2018-09-22T08:03:02Z</time>
      </trkpt>
      <trkpt lat="42.292195" lon="1.729674">
        <ele>1936.108</ele>
        <time>2018-09-22T08:03:03Z</time>
      </trkpt>
      <trkpt lat="42.292190" lon="1.729649">
        <ele>1936.335</ele>
        <time>2018-09-22T08:03:04Z</time>
      </trkpt>
      <trkpt lat="42.292165" lon="1.729591">
        <ele>1937.231</ele>
        <time>2018-09-22T08:03:07Z</time>
      </trkpt>
      <trkpt lat="42.292160" lon="1.729570">
        <ele>1937.482</ele>
        <time>2018-09-22T08:03:08Z</time>
      </trkpt>
      <trkpt lat="42.292147" lon="1.729504">
        <ele>1937.816</ele>
        <time>2018-09-22T08:03:12Z</time>
      </trkpt>
      <trkpt lat="42.292166" lon="1.729383">
        <ele>1936.412</ele>
        <time>2018-09-22T08:03:19Z</time>
      </trkpt>
      <trkpt lat="42.292183" lon="1.729338">
        <ele>1935.312</ele>
        <time>2018-09-22T08:03:22Z</time>
      </trkpt>
      <trkpt lat="42.292181" lon="1.729323">
        <ele>1935.234</ele>
        <time>2018-09-22T08:03:23Z</time>
      </trkpt>
      <trkpt lat="42.292167" lon="1.729287">
        <ele>1935.526</ele>
        <time>2018-09-22T08:03:25Z</time>
      </trkpt>
      <trkpt lat="42.292141" lon="1.729215">
        <ele>1935.957</ele>
        <time>2018-09-22T08:03:29Z</time>
      </trkpt>
      <trkpt lat="42.292146" lon="1.729187">
        <ele>1935.400</ele>
        <time>2018-09-22T08:03:31Z</time>
      </trkpt>
      <trkpt lat="42.292146" lon="1.729130">
        <ele>1935.820</ele>
        <time>2018-09-22T08:03:34Z</time>
      </trkpt>
      <trkpt lat="42.292154" lon="1.729094">
        <ele>1935.908</ele>
        <time>2018-09-22T08:03:36Z</time>
      </trkpt>
      <trkpt lat="42.292161" lon="1.729043">
        <ele>1936.347</ele>
        <time>2018-09-22T08:03:39Z</time>
      </trkpt>
      <trkpt lat="42.292182" lon="1.728969">
        <ele>1936.573</ele>
        <time>2018-09-22T08:03:43Z</time>
      </trkpt>
      <trkpt lat="42.292189" lon="1.728922">
        <ele>1936.874</ele>
        <time>2018-09-22T08:03:46Z</time>
      </trkpt>
      <trkpt lat="42.292189" lon="1.728907">
        <ele>1937.048</ele>
        <time>2018-09-22T08:03:47Z</time>
      </trkpt>
      <trkpt lat="42.292195" lon="1.728897">
        <ele>1936.934</ele>
        <time>2018-09-22T08:03:48Z</time>
      </trkpt>
      <trkpt lat="42.292200" lon="1.728806">
        <ele>1938.634</ele>
        <time>2018-09-22T08:03:54Z</time>
      </trkpt>
      <trkpt lat="42.292220" lon="1.728767">
        <ele>1938.786</ele>
        <time>2018-09-22T08:03:57Z</time>
      </trkpt>
      <trkpt lat="42.292228" lon="1.728759">
        <ele>1938.638</ele>
        <time>2018-09-22T08:03:58Z</time>
      </trkpt>
      <trkpt lat="42.292250" lon="1.728722">
        <ele>1939.142</ele>
        <time>2018-09-22T08:04:01Z</time>
      </trkpt>
      <trkpt lat="42.292270" lon="1.728681">
        <ele>1939.722</ele>
        <time>2018-09-22T08:04:03Z</time>
      </trkpt>
      <trkpt lat="42.292299" lon="1.728624">
        <ele>1940.514</ele>
        <time>2018-09-22T08:04:06Z</time>
      </trkpt>
      <trkpt lat="42.292311" lon="1.728596">
        <ele>1941.208</ele>
        <time>2018-09-22T08:04:08Z</time>
      </trkpt>
      <trkpt lat="42.292323" lon="1.728569">
        <ele>1941.826</ele>
        <time>2018-09-22T08:04:10Z</time>
      </trkpt>
      <trkpt lat="42.292339" lon="1.728525">
        <ele>1942.942</ele>
        <time>2018-09-22T08:04:13Z</time>
      </trkpt>
      <trkpt lat="42.292344" lon="1.728515">
        <ele>1943.213</ele>
        <time>2018-09-22T08:04:14Z</time>
      </trkpt>
      <trkpt lat="42.292355" lon="1.728499">
        <ele>1943.577</ele>
        <time>2018-09-22T08:04:15Z</time>
      </trkpt>
      <trkpt lat="42.292364" lon="1.728487">
        <ele>1943.733</ele>
        <time>2018-09-22T08:04:16Z</time>
      </trkpt>
      <trkpt lat="42.292372" lon="1.728475">
        <ele>1943.983</ele>
        <time>2018-09-22T08:04:17Z</time>
      </trkpt>
      <trkpt lat="42.292391" lon="1.728465">
        <ele>1943.985</ele>
        <time>2018-09-22T08:04:18Z</time>
      </trkpt>
      <trkpt lat="42.292406" lon="1.728441">
        <ele>1944.417</ele>
        <time>2018-09-22T08:04:20Z</time>
      </trkpt>
      <trkpt lat="42.292452" lon="1.728409">
        <ele>1944.658</ele>
        <time>2018-09-22T08:04:23Z</time>
      </trkpt>
      <trkpt lat="42.292500" lon="1.728379">
        <ele>1944.652</ele>
        <time>2018-09-22T08:04:26Z</time>
      </trkpt>
      <trkpt lat="42.292503" lon="1.728359">
        <ele>1945.217</ele>
        <time>2018-09-22T08:04:28Z</time>
      </trkpt>
      <trkpt lat="42.292518" lon="1.728336">
        <ele>1945.908</ele>
        <time>2018-09-22T08:04:30Z</time>
      </trkpt>
      <trkpt lat="42.292545" lon="1.728307">
        <ele>1946.567</ele>
        <time>2018-09-22T08:04:33Z</time>
      </trkpt>
      <trkpt lat="42.292559" lon="1.728287">
        <ele>1946.923</ele>
        <time>2018-09-22T08:04:36Z</time>
      </trkpt>
      <trkpt lat="42.292571" lon="1.728277">
        <ele>1947.094</ele>
        <time>2018-09-22T08:04:38Z</time>
      </trkpt>
      <trkpt lat="42.292599" lon="1.728255">
        <ele>1947.358</ele>
        <time>2018-09-22T08:04:41Z</time>
      </trkpt>
      <trkpt lat="42.292610" lon="1.728235">
        <ele>1947.774</ele>
        <time>2018-09-22T08:04:43Z</time>
      </trkpt>
      <trkpt lat="42.292636" lon="1.728223">
        <ele>1947.874</ele>
        <time>2018-09-22T08:04:45Z</time>
      </trkpt>
      <trkpt lat="42.292653" lon="1.728208">
        <ele>1947.936</ele>
        <time>2018-09-22T08:04:47Z</time>
      </trkpt>
      <trkpt lat="42.292659" lon="1.728198">
        <ele>1948.068</ele>
        <time>2018-09-22T08:04:48Z</time>
      </trkpt>
      <trkpt lat="42.292671" lon="1.728171">
        <ele>1948.456</ele>
        <time>2018-09-22T08:04:51Z</time>
      </trkpt>
      <trkpt lat="42.292684" lon="1.728140">
        <ele>1948.759</ele>
        <time>2018-09-22T08:04:54Z</time>
      </trkpt>
      <trkpt lat="42.292686" lon="1.728128">
        <ele>1948.914</ele>
        <time>2018-09-22T08:04:55Z</time>
      </trkpt>
      <trkpt lat="42.292671" lon="1.728066">
        <ele>1949.908</ele>
        <time>2018-09-22T08:05:00Z</time>
      </trkpt>
      <trkpt lat="42.292659" lon="1.728001">
        <ele>1949.937</ele>
        <time>2018-09-22T08:05:04Z</time>
      </trkpt>
      <trkpt lat="42.292670" lon="1.727905">
        <ele>1949.453</ele>
        <time>2018-09-22T08:05:09Z</time>
      </trkpt>
      <trkpt lat="42.292668" lon="1.727874">
        <ele>1949.284</ele>
        <time>2018-09-22T08:05:11Z</time>
      </trkpt>
      <trkpt lat="42.292660" lon="1.727847">
        <ele>1949.148</ele>
        <time>2018-09-22T08:05:13Z</time>
      </trkpt>
      <trkpt lat="42.292634" lon="1.727817">
        <ele>1949.254</ele>
        <time>2018-09-22T08:05:15Z</time>
      </trkpt>
      <trkpt lat="42.292604" lon="1.727784">
        <ele>1949.264</ele>
        <time>2018-09-22T08:05:17Z</time>
      </trkpt>
      <trkpt lat="42.292579" lon="1.727754">
        <ele>1948.976</ele>
        <time>2018-09-22T08:05:19Z</time>
      </trkpt>
      <trkpt lat="42.292563" lon="1.727738">
        <ele>1948.678</ele>
        <time>2018-09-22T08:05:21Z</time>
      </trkpt>
      <trkpt lat="42.292546" lon="1.727721">
        <ele>1948.372</ele>
        <time>2018-09-22T08:05:23Z</time>
      </trkpt>
      <trkpt lat="42.292524" lon="1.727684">
        <ele>1947.513</ele>
        <time>2018-09-22T08:05:27Z</time>
      </trkpt>
      <trkpt lat="42.292512" lon="1.727675">
        <ele>1947.314</ele>
        <time>2018-09-22T08:05:28Z</time>
      </trkpt>
      <trkpt lat="42.292488" lon="1.727665">
        <ele>1947.408</ele>
        <time>2018-09-22T08:05:30Z</time>
      </trkpt>
      <trkpt lat="42.292470" lon="1.727657">
        <ele>1947.529</ele>
        <time>2018-09-22T08:05:32Z</time>
      </trkpt>
      <trkpt lat="42.292399" lon="1.727624">
        <ele>1947.845</ele>
        <time>2018-09-22T08:05:37Z</time>
      </trkpt>
      <trkpt lat="42.292368" lon="1.727614">
        <ele>1948.056</ele>
        <time>2018-09-22T08:05:39Z</time>
      </trkpt>
      <trkpt lat="42.292321" lon="1.727583">
        <ele>1947.730</ele>
        <time>2018-09-22T08:05:43Z</time>
      </trkpt>
      <trkpt lat="42.292248" lon="1.727555">
        <ele>1947.826</ele>
        <time>2018-09-22T08:05:48Z</time>
      </trkpt>
      <trkpt lat="42.292235" lon="1.727554">
        <ele>1947.966</ele>
        <time>2018-09-22T08:05:49Z</time>
      </trkpt>
      <trkpt lat="42.292210" lon="1.727545">
        <ele>1948.028</ele>
        <time>2018-09-22T08:05:51Z</time>
      </trkpt>
      <trkpt lat="42.292178" lon="1.727532">
        <ele>1948.280</ele>
        <time>2018-09-22T08:05:53Z</time>
      </trkpt>
      <trkpt lat="42.292127" lon="1.727507">
        <ele>1948.321</ele>
        <time>2018-09-22T08:05:56Z</time>
      </trkpt>
      <trkpt lat="42.292116" lon="1.727505">
        <ele>1948.441</ele>
        <time>2018-09-22T08:05:57Z</time>
      </trkpt>
      <trkpt lat="42.292101" lon="1.727495">
        <ele>1948.405</ele>
        <time>2018-09-22T08:05:59Z</time>
      </trkpt>
      <trkpt lat="42.292098" lon="1.727490">
        <ele>1948.208</ele>
        <time>2018-09-22T08:06:00Z</time>
      </trkpt>
      <trkpt lat="42.292089" lon="1.727483">
        <ele>1948.184</ele>
        <time>2018-09-22T08:06:01Z</time>
      </trkpt>
      <trkpt lat="42.292069" lon="1.727473">
        <ele>1948.110</ele>
        <time>2018-09-22T08:06:03Z</time>
      </trkpt>
      <trkpt lat="42.292054" lon="1.727456">
        <ele>1947.741</ele>
        <time>2018-09-22T08:06:06Z</time>
      </trkpt>
      <trkpt lat="42.292017" lon="1.727418">
        <ele>1946.875</ele>
        <time>2018-09-22T08:06:09Z</time>
      </trkpt>
      <trkpt lat="42.291991" lon="1.727413">
        <ele>1947.051</ele>
        <time>2018-09-22T08:06:11Z</time>
      </trkpt>
      <trkpt lat="42.291960" lon="1.727409">
        <ele>1947.491</ele>
        <time>2018-09-22T08:06:13Z</time>
      </trkpt>
      <trkpt lat="42.291948" lon="1.727405">
        <ele>1947.443</ele>
        <time>2018-09-22T08:06:14Z</time>
      </trkpt>
      <trkpt lat="42.291890" lon="1.727367">
        <ele>1947.515</ele>
        <time>2018-09-22T08:06:18Z</time>
      </trkpt>
      <trkpt lat="42.291859" lon="1.727342">
        <ele>1947.322</ele>
        <time>2018-09-22T08:06:20Z</time>
      </trkpt>
      <trkpt lat="42.291848" lon="1.727332">
        <ele>1947.262</ele>
        <time>2018-09-22T08:06:21Z</time>
      </trkpt>
      <trkpt lat="42.291808" lon="1.727291">
        <ele>1946.608</ele>
        <time>2018-09-22T08:06:24Z</time>
      </trkpt>
      <trkpt lat="42.291792" lon="1.727266">
        <ele>1946.008</ele>
        <time>2018-09-22T08:06:25Z</time>
      </trkpt>
      <trkpt lat="42.291772" lon="1.727230">
        <ele>1944.924</ele>
        <time>2018-09-22T08:06:27Z</time>
      </trkpt>
      <trkpt lat="42.291763" lon="1.727205">
        <ele>1944.380</ele>
        <time>2018-09-22T08:06:29Z</time>
      </trkpt>
      <trkpt lat="42.291747" lon="1.727178">
        <ele>1943.921</ele>
        <time>2018-09-22T08:06:31Z</time>
      </trkpt>
      <trkpt lat="42.291713" lon="1.727112">
        <ele>1942.925</ele>
        <time>2018-09-22T08:06:35Z</time>
      </trkpt>
      <trkpt lat="42.291703" lon="1.727075">
        <ele>1942.081</ele>
        <time>2018-09-22T08:06:37Z</time>
      </trkpt>
      <trkpt lat="42.291694" lon="1.727058">
        <ele>1941.821</ele>
        <time>2018-09-22T08:06:38Z</time>
      </trkpt>
      <trkpt lat="42.291592" lon="1.726883">
        <ele>1941.153</ele>
        <time>2018-09-22T08:06:49Z</time>
      </trkpt>
      <trkpt lat="42.291553" lon="1.726833">
        <ele>1941.935</ele>
        <time>2018-09-22T08:06:53Z</time>
      </trkpt>
      <trkpt lat="42.291528" lon="1.726785">
        <ele>1942.083</ele>
        <time>2018-09-22T08:06:57Z</time>
      </trkpt>
      <trkpt lat="42.291489" lon="1.726716">
        <ele>1942.325</ele>
        <time>2018-09-22T08:07:02Z</time>
      </trkpt>
      <trkpt lat="42.291485" lon="1.726649">
        <ele>1941.317</ele>
        <time>2018-09-22T08:07:06Z</time>
      </trkpt>
      <trkpt lat="42.291478" lon="1.726606">
        <ele>1941.108</ele>
        <time>2018-09-22T08:07:09Z</time>
      </trkpt>
      <trkpt lat="42.291458" lon="1.726532">
        <ele>1941.320</ele>
        <time>2018-09-22T08:07:13Z</time>
      </trkpt>
      <trkpt lat="42.291435" lon="1.726491">
        <ele>1941.936</ele>
        <time>2018-09-22T08:07:16Z</time>
      </trkpt>
      <trkpt lat="42.291436" lon="1.726462">
        <ele>1941.597</ele>
        <time>2018-09-22T08:07:18Z</time>
      </trkpt>
      <trkpt lat="42.291427" lon="1.726419">
        <ele>1941.531</ele>
        <time>2018-09-22T08:07:20Z</time>
      </trkpt>
      <trkpt lat="42.291416" lon="1.726368">
        <ele>1941.687</ele>
        <time>2018-09-22T08:07:23Z</time>
      </trkpt>
      <trkpt lat="42.291410" lon="1.726349">
        <ele>1941.877</ele>
        <time>2018-09-22T08:07:25Z</time>
      </trkpt>
      <trkpt lat="42.291410" lon="1.726338">
        <ele>1941.739</ele>
        <time>2018-09-22T08:07:26Z</time>
      </trkpt>
      <trkpt lat="42.291406" lon="1.726289">
        <ele>1941.851</ele>
        <time>2018-09-22T08:07:29Z</time>
      </trkpt>
      <trkpt lat="42.291401" lon="1.726244">
        <ele>1941.884</ele>
        <time>2018-09-22T08:07:32Z</time>
      </trkpt>
      <trkpt lat="42.291375" lon="1.726133">
        <ele>1942.707</ele>
        <time>2018-09-22T08:07:39Z</time>
      </trkpt>
      <trkpt lat="42.291366" lon="1.726074">
        <ele>1942.817</ele>
        <time>2018-09-22T08:07:42Z</time>
      </trkpt>
      <trkpt lat="42.291331" lon="1.725954">
        <ele>1943.408</ele>
        <time>2018-09-22T08:07:49Z</time>
      </trkpt>
      <trkpt lat="42.291318" lon="1.725921">
        <ele>1943.680</ele>
        <time>2018-09-22T08:07:51Z</time>
      </trkpt>
      <trkpt lat="42.291308" lon="1.725901">
        <ele>1943.946</ele>
        <time>2018-09-22T08:07:52Z</time>
      </trkpt>
      <trkpt lat="42.291295" lon="1.725880">
        <ele>1944.297</ele>
        <time>2018-09-22T08:07:53Z</time>
      </trkpt>
      <trkpt lat="42.291242" lon="1.725792">
        <ele>1944.821</ele>
        <time>2018-09-22T08:07:59Z</time>
      </trkpt>
      <trkpt lat="42.291197" lon="1.725762">
        <ele>1946.137</ele>
        <time>2018-09-22T08:08:03Z</time>
      </trkpt>
      <trkpt lat="42.291185" lon="1.725762">
        <ele>1946.757</ele>
        <time>2018-09-22T08:08:04Z</time>
      </trkpt>
      <trkpt lat="42.291173" lon="1.725759">
        <ele>1947.179</ele>
        <time>2018-09-22T08:08:05Z</time>
      </trkpt>
      <trkpt lat="42.291164" lon="1.725751">
        <ele>1947.441</ele>
        <time>2018-09-22T08:08:06Z</time>
      </trkpt>
      <trkpt lat="42.291142" lon="1.725698">
        <ele>1947.519</ele>
        <time>2018-09-22T08:08:10Z</time>
      </trkpt>
      <trkpt lat="42.291145" lon="1.725690">
        <ele>1947.309</ele>
        <time>2018-09-22T08:08:11Z</time>
      </trkpt>
      <trkpt lat="42.291148" lon="1.725682">
        <ele>1946.919</ele>
        <time>2018-09-22T08:08:12Z</time>
      </trkpt>
      <trkpt lat="42.291151" lon="1.725646">
        <ele>1946.208</ele>
        <time>2018-09-22T08:08:15Z</time>
      </trkpt>
      <trkpt lat="42.291149" lon="1.725634">
        <ele>1946.143</ele>
        <time>2018-09-22T08:08:16Z</time>
      </trkpt>
      <trkpt lat="42.291142" lon="1.725617">
        <ele>1946.219</ele>
        <time>2018-09-22T08:08:17Z</time>
      </trkpt>
      <trkpt lat="42.291120" lon="1.725589">
        <ele>1946.980</ele>
        <time>2018-09-22T08:08:20Z</time>
      </trkpt>
      <trkpt lat="42.291117" lon="1.725584">
        <ele>1947.084</ele>
        <time>2018-09-22T08:08:21Z</time>
      </trkpt>
      <trkpt lat="42.291111" lon="1.725576">
        <ele>1947.390</ele>
        <time>2018-09-22T08:08:22Z</time>
      </trkpt>
      <trkpt lat="42.291101" lon="1.725567">
        <ele>1947.570</ele>
        <time>2018-09-22T08:08:23Z</time>
      </trkpt>
      <trkpt lat="42.291077" lon="1.725537">
        <ele>1947.922</ele>
        <time>2018-09-22T08:08:26Z</time>
      </trkpt>
      <trkpt lat="42.291067" lon="1.725519">
        <ele>1947.924</ele>
        <time>2018-09-22T08:08:28Z</time>
      </trkpt>
      <trkpt lat="42.291064" lon="1.725511">
        <ele>1947.864</ele>
        <time>2018-09-22T08:08:29Z</time>
      </trkpt>
      <trkpt lat="42.291060" lon="1.725503">
        <ele>1947.706</ele>
        <time>2018-09-22T08:08:30Z</time>
      </trkpt>
      <trkpt lat="42.291049" lon="1.725491">
        <ele>1947.916</ele>
        <time>2018-09-22T08:08:32Z</time>
      </trkpt>
      <trkpt lat="42.291041" lon="1.725487">
        <ele>1948.108</ele>
        <time>2018-09-22T08:08:33Z</time>
      </trkpt>
      <trkpt lat="42.291034" lon="1.725485">
        <ele>1948.428</ele>
        <time>2018-09-22T08:08:34Z</time>
      </trkpt>
      <trkpt lat="42.291027" lon="1.725480">
        <ele>1948.534</ele>
        <time>2018-09-22T08:08:35Z</time>
      </trkpt>
      <trkpt lat="42.291011" lon="1.725460">
        <ele>1948.615</ele>
        <time>2018-09-22T08:08:37Z</time>
      </trkpt>
      <trkpt lat="42.290995" lon="1.725440">
        <ele>1948.729</ele>
        <time>2018-09-22T08:08:39Z</time>
      </trkpt>
      <trkpt lat="42.290987" lon="1.725431">
        <ele>1948.815</ele>
        <time>2018-09-22T08:08:41Z</time>
      </trkpt>
      <trkpt lat="42.290938" lon="1.725391">
        <ele>1949.515</ele>
        <time>2018-09-22T08:08:51Z</time>
      </trkpt>
      <trkpt lat="42.290925" lon="1.725390">
        <ele>1950.077</ele>
        <time>2018-09-22T08:08:52Z</time>
      </trkpt>
      <trkpt lat="42.290911" lon="1.725387">
        <ele>1950.569</ele>
        <time>2018-09-22T08:08:53Z</time>
      </trkpt>
      <trkpt lat="42.290904" lon="1.725378">
        <ele>1950.517</ele>
        <time>2018-09-22T08:08:54Z</time>
      </trkpt>
      <trkpt lat="42.290902" lon="1.725367">
        <ele>1950.287</ele>
        <time>2018-09-22T08:08:55Z</time>
      </trkpt>
      <trkpt lat="42.290898" lon="1.725345">
        <ele>1949.715</ele>
        <time>2018-09-22T08:08:57Z</time>
      </trkpt>
      <trkpt lat="42.290864" lon="1.725311">
        <ele>1949.908</ele>
        <time>2018-09-22T08:09:00Z</time>
      </trkpt>
      <trkpt lat="42.290854" lon="1.725293">
        <ele>1949.733</ele>
        <time>2018-09-22T08:09:01Z</time>
      </trkpt>
      <trkpt lat="42.290827" lon="1.725248">
        <ele>1949.219</ele>
        <time>2018-09-22T08:09:04Z</time>
      </trkpt>
      <trkpt lat="42.290794" lon="1.725195">
        <ele>1948.790</ele>
        <time>2018-09-22T08:09:08Z</time>
      </trkpt>
      <trkpt lat="42.290781" lon="1.725158">
        <ele>1947.984</ele>
        <time>2018-09-22T08:09:11Z</time>
      </trkpt>
      <trkpt lat="42.290788" lon="1.725133">
        <ele>1946.880</ele>
        <time>2018-09-22T08:09:22Z</time>
      </trkpt>
      <trkpt lat="42.290728" lon="1.725094">
        <ele>1947.460</ele>
        <time>2018-09-22T08:09:31Z</time>
      </trkpt>
      <trkpt lat="42.290686" lon="1.725085">
        <ele>1948.522</ele>
        <time>2018-09-22T08:09:34Z</time>
      </trkpt>
      <trkpt lat="42.290673" lon="1.725085">
        <ele>1948.974</ele>
        <time>2018-09-22T08:09:35Z</time>
      </trkpt>
      <trkpt lat="42.290658" lon="1.725086">
        <ele>1949.424</ele>
        <time>2018-09-22T08:09:36Z</time>
      </trkpt>
      <trkpt lat="42.290647" lon="1.725084">
        <ele>1949.604</ele>
        <time>2018-09-22T08:09:37Z</time>
      </trkpt>
      <trkpt lat="42.290638" lon="1.725075">
        <ele>1949.614</ele>
        <time>2018-09-22T08:09:38Z</time>
      </trkpt>
      <trkpt lat="42.290631" lon="1.725068">
        <ele>1949.508</ele>
        <time>2018-09-22T08:09:39Z</time>
      </trkpt>
      <trkpt lat="42.290591" lon="1.724964">
        <ele>1948.134</ele>
        <time>2018-09-22T08:09:46Z</time>
      </trkpt>
      <trkpt lat="42.290613" lon="1.724887">
        <ele>1947.510</ele>
        <time>2018-09-22T08:09:50Z</time>
      </trkpt>
      <trkpt lat="42.290622" lon="1.724851">
        <ele>1947.261</ele>
        <time>2018-09-22T08:09:52Z</time>
      </trkpt>
      <trkpt lat="42.290633" lon="1.724802">
        <ele>1946.765</ele>
        <time>2018-09-22T08:09:55Z</time>
      </trkpt>
      <trkpt lat="42.290639" lon="1.724787">
        <ele>1946.531</ele>
        <time>2018-09-22T08:09:56Z</time>
      </trkpt>
      <trkpt lat="42.290644" lon="1.724773">
        <ele>1946.221</ele>
        <time>2018-09-22T08:09:57Z</time>
      </trkpt>
      <trkpt lat="42.290647" lon="1.724759">
        <ele>1946.133</ele>
        <time>2018-09-22T08:09:58Z</time>
      </trkpt>
      <trkpt lat="42.290657" lon="1.724733">
        <ele>1945.585</ele>
        <time>2018-09-22T08:10:00Z</time>
      </trkpt>
      <trkpt lat="42.290670" lon="1.724711">
        <ele>1944.877</ele>
        <time>2018-09-22T08:10:02Z</time>
      </trkpt>
      <trkpt lat="42.290678" lon="1.724679">
        <ele>1944.361</ele>
        <time>2018-09-22T08:10:04Z</time>
      </trkpt>
      <trkpt lat="42.290651" lon="1.724507">
        <ele>1945.627</ele>
        <time>2018-09-22T08:10:13Z</time>
      </trkpt>
      <trkpt lat="42.290613" lon="1.724427">
        <ele>1947.208</ele>
        <time>2018-09-22T08:10:18Z</time>
      </trkpt>
      <trkpt lat="42.290604" lon="1.724414">
        <ele>1947.519</ele>
        <time>2018-09-22T08:10:19Z</time>
      </trkpt>
      <trkpt lat="42.290587" lon="1.724350">
        <ele>1947.975</ele>
        <time>2018-09-22T08:10:23Z</time>
      </trkpt>
      <trkpt lat="42.290590" lon="1.724333">
        <ele>1947.726</ele>
        <time>2018-09-22T08:10:24Z</time>
      </trkpt>
      <trkpt lat="42.290592" lon="1.724314">
        <ele>1947.510</ele>
        <time>2018-09-22T08:10:25Z</time>
      </trkpt>
      <trkpt lat="42.290568" lon="1.724221">
        <ele>1947.956</ele>
        <time>2018-09-22T08:10:30Z</time>
      </trkpt>
      <trkpt lat="42.290540" lon="1.724184">
        <ele>1949.036</ele>
        <time>2018-09-22T08:10:34Z</time>
      </trkpt>
      <trkpt lat="42.290537" lon="1.724175">
        <ele>1949.118</ele>
        <time>2018-09-22T08:10:35Z</time>
      </trkpt>
      <trkpt lat="42.290533" lon="1.724167">
        <ele>1949.350</ele>
        <time>2018-09-22T08:10:36Z</time>
      </trkpt>
      <trkpt lat="42.290533" lon="1.724156">
        <ele>1949.356</ele>
        <time>2018-09-22T08:10:37Z</time>
      </trkpt>
      <trkpt lat="42.290514" lon="1.724121">
        <ele>1950.459</ele>
        <time>2018-09-22T08:10:40Z</time>
      </trkpt>
      <trkpt lat="42.290503" lon="1.724100">
        <ele>1951.014</ele>
        <time>2018-09-22T08:10:42Z</time>
      </trkpt>
      <trkpt lat="42.290493" lon="1.724091">
        <ele>1951.408</ele>
        <time>2018-09-22T08:10:43Z</time>
      </trkpt>
      <trkpt lat="42.290481" lon="1.724082">
        <ele>1952.177</ele>
        <time>2018-09-22T08:10:45Z</time>
      </trkpt>
      <trkpt lat="42.290452" lon="1.724057">
        <ele>1953.423</ele>
        <time>2018-09-22T08:10:49Z</time>
      </trkpt>
      <trkpt lat="42.290448" lon="1.724033">
        <ele>1953.524</ele>
        <time>2018-09-22T08:10:51Z</time>
      </trkpt>
      <trkpt lat="42.290434" lon="1.723987">
        <ele>1953.958</ele>
        <time>2018-09-22T08:10:54Z</time>
      </trkpt>
      <trkpt lat="42.290419" lon="1.723940">
        <ele>1954.294</ele>
        <time>2018-09-22T08:10:57Z</time>
      </trkpt>
      <trkpt lat="42.290424" lon="1.723915">
        <ele>1953.934</ele>
        <time>2018-09-22T08:11:00Z</time>
      </trkpt>
      <trkpt lat="42.290429" lon="1.723862">
        <ele>1954.376</ele>
        <time>2018-09-22T08:11:05Z</time>
      </trkpt>
      <trkpt lat="42.290427" lon="1.723841">
        <ele>1955.088</ele>
        <time>2018-09-22T08:11:07Z</time>
      </trkpt>
      <trkpt lat="42.290431" lon="1.723827">
        <ele>1955.356</ele>
        <time>2018-09-22T08:11:09Z</time>
      </trkpt>
      <trkpt lat="42.290469" lon="1.723805">
        <ele>1954.859</ele>
        <time>2018-09-22T08:11:14Z</time>
      </trkpt>
      <trkpt lat="42.290478" lon="1.723794">
        <ele>1954.914</ele>
        <time>2018-09-22T08:11:15Z</time>
      </trkpt>
      <trkpt lat="42.290483" lon="1.723787">
        <ele>1955.008</ele>
        <time>2018-09-22T08:11:16Z</time>
      </trkpt>
      <trkpt lat="42.290492" lon="1.723793">
        <ele>1954.687</ele>
        <time>2018-09-22T08:11:18Z</time>
      </trkpt>
      <trkpt lat="42.290531" lon="1.723819">
        <ele>1952.553</ele>
        <time>2018-09-22T08:11:26Z</time>
      </trkpt>
      <trkpt lat="42.290554" lon="1.723812">
        <ele>1952.074</ele>
        <time>2018-09-22T08:11:28Z</time>
      </trkpt>
      <trkpt lat="42.290599" lon="1.723808">
        <ele>1951.558</ele>
        <time>2018-09-22T08:11:32Z</time>
      </trkpt>
      <trkpt lat="42.290640" lon="1.723794">
        <ele>1951.444</ele>
        <time>2018-09-22T08:11:36Z</time>
      </trkpt>
      <trkpt lat="42.290671" lon="1.723794">
        <ele>1950.964</ele>
        <time>2018-09-22T08:11:38Z</time>
      </trkpt>
      <trkpt lat="42.290683" lon="1.723792">
        <ele>1950.846</ele>
        <time>2018-09-22T08:11:39Z</time>
      </trkpt>
      <trkpt lat="42.290717" lon="1.723762">
        <ele>1951.448</ele>
        <time>2018-09-22T08:11:42Z</time>
      </trkpt>
      <trkpt lat="42.290724" lon="1.723752">
        <ele>1951.659</ele>
        <time>2018-09-22T08:11:43Z</time>
      </trkpt>
      <trkpt lat="42.290726" lon="1.723743">
        <ele>1952.003</ele>
        <time>2018-09-22T08:11:44Z</time>
      </trkpt>
      <trkpt lat="42.290790" lon="1.723704">
        <ele>1952.323</ele>
        <time>2018-09-22T08:11:51Z</time>
      </trkpt>
      <trkpt lat="42.290801" lon="1.723674">
        <ele>1953.208</ele>
        <time>2018-09-22T08:11:53Z</time>
      </trkpt>
      <trkpt lat="42.290803" lon="1.723660">
        <ele>1953.747</ele>
        <time>2018-09-22T08:11:54Z</time>
      </trkpt>
      <trkpt lat="42.290807" lon="1.723647">
        <ele>1954.113</ele>
        <time>2018-09-22T08:11:55Z</time>
      </trkpt>
      <trkpt lat="42.290820" lon="1.723623">
        <ele>1954.854</ele>
        <time>2018-09-22T08:11:57Z</time>
      </trkpt>
      <trkpt lat="42.290822" lon="1.723606">
        <ele>1955.468</ele>
        <time>2018-09-22T08:11:58Z</time>
      </trkpt>
      <trkpt lat="42.290827" lon="1.723595">
        <ele>1955.874</ele>
        <time>2018-09-22T08:11:59Z</time>
      </trkpt>
      <trkpt lat="42.290858" lon="1.723573">
        <ele>1956.554</ele>
        <time>2018-09-22T08:12:02Z</time>
      </trkpt>
      <trkpt lat="42.290865" lon="1.723572">
        <ele>1956.576</ele>
        <time>2018-09-22T08:12:03Z</time>
      </trkpt>
      <trkpt lat="42.290870" lon="1.723571">
        <ele>1956.618</ele>
        <time>2018-09-22T08:12:04Z</time>
      </trkpt>
      <trkpt lat="42.290911" lon="1.723581">
        <ele>1956.175</ele>
        <time>2018-09-22T08:12:07Z</time>
      </trkpt>
      <trkpt lat="42.290924" lon="1.723580">
        <ele>1956.128</ele>
        <time>2018-09-22T08:12:08Z</time>
      </trkpt>
      <trkpt lat="42.290974" lon="1.723575">
        <ele>1956.220</ele>
        <time>2018-09-22T08:12:11Z</time>
      </trkpt>
      <trkpt lat="42.291087" lon="1.723561">
        <ele>1956.308</ele>
        <time>2018-09-22T08:12:20Z</time>
      </trkpt>
      <trkpt lat="42.291124" lon="1.723530">
        <ele>1956.979</ele>
        <time>2018-09-22T08:12:23Z</time>
      </trkpt>
      <trkpt lat="42.291131" lon="1.723506">
        <ele>1957.585</ele>
        <time>2018-09-22T08:12:25Z</time>
      </trkpt>
      <trkpt lat="42.291134" lon="1.723492">
        <ele>1957.816</ele>
        <time>2018-09-22T08:12:26Z</time>
      </trkpt>
      <trkpt lat="42.291149" lon="1.723468">
        <ele>1958.360</ele>
        <time>2018-09-22T08:12:28Z</time>
      </trkpt>
      <trkpt lat="42.291162" lon="1.723453">
        <ele>1958.676</ele>
        <time>2018-09-22T08:12:30Z</time>
      </trkpt>
      <trkpt lat="42.291170" lon="1.723444">
        <ele>1958.846</ele>
        <time>2018-09-22T08:12:31Z</time>
      </trkpt>
      <trkpt lat="42.291195" lon="1.723415">
        <ele>1959.438</ele>
        <time>2018-09-22T08:12:34Z</time>
      </trkpt>
      <trkpt lat="42.291207" lon="1.723405">
        <ele>1959.560</ele>
        <time>2018-09-22T08:12:35Z</time>
      </trkpt>
      <trkpt lat="42.291240" lon="1.723385">
        <ele>1959.873</ele>
        <time>2018-09-22T08:12:37Z</time>
      </trkpt>
      <trkpt lat="42.291261" lon="1.723373">
        <ele>1959.985</ele>
        <time>2018-09-22T08:12:39Z</time>
      </trkpt>
      <trkpt lat="42.291280" lon="1.723356">
        <ele>1960.213</ele>
        <time>2018-09-22T08:12:41Z</time>
      </trkpt>
      <trkpt lat="42.291310" lon="1.723343">
        <ele>1960.308</ele>
        <time>2018-09-22T08:12:44Z</time>
      </trkpt>
      <trkpt lat="42.291405" lon="1.723310">
        <ele>1960.559</ele>
        <time>2018-09-22T08:12:52Z</time>
      </trkpt>
      <trkpt lat="42.291413" lon="1.723305">
        <ele>1960.635</ele>
        <time>2018-09-22T08:12:53Z</time>
      </trkpt>
      <trkpt lat="42.291481" lon="1.723268">
        <ele>1961.696</ele>
        <time>2018-09-22T08:12:59Z</time>
      </trkpt>
      <trkpt lat="42.291545" lon="1.723164">
        <ele>1963.890</ele>
        <time>2018-09-22T08:13:07Z</time>
      </trkpt>
      <trkpt lat="42.291548" lon="1.723150">
        <ele>1964.186</ele>
        <time>2018-09-22T08:13:08Z</time>
      </trkpt>
      <trkpt lat="42.291556" lon="1.723123">
        <ele>1964.616</ele>
        <time>2018-09-22T08:13:10Z</time>
      </trkpt>
      <trkpt lat="42.291569" lon="1.723089">
        <ele>1965.378</ele>
        <time>2018-09-22T08:13:13Z</time>
      </trkpt>
      <trkpt lat="42.291573" lon="1.723076">
        <ele>1965.690</ele>
        <time>2018-09-22T08:13:14Z</time>
      </trkpt>
      <trkpt lat="42.291585" lon="1.723054">
        <ele>1966.043</ele>
        <time>2018-09-22T08:13:16Z</time>
      </trkpt>
      <trkpt lat="42.291606" lon="1.723033">
        <ele>1966.564</ele>
        <time>2018-09-22T08:13:20Z</time>
      </trkpt>
      <trkpt lat="42.291607" lon="1.723021">
        <ele>1966.710</ele>
        <time>2018-09-22T08:13:21Z</time>
      </trkpt>
      <trkpt lat="42.291625" lon="1.722994">
        <ele>1967.308</ele>
        <time>2018-09-22T08:13:24Z</time>
      </trkpt>
      <trkpt lat="42.291632" lon="1.722974">
        <ele>1967.886</ele>
        <time>2018-09-22T08:13:26Z</time>
      </trkpt>
      <trkpt lat="42.291633" lon="1.722937">
        <ele>1968.682</ele>
        <time>2018-09-22T08:13:29Z</time>
      </trkpt>
      <trkpt lat="42.291630" lon="1.722922">
        <ele>1969.043</ele>
        <time>2018-09-22T08:13:30Z</time>
      </trkpt>
      <trkpt lat="42.291631" lon="1.722907">
        <ele>1969.367</ele>
        <time>2018-09-22T08:13:31Z</time>
      </trkpt>
      <trkpt lat="42.291639" lon="1.722889">
        <ele>1969.793</ele>
        <time>2018-09-22T08:13:34Z</time>
      </trkpt>
      <trkpt lat="42.291642" lon="1.722881">
        <ele>1969.823</ele>
        <time>2018-09-22T08:13:35Z</time>
      </trkpt>
      <trkpt lat="42.291643" lon="1.722865">
        <ele>1970.295</ele>
        <time>2018-09-22T08:13:36Z</time>
      </trkpt>
      <trkpt lat="42.291663" lon="1.722818">
        <ele>1971.197</ele>
        <time>2018-09-22T08:13:41Z</time>
      </trkpt>
      <trkpt lat="42.291676" lon="1.722771">
        <ele>1972.176</ele>
        <time>2018-09-22T08:13:45Z</time>
      </trkpt>
      <trkpt lat="42.291690" lon="1.722740">
        <ele>1972.690</ele>
        <time>2018-09-22T08:13:48Z</time>
      </trkpt>
      <trkpt lat="42.291718" lon="1.722732">
        <ele>1972.819</ele>
        <time>2018-09-22T08:13:50Z</time>
      </trkpt>
      <trkpt lat="42.291729" lon="1.722726">
        <ele>1972.908</ele>
        <time>2018-09-22T08:13:51Z</time>
      </trkpt>
      <trkpt lat="42.291771" lon="1.722679">
        <ele>1973.749</ele>
        <time>2018-09-22T08:13:56Z</time>
      </trkpt>
      <trkpt lat="42.291795" lon="1.722635">
        <ele>1974.575</ele>
        <time>2018-09-22T08:13:59Z</time>
      </trkpt>
      <trkpt lat="42.291825" lon="1.722589">
        <ele>1975.336</ele>
        <time>2018-09-22T08:14:03Z</time>
      </trkpt>
      <trkpt lat="42.291849" lon="1.722552">
        <ele>1976.060</ele>
        <time>2018-09-22T08:14:06Z</time>
      </trkpt>
      <trkpt lat="42.291916" lon="1.722542">
        <ele>1976.276</ele>
        <time>2018-09-22T08:14:11Z</time>
      </trkpt>
      <trkpt lat="42.291981" lon="1.722498">
        <ele>1976.956</ele>
        <time>2018-09-22T08:14:16Z</time>
      </trkpt>
      <trkpt lat="42.291993" lon="1.722460">
        <ele>1977.578</ele>
        <time>2018-09-22T08:14:19Z</time>
      </trkpt>
      <trkpt lat="42.292023" lon="1.722451">
        <ele>1977.520</ele>
        <time>2018-09-22T08:14:21Z</time>
      </trkpt>
      <trkpt lat="42.292041" lon="1.722448">
        <ele>1977.557</ele>
        <time>2018-09-22T08:14:22Z</time>
      </trkpt>
      <trkpt lat="42.292087" lon="1.722451">
        <ele>1977.200</ele>
        <time>2018-09-22T08:14:24Z</time>
      </trkpt>
      <trkpt lat="42.292157" lon="1.722414">
        <ele>1977.520</ele>
        <time>2018-09-22T08:14:29Z</time>
      </trkpt>
      <trkpt lat="42.292182" lon="1.722383">
        <ele>1977.808</ele>
        <time>2018-09-22T08:14:32Z</time>
      </trkpt>
      <trkpt lat="42.292303" lon="1.722272">
        <ele>1980.977</ele>
        <time>2018-09-22T08:14:44Z</time>
      </trkpt>
      <trkpt lat="42.292322" lon="1.722279">
        <ele>1981.183</ele>
        <time>2018-09-22T08:14:45Z</time>
      </trkpt>
      <trkpt lat="42.292341" lon="1.722290">
        <ele>1981.314</ele>
        <time>2018-09-22T08:14:46Z</time>
      </trkpt>
      <trkpt lat="42.292393" lon="1.722334">
        <ele>1981.548</ele>
        <time>2018-09-22T08:14:50Z</time>
      </trkpt>
      <trkpt lat="42.292459" lon="1.722395">
        <ele>1981.534</ele>
        <time>2018-09-22T08:14:55Z</time>
      </trkpt>
      <trkpt lat="42.292474" lon="1.722396">
        <ele>1981.724</ele>
        <time>2018-09-22T08:14:56Z</time>
      </trkpt>
      <trkpt lat="42.292492" lon="1.722396">
        <ele>1982.126</ele>
        <time>2018-09-22T08:14:58Z</time>
      </trkpt>
      <trkpt lat="42.292497" lon="1.722395">
        <ele>1982.268</ele>
        <time>2018-09-22T08:15:00Z</time>
      </trkpt>
      <trkpt lat="42.292500" lon="1.722393">
        <ele>1982.322</ele>
        <time>2018-09-22T08:15:01Z</time>
      </trkpt>
      <trkpt lat="42.292502" lon="1.722391">
        <ele>1982.362</ele>
        <time>2018-09-22T08:15:03Z</time>
      </trkpt>
      <trkpt lat="42.292510" lon="1.722394">
        <ele>1982.408</ele>
        <time>2018-09-22T08:15:04Z</time>
      </trkpt>
      <trkpt lat="42.292538" lon="1.722412">
        <ele>1982.408</ele>
        <time>2018-09-22T08:15:06Z</time>
      </trkpt>
      <trkpt lat="42.292553" lon="1.722413">
        <ele>1982.664</ele>
        <time>2018-09-22T08:15:07Z</time>
      </trkpt>
      <trkpt lat="42.292575" lon="1.722412">
        <ele>1982.910</ele>
        <time>2018-09-22T08:15:09Z</time>
      </trkpt>
      <trkpt lat="42.292594" lon="1.722403">
        <ele>1983.491</ele>
        <time>2018-09-22T08:15:11Z</time>
      </trkpt>
      <trkpt lat="42.292613" lon="1.722412">
        <ele>1983.565</ele>
        <time>2018-09-22T08:15:12Z</time>
      </trkpt>
      <trkpt lat="42.292638" lon="1.722409">
        <ele>1983.931</ele>
        <time>2018-09-22T08:15:14Z</time>
      </trkpt>
      <trkpt lat="42.292721" lon="1.722378">
        <ele>1985.811</ele>
        <time>2018-09-22T08:15:21Z</time>
      </trkpt>
      <trkpt lat="42.292727" lon="1.722361">
        <ele>1986.283</ele>
        <time>2018-09-22T08:15:22Z</time>
      </trkpt>
      <trkpt lat="42.292749" lon="1.722340">
        <ele>1987.095</ele>
        <time>2018-09-22T08:15:24Z</time>
      </trkpt>
      <trkpt lat="42.292798" lon="1.722317">
        <ele>1988.324</ele>
        <time>2018-09-22T08:15:28Z</time>
      </trkpt>
      <trkpt lat="42.292852" lon="1.722291">
        <ele>1989.704</ele>
        <time>2018-09-22T08:15:33Z</time>
      </trkpt>
      <trkpt lat="42.292886" lon="1.722265">
        <ele>1990.714</ele>
        <time>2018-09-22T08:15:36Z</time>
      </trkpt>
      <trkpt lat="42.292910" lon="1.722249">
        <ele>1991.408</ele>
        <time>2018-09-22T08:15:38Z</time>
      </trkpt>
      <trkpt lat="42.292930" lon="1.722222">
        <ele>1992.244</ele>
        <time>2018-09-22T08:15:40Z</time>
      </trkpt>
      <trkpt lat="42.292942" lon="1.722217">
        <ele>1992.560</ele>
        <time>2018-09-22T08:15:41Z</time>
      </trkpt>
      <trkpt lat="42.292962" lon="1.722193">
        <ele>1993.471</ele>
        <time>2018-09-22T08:15:44Z</time>
      </trkpt>
      <trkpt lat="42.292974" lon="1.722186">
        <ele>1993.825</ele>
        <time>2018-09-22T08:15:45Z</time>
      </trkpt>
      <trkpt lat="42.292993" lon="1.722184">
        <ele>1994.221</ele>
        <time>2018-09-22T08:15:47Z</time>
      </trkpt>
      <trkpt lat="42.293012" lon="1.722214">
        <ele>1993.691</ele>
        <time>2018-09-22T08:15:49Z</time>
      </trkpt>
      <trkpt lat="42.293021" lon="1.722221">
        <ele>1993.513</ele>
        <time>2018-09-22T08:15:50Z</time>
      </trkpt>
      <trkpt lat="42.293049" lon="1.722216">
        <ele>1994.015</ele>
        <time>2018-09-22T08:15:53Z</time>
      </trkpt>
      <trkpt lat="42.293057" lon="1.722210">
        <ele>1994.325</ele>
        <time>2018-09-22T08:15:54Z</time>
      </trkpt>
      <trkpt lat="42.293103" lon="1.722171">
        <ele>1996.126</ele>
        <time>2018-09-22T08:15:58Z</time>
      </trkpt>
      <trkpt lat="42.293124" lon="1.722095">
        <ele>1998.408</ele>
        <time>2018-09-22T08:16:02Z</time>
      </trkpt>
      <trkpt lat="42.293139" lon="1.722072">
        <ele>1999.108</ele>
        <time>2018-09-22T08:16:04Z</time>
      </trkpt>
      <trkpt lat="42.293176" lon="1.722082">
        <ele>1999.374</ele>
        <time>2018-09-22T08:16:07Z</time>
      </trkpt>
      <trkpt lat="42.293239" lon="1.722063">
        <ele>2000.310</ele>
        <time>2018-09-22T08:16:12Z</time>
      </trkpt>
      <trkpt lat="42.293248" lon="1.722061">
        <ele>2000.561</ele>
        <time>2018-09-22T08:16:13Z</time>
      </trkpt>
      <trkpt lat="42.293274" lon="1.722053">
        <ele>2000.825</ele>
        <time>2018-09-22T08:16:15Z</time>
      </trkpt>
      <trkpt lat="42.293303" lon="1.722052">
        <ele>2001.191</ele>
        <time>2018-09-22T08:16:18Z</time>
      </trkpt>
      <trkpt lat="42.293310" lon="1.722047">
        <ele>2001.361</ele>
        <time>2018-09-22T08:16:19Z</time>
      </trkpt>
      <trkpt lat="42.293321" lon="1.722039">
        <ele>2001.573</ele>
        <time>2018-09-22T08:16:20Z</time>
      </trkpt>
      <trkpt lat="42.293345" lon="1.722025">
        <ele>2002.145</ele>
        <time>2018-09-22T08:16:22Z</time>
      </trkpt>
      <trkpt lat="42.293360" lon="1.722020">
        <ele>2002.523</ele>
        <time>2018-09-22T08:16:23Z</time>
      </trkpt>
      <trkpt lat="42.293397" lon="1.722006">
        <ele>2003.683</ele>
        <time>2018-09-22T08:16:26Z</time>
      </trkpt>
      <trkpt lat="42.293406" lon="1.721999">
        <ele>2003.911</ele>
        <time>2018-09-22T08:16:27Z</time>
      </trkpt>
      <trkpt lat="42.293442" lon="1.721953">
        <ele>2005.208</ele>
        <time>2018-09-22T08:16:32Z</time>
      </trkpt>
      <trkpt lat="42.293464" lon="1.721945">
        <ele>2005.884</ele>
        <time>2018-09-22T08:16:34Z</time>
      </trkpt>
      <trkpt lat="42.293488" lon="1.721931">
        <ele>2006.560</ele>
        <time>2018-09-22T08:16:37Z</time>
      </trkpt>
      <trkpt lat="42.293500" lon="1.721927">
        <ele>2006.941</ele>
        <time>2018-09-22T08:16:38Z</time>
      </trkpt>
      <trkpt lat="42.293530" lon="1.721907">
        <ele>2007.845</ele>
        <time>2018-09-22T08:16:41Z</time>
      </trkpt>
      <trkpt lat="42.293537" lon="1.721901">
        <ele>2008.061</ele>
        <time>2018-09-22T08:16:42Z</time>
      </trkpt>
      <trkpt lat="42.293563" lon="1.721897">
        <ele>2008.641</ele>
        <time>2018-09-22T08:16:45Z</time>
      </trkpt>
      <trkpt lat="42.293577" lon="1.721877">
        <ele>2009.143</ele>
        <time>2018-09-22T08:16:48Z</time>
      </trkpt>
      <trkpt lat="42.293583" lon="1.721870">
        <ele>2009.355</ele>
        <time>2018-09-22T08:16:49Z</time>
      </trkpt>
      <trkpt lat="42.293598" lon="1.721839">
        <ele>2009.947</ele>
        <time>2018-09-22T08:16:52Z</time>
      </trkpt>
      <trkpt lat="42.293614" lon="1.721835">
        <ele>2010.229</ele>
        <time>2018-09-22T08:16:54Z</time>
      </trkpt>
      <trkpt lat="42.293621" lon="1.721836">
        <ele>2010.321</ele>
        <time>2018-09-22T08:16:55Z</time>
      </trkpt>
      <trkpt lat="42.293650" lon="1.721812">
        <ele>2010.908</ele>
        <time>2018-09-22T08:16:59Z</time>
      </trkpt>
      <trkpt lat="42.293687" lon="1.721786">
        <ele>2011.636</ele>
        <time>2018-09-22T08:17:03Z</time>
      </trkpt>
      <trkpt lat="42.293699" lon="1.721782">
        <ele>2011.782</ele>
        <time>2018-09-22T08:17:04Z</time>
      </trkpt>
      <trkpt lat="42.293710" lon="1.721778">
        <ele>2011.913</ele>
        <time>2018-09-22T08:17:05Z</time>
      </trkpt>
      <trkpt lat="42.293726" lon="1.721759">
        <ele>2012.277</ele>
        <time>2018-09-22T08:17:07Z</time>
      </trkpt>
      <trkpt lat="42.293757" lon="1.721735">
        <ele>2012.733</ele>
        <time>2018-09-22T08:17:10Z</time>
      </trkpt>
      <trkpt lat="42.293766" lon="1.721732">
        <ele>2012.853</ele>
        <time>2018-09-22T08:17:11Z</time>
      </trkpt>
      <trkpt lat="42.293786" lon="1.721694">
        <ele>2013.175</ele>
        <time>2018-09-22T08:17:16Z</time>
      </trkpt>
      <trkpt lat="42.293793" lon="1.721646">
        <ele>2013.877</ele>
        <time>2018-09-22T08:17:20Z</time>
      </trkpt>
      <trkpt lat="42.293799" lon="1.721617">
        <ele>2014.585</ele>
        <time>2018-09-22T08:17:22Z</time>
      </trkpt>
      <trkpt lat="42.293800" lon="1.721575">
        <ele>2015.589</ele>
        <time>2018-09-22T08:17:25Z</time>
      </trkpt>
      <trkpt lat="42.293800" lon="1.721562">
        <ele>2015.817</ele>
        <time>2018-09-22T08:17:26Z</time>
      </trkpt>
      <trkpt lat="42.293799" lon="1.721512">
        <ele>2017.008</ele>
        <time>2018-09-22T08:17:29Z</time>
      </trkpt>
      <trkpt lat="42.293795" lon="1.721478">
        <ele>2017.810</ele>
        <time>2018-09-22T08:17:32Z</time>
      </trkpt>
      <trkpt lat="42.293775" lon="1.721398">
        <ele>2019.556</ele>
        <time>2018-09-22T08:17:38Z</time>
      </trkpt>
      <trkpt lat="42.293766" lon="1.721363">
        <ele>2020.057</ele>
        <time>2018-09-22T08:17:40Z</time>
      </trkpt>
      <trkpt lat="42.293768" lon="1.721341">
        <ele>2020.311</ele>
        <time>2018-09-22T08:17:42Z</time>
      </trkpt>
      <trkpt lat="42.293767" lon="1.721313">
        <ele>2020.757</ele>
        <time>2018-09-22T08:17:44Z</time>
      </trkpt>
      <trkpt lat="42.293765" lon="1.721265">
        <ele>2021.337</ele>
        <time>2018-09-22T08:17:48Z</time>
      </trkpt>
      <trkpt lat="42.293756" lon="1.721226">
        <ele>2021.819</ele>
        <time>2018-09-22T08:17:51Z</time>
      </trkpt>
      <trkpt lat="42.293753" lon="1.721213">
        <ele>2022.071</ele>
        <time>2018-09-22T08:17:52Z</time>
      </trkpt>
      <trkpt lat="42.293749" lon="1.721174">
        <ele>2022.554</ele>
        <time>2018-09-22T08:17:54Z</time>
      </trkpt>
      <trkpt lat="42.293755" lon="1.721125">
        <ele>2023.356</ele>
        <time>2018-09-22T08:17:57Z</time>
      </trkpt>
      <trkpt lat="42.293769" lon="1.721100">
        <ele>2023.711</ele>
        <time>2018-09-22T08:17:59Z</time>
      </trkpt>
      <trkpt lat="42.293785" lon="1.721076">
        <ele>2024.108</ele>
        <time>2018-09-22T08:18:01Z</time>
      </trkpt>
      <trkpt lat="42.293804" lon="1.721043">
        <ele>2024.657</ele>
        <time>2018-09-22T08:18:04Z</time>
      </trkpt>
      <trkpt lat="42.293828" lon="1.721013">
        <ele>2025.063</ele>
        <time>2018-09-22T08:18:07Z</time>
      </trkpt>
      <trkpt lat="42.293841" lon="1.720968">
        <ele>2025.684</ele>
        <time>2018-09-22T08:18:10Z</time>
      </trkpt>
      <trkpt lat="42.293868" lon="1.720879">
        <ele>2026.638</ele>
        <time>2018-09-22T08:18:15Z</time>
      </trkpt>
      <trkpt lat="42.293877" lon="1.720845">
        <ele>2026.954</ele>
        <time>2018-09-22T08:18:17Z</time>
      </trkpt>
      <trkpt lat="42.293874" lon="1.720804">
        <ele>2027.634</ele>
        <time>2018-09-22T08:18:19Z</time>
      </trkpt>
      <trkpt lat="42.293876" lon="1.720765">
        <ele>2028.356</ele>
        <time>2018-09-22T08:18:21Z</time>
      </trkpt>
      <trkpt lat="42.293922" lon="1.720648">
        <ele>2028.878</ele>
        <time>2018-09-22T08:18:28Z</time>
      </trkpt>
      <trkpt lat="42.293933" lon="1.720638">
        <ele>2028.533</ele>
        <time>2018-09-22T08:18:29Z</time>
      </trkpt>
      <trkpt lat="42.293961" lon="1.720599">
        <ele>2028.323</ele>
        <time>2018-09-22T08:18:32Z</time>
      </trkpt>
      <trkpt lat="42.293967" lon="1.720585">
        <ele>2028.415</ele>
        <time>2018-09-22T08:18:33Z</time>
      </trkpt>
      <trkpt lat="42.293989" lon="1.720553">
        <ele>2028.408</ele>
        <time>2018-09-22T08:18:37Z</time>
      </trkpt>
      <trkpt lat="42.293995" lon="1.720544">
        <ele>2028.455</ele>
        <time>2018-09-22T08:18:38Z</time>
      </trkpt>
      <trkpt lat="42.294018" lon="1.720519">
        <ele>2028.461</ele>
        <time>2018-09-22T08:18:41Z</time>
      </trkpt>
      <trkpt lat="42.294034" lon="1.720477">
        <ele>2029.122</ele>
        <time>2018-09-22T08:18:44Z</time>
      </trkpt>
      <trkpt lat="42.294082" lon="1.720306">
        <ele>2033.526</ele>
        <time>2018-09-22T08:18:54Z</time>
      </trkpt>
      <trkpt lat="42.294105" lon="1.720279">
        <ele>2034.012</ele>
        <time>2018-09-22T08:18:56Z</time>
      </trkpt>
      <trkpt lat="42.294118" lon="1.720271">
        <ele>2034.172</ele>
        <time>2018-09-22T08:18:57Z</time>
      </trkpt>
      <trkpt lat="42.294138" lon="1.720262">
        <ele>2034.234</ele>
        <time>2018-09-22T08:18:59Z</time>
      </trkpt>
      <trkpt lat="42.294162" lon="1.720249">
        <ele>2034.466</ele>
        <time>2018-09-22T08:19:01Z</time>
      </trkpt>
      <trkpt lat="42.294174" lon="1.720247">
        <ele>2034.169</ele>
        <time>2018-09-22T08:19:02Z</time>
      </trkpt>
      <trkpt lat="42.294187" lon="1.720246">
        <ele>2033.604</ele>
        <time>2018-09-22T08:19:03Z</time>
      </trkpt>
      <trkpt lat="42.294197" lon="1.720235">
        <ele>2033.724</ele>
        <time>2018-09-22T08:19:04Z</time>
      </trkpt>
      <trkpt lat="42.294218" lon="1.720221">
        <ele>2033.408</ele>
        <time>2018-09-22T08:19:06Z</time>
      </trkpt>
      <trkpt lat="42.294230" lon="1.720210">
        <ele>2033.358</ele>
        <time>2018-09-22T08:19:08Z</time>
      </trkpt>
      <trkpt lat="42.294249" lon="1.720202">
        <ele>2032.724</ele>
        <time>2018-09-22T08:19:10Z</time>
      </trkpt>
      <trkpt lat="42.294261" lon="1.720201">
        <ele>2032.355</ele>
        <time>2018-09-22T08:19:11Z</time>
      </trkpt>
      <trkpt lat="42.294274" lon="1.720183">
        <ele>2032.439</ele>
        <time>2018-09-22T08:19:13Z</time>
      </trkpt>
      <trkpt lat="42.294282" lon="1.720178">
        <ele>2032.295</ele>
        <time>2018-09-22T08:19:14Z</time>
      </trkpt>
      <trkpt lat="42.294309" lon="1.720152">
        <ele>2031.875</ele>
        <time>2018-09-22T08:19:17Z</time>
      </trkpt>
      <trkpt lat="42.294338" lon="1.720125">
        <ele>2031.347</ele>
        <time>2018-09-22T08:19:20Z</time>
      </trkpt>
      <trkpt lat="42.294393" lon="1.720070">
        <ele>2030.199</ele>
        <time>2018-09-22T08:19:26Z</time>
      </trkpt>
      <trkpt lat="42.294401" lon="1.720026">
        <ele>2030.932</ele>
        <time>2018-09-22T08:19:29Z</time>
      </trkpt>
      <trkpt lat="42.294357" lon="1.719941">
        <ele>2034.392</ele>
        <time>2018-09-22T08:19:34Z</time>
      </trkpt>
      <trkpt lat="42.294348" lon="1.719922">
        <ele>2034.911</ele>
        <time>2018-09-22T08:19:36Z</time>
      </trkpt>
      <trkpt lat="42.294351" lon="1.719840">
        <ele>2034.908</ele>
        <time>2018-09-22T08:19:41Z</time>
      </trkpt>
      <trkpt lat="42.294350" lon="1.719816">
        <ele>2035.065</ele>
        <time>2018-09-22T08:19:42Z</time>
      </trkpt>
      <trkpt lat="42.294350" lon="1.719797">
        <ele>2035.071</ele>
        <time>2018-09-22T08:19:43Z</time>
      </trkpt>
      <trkpt lat="42.294345" lon="1.719779">
        <ele>2035.422</ele>
        <time>2018-09-22T08:19:44Z</time>
      </trkpt>
      <trkpt lat="42.294339" lon="1.719744">
        <ele>2035.936</ele>
        <time>2018-09-22T08:19:46Z</time>
      </trkpt>
      <trkpt lat="42.294340" lon="1.719714">
        <ele>2035.882</ele>
        <time>2018-09-22T08:19:48Z</time>
      </trkpt>
      <trkpt lat="42.294339" lon="1.719697">
        <ele>2035.882</ele>
        <time>2018-09-22T08:19:49Z</time>
      </trkpt>
      <trkpt lat="42.294320" lon="1.719614">
        <ele>2036.714</ele>
        <time>2018-09-22T08:19:53Z</time>
      </trkpt>
      <trkpt lat="42.294316" lon="1.719596">
        <ele>2036.966</ele>
        <time>2018-09-22T08:19:55Z</time>
      </trkpt>
      <trkpt lat="42.294306" lon="1.719586">
        <ele>2037.631</ele>
        <time>2018-09-22T08:19:56Z</time>
      </trkpt>
      <trkpt lat="42.294295" lon="1.719576">
        <ele>2038.561</ele>
        <time>2018-09-22T08:19:57Z</time>
      </trkpt>
      <trkpt lat="42.294285" lon="1.719546">
        <ele>2039.207</ele>
        <time>2018-09-22T08:20:00Z</time>
      </trkpt>
      <trkpt lat="42.294262" lon="1.719504">
        <ele>2040.908</ele>
        <time>2018-09-22T08:20:03Z</time>
      </trkpt>
      <trkpt lat="42.294256" lon="1.719475">
        <ele>2041.325</ele>
        <time>2018-09-22T08:20:05Z</time>
      </trkpt>
      <trkpt lat="42.294257" lon="1.719446">
        <ele>2041.231</ele>
        <time>2018-09-22T08:20:07Z</time>
      </trkpt>
      <trkpt lat="42.294255" lon="1.719390">
        <ele>2040.682</ele>
        <time>2018-09-22T08:20:10Z</time>
      </trkpt>
      <trkpt lat="42.294250" lon="1.719365">
        <ele>2040.786</ele>
        <time>2018-09-22T08:20:12Z</time>
      </trkpt>
      <trkpt lat="42.294250" lon="1.719353">
        <ele>2040.532</ele>
        <time>2018-09-22T08:20:13Z</time>
      </trkpt>
      <trkpt lat="42.294243" lon="1.719335">
        <ele>2040.942</ele>
        <time>2018-09-22T08:20:14Z</time>
      </trkpt>
      <trkpt lat="42.294250" lon="1.719274">
        <ele>2039.574</ele>
        <time>2018-09-22T08:20:17Z</time>
      </trkpt>
      <trkpt lat="42.294257" lon="1.719171">
        <ele>2037.556</ele>
        <time>2018-09-22T08:20:23Z</time>
      </trkpt>
      <trkpt lat="42.294256" lon="1.719152">
        <ele>2037.572</ele>
        <time>2018-09-22T08:20:24Z</time>
      </trkpt>
      <trkpt lat="42.294261" lon="1.719053">
        <ele>2037.313</ele>
        <time>2018-09-22T08:20:29Z</time>
      </trkpt>
      <trkpt lat="42.294298" lon="1.718957">
        <ele>2035.114</ele>
        <time>2018-09-22T08:20:34Z</time>
      </trkpt>
      <trkpt lat="42.294311" lon="1.718942">
        <ele>2034.308</ele>
        <time>2018-09-22T08:20:35Z</time>
      </trkpt>
      <trkpt lat="42.294356" lon="1.718897">
        <ele>2032.069</ele>
        <time>2018-09-22T08:20:39Z</time>
      </trkpt>
      <trkpt lat="42.294358" lon="1.718881">
        <ele>2032.345</ele>
        <time>2018-09-22T08:20:40Z</time>
      </trkpt>
      <trkpt lat="42.294365" lon="1.718867">
        <ele>2032.596</ele>
        <time>2018-09-22T08:20:41Z</time>
      </trkpt>
      <trkpt lat="42.294435" lon="1.718821">
        <ele>2030.680</ele>
        <time>2018-09-22T08:20:46Z</time>
      </trkpt>
      <trkpt lat="42.294466" lon="1.718813">
        <ele>2029.316</ele>
        <time>2018-09-22T08:20:48Z</time>
      </trkpt>
      <trkpt lat="42.294522" lon="1.718781">
        <ele>2027.866</ele>
        <time>2018-09-22T08:20:52Z</time>
      </trkpt>
      <trkpt lat="42.294544" lon="1.718765">
        <ele>2027.488</ele>
        <time>2018-09-22T08:20:54Z</time>
      </trkpt>
      <trkpt lat="42.294564" lon="1.718741">
        <ele>2027.490</ele>
        <time>2018-09-22T08:20:56Z</time>
      </trkpt>
      <trkpt lat="42.294604" lon="1.718719">
        <ele>2026.355</ele>
        <time>2018-09-22T08:20:59Z</time>
      </trkpt>
      <trkpt lat="42.294618" lon="1.718711">
        <ele>2025.907</ele>
        <time>2018-09-22T08:21:00Z</time>
      </trkpt>
      <trkpt lat="42.294632" lon="1.718700">
        <ele>2025.717</ele>
        <time>2018-09-22T08:21:01Z</time>
      </trkpt>
      <trkpt lat="42.294674" lon="1.718616">
        <ele>2027.308</ele>
        <time>2018-09-22T08:21:05Z</time>
      </trkpt>
      <trkpt lat="42.294707" lon="1.718583">
        <ele>2026.997</ele>
        <time>2018-09-22T08:21:07Z</time>
      </trkpt>
      <trkpt lat="42.294819" lon="1.718456">
        <ele>2026.733</ele>
        <time>2018-09-22T08:21:13Z</time>
      </trkpt>
      <trkpt lat="42.294922" lon="1.718356">
        <ele>2026.364</ele>
        <time>2018-09-22T08:21:19Z</time>
      </trkpt>
      <trkpt lat="42.294989" lon="1.718271">
        <ele>2025.588</ele>
        <time>2018-09-22T08:21:24Z</time>
      </trkpt>
      <trkpt lat="42.295093" lon="1.718170">
        <ele>2024.284</ele>
        <time>2018-09-22T08:21:31Z</time>
      </trkpt>
      <trkpt lat="42.295112" lon="1.718151">
        <ele>2023.944</ele>
        <time>2018-09-22T08:21:32Z</time>
      </trkpt>
      <trkpt lat="42.295179" lon="1.718047">
        <ele>2023.276</ele>
        <time>2018-09-22T08:21:37Z</time>
      </trkpt>
      <trkpt lat="42.295235" lon="1.717971">
        <ele>2021.468</ele>
        <time>2018-09-22T08:21:41Z</time>
      </trkpt>
      <trkpt lat="42.295249" lon="1.717953">
        <ele>2020.945</ele>
        <time>2018-09-22T08:21:42Z</time>
      </trkpt>
      <trkpt lat="42.295277" lon="1.717914">
        <ele>2020.047</ele>
        <time>2018-09-22T08:21:44Z</time>
      </trkpt>
      <trkpt lat="42.295303" lon="1.717867">
        <ele>2019.111</ele>
        <time>2018-09-22T08:21:46Z</time>
      </trkpt>
      <trkpt lat="42.295333" lon="1.717747">
        <ele>2017.908</ele>
        <time>2018-09-22T08:21:50Z</time>
      </trkpt>
      <trkpt lat="42.295350" lon="1.717695">
        <ele>2017.376</ele>
        <time>2018-09-22T08:21:52Z</time>
      </trkpt>
      <trkpt lat="42.295365" lon="1.717644">
        <ele>2016.732</ele>
        <time>2018-09-22T08:21:54Z</time>
      </trkpt>
      <trkpt lat="42.295374" lon="1.717623">
        <ele>2016.343</ele>
        <time>2018-09-22T08:21:55Z</time>
      </trkpt>
      <trkpt lat="42.295408" lon="1.717519">
        <ele>2014.897</ele>
        <time>2018-09-22T08:21:59Z</time>
      </trkpt>
      <trkpt lat="42.295423" lon="1.717454">
        <ele>2014.173</ele>
        <time>2018-09-22T08:22:01Z</time>
      </trkpt>
      <trkpt lat="42.295436" lon="1.717358">
        <ele>2013.583</ele>
        <time>2018-09-22T08:22:04Z</time>
      </trkpt>
      <trkpt lat="42.295442" lon="1.717255">
        <ele>2013.155</ele>
        <time>2018-09-22T08:22:07Z</time>
      </trkpt>
      <trkpt lat="42.295452" lon="1.717153">
        <ele>2012.737</ele>
        <time>2018-09-22T08:22:10Z</time>
      </trkpt>
      <trkpt lat="42.295467" lon="1.717059">
        <ele>2012.454</ele>
        <time>2018-09-22T08:22:14Z</time>
      </trkpt>
      <trkpt lat="42.295524" lon="1.716908">
        <ele>2011.156</ele>
        <time>2018-09-22T08:22:23Z</time>
      </trkpt>
      <trkpt lat="42.295542" lon="1.716879">
        <ele>2010.811</ele>
        <time>2018-09-22T08:22:25Z</time>
      </trkpt>
      <trkpt lat="42.295548" lon="1.716860">
        <ele>2010.808</ele>
        <time>2018-09-22T08:22:26Z</time>
      </trkpt>
      <trkpt lat="42.295578" lon="1.716786">
        <ele>2010.637</ele>
        <time>2018-09-22T08:22:30Z</time>
      </trkpt>
      <trkpt lat="42.295587" lon="1.716768">
        <ele>2010.653</ele>
        <time>2018-09-22T08:22:31Z</time>
      </trkpt>
      <trkpt lat="42.295593" lon="1.716751">
        <ele>2010.694</ele>
        <time>2018-09-22T08:22:32Z</time>
      </trkpt>
      <trkpt lat="42.295643" lon="1.716697">
        <ele>2009.928</ele>
        <time>2018-09-22T08:22:36Z</time>
      </trkpt>
      <trkpt lat="42.295662" lon="1.716667">
        <ele>2009.624</ele>
        <time>2018-09-22T08:22:38Z</time>
      </trkpt>
      <trkpt lat="42.295680" lon="1.716616">
        <ele>2009.724</ele>
        <time>2018-09-22T08:22:41Z</time>
      </trkpt>
      <trkpt lat="42.295742" lon="1.716476">
        <ele>2008.836</ele>
        <time>2018-09-22T08:22:49Z</time>
      </trkpt>
      <trkpt lat="42.295747" lon="1.716434">
        <ele>2008.938</ele>
        <time>2018-09-22T08:22:52Z</time>
      </trkpt>
      <trkpt lat="42.295743" lon="1.716406">
        <ele>2009.169</ele>
        <time>2018-09-22T08:22:54Z</time>
      </trkpt>
      <trkpt lat="42.295775" lon="1.716231">
        <ele>2007.204</ele>
        <time>2018-09-22T08:23:04Z</time>
      </trkpt>
      <trkpt lat="42.295792" lon="1.716179">
        <ele>2006.424</ele>
        <time>2018-09-22T08:23:07Z</time>
      </trkpt>
      <trkpt lat="42.295802" lon="1.716121">
        <ele>2005.908</ele>
        <time>2018-09-22T08:23:10Z</time>
      </trkpt>
      <trkpt lat="42.295798" lon="1.716097">
        <ele>2006.058</ele>
        <time>2018-09-22T08:23:11Z</time>
      </trkpt>
      <trkpt lat="42.295807" lon="1.715974">
        <ele>2006.174</ele>
        <time>2018-09-22T08:23:17Z</time>
      </trkpt>
      <trkpt lat="42.295815" lon="1.715959">
        <ele>2005.965</ele>
        <time>2018-09-22T08:23:18Z</time>
      </trkpt>
      <trkpt lat="42.295823" lon="1.715939">
        <ele>2005.869</ele>
        <time>2018-09-22T08:23:19Z</time>
      </trkpt>
      <trkpt lat="42.295842" lon="1.715881">
        <ele>2005.585</ele>
        <time>2018-09-22T08:23:22Z</time>
      </trkpt>
      <trkpt lat="42.295869" lon="1.715827">
        <ele>2004.965</ele>
        <time>2018-09-22T08:23:25Z</time>
      </trkpt>
      <trkpt lat="42.295932" lon="1.715736">
        <ele>2003.447</ele>
        <time>2018-09-22T08:23:31Z</time>
      </trkpt>
      <trkpt lat="42.295956" lon="1.715718">
        <ele>2002.819</ele>
        <time>2018-09-22T08:23:33Z</time>
      </trkpt>
      <trkpt lat="42.295972" lon="1.715690">
        <ele>2002.562</ele>
        <time>2018-09-22T08:23:35Z</time>
      </trkpt>
      <trkpt lat="42.295987" lon="1.715638">
        <ele>2002.383</ele>
        <time>2018-09-22T08:23:38Z</time>
      </trkpt>
      <trkpt lat="42.296000" lon="1.715607">
        <ele>2002.111</ele>
        <time>2018-09-22T08:23:40Z</time>
      </trkpt>
      <trkpt lat="42.296059" lon="1.715449">
        <ele>2001.108</ele>
        <time>2018-09-22T08:23:48Z</time>
      </trkpt>
      <trkpt lat="42.296066" lon="1.715430">
        <ele>2000.938</ele>
        <time>2018-09-22T08:23:49Z</time>
      </trkpt>
      <trkpt lat="42.296089" lon="1.715361">
        <ele>2000.424</ele>
        <time>2018-09-22T08:23:53Z</time>
      </trkpt>
      <trkpt lat="42.296109" lon="1.715330">
        <ele>2000.045</ele>
        <time>2018-09-22T08:23:55Z</time>
      </trkpt>
      <trkpt lat="42.296180" lon="1.715272">
        <ele>1998.749</ele>
        <time>2018-09-22T08:24:01Z</time>
      </trkpt>
      <trkpt lat="42.296206" lon="1.715224">
        <ele>1998.255</ele>
        <time>2018-09-22T08:24:04Z</time>
      </trkpt>
      <trkpt lat="42.296238" lon="1.715184">
        <ele>1997.725</ele>
        <time>2018-09-22T08:24:07Z</time>
      </trkpt>
      <trkpt lat="42.296246" lon="1.715164">
        <ele>1997.597</ele>
        <time>2018-09-22T08:24:08Z</time>
      </trkpt>
      <trkpt lat="42.296297" lon="1.715070">
        <ele>1996.649</ele>
        <time>2018-09-22T08:24:14Z</time>
      </trkpt>
      <trkpt lat="42.296346" lon="1.715012">
        <ele>1995.754</ele>
        <time>2018-09-22T08:24:19Z</time>
      </trkpt>
      <trkpt lat="42.296362" lon="1.714984">
        <ele>1995.556</ele>
        <time>2018-09-22T08:24:21Z</time>
      </trkpt>
      <trkpt lat="42.296386" lon="1.714939">
        <ele>1995.411</ele>
        <time>2018-09-22T08:24:24Z</time>
      </trkpt>
      <trkpt lat="42.296414" lon="1.714880">
        <ele>1995.108</ele>
        <time>2018-09-22T08:24:28Z</time>
      </trkpt>
      <trkpt lat="42.296434" lon="1.714796">
        <ele>1995.117</ele>
        <time>2018-09-22T08:24:34Z</time>
      </trkpt>
      <trkpt lat="42.296451" lon="1.714772">
        <ele>1994.893</ele>
        <time>2018-09-22T08:24:37Z</time>
      </trkpt>
      <trkpt lat="42.296464" lon="1.714737">
        <ele>1994.744</ele>
        <time>2018-09-22T08:24:40Z</time>
      </trkpt>
      <trkpt lat="42.296470" lon="1.714727">
        <ele>1994.698</ele>
        <time>2018-09-22T08:24:41Z</time>
      </trkpt>
      <trkpt lat="42.296478" lon="1.714718">
        <ele>1994.414</ele>
        <time>2018-09-22T08:24:42Z</time>
      </trkpt>
      <trkpt lat="42.296488" lon="1.714709">
        <ele>1994.284</ele>
        <time>2018-09-22T08:24:43Z</time>
      </trkpt>
      <trkpt lat="42.296529" lon="1.714674">
        <ele>1993.476</ele>
        <time>2018-09-22T08:24:46Z</time>
      </trkpt>
      <trkpt lat="42.296566" lon="1.714643">
        <ele>1992.898</ele>
        <time>2018-09-22T08:24:49Z</time>
      </trkpt>
      <trkpt lat="42.296614" lon="1.714602">
        <ele>1992.017</ele>
        <time>2018-09-22T08:24:54Z</time>
      </trkpt>
      <trkpt lat="42.296649" lon="1.714582">
        <ele>1991.487</ele>
        <time>2018-09-22T08:24:58Z</time>
      </trkpt>
      <trkpt lat="42.296653" lon="1.714563">
        <ele>1991.615</ele>
        <time>2018-09-22T08:25:00Z</time>
      </trkpt>
      <trkpt lat="42.296667" lon="1.714526">
        <ele>1991.808</ele>
        <time>2018-09-22T08:25:03Z</time>
      </trkpt>
      <trkpt lat="42.296695" lon="1.714363">
        <ele>1993.863</ele>
        <time>2018-09-22T08:25:13Z</time>
      </trkpt>
      <trkpt lat="42.296694" lon="1.714341">
        <ele>1994.129</ele>
        <time>2018-09-22T08:25:14Z</time>
      </trkpt>
      <trkpt lat="42.296725" lon="1.714172">
        <ele>1996.280</ele>
        <time>2018-09-22T08:25:24Z</time>
      </trkpt>
      <trkpt lat="42.296728" lon="1.714158">
        <ele>1996.494</ele>
        <time>2018-09-22T08:25:25Z</time>
      </trkpt>
      <trkpt lat="42.296748" lon="1.714104">
        <ele>1997.160</ele>
        <time>2018-09-22T08:25:29Z</time>
      </trkpt>
      <trkpt lat="42.296755" lon="1.714091">
        <ele>1997.370</ele>
        <time>2018-09-22T08:25:30Z</time>
      </trkpt>
      <trkpt lat="42.296822" lon="1.714009">
        <ele>1998.232</ele>
        <time>2018-09-22T08:25:37Z</time>
      </trkpt>
      <trkpt lat="42.296872" lon="1.714012">
        <ele>1997.834</ele>
        <time>2018-09-22T08:25:41Z</time>
      </trkpt>
      <trkpt lat="42.297003" lon="1.714084">
        <ele>1996.211</ele>
        <time>2018-09-22T08:25:53Z</time>
      </trkpt>
      <trkpt lat="42.297041" lon="1.714095">
        <ele>1996.221</ele>
        <time>2018-09-22T08:25:57Z</time>
      </trkpt>
      <trkpt lat="42.297059" lon="1.714069">
        <ele>1996.903</ele>
        <time>2018-09-22T08:26:01Z</time>
      </trkpt>
      <trkpt lat="42.297066" lon="1.714060">
        <ele>1997.108</ele>
        <time>2018-09-22T08:26:02Z</time>
      </trkpt>
      <trkpt lat="42.297072" lon="1.714054">
        <ele>1997.313</ele>
        <time>2018-09-22T08:26:04Z</time>
      </trkpt>
      <trkpt lat="42.297059" lon="1.714026">
        <ele>1997.849</ele>
        <time>2018-09-22T08:26:15Z</time>
      </trkpt>
      <trkpt lat="42.297042" lon="1.714000">
        <ele>1998.370</ele>
        <time>2018-09-22T08:26:30Z</time>
      </trkpt>
      <trkpt lat="42.297044" lon="1.714010">
        <ele>1998.174</ele>
        <time>2018-09-22T08:26:32Z</time>
      </trkpt>
      <trkpt lat="42.297066" lon="1.714065">
        <ele>1997.010</ele>
        <time>2018-09-22T08:26:38Z</time>
      </trkpt>
      <trkpt lat="42.297066" lon="1.714069">
        <ele>1996.940</ele>
        <time>2018-09-22T08:26:39Z</time>
      </trkpt>
      <trkpt lat="42.297066" lon="1.714034">
        <ele>1997.762</ele>
        <time>2018-09-22T08:26:53Z</time>
      </trkpt>
      <trkpt lat="42.297066" lon="1.714031">
        <ele>1997.874</ele>
        <time>2018-09-22T08:26:57Z</time>
      </trkpt>
      <trkpt lat="42.297066" lon="1.714037">
        <ele>1997.656</ele>
        <time>2018-09-22T08:27:00Z</time>
      </trkpt>
      <trkpt lat="42.297064" lon="1.714096">
        <ele>1996.359</ele>
        <time>2018-09-22T08:27:07Z</time>
      </trkpt>
      <trkpt lat="42.297031" lon="1.714079">
        <ele>1996.514</ele>
        <time>2018-09-22T08:27:15Z</time>
      </trkpt>
      <trkpt lat="42.297026" lon="1.714079">
        <ele>1996.408</ele>
        <time>2018-09-22T08:27:21Z</time>
      </trkpt>
      <trkpt lat="42.297029" lon="1.714085">
        <ele>1996.337</ele>
        <time>2018-09-22T08:27:34Z</time>
      </trkpt>
      <trkpt lat="42.297028" lon="1.714105">
        <ele>1995.973</ele>
        <time>2018-09-22T08:27:49Z</time>
      </trkpt>
      <trkpt lat="42.297042" lon="1.714105">
        <ele>1996.084</ele>
        <time>2018-09-22T08:27:53Z</time>
      </trkpt>
      <trkpt lat="42.297034" lon="1.714113">
        <ele>1995.818</ele>
        <time>2018-09-22T08:27:59Z</time>
      </trkpt>
      <trkpt lat="42.297045" lon="1.714061">
        <ele>1997.084</ele>
        <time>2018-09-22T08:28:39Z</time>
      </trkpt>
      <trkpt lat="42.297046" lon="1.714059">
        <ele>1997.094</ele>
        <time>2018-09-22T08:28:54Z</time>
      </trkpt>
      <trkpt lat="42.297046" lon="1.714061">
        <ele>1997.086</ele>
        <time>2018-09-22T08:29:01Z</time>
      </trkpt>
      <trkpt lat="42.297046" lon="1.714066">
        <ele>1996.858</ele>
        <time>2018-09-22T08:29:03Z</time>
      </trkpt>
      <trkpt lat="42.297048" lon="1.714069">
        <ele>1996.825</ele>
        <time>2018-09-22T08:29:07Z</time>
      </trkpt>
      <trkpt lat="42.297045" lon="1.714058">
        <ele>1997.026</ele>
        <time>2018-09-22T08:29:13Z</time>
      </trkpt>
      <trkpt lat="42.297039" lon="1.714040">
        <ele>1997.408</ele>
        <time>2018-09-22T08:29:20Z</time>
      </trkpt>
      <trkpt lat="42.297046" lon="1.714077">
        <ele>1996.608</ele>
        <time>2018-09-22T08:29:46Z</time>
      </trkpt>
      <trkpt lat="42.297047" lon="1.714072">
        <ele>1996.754</ele>
        <time>2018-09-22T08:29:53Z</time>
      </trkpt>
      <trkpt lat="42.297075" lon="1.714085">
        <ele>1996.720</ele>
        <time>2018-09-22T08:29:58Z</time>
      </trkpt>
      <trkpt lat="42.297060" lon="1.714086">
        <ele>1996.581</ele>
        <time>2018-09-22T08:30:03Z</time>
      </trkpt>
      <trkpt lat="42.297062" lon="1.714091">
        <ele>1996.475</ele>
        <time>2018-09-22T08:30:23Z</time>
      </trkpt>
      <trkpt lat="42.297044" lon="1.714096">
        <ele>1996.211</ele>
        <time>2018-09-22T08:31:08Z</time>
      </trkpt>
      <trkpt lat="42.297044" lon="1.714096">
        <ele>1996.271</ele>
        <time>2018-09-22T08:31:10Z</time>
      </trkpt>
      <trkpt lat="42.297044" lon="1.714092">
        <ele>1996.353</ele>
        <time>2018-09-22T08:31:16Z</time>
      </trkpt>
      <trkpt lat="42.297044" lon="1.714091">
        <ele>1996.345</ele>
        <time>2018-09-22T08:31:29Z</time>
      </trkpt>
      <trkpt lat="42.297041" lon="1.714094">
        <ele>1996.234</ele>
        <time>2018-09-22T08:31:50Z</time>
      </trkpt>
      <trkpt lat="42.297043" lon="1.714084">
        <ele>1996.455</ele>
        <time>2018-09-22T08:32:10Z</time>
      </trkpt>
      <trkpt lat="42.297045" lon="1.714085">
        <ele>1996.410</ele>
        <time>2018-09-22T08:32:17Z</time>
      </trkpt>
      <trkpt lat="42.297040" lon="1.714082">
        <ele>1996.508</ele>
        <time>2018-09-22T08:32:19Z</time>
      </trkpt>
      <trkpt lat="42.297032" lon="1.714049">
        <ele>1997.175</ele>
        <time>2018-09-22T08:32:22Z</time>
      </trkpt>
      <trkpt lat="42.297032" lon="1.714033">
        <ele>1997.591</ele>
        <time>2018-09-22T08:32:23Z</time>
      </trkpt>
      <trkpt lat="42.297034" lon="1.714020">
        <ele>1997.822</ele>
        <time>2018-09-22T08:32:26Z</time>
      </trkpt>
      <trkpt lat="42.297031" lon="1.714058">
        <ele>1996.956</ele>
        <time>2018-09-22T08:32:34Z</time>
      </trkpt>
      <trkpt lat="42.297024" lon="1.714071">
        <ele>1996.612</ele>
        <time>2018-09-22T08:32:35Z</time>
      </trkpt>
      <trkpt lat="42.296990" lon="1.714060">
        <ele>1996.662</ele>
        <time>2018-09-22T08:32:38Z</time>
      </trkpt>
      <trkpt lat="42.296950" lon="1.714005">
        <ele>1997.564</ele>
        <time>2018-09-22T08:32:42Z</time>
      </trkpt>
      <trkpt lat="42.296945" lon="1.713988">
        <ele>1997.896</ele>
        <time>2018-09-22T08:32:43Z</time>
      </trkpt>
      <trkpt lat="42.296918" lon="1.713920">
        <ele>1999.416</ele>
        <time>2018-09-22T08:32:48Z</time>
      </trkpt>
      <trkpt lat="42.296914" lon="1.713913">
        <ele>1999.676</ele>
        <time>2018-09-22T08:32:49Z</time>
      </trkpt>
      <trkpt lat="42.296899" lon="1.713878">
        <ele>2000.313</ele>
        <time>2018-09-22T08:32:52Z</time>
      </trkpt>
      <trkpt lat="42.296893" lon="1.713864">
        <ele>2000.608</ele>
        <time>2018-09-22T08:32:53Z</time>
      </trkpt>
      <trkpt lat="42.296872" lon="1.713819">
        <ele>2001.723</ele>
        <time>2018-09-22T08:32:57Z</time>
      </trkpt>
      <trkpt lat="42.296856" lon="1.713797">
        <ele>2002.239</ele>
        <time>2018-09-22T08:33:00Z</time>
      </trkpt>
      <trkpt lat="42.296843" lon="1.713790">
        <ele>2002.350</ele>
        <time>2018-09-22T08:33:03Z</time>
      </trkpt>
      <trkpt lat="42.296815" lon="1.713766">
        <ele>2002.994</ele>
        <time>2018-09-22T08:33:07Z</time>
      </trkpt>
      <trkpt lat="42.296809" lon="1.713761">
        <ele>2003.020</ele>
        <time>2018-09-22T08:33:08Z</time>
      </trkpt>
      <trkpt lat="42.296802" lon="1.713752">
        <ele>2003.210</ele>
        <time>2018-09-22T08:33:09Z</time>
      </trkpt>
      <trkpt lat="42.296784" lon="1.713734">
        <ele>2003.632</ele>
        <time>2018-09-22T08:33:12Z</time>
      </trkpt>
      <trkpt lat="42.296775" lon="1.713722">
        <ele>2003.884</ele>
        <time>2018-09-22T08:33:14Z</time>
      </trkpt>
      <trkpt lat="42.296770" lon="1.713717">
        <ele>2003.998</ele>
        <time>2018-09-22T08:33:15Z</time>
      </trkpt>
      <trkpt lat="42.296765" lon="1.713710">
        <ele>2004.115</ele>
        <time>2018-09-22T08:33:16Z</time>
      </trkpt>
      <trkpt lat="42.296757" lon="1.713704">
        <ele>2004.226</ele>
        <time>2018-09-22T08:33:17Z</time>
      </trkpt>
      <trkpt lat="42.296745" lon="1.713687">
        <ele>2004.508</ele>
        <time>2018-09-22T08:33:19Z</time>
      </trkpt>
      <trkpt lat="42.296737" lon="1.713677">
        <ele>2004.711</ele>
        <time>2018-09-22T08:33:20Z</time>
      </trkpt>
      <trkpt lat="42.296730" lon="1.713654">
        <ele>2005.177</ele>
        <time>2018-09-22T08:33:22Z</time>
      </trkpt>
      <trkpt lat="42.296718" lon="1.713618">
        <ele>2005.818</ele>
        <time>2018-09-22T08:33:25Z</time>
      </trkpt>
      <trkpt lat="42.296697" lon="1.713588">
        <ele>2005.882</ele>
        <time>2018-09-22T08:33:28Z</time>
      </trkpt>
      <trkpt lat="42.296637" lon="1.713530">
        <ele>2005.918</ele>
        <time>2018-09-22T08:33:34Z</time>
      </trkpt>
      <trkpt lat="42.296571" lon="1.713460">
        <ele>2007.088</ele>
        <time>2018-09-22T08:33:42Z</time>
      </trkpt>
      <trkpt lat="42.296497" lon="1.713429">
        <ele>2008.970</ele>
        <time>2018-09-22T08:33:49Z</time>
      </trkpt>
      <trkpt lat="42.296452" lon="1.713428">
        <ele>2010.082</ele>
        <time>2018-09-22T08:33:53Z</time>
      </trkpt>
      <trkpt lat="42.296432" lon="1.713417">
        <ele>2010.654</ele>
        <time>2018-09-22T08:33:56Z</time>
      </trkpt>
      <trkpt lat="42.296425" lon="1.713414">
        <ele>2010.956</ele>
        <time>2018-09-22T08:33:57Z</time>
      </trkpt>
      <trkpt lat="42.296418" lon="1.713413">
        <ele>2011.011</ele>
        <time>2018-09-22T08:33:58Z</time>
      </trkpt>
      <trkpt lat="42.296400" lon="1.713404">
        <ele>2011.608</ele>
        <time>2018-09-22T08:34:00Z</time>
      </trkpt>
      <trkpt lat="42.296390" lon="1.713400">
        <ele>2011.937</ele>
        <time>2018-09-22T08:34:01Z</time>
      </trkpt>
      <trkpt lat="42.296359" lon="1.713404">
        <ele>2012.773</ele>
        <time>2018-09-22T08:34:04Z</time>
      </trkpt>
      <trkpt lat="42.296339" lon="1.713412">
        <ele>2013.094</ele>
        <time>2018-09-22T08:34:06Z</time>
      </trkpt>
      <trkpt lat="42.296292" lon="1.713416">
        <ele>2014.188</ele>
        <time>2018-09-22T08:34:10Z</time>
      </trkpt>
      <trkpt lat="42.296270" lon="1.713411">
        <ele>2014.734</ele>
        <time>2018-09-22T08:34:12Z</time>
      </trkpt>
      <trkpt lat="42.296223" lon="1.713411">
        <ele>2015.864</ele>
        <time>2018-09-22T08:34:16Z</time>
      </trkpt>
      <trkpt lat="42.296172" lon="1.713396">
        <ele>2017.336</ele>
        <time>2018-09-22T08:34:21Z</time>
      </trkpt>
      <trkpt lat="42.296166" lon="1.713395">
        <ele>2017.578</ele>
        <time>2018-09-22T08:34:22Z</time>
      </trkpt>
      <trkpt lat="42.296138" lon="1.713387">
        <ele>2018.367</ele>
        <time>2018-09-22T08:34:25Z</time>
      </trkpt>
      <trkpt lat="42.296116" lon="1.713372">
        <ele>2019.181</ele>
        <time>2018-09-22T08:34:27Z</time>
      </trkpt>
      <trkpt lat="42.296086" lon="1.713345">
        <ele>2020.319</ele>
        <time>2018-09-22T08:34:30Z</time>
      </trkpt>
      <trkpt lat="42.296054" lon="1.713336">
        <ele>2021.108</ele>
        <time>2018-09-22T08:34:33Z</time>
      </trkpt>
      <trkpt lat="42.296013" lon="1.713333">
        <ele>2022.178</ele>
        <time>2018-09-22T08:34:38Z</time>
      </trkpt>
      <trkpt lat="42.295982" lon="1.713336">
        <ele>2022.774</ele>
        <time>2018-09-22T08:34:41Z</time>
      </trkpt>
      <trkpt lat="42.295971" lon="1.713336">
        <ele>2022.935</ele>
        <time>2018-09-22T08:34:42Z</time>
      </trkpt>
      <trkpt lat="42.295955" lon="1.713329">
        <ele>2023.499</ele>
        <time>2018-09-22T08:34:44Z</time>
      </trkpt>
      <trkpt lat="42.295947" lon="1.713329">
        <ele>2023.635</ele>
        <time>2018-09-22T08:34:45Z</time>
      </trkpt>
      <trkpt lat="42.295918" lon="1.713326">
        <ele>2024.245</ele>
        <time>2018-09-22T08:34:48Z</time>
      </trkpt>
      <trkpt lat="42.295896" lon="1.713327">
        <ele>2024.747</ele>
        <time>2018-09-22T08:34:51Z</time>
      </trkpt>
      <trkpt lat="42.295884" lon="1.713330">
        <ele>2024.959</ele>
        <time>2018-09-22T08:34:53Z</time>
      </trkpt>
      <trkpt lat="42.295876" lon="1.713336">
        <ele>2025.076</ele>
        <time>2018-09-22T08:34:54Z</time>
      </trkpt>
      <trkpt lat="42.295870" lon="1.713341">
        <ele>2025.090</ele>
        <time>2018-09-22T08:34:55Z</time>
      </trkpt>
      <trkpt lat="42.295862" lon="1.713347">
        <ele>2025.119</ele>
        <time>2018-09-22T08:34:56Z</time>
      </trkpt>
      <trkpt lat="42.295853" lon="1.713353">
        <ele>2025.208</ele>
        <time>2018-09-22T08:34:57Z</time>
      </trkpt>
      <trkpt lat="42.295836" lon="1.713371">
        <ele>2025.289</ele>
        <time>2018-09-22T08:35:00Z</time>
      </trkpt>
      <trkpt lat="42.295830" lon="1.713377">
        <ele>2025.385</ele>
        <time>2018-09-22T08:35:01Z</time>
      </trkpt>
      <trkpt lat="42.295822" lon="1.713384">
        <ele>2025.496</ele>
        <time>2018-09-22T08:35:02Z</time>
      </trkpt>
      <trkpt lat="42.295813" lon="1.713387">
        <ele>2025.660</ele>
        <time>2018-09-22T08:35:03Z</time>
      </trkpt>
      <trkpt lat="42.295758" lon="1.713391">
        <ele>2027.186</ele>
        <time>2018-09-22T08:35:08Z</time>
      </trkpt>
      <trkpt lat="42.295751" lon="1.713390">
        <ele>2027.486</ele>
        <time>2018-09-22T08:35:09Z</time>
      </trkpt>
      <trkpt lat="42.295736" lon="1.713391">
        <ele>2027.898</ele>
        <time>2018-09-22T08:35:11Z</time>
      </trkpt>
      <trkpt lat="42.295721" lon="1.713395">
        <ele>2028.220</ele>
        <time>2018-09-22T08:35:13Z</time>
      </trkpt>
      <trkpt lat="42.295703" lon="1.713399">
        <ele>2028.667</ele>
        <time>2018-09-22T08:35:15Z</time>
      </trkpt>
      <trkpt lat="42.295679" lon="1.713408">
        <ele>2029.281</ele>
        <time>2018-09-22T08:35:17Z</time>
      </trkpt>
      <trkpt lat="42.295662" lon="1.713416">
        <ele>2029.619</ele>
        <time>2018-09-22T08:35:19Z</time>
      </trkpt>
      <trkpt lat="42.295644" lon="1.713427">
        <ele>2030.008</ele>
        <time>2018-09-22T08:35:21Z</time>
      </trkpt>
      <trkpt lat="42.295635" lon="1.713437">
        <ele>2030.118</ele>
        <time>2018-09-22T08:35:22Z</time>
      </trkpt>
      <trkpt lat="42.295616" lon="1.713457">
        <ele>2030.354</ele>
        <time>2018-09-22T08:35:24Z</time>
      </trkpt>
      <trkpt lat="42.295604" lon="1.713469">
        <ele>2030.595</ele>
        <time>2018-09-22T08:35:25Z</time>
      </trkpt>
      <trkpt lat="42.295592" lon="1.713479">
        <ele>2030.719</ele>
        <time>2018-09-22T08:35:26Z</time>
      </trkpt>
      <trkpt lat="42.295582" lon="1.713486">
        <ele>2030.925</ele>
        <time>2018-09-22T08:35:27Z</time>
      </trkpt>
      <trkpt lat="42.295537" lon="1.713544">
        <ele>2031.695</ele>
        <time>2018-09-22T08:35:32Z</time>
      </trkpt>
      <trkpt lat="42.295519" lon="1.713563">
        <ele>2032.147</ele>
        <time>2018-09-22T08:35:34Z</time>
      </trkpt>
      <trkpt lat="42.295510" lon="1.713572">
        <ele>2032.329</ele>
        <time>2018-09-22T08:35:35Z</time>
      </trkpt>
      <trkpt lat="42.295469" lon="1.713621">
        <ele>2033.269</ele>
        <time>2018-09-22T08:35:40Z</time>
      </trkpt>
      <trkpt lat="42.295447" lon="1.713663">
        <ele>2033.104</ele>
        <time>2018-09-22T08:35:43Z</time>
      </trkpt>
      <trkpt lat="42.295439" lon="1.713671">
        <ele>2033.324</ele>
        <time>2018-09-22T08:35:44Z</time>
      </trkpt>
      <trkpt lat="42.295411" lon="1.713684">
        <ele>2034.108</ele>
        <time>2018-09-22T08:35:47Z</time>
      </trkpt>
      <trkpt lat="42.295384" lon="1.713714">
        <ele>2034.588</ele>
        <time>2018-09-22T08:35:50Z</time>
      </trkpt>
      <trkpt lat="42.295343" lon="1.713782">
        <ele>2034.764</ele>
        <time>2018-09-22T08:35:56Z</time>
      </trkpt>
      <trkpt lat="42.295333" lon="1.713790">
        <ele>2034.945</ele>
        <time>2018-09-22T08:35:57Z</time>
      </trkpt>
      <trkpt lat="42.295298" lon="1.713820">
        <ele>2035.789</ele>
        <time>2018-09-22T08:36:01Z</time>
      </trkpt>
      <trkpt lat="42.295277" lon="1.713832">
        <ele>2036.235</ele>
        <time>2018-09-22T08:36:03Z</time>
      </trkpt>
      <trkpt lat="42.295269" lon="1.713840">
        <ele>2036.595</ele>
        <time>2018-09-22T08:36:04Z</time>
      </trkpt>
      <trkpt lat="42.295257" lon="1.713851">
        <ele>2036.827</ele>
        <time>2018-09-22T08:36:06Z</time>
      </trkpt>
      <trkpt lat="42.295252" lon="1.713857">
        <ele>2036.929</ele>
        <time>2018-09-22T08:36:07Z</time>
      </trkpt>
      <trkpt lat="42.295248" lon="1.713864">
        <ele>2037.073</ele>
        <time>2018-09-22T08:36:08Z</time>
      </trkpt>
      <trkpt lat="42.295238" lon="1.713875">
        <ele>2037.385</ele>
        <time>2018-09-22T08:36:09Z</time>
      </trkpt>
      <trkpt lat="42.295220" lon="1.713885">
        <ele>2037.913</ele>
        <time>2018-09-22T08:36:11Z</time>
      </trkpt>
      <trkpt lat="42.295217" lon="1.713886">
        <ele>2038.108</ele>
        <time>2018-09-22T08:36:12Z</time>
      </trkpt>
      <trkpt lat="42.295210" lon="1.713890">
        <ele>2038.419</ele>
        <time>2018-09-22T08:36:13Z</time>
      </trkpt>
      <trkpt lat="42.295202" lon="1.713896">
        <ele>2038.725</ele>
        <time>2018-09-22T08:36:14Z</time>
      </trkpt>
      <trkpt lat="42.295194" lon="1.713903">
        <ele>2039.016</ele>
        <time>2018-09-22T08:36:15Z</time>
      </trkpt>
      <trkpt lat="42.295186" lon="1.713911">
        <ele>2039.290</ele>
        <time>2018-09-22T08:36:16Z</time>
      </trkpt>
      <trkpt lat="42.295166" lon="1.713929">
        <ele>2039.956</ele>
        <time>2018-09-22T08:36:18Z</time>
      </trkpt>
      <trkpt lat="42.295141" lon="1.713955">
        <ele>2040.856</ele>
        <time>2018-09-22T08:36:21Z</time>
      </trkpt>
      <trkpt lat="42.295117" lon="1.713986">
        <ele>2041.518</ele>
        <time>2018-09-22T08:36:24Z</time>
      </trkpt>
      <trkpt lat="42.295109" lon="1.713994">
        <ele>2041.710</ele>
        <time>2018-09-22T08:36:25Z</time>
      </trkpt>
      <trkpt lat="42.295090" lon="1.714020">
        <ele>2042.287</ele>
        <time>2018-09-22T08:36:28Z</time>
      </trkpt>
      <trkpt lat="42.295072" lon="1.714033">
        <ele>2042.942</ele>
        <time>2018-09-22T08:36:30Z</time>
      </trkpt>
      <trkpt lat="42.295055" lon="1.714049">
        <ele>2043.426</ele>
        <time>2018-09-22T08:36:32Z</time>
      </trkpt>
      <trkpt lat="42.295043" lon="1.714067">
        <ele>2043.708</ele>
        <time>2018-09-22T08:36:34Z</time>
      </trkpt>
      <trkpt lat="42.295036" lon="1.714079">
        <ele>2043.860</ele>
        <time>2018-09-22T08:36:35Z</time>
      </trkpt>
      <trkpt lat="42.295028" lon="1.714092">
        <ele>2043.996</ele>
        <time>2018-09-22T08:36:36Z</time>
      </trkpt>
      <trkpt lat="42.295003" lon="1.714123">
        <ele>2044.657</ele>
        <time>2018-09-22T08:36:39Z</time>
      </trkpt>
      <trkpt lat="42.294971" lon="1.714170">
        <ele>2045.591</ele>
        <time>2018-09-22T08:36:44Z</time>
      </trkpt>
      <trkpt lat="42.294965" lon="1.714179">
        <ele>2045.797</ele>
        <time>2018-09-22T08:36:45Z</time>
      </trkpt>
      <trkpt lat="42.294959" lon="1.714189">
        <ele>2045.837</ele>
        <time>2018-09-22T08:36:46Z</time>
      </trkpt>
      <trkpt lat="42.294952" lon="1.714198">
        <ele>2046.129</ele>
        <time>2018-09-22T08:36:47Z</time>
      </trkpt>
      <trkpt lat="42.294945" lon="1.714205">
        <ele>2046.361</ele>
        <time>2018-09-22T08:36:48Z</time>
      </trkpt>
      <trkpt lat="42.294940" lon="1.714211">
        <ele>2046.593</ele>
        <time>2018-09-22T08:36:49Z</time>
      </trkpt>
      <trkpt lat="42.294915" lon="1.714250">
        <ele>2047.165</ele>
        <time>2018-09-22T08:36:53Z</time>
      </trkpt>
      <trkpt lat="42.294903" lon="1.714267">
        <ele>2047.521</ele>
        <time>2018-09-22T08:36:55Z</time>
      </trkpt>
      <trkpt lat="42.294881" lon="1.714282">
        <ele>2048.308</ele>
        <time>2018-09-22T08:36:58Z</time>
      </trkpt>
      <trkpt lat="42.294876" lon="1.714292">
        <ele>2048.461</ele>
        <time>2018-09-22T08:36:59Z</time>
      </trkpt>
      <trkpt lat="42.294851" lon="1.714318">
        <ele>2049.277</ele>
        <time>2018-09-22T08:37:02Z</time>
      </trkpt>
      <trkpt lat="42.294843" lon="1.714326">
        <ele>2049.588</ele>
        <time>2018-09-22T08:37:03Z</time>
      </trkpt>
      <trkpt lat="42.294837" lon="1.714334">
        <ele>2049.692</ele>
        <time>2018-09-22T08:37:04Z</time>
      </trkpt>
      <trkpt lat="42.294798" lon="1.714390">
        <ele>2050.568</ele>
        <time>2018-09-22T08:37:10Z</time>
      </trkpt>
      <trkpt lat="42.294757" lon="1.714442">
        <ele>2051.458</ele>
        <time>2018-09-22T08:37:15Z</time>
      </trkpt>
      <trkpt lat="42.294723" lon="1.714471">
        <ele>2052.910</ele>
        <time>2018-09-22T08:37:19Z</time>
      </trkpt>
      <trkpt lat="42.294718" lon="1.714484">
        <ele>2053.132</ele>
        <time>2018-09-22T08:37:20Z</time>
      </trkpt>
      <trkpt lat="42.294714" lon="1.714529">
        <ele>2053.448</ele>
        <time>2018-09-22T08:37:24Z</time>
      </trkpt>
      <trkpt lat="42.294716" lon="1.714545">
        <ele>2053.361</ele>
        <time>2018-09-22T08:37:25Z</time>
      </trkpt>
      <trkpt lat="42.294721" lon="1.714595">
        <ele>2053.017</ele>
        <time>2018-09-22T08:37:28Z</time>
      </trkpt>
      <trkpt lat="42.294713" lon="1.714671">
        <ele>2053.408</ele>
        <time>2018-09-22T08:37:33Z</time>
      </trkpt>
      <trkpt lat="42.294709" lon="1.714677">
        <ele>2053.596</ele>
        <time>2018-09-22T08:37:34Z</time>
      </trkpt>
      <trkpt lat="42.294701" lon="1.714685">
        <ele>2053.982</ele>
        <time>2018-09-22T08:37:35Z</time>
      </trkpt>
      <trkpt lat="42.294696" lon="1.714690">
        <ele>2054.113</ele>
        <time>2018-09-22T08:37:36Z</time>
      </trkpt>
      <trkpt lat="42.294691" lon="1.714709">
        <ele>2054.317</ele>
        <time>2018-09-22T08:37:38Z</time>
      </trkpt>
      <trkpt lat="42.294684" lon="1.714716">
        <ele>2054.693</ele>
        <time>2018-09-22T08:37:39Z</time>
      </trkpt>
      <trkpt lat="42.294676" lon="1.714717">
        <ele>2054.983</ele>
        <time>2018-09-22T08:37:40Z</time>
      </trkpt>
      <trkpt lat="42.294666" lon="1.714717">
        <ele>2055.495</ele>
        <time>2018-09-22T08:37:41Z</time>
      </trkpt>
      <trkpt lat="42.294639" lon="1.714710">
        <ele>2056.697</ele>
        <time>2018-09-22T08:37:44Z</time>
      </trkpt>
      <trkpt lat="42.294631" lon="1.714711">
        <ele>2056.961</ele>
        <time>2018-09-22T08:37:45Z</time>
      </trkpt>
      <trkpt lat="42.294609" lon="1.714713">
        <ele>2057.921</ele>
        <time>2018-09-22T08:37:47Z</time>
      </trkpt>
      <trkpt lat="42.294593" lon="1.714724">
        <ele>2058.513</ele>
        <time>2018-09-22T08:37:50Z</time>
      </trkpt>
      <trkpt lat="42.294583" lon="1.714764">
        <ele>2058.708</ele>
        <time>2018-09-22T08:37:53Z</time>
      </trkpt>
      <trkpt lat="42.294573" lon="1.714782">
        <ele>2059.168</ele>
        <time>2018-09-22T08:37:55Z</time>
      </trkpt>
      <trkpt lat="42.294571" lon="1.714788">
        <ele>2059.234</ele>
        <time>2018-09-22T08:37:56Z</time>
      </trkpt>
      <trkpt lat="42.294569" lon="1.714797">
        <ele>2059.295</ele>
        <time>2018-09-22T08:37:57Z</time>
      </trkpt>
      <trkpt lat="42.294557" lon="1.714831">
        <ele>2059.619</ele>
        <time>2018-09-22T08:38:01Z</time>
      </trkpt>
      <trkpt lat="42.294535" lon="1.714881">
        <ele>2060.515</ele>
        <time>2018-09-22T08:38:06Z</time>
      </trkpt>
      <trkpt lat="42.294497" lon="1.714857">
        <ele>2062.485</ele>
        <time>2018-09-22T08:38:11Z</time>
      </trkpt>
      <trkpt lat="42.294493" lon="1.714846">
        <ele>2062.647</ele>
        <time>2018-09-22T08:38:12Z</time>
      </trkpt>
      <trkpt lat="42.294490" lon="1.714836">
        <ele>2062.819</ele>
        <time>2018-09-22T08:38:13Z</time>
      </trkpt>
      <trkpt lat="42.294482" lon="1.714829">
        <ele>2063.244</ele>
        <time>2018-09-22T08:38:14Z</time>
      </trkpt>
      <trkpt lat="42.294467" lon="1.714837">
        <ele>2063.905</ele>
        <time>2018-09-22T08:38:17Z</time>
      </trkpt>
      <trkpt lat="42.294462" lon="1.714859">
        <ele>2064.115</ele>
        <time>2018-09-22T08:38:19Z</time>
      </trkpt>
      <trkpt lat="42.294453" lon="1.714912">
        <ele>2064.508</ele>
        <time>2018-09-22T08:38:23Z</time>
      </trkpt>
      <trkpt lat="42.294431" lon="1.714945">
        <ele>2065.646</ele>
        <time>2018-09-22T08:38:27Z</time>
      </trkpt>
      <trkpt lat="42.294426" lon="1.714954">
        <ele>2065.852</ele>
        <time>2018-09-22T08:38:28Z</time>
      </trkpt>
      <trkpt lat="42.294420" lon="1.714962">
        <ele>2066.173</ele>
        <time>2018-09-22T08:38:29Z</time>
      </trkpt>
      <trkpt lat="42.294394" lon="1.715000">
        <ele>2067.347</ele>
        <time>2018-09-22T08:38:33Z</time>
      </trkpt>
      <trkpt lat="42.294390" lon="1.715044">
        <ele>2067.383</ele>
        <time>2018-09-22T08:38:36Z</time>
      </trkpt>
      <trkpt lat="42.294384" lon="1.715080">
        <ele>2067.493</ele>
        <time>2018-09-22T08:38:39Z</time>
      </trkpt>
      <trkpt lat="42.294376" lon="1.715087">
        <ele>2067.815</ele>
        <time>2018-09-22T08:38:40Z</time>
      </trkpt>
      <trkpt lat="42.294359" lon="1.715093">
        <ele>2068.537</ele>
        <time>2018-09-22T08:38:42Z</time>
      </trkpt>
      <trkpt lat="42.294343" lon="1.715116">
        <ele>2069.169</ele>
        <time>2018-09-22T08:38:45Z</time>
      </trkpt>
      <trkpt lat="42.294342" lon="1.715129">
        <ele>2069.104</ele>
        <time>2018-09-22T08:38:46Z</time>
      </trkpt>
      <trkpt lat="42.294342" lon="1.715138">
        <ele>2069.124</ele>
        <time>2018-09-22T08:38:47Z</time>
      </trkpt>
      <trkpt lat="42.294339" lon="1.715145">
        <ele>2069.208</ele>
        <time>2018-09-22T08:38:48Z</time>
      </trkpt>
      <trkpt lat="42.294326" lon="1.715158">
        <ele>2069.758</ele>
        <time>2018-09-22T08:38:50Z</time>
      </trkpt>
      <trkpt lat="42.294313" lon="1.715177">
        <ele>2070.234</ele>
        <time>2018-09-22T08:38:52Z</time>
      </trkpt>
      <trkpt lat="42.294304" lon="1.715179">
        <ele>2070.655</ele>
        <time>2018-09-22T08:38:53Z</time>
      </trkpt>
      <trkpt lat="42.294286" lon="1.715180">
        <ele>2071.349</ele>
        <time>2018-09-22T08:38:55Z</time>
      </trkpt>
      <trkpt lat="42.294277" lon="1.715175">
        <ele>2071.865</ele>
        <time>2018-09-22T08:38:56Z</time>
      </trkpt>
      <trkpt lat="42.294270" lon="1.715169">
        <ele>2072.175</ele>
        <time>2018-09-22T08:38:57Z</time>
      </trkpt>
      <trkpt lat="42.294264" lon="1.715164">
        <ele>2072.437</ele>
        <time>2018-09-22T08:38:58Z</time>
      </trkpt>
      <trkpt lat="42.294242" lon="1.715161">
        <ele>2073.489</ele>
        <time>2018-09-22T08:39:01Z</time>
      </trkpt>
      <trkpt lat="42.294234" lon="1.715155">
        <ele>2073.867</ele>
        <time>2018-09-22T08:39:02Z</time>
      </trkpt>
      <trkpt lat="42.294223" lon="1.715129">
        <ele>2074.581</ele>
        <time>2018-09-22T08:39:05Z</time>
      </trkpt>
      <trkpt lat="42.294213" lon="1.715109">
        <ele>2075.019</ele>
        <time>2018-09-22T08:39:07Z</time>
      </trkpt>
      <trkpt lat="42.294206" lon="1.715068">
        <ele>2075.708</ele>
        <time>2018-09-22T08:39:10Z</time>
      </trkpt>
      <trkpt lat="42.294197" lon="1.715039">
        <ele>2076.348</ele>
        <time>2018-09-22T08:39:12Z</time>
      </trkpt>
      <trkpt lat="42.294185" lon="1.715012">
        <ele>2077.094</ele>
        <time>2018-09-22T08:39:14Z</time>
      </trkpt>
      <trkpt lat="42.294155" lon="1.714929">
        <ele>2078.495</ele>
        <time>2018-09-22T08:39:20Z</time>
      </trkpt>
      <trkpt lat="42.294142" lon="1.714909">
        <ele>2078.999</ele>
        <time>2018-09-22T08:39:22Z</time>
      </trkpt>
      <trkpt lat="42.294128" lon="1.714897">
        <ele>2079.515</ele>
        <time>2018-09-22T08:39:24Z</time>
      </trkpt>
      <trkpt lat="42.294117" lon="1.714897">
        <ele>2079.965</ele>
        <time>2018-09-22T08:39:25Z</time>
      </trkpt>
      <trkpt lat="42.294092" lon="1.714861">
        <ele>2081.067</ele>
        <time>2018-09-22T08:39:28Z</time>
      </trkpt>
      <trkpt lat="42.294087" lon="1.714848">
        <ele>2081.379</ele>
        <time>2018-09-22T08:39:29Z</time>
      </trkpt>
      <trkpt lat="42.294084" lon="1.714835">
        <ele>2081.417</ele>
        <time>2018-09-22T08:39:30Z</time>
      </trkpt>
      <trkpt lat="42.294081" lon="1.714810">
        <ele>2081.787</ele>
        <time>2018-09-22T08:39:32Z</time>
      </trkpt>
      <trkpt lat="42.294068" lon="1.714740">
        <ele>2082.515</ele>
        <time>2018-09-22T08:39:36Z</time>
      </trkpt>
      <trkpt lat="42.294065" lon="1.714724">
        <ele>2082.708</ele>
        <time>2018-09-22T08:39:37Z</time>
      </trkpt>
      <trkpt lat="42.294042" lon="1.714622">
        <ele>2085.213</ele>
        <time>2018-09-22T08:39:44Z</time>
      </trkpt>
      <trkpt lat="42.294023" lon="1.714581">
        <ele>2086.729</ele>
        <time>2018-09-22T08:39:48Z</time>
      </trkpt>
      <trkpt lat="42.294020" lon="1.714569">
        <ele>2087.060</ele>
        <time>2018-09-22T08:39:49Z</time>
      </trkpt>
      <trkpt lat="42.294018" lon="1.714553">
        <ele>2087.434</ele>
        <time>2018-09-22T08:39:50Z</time>
      </trkpt>
      <trkpt lat="42.294016" lon="1.714538">
        <ele>2087.730</ele>
        <time>2018-09-22T08:39:51Z</time>
      </trkpt>
      <trkpt lat="42.294043" lon="1.714480">
        <ele>2087.350</ele>
        <time>2018-09-22T08:39:56Z</time>
      </trkpt>
      <trkpt lat="42.294047" lon="1.714468">
        <ele>2087.242</ele>
        <time>2018-09-22T08:39:57Z</time>
      </trkpt>
      <trkpt lat="42.294059" lon="1.714435">
        <ele>2087.254</ele>
        <time>2018-09-22T08:40:00Z</time>
      </trkpt>
      <trkpt lat="42.294063" lon="1.714411">
        <ele>2087.764</ele>
        <time>2018-09-22T08:40:02Z</time>
      </trkpt>
      <trkpt lat="42.294064" lon="1.714377">
        <ele>2088.606</ele>
        <time>2018-09-22T08:40:05Z</time>
      </trkpt>
      <trkpt lat="42.294069" lon="1.714349">
        <ele>2089.116</ele>
        <time>2018-09-22T08:40:07Z</time>
      </trkpt>
      <trkpt lat="42.294078" lon="1.714324">
        <ele>2089.408</ele>
        <time>2018-09-22T08:40:09Z</time>
      </trkpt>
      <trkpt lat="42.294100" lon="1.714266">
        <ele>2090.118</ele>
        <time>2018-09-22T08:40:13Z</time>
      </trkpt>
      <trkpt lat="42.294098" lon="1.714252">
        <ele>2090.574</ele>
        <time>2018-09-22T08:40:14Z</time>
      </trkpt>
      <trkpt lat="42.294098" lon="1.714233">
        <ele>2091.135</ele>
        <time>2018-09-22T08:40:15Z</time>
      </trkpt>
      <trkpt lat="42.294100" lon="1.714171">
        <ele>2092.789</ele>
        <time>2018-09-22T08:40:19Z</time>
      </trkpt>
      <trkpt lat="42.294108" lon="1.714134">
        <ele>2093.485</ele>
        <time>2018-09-22T08:40:22Z</time>
      </trkpt>
      <trkpt lat="42.294114" lon="1.714115">
        <ele>2093.755</ele>
        <time>2018-09-22T08:40:24Z</time>
      </trkpt>
      <trkpt lat="42.294113" lon="1.714097">
        <ele>2094.267</ele>
        <time>2018-09-22T08:40:25Z</time>
      </trkpt>
      <trkpt lat="42.294115" lon="1.714067">
        <ele>2095.069</ele>
        <time>2018-09-22T08:40:27Z</time>
      </trkpt>
      <trkpt lat="42.294117" lon="1.714057">
        <ele>2095.227</ele>
        <time>2018-09-22T08:40:28Z</time>
      </trkpt>
      <trkpt lat="42.294119" lon="1.714026">
        <ele>2096.068</ele>
        <time>2018-09-22T08:40:31Z</time>
      </trkpt>
      <trkpt lat="42.294127" lon="1.714001">
        <ele>2096.414</ele>
        <time>2018-09-22T08:40:34Z</time>
      </trkpt>
      <trkpt lat="42.294130" lon="1.713995">
        <ele>2096.408</ele>
        <time>2018-09-22T08:40:35Z</time>
      </trkpt>
      <trkpt lat="42.294142" lon="1.713931">
        <ele>2097.724</ele>
        <time>2018-09-22T08:40:40Z</time>
      </trkpt>
      <trkpt lat="42.294142" lon="1.713914">
        <ele>2098.210</ele>
        <time>2018-09-22T08:40:41Z</time>
      </trkpt>
      <trkpt lat="42.294142" lon="1.713904">
        <ele>2098.551</ele>
        <time>2018-09-22T08:40:42Z</time>
      </trkpt>
      <trkpt lat="42.294145" lon="1.713894">
        <ele>2098.715</ele>
        <time>2018-09-22T08:40:43Z</time>
      </trkpt>
      <trkpt lat="42.294147" lon="1.713882">
        <ele>2098.991</ele>
        <time>2018-09-22T08:40:44Z</time>
      </trkpt>
      <trkpt lat="42.294150" lon="1.713858">
        <ele>2099.141</ele>
        <time>2018-09-22T08:40:46Z</time>
      </trkpt>
      <trkpt lat="42.294152" lon="1.713825">
        <ele>2099.723</ele>
        <time>2018-09-22T08:40:48Z</time>
      </trkpt>
      <trkpt lat="42.294154" lon="1.713810">
        <ele>2099.895</ele>
        <time>2018-09-22T08:40:49Z</time>
      </trkpt>
      <trkpt lat="42.294158" lon="1.713796">
        <ele>2099.917</ele>
        <time>2018-09-22T08:40:50Z</time>
      </trkpt>
      <trkpt lat="42.294162" lon="1.713787">
        <ele>2099.987</ele>
        <time>2018-09-22T08:40:51Z</time>
      </trkpt>
      <trkpt lat="42.294172" lon="1.713782">
        <ele>2099.515</ele>
        <time>2018-09-22T08:40:52Z</time>
      </trkpt>
      <trkpt lat="42.294179" lon="1.713771">
        <ele>2099.308</ele>
        <time>2018-09-22T08:40:53Z</time>
      </trkpt>
      <trkpt lat="42.294193" lon="1.713720">
        <ele>2099.313</ele>
        <time>2018-09-22T08:40:57Z</time>
      </trkpt>
      <trkpt lat="42.294198" lon="1.713697">
        <ele>2099.579</ele>
        <time>2018-09-22T08:40:59Z</time>
      </trkpt>
      <trkpt lat="42.294188" lon="1.713656">
        <ele>2100.840</ele>
        <time>2018-09-22T08:41:02Z</time>
      </trkpt>
      <trkpt lat="42.294185" lon="1.713647">
        <ele>2101.224</ele>
        <time>2018-09-22T08:41:03Z</time>
      </trkpt>
      <trkpt lat="42.294177" lon="1.713626">
        <ele>2102.050</ele>
        <time>2018-09-22T08:41:05Z</time>
      </trkpt>
      <trkpt lat="42.294175" lon="1.713603">
        <ele>2102.490</ele>
        <time>2018-09-22T08:41:07Z</time>
      </trkpt>
      <trkpt lat="42.294175" lon="1.713590">
        <ele>2102.542</ele>
        <time>2018-09-22T08:41:08Z</time>
      </trkpt>
      <trkpt lat="42.294171" lon="1.713530">
        <ele>2102.754</ele>
        <time>2018-09-22T08:41:12Z</time>
      </trkpt>
      <trkpt lat="42.294135" lon="1.713407">
        <ele>2103.758</ele>
        <time>2018-09-22T08:41:21Z</time>
      </trkpt>
      <trkpt lat="42.294128" lon="1.713405">
        <ele>2103.952</ele>
        <time>2018-09-22T08:41:22Z</time>
      </trkpt>
      <trkpt lat="42.294120" lon="1.713405">
        <ele>2104.117</ele>
        <time>2018-09-22T08:41:23Z</time>
      </trkpt>
      <trkpt lat="42.294113" lon="1.713409">
        <ele>2104.308</ele>
        <time>2018-09-22T08:41:24Z</time>
      </trkpt>
      <trkpt lat="42.294081" lon="1.713448">
        <ele>2105.227</ele>
        <time>2018-09-22T08:41:28Z</time>
      </trkpt>
      <trkpt lat="42.294020" lon="1.713507">
        <ele>2107.133</ele>
        <time>2018-09-22T08:41:35Z</time>
      </trkpt>
      <trkpt lat="42.293984" lon="1.713536">
        <ele>2108.334</ele>
        <time>2018-09-22T08:41:39Z</time>
      </trkpt>
      <trkpt lat="42.293959" lon="1.713569">
        <ele>2109.338</ele>
        <time>2018-09-22T08:41:42Z</time>
      </trkpt>
      <trkpt lat="42.293931" lon="1.713631">
        <ele>2110.474</ele>
        <time>2018-09-22T08:41:46Z</time>
      </trkpt>
      <trkpt lat="42.293889" lon="1.713753">
        <ele>2110.464</ele>
        <time>2018-09-22T08:41:54Z</time>
      </trkpt>
      <trkpt lat="42.293867" lon="1.713807">
        <ele>2110.816</ele>
        <time>2018-09-22T08:41:58Z</time>
      </trkpt>
      <trkpt lat="42.293842" lon="1.713878">
        <ele>2111.388</ele>
        <time>2018-09-22T08:42:03Z</time>
      </trkpt>
      <trkpt lat="42.293818" lon="1.713907">
        <ele>2111.858</ele>
        <time>2018-09-22T08:42:06Z</time>
      </trkpt>
      <trkpt lat="42.293800" lon="1.713913">
        <ele>2112.552</ele>
        <time>2018-09-22T08:42:08Z</time>
      </trkpt>
      <trkpt lat="42.293791" lon="1.713920">
        <ele>2112.817</ele>
        <time>2018-09-22T08:42:09Z</time>
      </trkpt>
      <trkpt lat="42.293781" lon="1.713929">
        <ele>2113.108</ele>
        <time>2018-09-22T08:42:10Z</time>
      </trkpt>
      <trkpt lat="42.293746" lon="1.713952">
        <ele>2114.297</ele>
        <time>2018-09-22T08:42:14Z</time>
      </trkpt>
      <trkpt lat="42.293736" lon="1.713960">
        <ele>2114.413</ele>
        <time>2018-09-22T08:42:15Z</time>
      </trkpt>
      <trkpt lat="42.293718" lon="1.713978">
        <ele>2114.944</ele>
        <time>2018-09-22T08:42:17Z</time>
      </trkpt>
      <trkpt lat="42.293697" lon="1.714028">
        <ele>2114.828</ele>
        <time>2018-09-22T08:42:21Z</time>
      </trkpt>
      <trkpt lat="42.293683" lon="1.714065">
        <ele>2114.654</ele>
        <time>2018-09-22T08:42:24Z</time>
      </trkpt>
      <trkpt lat="42.293674" lon="1.714078">
        <ele>2114.814</ele>
        <time>2018-09-22T08:42:26Z</time>
      </trkpt>
      <trkpt lat="42.293645" lon="1.714103">
        <ele>2115.626</ele>
        <time>2018-09-22T08:42:29Z</time>
      </trkpt>
      <trkpt lat="42.293569" lon="1.714160">
        <ele>2117.228</ele>
        <time>2018-09-22T08:42:36Z</time>
      </trkpt>
      <trkpt lat="42.293553" lon="1.714158">
        <ele>2117.647</ele>
        <time>2018-09-22T08:42:38Z</time>
      </trkpt>
      <trkpt lat="42.293533" lon="1.714165">
        <ele>2118.029</ele>
        <time>2018-09-22T08:42:40Z</time>
      </trkpt>
      <trkpt lat="42.293499" lon="1.714170">
        <ele>2118.721</ele>
        <time>2018-09-22T08:42:43Z</time>
      </trkpt>
      <trkpt lat="42.293474" lon="1.714168">
        <ele>2119.408</ele>
        <time>2018-09-22T08:42:45Z</time>
      </trkpt>
      <trkpt lat="42.293401" lon="1.714144">
        <ele>2121.796</ele>
        <time>2018-09-22T08:42:51Z</time>
      </trkpt>
      <trkpt lat="42.293388" lon="1.714136">
        <ele>2122.222</ele>
        <time>2018-09-22T08:42:52Z</time>
      </trkpt>
      <trkpt lat="42.293363" lon="1.714123">
        <ele>2123.233</ele>
        <time>2018-09-22T08:42:54Z</time>
      </trkpt>
      <trkpt lat="42.293348" lon="1.714115">
        <ele>2123.787</ele>
        <time>2018-09-22T08:42:55Z</time>
      </trkpt>
      <trkpt lat="42.293242" lon="1.714115">
        <ele>2125.313</ele>
        <time>2018-09-22T08:43:03Z</time>
      </trkpt>
      <trkpt lat="42.293215" lon="1.714096">
        <ele>2125.913</ele>
        <time>2018-09-22T08:43:06Z</time>
      </trkpt>
      <trkpt lat="42.293172" lon="1.714125">
        <ele>2126.145</ele>
        <time>2018-09-22T08:43:10Z</time>
      </trkpt>
      <trkpt lat="42.293157" lon="1.714141">
        <ele>2126.337</ele>
        <time>2018-09-22T08:43:12Z</time>
      </trkpt>
      <trkpt lat="42.293138" lon="1.714164">
        <ele>2126.588</ele>
        <time>2018-09-22T08:43:14Z</time>
      </trkpt>
      <trkpt lat="42.293087" lon="1.714188">
        <ele>2127.724</ele>
        <time>2018-09-22T08:43:18Z</time>
      </trkpt>
      <trkpt lat="42.293018" lon="1.714191">
        <ele>2128.826</ele>
        <time>2018-09-22T08:43:23Z</time>
      </trkpt>
      <trkpt lat="42.292955" lon="1.714217">
        <ele>2129.908</ele>
        <time>2018-09-22T08:43:29Z</time>
      </trkpt>
      <trkpt lat="42.292903" lon="1.714235">
        <ele>2130.730</ele>
        <time>2018-09-22T08:43:34Z</time>
      </trkpt>
      <trkpt lat="42.292883" lon="1.714240">
        <ele>2131.096</ele>
        <time>2018-09-22T08:43:36Z</time>
      </trkpt>
      <trkpt lat="42.292818" lon="1.714270">
        <ele>2132.127</ele>
        <time>2018-09-22T08:43:41Z</time>
      </trkpt>
      <trkpt lat="42.292758" lon="1.714303">
        <ele>2133.391</ele>
        <time>2018-09-22T08:43:46Z</time>
      </trkpt>
      <trkpt lat="42.292725" lon="1.714327">
        <ele>2134.357</ele>
        <time>2018-09-22T08:43:49Z</time>
      </trkpt>
      <trkpt lat="42.292688" lon="1.714343">
        <ele>2135.197</ele>
        <time>2018-09-22T08:43:53Z</time>
      </trkpt>
      <trkpt lat="42.292683" lon="1.714351">
        <ele>2135.349</ele>
        <time>2018-09-22T08:43:54Z</time>
      </trkpt>
      <trkpt lat="42.292663" lon="1.714386">
        <ele>2136.091</ele>
        <time>2018-09-22T08:43:57Z</time>
      </trkpt>
      <trkpt lat="42.292617" lon="1.714403">
        <ele>2136.965</ele>
        <time>2018-09-22T08:44:01Z</time>
      </trkpt>
      <trkpt lat="42.292604" lon="1.714415">
        <ele>2137.268</ele>
        <time>2018-09-22T08:44:02Z</time>
      </trkpt>
      <trkpt lat="42.292575" lon="1.714448">
        <ele>2137.914</ele>
        <time>2018-09-22T08:44:05Z</time>
      </trkpt>
      <trkpt lat="42.292568" lon="1.714475">
        <ele>2138.508</ele>
        <time>2018-09-22T08:44:07Z</time>
      </trkpt>
      <trkpt lat="42.292570" lon="1.714517">
        <ele>2139.378</ele>
        <time>2018-09-22T08:44:11Z</time>
      </trkpt>
      <trkpt lat="42.292573" lon="1.714529">
        <ele>2139.534</ele>
        <time>2018-09-22T08:44:12Z</time>
      </trkpt>
      <trkpt lat="42.292589" lon="1.714596">
        <ele>2140.425</ele>
        <time>2018-09-22T08:44:17Z</time>
      </trkpt>
      <trkpt lat="42.292601" lon="1.714628">
        <ele>2140.719</ele>
        <time>2018-09-22T08:44:19Z</time>
      </trkpt>
      <trkpt lat="42.292609" lon="1.714666">
        <ele>2141.255</ele>
        <time>2018-09-22T08:44:22Z</time>
      </trkpt>
      <trkpt lat="42.292607" lon="1.714675">
        <ele>2141.485</ele>
        <time>2018-09-22T08:44:23Z</time>
      </trkpt>
      <trkpt lat="42.292601" lon="1.714696">
        <ele>2141.987</ele>
        <time>2018-09-22T08:44:25Z</time>
      </trkpt>
      <trkpt lat="42.292595" lon="1.714715">
        <ele>2142.459</ele>
        <time>2018-09-22T08:44:27Z</time>
      </trkpt>
      <trkpt lat="42.292596" lon="1.714731">
        <ele>2142.649</ele>
        <time>2018-09-22T08:44:28Z</time>
      </trkpt>
      <trkpt lat="42.292598" lon="1.714767">
        <ele>2142.902</ele>
        <time>2018-09-22T08:44:31Z</time>
      </trkpt>
      <trkpt lat="42.292597" lon="1.714778">
        <ele>2143.022</ele>
        <time>2018-09-22T08:44:32Z</time>
      </trkpt>
      <trkpt lat="42.292588" lon="1.714804">
        <ele>2143.508</ele>
        <time>2018-09-22T08:44:34Z</time>
      </trkpt>
      <trkpt lat="42.292589" lon="1.714828">
        <ele>2143.786</ele>
        <time>2018-09-22T08:44:36Z</time>
      </trkpt>
      <trkpt lat="42.292578" lon="1.714876">
        <ele>2144.552</ele>
        <time>2018-09-22T08:44:39Z</time>
      </trkpt>
      <trkpt lat="42.292549" lon="1.714901">
        <ele>2145.593</ele>
        <time>2018-09-22T08:44:42Z</time>
      </trkpt>
      <trkpt lat="42.292536" lon="1.714899">
        <ele>2145.967</ele>
        <time>2018-09-22T08:44:43Z</time>
      </trkpt>
      <trkpt lat="42.292481" lon="1.714848">
        <ele>2146.973</ele>
        <time>2018-09-22T08:44:50Z</time>
      </trkpt>
      <trkpt lat="42.292440" lon="1.714818">
        <ele>2147.963</ele>
        <time>2018-09-22T08:44:54Z</time>
      </trkpt>
      <trkpt lat="42.292411" lon="1.714797">
        <ele>2148.655</ele>
        <time>2018-09-22T08:44:58Z</time>
      </trkpt>
      <trkpt lat="42.292338" lon="1.714772">
        <ele>2150.587</ele>
        <time>2018-09-22T08:45:04Z</time>
      </trkpt>
      <trkpt lat="42.292330" lon="1.714770">
        <ele>2150.715</ele>
        <time>2018-09-22T08:45:05Z</time>
      </trkpt>
      <trkpt lat="42.292273" lon="1.714739">
        <ele>2151.865</ele>
        <time>2018-09-22T08:45:11Z</time>
      </trkpt>
      <trkpt lat="42.292258" lon="1.714734">
        <ele>2152.211</ele>
        <time>2018-09-22T08:45:12Z</time>
      </trkpt>
      <trkpt lat="42.292245" lon="1.714729">
        <ele>2152.408</ele>
        <time>2018-09-22T08:45:13Z</time>
      </trkpt>
      <trkpt lat="42.292219" lon="1.714711">
        <ele>2152.943</ele>
        <time>2018-09-22T08:45:15Z</time>
      </trkpt>
      <trkpt lat="42.292209" lon="1.714698">
        <ele>2153.349</ele>
        <time>2018-09-22T08:45:16Z</time>
      </trkpt>
      <trkpt lat="42.292165" lon="1.714618">
        <ele>2154.250</ele>
        <time>2018-09-22T08:45:21Z</time>
      </trkpt>
      <trkpt lat="42.292123" lon="1.714500">
        <ele>2154.284</ele>
        <time>2018-09-22T08:45:28Z</time>
      </trkpt>
      <trkpt lat="42.292111" lon="1.714477">
        <ele>2154.320</ele>
        <time>2018-09-22T08:45:30Z</time>
      </trkpt>
      <trkpt lat="42.292067" lon="1.714471">
        <ele>2156.240</ele>
        <time>2018-09-22T08:45:33Z</time>
      </trkpt>
      <trkpt lat="42.292031" lon="1.714468">
        <ele>2157.722</ele>
        <time>2018-09-22T08:45:36Z</time>
      </trkpt>
      <trkpt lat="42.292020" lon="1.714477">
        <ele>2158.394</ele>
        <time>2018-09-22T08:45:37Z</time>
      </trkpt>
      <trkpt lat="42.292011" lon="1.714492">
        <ele>2159.096</ele>
        <time>2018-09-22T08:45:38Z</time>
      </trkpt>
      <trkpt lat="42.292008" lon="1.714524">
        <ele>2159.831</ele>
        <time>2018-09-22T08:45:40Z</time>
      </trkpt>
      <trkpt lat="42.292022" lon="1.714565">
        <ele>2160.024</ele>
        <time>2018-09-22T08:45:43Z</time>
      </trkpt>
      <trkpt lat="42.292033" lon="1.714600">
        <ele>2160.108</ele>
        <time>2018-09-22T08:45:45Z</time>
      </trkpt>
      <trkpt lat="42.292039" lon="1.714649">
        <ele>2160.881</ele>
        <time>2018-09-22T08:45:48Z</time>
      </trkpt>
      <trkpt lat="42.292040" lon="1.714692">
        <ele>2161.617</ele>
        <time>2018-09-22T08:45:51Z</time>
      </trkpt>
      <trkpt lat="42.292041" lon="1.714738">
        <ele>2162.348</ele>
        <time>2018-09-22T08:45:54Z</time>
      </trkpt>
      <trkpt lat="42.292043" lon="1.714754">
        <ele>2162.512</ele>
        <time>2018-09-22T08:45:55Z</time>
      </trkpt>
      <trkpt lat="42.292046" lon="1.714768">
        <ele>2162.678</ele>
        <time>2018-09-22T08:45:56Z</time>
      </trkpt>
      <trkpt lat="42.292050" lon="1.714794">
        <ele>2162.938</ele>
        <time>2018-09-22T08:45:58Z</time>
      </trkpt>
      <trkpt lat="42.292059" lon="1.714857">
        <ele>2163.560</ele>
        <time>2018-09-22T08:46:02Z</time>
      </trkpt>
      <trkpt lat="42.292065" lon="1.714912">
        <ele>2164.222</ele>
        <time>2018-09-22T08:46:06Z</time>
      </trkpt>
      <trkpt lat="42.292075" lon="1.714958">
        <ele>2164.517</ele>
        <time>2018-09-22T08:46:09Z</time>
      </trkpt>
      <trkpt lat="42.292078" lon="1.714971">
        <ele>2164.787</ele>
        <time>2018-09-22T08:46:10Z</time>
      </trkpt>
      <trkpt lat="42.292078" lon="1.714985">
        <ele>2164.915</ele>
        <time>2018-09-22T08:46:11Z</time>
      </trkpt>
      <trkpt lat="42.292075" lon="1.715008">
        <ele>2165.408</ele>
        <time>2018-09-22T08:46:13Z</time>
      </trkpt>
      <trkpt lat="42.292066" lon="1.715014">
        <ele>2165.973</ele>
        <time>2018-09-22T08:46:14Z</time>
      </trkpt>
      <trkpt lat="42.292052" lon="1.715014">
        <ele>2166.599</ele>
        <time>2018-09-22T08:46:15Z</time>
      </trkpt>
      <trkpt lat="42.292028" lon="1.715010">
        <ele>2167.590</ele>
        <time>2018-09-22T08:46:17Z</time>
      </trkpt>
      <trkpt lat="42.292004" lon="1.715007">
        <ele>2168.564</ele>
        <time>2018-09-22T08:46:19Z</time>
      </trkpt>
      <trkpt lat="42.291981" lon="1.715000">
        <ele>2169.460</ele>
        <time>2018-09-22T08:46:21Z</time>
      </trkpt>
      <trkpt lat="42.291953" lon="1.714990">
        <ele>2170.450</ele>
        <time>2018-09-22T08:46:23Z</time>
      </trkpt>
      <trkpt lat="42.291941" lon="1.714985">
        <ele>2170.982</ele>
        <time>2018-09-22T08:46:24Z</time>
      </trkpt>
      <trkpt lat="42.291931" lon="1.714981">
        <ele>2171.254</ele>
        <time>2018-09-22T08:46:25Z</time>
      </trkpt>
      <trkpt lat="42.291908" lon="1.714972">
        <ele>2171.957</ele>
        <time>2018-09-22T08:46:27Z</time>
      </trkpt>
      <trkpt lat="42.291850" lon="1.714942">
        <ele>2173.600</ele>
        <time>2018-09-22T08:46:32Z</time>
      </trkpt>
      <trkpt lat="42.291804" lon="1.714919">
        <ele>2175.020</ele>
        <time>2018-09-22T08:46:36Z</time>
      </trkpt>
      <trkpt lat="42.291769" lon="1.714853">
        <ele>2175.508</ele>
        <time>2018-09-22T08:46:41Z</time>
      </trkpt>
      <trkpt lat="42.291749" lon="1.714827">
        <ele>2176.067</ele>
        <time>2018-09-22T08:46:44Z</time>
      </trkpt>
      <trkpt lat="42.291742" lon="1.714830">
        <ele>2176.213</ele>
        <time>2018-09-22T08:46:45Z</time>
      </trkpt>
      <trkpt lat="42.291721" lon="1.714912">
        <ele>2178.074</ele>
        <time>2018-09-22T08:46:51Z</time>
      </trkpt>
      <trkpt lat="42.291715" lon="1.714924">
        <ele>2178.318</ele>
        <time>2018-09-22T08:46:52Z</time>
      </trkpt>
      <trkpt lat="42.291705" lon="1.714943">
        <ele>2178.934</ele>
        <time>2018-09-22T08:46:54Z</time>
      </trkpt>
      <trkpt lat="42.291701" lon="1.714953">
        <ele>2179.244</ele>
        <time>2018-09-22T08:46:55Z</time>
      </trkpt>
      <trkpt lat="42.291685" lon="1.714987">
        <ele>2180.236</ele>
        <time>2018-09-22T08:46:58Z</time>
      </trkpt>
      <trkpt lat="42.291659" lon="1.715054">
        <ele>2182.168</ele>
        <time>2018-09-22T08:47:04Z</time>
      </trkpt>
      <trkpt lat="42.291665" lon="1.715077">
        <ele>2182.459</ele>
        <time>2018-09-22T08:47:06Z</time>
      </trkpt>
      <trkpt lat="42.291674" lon="1.715089">
        <ele>2182.303</ele>
        <time>2018-09-22T08:47:07Z</time>
      </trkpt>
      <trkpt lat="42.291687" lon="1.715118">
        <ele>2182.423</ele>
        <time>2018-09-22T08:47:09Z</time>
      </trkpt>
      <trkpt lat="42.291684" lon="1.715143">
        <ele>2182.908</ele>
        <time>2018-09-22T08:47:11Z</time>
      </trkpt>
      <trkpt lat="42.291679" lon="1.715150">
        <ele>2183.227</ele>
        <time>2018-09-22T08:47:12Z</time>
      </trkpt>
      <trkpt lat="42.291668" lon="1.715153">
        <ele>2183.783</ele>
        <time>2018-09-22T08:47:13Z</time>
      </trkpt>
      <trkpt lat="42.291634" lon="1.715142">
        <ele>2184.384</ele>
        <time>2018-09-22T08:47:16Z</time>
      </trkpt>
      <trkpt lat="42.291609" lon="1.715149">
        <ele>2185.138</ele>
        <time>2018-09-22T08:47:19Z</time>
      </trkpt>
      <trkpt lat="42.291582" lon="1.715160">
        <ele>2185.964</ele>
        <time>2018-09-22T08:47:22Z</time>
      </trkpt>
      <trkpt lat="42.291562" lon="1.715172">
        <ele>2186.554</ele>
        <time>2018-09-22T08:47:24Z</time>
      </trkpt>
      <trkpt lat="42.291538" lon="1.715186">
        <ele>2187.226</ele>
        <time>2018-09-22T08:47:26Z</time>
      </trkpt>
      <trkpt lat="42.291525" lon="1.715187">
        <ele>2187.528</ele>
        <time>2018-09-22T08:47:27Z</time>
      </trkpt>
      <trkpt lat="42.291511" lon="1.715181">
        <ele>2187.815</ele>
        <time>2018-09-22T08:47:28Z</time>
      </trkpt>
      <trkpt lat="42.291454" lon="1.715162">
        <ele>2189.065</ele>
        <time>2018-09-22T08:47:32Z</time>
      </trkpt>
      <trkpt lat="42.291448" lon="1.715146">
        <ele>2189.011</ele>
        <time>2018-09-22T08:47:33Z</time>
      </trkpt>
      <trkpt lat="42.291399" lon="1.715083">
        <ele>2190.008</ele>
        <time>2018-09-22T08:47:38Z</time>
      </trkpt>
      <trkpt lat="42.291362" lon="1.715035">
        <ele>2191.713</ele>
        <time>2018-09-22T08:47:42Z</time>
      </trkpt>
      <trkpt lat="42.291354" lon="1.715021">
        <ele>2192.159</ele>
        <time>2018-09-22T08:47:43Z</time>
      </trkpt>
      <trkpt lat="42.291324" lon="1.714985">
        <ele>2193.710</ele>
        <time>2018-09-22T08:47:47Z</time>
      </trkpt>
      <trkpt lat="42.291308" lon="1.714945">
        <ele>2194.744</ele>
        <time>2018-09-22T08:47:50Z</time>
      </trkpt>
      <trkpt lat="42.291296" lon="1.714926">
        <ele>2195.480</ele>
        <time>2018-09-22T08:47:52Z</time>
      </trkpt>
      <trkpt lat="42.291288" lon="1.714897">
        <ele>2195.910</ele>
        <time>2018-09-22T08:47:54Z</time>
      </trkpt>
      <trkpt lat="42.291279" lon="1.714873">
        <ele>2196.592</ele>
        <time>2018-09-22T08:47:56Z</time>
      </trkpt>
      <trkpt lat="42.291261" lon="1.714832">
        <ele>2197.694</ele>
        <time>2018-09-22T08:47:59Z</time>
      </trkpt>
      <trkpt lat="42.291252" lon="1.714800">
        <ele>2198.252</ele>
        <time>2018-09-22T08:48:01Z</time>
      </trkpt>
      <trkpt lat="42.291242" lon="1.714774">
        <ele>2198.953</ele>
        <time>2018-09-22T08:48:03Z</time>
      </trkpt>
      <trkpt lat="42.291218" lon="1.714740">
        <ele>2200.408</ele>
        <time>2018-09-22T08:48:07Z</time>
      </trkpt>
      <trkpt lat="42.291213" lon="1.714731">
        <ele>2200.708</ele>
        <time>2018-09-22T08:48:08Z</time>
      </trkpt>
      <trkpt lat="42.291206" lon="1.714711">
        <ele>2201.287</ele>
        <time>2018-09-22T08:48:10Z</time>
      </trkpt>
      <trkpt lat="42.291192" lon="1.714652">
        <ele>2202.373</ele>
        <time>2018-09-22T08:48:14Z</time>
      </trkpt>
      <trkpt lat="42.291189" lon="1.714640">
        <ele>2202.674</ele>
        <time>2018-09-22T08:48:15Z</time>
      </trkpt>
      <trkpt lat="42.291183" lon="1.714611">
        <ele>2203.088</ele>
        <time>2018-09-22T08:48:18Z</time>
      </trkpt>
      <trkpt lat="42.291171" lon="1.714599">
        <ele>2203.984</ele>
        <time>2018-09-22T08:48:20Z</time>
      </trkpt>
      <trkpt lat="42.291161" lon="1.714582">
        <ele>2204.534</ele>
        <time>2018-09-22T08:48:22Z</time>
      </trkpt>
      <trkpt lat="42.291157" lon="1.714575">
        <ele>2204.886</ele>
        <time>2018-09-22T08:48:23Z</time>
      </trkpt>
      <trkpt lat="42.291142" lon="1.714540">
        <ele>2205.888</ele>
        <time>2018-09-22T08:48:26Z</time>
      </trkpt>
      <trkpt lat="42.291142" lon="1.714527">
        <ele>2205.863</ele>
        <time>2018-09-22T08:48:27Z</time>
      </trkpt>
      <trkpt lat="42.291145" lon="1.714511">
        <ele>2205.744</ele>
        <time>2018-09-22T08:48:31Z</time>
      </trkpt>
      <trkpt lat="42.291128" lon="1.714494">
        <ele>2206.818</ele>
        <time>2018-09-22T08:48:34Z</time>
      </trkpt>
      <trkpt lat="42.291104" lon="1.714461">
        <ele>2208.108</ele>
        <time>2018-09-22T08:48:37Z</time>
      </trkpt>
      <trkpt lat="42.291092" lon="1.714437">
        <ele>2208.548</ele>
        <time>2018-09-22T08:48:39Z</time>
      </trkpt>
      <trkpt lat="42.291082" lon="1.714396">
        <ele>2209.054</ele>
        <time>2018-09-22T08:48:43Z</time>
      </trkpt>
      <trkpt lat="42.291080" lon="1.714387">
        <ele>2209.145</ele>
        <time>2018-09-22T08:48:44Z</time>
      </trkpt>
      <trkpt lat="42.291076" lon="1.714304">
        <ele>2209.639</ele>
        <time>2018-09-22T08:48:50Z</time>
      </trkpt>
      <trkpt lat="42.291073" lon="1.714290">
        <ele>2209.725</ele>
        <time>2018-09-22T08:48:51Z</time>
      </trkpt>
      <trkpt lat="42.291023" lon="1.714175">
        <ele>2210.915</ele>
        <time>2018-09-22T08:48:59Z</time>
      </trkpt>
      <trkpt lat="42.290949" lon="1.714096">
        <ele>2211.747</ele>
        <time>2018-09-22T08:49:07Z</time>
      </trkpt>
      <trkpt lat="42.290918" lon="1.714067">
        <ele>2212.289</ele>
        <time>2018-09-22T08:49:11Z</time>
      </trkpt>
      <trkpt lat="42.290889" lon="1.714015">
        <ele>2212.951</ele>
        <time>2018-09-22T08:49:15Z</time>
      </trkpt>
      <trkpt lat="42.290849" lon="1.713925">
        <ele>2214.301</ele>
        <time>2018-09-22T08:49:21Z</time>
      </trkpt>
      <trkpt lat="42.290805" lon="1.713854">
        <ele>2215.811</ele>
        <time>2018-09-22T08:49:26Z</time>
      </trkpt>
      <trkpt lat="42.290756" lon="1.713798">
        <ele>2217.508</ele>
        <time>2018-09-22T08:49:32Z</time>
      </trkpt>
      <trkpt lat="42.290747" lon="1.713791">
        <ele>2217.997</ele>
        <time>2018-09-22T08:49:33Z</time>
      </trkpt>
      <trkpt lat="42.290722" lon="1.713764">
        <ele>2218.863</ele>
        <time>2018-09-22T08:49:36Z</time>
      </trkpt>
      <trkpt lat="42.290706" lon="1.713739">
        <ele>2219.364</ele>
        <time>2018-09-22T08:49:39Z</time>
      </trkpt>
      <trkpt lat="42.290701" lon="1.713735">
        <ele>2219.518</ele>
        <time>2018-09-22T08:49:40Z</time>
      </trkpt>
      <trkpt lat="42.290679" lon="1.713731">
        <ele>2220.614</ele>
        <time>2018-09-22T08:49:43Z</time>
      </trkpt>
      <trkpt lat="42.290672" lon="1.713722">
        <ele>2220.824</ele>
        <time>2018-09-22T08:49:44Z</time>
      </trkpt>
      <trkpt lat="42.290662" lon="1.713713">
        <ele>2221.386</ele>
        <time>2018-09-22T08:49:45Z</time>
      </trkpt>
      <trkpt lat="42.290655" lon="1.713702">
        <ele>2221.588</ele>
        <time>2018-09-22T08:49:46Z</time>
      </trkpt>
      <trkpt lat="42.290639" lon="1.713663">
        <ele>2222.086</ele>
        <time>2018-09-22T08:49:49Z</time>
      </trkpt>
      <trkpt lat="42.290626" lon="1.713644">
        <ele>2222.660</ele>
        <time>2018-09-22T08:49:51Z</time>
      </trkpt>
      <trkpt lat="42.290621" lon="1.713636">
        <ele>2222.826</ele>
        <time>2018-09-22T08:49:52Z</time>
      </trkpt>
      <trkpt lat="42.290616" lon="1.713624">
        <ele>2223.008</ele>
        <time>2018-09-22T08:49:53Z</time>
      </trkpt>
      <trkpt lat="42.290609" lon="1.713613">
        <ele>2223.320</ele>
        <time>2018-09-22T08:49:54Z</time>
      </trkpt>
      <trkpt lat="42.290549" lon="1.713475">
        <ele>2226.056</ele>
        <time>2018-09-22T08:50:02Z</time>
      </trkpt>
      <trkpt lat="42.290534" lon="1.713377">
        <ele>2227.067</ele>
        <time>2018-09-22T08:50:08Z</time>
      </trkpt>
      <trkpt lat="42.290516" lon="1.713342">
        <ele>2228.411</ele>
        <time>2018-09-22T08:50:11Z</time>
      </trkpt>
      <trkpt lat="42.290492" lon="1.713292">
        <ele>2230.817</ele>
        <time>2018-09-22T08:50:15Z</time>
      </trkpt>
      <trkpt lat="42.290487" lon="1.713264">
        <ele>2231.647</ele>
        <time>2018-09-22T08:50:17Z</time>
      </trkpt>
      <trkpt lat="42.290481" lon="1.713240">
        <ele>2232.399</ele>
        <time>2018-09-22T08:50:19Z</time>
      </trkpt>
      <trkpt lat="42.290477" lon="1.713229">
        <ele>2232.721</ele>
        <time>2018-09-22T08:50:20Z</time>
      </trkpt>
      <trkpt lat="42.290476" lon="1.713221">
        <ele>2232.913</ele>
        <time>2018-09-22T08:50:21Z</time>
      </trkpt>
      <trkpt lat="42.290475" lon="1.713210">
        <ele>2233.043</ele>
        <time>2018-09-22T08:50:22Z</time>
      </trkpt>
      <trkpt lat="42.290476" lon="1.713199">
        <ele>2233.107</ele>
        <time>2018-09-22T08:50:23Z</time>
      </trkpt>
      <trkpt lat="42.290472" lon="1.713186">
        <ele>2233.508</ele>
        <time>2018-09-22T08:50:24Z</time>
      </trkpt>
      <trkpt lat="42.290472" lon="1.713178">
        <ele>2233.533</ele>
        <time>2018-09-22T08:50:25Z</time>
      </trkpt>
      <trkpt lat="42.290470" lon="1.713156">
        <ele>2233.929</ele>
        <time>2018-09-22T08:50:27Z</time>
      </trkpt>
      <trkpt lat="42.290474" lon="1.713138">
        <ele>2233.870</ele>
        <time>2018-09-22T08:50:28Z</time>
      </trkpt>
      <trkpt lat="42.290466" lon="1.713078">
        <ele>2234.824</ele>
        <time>2018-09-22T08:50:32Z</time>
      </trkpt>
      <trkpt lat="42.290463" lon="1.713061">
        <ele>2235.370</ele>
        <time>2018-09-22T08:50:33Z</time>
      </trkpt>
      <trkpt lat="42.290459" lon="1.713022">
        <ele>2235.190</ele>
        <time>2018-09-22T08:50:35Z</time>
      </trkpt>
      <trkpt lat="42.290478" lon="1.712984">
        <ele>2233.362</ele>
        <time>2018-09-22T08:50:38Z</time>
      </trkpt>
      <trkpt lat="42.290511" lon="1.712947">
        <ele>2230.744</ele>
        <time>2018-09-22T08:50:43Z</time>
      </trkpt>
      <trkpt lat="42.290510" lon="1.712928">
        <ele>2230.542</ele>
        <time>2018-09-22T08:50:44Z</time>
      </trkpt>
      <trkpt lat="42.290509" lon="1.712907">
        <ele>2230.422</ele>
        <time>2018-09-22T08:50:45Z</time>
      </trkpt>
      <trkpt lat="42.290499" lon="1.712865">
        <ele>2230.514</ele>
        <time>2018-09-22T08:50:48Z</time>
      </trkpt>
      <trkpt lat="42.290392" lon="1.712679">
        <ele>2235.508</ele>
        <time>2018-09-22T08:51:03Z</time>
      </trkpt>
      <trkpt lat="42.290386" lon="1.712674">
        <ele>2235.966</ele>
        <time>2018-09-22T08:51:04Z</time>
      </trkpt>
      <trkpt lat="42.290372" lon="1.712656">
        <ele>2236.762</ele>
        <time>2018-09-22T08:51:06Z</time>
      </trkpt>
      <trkpt lat="42.290357" lon="1.712632">
        <ele>2237.723</ele>
        <time>2018-09-22T08:51:09Z</time>
      </trkpt>
      <trkpt lat="42.290335" lon="1.712598">
        <ele>2239.047</ele>
        <time>2018-09-22T08:51:13Z</time>
      </trkpt>
      <trkpt lat="42.290332" lon="1.712593">
        <ele>2239.253</ele>
        <time>2018-09-22T08:51:15Z</time>
      </trkpt>
      <trkpt lat="42.290322" lon="1.712584">
        <ele>2239.983</ele>
        <time>2018-09-22T08:51:17Z</time>
      </trkpt>
      <trkpt lat="42.290300" lon="1.712559">
        <ele>2241.435</ele>
        <time>2018-09-22T08:51:20Z</time>
      </trkpt>
      <trkpt lat="42.290296" lon="1.712544">
        <ele>2241.717</ele>
        <time>2018-09-22T08:51:21Z</time>
      </trkpt>
      <trkpt lat="42.290295" lon="1.712528">
        <ele>2241.791</ele>
        <time>2018-09-22T08:51:22Z</time>
      </trkpt>
      <trkpt lat="42.290297" lon="1.712511">
        <ele>2241.681</ele>
        <time>2018-09-22T08:51:24Z</time>
      </trkpt>
      <trkpt lat="42.290287" lon="1.712499">
        <ele>2242.219</ele>
        <time>2018-09-22T08:51:26Z</time>
      </trkpt>
      <trkpt lat="42.290274" lon="1.712471">
        <ele>2242.508</ele>
        <time>2018-09-22T08:51:29Z</time>
      </trkpt>
      <trkpt lat="42.290272" lon="1.712454">
        <ele>2242.241</ele>
        <time>2018-09-22T08:51:31Z</time>
      </trkpt>
      <trkpt lat="42.290276" lon="1.712434">
        <ele>2241.697</ele>
        <time>2018-09-22T08:51:34Z</time>
      </trkpt>
      <trkpt lat="42.290273" lon="1.712417">
        <ele>2241.428</ele>
        <time>2018-09-22T08:51:38Z</time>
      </trkpt>
      <trkpt lat="42.290274" lon="1.712415">
        <ele>2241.392</ele>
        <time>2018-09-22T08:51:41Z</time>
      </trkpt>
      <trkpt lat="42.290272" lon="1.712421">
        <ele>2241.588</ele>
        <time>2018-09-22T08:52:01Z</time>
      </trkpt>
      <trkpt lat="42.290269" lon="1.712426">
        <ele>2241.818</ele>
        <time>2018-09-22T08:52:07Z</time>
      </trkpt>
      <trkpt lat="42.290266" lon="1.712422">
        <ele>2241.980</ele>
        <time>2018-09-22T08:52:13Z</time>
      </trkpt>
      <trkpt lat="42.290263" lon="1.712421">
        <ele>2242.092</ele>
        <time>2018-09-22T08:52:17Z</time>
      </trkpt>
      <trkpt lat="42.290251" lon="1.712428">
        <ele>2242.887</ele>
        <time>2018-09-22T08:52:19Z</time>
      </trkpt>
      <trkpt lat="42.290247" lon="1.712436">
        <ele>2243.242</ele>
        <time>2018-09-22T08:52:20Z</time>
      </trkpt>
      <trkpt lat="42.290237" lon="1.712451">
        <ele>2243.926</ele>
        <time>2018-09-22T08:52:22Z</time>
      </trkpt>
      <trkpt lat="42.290229" lon="1.712457">
        <ele>2244.508</ele>
        <time>2018-09-22T08:52:23Z</time>
      </trkpt>
      <trkpt lat="42.290212" lon="1.712463">
        <ele>2245.510</ele>
        <time>2018-09-22T08:52:25Z</time>
      </trkpt>
      <trkpt lat="42.290189" lon="1.712446">
        <ele>2246.376</ele>
        <time>2018-09-22T08:52:28Z</time>
      </trkpt>
      <trkpt lat="42.290179" lon="1.712442">
        <ele>2246.717</ele>
        <time>2018-09-22T08:52:29Z</time>
      </trkpt>
      <trkpt lat="42.290170" lon="1.712440">
        <ele>2247.281</ele>
        <time>2018-09-22T08:52:31Z</time>
      </trkpt>
      <trkpt lat="42.290162" lon="1.712440">
        <ele>2247.627</ele>
        <time>2018-09-22T08:52:33Z</time>
      </trkpt>
      <trkpt lat="42.290152" lon="1.712442">
        <ele>2248.147</ele>
        <time>2018-09-22T08:52:34Z</time>
      </trkpt>
      <trkpt lat="42.290116" lon="1.712430">
        <ele>2249.819</ele>
        <time>2018-09-22T08:52:38Z</time>
      </trkpt>
      <trkpt lat="42.290098" lon="1.712434">
        <ele>2250.741</ele>
        <time>2018-09-22T08:52:40Z</time>
      </trkpt>
      <trkpt lat="42.290072" lon="1.712414">
        <ele>2251.734</ele>
        <time>2018-09-22T08:52:44Z</time>
      </trkpt>
      <trkpt lat="42.290067" lon="1.712408">
        <ele>2251.855</ele>
        <time>2018-09-22T08:52:45Z</time>
      </trkpt>
      <trkpt lat="42.290054" lon="1.712392">
        <ele>2252.210</ele>
        <time>2018-09-22T08:52:47Z</time>
      </trkpt>
      <trkpt lat="42.290044" lon="1.712384">
        <ele>2252.608</ele>
        <time>2018-09-22T08:52:49Z</time>
      </trkpt>
      <trkpt lat="42.290031" lon="1.712403">
        <ele>2253.645</ele>
        <time>2018-09-22T08:52:52Z</time>
      </trkpt>
      <trkpt lat="42.290029" lon="1.712422">
        <ele>2254.111</ele>
        <time>2018-09-22T08:52:54Z</time>
      </trkpt>
      <trkpt lat="42.290018" lon="1.712456">
        <ele>2255.262</ele>
        <time>2018-09-22T08:52:59Z</time>
      </trkpt>
      <trkpt lat="42.290009" lon="1.712445">
        <ele>2255.556</ele>
        <time>2018-09-22T08:53:01Z</time>
      </trkpt>
      <trkpt lat="42.289999" lon="1.712418">
        <ele>2255.582</ele>
        <time>2018-09-22T08:53:03Z</time>
      </trkpt>
      <trkpt lat="42.289995" lon="1.712412">
        <ele>2255.782</ele>
        <time>2018-09-22T08:53:04Z</time>
      </trkpt>
      <trkpt lat="42.289990" lon="1.712412">
        <ele>2255.924</ele>
        <time>2018-09-22T08:53:06Z</time>
      </trkpt>
      <trkpt lat="42.289986" lon="1.712415">
        <ele>2256.226</ele>
        <time>2018-09-22T08:53:07Z</time>
      </trkpt>
      <trkpt lat="42.289983" lon="1.712419">
        <ele>2256.458</ele>
        <time>2018-09-22T08:53:08Z</time>
      </trkpt>
      <trkpt lat="42.289952" lon="1.712389">
        <ele>2257.652</ele>
        <time>2018-09-22T08:53:13Z</time>
      </trkpt>
      <trkpt lat="42.289949" lon="1.712380">
        <ele>2257.617</ele>
        <time>2018-09-22T08:53:14Z</time>
      </trkpt>
      <trkpt lat="42.289926" lon="1.712390">
        <ele>2259.008</ele>
        <time>2018-09-22T08:53:17Z</time>
      </trkpt>
      <trkpt lat="42.289901" lon="1.712403">
        <ele>2260.737</ele>
        <time>2018-09-22T08:53:20Z</time>
      </trkpt>
      <trkpt lat="42.289891" lon="1.712396">
        <ele>2261.093</ele>
        <time>2018-09-22T08:53:21Z</time>
      </trkpt>
      <trkpt lat="42.289877" lon="1.712376">
        <ele>2261.464</ele>
        <time>2018-09-22T08:53:23Z</time>
      </trkpt>
      <trkpt lat="42.289872" lon="1.712353">
        <ele>2261.258</ele>
        <time>2018-09-22T08:53:26Z</time>
      </trkpt>
      <trkpt lat="42.289867" lon="1.712355">
        <ele>2261.584</ele>
        <time>2018-09-22T08:53:27Z</time>
      </trkpt>
      <trkpt lat="42.289862" lon="1.712357">
        <ele>2261.864</ele>
        <time>2018-09-22T08:53:28Z</time>
      </trkpt>
      <trkpt lat="42.289843" lon="1.712350">
        <ele>2262.776</ele>
        <time>2018-09-22T08:53:31Z</time>
      </trkpt>
      <trkpt lat="42.289835" lon="1.712345">
        <ele>2263.038</ele>
        <time>2018-09-22T08:53:32Z</time>
      </trkpt>
      <trkpt lat="42.289803" lon="1.712333">
        <ele>2264.572</ele>
        <time>2018-09-22T08:53:36Z</time>
      </trkpt>
      <trkpt lat="42.289778" lon="1.712331">
        <ele>2265.713</ele>
        <time>2018-09-22T08:53:39Z</time>
      </trkpt>
      <trkpt lat="42.289762" lon="1.712329">
        <ele>2266.514</ele>
        <time>2018-09-22T08:53:41Z</time>
      </trkpt>
      <trkpt lat="42.289744" lon="1.712318">
        <ele>2267.208</ele>
        <time>2018-09-22T08:53:44Z</time>
      </trkpt>
      <trkpt lat="42.289740" lon="1.712308">
        <ele>2267.229</ele>
        <time>2018-09-22T08:53:45Z</time>
      </trkpt>
      <trkpt lat="42.289732" lon="1.712287">
        <ele>2267.175</ele>
        <time>2018-09-22T08:53:48Z</time>
      </trkpt>
      <trkpt lat="42.289722" lon="1.712280">
        <ele>2267.446</ele>
        <time>2018-09-22T08:53:50Z</time>
      </trkpt>
      <trkpt lat="42.289708" lon="1.712324">
        <ele>2269.310</ele>
        <time>2018-09-22T08:53:55Z</time>
      </trkpt>
      <trkpt lat="42.289706" lon="1.712352">
        <ele>2270.026</ele>
        <time>2018-09-22T08:53:57Z</time>
      </trkpt>
      <trkpt lat="42.289705" lon="1.712366">
        <ele>2270.536</ele>
        <time>2018-09-22T08:53:58Z</time>
      </trkpt>
      <trkpt lat="42.289705" lon="1.712375">
        <ele>2270.758</ele>
        <time>2018-09-22T08:53:59Z</time>
      </trkpt>
      <trkpt lat="42.289701" lon="1.712387">
        <ele>2271.260</ele>
        <time>2018-09-22T08:54:00Z</time>
      </trkpt>
      <trkpt lat="42.289705" lon="1.712395">
        <ele>2271.222</ele>
        <time>2018-09-22T08:54:01Z</time>
      </trkpt>
      <trkpt lat="42.289708" lon="1.712406">
        <ele>2271.362</ele>
        <time>2018-09-22T08:54:02Z</time>
      </trkpt>
      <trkpt lat="42.289710" lon="1.712420">
        <ele>2271.608</ele>
        <time>2018-09-22T08:54:03Z</time>
      </trkpt>
      <trkpt lat="42.289708" lon="1.712434">
        <ele>2272.008</ele>
        <time>2018-09-22T08:54:04Z</time>
      </trkpt>
      <trkpt lat="42.289691" lon="1.712434">
        <ele>2273.014</ele>
        <time>2018-09-22T08:54:06Z</time>
      </trkpt>
      <trkpt lat="42.289674" lon="1.712424">
        <ele>2273.630</ele>
        <time>2018-09-22T08:54:08Z</time>
      </trkpt>
      <trkpt lat="42.289644" lon="1.712405">
        <ele>2274.761</ele>
        <time>2018-09-22T08:54:12Z</time>
      </trkpt>
      <trkpt lat="42.289632" lon="1.712401">
        <ele>2275.225</ele>
        <time>2018-09-22T08:54:14Z</time>
      </trkpt>
      <trkpt lat="42.289623" lon="1.712395">
        <ele>2275.581</ele>
        <time>2018-09-22T08:54:16Z</time>
      </trkpt>
      <trkpt lat="42.289615" lon="1.712391">
        <ele>2275.811</ele>
        <time>2018-09-22T08:54:17Z</time>
      </trkpt>
      <trkpt lat="42.289587" lon="1.712371">
        <ele>2276.793</ele>
        <time>2018-09-22T08:54:20Z</time>
      </trkpt>
      <trkpt lat="42.289569" lon="1.712346">
        <ele>2277.055</ele>
        <time>2018-09-22T08:54:22Z</time>
      </trkpt>
      <trkpt lat="42.289540" lon="1.712297">
        <ele>2277.221</ele>
        <time>2018-09-22T08:54:26Z</time>
      </trkpt>
      <trkpt lat="42.289522" lon="1.712284">
        <ele>2277.741</ele>
        <time>2018-09-22T08:54:28Z</time>
      </trkpt>
      <trkpt lat="42.289504" lon="1.712272">
        <ele>2278.405</ele>
        <time>2018-09-22T08:54:31Z</time>
      </trkpt>
      <trkpt lat="42.289500" lon="1.712269">
        <ele>2278.508</ele>
        <time>2018-09-22T08:54:32Z</time>
      </trkpt>
      <trkpt lat="42.289480" lon="1.712279">
        <ele>2279.854</ele>
        <time>2018-09-22T08:54:36Z</time>
      </trkpt>
      <trkpt lat="42.289452" lon="1.712284">
        <ele>2281.480</ele>
        <time>2018-09-22T08:54:40Z</time>
      </trkpt>
      <trkpt lat="42.289418" lon="1.712280">
        <ele>2283.311</ele>
        <time>2018-09-22T08:54:43Z</time>
      </trkpt>
      <trkpt lat="42.289385" lon="1.712251">
        <ele>2284.565</ele>
        <time>2018-09-22T08:54:47Z</time>
      </trkpt>
      <trkpt lat="42.289379" lon="1.712218">
        <ele>2284.181</ele>
        <time>2018-09-22T08:54:49Z</time>
      </trkpt>
      <trkpt lat="42.289367" lon="1.712178">
        <ele>2284.331</ele>
        <time>2018-09-22T08:54:52Z</time>
      </trkpt>
      <trkpt lat="42.289359" lon="1.712143">
        <ele>2284.363</ele>
        <time>2018-09-22T08:54:55Z</time>
      </trkpt>
      <trkpt lat="42.289338" lon="1.712111">
        <ele>2285.145</ele>
        <time>2018-09-22T08:54:58Z</time>
      </trkpt>
      <trkpt lat="42.289320" lon="1.712086">
        <ele>2286.036</ele>
        <time>2018-09-22T08:55:01Z</time>
      </trkpt>
      <trkpt lat="42.289301" lon="1.712051">
        <ele>2286.817</ele>
        <time>2018-09-22T08:55:04Z</time>
      </trkpt>
      <trkpt lat="42.289290" lon="1.712022">
        <ele>2287.118</ele>
        <time>2018-09-22T08:55:06Z</time>
      </trkpt>
      <trkpt lat="42.289285" lon="1.712006">
        <ele>2287.308</ele>
        <time>2018-09-22T08:55:07Z</time>
      </trkpt>
      <trkpt lat="42.289270" lon="1.711988">
        <ele>2288.165</ele>
        <time>2018-09-22T08:55:09Z</time>
      </trkpt>
      <trkpt lat="42.289251" lon="1.711940">
        <ele>2288.841</ele>
        <time>2018-09-22T08:55:13Z</time>
      </trkpt>
      <trkpt lat="42.289229" lon="1.711912">
        <ele>2290.082</ele>
        <time>2018-09-22T08:55:16Z</time>
      </trkpt>
      <trkpt lat="42.289216" lon="1.711897">
        <ele>2290.766</ele>
        <time>2018-09-22T08:55:18Z</time>
      </trkpt>
      <trkpt lat="42.289211" lon="1.711894">
        <ele>2291.122</ele>
        <time>2018-09-22T08:55:19Z</time>
      </trkpt>
      <trkpt lat="42.289192" lon="1.711883">
        <ele>2292.222</ele>
        <time>2018-09-22T08:55:21Z</time>
      </trkpt>
      <trkpt lat="42.289187" lon="1.711872">
        <ele>2292.594</ele>
        <time>2018-09-22T08:55:22Z</time>
      </trkpt>
      <trkpt lat="42.289185" lon="1.711861">
        <ele>2292.536</ele>
        <time>2018-09-22T08:55:23Z</time>
      </trkpt>
      <trkpt lat="42.289181" lon="1.711851">
        <ele>2292.636</ele>
        <time>2018-09-22T08:55:24Z</time>
      </trkpt>
      <trkpt lat="42.289172" lon="1.711841">
        <ele>2293.117</ele>
        <time>2018-09-22T08:55:25Z</time>
      </trkpt>
      <trkpt lat="42.289158" lon="1.711819">
        <ele>2293.818</ele>
        <time>2018-09-22T08:55:27Z</time>
      </trkpt>
      <trkpt lat="42.289141" lon="1.711805">
        <ele>2294.808</ele>
        <time>2018-09-22T08:55:29Z</time>
      </trkpt>
      <trkpt lat="42.289135" lon="1.711800">
        <ele>2295.195</ele>
        <time>2018-09-22T08:55:30Z</time>
      </trkpt>
      <trkpt lat="42.289125" lon="1.711797">
        <ele>2295.921</ele>
        <time>2018-09-22T08:55:31Z</time>
      </trkpt>
      <trkpt lat="42.289106" lon="1.711792">
        <ele>2297.132</ele>
        <time>2018-09-22T08:55:33Z</time>
      </trkpt>
      <trkpt lat="42.289073" lon="1.711772">
        <ele>2299.256</ele>
        <time>2018-09-22T08:55:36Z</time>
      </trkpt>
      <trkpt lat="42.289069" lon="1.711760">
        <ele>2299.222</ele>
        <time>2018-09-22T08:55:37Z</time>
      </trkpt>
      <trkpt lat="42.289056" lon="1.711720">
        <ele>2299.512</ele>
        <time>2018-09-22T08:55:40Z</time>
      </trkpt>
      <trkpt lat="42.289043" lon="1.711696">
        <ele>2299.944</ele>
        <time>2018-09-22T08:55:42Z</time>
      </trkpt>
      <trkpt lat="42.289036" lon="1.711687">
        <ele>2300.326</ele>
        <time>2018-09-22T08:55:43Z</time>
      </trkpt>
      <trkpt lat="42.289023" lon="1.711647">
        <ele>2300.526</ele>
        <time>2018-09-22T08:55:46Z</time>
      </trkpt>
      <trkpt lat="42.289019" lon="1.711640">
        <ele>2300.647</ele>
        <time>2018-09-22T08:55:47Z</time>
      </trkpt>
      <trkpt lat="42.288996" lon="1.711587">
        <ele>2301.211</ele>
        <time>2018-09-22T08:55:52Z</time>
      </trkpt>
      <trkpt lat="42.288989" lon="1.711567">
        <ele>2301.308</ele>
        <time>2018-09-22T08:55:53Z</time>
      </trkpt>
      <trkpt lat="42.288941" lon="1.711493">
        <ele>2303.324</ele>
        <time>2018-09-22T08:55:59Z</time>
      </trkpt>
      <trkpt lat="42.288932" lon="1.711485">
        <ele>2303.740</ele>
        <time>2018-09-22T08:56:00Z</time>
      </trkpt>
      <trkpt lat="42.288921" lon="1.711470">
        <ele>2304.241</ele>
        <time>2018-09-22T08:56:01Z</time>
      </trkpt>
      <trkpt lat="42.288911" lon="1.711463">
        <ele>2304.725</ele>
        <time>2018-09-22T08:56:02Z</time>
      </trkpt>
      <trkpt lat="42.288888" lon="1.711446">
        <ele>2306.041</ele>
        <time>2018-09-22T08:56:05Z</time>
      </trkpt>
      <trkpt lat="42.288882" lon="1.711441">
        <ele>2306.421</ele>
        <time>2018-09-22T08:56:06Z</time>
      </trkpt>
      <trkpt lat="42.288873" lon="1.711421">
        <ele>2306.663</ele>
        <time>2018-09-22T08:56:08Z</time>
      </trkpt>
      <trkpt lat="42.288869" lon="1.711411">
        <ele>2306.665</ele>
        <time>2018-09-22T08:56:09Z</time>
      </trkpt>
      <trkpt lat="42.288864" lon="1.711402">
        <ele>2306.819</ele>
        <time>2018-09-22T08:56:10Z</time>
      </trkpt>
      <trkpt lat="42.288847" lon="1.711379">
        <ele>2307.409</ele>
        <time>2018-09-22T08:56:13Z</time>
      </trkpt>
      <trkpt lat="42.288836" lon="1.711355">
        <ele>2307.719</ele>
        <time>2018-09-22T08:56:15Z</time>
      </trkpt>
      <trkpt lat="42.288827" lon="1.711345">
        <ele>2308.008</ele>
        <time>2018-09-22T08:56:16Z</time>
      </trkpt>
      <trkpt lat="42.288818" lon="1.711339">
        <ele>2308.593</ele>
        <time>2018-09-22T08:56:18Z</time>
      </trkpt>
      <trkpt lat="42.288813" lon="1.711338">
        <ele>2308.899</ele>
        <time>2018-09-22T08:56:19Z</time>
      </trkpt>
      <trkpt lat="42.288778" lon="1.711323">
        <ele>2310.730</ele>
        <time>2018-09-22T08:56:23Z</time>
      </trkpt>
      <trkpt lat="42.288770" lon="1.711319">
        <ele>2311.184</ele>
        <time>2018-09-22T08:56:24Z</time>
      </trkpt>
      <trkpt lat="42.288759" lon="1.711304">
        <ele>2311.620</ele>
        <time>2018-09-22T08:56:26Z</time>
      </trkpt>
      <trkpt lat="42.288756" lon="1.711298">
        <ele>2311.660</ele>
        <time>2018-09-22T08:56:27Z</time>
      </trkpt>
      <trkpt lat="42.288749" lon="1.711292">
        <ele>2311.982</ele>
        <time>2018-09-22T08:56:29Z</time>
      </trkpt>
      <trkpt lat="42.288717" lon="1.711274">
        <ele>2313.674</ele>
        <time>2018-09-22T08:56:33Z</time>
      </trkpt>
      <trkpt lat="42.288683" lon="1.711261">
        <ele>2315.575</ele>
        <time>2018-09-22T08:56:38Z</time>
      </trkpt>
      <trkpt lat="42.288667" lon="1.711233">
        <ele>2315.928</ele>
        <time>2018-09-22T08:56:41Z</time>
      </trkpt>
      <trkpt lat="42.288648" lon="1.711215">
        <ele>2316.820</ele>
        <time>2018-09-22T08:56:44Z</time>
      </trkpt>
      <trkpt lat="42.288615" lon="1.711202">
        <ele>2318.708</ele>
        <time>2018-09-22T08:56:48Z</time>
      </trkpt>
      <trkpt lat="42.288604" lon="1.711203">
        <ele>2319.369</ele>
        <time>2018-09-22T08:56:49Z</time>
      </trkpt>
      <trkpt lat="42.288597" lon="1.711204">
        <ele>2319.885</ele>
        <time>2018-09-22T08:56:50Z</time>
      </trkpt>
      <trkpt lat="42.288600" lon="1.711200">
        <ele>2319.666</ele>
        <time>2018-09-22T08:56:52Z</time>
      </trkpt>
      <trkpt lat="42.288554" lon="1.711186">
        <ele>2322.120</ele>
        <time>2018-09-22T08:56:59Z</time>
      </trkpt>
      <trkpt lat="42.288537" lon="1.711179">
        <ele>2322.996</ele>
        <time>2018-09-22T08:57:01Z</time>
      </trkpt>
      <trkpt lat="42.288523" lon="1.711173">
        <ele>2323.786</ele>
        <time>2018-09-22T08:57:03Z</time>
      </trkpt>
      <trkpt lat="42.288513" lon="1.711152">
        <ele>2323.878</ele>
        <time>2018-09-22T08:57:07Z</time>
      </trkpt>
      <trkpt lat="42.288499" lon="1.711139">
        <ele>2324.450</ele>
        <time>2018-09-22T08:57:10Z</time>
      </trkpt>
      <trkpt lat="42.288473" lon="1.711130">
        <ele>2325.891</ele>
        <time>2018-09-22T08:57:14Z</time>
      </trkpt>
      <trkpt lat="42.288469" lon="1.711122">
        <ele>2325.981</ele>
        <time>2018-09-22T08:57:15Z</time>
      </trkpt>
      <trkpt lat="42.288451" lon="1.711113">
        <ele>2326.819</ele>
        <time>2018-09-22T08:57:19Z</time>
      </trkpt>
      <trkpt lat="42.288450" lon="1.711114">
        <ele>2326.908</ele>
        <time>2018-09-22T08:57:20Z</time>
      </trkpt>
      <trkpt lat="42.288429" lon="1.711117">
        <ele>2328.211</ele>
        <time>2018-09-22T08:57:23Z</time>
      </trkpt>
      <trkpt lat="42.288407" lon="1.711106">
        <ele>2329.317</ele>
        <time>2018-09-22T08:57:27Z</time>
      </trkpt>
      <trkpt lat="42.288380" lon="1.711099">
        <ele>2330.768</ele>
        <time>2018-09-22T08:57:32Z</time>
      </trkpt>
      <trkpt lat="42.288370" lon="1.711098">
        <ele>2331.382</ele>
        <time>2018-09-22T08:57:33Z</time>
      </trkpt>
      <trkpt lat="42.288356" lon="1.711088">
        <ele>2331.968</ele>
        <time>2018-09-22T08:57:35Z</time>
      </trkpt>
      <trkpt lat="42.288347" lon="1.711081">
        <ele>2332.318</ele>
        <time>2018-09-22T08:57:37Z</time>
      </trkpt>
      <trkpt lat="42.288335" lon="1.711083">
        <ele>2333.030</ele>
        <time>2018-09-22T08:57:39Z</time>
      </trkpt>
      <trkpt lat="42.288313" lon="1.711073">
        <ele>2334.072</ele>
        <time>2018-09-22T08:57:43Z</time>
      </trkpt>
      <trkpt lat="42.288311" lon="1.711063">
        <ele>2333.877</ele>
        <time>2018-09-22T08:57:44Z</time>
      </trkpt>
      <trkpt lat="42.288282" lon="1.711019">
        <ele>2334.261</ele>
        <time>2018-09-22T08:57:49Z</time>
      </trkpt>
      <trkpt lat="42.288272" lon="1.711010">
        <ele>2334.527</ele>
        <time>2018-09-22T08:57:50Z</time>
      </trkpt>
      <trkpt lat="42.288223" lon="1.710978">
        <ele>2336.208</ele>
        <time>2018-09-22T08:57:55Z</time>
      </trkpt>
      <trkpt lat="42.288206" lon="1.710963">
        <ele>2336.849</ele>
        <time>2018-09-22T08:57:57Z</time>
      </trkpt>
      <trkpt lat="42.288185" lon="1.710932">
        <ele>2337.095</ele>
        <time>2018-09-22T08:58:01Z</time>
      </trkpt>
      <trkpt lat="42.288177" lon="1.710927">
        <ele>2337.346</ele>
        <time>2018-09-22T08:58:02Z</time>
      </trkpt>
      <trkpt lat="42.288167" lon="1.710920">
        <ele>2337.690</ele>
        <time>2018-09-22T08:58:03Z</time>
      </trkpt>
      <trkpt lat="42.288152" lon="1.710909">
        <ele>2338.156</ele>
        <time>2018-09-22T08:58:05Z</time>
      </trkpt>
      <trkpt lat="42.288145" lon="1.710909">
        <ele>2338.546</ele>
        <time>2018-09-22T08:58:07Z</time>
      </trkpt>
      <trkpt lat="42.288135" lon="1.710932">
        <ele>2339.838</ele>
        <time>2018-09-22T08:58:12Z</time>
      </trkpt>
      <trkpt lat="42.288148" lon="1.710966">
        <ele>2340.170</ele>
        <time>2018-09-22T08:58:16Z</time>
      </trkpt>
      <trkpt lat="42.288138" lon="1.711021">
        <ele>2342.469</ele>
        <time>2018-09-22T08:58:23Z</time>
      </trkpt>
      <trkpt lat="42.288123" lon="1.711012">
        <ele>2342.904</ele>
        <time>2018-09-22T08:58:25Z</time>
      </trkpt>
      <trkpt lat="42.288114" lon="1.711000">
        <ele>2343.124</ele>
        <time>2018-09-22T08:58:27Z</time>
      </trkpt>
      <trkpt lat="42.288109" lon="1.710998">
        <ele>2343.308</ele>
        <time>2018-09-22T08:58:28Z</time>
      </trkpt>
      <trkpt lat="42.288087" lon="1.710989">
        <ele>2344.248</ele>
        <time>2018-09-22T08:58:31Z</time>
      </trkpt>
      <trkpt lat="42.288088" lon="1.710996">
        <ele>2344.444</ele>
        <time>2018-09-22T08:58:34Z</time>
      </trkpt>
      <trkpt lat="42.288095" lon="1.711034">
        <ele>2345.215</ele>
        <time>2018-09-22T08:58:38Z</time>
      </trkpt>
      <trkpt lat="42.288100" lon="1.711055">
        <ele>2345.659</ele>
        <time>2018-09-22T08:58:40Z</time>
      </trkpt>
      <trkpt lat="42.288100" lon="1.711082">
        <ele>2346.585</ele>
        <time>2018-09-22T08:58:42Z</time>
      </trkpt>
      <trkpt lat="42.288097" lon="1.711093">
        <ele>2347.015</ele>
        <time>2018-09-22T08:58:43Z</time>
      </trkpt>
      <trkpt lat="42.288084" lon="1.711087">
        <ele>2347.517</ele>
        <time>2018-09-22T08:58:45Z</time>
      </trkpt>
      <trkpt lat="42.288060" lon="1.711064">
        <ele>2348.219</ele>
        <time>2018-09-22T08:58:48Z</time>
      </trkpt>
      <trkpt lat="42.288044" lon="1.711046">
        <ele>2348.599</ele>
        <time>2018-09-22T08:58:50Z</time>
      </trkpt>
      <trkpt lat="42.288015" lon="1.711019">
        <ele>2349.307</ele>
        <time>2018-09-22T08:58:53Z</time>
      </trkpt>
      <trkpt lat="42.288002" lon="1.711024">
        <ele>2350.327</ele>
        <time>2018-09-22T08:58:55Z</time>
      </trkpt>
      <trkpt lat="42.288001" lon="1.711031">
        <ele>2350.608</ele>
        <time>2018-09-22T08:58:56Z</time>
      </trkpt>
      <trkpt lat="42.288018" lon="1.711061">
        <ele>2350.621</ele>
        <time>2018-09-22T08:58:59Z</time>
      </trkpt>
      <trkpt lat="42.288019" lon="1.711073">
        <ele>2350.977</ele>
        <time>2018-09-22T08:59:00Z</time>
      </trkpt>
      <trkpt lat="42.288017" lon="1.711083">
        <ele>2351.498</ele>
        <time>2018-09-22T08:59:01Z</time>
      </trkpt>
      <trkpt lat="42.288016" lon="1.711094">
        <ele>2351.882</ele>
        <time>2018-09-22T08:59:02Z</time>
      </trkpt>
      <trkpt lat="42.288016" lon="1.711103">
        <ele>2352.168</ele>
        <time>2018-09-22T08:59:03Z</time>
      </trkpt>
      <trkpt lat="42.288020" lon="1.711132">
        <ele>2352.798</ele>
        <time>2018-09-22T08:59:06Z</time>
      </trkpt>
      <trkpt lat="42.288019" lon="1.711186">
        <ele>2354.460</ele>
        <time>2018-09-22T08:59:11Z</time>
      </trkpt>
      <trkpt lat="42.288028" lon="1.711237">
        <ele>2355.322</ele>
        <time>2018-09-22T08:59:16Z</time>
      </trkpt>
      <trkpt lat="42.288031" lon="1.711254">
        <ele>2355.695</ele>
        <time>2018-09-22T08:59:17Z</time>
      </trkpt>
      <trkpt lat="42.288057" lon="1.711348">
        <ele>2356.749</ele>
        <time>2018-09-22T08:59:24Z</time>
      </trkpt>
      <trkpt lat="42.288059" lon="1.711376">
        <ele>2357.423</ele>
        <time>2018-09-22T08:59:26Z</time>
      </trkpt>
      <trkpt lat="42.288059" lon="1.711410">
        <ele>2358.308</ele>
        <time>2018-09-22T08:59:29Z</time>
      </trkpt>
      <trkpt lat="42.288074" lon="1.711461">
        <ele>2358.871</ele>
        <time>2018-09-22T08:59:33Z</time>
      </trkpt>
      <trkpt lat="42.288075" lon="1.711474">
        <ele>2359.167</ele>
        <time>2018-09-22T08:59:34Z</time>
      </trkpt>
      <trkpt lat="42.288079" lon="1.711488">
        <ele>2359.368</ele>
        <time>2018-09-22T08:59:35Z</time>
      </trkpt>
      <trkpt lat="42.288073" lon="1.711513">
        <ele>2360.422</ele>
        <time>2018-09-22T08:59:37Z</time>
      </trkpt>
      <trkpt lat="42.288068" lon="1.711518">
        <ele>2360.988</ele>
        <time>2018-09-22T08:59:38Z</time>
      </trkpt>
      <trkpt lat="42.288066" lon="1.711514">
        <ele>2360.958</ele>
        <time>2018-09-22T08:59:39Z</time>
      </trkpt>
      <trkpt lat="42.288048" lon="1.711510">
        <ele>2361.960</ele>
        <time>2018-09-22T08:59:41Z</time>
      </trkpt>
      <trkpt lat="42.288040" lon="1.711505">
        <ele>2362.352</ele>
        <time>2018-09-22T08:59:42Z</time>
      </trkpt>
      <trkpt lat="42.288022" lon="1.711494">
        <ele>2363.052</ele>
        <time>2018-09-22T08:59:44Z</time>
      </trkpt>
      <trkpt lat="42.287993" lon="1.711463">
        <ele>2364.053</ele>
        <time>2018-09-22T08:59:47Z</time>
      </trkpt>
      <trkpt lat="42.287986" lon="1.711446">
        <ele>2363.908</ele>
        <time>2018-09-22T08:59:48Z</time>
      </trkpt>
      <trkpt lat="42.287942" lon="1.711387">
        <ele>2364.808</ele>
        <time>2018-09-22T08:59:53Z</time>
      </trkpt>
      <trkpt lat="42.287916" lon="1.711367">
        <ele>2365.957</ele>
        <time>2018-09-22T08:59:56Z</time>
      </trkpt>
      <trkpt lat="42.287904" lon="1.711364">
        <ele>2366.563</ele>
        <time>2018-09-22T08:59:58Z</time>
      </trkpt>
      <trkpt lat="42.287893" lon="1.711350">
        <ele>2366.874</ele>
        <time>2018-09-22T09:00:00Z</time>
      </trkpt>
      <trkpt lat="42.287887" lon="1.711339">
        <ele>2366.888</ele>
        <time>2018-09-22T09:00:01Z</time>
      </trkpt>
      <trkpt lat="42.287875" lon="1.711312">
        <ele>2366.894</ele>
        <time>2018-09-22T09:00:03Z</time>
      </trkpt>
      <trkpt lat="42.287861" lon="1.711290">
        <ele>2367.014</ele>
        <time>2018-09-22T09:00:05Z</time>
      </trkpt>
      <trkpt lat="42.287845" lon="1.711284">
        <ele>2367.876</ele>
        <time>2018-09-22T09:00:07Z</time>
      </trkpt>
      <trkpt lat="42.287841" lon="1.711278">
        <ele>2367.998</ele>
        <time>2018-09-22T09:00:08Z</time>
      </trkpt>
      <trkpt lat="42.287798" lon="1.711238">
        <ele>2369.429</ele>
        <time>2018-09-22T09:00:14Z</time>
      </trkpt>
      <trkpt lat="42.287779" lon="1.711222">
        <ele>2370.100</ele>
        <time>2018-09-22T09:00:16Z</time>
      </trkpt>
      <trkpt lat="42.287769" lon="1.711212">
        <ele>2370.520</ele>
        <time>2018-09-22T09:00:17Z</time>
      </trkpt>
      <trkpt lat="42.287759" lon="1.711201">
        <ele>2370.908</ele>
        <time>2018-09-22T09:00:19Z</time>
      </trkpt>
      <trkpt lat="42.287756" lon="1.711197">
        <ele>2371.094</ele>
        <time>2018-09-22T09:00:20Z</time>
      </trkpt>
      <trkpt lat="42.287706" lon="1.711157">
        <ele>2373.270</ele>
        <time>2018-09-22T09:00:27Z</time>
      </trkpt>
      <trkpt lat="42.287697" lon="1.711151">
        <ele>2373.731</ele>
        <time>2018-09-22T09:00:28Z</time>
      </trkpt>
      <trkpt lat="42.287690" lon="1.711140">
        <ele>2373.985</ele>
        <time>2018-09-22T09:00:29Z</time>
      </trkpt>
      <trkpt lat="42.287685" lon="1.711133">
        <ele>2374.021</ele>
        <time>2018-09-22T09:00:30Z</time>
      </trkpt>
      <trkpt lat="42.287670" lon="1.711118">
        <ele>2374.641</ele>
        <time>2018-09-22T09:00:33Z</time>
      </trkpt>
      <trkpt lat="42.287658" lon="1.711109">
        <ele>2375.183</ele>
        <time>2018-09-22T09:00:38Z</time>
      </trkpt>
      <trkpt lat="42.287642" lon="1.711086">
        <ele>2375.225</ele>
        <time>2018-09-22T09:00:43Z</time>
      </trkpt>
      <trkpt lat="42.287629" lon="1.711079">
        <ele>2375.892</ele>
        <time>2018-09-22T09:00:47Z</time>
      </trkpt>
      <trkpt lat="42.287577" lon="1.711036">
        <ele>2377.573</ele>
        <time>2018-09-22T09:00:56Z</time>
      </trkpt>
      <trkpt lat="42.287572" lon="1.711033">
        <ele>2377.720</ele>
        <time>2018-09-22T09:00:57Z</time>
      </trkpt>
      <trkpt lat="42.287571" lon="1.711029">
        <ele>2377.608</ele>
        <time>2018-09-22T09:00:58Z</time>
      </trkpt>
      <trkpt lat="42.287562" lon="1.711011">
        <ele>2377.531</ele>
        <time>2018-09-22T09:01:00Z</time>
      </trkpt>
      <trkpt lat="42.287554" lon="1.711002">
        <ele>2377.637</ele>
        <time>2018-09-22T09:01:01Z</time>
      </trkpt>
      <trkpt lat="42.287536" lon="1.710983">
        <ele>2378.098</ele>
        <time>2018-09-22T09:01:03Z</time>
      </trkpt>
      <trkpt lat="42.287527" lon="1.710977">
        <ele>2378.322</ele>
        <time>2018-09-22T09:01:04Z</time>
      </trkpt>
      <trkpt lat="42.287514" lon="1.710970">
        <ele>2378.998</ele>
        <time>2018-09-22T09:01:06Z</time>
      </trkpt>
      <trkpt lat="42.287478" lon="1.710948">
        <ele>2380.188</ele>
        <time>2018-09-22T09:01:10Z</time>
      </trkpt>
      <trkpt lat="42.287469" lon="1.710943">
        <ele>2380.520</ele>
        <time>2018-09-22T09:01:11Z</time>
      </trkpt>
      <trkpt lat="42.287456" lon="1.710932">
        <ele>2380.712</ele>
        <time>2018-09-22T09:01:13Z</time>
      </trkpt>
      <trkpt lat="42.287445" lon="1.710903">
        <ele>2380.042</ele>
        <time>2018-09-22T09:01:15Z</time>
      </trkpt>
      <trkpt lat="42.287437" lon="1.710889">
        <ele>2379.922</ele>
        <time>2018-09-22T09:01:16Z</time>
      </trkpt>
      <trkpt lat="42.287427" lon="1.710877">
        <ele>2379.914</ele>
        <time>2018-09-22T09:01:17Z</time>
      </trkpt>
      <trkpt lat="42.287385" lon="1.710872">
        <ele>2382.008</ele>
        <time>2018-09-22T09:01:23Z</time>
      </trkpt>
      <trkpt lat="42.287392" lon="1.710891">
        <ele>2382.586</ele>
        <time>2018-09-22T09:01:25Z</time>
      </trkpt>
      <trkpt lat="42.287397" lon="1.710893">
        <ele>2382.242</ele>
        <time>2018-09-22T09:01:26Z</time>
      </trkpt>
      <trkpt lat="42.287408" lon="1.710904">
        <ele>2382.123</ele>
        <time>2018-09-22T09:01:28Z</time>
      </trkpt>
      <trkpt lat="42.287441" lon="1.710943">
        <ele>2382.017</ele>
        <time>2018-09-22T09:01:31Z</time>
      </trkpt>
      <trkpt lat="42.287484" lon="1.711000">
        <ele>2382.153</ele>
        <time>2018-09-22T09:01:36Z</time>
      </trkpt>
      <trkpt lat="42.287488" lon="1.711013">
        <ele>2382.483</ele>
        <time>2018-09-22T09:01:37Z</time>
      </trkpt>
      <trkpt lat="42.287492" lon="1.711025">
        <ele>2382.765</ele>
        <time>2018-09-22T09:01:38Z</time>
      </trkpt>
      <trkpt lat="42.287499" lon="1.711052">
        <ele>2383.457</ele>
        <time>2018-09-22T09:01:40Z</time>
      </trkpt>
      <trkpt lat="42.287503" lon="1.711065">
        <ele>2383.826</ele>
        <time>2018-09-22T09:01:41Z</time>
      </trkpt>
      <trkpt lat="42.287516" lon="1.711121">
        <ele>2385.247</ele>
        <time>2018-09-22T09:01:45Z</time>
      </trkpt>
      <trkpt lat="42.287521" lon="1.711132">
        <ele>2385.211</ele>
        <time>2018-09-22T09:01:46Z</time>
      </trkpt>
      <trkpt lat="42.287529" lon="1.711143">
        <ele>2385.108</ele>
        <time>2018-09-22T09:01:47Z</time>
      </trkpt>
      <trkpt lat="42.287536" lon="1.711157">
        <ele>2385.174</ele>
        <time>2018-09-22T09:01:48Z</time>
      </trkpt>
      <trkpt lat="42.287544" lon="1.711171">
        <ele>2385.070</ele>
        <time>2018-09-22T09:01:49Z</time>
      </trkpt>
      <trkpt lat="42.287562" lon="1.711208">
        <ele>2385.061</ele>
        <time>2018-09-22T09:01:52Z</time>
      </trkpt>
      <trkpt lat="42.287562" lon="1.711219">
        <ele>2385.415</ele>
        <time>2018-09-22T09:01:53Z</time>
      </trkpt>
      <trkpt lat="42.287560" lon="1.711235">
        <ele>2386.141</ele>
        <time>2018-09-22T09:01:55Z</time>
      </trkpt>
      <trkpt lat="42.287557" lon="1.711257">
        <ele>2387.181</ele>
        <time>2018-09-22T09:01:57Z</time>
      </trkpt>
      <trkpt lat="42.287556" lon="1.711281">
        <ele>2388.063</ele>
        <time>2018-09-22T09:01:59Z</time>
      </trkpt>
      <trkpt lat="42.287565" lon="1.711310">
        <ele>2388.345</ele>
        <time>2018-09-22T09:02:01Z</time>
      </trkpt>
      <trkpt lat="42.287568" lon="1.711324">
        <ele>2388.626</ele>
        <time>2018-09-22T09:02:02Z</time>
      </trkpt>
      <trkpt lat="42.287574" lon="1.711338">
        <ele>2388.647</ele>
        <time>2018-09-22T09:02:03Z</time>
      </trkpt>
      <trkpt lat="42.287583" lon="1.711468">
        <ele>2391.411</ele>
        <time>2018-09-22T09:02:10Z</time>
      </trkpt>
      <trkpt lat="42.287586" lon="1.711500">
        <ele>2391.908</ele>
        <time>2018-09-22T09:02:12Z</time>
      </trkpt>
      <trkpt lat="42.287588" lon="1.711550">
        <ele>2392.954</ele>
        <time>2018-09-22T09:02:15Z</time>
      </trkpt>
      <trkpt lat="42.287592" lon="1.711578">
        <ele>2393.330</ele>
        <time>2018-09-22T09:02:17Z</time>
      </trkpt>
      <trkpt lat="42.287600" lon="1.711589">
        <ele>2393.191</ele>
        <time>2018-09-22T09:02:18Z</time>
      </trkpt>
      <trkpt lat="42.287606" lon="1.711601">
        <ele>2392.955</ele>
        <time>2018-09-22T09:02:19Z</time>
      </trkpt>
      <trkpt lat="42.287632" lon="1.711656">
        <ele>2392.621</ele>
        <time>2018-09-22T09:02:24Z</time>
      </trkpt>
      <trkpt lat="42.287634" lon="1.711670">
        <ele>2392.921</ele>
        <time>2018-09-22T09:02:25Z</time>
      </trkpt>
      <trkpt lat="42.287636" lon="1.711686">
        <ele>2393.443</ele>
        <time>2018-09-22T09:02:26Z</time>
      </trkpt>
      <trkpt lat="42.287653" lon="1.711715">
        <ele>2393.515</ele>
        <time>2018-09-22T09:02:28Z</time>
      </trkpt>
      <trkpt lat="42.287660" lon="1.711730">
        <ele>2393.754</ele>
        <time>2018-09-22T09:02:29Z</time>
      </trkpt>
      <trkpt lat="42.287682" lon="1.711765">
        <ele>2393.856</ele>
        <time>2018-09-22T09:02:32Z</time>
      </trkpt>
      <trkpt lat="42.287688" lon="1.711776">
        <ele>2393.911</ele>
        <time>2018-09-22T09:02:33Z</time>
      </trkpt>
      <trkpt lat="42.287701" lon="1.711818">
        <ele>2394.908</ele>
        <time>2018-09-22T09:02:36Z</time>
      </trkpt>
      <trkpt lat="42.287714" lon="1.711843">
        <ele>2395.117</ele>
        <time>2018-09-22T09:02:38Z</time>
      </trkpt>
      <trkpt lat="42.287723" lon="1.711872">
        <ele>2395.933</ele>
        <time>2018-09-22T09:02:41Z</time>
      </trkpt>
      <trkpt lat="42.287731" lon="1.711892">
        <ele>2396.324</ele>
        <time>2018-09-22T09:02:43Z</time>
      </trkpt>
      <trkpt lat="42.287749" lon="1.711911">
        <ele>2396.158</ele>
        <time>2018-09-22T09:02:45Z</time>
      </trkpt>
      <trkpt lat="42.287753" lon="1.711922">
        <ele>2396.374</ele>
        <time>2018-09-22T09:02:46Z</time>
      </trkpt>
      <trkpt lat="42.287755" lon="1.711933">
        <ele>2396.774</ele>
        <time>2018-09-22T09:02:47Z</time>
      </trkpt>
      <trkpt lat="42.287763" lon="1.711951">
        <ele>2396.996</ele>
        <time>2018-09-22T09:02:49Z</time>
      </trkpt>
      <trkpt lat="42.287766" lon="1.711960">
        <ele>2396.938</ele>
        <time>2018-09-22T09:02:50Z</time>
      </trkpt>
      <trkpt lat="42.287765" lon="1.711969">
        <ele>2397.257</ele>
        <time>2018-09-22T09:02:51Z</time>
      </trkpt>
      <trkpt lat="42.287761" lon="1.712010">
        <ele>2398.300</ele>
        <time>2018-09-22T09:02:54Z</time>
      </trkpt>
      <trkpt lat="42.287756" lon="1.712019">
        <ele>2398.820</ele>
        <time>2018-09-22T09:02:55Z</time>
      </trkpt>
      <trkpt lat="42.287741" lon="1.712023">
        <ele>2399.708</ele>
        <time>2018-09-22T09:02:57Z</time>
      </trkpt>
      <trkpt lat="42.287725" lon="1.712029">
        <ele>2400.797</ele>
        <time>2018-09-22T09:02:59Z</time>
      </trkpt>
      <trkpt lat="42.287708" lon="1.712014">
        <ele>2401.473</ele>
        <time>2018-09-22T09:03:03Z</time>
      </trkpt>
      <trkpt lat="42.287703" lon="1.711978">
        <ele>2400.894</ele>
        <time>2018-09-22T09:03:06Z</time>
      </trkpt>
      <trkpt lat="42.287686" lon="1.711963">
        <ele>2401.428</ele>
        <time>2018-09-22T09:03:08Z</time>
      </trkpt>
      <trkpt lat="42.287634" lon="1.711932">
        <ele>2403.254</ele>
        <time>2018-09-22T09:03:13Z</time>
      </trkpt>
      <trkpt lat="42.287631" lon="1.711942">
        <ele>2403.864</ele>
        <time>2018-09-22T09:03:16Z</time>
      </trkpt>
      <trkpt lat="42.287650" lon="1.711980">
        <ele>2403.726</ele>
        <time>2018-09-22T09:03:21Z</time>
      </trkpt>
      <trkpt lat="42.287655" lon="1.711989">
        <ele>2403.778</ele>
        <time>2018-09-22T09:03:22Z</time>
      </trkpt>
      <trkpt lat="42.287680" lon="1.712035">
        <ele>2403.448</ele>
        <time>2018-09-22T09:03:25Z</time>
      </trkpt>
      <trkpt lat="42.287685" lon="1.712047">
        <ele>2403.461</ele>
        <time>2018-09-22T09:03:26Z</time>
      </trkpt>
      <trkpt lat="42.287685" lon="1.712073">
        <ele>2404.117</ele>
        <time>2018-09-22T09:03:28Z</time>
      </trkpt>
      <trkpt lat="42.287678" lon="1.712080">
        <ele>2404.608</ele>
        <time>2018-09-22T09:03:29Z</time>
      </trkpt>
      <trkpt lat="42.287662" lon="1.712087">
        <ele>2405.736</ele>
        <time>2018-09-22T09:03:31Z</time>
      </trkpt>
      <trkpt lat="42.287651" lon="1.712089">
        <ele>2406.422</ele>
        <time>2018-09-22T09:03:32Z</time>
      </trkpt>
      <trkpt lat="42.287621" lon="1.712089">
        <ele>2408.183</ele>
        <time>2018-09-22T09:03:35Z</time>
      </trkpt>
      <trkpt lat="42.287601" lon="1.712087">
        <ele>2409.257</ele>
        <time>2018-09-22T09:03:37Z</time>
      </trkpt>
      <trkpt lat="42.287596" lon="1.712093">
        <ele>2409.753</ele>
        <time>2018-09-22T09:03:39Z</time>
      </trkpt>
      <trkpt lat="42.287565" lon="1.712088">
        <ele>2411.363</ele>
        <time>2018-09-22T09:03:43Z</time>
      </trkpt>
      <trkpt lat="42.287544" lon="1.712068">
        <ele>2412.045</ele>
        <time>2018-09-22T09:03:46Z</time>
      </trkpt>
      <trkpt lat="42.287526" lon="1.712044">
        <ele>2412.387</ele>
        <time>2018-09-22T09:03:51Z</time>
      </trkpt>
      <trkpt lat="42.287508" lon="1.712012">
        <ele>2412.442</ele>
        <time>2018-09-22T09:03:54Z</time>
      </trkpt>
      <trkpt lat="42.287502" lon="1.712002">
        <ele>2412.522</ele>
        <time>2018-09-22T09:03:55Z</time>
      </trkpt>
      <trkpt lat="42.287421" lon="1.711931">
        <ele>2414.514</ele>
        <time>2018-09-22T09:04:04Z</time>
      </trkpt>
      <trkpt lat="42.287413" lon="1.711922">
        <ele>2414.608</ele>
        <time>2018-09-22T09:04:05Z</time>
      </trkpt>
      <trkpt lat="42.287404" lon="1.711911">
        <ele>2414.866</ele>
        <time>2018-09-22T09:04:06Z</time>
      </trkpt>
      <trkpt lat="42.287397" lon="1.711901">
        <ele>2414.852</ele>
        <time>2018-09-22T09:04:07Z</time>
      </trkpt>
      <trkpt lat="42.287368" lon="1.711873">
        <ele>2415.583</ele>
        <time>2018-09-22T09:04:10Z</time>
      </trkpt>
      <trkpt lat="42.287355" lon="1.711843">
        <ele>2415.317</ele>
        <time>2018-09-22T09:04:12Z</time>
      </trkpt>
      <trkpt lat="42.287281" lon="1.711745">
        <ele>2417.123</ele>
        <time>2018-09-22T09:04:20Z</time>
      </trkpt>
      <trkpt lat="42.287275" lon="1.711733">
        <ele>2417.193</ele>
        <time>2018-09-22T09:04:21Z</time>
      </trkpt>
      <trkpt lat="42.287243" lon="1.711672">
        <ele>2417.795</ele>
        <time>2018-09-22T09:04:26Z</time>
      </trkpt>
      <trkpt lat="42.287208" lon="1.711562">
        <ele>2417.657</ele>
        <time>2018-09-22T09:04:34Z</time>
      </trkpt>
      <trkpt lat="42.287203" lon="1.711547">
        <ele>2417.535</ele>
        <time>2018-09-22T09:04:35Z</time>
      </trkpt>
      <trkpt lat="42.287178" lon="1.711517">
        <ele>2417.786</ele>
        <time>2018-09-22T09:04:38Z</time>
      </trkpt>
      <trkpt lat="42.287161" lon="1.711501">
        <ele>2418.014</ele>
        <time>2018-09-22T09:04:40Z</time>
      </trkpt>
      <trkpt lat="42.287133" lon="1.711473">
        <ele>2418.408</ele>
        <time>2018-09-22T09:04:43Z</time>
      </trkpt>
      <trkpt lat="42.287129" lon="1.711458">
        <ele>2418.385</ele>
        <time>2018-09-22T09:04:44Z</time>
      </trkpt>
      <trkpt lat="42.287095" lon="1.711428">
        <ele>2418.891</ele>
        <time>2018-09-22T09:04:48Z</time>
      </trkpt>
      <trkpt lat="42.286976" lon="1.711368">
        <ele>2421.382</ele>
        <time>2018-09-22T09:04:58Z</time>
      </trkpt>
      <trkpt lat="42.286924" lon="1.711334">
        <ele>2421.896</ele>
        <time>2018-09-22T09:05:04Z</time>
      </trkpt>
      <trkpt lat="42.286866" lon="1.711307">
        <ele>2422.272</ele>
        <time>2018-09-22T09:05:10Z</time>
      </trkpt>
      <trkpt lat="42.286825" lon="1.711277">
        <ele>2422.522</ele>
        <time>2018-09-22T09:05:15Z</time>
      </trkpt>
      <trkpt lat="42.286793" lon="1.711264">
        <ele>2423.044</ele>
        <time>2018-09-22T09:05:19Z</time>
      </trkpt>
      <trkpt lat="42.286779" lon="1.711253">
        <ele>2423.296</ele>
        <time>2018-09-22T09:05:21Z</time>
      </trkpt>
      <trkpt lat="42.286774" lon="1.711249">
        <ele>2423.233</ele>
        <time>2018-09-22T09:05:22Z</time>
      </trkpt>
      <trkpt lat="42.286757" lon="1.711240">
        <ele>2423.523</ele>
        <time>2018-09-22T09:05:25Z</time>
      </trkpt>
      <trkpt lat="42.286740" lon="1.711221">
        <ele>2423.715</ele>
        <time>2018-09-22T09:05:29Z</time>
      </trkpt>
      <trkpt lat="42.286654" lon="1.711189">
        <ele>2425.208</ele>
        <time>2018-09-22T09:05:46Z</time>
      </trkpt>
      <trkpt lat="42.286649" lon="1.711193">
        <ele>2425.015</ele>
        <time>2018-09-22T09:05:50Z</time>
      </trkpt>
      <trkpt lat="42.286657" lon="1.711201">
        <ele>2425.381</ele>
        <time>2018-09-22T09:05:59Z</time>
      </trkpt>
      <trkpt lat="42.286664" lon="1.711206">
        <ele>2425.562</ele>
        <time>2018-09-22T09:06:07Z</time>
      </trkpt>
      <trkpt lat="42.286698" lon="1.711191">
        <ele>2424.626</ele>
        <time>2018-09-22T09:06:19Z</time>
      </trkpt>
      <trkpt lat="42.286701" lon="1.711200">
        <ele>2424.662</ele>
        <time>2018-09-22T09:06:22Z</time>
      </trkpt>
      <trkpt lat="42.286697" lon="1.711204">
        <ele>2424.762</ele>
        <time>2018-09-22T09:06:33Z</time>
      </trkpt>
      <trkpt lat="42.286687" lon="1.711197">
        <ele>2425.094</ele>
        <time>2018-09-22T09:06:36Z</time>
      </trkpt>
      <trkpt lat="42.286678" lon="1.711203">
        <ele>2425.326</ele>
        <time>2018-09-22T09:06:38Z</time>
      </trkpt>
      <trkpt lat="42.286665" lon="1.711212">
        <ele>2425.626</ele>
        <time>2018-09-22T09:06:41Z</time>
      </trkpt>
      <trkpt lat="42.286651" lon="1.711221">
        <ele>2425.347</ele>
        <time>2018-09-22T09:06:43Z</time>
      </trkpt>
      <trkpt lat="42.286631" lon="1.711217">
        <ele>2424.611</ele>
        <time>2018-09-22T09:06:46Z</time>
      </trkpt>
      <trkpt lat="42.286613" lon="1.711229">
        <ele>2424.108</ele>
        <time>2018-09-22T09:06:50Z</time>
      </trkpt>
      <trkpt lat="42.286571" lon="1.711274">
        <ele>2422.924</ele>
        <time>2018-09-22T09:06:57Z</time>
      </trkpt>
      <trkpt lat="42.286542" lon="1.711282">
        <ele>2421.980</ele>
        <time>2018-09-22T09:06:59Z</time>
      </trkpt>
      <trkpt lat="42.286485" lon="1.711274">
        <ele>2420.061</ele>
        <time>2018-09-22T09:07:03Z</time>
      </trkpt>
      <trkpt lat="42.286455" lon="1.711246">
        <ele>2419.155</ele>
        <time>2018-09-22T09:07:05Z</time>
      </trkpt>
      <trkpt lat="42.286425" lon="1.711216">
        <ele>2418.361</ele>
        <time>2018-09-22T09:07:07Z</time>
      </trkpt>
      <trkpt lat="42.286389" lon="1.711187">
        <ele>2417.461</ele>
        <time>2018-09-22T09:07:09Z</time>
      </trkpt>
      <trkpt lat="42.286353" lon="1.711160">
        <ele>2416.653</ele>
        <time>2018-09-22T09:07:11Z</time>
      </trkpt>
      <trkpt lat="42.286319" lon="1.711138">
        <ele>2415.895</ele>
        <time>2018-09-22T09:07:13Z</time>
      </trkpt>
      <trkpt lat="42.286269" lon="1.711096">
        <ele>2414.664</ele>
        <time>2018-09-22T09:07:16Z</time>
      </trkpt>
      <trkpt lat="42.286199" lon="1.711050">
        <ele>2413.006</ele>
        <time>2018-09-22T09:07:20Z</time>
      </trkpt>
      <trkpt lat="42.286170" lon="1.711020">
        <ele>2412.416</ele>
        <time>2018-09-22T09:07:22Z</time>
      </trkpt>
      <trkpt lat="42.286137" lon="1.711000">
        <ele>2411.508</ele>
        <time>2018-09-22T09:07:24Z</time>
      </trkpt>
      <trkpt lat="42.286078" lon="1.710943">
        <ele>2410.428</ele>
        <time>2018-09-22T09:07:28Z</time>
      </trkpt>
      <trkpt lat="42.286031" lon="1.710912">
        <ele>2409.444</ele>
        <time>2018-09-22T09:07:31Z</time>
      </trkpt>
      <trkpt lat="42.286016" lon="1.710913">
        <ele>2409.055</ele>
        <time>2018-09-22T09:07:32Z</time>
      </trkpt>
      <trkpt lat="42.285980" lon="1.710921">
        <ele>2408.259</ele>
        <time>2018-09-22T09:07:34Z</time>
      </trkpt>
      <trkpt lat="42.285918" lon="1.710899">
        <ele>2406.695</ele>
        <time>2018-09-22T09:07:37Z</time>
      </trkpt>
      <trkpt lat="42.285872" lon="1.710892">
        <ele>2405.425</ele>
        <time>2018-09-22T09:07:39Z</time>
      </trkpt>
      <trkpt lat="42.285763" lon="1.710894">
        <ele>2403.317</ele>
        <time>2018-09-22T09:07:44Z</time>
      </trkpt>
      <trkpt lat="42.285641" lon="1.710877">
        <ele>2401.459</ele>
        <time>2018-09-22T09:07:50Z</time>
      </trkpt>
      <trkpt lat="42.285564" lon="1.710888">
        <ele>2400.388</ele>
        <time>2018-09-22T09:07:54Z</time>
      </trkpt>
      <trkpt lat="42.285504" lon="1.710892">
        <ele>2399.124</ele>
        <time>2018-09-22T09:07:57Z</time>
      </trkpt>
      <trkpt lat="42.285441" lon="1.710880">
        <ele>2397.726</ele>
        <time>2018-09-22T09:08:00Z</time>
      </trkpt>
      <trkpt lat="42.285373" lon="1.710857">
        <ele>2396.108</ele>
        <time>2018-09-22T09:08:03Z</time>
      </trkpt>
      <trkpt lat="42.285352" lon="1.710856">
        <ele>2395.790</ele>
        <time>2018-09-22T09:08:04Z</time>
      </trkpt>
      <trkpt lat="42.285306" lon="1.710864">
        <ele>2394.816</ele>
        <time>2018-09-22T09:08:06Z</time>
      </trkpt>
      <trkpt lat="42.285236" lon="1.710851">
        <ele>2394.647</ele>
        <time>2018-09-22T09:08:09Z</time>
      </trkpt>
      <trkpt lat="42.285062" lon="1.710735">
        <ele>2395.441</ele>
        <time>2018-09-22T09:08:18Z</time>
      </trkpt>
      <trkpt lat="42.284908" lon="1.710579">
        <ele>2395.927</ele>
        <time>2018-09-22T09:08:26Z</time>
      </trkpt>
      <trkpt lat="42.284800" lon="1.710484">
        <ele>2396.637</ele>
        <time>2018-09-22T09:08:32Z</time>
      </trkpt>
      <trkpt lat="42.284764" lon="1.710451">
        <ele>2396.869</ele>
        <time>2018-09-22T09:08:34Z</time>
      </trkpt>
      <trkpt lat="42.284603" lon="1.710305">
        <ele>2397.581</ele>
        <time>2018-09-22T09:08:42Z</time>
      </trkpt>
      <trkpt lat="42.284525" lon="1.710225">
        <ele>2397.647</ele>
        <time>2018-09-22T09:08:46Z</time>
      </trkpt>
      <trkpt lat="42.284433" lon="1.710160">
        <ele>2398.029</ele>
        <time>2018-09-22T09:08:51Z</time>
      </trkpt>
      <trkpt lat="42.284237" lon="1.710105">
        <ele>2399.421</ele>
        <time>2018-09-22T09:09:00Z</time>
      </trkpt>
      <trkpt lat="42.284191" lon="1.710083">
        <ele>2399.508</ele>
        <time>2018-09-22T09:09:02Z</time>
      </trkpt>
      <trkpt lat="42.284109" lon="1.710048">
        <ele>2399.116</ele>
        <time>2018-09-22T09:09:06Z</time>
      </trkpt>
      <trkpt lat="42.283920" lon="1.710069">
        <ele>2399.992</ele>
        <time>2018-09-22T09:09:16Z</time>
      </trkpt>
      <trkpt lat="42.283730" lon="1.710102">
        <ele>2399.823</ele>
        <time>2018-09-22T09:09:24Z</time>
      </trkpt>
      <trkpt lat="42.283532" lon="1.710084">
        <ele>2399.577</ele>
        <time>2018-09-22T09:09:32Z</time>
      </trkpt>
      <trkpt lat="42.283350" lon="1.710073">
        <ele>2400.233</ele>
        <time>2018-09-22T09:09:40Z</time>
      </trkpt>
      <trkpt lat="42.283165" lon="1.710017">
        <ele>2401.723</ele>
        <time>2018-09-22T09:09:48Z</time>
      </trkpt>
      <trkpt lat="42.283096" lon="1.709987">
        <ele>2402.185</ele>
        <time>2018-09-22T09:09:51Z</time>
      </trkpt>
      <trkpt lat="42.283035" lon="1.709969">
        <ele>2402.597</ele>
        <time>2018-09-22T09:09:54Z</time>
      </trkpt>
      <trkpt lat="42.282947" lon="1.709891">
        <ele>2401.941</ele>
        <time>2018-09-22T09:09:59Z</time>
      </trkpt>
      <trkpt lat="42.282763" lon="1.709864">
        <ele>2403.781</ele>
        <time>2018-09-22T09:10:07Z</time>
      </trkpt>
      <trkpt lat="42.282595" lon="1.709771">
        <ele>2403.909</ele>
        <time>2018-09-22T09:10:14Z</time>
      </trkpt>
      <trkpt lat="42.282481" lon="1.709729">
        <ele>2404.308</ele>
        <time>2018-09-22T09:10:19Z</time>
      </trkpt>
      <trkpt lat="42.282442" lon="1.709718">
        <ele>2404.516</ele>
        <time>2018-09-22T09:10:21Z</time>
      </trkpt>
      <trkpt lat="42.282407" lon="1.709697">
        <ele>2404.462</ele>
        <time>2018-09-22T09:10:23Z</time>
      </trkpt>
      <trkpt lat="42.282346" lon="1.709672">
        <ele>2404.693</ele>
        <time>2018-09-22T09:10:26Z</time>
      </trkpt>
      <trkpt lat="42.282240" lon="1.709643">
        <ele>2405.377</ele>
        <time>2018-09-22T09:10:33Z</time>
      </trkpt>
      <trkpt lat="42.282189" lon="1.709645">
        <ele>2405.533</ele>
        <time>2018-09-22T09:10:37Z</time>
      </trkpt>
      <trkpt lat="42.282066" lon="1.709613">
        <ele>2405.183</ele>
        <time>2018-09-22T09:10:47Z</time>
      </trkpt>
      <trkpt lat="42.282028" lon="1.709637">
        <ele>2405.495</ele>
        <time>2018-09-22T09:10:51Z</time>
      </trkpt>
      <trkpt lat="42.281986" lon="1.709693">
        <ele>2405.887</ele>
        <time>2018-09-22T09:10:56Z</time>
      </trkpt>
      <trkpt lat="42.281965" lon="1.709706">
        <ele>2405.933</ele>
        <time>2018-09-22T09:10:58Z</time>
      </trkpt>
      <trkpt lat="42.281954" lon="1.709704">
        <ele>2405.823</ele>
        <time>2018-09-22T09:11:00Z</time>
      </trkpt>
      <trkpt lat="42.281932" lon="1.709727">
        <ele>2405.815</ele>
        <time>2018-09-22T09:11:05Z</time>
      </trkpt>
      <trkpt lat="42.281925" lon="1.709732">
        <ele>2405.708</ele>
        <time>2018-09-22T09:11:06Z</time>
      </trkpt>
      <trkpt lat="42.281917" lon="1.709742">
        <ele>2405.725</ele>
        <time>2018-09-22T09:11:07Z</time>
      </trkpt>
      <trkpt lat="42.281907" lon="1.709754">
        <ele>2405.631</ele>
        <time>2018-09-22T09:11:08Z</time>
      </trkpt>
      <trkpt lat="42.281854" lon="1.709802">
        <ele>2405.292</ele>
        <time>2018-09-22T09:11:13Z</time>
      </trkpt>
      <trkpt lat="42.281815" lon="1.709835">
        <ele>2404.966</ele>
        <time>2018-09-22T09:11:17Z</time>
      </trkpt>
      <trkpt lat="42.281798" lon="1.709852">
        <ele>2404.882</ele>
        <time>2018-09-22T09:11:19Z</time>
      </trkpt>
      <trkpt lat="42.281791" lon="1.709851">
        <ele>2404.772</ele>
        <time>2018-09-22T09:11:20Z</time>
      </trkpt>
      <trkpt lat="42.281787" lon="1.709843">
        <ele>2404.694</ele>
        <time>2018-09-22T09:11:22Z</time>
      </trkpt>
      <trkpt lat="42.281777" lon="1.709851">
        <ele>2404.526</ele>
        <time>2018-09-22T09:11:42Z</time>
      </trkpt>
      <trkpt lat="42.281748" lon="1.709891">
        <ele>2404.352</ele>
        <time>2018-09-22T09:11:46Z</time>
      </trkpt>
      <trkpt lat="42.281729" lon="1.709917">
        <ele>2404.353</ele>
        <time>2018-09-22T09:11:48Z</time>
      </trkpt>
      <trkpt lat="42.281701" lon="1.709951">
        <ele>2404.108</ele>
        <time>2018-09-22T09:11:51Z</time>
      </trkpt>
      <trkpt lat="42.281683" lon="1.709974">
        <ele>2404.008</ele>
        <time>2018-09-22T09:11:53Z</time>
      </trkpt>
      <trkpt lat="42.281593" lon="1.710039">
        <ele>2403.427</ele>
        <time>2018-09-22T09:12:01Z</time>
      </trkpt>
      <trkpt lat="42.281559" lon="1.710056">
        <ele>2403.273</ele>
        <time>2018-09-22T09:12:04Z</time>
      </trkpt>
      <trkpt lat="42.281511" lon="1.710071">
        <ele>2402.874</ele>
        <time>2018-09-22T09:12:08Z</time>
      </trkpt>
      <trkpt lat="42.281485" lon="1.710078">
        <ele>2402.668</ele>
        <time>2018-09-22T09:12:10Z</time>
      </trkpt>
      <trkpt lat="42.281460" lon="1.710090">
        <ele>2402.424</ele>
        <time>2018-09-22T09:12:12Z</time>
      </trkpt>
      <trkpt lat="42.281444" lon="1.710094">
        <ele>2402.254</ele>
        <time>2018-09-22T09:12:13Z</time>
      </trkpt>
      <trkpt lat="42.281399" lon="1.710096">
        <ele>2401.846</ele>
        <time>2018-09-22T09:12:16Z</time>
      </trkpt>
      <trkpt lat="42.281373" lon="1.710097">
        <ele>2401.518</ele>
        <time>2018-09-22T09:12:18Z</time>
      </trkpt>
      <trkpt lat="42.281360" lon="1.710092">
        <ele>2401.472</ele>
        <time>2018-09-22T09:12:19Z</time>
      </trkpt>
      <trkpt lat="42.281346" lon="1.710093">
        <ele>2401.313</ele>
        <time>2018-09-22T09:12:20Z</time>
      </trkpt>
      <trkpt lat="42.281278" lon="1.710088">
        <ele>2400.814</ele>
        <time>2018-09-22T09:12:25Z</time>
      </trkpt>
      <trkpt lat="42.281210" lon="1.710091">
        <ele>2400.308</ele>
        <time>2018-09-22T09:12:29Z</time>
      </trkpt>
      <trkpt lat="42.281167" lon="1.710094">
        <ele>2400.049</ele>
        <time>2018-09-22T09:12:32Z</time>
      </trkpt>
      <trkpt lat="42.281139" lon="1.710095">
        <ele>2399.865</ele>
        <time>2018-09-22T09:12:34Z</time>
      </trkpt>
      <trkpt lat="42.281110" lon="1.710093">
        <ele>2399.616</ele>
        <time>2018-09-22T09:12:36Z</time>
      </trkpt>
      <trkpt lat="42.281053" lon="1.710106">
        <ele>2399.360</ele>
        <time>2018-09-22T09:12:40Z</time>
      </trkpt>
      <trkpt lat="42.281010" lon="1.710119">
        <ele>2399.196</ele>
        <time>2018-09-22T09:12:43Z</time>
      </trkpt>
      <trkpt lat="42.280951" lon="1.710130">
        <ele>2398.746</ele>
        <time>2018-09-22T09:12:47Z</time>
      </trkpt>
      <trkpt lat="42.280922" lon="1.710127">
        <ele>2398.598</ele>
        <time>2018-09-22T09:12:49Z</time>
      </trkpt>
      <trkpt lat="42.280876" lon="1.710123">
        <ele>2398.150</ele>
        <time>2018-09-22T09:12:52Z</time>
      </trkpt>
      <trkpt lat="42.280756" lon="1.710114">
        <ele>2397.267</ele>
        <time>2018-09-22T09:13:00Z</time>
      </trkpt>
      <trkpt lat="42.280722" lon="1.710128">
        <ele>2397.181</ele>
        <time>2018-09-22T09:13:02Z</time>
      </trkpt>
      <trkpt lat="42.280580" lon="1.710156">
        <ele>2396.219</ele>
        <time>2018-09-22T09:13:11Z</time>
      </trkpt>
      <trkpt lat="42.280566" lon="1.710159">
        <ele>2396.208</ele>
        <time>2018-09-22T09:13:12Z</time>
      </trkpt>
      <trkpt lat="42.280500" lon="1.710172">
        <ele>2395.898</ele>
        <time>2018-09-22T09:13:16Z</time>
      </trkpt>
      <trkpt lat="42.280422" lon="1.710181">
        <ele>2395.364</ele>
        <time>2018-09-22T09:13:21Z</time>
      </trkpt>
      <trkpt lat="42.280379" lon="1.710185">
        <ele>2395.045</ele>
        <time>2018-09-22T09:13:24Z</time>
      </trkpt>
      <trkpt lat="42.280349" lon="1.710188">
        <ele>2394.829</ele>
        <time>2018-09-22T09:13:26Z</time>
      </trkpt>
      <trkpt lat="42.280320" lon="1.710181">
        <ele>2394.625</ele>
        <time>2018-09-22T09:13:28Z</time>
      </trkpt>
      <trkpt lat="42.280308" lon="1.710180">
        <ele>2394.525</ele>
        <time>2018-09-22T09:13:29Z</time>
      </trkpt>
      <trkpt lat="42.280231" lon="1.710176">
        <ele>2393.977</ele>
        <time>2018-09-22T09:13:34Z</time>
      </trkpt>
      <trkpt lat="42.280216" lon="1.710178">
        <ele>2393.819</ele>
        <time>2018-09-22T09:13:35Z</time>
      </trkpt>
      <trkpt lat="42.280185" lon="1.710180">
        <ele>2393.626</ele>
        <time>2018-09-22T09:13:37Z</time>
      </trkpt>
      <trkpt lat="42.280119" lon="1.710166">
        <ele>2393.047</ele>
        <time>2018-09-22T09:13:42Z</time>
      </trkpt>
      <trkpt lat="42.280078" lon="1.710149">
        <ele>2392.611</ele>
        <time>2018-09-22T09:13:45Z</time>
      </trkpt>
      <trkpt lat="42.280022" lon="1.710092">
        <ele>2391.808</ele>
        <time>2018-09-22T09:13:49Z</time>
      </trkpt>
      <trkpt lat="42.280008" lon="1.710076">
        <ele>2391.614</ele>
        <time>2018-09-22T09:13:50Z</time>
      </trkpt>
      <trkpt lat="42.279982" lon="1.710047">
        <ele>2391.490</ele>
        <time>2018-09-22T09:13:52Z</time>
      </trkpt>
      <trkpt lat="42.279970" lon="1.710039">
        <ele>2391.431</ele>
        <time>2018-09-22T09:13:53Z</time>
      </trkpt>
      <trkpt lat="42.279944" lon="1.710028">
        <ele>2391.525</ele>
        <time>2018-09-22T09:13:55Z</time>
      </trkpt>
      <trkpt lat="42.279921" lon="1.710016">
        <ele>2391.621</ele>
        <time>2018-09-22T09:13:57Z</time>
      </trkpt>
      <trkpt lat="42.279914" lon="1.710004">
        <ele>2391.671</ele>
        <time>2018-09-22T09:13:58Z</time>
      </trkpt>
      <trkpt lat="42.279880" lon="1.709950">
        <ele>2391.983</ele>
        <time>2018-09-22T09:14:03Z</time>
      </trkpt>
      <trkpt lat="42.279856" lon="1.709909">
        <ele>2392.325</ele>
        <time>2018-09-22T09:14:07Z</time>
      </trkpt>
      <trkpt lat="42.279848" lon="1.709899">
        <ele>2392.565</ele>
        <time>2018-09-22T09:14:08Z</time>
      </trkpt>
      <trkpt lat="42.279825" lon="1.709863">
        <ele>2393.068</ele>
        <time>2018-09-22T09:14:11Z</time>
      </trkpt>
      <trkpt lat="42.279797" lon="1.709828">
        <ele>2393.614</ele>
        <time>2018-09-22T09:14:14Z</time>
      </trkpt>
      <trkpt lat="42.279773" lon="1.709776">
        <ele>2394.408</ele>
        <time>2018-09-22T09:14:17Z</time>
      </trkpt>
      <trkpt lat="42.279725" lon="1.709666">
        <ele>2396.118</ele>
        <time>2018-09-22T09:14:24Z</time>
      </trkpt>
      <trkpt lat="42.279687" lon="1.709600">
        <ele>2396.724</ele>
        <time>2018-09-22T09:14:30Z</time>
      </trkpt>
      <trkpt lat="42.279649" lon="1.709518">
        <ele>2397.475</ele>
        <time>2018-09-22T09:14:35Z</time>
      </trkpt>
      <trkpt lat="42.279624" lon="1.709388">
        <ele>2398.069</ele>
        <time>2018-09-22T09:14:42Z</time>
      </trkpt>
      <trkpt lat="42.279600" lon="1.709230">
        <ele>2398.375</ele>
        <time>2018-09-22T09:14:51Z</time>
      </trkpt>
      <trkpt lat="42.279557" lon="1.709025">
        <ele>2398.215</ele>
        <time>2018-09-22T09:15:03Z</time>
      </trkpt>
      <trkpt lat="42.279543" lon="1.708969">
        <ele>2398.237</ele>
        <time>2018-09-22T09:15:06Z</time>
      </trkpt>
      <trkpt lat="42.279497" lon="1.708779">
        <ele>2397.779</ele>
        <time>2018-09-22T09:15:16Z</time>
      </trkpt>
      <trkpt lat="42.279485" lon="1.708692">
        <ele>2397.249</ele>
        <time>2018-09-22T09:15:19Z</time>
      </trkpt>
      <trkpt lat="42.279467" lon="1.708601">
        <ele>2396.802</ele>
        <time>2018-09-22T09:15:22Z</time>
      </trkpt>
      <trkpt lat="42.279429" lon="1.708340">
        <ele>2397.322</ele>
        <time>2018-09-22T09:15:30Z</time>
      </trkpt>
      <trkpt lat="42.279446" lon="1.708203">
        <ele>2397.908</ele>
        <time>2018-09-22T09:15:34Z</time>
      </trkpt>
      <trkpt lat="42.279456" lon="1.708078">
        <ele>2398.566</ele>
        <time>2018-09-22T09:15:38Z</time>
      </trkpt>
      <trkpt lat="42.279455" lon="1.707952">
        <ele>2399.132</ele>
        <time>2018-09-22T09:15:42Z</time>
      </trkpt>
      <trkpt lat="42.279471" lon="1.707838">
        <ele>2399.173</ele>
        <time>2018-09-22T09:15:46Z</time>
      </trkpt>
      <trkpt lat="42.279463" lon="1.707757">
        <ele>2399.657</ele>
        <time>2018-09-22T09:15:49Z</time>
      </trkpt>
      <trkpt lat="42.279451" lon="1.707673">
        <ele>2400.233</ele>
        <time>2018-09-22T09:15:52Z</time>
      </trkpt>
      <trkpt lat="42.279441" lon="1.707550">
        <ele>2400.973</ele>
        <time>2018-09-22T09:15:56Z</time>
      </trkpt>
      <trkpt lat="42.279428" lon="1.707388">
        <ele>2401.485</ele>
        <time>2018-09-22T09:16:01Z</time>
      </trkpt>
      <trkpt lat="42.279400" lon="1.707165">
        <ele>2401.947</ele>
        <time>2018-09-22T09:16:08Z</time>
      </trkpt>
      <trkpt lat="42.279395" lon="1.707137">
        <ele>2401.911</ele>
        <time>2018-09-22T09:16:09Z</time>
      </trkpt>
      <trkpt lat="42.279371" lon="1.707048">
        <ele>2402.221</ele>
        <time>2018-09-22T09:16:12Z</time>
      </trkpt>
      <trkpt lat="42.279337" lon="1.706819">
        <ele>2402.003</ele>
        <time>2018-09-22T09:16:19Z</time>
      </trkpt>
      <trkpt lat="42.279259" lon="1.706594">
        <ele>2402.608</ele>
        <time>2018-09-22T09:16:27Z</time>
      </trkpt>
      <trkpt lat="42.279177" lon="1.706341">
        <ele>2403.593</ele>
        <time>2018-09-22T09:16:35Z</time>
      </trkpt>
      <trkpt lat="42.279147" lon="1.706099">
        <ele>2403.489</ele>
        <time>2018-09-22T09:16:45Z</time>
      </trkpt>
      <trkpt lat="42.279113" lon="1.705954">
        <ele>2403.740</ele>
        <time>2018-09-22T09:16:53Z</time>
      </trkpt>
      <trkpt lat="42.279093" lon="1.705867">
        <ele>2403.934</ele>
        <time>2018-09-22T09:16:58Z</time>
      </trkpt>
      <trkpt lat="42.279083" lon="1.705811">
        <ele>2404.040</ele>
        <time>2018-09-22T09:17:01Z</time>
      </trkpt>
      <trkpt lat="42.279069" lon="1.705639">
        <ele>2404.490</ele>
        <time>2018-09-22T09:17:10Z</time>
      </trkpt>
      <trkpt lat="42.279060" lon="1.705601">
        <ele>2404.682</ele>
        <time>2018-09-22T09:17:12Z</time>
      </trkpt>
      <trkpt lat="42.279039" lon="1.705453">
        <ele>2405.164</ele>
        <time>2018-09-22T09:17:19Z</time>
      </trkpt>
      <trkpt lat="42.279017" lon="1.705322">
        <ele>2405.821</ele>
        <time>2018-09-22T09:17:25Z</time>
      </trkpt>
      <trkpt lat="42.278989" lon="1.705168">
        <ele>2406.341</ele>
        <time>2018-09-22T09:17:33Z</time>
      </trkpt>
      <trkpt lat="42.278986" lon="1.705130">
        <ele>2406.305</ele>
        <time>2018-09-22T09:17:35Z</time>
      </trkpt>
      <trkpt lat="42.278982" lon="1.705093">
        <ele>2406.308</ele>
        <time>2018-09-22T09:17:37Z</time>
      </trkpt>
      <trkpt lat="42.278959" lon="1.704958">
        <ele>2406.874</ele>
        <time>2018-09-22T09:17:44Z</time>
      </trkpt>
      <trkpt lat="42.278888" lon="1.704753">
        <ele>2409.930</ele>
        <time>2018-09-22T09:17:56Z</time>
      </trkpt>
      <trkpt lat="42.278861" lon="1.704644">
        <ele>2410.811</ele>
        <time>2018-09-22T09:18:03Z</time>
      </trkpt>
      <trkpt lat="42.278834" lon="1.704523">
        <ele>2411.495</ele>
        <time>2018-09-22T09:18:10Z</time>
      </trkpt>
      <trkpt lat="42.278784" lon="1.704360">
        <ele>2412.591</ele>
        <time>2018-09-22T09:18:18Z</time>
      </trkpt>
      <trkpt lat="42.278729" lon="1.704220">
        <ele>2413.761</ele>
        <time>2018-09-22T09:18:26Z</time>
      </trkpt>
      <trkpt lat="42.278682" lon="1.704137">
        <ele>2414.813</ele>
        <time>2018-09-22T09:18:33Z</time>
      </trkpt>
      <trkpt lat="42.278639" lon="1.704053">
        <ele>2415.515</ele>
        <time>2018-09-22T09:18:39Z</time>
      </trkpt>
      <trkpt lat="42.278605" lon="1.703968">
        <ele>2416.182</ele>
        <time>2018-09-22T09:18:44Z</time>
      </trkpt>
      <trkpt lat="42.278591" lon="1.703933">
        <ele>2416.343</ele>
        <time>2018-09-22T09:18:46Z</time>
      </trkpt>
      <trkpt lat="42.278508" lon="1.703709">
        <ele>2417.017</ele>
        <time>2018-09-22T09:18:59Z</time>
      </trkpt>
      <trkpt lat="42.278472" lon="1.703635">
        <ele>2417.708</ele>
        <time>2018-09-22T09:19:04Z</time>
      </trkpt>
      <trkpt lat="42.278455" lon="1.703593">
        <ele>2418.010</ele>
        <time>2018-09-22T09:19:07Z</time>
      </trkpt>
      <trkpt lat="42.278448" lon="1.703559">
        <ele>2417.956</ele>
        <time>2018-09-22T09:19:09Z</time>
      </trkpt>
      <trkpt lat="42.278408" lon="1.703417">
        <ele>2417.727</ele>
        <time>2018-09-22T09:19:17Z</time>
      </trkpt>
      <trkpt lat="42.278357" lon="1.703322">
        <ele>2418.641</ele>
        <time>2018-09-22T09:19:24Z</time>
      </trkpt>
      <trkpt lat="42.278337" lon="1.703283">
        <ele>2418.817</ele>
        <time>2018-09-22T09:19:27Z</time>
      </trkpt>
      <trkpt lat="42.278258" lon="1.703140">
        <ele>2420.077</ele>
        <time>2018-09-22T09:19:36Z</time>
      </trkpt>
      <trkpt lat="42.278218" lon="1.703052">
        <ele>2420.379</ele>
        <time>2018-09-22T09:19:41Z</time>
      </trkpt>
      <trkpt lat="42.278170" lon="1.702985">
        <ele>2421.161</ele>
        <time>2018-09-22T09:19:46Z</time>
      </trkpt>
      <trkpt lat="42.278155" lon="1.702953">
        <ele>2421.184</ele>
        <time>2018-09-22T09:19:48Z</time>
      </trkpt>
      <trkpt lat="42.278138" lon="1.702915">
        <ele>2421.007</ele>
        <time>2018-09-22T09:19:50Z</time>
      </trkpt>
      <trkpt lat="42.278122" lon="1.702851">
        <ele>2420.417</ele>
        <time>2018-09-22T09:19:53Z</time>
      </trkpt>
      <trkpt lat="42.278119" lon="1.702826">
        <ele>2420.008</ele>
        <time>2018-09-22T09:19:54Z</time>
      </trkpt>
      <trkpt lat="42.278057" lon="1.702668">
        <ele>2420.380</ele>
        <time>2018-09-22T09:20:04Z</time>
      </trkpt>
      <trkpt lat="42.277953" lon="1.702468">
        <ele>2421.486</ele>
        <time>2018-09-22T09:20:17Z</time>
      </trkpt>
      <trkpt lat="42.277947" lon="1.702450">
        <ele>2421.647</ele>
        <time>2018-09-22T09:20:18Z</time>
      </trkpt>
      <trkpt lat="42.277940" lon="1.702432">
        <ele>2421.711</ele>
        <time>2018-09-22T09:20:19Z</time>
      </trkpt>
      <trkpt lat="42.277935" lon="1.702413">
        <ele>2421.837</ele>
        <time>2018-09-22T09:20:20Z</time>
      </trkpt>
      <trkpt lat="42.277923" lon="1.702352">
        <ele>2421.977</ele>
        <time>2018-09-22T09:20:23Z</time>
      </trkpt>
      <trkpt lat="42.277899" lon="1.702220">
        <ele>2422.129</ele>
        <time>2018-09-22T09:20:30Z</time>
      </trkpt>
      <trkpt lat="42.277883" lon="1.702124">
        <ele>2422.671</ele>
        <time>2018-09-22T09:20:35Z</time>
      </trkpt>
      <trkpt lat="42.277880" lon="1.702091">
        <ele>2422.738</ele>
        <time>2018-09-22T09:20:37Z</time>
      </trkpt>
      <trkpt lat="42.277878" lon="1.702072">
        <ele>2422.870</ele>
        <time>2018-09-22T09:20:38Z</time>
      </trkpt>
      <trkpt lat="42.277880" lon="1.702027">
        <ele>2422.617</ele>
        <time>2018-09-22T09:20:40Z</time>
      </trkpt>
      <trkpt lat="42.277880" lon="1.701986">
        <ele>2422.608</ele>
        <time>2018-09-22T09:20:42Z</time>
      </trkpt>
      <trkpt lat="42.277870" lon="1.701932">
        <ele>2422.855</ele>
        <time>2018-09-22T09:20:45Z</time>
      </trkpt>
      <trkpt lat="42.277790" lon="1.701703">
        <ele>2423.981</ele>
        <time>2018-09-22T09:20:58Z</time>
      </trkpt>
      <trkpt lat="42.277736" lon="1.701507">
        <ele>2424.252</ele>
        <time>2018-09-22T09:21:08Z</time>
      </trkpt>
      <trkpt lat="42.277682" lon="1.701362">
        <ele>2425.236</ele>
        <time>2018-09-22T09:21:17Z</time>
      </trkpt>
      <trkpt lat="42.277673" lon="1.701242">
        <ele>2424.392</ele>
        <time>2018-09-22T09:21:23Z</time>
      </trkpt>
      <trkpt lat="42.277672" lon="1.701196">
        <ele>2423.972</ele>
        <time>2018-09-22T09:21:25Z</time>
      </trkpt>
      <trkpt lat="42.277656" lon="1.701077">
        <ele>2423.384</ele>
        <time>2018-09-22T09:21:31Z</time>
      </trkpt>
      <trkpt lat="42.277648" lon="1.701065">
        <ele>2423.546</ele>
        <time>2018-09-22T09:21:32Z</time>
      </trkpt>
      <trkpt lat="42.277630" lon="1.701021">
        <ele>2423.727</ele>
        <time>2018-09-22T09:21:35Z</time>
      </trkpt>
      <trkpt lat="42.277617" lon="1.700989">
        <ele>2423.968</ele>
        <time>2018-09-22T09:21:37Z</time>
      </trkpt>
      <trkpt lat="42.277609" lon="1.700950">
        <ele>2423.814</ele>
        <time>2018-09-22T09:21:39Z</time>
      </trkpt>
      <trkpt lat="42.277600" lon="1.700913">
        <ele>2423.808</ele>
        <time>2018-09-22T09:21:41Z</time>
      </trkpt>
      <trkpt lat="42.277592" lon="1.700879">
        <ele>2423.874</ele>
        <time>2018-09-22T09:21:43Z</time>
      </trkpt>
      <trkpt lat="42.277558" lon="1.700830">
        <ele>2425.030</ele>
        <time>2018-09-22T09:21:47Z</time>
      </trkpt>
      <trkpt lat="42.277548" lon="1.700819">
        <ele>2425.341</ele>
        <time>2018-09-22T09:21:48Z</time>
      </trkpt>
      <trkpt lat="42.277520" lon="1.700798">
        <ele>2426.435</ele>
        <time>2018-09-22T09:21:51Z</time>
      </trkpt>
      <trkpt lat="42.277517" lon="1.700786">
        <ele>2426.451</ele>
        <time>2018-09-22T09:21:52Z</time>
      </trkpt>
      <trkpt lat="42.277514" lon="1.700775">
        <ele>2426.481</ele>
        <time>2018-09-22T09:21:53Z</time>
      </trkpt>
      <trkpt lat="42.277508" lon="1.700764">
        <ele>2426.573</ele>
        <time>2018-09-22T09:21:54Z</time>
      </trkpt>
      <trkpt lat="42.277505" lon="1.700749">
        <ele>2426.595</ele>
        <time>2018-09-22T09:21:55Z</time>
      </trkpt>
      <trkpt lat="42.277503" lon="1.700733">
        <ele>2426.499</ele>
        <time>2018-09-22T09:21:56Z</time>
      </trkpt>
      <trkpt lat="42.277499" lon="1.700698">
        <ele>2426.007</ele>
        <time>2018-09-22T09:21:58Z</time>
      </trkpt>
      <trkpt lat="42.277493" lon="1.700650">
        <ele>2425.627</ele>
        <time>2018-09-22T09:22:01Z</time>
      </trkpt>
      <trkpt lat="42.277478" lon="1.700575">
        <ele>2425.108</ele>
        <time>2018-09-22T09:22:05Z</time>
      </trkpt>
      <trkpt lat="42.277475" lon="1.700554">
        <ele>2424.941</ele>
        <time>2018-09-22T09:22:06Z</time>
      </trkpt>
      <trkpt lat="42.277473" lon="1.700534">
        <ele>2424.657</ele>
        <time>2018-09-22T09:22:07Z</time>
      </trkpt>
      <trkpt lat="42.277469" lon="1.700513">
        <ele>2424.438</ele>
        <time>2018-09-22T09:22:08Z</time>
      </trkpt>
      <trkpt lat="42.277454" lon="1.700428">
        <ele>2423.532</ele>
        <time>2018-09-22T09:22:12Z</time>
      </trkpt>
      <trkpt lat="42.277389" lon="1.700347">
        <ele>2424.678</ele>
        <time>2018-09-22T09:22:19Z</time>
      </trkpt>
      <trkpt lat="42.277386" lon="1.700332">
        <ele>2424.478</ele>
        <time>2018-09-22T09:22:20Z</time>
      </trkpt>
      <trkpt lat="42.277365" lon="1.700253">
        <ele>2424.060</ele>
        <time>2018-09-22T09:22:24Z</time>
      </trkpt>
      <trkpt lat="42.277338" lon="1.700125">
        <ele>2423.542</ele>
        <time>2018-09-22T09:22:31Z</time>
      </trkpt>
      <trkpt lat="42.277332" lon="1.700109">
        <ele>2423.577</ele>
        <time>2018-09-22T09:22:32Z</time>
      </trkpt>
      <trkpt lat="42.277324" lon="1.700074">
        <ele>2423.461</ele>
        <time>2018-09-22T09:22:34Z</time>
      </trkpt>
      <trkpt lat="42.277326" lon="1.700034">
        <ele>2422.927</ele>
        <time>2018-09-22T09:22:36Z</time>
      </trkpt>
      <trkpt lat="42.277313" lon="1.699907">
        <ele>2422.008</ele>
        <time>2018-09-22T09:22:42Z</time>
      </trkpt>
      <trkpt lat="42.277283" lon="1.699803">
        <ele>2422.259</ele>
        <time>2018-09-22T09:22:48Z</time>
      </trkpt>
      <trkpt lat="42.277283" lon="1.699759">
        <ele>2421.795</ele>
        <time>2018-09-22T09:22:50Z</time>
      </trkpt>
      <trkpt lat="42.277288" lon="1.699698">
        <ele>2421.056</ele>
        <time>2018-09-22T09:22:53Z</time>
      </trkpt>
      <trkpt lat="42.277291" lon="1.699624">
        <ele>2420.690</ele>
        <time>2018-09-22T09:22:58Z</time>
      </trkpt>
      <trkpt lat="42.277286" lon="1.699609">
        <ele>2420.856</ele>
        <time>2018-09-22T09:22:59Z</time>
      </trkpt>
      <trkpt lat="42.277277" lon="1.699548">
        <ele>2421.166</ele>
        <time>2018-09-22T09:23:03Z</time>
      </trkpt>
      <trkpt lat="42.277276" lon="1.699516">
        <ele>2421.118</ele>
        <time>2018-09-22T09:23:05Z</time>
      </trkpt>
      <trkpt lat="42.277276" lon="1.699498">
        <ele>2421.070</ele>
        <time>2018-09-22T09:23:06Z</time>
      </trkpt>
      <trkpt lat="42.277272" lon="1.699417">
        <ele>2420.841</ele>
        <time>2018-09-22T09:23:11Z</time>
      </trkpt>
      <trkpt lat="42.277271" lon="1.699369">
        <ele>2420.381</ele>
        <time>2018-09-22T09:23:14Z</time>
      </trkpt>
      <trkpt lat="42.277266" lon="1.699355">
        <ele>2420.409</ele>
        <time>2018-09-22T09:23:15Z</time>
      </trkpt>
      <trkpt lat="42.277236" lon="1.699296">
        <ele>2421.608</ele>
        <time>2018-09-22T09:23:20Z</time>
      </trkpt>
      <trkpt lat="42.277223" lon="1.699279">
        <ele>2422.136</ele>
        <time>2018-09-22T09:23:22Z</time>
      </trkpt>
      <trkpt lat="42.277218" lon="1.699264">
        <ele>2422.242</ele>
        <time>2018-09-22T09:23:23Z</time>
      </trkpt>
      <trkpt lat="42.277216" lon="1.699246">
        <ele>2422.053</ele>
        <time>2018-09-22T09:23:24Z</time>
      </trkpt>
      <trkpt lat="42.277214" lon="1.699218">
        <ele>2421.897</ele>
        <time>2018-09-22T09:23:25Z</time>
      </trkpt>
      <trkpt lat="42.277204" lon="1.699175">
        <ele>2421.813</ele>
        <time>2018-09-22T09:23:27Z</time>
      </trkpt>
      <trkpt lat="42.277200" lon="1.699103">
        <ele>2421.483</ele>
        <time>2018-09-22T09:23:31Z</time>
      </trkpt>
      <trkpt lat="42.277199" lon="1.699070">
        <ele>2421.255</ele>
        <time>2018-09-22T09:23:33Z</time>
      </trkpt>
      <trkpt lat="42.277197" lon="1.699056">
        <ele>2421.277</ele>
        <time>2018-09-22T09:23:34Z</time>
      </trkpt>
      <trkpt lat="42.277193" lon="1.698993">
        <ele>2420.916</ele>
        <time>2018-09-22T09:23:38Z</time>
      </trkpt>
      <trkpt lat="42.277190" lon="1.698975">
        <ele>2420.976</ele>
        <time>2018-09-22T09:23:39Z</time>
      </trkpt>
      <trkpt lat="42.277185" lon="1.698959">
        <ele>2421.013</ele>
        <time>2018-09-22T09:23:40Z</time>
      </trkpt>
      <trkpt lat="42.277183" lon="1.698944">
        <ele>2420.908</ele>
        <time>2018-09-22T09:23:41Z</time>
      </trkpt>
      <trkpt lat="42.277185" lon="1.698919">
        <ele>2420.773</ele>
        <time>2018-09-22T09:23:43Z</time>
      </trkpt>
      <trkpt lat="42.277183" lon="1.698875">
        <ele>2420.439</ele>
        <time>2018-09-22T09:23:46Z</time>
      </trkpt>
      <trkpt lat="42.277171" lon="1.698819">
        <ele>2420.250</ele>
        <time>2018-09-22T09:23:49Z</time>
      </trkpt>
      <trkpt lat="42.277164" lon="1.698743">
        <ele>2419.624</ele>
        <time>2018-09-22T09:23:54Z</time>
      </trkpt>
      <trkpt lat="42.277148" lon="1.698728">
        <ele>2420.050</ele>
        <time>2018-09-22T09:23:56Z</time>
      </trkpt>
      <trkpt lat="42.277134" lon="1.698710">
        <ele>2420.340</ele>
        <time>2018-09-22T09:23:58Z</time>
      </trkpt>
      <trkpt lat="42.277108" lon="1.698667">
        <ele>2420.862</ele>
        <time>2018-09-22T09:24:01Z</time>
      </trkpt>
      <trkpt lat="42.277093" lon="1.698644">
        <ele>2421.024</ele>
        <time>2018-09-22T09:24:03Z</time>
      </trkpt>
      <trkpt lat="42.277072" lon="1.698605">
        <ele>2421.349</ele>
        <time>2018-09-22T09:24:07Z</time>
      </trkpt>
      <trkpt lat="42.277066" lon="1.698595">
        <ele>2421.402</ele>
        <time>2018-09-22T09:24:08Z</time>
      </trkpt>
      <trkpt lat="42.277052" lon="1.698569">
        <ele>2421.722</ele>
        <time>2018-09-22T09:24:10Z</time>
      </trkpt>
      <trkpt lat="42.277051" lon="1.698554">
        <ele>2421.608</ele>
        <time>2018-09-22T09:24:11Z</time>
      </trkpt>
      <trkpt lat="42.277044" lon="1.698512">
        <ele>2421.546</ele>
        <time>2018-09-22T09:24:14Z</time>
      </trkpt>
      <trkpt lat="42.277038" lon="1.698464">
        <ele>2421.362</ele>
        <time>2018-09-22T09:24:17Z</time>
      </trkpt>
      <trkpt lat="42.277039" lon="1.698445">
        <ele>2421.263</ele>
        <time>2018-09-22T09:24:18Z</time>
      </trkpt>
      <trkpt lat="42.277042" lon="1.698415">
        <ele>2420.877</ele>
        <time>2018-09-22T09:24:20Z</time>
      </trkpt>
      <trkpt lat="42.277057" lon="1.698364">
        <ele>2419.853</ele>
        <time>2018-09-22T09:24:23Z</time>
      </trkpt>
      <trkpt lat="42.277056" lon="1.698344">
        <ele>2419.623</ele>
        <time>2018-09-22T09:24:24Z</time>
      </trkpt>
      <trkpt lat="42.277057" lon="1.698325">
        <ele>2419.435</ele>
        <time>2018-09-22T09:24:25Z</time>
      </trkpt>
      <trkpt lat="42.277065" lon="1.698271">
        <ele>2418.657</ele>
        <time>2018-09-22T09:24:28Z</time>
      </trkpt>
      <trkpt lat="42.277065" lon="1.698191">
        <ele>2417.988</ele>
        <time>2018-09-22T09:24:33Z</time>
      </trkpt>
      <trkpt lat="42.277074" lon="1.698117">
        <ele>2416.924</ele>
        <time>2018-09-22T09:24:37Z</time>
      </trkpt>
      <trkpt lat="42.277076" lon="1.698035">
        <ele>2416.026</ele>
        <time>2018-09-22T09:24:42Z</time>
      </trkpt>
      <trkpt lat="42.277076" lon="1.697980">
        <ele>2415.508</ele>
        <time>2018-09-22T09:24:45Z</time>
      </trkpt>
      <trkpt lat="42.277074" lon="1.697948">
        <ele>2415.370</ele>
        <time>2018-09-22T09:24:47Z</time>
      </trkpt>
      <trkpt lat="42.277067" lon="1.697918">
        <ele>2415.326</ele>
        <time>2018-09-22T09:24:49Z</time>
      </trkpt>
      <trkpt lat="42.277051" lon="1.697802">
        <ele>2414.757</ele>
        <time>2018-09-22T09:24:57Z</time>
      </trkpt>
      <trkpt lat="42.277009" lon="1.697709">
        <ele>2415.511</ele>
        <time>2018-09-22T09:25:03Z</time>
      </trkpt>
      <trkpt lat="42.276981" lon="1.697674">
        <ele>2416.367</ele>
        <time>2018-09-22T09:25:06Z</time>
      </trkpt>
      <trkpt lat="42.276972" lon="1.697668">
        <ele>2416.617</ele>
        <time>2018-09-22T09:25:07Z</time>
      </trkpt>
      <trkpt lat="42.276941" lon="1.697660">
        <ele>2417.479</ele>
        <time>2018-09-22T09:25:11Z</time>
      </trkpt>
      <trkpt lat="42.276941" lon="1.697664">
        <ele>2417.481</ele>
        <time>2018-09-22T09:25:12Z</time>
      </trkpt>
      <trkpt lat="42.276939" lon="1.697667">
        <ele>2417.382</ele>
        <time>2018-09-22T09:25:13Z</time>
      </trkpt>
      <trkpt lat="42.276930" lon="1.697670">
        <ele>2417.043</ele>
        <time>2018-09-22T09:25:16Z</time>
      </trkpt>
      <trkpt lat="42.276901" lon="1.697678">
        <ele>2416.017</ele>
        <time>2018-09-22T09:25:23Z</time>
      </trkpt>
      <trkpt lat="42.276881" lon="1.697694">
        <ele>2415.408</ele>
        <time>2018-09-22T09:25:26Z</time>
      </trkpt>
      <trkpt lat="42.276859" lon="1.697710">
        <ele>2414.650</ele>
        <time>2018-09-22T09:25:31Z</time>
      </trkpt>
      <trkpt lat="42.276853" lon="1.697739">
        <ele>2414.596</ele>
        <time>2018-09-22T09:25:39Z</time>
      </trkpt>
      <trkpt lat="42.276852" lon="1.697739">
        <ele>2414.567</ele>
        <time>2018-09-22T09:25:44Z</time>
      </trkpt>
      <trkpt lat="42.276854" lon="1.697740">
        <ele>2414.631</ele>
        <time>2018-09-22T09:25:47Z</time>
      </trkpt>
      <trkpt lat="42.276853" lon="1.697741">
        <ele>2414.537</ele>
        <time>2018-09-22T09:25:55Z</time>
      </trkpt>
      <trkpt lat="42.276847" lon="1.697730">
        <ele>2414.317</ele>
        <time>2018-09-22T09:26:11Z</time>
      </trkpt>
      <trkpt lat="42.276834" lon="1.697747">
        <ele>2413.949</ele>
        <time>2018-09-22T09:26:15Z</time>
      </trkpt>
      <trkpt lat="42.276820" lon="1.697761">
        <ele>2413.471</ele>
        <time>2018-09-22T09:26:17Z</time>
      </trkpt>
      <trkpt lat="42.276815" lon="1.697770">
        <ele>2413.368</ele>
        <time>2018-09-22T09:26:18Z</time>
      </trkpt>
      <trkpt lat="42.276810" lon="1.697774">
        <ele>2413.142</ele>
        <time>2018-09-22T09:26:19Z</time>
      </trkpt>
      <trkpt lat="42.276807" lon="1.697775">
        <ele>2413.026</ele>
        <time>2018-09-22T09:26:20Z</time>
      </trkpt>
      <trkpt lat="42.276806" lon="1.697778">
        <ele>2413.008</ele>
        <time>2018-09-22T09:26:21Z</time>
      </trkpt>
      <trkpt lat="42.276801" lon="1.697789">
        <ele>2412.948</ele>
        <time>2018-09-22T09:26:24Z</time>
      </trkpt>
      <trkpt lat="42.276798" lon="1.697783">
        <ele>2412.734</ele>
        <time>2018-09-22T09:26:27Z</time>
      </trkpt>
      <trkpt lat="42.276796" lon="1.697782">
        <ele>2412.795</ele>
        <time>2018-09-22T09:26:32Z</time>
      </trkpt>
      <trkpt lat="42.276789" lon="1.697765">
        <ele>2412.389</ele>
        <time>2018-09-22T09:26:34Z</time>
      </trkpt>
      <trkpt lat="42.276784" lon="1.697757">
        <ele>2412.125</ele>
        <time>2018-09-22T09:26:35Z</time>
      </trkpt>
      <trkpt lat="42.276769" lon="1.697729">
        <ele>2411.585</ele>
        <time>2018-09-22T09:26:37Z</time>
      </trkpt>
      <trkpt lat="42.276734" lon="1.697672">
        <ele>2410.097</ele>
        <time>2018-09-22T09:26:41Z</time>
      </trkpt>
      <trkpt lat="42.276725" lon="1.697633">
        <ele>2409.559</ele>
        <time>2018-09-22T09:26:43Z</time>
      </trkpt>
      <trkpt lat="42.276718" lon="1.697616">
        <ele>2409.286</ele>
        <time>2018-09-22T09:26:44Z</time>
      </trkpt>
      <trkpt lat="42.276706" lon="1.697598">
        <ele>2408.760</ele>
        <time>2018-09-22T09:26:46Z</time>
      </trkpt>
      <trkpt lat="42.276693" lon="1.697596">
        <ele>2408.326</ele>
        <time>2018-09-22T09:26:47Z</time>
      </trkpt>
      <trkpt lat="42.276658" lon="1.697566">
        <ele>2406.708</ele>
        <time>2018-09-22T09:26:50Z</time>
      </trkpt>
      <trkpt lat="42.276628" lon="1.697521">
        <ele>2404.810</ele>
        <time>2018-09-22T09:26:53Z</time>
      </trkpt>
      <trkpt lat="42.276607" lon="1.697497">
        <ele>2403.586</ele>
        <time>2018-09-22T09:26:55Z</time>
      </trkpt>
      <trkpt lat="42.276577" lon="1.697449">
        <ele>2401.757</ele>
        <time>2018-09-22T09:26:58Z</time>
      </trkpt>
      <trkpt lat="42.276567" lon="1.697403">
        <ele>2401.091</ele>
        <time>2018-09-22T09:27:00Z</time>
      </trkpt>
      <trkpt lat="42.276549" lon="1.697365">
        <ele>2399.917</ele>
        <time>2018-09-22T09:27:02Z</time>
      </trkpt>
      <trkpt lat="42.276525" lon="1.697338">
        <ele>2398.597</ele>
        <time>2018-09-22T09:27:04Z</time>
      </trkpt>
      <trkpt lat="42.276503" lon="1.697309">
        <ele>2397.339</ele>
        <time>2018-09-22T09:27:06Z</time>
      </trkpt>
      <trkpt lat="42.276478" lon="1.697258">
        <ele>2395.881</ele>
        <time>2018-09-22T09:27:09Z</time>
      </trkpt>
      <trkpt lat="42.276446" lon="1.697204">
        <ele>2394.059</ele>
        <time>2018-09-22T09:27:12Z</time>
      </trkpt>
      <trkpt lat="42.276434" lon="1.697149">
        <ele>2393.103</ele>
        <time>2018-09-22T09:27:14Z</time>
      </trkpt>
      <trkpt lat="42.276407" lon="1.697070">
        <ele>2391.423</ele>
        <time>2018-09-22T09:27:17Z</time>
      </trkpt>
      <trkpt lat="42.276379" lon="1.696997">
        <ele>2389.608</ele>
        <time>2018-09-22T09:27:20Z</time>
      </trkpt>
      <trkpt lat="42.276354" lon="1.696959">
        <ele>2388.197</ele>
        <time>2018-09-22T09:27:22Z</time>
      </trkpt>
      <trkpt lat="42.276326" lon="1.696884">
        <ele>2386.253</ele>
        <time>2018-09-22T09:27:25Z</time>
      </trkpt>
      <trkpt lat="42.276307" lon="1.696838">
        <ele>2384.974</ele>
        <time>2018-09-22T09:27:27Z</time>
      </trkpt>
      <trkpt lat="42.276284" lon="1.696789">
        <ele>2383.448</ele>
        <time>2018-09-22T09:27:29Z</time>
      </trkpt>
      <trkpt lat="42.276272" lon="1.696734">
        <ele>2382.444</ele>
        <time>2018-09-22T09:27:31Z</time>
      </trkpt>
      <trkpt lat="42.276244" lon="1.696656">
        <ele>2380.624</ele>
        <time>2018-09-22T09:27:34Z</time>
      </trkpt>
      <trkpt lat="42.276227" lon="1.696604">
        <ele>2379.686</ele>
        <time>2018-09-22T09:27:36Z</time>
      </trkpt>
      <trkpt lat="42.276214" lon="1.696546">
        <ele>2378.758</ele>
        <time>2018-09-22T09:27:38Z</time>
      </trkpt>
      <trkpt lat="42.276189" lon="1.696429">
        <ele>2377.065</ele>
        <time>2018-09-22T09:27:42Z</time>
      </trkpt>
      <trkpt lat="42.276146" lon="1.696345">
        <ele>2374.568</ele>
        <time>2018-09-22T09:27:46Z</time>
      </trkpt>
      <trkpt lat="42.276126" lon="1.696291">
        <ele>2373.314</ele>
        <time>2018-09-22T09:27:48Z</time>
      </trkpt>
      <trkpt lat="42.276107" lon="1.696234">
        <ele>2372.208</ele>
        <time>2018-09-22T09:27:50Z</time>
      </trkpt>
      <trkpt lat="42.276093" lon="1.696177">
        <ele>2371.338</ele>
        <time>2018-09-22T09:27:52Z</time>
      </trkpt>
      <trkpt lat="42.276085" lon="1.696129">
        <ele>2370.774</ele>
        <time>2018-09-22T09:27:54Z</time>
      </trkpt>
      <trkpt lat="42.276073" lon="1.696115">
        <ele>2370.095</ele>
        <time>2018-09-22T09:27:55Z</time>
      </trkpt>
      <trkpt lat="42.276060" lon="1.696099">
        <ele>2369.329</ele>
        <time>2018-09-22T09:27:56Z</time>
      </trkpt>
      <trkpt lat="42.276049" lon="1.696079">
        <ele>2368.645</ele>
        <time>2018-09-22T09:27:57Z</time>
      </trkpt>
      <trkpt lat="42.276024" lon="1.696038">
        <ele>2367.045</ele>
        <time>2018-09-22T09:27:59Z</time>
      </trkpt>
      <trkpt lat="42.276000" lon="1.695991">
        <ele>2365.517</ele>
        <time>2018-09-22T09:28:01Z</time>
      </trkpt>
      <trkpt lat="42.275979" lon="1.695902">
        <ele>2363.849</ele>
        <time>2018-09-22T09:28:04Z</time>
      </trkpt>
      <trkpt lat="42.275976" lon="1.695834">
        <ele>2363.145</ele>
        <time>2018-09-22T09:28:06Z</time>
      </trkpt>
      <trkpt lat="42.275975" lon="1.695774">
        <ele>2362.747</ele>
        <time>2018-09-22T09:28:08Z</time>
      </trkpt>
      <trkpt lat="42.275947" lon="1.695698">
        <ele>2361.011</ele>
        <time>2018-09-22T09:28:11Z</time>
      </trkpt>
      <trkpt lat="42.275928" lon="1.695647">
        <ele>2359.808</ele>
        <time>2018-09-22T09:28:13Z</time>
      </trkpt>
      <trkpt lat="42.275874" lon="1.695478">
        <ele>2356.316</ele>
        <time>2018-09-22T09:28:19Z</time>
      </trkpt>
      <trkpt lat="42.275852" lon="1.695425">
        <ele>2354.982</ele>
        <time>2018-09-22T09:28:21Z</time>
      </trkpt>
      <trkpt lat="42.275836" lon="1.695362">
        <ele>2353.733</ele>
        <time>2018-09-22T09:28:23Z</time>
      </trkpt>
      <trkpt lat="42.275827" lon="1.695297">
        <ele>2352.827</ele>
        <time>2018-09-22T09:28:25Z</time>
      </trkpt>
      <trkpt lat="42.275818" lon="1.695235">
        <ele>2352.043</ele>
        <time>2018-09-22T09:28:27Z</time>
      </trkpt>
      <trkpt lat="42.275805" lon="1.695141">
        <ele>2350.923</ele>
        <time>2018-09-22T09:28:30Z</time>
      </trkpt>
      <trkpt lat="42.275778" lon="1.695062">
        <ele>2349.315</ele>
        <time>2018-09-22T09:28:33Z</time>
      </trkpt>
      <trkpt lat="42.275758" lon="1.695014">
        <ele>2348.397</ele>
        <time>2018-09-22T09:28:35Z</time>
      </trkpt>
      <trkpt lat="42.275736" lon="1.694966">
        <ele>2347.264</ele>
        <time>2018-09-22T09:28:37Z</time>
      </trkpt>
      <trkpt lat="42.275708" lon="1.694853">
        <ele>2345.406</ele>
        <time>2018-09-22T09:28:41Z</time>
      </trkpt>
      <trkpt lat="42.275689" lon="1.694791">
        <ele>2344.316</ele>
        <time>2018-09-22T09:28:43Z</time>
      </trkpt>
      <trkpt lat="42.275680" lon="1.694727">
        <ele>2343.508</ele>
        <time>2018-09-22T09:28:45Z</time>
      </trkpt>
      <trkpt lat="42.275671" lon="1.694588">
        <ele>2341.998</ele>
        <time>2018-09-22T09:28:49Z</time>
      </trkpt>
      <trkpt lat="42.275663" lon="1.694517">
        <ele>2341.144</ele>
        <time>2018-09-22T09:28:51Z</time>
      </trkpt>
      <trkpt lat="42.275649" lon="1.694407">
        <ele>2339.845</ele>
        <time>2018-09-22T09:28:54Z</time>
      </trkpt>
      <trkpt lat="42.275648" lon="1.694301">
        <ele>2339.399</ele>
        <time>2018-09-22T09:28:57Z</time>
      </trkpt>
      <trkpt lat="42.275639" lon="1.694241">
        <ele>2338.725</ele>
        <time>2018-09-22T09:28:59Z</time>
      </trkpt>
      <trkpt lat="42.275625" lon="1.694209">
        <ele>2338.195</ele>
        <time>2018-09-22T09:29:00Z</time>
      </trkpt>
      <trkpt lat="42.275599" lon="1.693992">
        <ele>2335.887</ele>
        <time>2018-09-22T09:29:06Z</time>
      </trkpt>
      <trkpt lat="42.275592" lon="1.693887">
        <ele>2334.929</ele>
        <time>2018-09-22T09:29:09Z</time>
      </trkpt>
      <trkpt lat="42.275584" lon="1.693753">
        <ele>2333.775</ele>
        <time>2018-09-22T09:29:13Z</time>
      </trkpt>
      <trkpt lat="42.275568" lon="1.693613">
        <ele>2332.328</ele>
        <time>2018-09-22T09:29:17Z</time>
      </trkpt>
      <trkpt lat="42.275532" lon="1.693519">
        <ele>2330.920</ele>
        <time>2018-09-22T09:29:20Z</time>
      </trkpt>
      <trkpt lat="42.275519" lon="1.693454">
        <ele>2330.208</ele>
        <time>2018-09-22T09:29:22Z</time>
      </trkpt>
      <trkpt lat="42.275505" lon="1.693369">
        <ele>2329.359</ele>
        <time>2018-09-22T09:29:25Z</time>
      </trkpt>
      <trkpt lat="42.275492" lon="1.693237">
        <ele>2327.975</ele>
        <time>2018-09-22T09:29:29Z</time>
      </trkpt>
      <trkpt lat="42.275491" lon="1.693126">
        <ele>2326.766</ele>
        <time>2018-09-22T09:29:32Z</time>
      </trkpt>
      <trkpt lat="42.275485" lon="1.692984">
        <ele>2325.540</ele>
        <time>2018-09-22T09:29:36Z</time>
      </trkpt>
      <trkpt lat="42.275473" lon="1.692878">
        <ele>2324.766</ele>
        <time>2018-09-22T09:29:39Z</time>
      </trkpt>
      <trkpt lat="42.275456" lon="1.692735">
        <ele>2323.716</ele>
        <time>2018-09-22T09:29:43Z</time>
      </trkpt>
      <trkpt lat="42.275429" lon="1.692500">
        <ele>2322.198</ele>
        <time>2018-09-22T09:29:50Z</time>
      </trkpt>
      <trkpt lat="42.275432" lon="1.692359">
        <ele>2320.630</ele>
        <time>2018-09-22T09:29:54Z</time>
      </trkpt>
      <trkpt lat="42.275432" lon="1.692175">
        <ele>2318.866</ele>
        <time>2018-09-22T09:29:59Z</time>
      </trkpt>
      <trkpt lat="42.275428" lon="1.692059">
        <ele>2317.929</ele>
        <time>2018-09-22T09:30:02Z</time>
      </trkpt>
      <trkpt lat="42.275426" lon="1.691935">
        <ele>2317.021</ele>
        <time>2018-09-22T09:30:05Z</time>
      </trkpt>
      <trkpt lat="42.275401" lon="1.691682">
        <ele>2315.408</ele>
        <time>2018-09-22T09:30:11Z</time>
      </trkpt>
      <trkpt lat="42.275394" lon="1.691641">
        <ele>2315.078</ele>
        <time>2018-09-22T09:30:12Z</time>
      </trkpt>
      <trkpt lat="42.275377" lon="1.691510">
        <ele>2313.914</ele>
        <time>2018-09-22T09:30:15Z</time>
      </trkpt>
      <trkpt lat="42.275375" lon="1.691468">
        <ele>2313.625</ele>
        <time>2018-09-22T09:30:16Z</time>
      </trkpt>
      <trkpt lat="42.275367" lon="1.691394">
        <ele>2313.039</ele>
        <time>2018-09-22T09:30:18Z</time>
      </trkpt>
      <trkpt lat="42.275342" lon="1.691272">
        <ele>2311.885</ele>
        <time>2018-09-22T09:30:21Z</time>
      </trkpt>
      <trkpt lat="42.275317" lon="1.691152">
        <ele>2310.785</ele>
        <time>2018-09-22T09:30:24Z</time>
      </trkpt>
      <trkpt lat="42.275289" lon="1.691038">
        <ele>2309.347</ele>
        <time>2018-09-22T09:30:27Z</time>
      </trkpt>
      <trkpt lat="42.275267" lon="1.690917">
        <ele>2307.879</ele>
        <time>2018-09-22T09:30:30Z</time>
      </trkpt>
      <trkpt lat="42.275247" lon="1.690803">
        <ele>2306.548</ele>
        <time>2018-09-22T09:30:33Z</time>
      </trkpt>
      <trkpt lat="42.275240" lon="1.690686">
        <ele>2305.661</ele>
        <time>2018-09-22T09:30:36Z</time>
      </trkpt>
      <trkpt lat="42.275235" lon="1.690608">
        <ele>2305.017</ele>
        <time>2018-09-22T09:30:38Z</time>
      </trkpt>
      <trkpt lat="42.275230" lon="1.690490">
        <ele>2303.708</ele>
        <time>2018-09-22T09:30:41Z</time>
      </trkpt>
      <trkpt lat="42.275224" lon="1.690302">
        <ele>2301.186</ele>
        <time>2018-09-22T09:30:46Z</time>
      </trkpt>
      <trkpt lat="42.275228" lon="1.690202">
        <ele>2300.242</ele>
        <time>2018-09-22T09:30:49Z</time>
      </trkpt>
      <trkpt lat="42.275228" lon="1.690083">
        <ele>2299.213</ele>
        <time>2018-09-22T09:30:52Z</time>
      </trkpt>
      <trkpt lat="42.275214" lon="1.689959">
        <ele>2298.367</ele>
        <time>2018-09-22T09:30:55Z</time>
      </trkpt>
      <trkpt lat="42.275211" lon="1.689871">
        <ele>2298.063</ele>
        <time>2018-09-22T09:30:57Z</time>
      </trkpt>
      <trkpt lat="42.275205" lon="1.689750">
        <ele>2297.553</ele>
        <time>2018-09-22T09:31:00Z</time>
      </trkpt>
      <trkpt lat="42.275181" lon="1.689586">
        <ele>2296.885</ele>
        <time>2018-09-22T09:31:04Z</time>
      </trkpt>
      <trkpt lat="42.275154" lon="1.689406">
        <ele>2295.887</ele>
        <time>2018-09-22T09:31:10Z</time>
      </trkpt>
      <trkpt lat="42.275142" lon="1.689362">
        <ele>2295.462</ele>
        <time>2018-09-22T09:31:13Z</time>
      </trkpt>
      <trkpt lat="42.275136" lon="1.689315">
        <ele>2295.083</ele>
        <time>2018-09-22T09:31:16Z</time>
      </trkpt>
      <trkpt lat="42.275135" lon="1.689302">
        <ele>2294.911</ele>
        <time>2018-09-22T09:31:17Z</time>
      </trkpt>
      <trkpt lat="42.275131" lon="1.689287">
        <ele>2294.808</ele>
        <time>2018-09-22T09:31:18Z</time>
      </trkpt>
      <trkpt lat="42.275114" lon="1.689164">
        <ele>2293.838</ele>
        <time>2018-09-22T09:31:25Z</time>
      </trkpt>
      <trkpt lat="42.275114" lon="1.689127">
        <ele>2293.584</ele>
        <time>2018-09-22T09:31:27Z</time>
      </trkpt>
      <trkpt lat="42.275120" lon="1.689000">
        <ele>2292.635</ele>
        <time>2018-09-22T09:31:33Z</time>
      </trkpt>
      <trkpt lat="42.275120" lon="1.688980">
        <ele>2292.519</ele>
        <time>2018-09-22T09:31:34Z</time>
      </trkpt>
      <trkpt lat="42.275117" lon="1.688940">
        <ele>2292.265</ele>
        <time>2018-09-22T09:31:36Z</time>
      </trkpt>
      <trkpt lat="42.275121" lon="1.688860">
        <ele>2291.675</ele>
        <time>2018-09-22T09:31:40Z</time>
      </trkpt>
      <trkpt lat="42.275120" lon="1.688801">
        <ele>2291.097</ele>
        <time>2018-09-22T09:31:43Z</time>
      </trkpt>
      <trkpt lat="42.275121" lon="1.688704">
        <ele>2290.169</ele>
        <time>2018-09-22T09:31:48Z</time>
      </trkpt>
      <trkpt lat="42.275126" lon="1.688651">
        <ele>2289.797</ele>
        <time>2018-09-22T09:31:51Z</time>
      </trkpt>
      <trkpt lat="42.275129" lon="1.688574">
        <ele>2289.123</ele>
        <time>2018-09-22T09:31:55Z</time>
      </trkpt>
      <trkpt lat="42.275130" lon="1.688532">
        <ele>2288.825</ele>
        <time>2018-09-22T09:31:57Z</time>
      </trkpt>
      <trkpt lat="42.275129" lon="1.688473">
        <ele>2288.408</ele>
        <time>2018-09-22T09:32:00Z</time>
      </trkpt>
      <trkpt lat="42.275129" lon="1.688418">
        <ele>2287.941</ele>
        <time>2018-09-22T09:32:03Z</time>
      </trkpt>
      <trkpt lat="42.275126" lon="1.688382">
        <ele>2287.727</ele>
        <time>2018-09-22T09:32:05Z</time>
      </trkpt>
      <trkpt lat="42.275122" lon="1.688362">
        <ele>2287.538</ele>
        <time>2018-09-22T09:32:06Z</time>
      </trkpt>
      <trkpt lat="42.275116" lon="1.688303">
        <ele>2286.942</ele>
        <time>2018-09-22T09:32:09Z</time>
      </trkpt>
      <trkpt lat="42.275109" lon="1.688247">
        <ele>2286.248</ele>
        <time>2018-09-22T09:32:12Z</time>
      </trkpt>
      <trkpt lat="42.275117" lon="1.688139">
        <ele>2285.198</ele>
        <time>2018-09-22T09:32:18Z</time>
      </trkpt>
      <trkpt lat="42.275119" lon="1.688123">
        <ele>2285.020</ele>
        <time>2018-09-22T09:32:19Z</time>
      </trkpt>
      <trkpt lat="42.275118" lon="1.688106">
        <ele>2284.832</ele>
        <time>2018-09-22T09:32:20Z</time>
      </trkpt>
      <trkpt lat="42.275119" lon="1.688060">
        <ele>2284.315</ele>
        <time>2018-09-22T09:32:23Z</time>
      </trkpt>
      <trkpt lat="42.275134" lon="1.687974">
        <ele>2283.565</ele>
        <time>2018-09-22T09:32:28Z</time>
      </trkpt>
      <trkpt lat="42.275135" lon="1.687899">
        <ele>2282.711</ele>
        <time>2018-09-22T09:32:32Z</time>
      </trkpt>
      <trkpt lat="42.275126" lon="1.687836">
        <ele>2281.908</ele>
        <time>2018-09-22T09:32:35Z</time>
      </trkpt>
      <trkpt lat="42.275126" lon="1.687816">
        <ele>2281.733</ele>
        <time>2018-09-22T09:32:36Z</time>
      </trkpt>
      <trkpt lat="42.275116" lon="1.687757">
        <ele>2281.179</ele>
        <time>2018-09-22T09:32:39Z</time>
      </trkpt>
      <trkpt lat="42.275112" lon="1.687740">
        <ele>2280.910</ele>
        <time>2018-09-22T09:32:40Z</time>
      </trkpt>
      <trkpt lat="42.275109" lon="1.687723">
        <ele>2280.794</ele>
        <time>2018-09-22T09:32:41Z</time>
      </trkpt>
      <trkpt lat="42.275100" lon="1.687685">
        <ele>2280.490</ele>
        <time>2018-09-22T09:32:43Z</time>
      </trkpt>
      <trkpt lat="42.275093" lon="1.687668">
        <ele>2280.240</ele>
        <time>2018-09-22T09:32:44Z</time>
      </trkpt>
      <trkpt lat="42.275052" lon="1.687567">
        <ele>2279.052</ele>
        <time>2018-09-22T09:32:50Z</time>
      </trkpt>
      <trkpt lat="42.275019" lon="1.687464">
        <ele>2277.974</ele>
        <time>2018-09-22T09:32:56Z</time>
      </trkpt>
      <trkpt lat="42.274952" lon="1.687315">
        <ele>2276.228</ele>
        <time>2018-09-22T09:33:06Z</time>
      </trkpt>
      <trkpt lat="42.274919" lon="1.687252">
        <ele>2275.389</ele>
        <time>2018-09-22T09:33:11Z</time>
      </trkpt>
      <trkpt lat="42.274882" lon="1.687168">
        <ele>2274.217</ele>
        <time>2018-09-22T09:33:17Z</time>
      </trkpt>
      <trkpt lat="42.274868" lon="1.687138">
        <ele>2273.808</ele>
        <time>2018-09-22T09:33:19Z</time>
      </trkpt>
      <trkpt lat="42.274856" lon="1.687104">
        <ele>2273.354</ele>
        <time>2018-09-22T09:33:21Z</time>
      </trkpt>
      <trkpt lat="42.274837" lon="1.687037">
        <ele>2272.530</ele>
        <time>2018-09-22T09:33:25Z</time>
      </trkpt>
      <trkpt lat="42.274804" lon="1.686970">
        <ele>2271.451</ele>
        <time>2018-09-22T09:33:30Z</time>
      </trkpt>
      <trkpt lat="42.274785" lon="1.686943">
        <ele>2270.825</ele>
        <time>2018-09-22T09:33:32Z</time>
      </trkpt>
      <trkpt lat="42.274776" lon="1.686926">
        <ele>2270.681</ele>
        <time>2018-09-22T09:33:33Z</time>
      </trkpt>
      <trkpt lat="42.274765" lon="1.686906">
        <ele>2270.261</ele>
        <time>2018-09-22T09:33:34Z</time>
      </trkpt>
      <trkpt lat="42.274742" lon="1.686870">
        <ele>2269.553</ele>
        <time>2018-09-22T09:33:36Z</time>
      </trkpt>
      <trkpt lat="42.274734" lon="1.686856">
        <ele>2269.255</ele>
        <time>2018-09-22T09:33:37Z</time>
      </trkpt>
      <trkpt lat="42.274703" lon="1.686829">
        <ele>2268.422</ele>
        <time>2018-09-22T09:33:40Z</time>
      </trkpt>
      <trkpt lat="42.274678" lon="1.686819">
        <ele>2267.862</ele>
        <time>2018-09-22T09:33:42Z</time>
      </trkpt>
      <trkpt lat="42.274645" lon="1.686795">
        <ele>2266.908</ele>
        <time>2018-09-22T09:33:45Z</time>
      </trkpt>
      <trkpt lat="42.274602" lon="1.686753">
        <ele>2265.708</ele>
        <time>2018-09-22T09:33:49Z</time>
      </trkpt>
      <trkpt lat="42.274557" lon="1.686731">
        <ele>2264.714</ele>
        <time>2018-09-22T09:33:53Z</time>
      </trkpt>
      <trkpt lat="42.274499" lon="1.686681">
        <ele>2263.130</ele>
        <time>2018-09-22T09:33:58Z</time>
      </trkpt>
      <trkpt lat="42.274459" lon="1.686649">
        <ele>2262.261</ele>
        <time>2018-09-22T09:34:02Z</time>
      </trkpt>
      <trkpt lat="42.274448" lon="1.686642">
        <ele>2261.985</ele>
        <time>2018-09-22T09:34:03Z</time>
      </trkpt>
      <trkpt lat="42.274435" lon="1.686631">
        <ele>2261.761</ele>
        <time>2018-09-22T09:34:04Z</time>
      </trkpt>
      <trkpt lat="42.274409" lon="1.686615">
        <ele>2261.431</ele>
        <time>2018-09-22T09:34:06Z</time>
      </trkpt>
      <trkpt lat="42.274383" lon="1.686598">
        <ele>2261.193</ele>
        <time>2018-09-22T09:34:08Z</time>
      </trkpt>
      <trkpt lat="42.274350" lon="1.686573">
        <ele>2260.665</ele>
        <time>2018-09-22T09:34:11Z</time>
      </trkpt>
      <trkpt lat="42.274327" lon="1.686555">
        <ele>2260.283</ele>
        <time>2018-09-22T09:34:13Z</time>
      </trkpt>
      <trkpt lat="42.274305" lon="1.686540">
        <ele>2259.825</ele>
        <time>2018-09-22T09:34:15Z</time>
      </trkpt>
      <trkpt lat="42.274250" lon="1.686501">
        <ele>2258.717</ele>
        <time>2018-09-22T09:34:20Z</time>
      </trkpt>
      <trkpt lat="42.274207" lon="1.686447">
        <ele>2257.408</ele>
        <time>2018-09-22T09:34:24Z</time>
      </trkpt>
      <trkpt lat="42.274183" lon="1.686411">
        <ele>2256.660</ele>
        <time>2018-09-22T09:34:26Z</time>
      </trkpt>
      <trkpt lat="42.274160" lon="1.686395">
        <ele>2255.916</ele>
        <time>2018-09-22T09:34:28Z</time>
      </trkpt>
      <trkpt lat="42.274154" lon="1.686379">
        <ele>2255.737</ele>
        <time>2018-09-22T09:34:30Z</time>
      </trkpt>
      <trkpt lat="42.274141" lon="1.686366">
        <ele>2255.571</ele>
        <time>2018-09-22T09:34:33Z</time>
      </trkpt>
      <trkpt lat="42.274122" lon="1.686358">
        <ele>2255.187</ele>
        <time>2018-09-22T09:34:35Z</time>
      </trkpt>
      <trkpt lat="42.274100" lon="1.686366">
        <ele>2254.697</ele>
        <time>2018-09-22T09:34:37Z</time>
      </trkpt>
      <trkpt lat="42.274087" lon="1.686369">
        <ele>2254.399</ele>
        <time>2018-09-22T09:34:38Z</time>
      </trkpt>
      <trkpt lat="42.274066" lon="1.686366">
        <ele>2253.821</ele>
        <time>2018-09-22T09:34:40Z</time>
      </trkpt>
      <trkpt lat="42.274054" lon="1.686335">
        <ele>2253.665</ele>
        <time>2018-09-22T09:34:42Z</time>
      </trkpt>
      <trkpt lat="42.274048" lon="1.686324">
        <ele>2253.568</ele>
        <time>2018-09-22T09:34:44Z</time>
      </trkpt>
      <trkpt lat="42.274027" lon="1.686324">
        <ele>2252.914</ele>
        <time>2018-09-22T09:34:47Z</time>
      </trkpt>
      <trkpt lat="42.273999" lon="1.686308">
        <ele>2252.208</ele>
        <time>2018-09-22T09:34:50Z</time>
      </trkpt>
      <trkpt lat="42.273990" lon="1.686301">
        <ele>2252.038</ele>
        <time>2018-09-22T09:34:51Z</time>
      </trkpt>
      <trkpt lat="42.273975" lon="1.686283">
        <ele>2251.584</ele>
        <time>2018-09-22T09:34:53Z</time>
      </trkpt>
      <trkpt lat="42.273966" lon="1.686274">
        <ele>2251.335</ele>
        <time>2018-09-22T09:34:55Z</time>
      </trkpt>
      <trkpt lat="42.273959" lon="1.686277">
        <ele>2251.199</ele>
        <time>2018-09-22T09:34:57Z</time>
      </trkpt>
      <trkpt lat="42.273916" lon="1.686267">
        <ele>2249.845</ele>
        <time>2018-09-22T09:35:01Z</time>
      </trkpt>
      <trkpt lat="42.273908" lon="1.686263">
        <ele>2249.655</ele>
        <time>2018-09-22T09:35:02Z</time>
      </trkpt>
      <trkpt lat="42.273868" lon="1.686248">
        <ele>2248.467</ele>
        <time>2018-09-22T09:35:06Z</time>
      </trkpt>
      <trkpt lat="42.273851" lon="1.686250">
        <ele>2248.199</ele>
        <time>2018-09-22T09:35:07Z</time>
      </trkpt>
      <trkpt lat="42.273848" lon="1.686256">
        <ele>2248.029</ele>
        <time>2018-09-22T09:35:08Z</time>
      </trkpt>
      <trkpt lat="42.273836" lon="1.686255">
        <ele>2247.800</ele>
        <time>2018-09-22T09:35:09Z</time>
      </trkpt>
      <trkpt lat="42.273815" lon="1.686245">
        <ele>2247.220</ele>
        <time>2018-09-22T09:35:11Z</time>
      </trkpt>
      <trkpt lat="42.273774" lon="1.686207">
        <ele>2245.608</ele>
        <time>2018-09-22T09:35:16Z</time>
      </trkpt>
      <trkpt lat="42.273748" lon="1.686191">
        <ele>2244.714</ele>
        <time>2018-09-22T09:35:19Z</time>
      </trkpt>
      <trkpt lat="42.273733" lon="1.686176">
        <ele>2244.040</ele>
        <time>2018-09-22T09:35:21Z</time>
      </trkpt>
      <trkpt lat="42.273706" lon="1.686141">
        <ele>2242.641</ele>
        <time>2018-09-22T09:35:24Z</time>
      </trkpt>
      <trkpt lat="42.273676" lon="1.686121">
        <ele>2241.355</ele>
        <time>2018-09-22T09:35:27Z</time>
      </trkpt>
      <trkpt lat="42.273652" lon="1.686106">
        <ele>2240.251</ele>
        <time>2018-09-22T09:35:29Z</time>
      </trkpt>
      <trkpt lat="42.273650" lon="1.686096">
        <ele>2240.061</ele>
        <time>2018-09-22T09:35:30Z</time>
      </trkpt>
      <trkpt lat="42.273645" lon="1.686086">
        <ele>2239.733</ele>
        <time>2018-09-22T09:35:31Z</time>
      </trkpt>
      <trkpt lat="42.273623" lon="1.686032">
        <ele>2238.265</ele>
        <time>2018-09-22T09:35:34Z</time>
      </trkpt>
      <trkpt lat="42.273621" lon="1.686012">
        <ele>2237.959</ele>
        <time>2018-09-22T09:35:36Z</time>
      </trkpt>
      <trkpt lat="42.273619" lon="1.686000">
        <ele>2237.703</ele>
        <time>2018-09-22T09:35:37Z</time>
      </trkpt>
      <trkpt lat="42.273618" lon="1.685994">
        <ele>2237.523</ele>
        <time>2018-09-22T09:35:38Z</time>
      </trkpt>
      <trkpt lat="42.273594" lon="1.685955">
        <ele>2236.308</ele>
        <time>2018-09-22T09:35:42Z</time>
      </trkpt>
      <trkpt lat="42.273582" lon="1.685938">
        <ele>2235.747</ele>
        <time>2018-09-22T09:35:44Z</time>
      </trkpt>
      <trkpt lat="42.273576" lon="1.685933">
        <ele>2235.583</ele>
        <time>2018-09-22T09:35:45Z</time>
      </trkpt>
      <trkpt lat="42.273559" lon="1.685926">
        <ele>2235.014</ele>
        <time>2018-09-22T09:35:47Z</time>
      </trkpt>
      <trkpt lat="42.273544" lon="1.685924">
        <ele>2234.658</ele>
        <time>2018-09-22T09:35:49Z</time>
      </trkpt>
      <trkpt lat="42.273526" lon="1.685920">
        <ele>2234.174</ele>
        <time>2018-09-22T09:35:51Z</time>
      </trkpt>
      <trkpt lat="42.273509" lon="1.685914">
        <ele>2233.574</ele>
        <time>2018-09-22T09:35:53Z</time>
      </trkpt>
      <trkpt lat="42.273488" lon="1.685907">
        <ele>2232.896</ele>
        <time>2018-09-22T09:35:55Z</time>
      </trkpt>
      <trkpt lat="42.273467" lon="1.685900">
        <ele>2232.128</ele>
        <time>2018-09-22T09:35:57Z</time>
      </trkpt>
      <trkpt lat="42.273459" lon="1.685898">
        <ele>2231.985</ele>
        <time>2018-09-22T09:35:58Z</time>
      </trkpt>
      <trkpt lat="42.273434" lon="1.685883">
        <ele>2230.989</ele>
        <time>2018-09-22T09:36:01Z</time>
      </trkpt>
      <trkpt lat="42.273430" lon="1.685876">
        <ele>2230.717</ele>
        <time>2018-09-22T09:36:02Z</time>
      </trkpt>
      <trkpt lat="42.273402" lon="1.685842">
        <ele>2229.108</ele>
        <time>2018-09-22T09:36:07Z</time>
      </trkpt>
      <trkpt lat="42.273396" lon="1.685838">
        <ele>2228.870</ele>
        <time>2018-09-22T09:36:08Z</time>
      </trkpt>
      <trkpt lat="42.273374" lon="1.685820">
        <ele>2227.986</ele>
        <time>2018-09-22T09:36:11Z</time>
      </trkpt>
      <trkpt lat="42.273365" lon="1.685816">
        <ele>2227.667</ele>
        <time>2018-09-22T09:36:12Z</time>
      </trkpt>
      <trkpt lat="42.273360" lon="1.685785">
        <ele>2227.121</ele>
        <time>2018-09-22T09:36:15Z</time>
      </trkpt>
      <trkpt lat="42.273352" lon="1.685754">
        <ele>2226.467</ele>
        <time>2018-09-22T09:36:18Z</time>
      </trkpt>
      <trkpt lat="42.273338" lon="1.685721">
        <ele>2225.577</ele>
        <time>2018-09-22T09:36:21Z</time>
      </trkpt>
      <trkpt lat="42.273325" lon="1.685689">
        <ele>2224.759</ele>
        <time>2018-09-22T09:36:23Z</time>
      </trkpt>
      <trkpt lat="42.273316" lon="1.685673">
        <ele>2224.241</ele>
        <time>2018-09-22T09:36:24Z</time>
      </trkpt>
      <trkpt lat="42.273293" lon="1.685642">
        <ele>2223.271</ele>
        <time>2018-09-22T09:36:27Z</time>
      </trkpt>
      <trkpt lat="42.273259" lon="1.685618">
        <ele>2221.941</ele>
        <time>2018-09-22T09:36:30Z</time>
      </trkpt>
      <trkpt lat="42.273212" lon="1.685582">
        <ele>2220.015</ele>
        <time>2018-09-22T09:36:34Z</time>
      </trkpt>
      <trkpt lat="42.273187" lon="1.685559">
        <ele>2218.808</ele>
        <time>2018-09-22T09:36:37Z</time>
      </trkpt>
      <trkpt lat="42.273157" lon="1.685551">
        <ele>2217.859</ele>
        <time>2018-09-22T09:36:40Z</time>
      </trkpt>
      <trkpt lat="42.273122" lon="1.685537">
        <ele>2216.795</ele>
        <time>2018-09-22T09:36:43Z</time>
      </trkpt>
      <trkpt lat="42.273092" lon="1.685510">
        <ele>2215.546</ele>
        <time>2018-09-22T09:36:46Z</time>
      </trkpt>
      <trkpt lat="42.273090" lon="1.685501">
        <ele>2215.430</ele>
        <time>2018-09-22T09:36:47Z</time>
      </trkpt>
      <trkpt lat="42.273084" lon="1.685489">
        <ele>2215.196</ele>
        <time>2018-09-22T09:36:48Z</time>
      </trkpt>
      <trkpt lat="42.273069" lon="1.685469">
        <ele>2214.456</ele>
        <time>2018-09-22T09:36:50Z</time>
      </trkpt>
      <trkpt lat="42.273045" lon="1.685461">
        <ele>2213.778</ele>
        <time>2018-09-22T09:36:52Z</time>
      </trkpt>
      <trkpt lat="42.273031" lon="1.685462">
        <ele>2213.340</ele>
        <time>2018-09-22T09:36:53Z</time>
      </trkpt>
      <trkpt lat="42.272985" lon="1.685471">
        <ele>2212.379</ele>
        <time>2018-09-22T09:36:56Z</time>
      </trkpt>
      <trkpt lat="42.272970" lon="1.685462">
        <ele>2211.805</ele>
        <time>2018-09-22T09:36:57Z</time>
      </trkpt>
      <trkpt lat="42.272937" lon="1.685428">
        <ele>2210.425</ele>
        <time>2018-09-22T09:37:00Z</time>
      </trkpt>
      <trkpt lat="42.272905" lon="1.685381">
        <ele>2208.808</ele>
        <time>2018-09-22T09:37:03Z</time>
      </trkpt>
      <trkpt lat="42.272885" lon="1.685355">
        <ele>2207.829</ele>
        <time>2018-09-22T09:37:06Z</time>
      </trkpt>
      <trkpt lat="42.272867" lon="1.685342">
        <ele>2207.015</ele>
        <time>2018-09-22T09:37:08Z</time>
      </trkpt>
      <trkpt lat="42.272820" lon="1.685351">
        <ele>2205.856</ele>
        <time>2018-09-22T09:37:12Z</time>
      </trkpt>
      <trkpt lat="42.272783" lon="1.685318">
        <ele>2204.090</ele>
        <time>2018-09-22T09:37:17Z</time>
      </trkpt>
      <trkpt lat="42.272767" lon="1.685320">
        <ele>2203.546</ele>
        <time>2018-09-22T09:37:19Z</time>
      </trkpt>
      <trkpt lat="42.272765" lon="1.685327">
        <ele>2203.676</ele>
        <time>2018-09-22T09:37:20Z</time>
      </trkpt>
      <trkpt lat="42.272756" lon="1.685354">
        <ele>2203.968</ele>
        <time>2018-09-22T09:37:33Z</time>
      </trkpt>
      <trkpt lat="42.272755" lon="1.685355">
        <ele>2203.980</ele>
        <time>2018-09-22T09:37:38Z</time>
      </trkpt>
      <trkpt lat="42.272751" lon="1.685363">
        <ele>2204.046</ele>
        <time>2018-09-22T09:37:43Z</time>
      </trkpt>
      <trkpt lat="42.272751" lon="1.685369">
        <ele>2204.188</ele>
        <time>2018-09-22T09:37:53Z</time>
      </trkpt>
      <trkpt lat="42.272754" lon="1.685370">
        <ele>2204.216</ele>
        <time>2018-09-22T09:37:57Z</time>
      </trkpt>
      <trkpt lat="42.272747" lon="1.685332">
        <ele>2203.208</ele>
        <time>2018-09-22T09:38:10Z</time>
      </trkpt>
      <trkpt lat="42.272743" lon="1.685308">
        <ele>2202.686</ele>
        <time>2018-09-22T09:38:13Z</time>
      </trkpt>
      <trkpt lat="42.272740" lon="1.685302">
        <ele>2202.422</ele>
        <time>2018-09-22T09:38:14Z</time>
      </trkpt>
      <trkpt lat="42.272738" lon="1.685297">
        <ele>2202.213</ele>
        <time>2018-09-22T09:38:15Z</time>
      </trkpt>
      <trkpt lat="42.272714" lon="1.685261">
        <ele>2200.987</ele>
        <time>2018-09-22T09:38:19Z</time>
      </trkpt>
      <trkpt lat="42.272701" lon="1.685241">
        <ele>2200.313</ele>
        <time>2018-09-22T09:38:21Z</time>
      </trkpt>
      <trkpt lat="42.272694" lon="1.685228">
        <ele>2199.813</ele>
        <time>2018-09-22T09:38:22Z</time>
      </trkpt>
      <trkpt lat="42.272688" lon="1.685217">
        <ele>2199.555</ele>
        <time>2018-09-22T09:38:23Z</time>
      </trkpt>
      <trkpt lat="42.272672" lon="1.685204">
        <ele>2198.867</ele>
        <time>2018-09-22T09:38:26Z</time>
      </trkpt>
      <trkpt lat="42.272638" lon="1.685182">
        <ele>2197.461</ele>
        <time>2018-09-22T09:38:29Z</time>
      </trkpt>
      <trkpt lat="42.272625" lon="1.685173">
        <ele>2196.821</ele>
        <time>2018-09-22T09:38:30Z</time>
      </trkpt>
      <trkpt lat="42.272601" lon="1.685142">
        <ele>2195.513</ele>
        <time>2018-09-22T09:38:33Z</time>
      </trkpt>
      <trkpt lat="42.272581" lon="1.685099">
        <ele>2194.008</ele>
        <time>2018-09-22T09:38:37Z</time>
      </trkpt>
      <trkpt lat="42.272554" lon="1.685070">
        <ele>2192.498</ele>
        <time>2018-09-22T09:38:41Z</time>
      </trkpt>
      <trkpt lat="42.272547" lon="1.685061">
        <ele>2192.044</ele>
        <time>2018-09-22T09:38:42Z</time>
      </trkpt>
      <trkpt lat="42.272535" lon="1.685042">
        <ele>2191.265</ele>
        <time>2018-09-22T09:38:44Z</time>
      </trkpt>
      <trkpt lat="42.272533" lon="1.685036">
        <ele>2191.029</ele>
        <time>2018-09-22T09:38:45Z</time>
      </trkpt>
      <trkpt lat="42.272522" lon="1.685021">
        <ele>2190.215</ele>
        <time>2018-09-22T09:38:47Z</time>
      </trkpt>
      <trkpt lat="42.272514" lon="1.685004">
        <ele>2189.625</ele>
        <time>2018-09-22T09:38:49Z</time>
      </trkpt>
      <trkpt lat="42.272500" lon="1.684994">
        <ele>2188.967</ele>
        <time>2018-09-22T09:38:51Z</time>
      </trkpt>
      <trkpt lat="42.272481" lon="1.684974">
        <ele>2188.339</ele>
        <time>2018-09-22T09:38:54Z</time>
      </trkpt>
      <trkpt lat="42.272465" lon="1.684943">
        <ele>2187.633</ele>
        <time>2018-09-22T09:38:57Z</time>
      </trkpt>
      <trkpt lat="42.272459" lon="1.684933">
        <ele>2187.423</ele>
        <time>2018-09-22T09:38:58Z</time>
      </trkpt>
      <trkpt lat="42.272448" lon="1.684910">
        <ele>2186.915</ele>
        <time>2018-09-22T09:39:00Z</time>
      </trkpt>
      <trkpt lat="42.272442" lon="1.684902">
        <ele>2186.608</ele>
        <time>2018-09-22T09:39:01Z</time>
      </trkpt>
      <trkpt lat="42.272432" lon="1.684897">
        <ele>2186.335</ele>
        <time>2018-09-22T09:39:02Z</time>
      </trkpt>
      <trkpt lat="42.272383" lon="1.684884">
        <ele>2184.581</ele>
        <time>2018-09-22T09:39:06Z</time>
      </trkpt>
      <trkpt lat="42.272352" lon="1.684877">
        <ele>2183.322</ele>
        <time>2018-09-22T09:39:08Z</time>
      </trkpt>
      <trkpt lat="42.272320" lon="1.684862">
        <ele>2182.026</ele>
        <time>2018-09-22T09:39:10Z</time>
      </trkpt>
      <trkpt lat="42.272289" lon="1.684844">
        <ele>2180.692</ele>
        <time>2018-09-22T09:39:12Z</time>
      </trkpt>
      <trkpt lat="42.272258" lon="1.684818">
        <ele>2179.052</ele>
        <time>2018-09-22T09:39:14Z</time>
      </trkpt>
      <trkpt lat="42.272230" lon="1.684792">
        <ele>2177.574</ele>
        <time>2018-09-22T09:39:16Z</time>
      </trkpt>
      <trkpt lat="42.272206" lon="1.684752">
        <ele>2175.986</ele>
        <time>2018-09-22T09:39:18Z</time>
      </trkpt>
      <trkpt lat="42.272163" lon="1.684699">
        <ele>2173.934</ele>
        <time>2018-09-22T09:39:21Z</time>
      </trkpt>
      <trkpt lat="42.272119" lon="1.684691">
        <ele>2172.355</ele>
        <time>2018-09-22T09:39:24Z</time>
      </trkpt>
      <trkpt lat="42.272084" lon="1.684695">
        <ele>2171.010</ele>
        <time>2018-09-22T09:39:26Z</time>
      </trkpt>
      <trkpt lat="42.272059" lon="1.684698">
        <ele>2170.108</ele>
        <time>2018-09-22T09:39:28Z</time>
      </trkpt>
      <trkpt lat="42.272030" lon="1.684702">
        <ele>2169.125</ele>
        <time>2018-09-22T09:39:30Z</time>
      </trkpt>
      <trkpt lat="42.271983" lon="1.684709">
        <ele>2167.361</ele>
        <time>2018-09-22T09:39:33Z</time>
      </trkpt>
      <trkpt lat="42.271964" lon="1.684704">
        <ele>2166.732</ele>
        <time>2018-09-22T09:39:34Z</time>
      </trkpt>
      <trkpt lat="42.271951" lon="1.684698">
        <ele>2166.236</ele>
        <time>2018-09-22T09:39:35Z</time>
      </trkpt>
      <trkpt lat="42.271925" lon="1.684694">
        <ele>2165.322</ele>
        <time>2018-09-22T09:39:37Z</time>
      </trkpt>
      <trkpt lat="42.271891" lon="1.684687">
        <ele>2164.012</ele>
        <time>2018-09-22T09:39:39Z</time>
      </trkpt>
      <trkpt lat="42.271859" lon="1.684685">
        <ele>2162.854</ele>
        <time>2018-09-22T09:39:41Z</time>
      </trkpt>
      <trkpt lat="42.271830" lon="1.684684">
        <ele>2161.716</ele>
        <time>2018-09-22T09:39:43Z</time>
      </trkpt>
      <trkpt lat="42.271777" lon="1.684683">
        <ele>2159.746</ele>
        <time>2018-09-22T09:39:46Z</time>
      </trkpt>
      <trkpt lat="42.271743" lon="1.684685">
        <ele>2158.588</ele>
        <time>2018-09-22T09:39:48Z</time>
      </trkpt>
      <trkpt lat="42.271702" lon="1.684694">
        <ele>2157.116</ele>
        <time>2018-09-22T09:39:51Z</time>
      </trkpt>
      <trkpt lat="42.271691" lon="1.684692">
        <ele>2156.608</ele>
        <time>2018-09-22T09:39:52Z</time>
      </trkpt>
      <trkpt lat="42.271677" lon="1.684696">
        <ele>2156.116</ele>
        <time>2018-09-22T09:39:53Z</time>
      </trkpt>
      <trkpt lat="42.271649" lon="1.684686">
        <ele>2155.242</ele>
        <time>2018-09-22T09:39:55Z</time>
      </trkpt>
      <trkpt lat="42.271623" lon="1.684668">
        <ele>2154.213</ele>
        <time>2018-09-22T09:39:57Z</time>
      </trkpt>
      <trkpt lat="42.271551" lon="1.684662">
        <ele>2152.057</ele>
        <time>2018-09-22T09:40:01Z</time>
      </trkpt>
      <trkpt lat="42.271509" lon="1.684665">
        <ele>2150.873</ele>
        <time>2018-09-22T09:40:03Z</time>
      </trkpt>
      <trkpt lat="42.271473" lon="1.684669">
        <ele>2149.783</ele>
        <time>2018-09-22T09:40:05Z</time>
      </trkpt>
      <trkpt lat="42.271427" lon="1.684658">
        <ele>2148.265</ele>
        <time>2018-09-22T09:40:08Z</time>
      </trkpt>
      <trkpt lat="42.271406" lon="1.684651">
        <ele>2147.547</ele>
        <time>2018-09-22T09:40:09Z</time>
      </trkpt>
      <trkpt lat="42.271387" lon="1.684655">
        <ele>2146.957</ele>
        <time>2018-09-22T09:40:10Z</time>
      </trkpt>
      <trkpt lat="42.271348" lon="1.684671">
        <ele>2145.900</ele>
        <time>2018-09-22T09:40:12Z</time>
      </trkpt>
      <trkpt lat="42.271279" lon="1.684695">
        <ele>2144.020</ele>
        <time>2018-09-22T09:40:15Z</time>
      </trkpt>
      <trkpt lat="42.271262" lon="1.684711">
        <ele>2143.708</ele>
        <time>2018-09-22T09:40:16Z</time>
      </trkpt>
      <trkpt lat="42.271210" lon="1.684771">
        <ele>2142.747</ele>
        <time>2018-09-22T09:40:19Z</time>
      </trkpt>
      <trkpt lat="42.271144" lon="1.684811">
        <ele>2141.053</ele>
        <time>2018-09-22T09:40:23Z</time>
      </trkpt>
      <trkpt lat="42.271087" lon="1.684815">
        <ele>2139.184</ele>
        <time>2018-09-22T09:40:26Z</time>
      </trkpt>
      <trkpt lat="42.271070" lon="1.684815">
        <ele>2138.618</ele>
        <time>2018-09-22T09:40:27Z</time>
      </trkpt>
      <trkpt lat="42.271054" lon="1.684822">
        <ele>2138.184</ele>
        <time>2018-09-22T09:40:28Z</time>
      </trkpt>
      <trkpt lat="42.271016" lon="1.684850">
        <ele>2137.124</ele>
        <time>2018-09-22T09:40:30Z</time>
      </trkpt>
      <trkpt lat="42.270964" lon="1.684898">
        <ele>2135.816</ele>
        <time>2018-09-22T09:40:33Z</time>
      </trkpt>
      <trkpt lat="42.270952" lon="1.684919">
        <ele>2135.518</ele>
        <time>2018-09-22T09:40:34Z</time>
      </trkpt>
      <trkpt lat="42.270941" lon="1.684939">
        <ele>2135.366</ele>
        <time>2018-09-22T09:40:35Z</time>
      </trkpt>
      <trkpt lat="42.270914" lon="1.684978">
        <ele>2134.729</ele>
        <time>2018-09-22T09:40:37Z</time>
      </trkpt>
      <trkpt lat="42.270862" lon="1.685025">
        <ele>2132.921</ele>
        <time>2018-09-22T09:40:40Z</time>
      </trkpt>
      <trkpt lat="42.270798" lon="1.685054">
        <ele>2130.508</ele>
        <time>2018-09-22T09:40:43Z</time>
      </trkpt>
      <trkpt lat="42.270765" lon="1.685075">
        <ele>2129.238</ele>
        <time>2018-09-22T09:40:45Z</time>
      </trkpt>
      <trkpt lat="42.270709" lon="1.685122">
        <ele>2127.034</ele>
        <time>2018-09-22T09:40:48Z</time>
      </trkpt>
      <trkpt lat="42.270681" lon="1.685152">
        <ele>2125.945</ele>
        <time>2018-09-22T09:40:50Z</time>
      </trkpt>
      <trkpt lat="42.270659" lon="1.685184">
        <ele>2125.079</ele>
        <time>2018-09-22T09:40:52Z</time>
      </trkpt>
      <trkpt lat="42.270632" lon="1.685191">
        <ele>2124.045</ele>
        <time>2018-09-22T09:40:54Z</time>
      </trkpt>
      <trkpt lat="42.270617" lon="1.685194">
        <ele>2123.565</ele>
        <time>2018-09-22T09:40:55Z</time>
      </trkpt>
      <trkpt lat="42.270590" lon="1.685221">
        <ele>2122.487</ele>
        <time>2018-09-22T09:40:57Z</time>
      </trkpt>
      <trkpt lat="42.270574" lon="1.685226">
        <ele>2121.879</ele>
        <time>2018-09-22T09:40:58Z</time>
      </trkpt>
      <trkpt lat="42.270542" lon="1.685223">
        <ele>2120.719</ele>
        <time>2018-09-22T09:41:00Z</time>
      </trkpt>
      <trkpt lat="42.270496" lon="1.685203">
        <ele>2119.109</ele>
        <time>2018-09-22T09:41:03Z</time>
      </trkpt>
      <trkpt lat="42.270466" lon="1.685191">
        <ele>2118.119</ele>
        <time>2018-09-22T09:41:05Z</time>
      </trkpt>
      <trkpt lat="42.270436" lon="1.685196">
        <ele>2117.008</ele>
        <time>2018-09-22T09:41:07Z</time>
      </trkpt>
      <trkpt lat="42.270407" lon="1.685209">
        <ele>2115.983</ele>
        <time>2018-09-22T09:41:09Z</time>
      </trkpt>
      <trkpt lat="42.270386" lon="1.685225">
        <ele>2115.079</ele>
        <time>2018-09-22T09:41:11Z</time>
      </trkpt>
      <trkpt lat="42.270345" lon="1.685247">
        <ele>2113.570</ele>
        <time>2018-09-22T09:41:14Z</time>
      </trkpt>
      <trkpt lat="42.270298" lon="1.685284">
        <ele>2111.674</ele>
        <time>2018-09-22T09:41:17Z</time>
      </trkpt>
      <trkpt lat="42.270264" lon="1.685286">
        <ele>2110.350</ele>
        <time>2018-09-22T09:41:19Z</time>
      </trkpt>
      <trkpt lat="42.270230" lon="1.685292">
        <ele>2109.010</ele>
        <time>2018-09-22T09:41:21Z</time>
      </trkpt>
      <trkpt lat="42.270195" lon="1.685295">
        <ele>2107.732</ele>
        <time>2018-09-22T09:41:23Z</time>
      </trkpt>
      <trkpt lat="42.270162" lon="1.685299">
        <ele>2106.514</ele>
        <time>2018-09-22T09:41:25Z</time>
      </trkpt>
      <trkpt lat="42.270132" lon="1.685335">
        <ele>2104.994</ele>
        <time>2018-09-22T09:41:27Z</time>
      </trkpt>
      <trkpt lat="42.270129" lon="1.685425">
        <ele>2103.557</ele>
        <time>2018-09-22T09:41:30Z</time>
      </trkpt>
      <trkpt lat="42.270151" lon="1.685516">
        <ele>2103.022</ele>
        <time>2018-09-22T09:41:33Z</time>
      </trkpt>
      <trkpt lat="42.270160" lon="1.685586">
        <ele>2102.408</ele>
        <time>2018-09-22T09:41:36Z</time>
      </trkpt>
      <trkpt lat="42.270151" lon="1.685652">
        <ele>2101.371</ele>
        <time>2018-09-22T09:41:39Z</time>
      </trkpt>
      <trkpt lat="42.270137" lon="1.685673">
        <ele>2100.697</ele>
        <time>2018-09-22T09:41:40Z</time>
      </trkpt>
      <trkpt lat="42.270100" lon="1.685698">
        <ele>2099.098</ele>
        <time>2018-09-22T09:41:42Z</time>
      </trkpt>
      <trkpt lat="42.270062" lon="1.685710">
        <ele>2097.542</ele>
        <time>2018-09-22T09:41:44Z</time>
      </trkpt>
      <trkpt lat="42.270024" lon="1.685723">
        <ele>2096.028</ele>
        <time>2018-09-22T09:41:46Z</time>
      </trkpt>
      <trkpt lat="42.269988" lon="1.685734">
        <ele>2094.598</ele>
        <time>2018-09-22T09:41:48Z</time>
      </trkpt>
      <trkpt lat="42.269953" lon="1.685742">
        <ele>2092.890</ele>
        <time>2018-09-22T09:41:50Z</time>
      </trkpt>
      <trkpt lat="42.269917" lon="1.685749">
        <ele>2091.152</ele>
        <time>2018-09-22T09:41:52Z</time>
      </trkpt>
      <trkpt lat="42.269882" lon="1.685755">
        <ele>2089.494</ele>
        <time>2018-09-22T09:41:54Z</time>
      </trkpt>
      <trkpt lat="42.269847" lon="1.685756">
        <ele>2087.857</ele>
        <time>2018-09-22T09:41:56Z</time>
      </trkpt>
      <trkpt lat="42.269820" lon="1.685761">
        <ele>2086.522</ele>
        <time>2018-09-22T09:41:58Z</time>
      </trkpt>
      <trkpt lat="42.269780" lon="1.685774">
        <ele>2084.508</ele>
        <time>2018-09-22T09:42:01Z</time>
      </trkpt>
      <trkpt lat="42.269766" lon="1.685785">
        <ele>2083.791</ele>
        <time>2018-09-22T09:42:02Z</time>
      </trkpt>
      <trkpt lat="42.269753" lon="1.685802">
        <ele>2082.877</ele>
        <time>2018-09-22T09:42:03Z</time>
      </trkpt>
      <trkpt lat="42.269742" lon="1.685813">
        <ele>2082.238</ele>
        <time>2018-09-22T09:42:04Z</time>
      </trkpt>
      <trkpt lat="42.269718" lon="1.685804">
        <ele>2081.262</ele>
        <time>2018-09-22T09:42:06Z</time>
      </trkpt>
      <trkpt lat="42.269710" lon="1.685799">
        <ele>2080.848</ele>
        <time>2018-09-22T09:42:07Z</time>
      </trkpt>
      <trkpt lat="42.269696" lon="1.685801">
        <ele>2080.198</ele>
        <time>2018-09-22T09:42:08Z</time>
      </trkpt>
      <trkpt lat="42.269659" lon="1.685805">
        <ele>2078.180</ele>
        <time>2018-09-22T09:42:10Z</time>
      </trkpt>
      <trkpt lat="42.269630" lon="1.685817">
        <ele>2076.552</ele>
        <time>2018-09-22T09:42:12Z</time>
      </trkpt>
      <trkpt lat="42.269608" lon="1.685852">
        <ele>2075.215</ele>
        <time>2018-09-22T09:42:14Z</time>
      </trkpt>
      <trkpt lat="42.269587" lon="1.685897">
        <ele>2074.165</ele>
        <time>2018-09-22T09:42:16Z</time>
      </trkpt>
      <trkpt lat="42.269564" lon="1.685933">
        <ele>2073.011</ele>
        <time>2018-09-22T09:42:18Z</time>
      </trkpt>
      <trkpt lat="42.269549" lon="1.685958">
        <ele>2072.208</ele>
        <time>2018-09-22T09:42:20Z</time>
      </trkpt>
      <trkpt lat="42.269540" lon="1.685953">
        <ele>2071.713</ele>
        <time>2018-09-22T09:42:21Z</time>
      </trkpt>
      <trkpt lat="42.269523" lon="1.685922">
        <ele>2070.999</ele>
        <time>2018-09-22T09:42:23Z</time>
      </trkpt>
      <trkpt lat="42.269516" lon="1.685907">
        <ele>2070.510</ele>
        <time>2018-09-22T09:42:24Z</time>
      </trkpt>
      <trkpt lat="42.269492" lon="1.685879">
        <ele>2069.334</ele>
        <time>2018-09-22T09:42:26Z</time>
      </trkpt>
      <trkpt lat="42.269439" lon="1.685842">
        <ele>2066.740</ele>
        <time>2018-09-22T09:42:29Z</time>
      </trkpt>
      <trkpt lat="42.269396" lon="1.685825">
        <ele>2064.760</ele>
        <time>2018-09-22T09:42:31Z</time>
      </trkpt>
      <trkpt lat="42.269357" lon="1.685807">
        <ele>2063.092</ele>
        <time>2018-09-22T09:42:33Z</time>
      </trkpt>
      <trkpt lat="42.269329" lon="1.685796">
        <ele>2061.814</ele>
        <time>2018-09-22T09:42:35Z</time>
      </trkpt>
      <trkpt lat="42.269296" lon="1.685794">
        <ele>2060.229</ele>
        <time>2018-09-22T09:42:37Z</time>
      </trkpt>
      <trkpt lat="42.269253" lon="1.685796">
        <ele>2058.200</ele>
        <time>2018-09-22T09:42:40Z</time>
      </trkpt>
      <trkpt lat="42.269226" lon="1.685798">
        <ele>2056.920</ele>
        <time>2018-09-22T09:42:42Z</time>
      </trkpt>
      <trkpt lat="42.269205" lon="1.685795">
        <ele>2055.908</ele>
        <time>2018-09-22T09:42:44Z</time>
      </trkpt>
      <trkpt lat="42.269189" lon="1.685812">
        <ele>2055.114</ele>
        <time>2018-09-22T09:42:46Z</time>
      </trkpt>
      <trkpt lat="42.269166" lon="1.685836">
        <ele>2053.990</ele>
        <time>2018-09-22T09:42:48Z</time>
      </trkpt>
      <trkpt lat="42.269155" lon="1.685842">
        <ele>2053.551</ele>
        <time>2018-09-22T09:42:49Z</time>
      </trkpt>
      <trkpt lat="42.269128" lon="1.685829">
        <ele>2052.395</ele>
        <time>2018-09-22T09:42:51Z</time>
      </trkpt>
      <trkpt lat="42.269103" lon="1.685822">
        <ele>2051.291</ele>
        <time>2018-09-22T09:42:53Z</time>
      </trkpt>
      <trkpt lat="42.269070" lon="1.685838">
        <ele>2049.841</ele>
        <time>2018-09-22T09:42:55Z</time>
      </trkpt>
      <trkpt lat="42.269030" lon="1.685851">
        <ele>2048.173</ele>
        <time>2018-09-22T09:42:57Z</time>
      </trkpt>
      <trkpt lat="42.268992" lon="1.685840">
        <ele>2046.465</ele>
        <time>2018-09-22T09:42:59Z</time>
      </trkpt>
      <trkpt lat="42.268955" lon="1.685823">
        <ele>2044.844</ele>
        <time>2018-09-22T09:43:01Z</time>
      </trkpt>
      <trkpt lat="42.268918" lon="1.685806">
        <ele>2043.305</ele>
        <time>2018-09-22T09:43:03Z</time>
      </trkpt>
      <trkpt lat="42.268881" lon="1.685788">
        <ele>2041.815</ele>
        <time>2018-09-22T09:43:05Z</time>
      </trkpt>
      <trkpt lat="42.268851" lon="1.685768">
        <ele>2040.708</ele>
        <time>2018-09-22T09:43:07Z</time>
      </trkpt>
      <trkpt lat="42.268817" lon="1.685754">
        <ele>2039.596</ele>
        <time>2018-09-22T09:43:09Z</time>
      </trkpt>
      <trkpt lat="42.268781" lon="1.685756">
        <ele>2038.152</ele>
        <time>2018-09-22T09:43:11Z</time>
      </trkpt>
      <trkpt lat="42.268742" lon="1.685762">
        <ele>2036.713</ele>
        <time>2018-09-22T09:43:13Z</time>
      </trkpt>
      <trkpt lat="42.268703" lon="1.685750">
        <ele>2035.287</ele>
        <time>2018-09-22T09:43:15Z</time>
      </trkpt>
      <trkpt lat="42.268664" lon="1.685751">
        <ele>2033.773</ele>
        <time>2018-09-22T09:43:17Z</time>
      </trkpt>
      <trkpt lat="42.268625" lon="1.685762">
        <ele>2032.293</ele>
        <time>2018-09-22T09:43:19Z</time>
      </trkpt>
      <trkpt lat="42.268583" lon="1.685764">
        <ele>2031.035</ele>
        <time>2018-09-22T09:43:21Z</time>
      </trkpt>
      <trkpt lat="42.268549" lon="1.685728">
        <ele>2030.047</ele>
        <time>2018-09-22T09:43:24Z</time>
      </trkpt>
      <trkpt lat="42.268539" lon="1.685708">
        <ele>2029.616</ele>
        <time>2018-09-22T09:43:26Z</time>
      </trkpt>
      <trkpt lat="42.268533" lon="1.685705">
        <ele>2029.476</ele>
        <time>2018-09-22T09:43:28Z</time>
      </trkpt>
      <trkpt lat="42.268517" lon="1.685716">
        <ele>2029.113</ele>
        <time>2018-09-22T09:43:30Z</time>
      </trkpt>
      <trkpt lat="42.268480" lon="1.685709">
        <ele>2028.008</ele>
        <time>2018-09-22T09:43:33Z</time>
      </trkpt>
      <trkpt lat="42.268452" lon="1.685685">
        <ele>2027.143</ele>
        <time>2018-09-22T09:43:36Z</time>
      </trkpt>
      <trkpt lat="42.268422" lon="1.685658">
        <ele>2025.929</ele>
        <time>2018-09-22T09:43:39Z</time>
      </trkpt>
      <trkpt lat="42.268338" lon="1.685627">
        <ele>2023.110</ele>
        <time>2018-09-22T09:43:46Z</time>
      </trkpt>
      <trkpt lat="42.268306" lon="1.685604">
        <ele>2021.894</ele>
        <time>2018-09-22T09:43:49Z</time>
      </trkpt>
      <trkpt lat="42.268277" lon="1.685574">
        <ele>2020.670</ele>
        <time>2018-09-22T09:43:52Z</time>
      </trkpt>
      <trkpt lat="42.268237" lon="1.685563">
        <ele>2019.340</ele>
        <time>2018-09-22T09:43:55Z</time>
      </trkpt>
      <trkpt lat="42.268223" lon="1.685563">
        <ele>2018.912</ele>
        <time>2018-09-22T09:43:56Z</time>
      </trkpt>
      <trkpt lat="42.268187" lon="1.685569">
        <ele>2017.974</ele>
        <time>2018-09-22T09:43:59Z</time>
      </trkpt>
      <trkpt lat="42.268111" lon="1.685563">
        <ele>2015.625</ele>
        <time>2018-09-22T09:44:05Z</time>
      </trkpt>
      <trkpt lat="42.268091" lon="1.685571">
        <ele>2015.126</ele>
        <time>2018-09-22T09:44:07Z</time>
      </trkpt>
      <trkpt lat="42.268067" lon="1.685599">
        <ele>2014.808</ele>
        <time>2018-09-22T09:44:09Z</time>
      </trkpt>
      <trkpt lat="42.268032" lon="1.685649">
        <ele>2014.408</ele>
        <time>2018-09-22T09:44:12Z</time>
      </trkpt>
      <trkpt lat="42.267974" lon="1.685690">
        <ele>2013.314</ele>
        <time>2018-09-22T09:44:16Z</time>
      </trkpt>
      <trkpt lat="42.267960" lon="1.685695">
        <ele>2013.040</ele>
        <time>2018-09-22T09:44:17Z</time>
      </trkpt>
      <trkpt lat="42.267948" lon="1.685698">
        <ele>2012.841</ele>
        <time>2018-09-22T09:44:18Z</time>
      </trkpt>
      <trkpt lat="42.267914" lon="1.685707">
        <ele>2012.025</ele>
        <time>2018-09-22T09:44:20Z</time>
      </trkpt>
      <trkpt lat="42.267840" lon="1.685777">
        <ele>2010.961</ele>
        <time>2018-09-22T09:44:24Z</time>
      </trkpt>
      <trkpt lat="42.267820" lon="1.685820">
        <ele>2010.941</ele>
        <time>2018-09-22T09:44:28Z</time>
      </trkpt>
      <trkpt lat="42.267789" lon="1.685828">
        <ele>2010.273</ele>
        <time>2018-09-22T09:44:32Z</time>
      </trkpt>
      <trkpt lat="42.267739" lon="1.685868">
        <ele>2009.285</ele>
        <time>2018-09-22T09:44:36Z</time>
      </trkpt>
      <trkpt lat="42.267683" lon="1.685975">
        <ele>2008.418</ele>
        <time>2018-09-22T09:44:42Z</time>
      </trkpt>
      <trkpt lat="42.267611" lon="1.686123">
        <ele>2007.398</ele>
        <time>2018-09-22T09:44:52Z</time>
      </trkpt>
      <trkpt lat="42.267579" lon="1.686235">
        <ele>2005.617</ele>
        <time>2018-09-22T09:44:56Z</time>
      </trkpt>
      <trkpt lat="42.267570" lon="1.686323">
        <ele>2004.608</ele>
        <time>2018-09-22T09:44:59Z</time>
      </trkpt>
      <trkpt lat="42.267558" lon="1.686455">
        <ele>2003.183</ele>
        <time>2018-09-22T09:45:03Z</time>
      </trkpt>
      <trkpt lat="42.267523" lon="1.686603">
        <ele>2001.159</ele>
        <time>2018-09-22T09:45:07Z</time>
      </trkpt>
      <trkpt lat="42.267510" lon="1.686707">
        <ele>1999.860</ele>
        <time>2018-09-22T09:45:10Z</time>
      </trkpt>
      <trkpt lat="42.267510" lon="1.686837">
        <ele>1998.454</ele>
        <time>2018-09-22T09:45:14Z</time>
      </trkpt>
      <trkpt lat="42.267519" lon="1.686926">
        <ele>1997.830</ele>
        <time>2018-09-22T09:45:17Z</time>
      </trkpt>
      <trkpt lat="42.267518" lon="1.686950">
        <ele>1997.590</ele>
        <time>2018-09-22T09:45:18Z</time>
      </trkpt>
      <trkpt lat="42.267486" lon="1.686984">
        <ele>1996.262</ele>
        <time>2018-09-22T09:45:20Z</time>
      </trkpt>
      <trkpt lat="42.267446" lon="1.687011">
        <ele>1995.084</ele>
        <time>2018-09-22T09:45:22Z</time>
      </trkpt>
      <trkpt lat="42.267402" lon="1.687038">
        <ele>1993.787</ele>
        <time>2018-09-22T09:45:24Z</time>
      </trkpt>
      <trkpt lat="42.267339" lon="1.687081">
        <ele>1991.742</ele>
        <time>2018-09-22T09:45:27Z</time>
      </trkpt>
      <trkpt lat="42.267297" lon="1.687115">
        <ele>1990.326</ele>
        <time>2018-09-22T09:45:29Z</time>
      </trkpt>
      <trkpt lat="42.267260" lon="1.687148">
        <ele>1988.908</ele>
        <time>2018-09-22T09:45:31Z</time>
      </trkpt>
      <trkpt lat="42.267229" lon="1.687192">
        <ele>1987.640</ele>
        <time>2018-09-22T09:45:33Z</time>
      </trkpt>
      <trkpt lat="42.267184" lon="1.687265">
        <ele>1985.776</ele>
        <time>2018-09-22T09:45:36Z</time>
      </trkpt>
      <trkpt lat="42.267155" lon="1.687313">
        <ele>1984.597</ele>
        <time>2018-09-22T09:45:38Z</time>
      </trkpt>
      <trkpt lat="42.267130" lon="1.687362">
        <ele>1983.321</ele>
        <time>2018-09-22T09:45:40Z</time>
      </trkpt>
      <trkpt lat="42.267107" lon="1.687408">
        <ele>1982.037</ele>
        <time>2018-09-22T09:45:42Z</time>
      </trkpt>
      <trkpt lat="42.267085" lon="1.687458">
        <ele>1980.797</ele>
        <time>2018-09-22T09:45:44Z</time>
      </trkpt>
      <trkpt lat="42.267059" lon="1.687510">
        <ele>1979.159</ele>
        <time>2018-09-22T09:45:46Z</time>
      </trkpt>
      <trkpt lat="42.267035" lon="1.687561">
        <ele>1977.841</ele>
        <time>2018-09-22T09:45:48Z</time>
      </trkpt>
      <trkpt lat="42.267009" lon="1.687610">
        <ele>1976.368</ele>
        <time>2018-09-22T09:45:50Z</time>
      </trkpt>
      <trkpt lat="42.266987" lon="1.687664">
        <ele>1974.942</ele>
        <time>2018-09-22T09:45:52Z</time>
      </trkpt>
      <trkpt lat="42.266963" lon="1.687724">
        <ele>1973.326</ele>
        <time>2018-09-22T09:45:54Z</time>
      </trkpt>
      <trkpt lat="42.266934" lon="1.687769">
        <ele>1971.908</ele>
        <time>2018-09-22T09:45:56Z</time>
      </trkpt>
      <trkpt lat="42.266902" lon="1.687807">
        <ele>1970.788</ele>
        <time>2018-09-22T09:45:58Z</time>
      </trkpt>
      <trkpt lat="42.266864" lon="1.687843">
        <ele>1969.454</ele>
        <time>2018-09-22T09:46:00Z</time>
      </trkpt>
      <trkpt lat="42.266830" lon="1.687885">
        <ele>1968.015</ele>
        <time>2018-09-22T09:46:02Z</time>
      </trkpt>
      <trkpt lat="42.266801" lon="1.687925">
        <ele>1966.789</ele>
        <time>2018-09-22T09:46:04Z</time>
      </trkpt>
      <trkpt lat="42.266762" lon="1.687948">
        <ele>1965.425</ele>
        <time>2018-09-22T09:46:06Z</time>
      </trkpt>
      <trkpt lat="42.266720" lon="1.687957">
        <ele>1964.155</ele>
        <time>2018-09-22T09:46:08Z</time>
      </trkpt>
      <trkpt lat="42.266678" lon="1.687969">
        <ele>1962.857</ele>
        <time>2018-09-22T09:46:10Z</time>
      </trkpt>
      <trkpt lat="42.266635" lon="1.687983">
        <ele>1961.479</ele>
        <time>2018-09-22T09:46:12Z</time>
      </trkpt>
      <trkpt lat="42.266595" lon="1.687999">
        <ele>1960.268</ele>
        <time>2018-09-22T09:46:14Z</time>
      </trkpt>
      <trkpt lat="42.266554" lon="1.688012">
        <ele>1958.942</ele>
        <time>2018-09-22T09:46:16Z</time>
      </trkpt>
      <trkpt lat="42.266514" lon="1.688032">
        <ele>1957.526</ele>
        <time>2018-09-22T09:46:18Z</time>
      </trkpt>
      <trkpt lat="42.266468" lon="1.688054">
        <ele>1956.008</ele>
        <time>2018-09-22T09:46:20Z</time>
      </trkpt>
      <trkpt lat="42.266422" lon="1.688075">
        <ele>1954.428</ele>
        <time>2018-09-22T09:46:22Z</time>
      </trkpt>
      <trkpt lat="42.266331" lon="1.688125">
        <ele>1951.934</ele>
        <time>2018-09-22T09:46:26Z</time>
      </trkpt>
      <trkpt lat="42.266268" lon="1.688170">
        <ele>1950.325</ele>
        <time>2018-09-22T09:46:29Z</time>
      </trkpt>
      <trkpt lat="42.266224" lon="1.688195">
        <ele>1949.449</ele>
        <time>2018-09-22T09:46:31Z</time>
      </trkpt>
      <trkpt lat="42.266177" lon="1.688223">
        <ele>1948.365</ele>
        <time>2018-09-22T09:46:33Z</time>
      </trkpt>
      <trkpt lat="42.266113" lon="1.688267">
        <ele>1946.925</ele>
        <time>2018-09-22T09:46:36Z</time>
      </trkpt>
      <trkpt lat="42.266073" lon="1.688277">
        <ele>1946.177</ele>
        <time>2018-09-22T09:46:38Z</time>
      </trkpt>
      <trkpt lat="42.266020" lon="1.688275">
        <ele>1945.189</ele>
        <time>2018-09-22T09:46:41Z</time>
      </trkpt>
      <trkpt lat="42.265985" lon="1.688303">
        <ele>1944.146</ele>
        <time>2018-09-22T09:46:43Z</time>
      </trkpt>
      <trkpt lat="42.265947" lon="1.688337">
        <ele>1942.988</ele>
        <time>2018-09-22T09:46:45Z</time>
      </trkpt>
      <trkpt lat="42.265916" lon="1.688382">
        <ele>1941.816</ele>
        <time>2018-09-22T09:46:47Z</time>
      </trkpt>
      <trkpt lat="42.265885" lon="1.688437">
        <ele>1940.608</ele>
        <time>2018-09-22T09:46:49Z</time>
      </trkpt>
      <trkpt lat="42.265851" lon="1.688494">
        <ele>1939.586</ele>
        <time>2018-09-22T09:46:51Z</time>
      </trkpt>
      <trkpt lat="42.265817" lon="1.688552">
        <ele>1938.512</ele>
        <time>2018-09-22T09:46:53Z</time>
      </trkpt>
      <trkpt lat="42.265784" lon="1.688609">
        <ele>1937.843</ele>
        <time>2018-09-22T09:46:55Z</time>
      </trkpt>
      <trkpt lat="42.265736" lon="1.688690">
        <ele>1936.517</ele>
        <time>2018-09-22T09:46:58Z</time>
      </trkpt>
      <trkpt lat="42.265692" lon="1.688789">
        <ele>1934.963</ele>
        <time>2018-09-22T09:47:01Z</time>
      </trkpt>
      <trkpt lat="42.265626" lon="1.688918">
        <ele>1932.883</ele>
        <time>2018-09-22T09:47:05Z</time>
      </trkpt>
      <trkpt lat="42.265583" lon="1.689013">
        <ele>1931.365</ele>
        <time>2018-09-22T09:47:08Z</time>
      </trkpt>
      <trkpt lat="42.265537" lon="1.689096">
        <ele>1929.757</ele>
        <time>2018-09-22T09:47:11Z</time>
      </trkpt>
      <trkpt lat="42.265490" lon="1.689160">
        <ele>1928.119</ele>
        <time>2018-09-22T09:47:14Z</time>
      </trkpt>
      <trkpt lat="42.265470" lon="1.689172">
        <ele>1927.709</ele>
        <time>2018-09-22T09:47:15Z</time>
      </trkpt>
      <trkpt lat="42.265447" lon="1.689178">
        <ele>1927.419</ele>
        <time>2018-09-22T09:47:16Z</time>
      </trkpt>
      <trkpt lat="42.265398" lon="1.689170">
        <ele>1926.708</ele>
        <time>2018-09-22T09:47:18Z</time>
      </trkpt>
      <trkpt lat="42.265343" lon="1.689175">
        <ele>1926.033</ele>
        <time>2018-09-22T09:47:21Z</time>
      </trkpt>
      <trkpt lat="42.265307" lon="1.689197">
        <ele>1925.779</ele>
        <time>2018-09-22T09:47:23Z</time>
      </trkpt>
      <trkpt lat="42.265283" lon="1.689195">
        <ele>1925.480</ele>
        <time>2018-09-22T09:47:24Z</time>
      </trkpt>
      <trkpt lat="42.265209" lon="1.689164">
        <ele>1923.814</ele>
        <time>2018-09-22T09:47:27Z</time>
      </trkpt>
      <trkpt lat="42.265154" lon="1.689162">
        <ele>1922.880</ele>
        <time>2018-09-22T09:47:29Z</time>
      </trkpt>
      <trkpt lat="42.265049" lon="1.689171">
        <ele>1921.020</ele>
        <time>2018-09-22T09:47:33Z</time>
      </trkpt>
      <trkpt lat="42.264997" lon="1.689165">
        <ele>1919.982</ele>
        <time>2018-09-22T09:47:35Z</time>
      </trkpt>
      <trkpt lat="42.264978" lon="1.689150">
        <ele>1919.694</ele>
        <time>2018-09-22T09:47:36Z</time>
      </trkpt>
      <trkpt lat="42.264939" lon="1.689084">
        <ele>1919.364</ele>
        <time>2018-09-22T09:47:39Z</time>
      </trkpt>
      <trkpt lat="42.264906" lon="1.689037">
        <ele>1918.806</ele>
        <time>2018-09-22T09:47:42Z</time>
      </trkpt>
      <trkpt lat="42.264874" lon="1.689010">
        <ele>1918.016</ele>
        <time>2018-09-22T09:47:44Z</time>
      </trkpt>
      <trkpt lat="42.264841" lon="1.688996">
        <ele>1917.008</ele>
        <time>2018-09-22T09:47:46Z</time>
      </trkpt>
      <trkpt lat="42.264805" lon="1.688996">
        <ele>1915.868</ele>
        <time>2018-09-22T09:47:48Z</time>
      </trkpt>
      <trkpt lat="42.264771" lon="1.688983">
        <ele>1914.614</ele>
        <time>2018-09-22T09:47:50Z</time>
      </trkpt>
      <trkpt lat="42.264738" lon="1.688974">
        <ele>1913.545</ele>
        <time>2018-09-22T09:47:52Z</time>
      </trkpt>
      <trkpt lat="42.264708" lon="1.688974">
        <ele>1912.279</ele>
        <time>2018-09-22T09:47:54Z</time>
      </trkpt>
      <trkpt lat="42.264684" lon="1.688968">
        <ele>1911.025</ele>
        <time>2018-09-22T09:47:56Z</time>
      </trkpt>
      <trkpt lat="42.264673" lon="1.688961">
        <ele>1910.475</ele>
        <time>2018-09-22T09:47:57Z</time>
      </trkpt>
      <trkpt lat="42.264650" lon="1.688957">
        <ele>1909.337</ele>
        <time>2018-09-22T09:47:59Z</time>
      </trkpt>
      <trkpt lat="42.264627" lon="1.688953">
        <ele>1908.059</ele>
        <time>2018-09-22T09:48:01Z</time>
      </trkpt>
      <trkpt lat="42.264599" lon="1.688951">
        <ele>1906.613</ele>
        <time>2018-09-22T09:48:03Z</time>
      </trkpt>
      <trkpt lat="42.264572" lon="1.688934">
        <ele>1905.143</ele>
        <time>2018-09-22T09:48:05Z</time>
      </trkpt>
      <trkpt lat="42.264542" lon="1.688905">
        <ele>1903.307</ele>
        <time>2018-09-22T09:48:07Z</time>
      </trkpt>
      <trkpt lat="42.264510" lon="1.688888">
        <ele>1901.508</ele>
        <time>2018-09-22T09:48:09Z</time>
      </trkpt>
      <trkpt lat="42.264473" lon="1.688880">
        <ele>1899.823</ele>
        <time>2018-09-22T09:48:11Z</time>
      </trkpt>
      <trkpt lat="42.264425" lon="1.688864">
        <ele>1897.939</ele>
        <time>2018-09-22T09:48:14Z</time>
      </trkpt>
      <trkpt lat="42.264394" lon="1.688868">
        <ele>1896.780</ele>
        <time>2018-09-22T09:48:16Z</time>
      </trkpt>
      <trkpt lat="42.264369" lon="1.688907">
        <ele>1895.494</ele>
        <time>2018-09-22T09:48:18Z</time>
      </trkpt>
      <trkpt lat="42.264352" lon="1.688928">
        <ele>1895.080</ele>
        <time>2018-09-22T09:48:19Z</time>
      </trkpt>
      <trkpt lat="42.264333" lon="1.688944">
        <ele>1894.580</ele>
        <time>2018-09-22T09:48:20Z</time>
      </trkpt>
      <trkpt lat="42.264280" lon="1.688989">
        <ele>1893.142</ele>
        <time>2018-09-22T09:48:23Z</time>
      </trkpt>
      <trkpt lat="42.264239" lon="1.689016">
        <ele>1891.974</ele>
        <time>2018-09-22T09:48:25Z</time>
      </trkpt>
      <trkpt lat="42.264201" lon="1.689030">
        <ele>1890.784</ele>
        <time>2018-09-22T09:48:27Z</time>
      </trkpt>
      <trkpt lat="42.264185" lon="1.689045">
        <ele>1890.307</ele>
        <time>2018-09-22T09:48:28Z</time>
      </trkpt>
      <trkpt lat="42.264126" lon="1.689114">
        <ele>1888.517</ele>
        <time>2018-09-22T09:48:32Z</time>
      </trkpt>
      <trkpt lat="42.264093" lon="1.689152">
        <ele>1887.308</ele>
        <time>2018-09-22T09:48:35Z</time>
      </trkpt>
      <trkpt lat="42.264068" lon="1.689191">
        <ele>1886.620</ele>
        <time>2018-09-22T09:48:38Z</time>
      </trkpt>
      <trkpt lat="42.264048" lon="1.689220">
        <ele>1886.086</ele>
        <time>2018-09-22T09:48:42Z</time>
      </trkpt>
      <trkpt lat="42.264030" lon="1.689251">
        <ele>1885.687</ele>
        <time>2018-09-22T09:48:44Z</time>
      </trkpt>
      <trkpt lat="42.264004" lon="1.689306">
        <ele>1885.231</ele>
        <time>2018-09-22T09:48:46Z</time>
      </trkpt>
      <trkpt lat="42.263917" lon="1.689447">
        <ele>1884.087</ele>
        <time>2018-09-22T09:48:51Z</time>
      </trkpt>
      <trkpt lat="42.263760" lon="1.689569">
        <ele>1881.027</ele>
        <time>2018-09-22T09:48:58Z</time>
      </trkpt>
      <trkpt lat="42.263699" lon="1.689638">
        <ele>1880.369</ele>
        <time>2018-09-22T09:49:01Z</time>
      </trkpt>
      <trkpt lat="42.263648" lon="1.689710">
        <ele>1879.891</ele>
        <time>2018-09-22T09:49:04Z</time>
      </trkpt>
      <trkpt lat="42.263607" lon="1.689789">
        <ele>1878.829</ele>
        <time>2018-09-22T09:49:07Z</time>
      </trkpt>
      <trkpt lat="42.263554" lon="1.689878">
        <ele>1877.200</ele>
        <time>2018-09-22T09:49:11Z</time>
      </trkpt>
      <trkpt lat="42.263508" lon="1.689940">
        <ele>1876.120</ele>
        <time>2018-09-22T09:49:14Z</time>
      </trkpt>
      <trkpt lat="42.263432" lon="1.690032">
        <ele>1874.608</ele>
        <time>2018-09-22T09:49:18Z</time>
      </trkpt>
      <trkpt lat="42.263347" lon="1.690112">
        <ele>1873.164</ele>
        <time>2018-09-22T09:49:22Z</time>
      </trkpt>
      <trkpt lat="42.263268" lon="1.690140">
        <ele>1872.640</ele>
        <time>2018-09-22T09:49:25Z</time>
      </trkpt>
      <trkpt lat="42.263144" lon="1.690171">
        <ele>1872.121</ele>
        <time>2018-09-22T09:49:30Z</time>
      </trkpt>
      <trkpt lat="42.263054" lon="1.690117">
        <ele>1871.445</ele>
        <time>2018-09-22T09:49:36Z</time>
      </trkpt>
      <trkpt lat="42.263041" lon="1.690082">
        <ele>1871.431</ele>
        <time>2018-09-22T09:49:38Z</time>
      </trkpt>
      <trkpt lat="42.263035" lon="1.690062">
        <ele>1871.521</ele>
        <time>2018-09-22T09:49:39Z</time>
      </trkpt>
      <trkpt lat="42.263027" lon="1.690024">
        <ele>1871.463</ele>
        <time>2018-09-22T09:49:41Z</time>
      </trkpt>
      <trkpt lat="42.263022" lon="1.690003">
        <ele>1871.475</ele>
        <time>2018-09-22T09:49:42Z</time>
      </trkpt>
      <trkpt lat="42.262964" lon="1.689764">
        <ele>1870.044</ele>
        <time>2018-09-22T09:49:55Z</time>
      </trkpt>
      <trkpt lat="42.262946" lon="1.689676">
        <ele>1869.305</ele>
        <time>2018-09-22T09:50:00Z</time>
      </trkpt>
      <trkpt lat="42.262936" lon="1.689618">
        <ele>1868.815</ele>
        <time>2018-09-22T09:50:03Z</time>
      </trkpt>
      <trkpt lat="42.262928" lon="1.689588">
        <ele>1868.508</ele>
        <time>2018-09-22T09:50:04Z</time>
      </trkpt>
      <trkpt lat="42.262888" lon="1.689508">
        <ele>1868.386</ele>
        <time>2018-09-22T09:50:09Z</time>
      </trkpt>
      <trkpt lat="42.262786" lon="1.689353">
        <ele>1868.162</ele>
        <time>2018-09-22T09:50:21Z</time>
      </trkpt>
      <trkpt lat="42.262769" lon="1.689312">
        <ele>1867.843</ele>
        <time>2018-09-22T09:50:23Z</time>
      </trkpt>
      <trkpt lat="42.262750" lon="1.689275">
        <ele>1867.697</ele>
        <time>2018-09-22T09:50:25Z</time>
      </trkpt>
      <trkpt lat="42.262738" lon="1.689236">
        <ele>1867.283</ele>
        <time>2018-09-22T09:50:27Z</time>
      </trkpt>
      <trkpt lat="42.262728" lon="1.689196">
        <ele>1866.733</ele>
        <time>2018-09-22T09:50:29Z</time>
      </trkpt>
      <trkpt lat="42.262646" lon="1.688989">
        <ele>1865.135</ele>
        <time>2018-09-22T09:50:42Z</time>
      </trkpt>
      <trkpt lat="42.262579" lon="1.688826">
        <ele>1863.887</ele>
        <time>2018-09-22T09:50:52Z</time>
      </trkpt>
      <trkpt lat="42.262469" lon="1.688619">
        <ele>1863.172</ele>
        <time>2018-09-22T09:51:05Z</time>
      </trkpt>
      <trkpt lat="42.262432" lon="1.688540">
        <ele>1862.513</ele>
        <time>2018-09-22T09:51:09Z</time>
      </trkpt>
      <trkpt lat="42.262300" lon="1.688362">
        <ele>1862.414</ele>
        <time>2018-09-22T09:51:21Z</time>
      </trkpt>
      <trkpt lat="42.262268" lon="1.688303">
        <ele>1862.008</ele>
        <time>2018-09-22T09:51:25Z</time>
      </trkpt>
      <trkpt lat="42.262256" lon="1.688250">
        <ele>1861.249</ele>
        <time>2018-09-22T09:51:29Z</time>
      </trkpt>
      <trkpt lat="42.262240" lon="1.688229">
        <ele>1861.245</ele>
        <time>2018-09-22T09:51:31Z</time>
      </trkpt>
      <trkpt lat="42.262228" lon="1.688205">
        <ele>1861.076</ele>
        <time>2018-09-22T09:51:33Z</time>
      </trkpt>
      <trkpt lat="42.262208" lon="1.688154">
        <ele>1860.580</ele>
        <time>2018-09-22T09:51:36Z</time>
      </trkpt>
      <trkpt lat="42.262194" lon="1.688127">
        <ele>1860.386</ele>
        <time>2018-09-22T09:51:38Z</time>
      </trkpt>
      <trkpt lat="42.262164" lon="1.688078">
        <ele>1860.146</ele>
        <time>2018-09-22T09:51:41Z</time>
      </trkpt>
      <trkpt lat="42.262068" lon="1.687876">
        <ele>1859.248</ele>
        <time>2018-09-22T09:51:51Z</time>
      </trkpt>
      <trkpt lat="42.262025" lon="1.687790">
        <ele>1858.940</ele>
        <time>2018-09-22T09:51:56Z</time>
      </trkpt>
      <trkpt lat="42.261992" lon="1.687703">
        <ele>1858.213</ele>
        <time>2018-09-22T09:52:01Z</time>
      </trkpt>
      <trkpt lat="42.261872" lon="1.687517">
        <ele>1858.443</ele>
        <time>2018-09-22T09:52:11Z</time>
      </trkpt>
      <trkpt lat="42.261846" lon="1.687433">
        <ele>1857.507</ele>
        <time>2018-09-22T09:52:15Z</time>
      </trkpt>
      <trkpt lat="42.261749" lon="1.687220">
        <ele>1855.808</ele>
        <time>2018-09-22T09:52:31Z</time>
      </trkpt>
      <trkpt lat="42.261714" lon="1.687139">
        <ele>1855.063</ele>
        <time>2018-09-22T09:52:35Z</time>
      </trkpt>
      <trkpt lat="42.261574" lon="1.686963">
        <ele>1854.789</ele>
        <time>2018-09-22T09:52:47Z</time>
      </trkpt>
      <trkpt lat="42.261532" lon="1.686915">
        <ele>1854.840</ele>
        <time>2018-09-22T09:52:51Z</time>
      </trkpt>
      <trkpt lat="42.261454" lon="1.686833">
        <ele>1855.054</ele>
        <time>2018-09-22T09:52:59Z</time>
      </trkpt>
      <trkpt lat="42.261327" lon="1.686625">
        <ele>1853.810</ele>
        <time>2018-09-22T09:53:10Z</time>
      </trkpt>
      <trkpt lat="42.261308" lon="1.686591">
        <ele>1853.430</ele>
        <time>2018-09-22T09:53:12Z</time>
      </trkpt>
      <trkpt lat="42.261260" lon="1.686512">
        <ele>1852.532</ele>
        <time>2018-09-22T09:53:16Z</time>
      </trkpt>
      <trkpt lat="42.261230" lon="1.686456">
        <ele>1851.564</ele>
        <time>2018-09-22T09:53:18Z</time>
      </trkpt>
      <trkpt lat="42.261156" lon="1.686343">
        <ele>1849.895</ele>
        <time>2018-09-22T09:53:22Z</time>
      </trkpt>
      <trkpt lat="42.261121" lon="1.686298">
        <ele>1849.549</ele>
        <time>2018-09-22T09:53:24Z</time>
      </trkpt>
      <trkpt lat="42.261040" lon="1.686211">
        <ele>1848.423</ele>
        <time>2018-09-22T09:53:28Z</time>
      </trkpt>
      <trkpt lat="42.260958" lon="1.686128">
        <ele>1847.608</ele>
        <time>2018-09-22T09:53:32Z</time>
      </trkpt>
      <trkpt lat="42.260939" lon="1.686107">
        <ele>1847.341</ele>
        <time>2018-09-22T09:53:33Z</time>
      </trkpt>
      <trkpt lat="42.260878" lon="1.686039">
        <ele>1847.027</ele>
        <time>2018-09-22T09:53:36Z</time>
      </trkpt>
      <trkpt lat="42.260857" lon="1.686015">
        <ele>1846.958</ele>
        <time>2018-09-22T09:53:37Z</time>
      </trkpt>
      <trkpt lat="42.260762" lon="1.685889">
        <ele>1845.122</ele>
        <time>2018-09-22T09:53:42Z</time>
      </trkpt>
      <trkpt lat="42.260725" lon="1.685843">
        <ele>1844.568</ele>
        <time>2018-09-22T09:53:44Z</time>
      </trkpt>
      <trkpt lat="42.260652" lon="1.685743">
        <ele>1843.418</ele>
        <time>2018-09-22T09:53:48Z</time>
      </trkpt>
      <trkpt lat="42.260610" lon="1.685626">
        <ele>1842.210</ele>
        <time>2018-09-22T09:53:52Z</time>
      </trkpt>
      <trkpt lat="42.260638" lon="1.685577">
        <ele>1841.312</ele>
        <time>2018-09-22T09:53:54Z</time>
      </trkpt>
      <trkpt lat="42.260697" lon="1.685576">
        <ele>1840.781</ele>
        <time>2018-09-22T09:53:56Z</time>
      </trkpt>
      <trkpt lat="42.260750" lon="1.685582">
        <ele>1840.361</ele>
        <time>2018-09-22T09:53:58Z</time>
      </trkpt>
      <trkpt lat="42.260828" lon="1.685582">
        <ele>1839.517</ele>
        <time>2018-09-22T09:54:01Z</time>
      </trkpt>
      <trkpt lat="42.260934" lon="1.685603">
        <ele>1838.108</ele>
        <time>2018-09-22T09:54:05Z</time>
      </trkpt>
      <trkpt lat="42.261084" lon="1.685661">
        <ele>1836.730</ele>
        <time>2018-09-22T09:54:11Z</time>
      </trkpt>
      <trkpt lat="42.261211" lon="1.685692">
        <ele>1834.736</ele>
        <time>2018-09-22T09:54:16Z</time>
      </trkpt>
      <trkpt lat="42.261280" lon="1.685666">
        <ele>1832.737</ele>
        <time>2018-09-22T09:54:19Z</time>
      </trkpt>
      <trkpt lat="42.261321" lon="1.685656">
        <ele>1831.651</ele>
        <time>2018-09-22T09:54:21Z</time>
      </trkpt>
      <trkpt lat="42.261358" lon="1.685632">
        <ele>1830.317</ele>
        <time>2018-09-22T09:54:23Z</time>
      </trkpt>
      <trkpt lat="42.261403" lon="1.685585">
        <ele>1828.427</ele>
        <time>2018-09-22T09:54:26Z</time>
      </trkpt>
      <trkpt lat="42.261416" lon="1.685569">
        <ele>1827.969</ele>
        <time>2018-09-22T09:54:28Z</time>
      </trkpt>
      <trkpt lat="42.261409" lon="1.685548">
        <ele>1827.661</ele>
        <time>2018-09-22T09:54:30Z</time>
      </trkpt>
      <trkpt lat="42.261395" lon="1.685503">
        <ele>1827.191</ele>
        <time>2018-09-22T09:54:32Z</time>
      </trkpt>
      <trkpt lat="42.261355" lon="1.685370">
        <ele>1825.981</ele>
        <time>2018-09-22T09:54:36Z</time>
      </trkpt>
      <trkpt lat="42.261295" lon="1.685209">
        <ele>1824.719</ele>
        <time>2018-09-22T09:54:41Z</time>
      </trkpt>
      <trkpt lat="42.261256" lon="1.685071">
        <ele>1823.408</ele>
        <time>2018-09-22T09:54:45Z</time>
      </trkpt>
      <trkpt lat="42.261210" lon="1.684927">
        <ele>1822.191</ele>
        <time>2018-09-22T09:54:49Z</time>
      </trkpt>
      <trkpt lat="42.261169" lon="1.684778">
        <ele>1820.747</ele>
        <time>2018-09-22T09:54:53Z</time>
      </trkpt>
      <trkpt lat="42.261144" lon="1.684664">
        <ele>1819.768</ele>
        <time>2018-09-22T09:54:56Z</time>
      </trkpt>
      <trkpt lat="42.261126" lon="1.684551">
        <ele>1818.892</ele>
        <time>2018-09-22T09:54:59Z</time>
      </trkpt>
      <trkpt lat="42.261104" lon="1.684408">
        <ele>1817.918</ele>
        <time>2018-09-22T09:55:03Z</time>
      </trkpt>
      <trkpt lat="42.261110" lon="1.684376">
        <ele>1817.568</ele>
        <time>2018-09-22T09:55:04Z</time>
      </trkpt>
      <trkpt lat="42.261106" lon="1.684307">
        <ele>1817.160</ele>
        <time>2018-09-22T09:55:07Z</time>
      </trkpt>
      <trkpt lat="42.261043" lon="1.684089">
        <ele>1817.172</ele>
        <time>2018-09-22T09:55:16Z</time>
      </trkpt>
      <trkpt lat="42.261014" lon="1.683832">
        <ele>1815.643</ele>
        <time>2018-09-22T09:55:23Z</time>
      </trkpt>
      <trkpt lat="42.260991" lon="1.683616">
        <ele>1814.064</ele>
        <time>2018-09-22T09:55:29Z</time>
      </trkpt>
      <trkpt lat="42.260902" lon="1.683380">
        <ele>1812.010</ele>
        <time>2018-09-22T09:55:36Z</time>
      </trkpt>
      <trkpt lat="42.260878" lon="1.683226">
        <ele>1810.008</ele>
        <time>2018-09-22T09:55:40Z</time>
      </trkpt>
      <trkpt lat="42.260864" lon="1.683121">
        <ele>1808.476</ele>
        <time>2018-09-22T09:55:43Z</time>
      </trkpt>
      <trkpt lat="42.260833" lon="1.683045">
        <ele>1807.782</ele>
        <time>2018-09-22T09:55:46Z</time>
      </trkpt>
      <trkpt lat="42.260830" lon="1.683015">
        <ele>1807.083</ele>
        <time>2018-09-22T09:55:47Z</time>
      </trkpt>
      <trkpt lat="42.260812" lon="1.682961">
        <ele>1805.927</ele>
        <time>2018-09-22T09:55:49Z</time>
      </trkpt>
      <trkpt lat="42.260756" lon="1.682879">
        <ele>1805.173</ele>
        <time>2018-09-22T09:55:53Z</time>
      </trkpt>
      <trkpt lat="42.260731" lon="1.682867">
        <ele>1805.333</ele>
        <time>2018-09-22T09:55:55Z</time>
      </trkpt>
      <trkpt lat="42.260710" lon="1.682846">
        <ele>1805.395</ele>
        <time>2018-09-22T09:55:57Z</time>
      </trkpt>
      <trkpt lat="42.260680" lon="1.682834">
        <ele>1805.897</ele>
        <time>2018-09-22T09:55:59Z</time>
      </trkpt>
      <trkpt lat="42.260673" lon="1.682815">
        <ele>1805.673</ele>
        <time>2018-09-22T09:56:00Z</time>
      </trkpt>
      <trkpt lat="42.260674" lon="1.682787">
        <ele>1805.185</ele>
        <time>2018-09-22T09:56:01Z</time>
      </trkpt>
      <trkpt lat="42.260685" lon="1.682663">
        <ele>1802.513</ele>
        <time>2018-09-22T09:56:05Z</time>
      </trkpt>
      <trkpt lat="42.260617" lon="1.682416">
        <ele>1800.408</ele>
        <time>2018-09-22T09:56:13Z</time>
      </trkpt>
      <trkpt lat="42.260590" lon="1.682354">
        <ele>1800.339</ele>
        <time>2018-09-22T09:56:15Z</time>
      </trkpt>
      <trkpt lat="42.260551" lon="1.682225">
        <ele>1799.185</ele>
        <time>2018-09-22T09:56:19Z</time>
      </trkpt>
      <trkpt lat="42.260528" lon="1.682114">
        <ele>1797.796</ele>
        <time>2018-09-22T09:56:22Z</time>
      </trkpt>
      <trkpt lat="42.260489" lon="1.681975">
        <ele>1796.070</ele>
        <time>2018-09-22T09:56:26Z</time>
      </trkpt>
      <trkpt lat="42.260426" lon="1.681841">
        <ele>1794.956</ele>
        <time>2018-09-22T09:56:30Z</time>
      </trkpt>
      <trkpt lat="42.260344" lon="1.681676">
        <ele>1793.746</ele>
        <time>2018-09-22T09:56:35Z</time>
      </trkpt>
      <trkpt lat="42.260306" lon="1.681574">
        <ele>1792.468</ele>
        <time>2018-09-22T09:56:38Z</time>
      </trkpt>
      <trkpt lat="42.260248" lon="1.681448">
        <ele>1791.150</ele>
        <time>2018-09-22T09:56:42Z</time>
      </trkpt>
      <trkpt lat="42.260195" lon="1.681368">
        <ele>1790.815</ele>
        <time>2018-09-22T09:56:45Z</time>
      </trkpt>
      <trkpt lat="42.260131" lon="1.681254">
        <ele>1789.865</ele>
        <time>2018-09-22T09:56:49Z</time>
      </trkpt>
      <trkpt lat="42.260095" lon="1.681154">
        <ele>1788.311</ele>
        <time>2018-09-22T09:56:52Z</time>
      </trkpt>
      <trkpt lat="42.260045" lon="1.681068">
        <ele>1787.408</ele>
        <time>2018-09-22T09:56:55Z</time>
      </trkpt>
      <trkpt lat="42.259970" lon="1.680956">
        <ele>1786.093</ele>
        <time>2018-09-22T09:56:59Z</time>
      </trkpt>
      <trkpt lat="42.259891" lon="1.680845">
        <ele>1783.959</ele>
        <time>2018-09-22T09:57:03Z</time>
      </trkpt>
      <trkpt lat="42.259803" lon="1.680752">
        <ele>1782.230</ele>
        <time>2018-09-22T09:57:07Z</time>
      </trkpt>
      <trkpt lat="42.259729" lon="1.680669">
        <ele>1780.584</ele>
        <time>2018-09-22T09:57:11Z</time>
      </trkpt>
      <trkpt lat="42.259686" lon="1.680600">
        <ele>1778.410</ele>
        <time>2018-09-22T09:57:14Z</time>
      </trkpt>
      <trkpt lat="42.259649" lon="1.680585">
        <ele>1777.980</ele>
        <time>2018-09-22T09:57:16Z</time>
      </trkpt>
      <trkpt lat="42.259605" lon="1.680587">
        <ele>1778.082</ele>
        <time>2018-09-22T09:57:18Z</time>
      </trkpt>
      <trkpt lat="42.259563" lon="1.680606">
        <ele>1778.624</ele>
        <time>2018-09-22T09:57:20Z</time>
      </trkpt>
      <trkpt lat="42.259511" lon="1.680607">
        <ele>1778.671</ele>
        <time>2018-09-22T09:57:22Z</time>
      </trkpt>
      <trkpt lat="42.259467" lon="1.680576">
        <ele>1777.641</ele>
        <time>2018-09-22T09:57:24Z</time>
      </trkpt>
      <trkpt lat="42.259468" lon="1.680494">
        <ele>1775.115</ele>
        <time>2018-09-22T09:57:27Z</time>
      </trkpt>
      <trkpt lat="42.259358" lon="1.680374">
        <ele>1774.808</ele>
        <time>2018-09-22T09:57:33Z</time>
      </trkpt>
      <trkpt lat="42.259304" lon="1.680271">
        <ele>1774.999</ele>
        <time>2018-09-22T09:57:37Z</time>
      </trkpt>
      <trkpt lat="42.259301" lon="1.680178">
        <ele>1772.855</ele>
        <time>2018-09-22T09:57:40Z</time>
      </trkpt>
      <trkpt lat="42.259291" lon="1.680120">
        <ele>1771.756</ele>
        <time>2018-09-22T09:57:42Z</time>
      </trkpt>
      <trkpt lat="42.259255" lon="1.680055">
        <ele>1770.930</ele>
        <time>2018-09-22T09:57:45Z</time>
      </trkpt>
      <trkpt lat="42.259241" lon="1.680044">
        <ele>1770.996</ele>
        <time>2018-09-22T09:57:46Z</time>
      </trkpt>
      <trkpt lat="42.259225" lon="1.680040">
        <ele>1771.186</ele>
        <time>2018-09-22T09:57:47Z</time>
      </trkpt>
      <trkpt lat="42.259067" lon="1.680037">
        <ele>1776.288</ele>
        <time>2018-09-22T09:57:54Z</time>
      </trkpt>
      <trkpt lat="42.259060" lon="1.680017">
        <ele>1776.020</ele>
        <time>2018-09-22T09:57:55Z</time>
      </trkpt>
      <trkpt lat="42.259107" lon="1.679769">
        <ele>1769.695</ele>
        <time>2018-09-22T09:58:04Z</time>
      </trkpt>
      <trkpt lat="42.259093" lon="1.679680">
        <ele>1769.049</ele>
        <time>2018-09-22T09:58:07Z</time>
      </trkpt>
      <trkpt lat="42.259084" lon="1.679657">
        <ele>1769.123</ele>
        <time>2018-09-22T09:58:08Z</time>
      </trkpt>
      <trkpt lat="42.259076" lon="1.679642">
        <ele>1769.308</ele>
        <time>2018-09-22T09:58:09Z</time>
      </trkpt>
      <trkpt lat="42.259041" lon="1.679567">
        <ele>1770.251</ele>
        <time>2018-09-22T09:58:12Z</time>
      </trkpt>
      <trkpt lat="42.259036" lon="1.679481">
        <ele>1769.597</ele>
        <time>2018-09-22T09:58:15Z</time>
      </trkpt>
      <trkpt lat="42.259017" lon="1.679430">
        <ele>1769.738</ele>
        <time>2018-09-22T09:58:17Z</time>
      </trkpt>
      <trkpt lat="42.258927" lon="1.679231">
        <ele>1769.162</ele>
        <time>2018-09-22T09:58:23Z</time>
      </trkpt>
      <trkpt lat="42.258862" lon="1.679160">
        <ele>1770.218</ele>
        <time>2018-09-22T09:58:26Z</time>
      </trkpt>
      <trkpt lat="42.258842" lon="1.679074">
        <ele>1770.328</ele>
        <time>2018-09-22T09:58:29Z</time>
      </trkpt>
      <trkpt lat="42.258841" lon="1.678969">
        <ele>1769.140</ele>
        <time>2018-09-22T09:58:32Z</time>
      </trkpt>
      <trkpt lat="42.258834" lon="1.678878">
        <ele>1768.382</ele>
        <time>2018-09-22T09:58:35Z</time>
      </trkpt>
      <trkpt lat="42.258817" lon="1.678807">
        <ele>1767.681</ele>
        <time>2018-09-22T09:58:37Z</time>
      </trkpt>
      <trkpt lat="42.258773" lon="1.678644">
        <ele>1766.561</ele>
        <time>2018-09-22T09:58:42Z</time>
      </trkpt>
      <trkpt lat="42.258744" lon="1.678534">
        <ele>1765.417</ele>
        <time>2018-09-22T09:58:45Z</time>
      </trkpt>
      <trkpt lat="42.258724" lon="1.678427">
        <ele>1763.908</ele>
        <time>2018-09-22T09:58:48Z</time>
      </trkpt>
      <trkpt lat="42.258702" lon="1.678332">
        <ele>1762.750</ele>
        <time>2018-09-22T09:58:51Z</time>
      </trkpt>
      <trkpt lat="42.258600" lon="1.678098">
        <ele>1762.276</ele>
        <time>2018-09-22T09:58:58Z</time>
      </trkpt>
      <trkpt lat="42.258588" lon="1.678063">
        <ele>1761.857</ele>
        <time>2018-09-22T09:58:59Z</time>
      </trkpt>
      <trkpt lat="42.258440" lon="1.677884">
        <ele>1761.531</ele>
        <time>2018-09-22T09:59:06Z</time>
      </trkpt>
      <trkpt lat="42.258421" lon="1.677856">
        <ele>1761.417</ele>
        <time>2018-09-22T09:59:07Z</time>
      </trkpt>
      <trkpt lat="42.258366" lon="1.677762">
        <ele>1761.117</ele>
        <time>2018-09-22T09:59:10Z</time>
      </trkpt>
      <trkpt lat="42.258355" lon="1.677683">
        <ele>1758.889</ele>
        <time>2018-09-22T09:59:12Z</time>
      </trkpt>
      <trkpt lat="42.258355" lon="1.677618">
        <ele>1756.641</ele>
        <time>2018-09-22T09:59:14Z</time>
      </trkpt>
      <trkpt lat="42.258331" lon="1.677579">
        <ele>1755.966</ele>
        <time>2018-09-22T09:59:16Z</time>
      </trkpt>
      <trkpt lat="42.258281" lon="1.677535">
        <ele>1757.229</ele>
        <time>2018-09-22T09:59:20Z</time>
      </trkpt>
      <trkpt lat="42.258213" lon="1.677517">
        <ele>1760.721</ele>
        <time>2018-09-22T09:59:24Z</time>
      </trkpt>
      <trkpt lat="42.258186" lon="1.677515">
        <ele>1762.308</ele>
        <time>2018-09-22T09:59:26Z</time>
      </trkpt>
      <trkpt lat="42.258171" lon="1.677515">
        <ele>1763.298</ele>
        <time>2018-09-22T09:59:27Z</time>
      </trkpt>
      <trkpt lat="42.258142" lon="1.677507">
        <ele>1764.864</ele>
        <time>2018-09-22T09:59:30Z</time>
      </trkpt>
      <trkpt lat="42.258126" lon="1.677503">
        <ele>1765.735</ele>
        <time>2018-09-22T09:59:32Z</time>
      </trkpt>
      <trkpt lat="42.258123" lon="1.677504">
        <ele>1765.949</ele>
        <time>2018-09-22T09:59:36Z</time>
      </trkpt>
      <trkpt lat="42.258122" lon="1.677523">
        <ele>1766.335</ele>
        <time>2018-09-22T09:59:43Z</time>
      </trkpt>
      <trkpt lat="42.258118" lon="1.677526">
        <ele>1766.595</ele>
        <time>2018-09-22T09:59:50Z</time>
      </trkpt>
      <trkpt lat="42.258118" lon="1.677550">
        <ele>1767.077</ele>
        <time>2018-09-22T10:00:00Z</time>
      </trkpt>
      <trkpt lat="42.258116" lon="1.677540">
        <ele>1766.949</ele>
        <time>2018-09-22T10:00:04Z</time>
      </trkpt>
      <trkpt lat="42.258099" lon="1.677517">
        <ele>1767.517</ele>
        <time>2018-09-22T10:00:11Z</time>
      </trkpt>
      <trkpt lat="42.258096" lon="1.677519">
        <ele>1767.787</ele>
        <time>2018-09-22T10:00:13Z</time>
      </trkpt>
      <trkpt lat="42.258118" lon="1.677491">
        <ele>1766.115</ele>
        <time>2018-09-22T10:00:24Z</time>
      </trkpt>
      <trkpt lat="42.258122" lon="1.677477">
        <ele>1765.908</ele>
        <time>2018-09-22T10:00:28Z</time>
      </trkpt>
      <trkpt lat="42.258133" lon="1.677463">
        <ele>1765.233</ele>
        <time>2018-09-22T10:00:50Z</time>
      </trkpt>
      <trkpt lat="42.258132" lon="1.677458">
        <ele>1765.339</ele>
        <time>2018-09-22T10:01:03Z</time>
      </trkpt>
      <trkpt lat="42.258121" lon="1.677465">
        <ele>1766.060</ele>
        <time>2018-09-22T10:01:08Z</time>
      </trkpt>
      <trkpt lat="42.258136" lon="1.677470">
        <ele>1765.154</ele>
        <time>2018-09-22T10:01:14Z</time>
      </trkpt>
      <trkpt lat="42.258132" lon="1.677481">
        <ele>1765.380</ele>
        <time>2018-09-22T10:01:16Z</time>
      </trkpt>
      <trkpt lat="42.258131" lon="1.677480">
        <ele>1765.330</ele>
        <time>2018-09-22T10:01:30Z</time>
      </trkpt>
      <trkpt lat="42.258146" lon="1.677486">
        <ele>1764.482</ele>
        <time>2018-09-22T10:01:43Z</time>
      </trkpt>
      <trkpt lat="42.258146" lon="1.677487">
        <ele>1764.454</ele>
        <time>2018-09-22T10:01:48Z</time>
      </trkpt>
      <trkpt lat="42.258145" lon="1.677489">
        <ele>1764.531</ele>
        <time>2018-09-22T10:01:53Z</time>
      </trkpt>
      <trkpt lat="42.258145" lon="1.677490">
        <ele>1764.561</ele>
        <time>2018-09-22T10:02:09Z</time>
      </trkpt>
      <trkpt lat="42.258139" lon="1.677484">
        <ele>1764.807</ele>
        <time>2018-09-22T10:02:15Z</time>
      </trkpt>
      <trkpt lat="42.258133" lon="1.677494">
        <ele>1765.208</ele>
        <time>2018-09-22T10:02:20Z</time>
      </trkpt>
      <trkpt lat="42.258133" lon="1.677495">
        <ele>1765.225</ele>
        <time>2018-09-22T10:02:21Z</time>
      </trkpt>
      <trkpt lat="42.258131" lon="1.677501">
        <ele>1765.431</ele>
        <time>2018-09-22T10:02:23Z</time>
      </trkpt>
      <trkpt lat="42.258129" lon="1.677498">
        <ele>1765.582</ele>
        <time>2018-09-22T10:02:31Z</time>
      </trkpt>
      <trkpt lat="42.258125" lon="1.677495">
        <ele>1765.726</ele>
        <time>2018-09-22T10:02:34Z</time>
      </trkpt>
      <trkpt lat="42.258125" lon="1.677491">
        <ele>1765.792</ele>
        <time>2018-09-22T10:02:40Z</time>
      </trkpt>
      <trkpt lat="42.258125" lon="1.677492">
        <ele>1765.722</ele>
        <time>2018-09-22T10:02:47Z</time>
      </trkpt>
      <trkpt lat="42.258122" lon="1.677486">
        <ele>1765.934</ele>
        <time>2018-09-22T10:02:54Z</time>
      </trkpt>
      <trkpt lat="42.258136" lon="1.677489">
        <ele>1765.016</ele>
        <time>2018-09-22T10:03:06Z</time>
      </trkpt>
      <trkpt lat="42.258137" lon="1.677495">
        <ele>1764.964</ele>
        <time>2018-09-22T10:03:08Z</time>
      </trkpt>
      <trkpt lat="42.258151" lon="1.677506">
        <ele>1764.306</ele>
        <time>2018-09-22T10:03:13Z</time>
      </trkpt>
      <trkpt lat="42.258153" lon="1.677506">
        <ele>1764.116</ele>
        <time>2018-09-22T10:03:14Z</time>
      </trkpt>
      <trkpt lat="42.258155" lon="1.677491">
        <ele>1763.808</ele>
        <time>2018-09-22T10:03:20Z</time>
      </trkpt>
      <trkpt lat="42.258146" lon="1.677445">
        <ele>1764.498</ele>
        <time>2018-09-22T10:03:25Z</time>
      </trkpt>
      <trkpt lat="42.258151" lon="1.677419">
        <ele>1764.114</ele>
        <time>2018-09-22T10:03:28Z</time>
      </trkpt>
      <trkpt lat="42.258155" lon="1.677405">
        <ele>1763.875</ele>
        <time>2018-09-22T10:03:29Z</time>
      </trkpt>
      <trkpt lat="42.258173" lon="1.677365">
        <ele>1762.569</ele>
        <time>2018-09-22T10:03:33Z</time>
      </trkpt>
      <trkpt lat="42.258177" lon="1.677348">
        <ele>1762.155</ele>
        <time>2018-09-22T10:03:35Z</time>
      </trkpt>
      <trkpt lat="42.258192" lon="1.677329">
        <ele>1761.035</ele>
        <time>2018-09-22T10:03:37Z</time>
      </trkpt>
      <trkpt lat="42.258214" lon="1.677309">
        <ele>1759.387</ele>
        <time>2018-09-22T10:03:39Z</time>
      </trkpt>
      <trkpt lat="42.258242" lon="1.677261">
        <ele>1756.849</ele>
        <time>2018-09-22T10:03:42Z</time>
      </trkpt>
      <trkpt lat="42.258250" lon="1.677246">
        <ele>1756.026</ele>
        <time>2018-09-22T10:03:43Z</time>
      </trkpt>
      <trkpt lat="42.258256" lon="1.677217">
        <ele>1755.447</ele>
        <time>2018-09-22T10:03:45Z</time>
      </trkpt>
      <trkpt lat="42.258256" lon="1.677204">
        <ele>1755.411</ele>
        <time>2018-09-22T10:03:46Z</time>
      </trkpt>
      <trkpt lat="42.258262" lon="1.677188">
        <ele>1755.108</ele>
        <time>2018-09-22T10:03:47Z</time>
      </trkpt>
      <trkpt lat="42.258266" lon="1.677169">
        <ele>1754.914</ele>
        <time>2018-09-22T10:03:48Z</time>
      </trkpt>
      <trkpt lat="42.258291" lon="1.677031">
        <ele>1753.790</ele>
        <time>2018-09-22T10:03:53Z</time>
      </trkpt>
      <trkpt lat="42.258286" lon="1.676942">
        <ele>1754.861</ele>
        <time>2018-09-22T10:03:56Z</time>
      </trkpt>
      <trkpt lat="42.258305" lon="1.676833">
        <ele>1755.155</ele>
        <time>2018-09-22T10:03:59Z</time>
      </trkpt>
      <trkpt lat="42.258345" lon="1.676739">
        <ele>1754.081</ele>
        <time>2018-09-22T10:04:02Z</time>
      </trkpt>
      <trkpt lat="42.258380" lon="1.676656">
        <ele>1753.311</ele>
        <time>2018-09-22T10:04:05Z</time>
      </trkpt>
      <trkpt lat="42.258387" lon="1.676633">
        <ele>1753.263</ele>
        <time>2018-09-22T10:04:06Z</time>
      </trkpt>
      <trkpt lat="42.258402" lon="1.676535">
        <ele>1753.265</ele>
        <time>2018-09-22T10:04:10Z</time>
      </trkpt>
      <trkpt lat="42.258409" lon="1.676433">
        <ele>1753.789</ele>
        <time>2018-09-22T10:04:13Z</time>
      </trkpt>
      <trkpt lat="42.258413" lon="1.676300">
        <ele>1753.306</ele>
        <time>2018-09-22T10:04:17Z</time>
      </trkpt>
      <trkpt lat="42.258391" lon="1.676159">
        <ele>1753.426</ele>
        <time>2018-09-22T10:04:21Z</time>
      </trkpt>
      <trkpt lat="42.258353" lon="1.676010">
        <ele>1754.308</ele>
        <time>2018-09-22T10:04:25Z</time>
      </trkpt>
      <trkpt lat="42.258320" lon="1.675805">
        <ele>1754.580</ele>
        <time>2018-09-22T10:04:31Z</time>
      </trkpt>
      <trkpt lat="42.258316" lon="1.675775">
        <ele>1754.576</ele>
        <time>2018-09-22T10:04:32Z</time>
      </trkpt>
      <trkpt lat="42.258297" lon="1.675561">
        <ele>1753.827</ele>
        <time>2018-09-22T10:04:38Z</time>
      </trkpt>
      <trkpt lat="42.258226" lon="1.675308">
        <ele>1755.451</ele>
        <time>2018-09-22T10:04:45Z</time>
      </trkpt>
      <trkpt lat="42.258182" lon="1.675146">
        <ele>1754.997</ele>
        <time>2018-09-22T10:04:51Z</time>
      </trkpt>
      <trkpt lat="42.258151" lon="1.675123">
        <ele>1755.947</ele>
        <time>2018-09-22T10:04:53Z</time>
      </trkpt>
      <trkpt lat="42.258135" lon="1.675099">
        <ele>1756.329</ele>
        <time>2018-09-22T10:04:56Z</time>
      </trkpt>
      <trkpt lat="42.258135" lon="1.675060">
        <ele>1755.861</ele>
        <time>2018-09-22T10:04:58Z</time>
      </trkpt>
      <trkpt lat="42.258162" lon="1.674818">
        <ele>1753.243</ele>
        <time>2018-09-22T10:05:06Z</time>
      </trkpt>
      <trkpt lat="42.258157" lon="1.674780">
        <ele>1753.364</ele>
        <time>2018-09-22T10:05:07Z</time>
      </trkpt>
      <trkpt lat="42.258108" lon="1.674523">
        <ele>1752.910</ele>
        <time>2018-09-22T10:05:14Z</time>
      </trkpt>
      <trkpt lat="42.258037" lon="1.674276">
        <ele>1752.908</ele>
        <time>2018-09-22T10:05:21Z</time>
      </trkpt>
      <trkpt lat="42.258023" lon="1.674237">
        <ele>1753.056</ele>
        <time>2018-09-22T10:05:22Z</time>
      </trkpt>
      <trkpt lat="42.257953" lon="1.674002">
        <ele>1752.832</ele>
        <time>2018-09-22T10:05:28Z</time>
      </trkpt>
      <trkpt lat="42.257876" lon="1.673757">
        <ele>1751.653</ele>
        <time>2018-09-22T10:05:35Z</time>
      </trkpt>
      <trkpt lat="42.257805" lon="1.673617">
        <ele>1751.377</ele>
        <time>2018-09-22T10:05:40Z</time>
      </trkpt>
      <trkpt lat="42.257785" lon="1.673591">
        <ele>1751.513</ele>
        <time>2018-09-22T10:05:41Z</time>
      </trkpt>
      <trkpt lat="42.257750" lon="1.673454">
        <ele>1751.033</ele>
        <time>2018-09-22T10:05:45Z</time>
      </trkpt>
      <trkpt lat="42.257652" lon="1.673231">
        <ele>1752.625</ele>
        <time>2018-09-22T10:05:53Z</time>
      </trkpt>
      <trkpt lat="42.257619" lon="1.673078">
        <ele>1751.797</ele>
        <time>2018-09-22T10:05:58Z</time>
      </trkpt>
      <trkpt lat="42.257528" lon="1.672944">
        <ele>1752.913</ele>
        <time>2018-09-22T10:06:03Z</time>
      </trkpt>
      <trkpt lat="42.257398" lon="1.672774">
        <ele>1755.443</ele>
        <time>2018-09-22T10:06:10Z</time>
      </trkpt>
      <trkpt lat="42.257371" lon="1.672734">
        <ele>1755.907</ele>
        <time>2018-09-22T10:06:12Z</time>
      </trkpt>
      <trkpt lat="42.257312" lon="1.672628">
        <ele>1756.908</ele>
        <time>2018-09-22T10:06:17Z</time>
      </trkpt>
      <trkpt lat="42.257307" lon="1.672597">
        <ele>1756.523</ele>
        <time>2018-09-22T10:06:18Z</time>
      </trkpt>
      <trkpt lat="42.257267" lon="1.672348">
        <ele>1755.229</ele>
        <time>2018-09-22T10:06:25Z</time>
      </trkpt>
      <trkpt lat="42.257250" lon="1.672201">
        <ele>1754.820</ele>
        <time>2018-09-22T10:06:29Z</time>
      </trkpt>
      <trkpt lat="42.257264" lon="1.672125">
        <ele>1752.964</ele>
        <time>2018-09-22T10:06:33Z</time>
      </trkpt>
      <trkpt lat="42.257259" lon="1.672113">
        <ele>1753.220</ele>
        <time>2018-09-22T10:06:34Z</time>
      </trkpt>
      <trkpt lat="42.257200" lon="1.672048">
        <ele>1756.450</ele>
        <time>2018-09-22T10:06:39Z</time>
      </trkpt>
      <trkpt lat="42.257180" lon="1.672014">
        <ele>1757.352</ele>
        <time>2018-09-22T10:06:41Z</time>
      </trkpt>
      <trkpt lat="42.257179" lon="1.671959">
        <ele>1756.844</ele>
        <time>2018-09-22T10:06:44Z</time>
      </trkpt>
      <trkpt lat="42.257161" lon="1.671912">
        <ele>1757.497</ele>
        <time>2018-09-22T10:06:46Z</time>
      </trkpt>
      <trkpt lat="42.257155" lon="1.671866">
        <ele>1757.423</ele>
        <time>2018-09-22T10:06:48Z</time>
      </trkpt>
      <trkpt lat="42.257152" lon="1.671844">
        <ele>1757.425</ele>
        <time>2018-09-22T10:06:49Z</time>
      </trkpt>
      <trkpt lat="42.257134" lon="1.671800">
        <ele>1758.208</ele>
        <time>2018-09-22T10:06:51Z</time>
      </trkpt>
      <trkpt lat="42.257101" lon="1.671687">
        <ele>1759.181</ele>
        <time>2018-09-22T10:06:57Z</time>
      </trkpt>
      <trkpt lat="42.257102" lon="1.671646">
        <ele>1758.727</ele>
        <time>2018-09-22T10:06:59Z</time>
      </trkpt>
      <trkpt lat="42.257018" lon="1.671423">
        <ele>1761.128</ele>
        <time>2018-09-22T10:07:10Z</time>
      </trkpt>
      <trkpt lat="42.257007" lon="1.671346">
        <ele>1760.942</ele>
        <time>2018-09-22T10:07:15Z</time>
      </trkpt>
      <trkpt lat="42.257003" lon="1.671310">
        <ele>1760.748</ele>
        <time>2018-09-22T10:07:17Z</time>
      </trkpt>
      <trkpt lat="42.256955" lon="1.671236">
        <ele>1762.798</ele>
        <time>2018-09-22T10:07:21Z</time>
      </trkpt>
      <trkpt lat="42.256943" lon="1.671222">
        <ele>1763.270</ele>
        <time>2018-09-22T10:07:22Z</time>
      </trkpt>
      <trkpt lat="42.256919" lon="1.671194">
        <ele>1764.242</ele>
        <time>2018-09-22T10:07:24Z</time>
      </trkpt>
      <trkpt lat="42.256897" lon="1.671079">
        <ele>1764.112</ele>
        <time>2018-09-22T10:07:29Z</time>
      </trkpt>
      <trkpt lat="42.256882" lon="1.670972">
        <ele>1763.932</ele>
        <time>2018-09-22T10:07:35Z</time>
      </trkpt>
      <trkpt lat="42.256879" lon="1.670955">
        <ele>1763.905</ele>
        <time>2018-09-22T10:07:36Z</time>
      </trkpt>
      <trkpt lat="42.256877" lon="1.670935">
        <ele>1763.808</ele>
        <time>2018-09-22T10:07:37Z</time>
      </trkpt>
      <trkpt lat="42.256875" lon="1.670919">
        <ele>1763.773</ele>
        <time>2018-09-22T10:07:38Z</time>
      </trkpt>
      <trkpt lat="42.256864" lon="1.670868">
        <ele>1763.849</ele>
        <time>2018-09-22T10:07:41Z</time>
      </trkpt>
      <trkpt lat="42.256852" lon="1.670803">
        <ele>1763.750</ele>
        <time>2018-09-22T10:07:44Z</time>
      </trkpt>
      <trkpt lat="42.256827" lon="1.670743">
        <ele>1764.264</ele>
        <time>2018-09-22T10:07:47Z</time>
      </trkpt>
      <trkpt lat="42.256820" lon="1.670723">
        <ele>1764.480</ele>
        <time>2018-09-22T10:07:48Z</time>
      </trkpt>
      <trkpt lat="42.256813" lon="1.670703">
        <ele>1764.560</ele>
        <time>2018-09-22T10:07:49Z</time>
      </trkpt>
      <trkpt lat="42.256787" lon="1.670580">
        <ele>1764.482</ele>
        <time>2018-09-22T10:07:55Z</time>
      </trkpt>
      <trkpt lat="42.256784" lon="1.670541">
        <ele>1764.214</ele>
        <time>2018-09-22T10:07:57Z</time>
      </trkpt>
      <trkpt lat="42.256764" lon="1.670388">
        <ele>1764.126</ele>
        <time>2018-09-22T10:08:05Z</time>
      </trkpt>
      <trkpt lat="42.256761" lon="1.670366">
        <ele>1764.147</ele>
        <time>2018-09-22T10:08:06Z</time>
      </trkpt>
      <trkpt lat="42.256755" lon="1.670350">
        <ele>1764.211</ele>
        <time>2018-09-22T10:08:07Z</time>
      </trkpt>
      <trkpt lat="42.256749" lon="1.670336">
        <ele>1764.308</ele>
        <time>2018-09-22T10:08:08Z</time>
      </trkpt>
      <trkpt lat="42.256743" lon="1.670312">
        <ele>1764.314</ele>
        <time>2018-09-22T10:08:10Z</time>
      </trkpt>
      <trkpt lat="42.256736" lon="1.670303">
        <ele>1764.440</ele>
        <time>2018-09-22T10:08:11Z</time>
      </trkpt>
      <trkpt lat="42.256679" lon="1.670219">
        <ele>1764.851</ele>
        <time>2018-09-22T10:08:18Z</time>
      </trkpt>
      <trkpt lat="42.256667" lon="1.670202">
        <ele>1764.825</ele>
        <time>2018-09-22T10:08:20Z</time>
      </trkpt>
      <trkpt lat="42.256654" lon="1.670186">
        <ele>1764.561</ele>
        <time>2018-09-22T10:08:22Z</time>
      </trkpt>
      <trkpt lat="42.256637" lon="1.670168">
        <ele>1764.121</ele>
        <time>2018-09-22T10:08:24Z</time>
      </trkpt>
      <trkpt lat="42.256631" lon="1.670158">
        <ele>1763.913</ele>
        <time>2018-09-22T10:08:25Z</time>
      </trkpt>
      <trkpt lat="42.256542" lon="1.670100">
        <ele>1762.125</ele>
        <time>2018-09-22T10:08:30Z</time>
      </trkpt>
      <trkpt lat="42.256494" lon="1.670084">
        <ele>1761.298</ele>
        <time>2018-09-22T10:08:32Z</time>
      </trkpt>
      <trkpt lat="42.256414" lon="1.670088">
        <ele>1760.515</ele>
        <time>2018-09-22T10:08:35Z</time>
      </trkpt>
      <trkpt lat="42.256358" lon="1.670085">
        <ele>1760.126</ele>
        <time>2018-09-22T10:08:37Z</time>
      </trkpt>
      <trkpt lat="42.256221" lon="1.670004">
        <ele>1758.008</ele>
        <time>2018-09-22T10:08:42Z</time>
      </trkpt>
      <trkpt lat="42.256111" lon="1.669937">
        <ele>1756.471</ele>
        <time>2018-09-22T10:08:46Z</time>
      </trkpt>
      <trkpt lat="42.256054" lon="1.669923">
        <ele>1756.517</ele>
        <time>2018-09-22T10:08:48Z</time>
      </trkpt>
      <trkpt lat="42.255918" lon="1.669854">
        <ele>1756.028</ele>
        <time>2018-09-22T10:08:53Z</time>
      </trkpt>
      <trkpt lat="42.255747" lon="1.669761">
        <ele>1755.882</ele>
        <time>2018-09-22T10:08:59Z</time>
      </trkpt>
      <trkpt lat="42.255606" lon="1.669683">
        <ele>1755.398</ele>
        <time>2018-09-22T10:09:04Z</time>
      </trkpt>
      <trkpt lat="42.255456" lon="1.669557">
        <ele>1754.138</ele>
        <time>2018-09-22T10:09:10Z</time>
      </trkpt>
      <trkpt lat="42.255313" lon="1.669447">
        <ele>1754.290</ele>
        <time>2018-09-22T10:09:17Z</time>
      </trkpt>
      <trkpt lat="42.255254" lon="1.669447">
        <ele>1754.792</ele>
        <time>2018-09-22T10:09:21Z</time>
      </trkpt>
      <trkpt lat="42.255212" lon="1.669466">
        <ele>1754.441</ele>
        <time>2018-09-22T10:09:26Z</time>
      </trkpt>
      <trkpt lat="42.255179" lon="1.669484">
        <ele>1754.281</ele>
        <time>2018-09-22T10:09:29Z</time>
      </trkpt>
      <trkpt lat="42.255172" lon="1.669488">
        <ele>1754.209</ele>
        <time>2018-09-22T10:09:30Z</time>
      </trkpt>
      <trkpt lat="42.255167" lon="1.669492">
        <ele>1754.208</ele>
        <time>2018-09-22T10:09:31Z</time>
      </trkpt>
      <trkpt lat="42.255132" lon="1.669509">
        <ele>1753.936</ele>
        <time>2018-09-22T10:09:34Z</time>
      </trkpt>
      <trkpt lat="42.255120" lon="1.669509">
        <ele>1753.762</ele>
        <time>2018-09-22T10:09:35Z</time>
      </trkpt>
      <trkpt lat="42.255100" lon="1.669480">
        <ele>1752.913</ele>
        <time>2018-09-22T10:09:38Z</time>
      </trkpt>
      <trkpt lat="42.255089" lon="1.669472">
        <ele>1752.667</ele>
        <time>2018-09-22T10:09:39Z</time>
      </trkpt>
      <trkpt lat="42.255017" lon="1.669452">
        <ele>1751.383</ele>
        <time>2018-09-22T10:09:44Z</time>
      </trkpt>
      <trkpt lat="42.254941" lon="1.669433">
        <ele>1750.783</ele>
        <time>2018-09-22T10:09:50Z</time>
      </trkpt>
      <trkpt lat="42.254912" lon="1.669422">
        <ele>1750.555</ele>
        <time>2018-09-22T10:09:52Z</time>
      </trkpt>
      <trkpt lat="42.254864" lon="1.669401">
        <ele>1750.297</ele>
        <time>2018-09-22T10:09:55Z</time>
      </trkpt>
      <trkpt lat="42.254854" lon="1.669390">
        <ele>1750.081</ele>
        <time>2018-09-22T10:09:56Z</time>
      </trkpt>
      <trkpt lat="42.254845" lon="1.669374">
        <ele>1749.761</ele>
        <time>2018-09-22T10:09:57Z</time>
      </trkpt>
      <trkpt lat="42.254809" lon="1.669336">
        <ele>1749.117</ele>
        <time>2018-09-22T10:10:01Z</time>
      </trkpt>
      <trkpt lat="42.254767" lon="1.669302">
        <ele>1748.708</ele>
        <time>2018-09-22T10:10:04Z</time>
      </trkpt>
      <trkpt lat="42.254752" lon="1.669287">
        <ele>1748.640</ele>
        <time>2018-09-22T10:10:05Z</time>
      </trkpt>
      <trkpt lat="42.254713" lon="1.669248">
        <ele>1748.276</ele>
        <time>2018-09-22T10:10:08Z</time>
      </trkpt>
      <trkpt lat="42.254662" lon="1.669170">
        <ele>1747.487</ele>
        <time>2018-09-22T10:10:13Z</time>
      </trkpt>
      <trkpt lat="42.254577" lon="1.669074">
        <ele>1747.841</ele>
        <time>2018-09-22T10:10:20Z</time>
      </trkpt>
      <trkpt lat="42.254567" lon="1.669056">
        <ele>1747.897</ele>
        <time>2018-09-22T10:10:21Z</time>
      </trkpt>
      <trkpt lat="42.254550" lon="1.669004">
        <ele>1747.817</ele>
        <time>2018-09-22T10:10:24Z</time>
      </trkpt>
      <trkpt lat="42.254537" lon="1.668950">
        <ele>1747.859</ele>
        <time>2018-09-22T10:10:27Z</time>
      </trkpt>
      <trkpt lat="42.254507" lon="1.668862">
        <ele>1747.781</ele>
        <time>2018-09-22T10:10:30Z</time>
      </trkpt>
      <trkpt lat="42.254429" lon="1.668606">
        <ele>1747.074</ele>
        <time>2018-09-22T10:10:37Z</time>
      </trkpt>
      <trkpt lat="42.254417" lon="1.668572">
        <ele>1747.056</ele>
        <time>2018-09-22T10:10:38Z</time>
      </trkpt>
      <trkpt lat="42.254387" lon="1.668476">
        <ele>1746.821</ele>
        <time>2018-09-22T10:10:41Z</time>
      </trkpt>
      <trkpt lat="42.254358" lon="1.668340">
        <ele>1746.308</ele>
        <time>2018-09-22T10:10:46Z</time>
      </trkpt>
      <trkpt lat="42.254348" lon="1.668316">
        <ele>1745.839</ele>
        <time>2018-09-22T10:10:47Z</time>
      </trkpt>
      <trkpt lat="42.254315" lon="1.668226">
        <ele>1743.375</ele>
        <time>2018-09-22T10:10:51Z</time>
      </trkpt>
      <trkpt lat="42.254299" lon="1.668187">
        <ele>1742.376</ele>
        <time>2018-09-22T10:10:53Z</time>
      </trkpt>
      <trkpt lat="42.254270" lon="1.668155">
        <ele>1741.450</ele>
        <time>2018-09-22T10:10:55Z</time>
      </trkpt>
      <trkpt lat="42.254221" lon="1.668104">
        <ele>1740.266</ele>
        <time>2018-09-22T10:10:58Z</time>
      </trkpt>
      <trkpt lat="42.254187" lon="1.668032">
        <ele>1737.996</ele>
        <time>2018-09-22T10:11:01Z</time>
      </trkpt>
      <trkpt lat="42.254151" lon="1.667974">
        <ele>1735.968</ele>
        <time>2018-09-22T10:11:04Z</time>
      </trkpt>
      <trkpt lat="42.254103" lon="1.667927">
        <ele>1734.840</ele>
        <time>2018-09-22T10:11:07Z</time>
      </trkpt>
      <trkpt lat="42.254059" lon="1.667862">
        <ele>1733.096</ele>
        <time>2018-09-22T10:11:09Z</time>
      </trkpt>
      <trkpt lat="42.254025" lon="1.667822">
        <ele>1732.131</ele>
        <time>2018-09-22T10:11:11Z</time>
      </trkpt>
      <trkpt lat="42.253991" lon="1.667780">
        <ele>1731.224</ele>
        <time>2018-09-22T10:11:13Z</time>
      </trkpt>
      <trkpt lat="42.253944" lon="1.667723">
        <ele>1729.708</ele>
        <time>2018-09-22T10:11:16Z</time>
      </trkpt>
      <trkpt lat="42.253916" lon="1.667673">
        <ele>1728.441</ele>
        <time>2018-09-22T10:11:19Z</time>
      </trkpt>
      <trkpt lat="42.253913" lon="1.667656">
        <ele>1727.897</ele>
        <time>2018-09-22T10:11:20Z</time>
      </trkpt>
      <trkpt lat="42.253916" lon="1.667634">
        <ele>1727.028</ele>
        <time>2018-09-22T10:11:21Z</time>
      </trkpt>
      <trkpt lat="42.253923" lon="1.667615">
        <ele>1726.012</ele>
        <time>2018-09-22T10:11:22Z</time>
      </trkpt>
      <trkpt lat="42.253920" lon="1.667592">
        <ele>1725.268</ele>
        <time>2018-09-22T10:11:23Z</time>
      </trkpt>
      <trkpt lat="42.253907" lon="1.667573">
        <ele>1724.938</ele>
        <time>2018-09-22T10:11:24Z</time>
      </trkpt>
      <trkpt lat="42.253892" lon="1.667528">
        <ele>1723.860</ele>
        <time>2018-09-22T10:11:26Z</time>
      </trkpt>
      <trkpt lat="42.253869" lon="1.667501">
        <ele>1723.142</ele>
        <time>2018-09-22T10:11:28Z</time>
      </trkpt>
      <trkpt lat="42.253855" lon="1.667446">
        <ele>1720.837</ele>
        <time>2018-09-22T10:11:31Z</time>
      </trkpt>
      <trkpt lat="42.253842" lon="1.667410">
        <ele>1719.549</ele>
        <time>2018-09-22T10:11:33Z</time>
      </trkpt>
      <trkpt lat="42.253840" lon="1.667372">
        <ele>1717.913</ele>
        <time>2018-09-22T10:11:35Z</time>
      </trkpt>
      <trkpt lat="42.253829" lon="1.667346">
        <ele>1717.008</ele>
        <time>2018-09-22T10:11:37Z</time>
      </trkpt>
      <trkpt lat="42.253817" lon="1.667319">
        <ele>1716.125</ele>
        <time>2018-09-22T10:11:39Z</time>
      </trkpt>
      <trkpt lat="42.253816" lon="1.667288">
        <ele>1714.991</ele>
        <time>2018-09-22T10:11:41Z</time>
      </trkpt>
      <trkpt lat="42.253813" lon="1.667263">
        <ele>1713.982</ele>
        <time>2018-09-22T10:11:42Z</time>
      </trkpt>
      <trkpt lat="42.253806" lon="1.667241">
        <ele>1713.256</ele>
        <time>2018-09-22T10:11:43Z</time>
      </trkpt>
      <trkpt lat="42.253783" lon="1.667217">
        <ele>1712.672</ele>
        <time>2018-09-22T10:11:44Z</time>
      </trkpt>
      <trkpt lat="42.253769" lon="1.667202">
        <ele>1712.382</ele>
        <time>2018-09-22T10:11:45Z</time>
      </trkpt>
      <trkpt lat="42.253731" lon="1.667164">
        <ele>1711.444</ele>
        <time>2018-09-22T10:11:47Z</time>
      </trkpt>
      <trkpt lat="42.253693" lon="1.667129">
        <ele>1710.816</ele>
        <time>2018-09-22T10:11:49Z</time>
      </trkpt>
      <trkpt lat="42.253655" lon="1.667088">
        <ele>1710.148</ele>
        <time>2018-09-22T10:11:51Z</time>
      </trkpt>
      <trkpt lat="42.253613" lon="1.667050">
        <ele>1709.761</ele>
        <time>2018-09-22T10:11:53Z</time>
      </trkpt>
      <trkpt lat="42.253592" lon="1.666982">
        <ele>1707.217</ele>
        <time>2018-09-22T10:11:55Z</time>
      </trkpt>
      <trkpt lat="42.253602" lon="1.666929">
        <ele>1705.308</ele>
        <time>2018-09-22T10:11:57Z</time>
      </trkpt>
      <trkpt lat="42.253612" lon="1.666859">
        <ele>1702.826</ele>
        <time>2018-09-22T10:11:59Z</time>
      </trkpt>
      <trkpt lat="42.253621" lon="1.666815">
        <ele>1701.092</ele>
        <time>2018-09-22T10:12:01Z</time>
      </trkpt>
      <trkpt lat="42.253609" lon="1.666773">
        <ele>1699.853</ele>
        <time>2018-09-22T10:12:03Z</time>
      </trkpt>
      <trkpt lat="42.253588" lon="1.666725">
        <ele>1697.937</ele>
        <time>2018-09-22T10:12:05Z</time>
      </trkpt>
      <trkpt lat="42.253553" lon="1.666691">
        <ele>1696.473</ele>
        <time>2018-09-22T10:12:07Z</time>
      </trkpt>
      <trkpt lat="42.253516" lon="1.666682">
        <ele>1695.873</ele>
        <time>2018-09-22T10:12:09Z</time>
      </trkpt>
      <trkpt lat="42.253411" lon="1.666626">
        <ele>1693.155</ele>
        <time>2018-09-22T10:12:12Z</time>
      </trkpt>
      <trkpt lat="42.253349" lon="1.666640">
        <ele>1693.267</ele>
        <time>2018-09-22T10:12:16Z</time>
      </trkpt>
      <trkpt lat="42.253314" lon="1.666633">
        <ele>1692.461</ele>
        <time>2018-09-22T10:12:18Z</time>
      </trkpt>
      <trkpt lat="42.253272" lon="1.666615">
        <ele>1690.721</ele>
        <time>2018-09-22T10:12:21Z</time>
      </trkpt>
      <trkpt lat="42.253257" lon="1.666619">
        <ele>1690.513</ele>
        <time>2018-09-22T10:12:22Z</time>
      </trkpt>
      <trkpt lat="42.253251" lon="1.666608">
        <ele>1690.008</ele>
        <time>2018-09-22T10:12:23Z</time>
      </trkpt>
      <trkpt lat="42.253249" lon="1.666598">
        <ele>1689.698</ele>
        <time>2018-09-22T10:12:24Z</time>
      </trkpt>
      <trkpt lat="42.253242" lon="1.666530">
        <ele>1687.244</ele>
        <time>2018-09-22T10:12:28Z</time>
      </trkpt>
      <trkpt lat="42.253208" lon="1.666504">
        <ele>1685.525</ele>
        <time>2018-09-22T10:12:30Z</time>
      </trkpt>
      <trkpt lat="42.253162" lon="1.666489">
        <ele>1683.989</ele>
        <time>2018-09-22T10:12:32Z</time>
      </trkpt>
      <trkpt lat="42.253144" lon="1.666478">
        <ele>1683.085</ele>
        <time>2018-09-22T10:12:33Z</time>
      </trkpt>
      <trkpt lat="42.253132" lon="1.666457">
        <ele>1682.175</ele>
        <time>2018-09-22T10:12:34Z</time>
      </trkpt>
      <trkpt lat="42.253112" lon="1.666425">
        <ele>1680.567</ele>
        <time>2018-09-22T10:12:36Z</time>
      </trkpt>
      <trkpt lat="42.253111" lon="1.666401">
        <ele>1679.799</ele>
        <time>2018-09-22T10:12:37Z</time>
      </trkpt>
      <trkpt lat="42.253115" lon="1.666372">
        <ele>1678.926</ele>
        <time>2018-09-22T10:12:38Z</time>
      </trkpt>
      <trkpt lat="42.253114" lon="1.666320">
        <ele>1677.447</ele>
        <time>2018-09-22T10:12:40Z</time>
      </trkpt>
      <trkpt lat="42.253114" lon="1.666307">
        <ele>1677.011</ele>
        <time>2018-09-22T10:12:41Z</time>
      </trkpt>
      <trkpt lat="42.253102" lon="1.666293">
        <ele>1676.308</ele>
        <time>2018-09-22T10:12:42Z</time>
      </trkpt>
      <trkpt lat="42.253090" lon="1.666284">
        <ele>1675.734</ele>
        <time>2018-09-22T10:12:43Z</time>
      </trkpt>
      <trkpt lat="42.253075" lon="1.666280">
        <ele>1675.340</ele>
        <time>2018-09-22T10:12:44Z</time>
      </trkpt>
      <trkpt lat="42.253037" lon="1.666263">
        <ele>1673.971</ele>
        <time>2018-09-22T10:12:46Z</time>
      </trkpt>
      <trkpt lat="42.252986" lon="1.666254">
        <ele>1672.335</ele>
        <time>2018-09-22T10:12:49Z</time>
      </trkpt>
      <trkpt lat="42.252947" lon="1.666246">
        <ele>1671.181</ele>
        <time>2018-09-22T10:12:51Z</time>
      </trkpt>
      <trkpt lat="42.252910" lon="1.666239">
        <ele>1670.091</ele>
        <time>2018-09-22T10:12:53Z</time>
      </trkpt>
      <trkpt lat="42.252857" lon="1.666235">
        <ele>1668.513</ele>
        <time>2018-09-22T10:12:56Z</time>
      </trkpt>
      <trkpt lat="42.252799" lon="1.666228">
        <ele>1666.975</ele>
        <time>2018-09-22T10:12:59Z</time>
      </trkpt>
      <trkpt lat="42.252760" lon="1.666203">
        <ele>1665.057</ele>
        <time>2018-09-22T10:13:01Z</time>
      </trkpt>
      <trkpt lat="42.252710" lon="1.666189">
        <ele>1663.000</ele>
        <time>2018-09-22T10:13:03Z</time>
      </trkpt>
      <trkpt lat="42.252685" lon="1.666191">
        <ele>1662.220</ele>
        <time>2018-09-22T10:13:04Z</time>
      </trkpt>
      <trkpt lat="42.252674" lon="1.666182">
        <ele>1661.608</ele>
        <time>2018-09-22T10:13:05Z</time>
      </trkpt>
      <trkpt lat="42.252670" lon="1.666150">
        <ele>1660.697</ele>
        <time>2018-09-22T10:13:07Z</time>
      </trkpt>
      <trkpt lat="42.252686" lon="1.666112">
        <ele>1660.083</ele>
        <time>2018-09-22T10:13:09Z</time>
      </trkpt>
      <trkpt lat="42.252709" lon="1.666073">
        <ele>1659.534</ele>
        <time>2018-09-22T10:13:12Z</time>
      </trkpt>
      <trkpt lat="42.252647" lon="1.666053">
        <ele>1656.878</ele>
        <time>2018-09-22T10:13:16Z</time>
      </trkpt>
      <trkpt lat="42.252602" lon="1.666051">
        <ele>1655.314</ele>
        <time>2018-09-22T10:13:18Z</time>
      </trkpt>
      <trkpt lat="42.252553" lon="1.666063">
        <ele>1654.164</ele>
        <time>2018-09-22T10:13:21Z</time>
      </trkpt>
      <trkpt lat="42.252525" lon="1.666062">
        <ele>1653.226</ele>
        <time>2018-09-22T10:13:23Z</time>
      </trkpt>
      <trkpt lat="42.252504" lon="1.666064">
        <ele>1652.538</ele>
        <time>2018-09-22T10:13:24Z</time>
      </trkpt>
      <trkpt lat="42.252429" lon="1.666085">
        <ele>1650.377</ele>
        <time>2018-09-22T10:13:28Z</time>
      </trkpt>
      <trkpt lat="42.252388" lon="1.666126">
        <ele>1649.961</ele>
        <time>2018-09-22T10:13:31Z</time>
      </trkpt>
      <trkpt lat="42.252327" lon="1.666159">
        <ele>1648.427</ele>
        <time>2018-09-22T10:13:34Z</time>
      </trkpt>
      <trkpt lat="42.252261" lon="1.666206">
        <ele>1646.908</ele>
        <time>2018-09-22T10:13:37Z</time>
      </trkpt>
      <trkpt lat="42.252193" lon="1.666263">
        <ele>1645.789</ele>
        <time>2018-09-22T10:13:40Z</time>
      </trkpt>
      <trkpt lat="42.252141" lon="1.666296">
        <ele>1644.575</ele>
        <time>2018-09-22T10:13:43Z</time>
      </trkpt>
      <trkpt lat="42.252128" lon="1.666306">
        <ele>1644.216</ele>
        <time>2018-09-22T10:13:44Z</time>
      </trkpt>
      <trkpt lat="42.252084" lon="1.666336">
        <ele>1643.240</ele>
        <time>2018-09-22T10:13:46Z</time>
      </trkpt>
      <trkpt lat="42.252047" lon="1.666384">
        <ele>1642.926</ele>
        <time>2018-09-22T10:13:48Z</time>
      </trkpt>
      <trkpt lat="42.251979" lon="1.666445">
        <ele>1641.096</ele>
        <time>2018-09-22T10:13:51Z</time>
      </trkpt>
      <trkpt lat="42.251933" lon="1.666477">
        <ele>1639.558</ele>
        <time>2018-09-22T10:13:53Z</time>
      </trkpt>
      <trkpt lat="42.251894" lon="1.666504">
        <ele>1638.310</ele>
        <time>2018-09-22T10:13:55Z</time>
      </trkpt>
      <trkpt lat="42.251863" lon="1.666563">
        <ele>1637.788</ele>
        <time>2018-09-22T10:13:57Z</time>
      </trkpt>
      <trkpt lat="42.251810" lon="1.666647">
        <ele>1636.424</ele>
        <time>2018-09-22T10:14:00Z</time>
      </trkpt>
      <trkpt lat="42.251757" lon="1.666703">
        <ele>1634.826</ele>
        <time>2018-09-22T10:14:02Z</time>
      </trkpt>
      <trkpt lat="42.251714" lon="1.666725">
        <ele>1633.208</ele>
        <time>2018-09-22T10:14:04Z</time>
      </trkpt>
      <trkpt lat="42.251696" lon="1.666725">
        <ele>1632.520</ele>
        <time>2018-09-22T10:14:05Z</time>
      </trkpt>
      <trkpt lat="42.251679" lon="1.666731">
        <ele>1631.916</ele>
        <time>2018-09-22T10:14:07Z</time>
      </trkpt>
      <trkpt lat="42.251657" lon="1.666732">
        <ele>1631.647</ele>
        <time>2018-09-22T10:14:09Z</time>
      </trkpt>
      <trkpt lat="42.251647" lon="1.666732">
        <ele>1631.811</ele>
        <time>2018-09-22T10:14:10Z</time>
      </trkpt>
      <trkpt lat="42.251600" lon="1.666687">
        <ele>1632.367</ele>
        <time>2018-09-22T10:14:16Z</time>
      </trkpt>
      <trkpt lat="42.251558" lon="1.666644">
        <ele>1632.727</ele>
        <time>2018-09-22T10:14:21Z</time>
      </trkpt>
      <trkpt lat="42.251533" lon="1.666541">
        <ele>1632.239</ele>
        <time>2018-09-22T10:14:26Z</time>
      </trkpt>
      <trkpt lat="42.251521" lon="1.666428">
        <ele>1631.441</ele>
        <time>2018-09-22T10:14:31Z</time>
      </trkpt>
      <trkpt lat="42.251511" lon="1.666376">
        <ele>1631.114</ele>
        <time>2018-09-22T10:14:33Z</time>
      </trkpt>
      <trkpt lat="42.251496" lon="1.666261">
        <ele>1630.454</ele>
        <time>2018-09-22T10:14:38Z</time>
      </trkpt>
      <trkpt lat="42.251443" lon="1.666131">
        <ele>1630.709</ele>
        <time>2018-09-22T10:14:43Z</time>
      </trkpt>
      <trkpt lat="42.251440" lon="1.666105">
        <ele>1630.608</ele>
        <time>2018-09-22T10:14:44Z</time>
      </trkpt>
      <trkpt lat="42.251418" lon="1.665984">
        <ele>1630.793</ele>
        <time>2018-09-22T10:14:50Z</time>
      </trkpt>
      <trkpt lat="42.251406" lon="1.665958">
        <ele>1630.929</ele>
        <time>2018-09-22T10:14:51Z</time>
      </trkpt>
      <trkpt lat="42.251390" lon="1.665931">
        <ele>1631.330</ele>
        <time>2018-09-22T10:14:53Z</time>
      </trkpt>
      <trkpt lat="42.251332" lon="1.665874">
        <ele>1632.824</ele>
        <time>2018-09-22T10:14:56Z</time>
      </trkpt>
      <trkpt lat="42.251313" lon="1.665857">
        <ele>1633.360</ele>
        <time>2018-09-22T10:14:57Z</time>
      </trkpt>
      <trkpt lat="42.251296" lon="1.665839">
        <ele>1633.720</ele>
        <time>2018-09-22T10:14:58Z</time>
      </trkpt>
      <trkpt lat="42.251153" lon="1.665684">
        <ele>1635.952</ele>
        <time>2018-09-22T10:15:08Z</time>
      </trkpt>
      <trkpt lat="42.251137" lon="1.665647">
        <ele>1635.814</ele>
        <time>2018-09-22T10:15:10Z</time>
      </trkpt>
      <trkpt lat="42.251058" lon="1.665555">
        <ele>1636.166</ele>
        <time>2018-09-22T10:15:15Z</time>
      </trkpt>
      <trkpt lat="42.251027" lon="1.665525">
        <ele>1636.329</ele>
        <time>2018-09-22T10:15:17Z</time>
      </trkpt>
      <trkpt lat="42.250957" lon="1.665430">
        <ele>1636.021</ele>
        <time>2018-09-22T10:15:23Z</time>
      </trkpt>
      <trkpt lat="42.250937" lon="1.665404">
        <ele>1635.908</ele>
        <time>2018-09-22T10:15:25Z</time>
      </trkpt>
      <trkpt lat="42.250929" lon="1.665389">
        <ele>1635.798</ele>
        <time>2018-09-22T10:15:26Z</time>
      </trkpt>
      <trkpt lat="42.250867" lon="1.665294">
        <ele>1634.844</ele>
        <time>2018-09-22T10:15:30Z</time>
      </trkpt>
      <trkpt lat="42.250828" lon="1.665218">
        <ele>1633.665</ele>
        <time>2018-09-22T10:15:33Z</time>
      </trkpt>
      <trkpt lat="42.250805" lon="1.665195">
        <ele>1633.519</ele>
        <time>2018-09-22T10:15:34Z</time>
      </trkpt>
      <trkpt lat="42.250615" lon="1.665076">
        <ele>1634.085</ele>
        <time>2018-09-22T10:15:41Z</time>
      </trkpt>
      <trkpt lat="42.250590" lon="1.665053">
        <ele>1633.845</ele>
        <time>2018-09-22T10:15:42Z</time>
      </trkpt>
      <trkpt lat="42.250417" lon="1.664893">
        <ele>1632.987</ele>
        <time>2018-09-22T10:15:49Z</time>
      </trkpt>
      <trkpt lat="42.250304" lon="1.664806">
        <ele>1632.259</ele>
        <time>2018-09-22T10:15:53Z</time>
      </trkpt>
      <trkpt lat="42.250119" lon="1.664706">
        <ele>1632.411</ele>
        <time>2018-09-22T10:16:00Z</time>
      </trkpt>
      <trkpt lat="42.249921" lon="1.664622">
        <ele>1632.921</ele>
        <time>2018-09-22T10:16:07Z</time>
      </trkpt>
      <trkpt lat="42.249748" lon="1.664541">
        <ele>1632.503</ele>
        <time>2018-09-22T10:16:14Z</time>
      </trkpt>
      <trkpt lat="42.249673" lon="1.664505">
        <ele>1632.008</ele>
        <time>2018-09-22T10:16:18Z</time>
      </trkpt>
      <trkpt lat="42.249627" lon="1.664497">
        <ele>1631.983</ele>
        <time>2018-09-22T10:16:22Z</time>
      </trkpt>
      <trkpt lat="42.249448" lon="1.664436">
        <ele>1630.859</ele>
        <time>2018-09-22T10:16:34Z</time>
      </trkpt>
      <trkpt lat="42.249362" lon="1.664404">
        <ele>1630.420</ele>
        <time>2018-09-22T10:16:40Z</time>
      </trkpt>
      <trkpt lat="42.249318" lon="1.664402">
        <ele>1630.694</ele>
        <time>2018-09-22T10:16:43Z</time>
      </trkpt>
      <trkpt lat="42.249274" lon="1.664402">
        <ele>1630.760</ele>
        <time>2018-09-22T10:16:45Z</time>
      </trkpt>
      <trkpt lat="42.249255" lon="1.664402">
        <ele>1630.830</ele>
        <time>2018-09-22T10:16:46Z</time>
      </trkpt>
      <trkpt lat="42.249237" lon="1.664399">
        <ele>1630.892</ele>
        <time>2018-09-22T10:16:47Z</time>
      </trkpt>
      <trkpt lat="42.249170" lon="1.664394">
        <ele>1631.084</ele>
        <time>2018-09-22T10:16:51Z</time>
      </trkpt>
      <trkpt lat="42.249157" lon="1.664388">
        <ele>1631.029</ele>
        <time>2018-09-22T10:16:52Z</time>
      </trkpt>
      <trkpt lat="42.249129" lon="1.664367">
        <ele>1630.700</ele>
        <time>2018-09-22T10:16:54Z</time>
      </trkpt>
      <trkpt lat="42.249052" lon="1.664331">
        <ele>1630.520</ele>
        <time>2018-09-22T10:16:58Z</time>
      </trkpt>
      <trkpt lat="42.249003" lon="1.664318">
        <ele>1630.508</ele>
        <time>2018-09-22T10:17:02Z</time>
      </trkpt>
      <trkpt lat="42.248992" lon="1.664317">
        <ele>1630.644</ele>
        <time>2018-09-22T10:17:03Z</time>
      </trkpt>
      <trkpt lat="42.248808" lon="1.664269">
        <ele>1630.420</ele>
        <time>2018-09-22T10:17:15Z</time>
      </trkpt>
      <trkpt lat="42.248719" lon="1.664257">
        <ele>1630.311</ele>
        <time>2018-09-22T10:17:22Z</time>
      </trkpt>
      <trkpt lat="42.248688" lon="1.664218">
        <ele>1630.025</ele>
        <time>2018-09-22T10:17:26Z</time>
      </trkpt>
      <trkpt lat="42.248679" lon="1.664207">
        <ele>1630.031</ele>
        <time>2018-09-22T10:17:28Z</time>
      </trkpt>
      <trkpt lat="42.248682" lon="1.664197">
        <ele>1629.981</ele>
        <time>2018-09-22T10:17:29Z</time>
      </trkpt>
      <trkpt lat="42.248657" lon="1.664181">
        <ele>1629.993</ele>
        <time>2018-09-22T10:17:32Z</time>
      </trkpt>
      <trkpt lat="42.248632" lon="1.664192">
        <ele>1630.095</ele>
        <time>2018-09-22T10:17:34Z</time>
      </trkpt>
      <trkpt lat="42.248604" lon="1.664207">
        <ele>1630.015</ele>
        <time>2018-09-22T10:17:36Z</time>
      </trkpt>
      <trkpt lat="42.248540" lon="1.664232">
        <ele>1629.065</ele>
        <time>2018-09-22T10:17:41Z</time>
      </trkpt>
      <trkpt lat="42.248532" lon="1.664236">
        <ele>1628.811</ele>
        <time>2018-09-22T10:17:42Z</time>
      </trkpt>
      <trkpt lat="42.248513" lon="1.664244">
        <ele>1628.608</ele>
        <time>2018-09-22T10:17:44Z</time>
      </trkpt>
      <trkpt lat="42.248507" lon="1.664244">
        <ele>1628.573</ele>
        <time>2018-09-22T10:17:45Z</time>
      </trkpt>
      <trkpt lat="42.248490" lon="1.664253">
        <ele>1628.259</ele>
        <time>2018-09-22T10:17:47Z</time>
      </trkpt>
      <trkpt lat="42.248460" lon="1.664273">
        <ele>1627.860</ele>
        <time>2018-09-22T10:17:50Z</time>
      </trkpt>
      <trkpt lat="42.248411" lon="1.664313">
        <ele>1627.354</ele>
        <time>2018-09-22T10:17:55Z</time>
      </trkpt>
      <trkpt lat="42.248377" lon="1.664368">
        <ele>1627.170</ele>
        <time>2018-09-22T10:17:59Z</time>
      </trkpt>
      <trkpt lat="42.248353" lon="1.664396">
        <ele>1626.990</ele>
        <time>2018-09-22T10:18:01Z</time>
      </trkpt>
      <trkpt lat="42.248337" lon="1.664412">
        <ele>1626.882</ele>
        <time>2018-09-22T10:18:02Z</time>
      </trkpt>
      <trkpt lat="42.248325" lon="1.664427">
        <ele>1626.794</ele>
        <time>2018-09-22T10:18:03Z</time>
      </trkpt>
      <trkpt lat="42.248312" lon="1.664443">
        <ele>1626.722</ele>
        <time>2018-09-22T10:18:04Z</time>
      </trkpt>
      <trkpt lat="42.248297" lon="1.664459">
        <ele>1626.862</ele>
        <time>2018-09-22T10:18:05Z</time>
      </trkpt>
      <trkpt lat="42.248250" lon="1.664506">
        <ele>1626.908</ele>
        <time>2018-09-22T10:18:08Z</time>
      </trkpt>
      <trkpt lat="42.248221" lon="1.664526">
        <ele>1626.908</ele>
        <time>2018-09-22T10:18:10Z</time>
      </trkpt>
      <trkpt lat="42.248173" lon="1.664553">
        <ele>1626.824</ele>
        <time>2018-09-22T10:18:14Z</time>
      </trkpt>
      <trkpt lat="42.248136" lon="1.664571">
        <ele>1626.640</ele>
        <time>2018-09-22T10:18:17Z</time>
      </trkpt>
      <trkpt lat="42.248124" lon="1.664577">
        <ele>1626.651</ele>
        <time>2018-09-22T10:18:18Z</time>
      </trkpt>
      <trkpt lat="42.248095" lon="1.664585">
        <ele>1626.485</ele>
        <time>2018-09-22T10:18:20Z</time>
      </trkpt>
      <trkpt lat="42.248003" lon="1.664607">
        <ele>1625.741</ele>
        <time>2018-09-22T10:18:25Z</time>
      </trkpt>
      <trkpt lat="42.247988" lon="1.664612">
        <ele>1625.681</ele>
        <time>2018-09-22T10:18:26Z</time>
      </trkpt>
      <trkpt lat="42.247857" lon="1.664648">
        <ele>1624.793</ele>
        <time>2018-09-22T10:18:35Z</time>
      </trkpt>
      <trkpt lat="42.247788" lon="1.664667">
        <ele>1624.375</ele>
        <time>2018-09-22T10:18:39Z</time>
      </trkpt>
      <trkpt lat="42.247769" lon="1.664676">
        <ele>1623.891</ele>
        <time>2018-09-22T10:18:41Z</time>
      </trkpt>
      <trkpt lat="42.247748" lon="1.664681">
        <ele>1623.081</ele>
        <time>2018-09-22T10:18:43Z</time>
      </trkpt>
      <trkpt lat="42.247720" lon="1.664683">
        <ele>1621.719</ele>
        <time>2018-09-22T10:18:45Z</time>
      </trkpt>
      <trkpt lat="42.247693" lon="1.664705">
        <ele>1620.708</ele>
        <time>2018-09-22T10:18:47Z</time>
      </trkpt>
      <trkpt lat="42.247684" lon="1.664718">
        <ele>1620.511</ele>
        <time>2018-09-22T10:18:48Z</time>
      </trkpt>
      <trkpt lat="42.247666" lon="1.664756">
        <ele>1620.137</ele>
        <time>2018-09-22T10:18:51Z</time>
      </trkpt>
      <trkpt lat="42.247638" lon="1.664859">
        <ele>1619.918</ele>
        <time>2018-09-22T10:18:57Z</time>
      </trkpt>
      <trkpt lat="42.247605" lon="1.664927">
        <ele>1618.782</ele>
        <time>2018-09-22T10:19:00Z</time>
      </trkpt>
      <trkpt lat="42.247564" lon="1.665047">
        <ele>1617.648</ele>
        <time>2018-09-22T10:19:04Z</time>
      </trkpt>
      <trkpt lat="42.247527" lon="1.665198">
        <ele>1617.598</ele>
        <time>2018-09-22T10:19:08Z</time>
      </trkpt>
      <trkpt lat="42.247503" lon="1.665450">
        <ele>1621.410</ele>
        <time>2018-09-22T10:19:15Z</time>
      </trkpt>
      <trkpt lat="42.247500" lon="1.665469">
        <ele>1621.872</ele>
        <time>2018-09-22T10:19:16Z</time>
      </trkpt>
      <trkpt lat="42.247472" lon="1.665526">
        <ele>1623.951</ele>
        <time>2018-09-22T10:19:20Z</time>
      </trkpt>
      <trkpt lat="42.247457" lon="1.665530">
        <ele>1624.301</ele>
        <time>2018-09-22T10:19:22Z</time>
      </trkpt>
      <trkpt lat="42.247439" lon="1.665524">
        <ele>1624.611</ele>
        <time>2018-09-22T10:19:24Z</time>
      </trkpt>
      <trkpt lat="42.247429" lon="1.665516">
        <ele>1624.508</ele>
        <time>2018-09-22T10:19:25Z</time>
      </trkpt>
      <trkpt lat="42.247428" lon="1.665506">
        <ele>1624.397</ele>
        <time>2018-09-22T10:19:26Z</time>
      </trkpt>
      <trkpt lat="42.247423" lon="1.665489">
        <ele>1623.943</ele>
        <time>2018-09-22T10:19:27Z</time>
      </trkpt>
      <trkpt lat="42.247367" lon="1.665365">
        <ele>1620.994</ele>
        <time>2018-09-22T10:19:32Z</time>
      </trkpt>
      <trkpt lat="42.247294" lon="1.665297">
        <ele>1619.258</ele>
        <time>2018-09-22T10:19:35Z</time>
      </trkpt>
      <trkpt lat="42.247147" lon="1.665213">
        <ele>1617.474</ele>
        <time>2018-09-22T10:19:41Z</time>
      </trkpt>
      <trkpt lat="42.247059" lon="1.665181">
        <ele>1618.344</ele>
        <time>2018-09-22T10:19:46Z</time>
      </trkpt>
      <trkpt lat="42.246951" lon="1.665129">
        <ele>1619.336</ele>
        <time>2018-09-22T10:19:52Z</time>
      </trkpt>
      <trkpt lat="42.246866" lon="1.664971">
        <ele>1615.398</ele>
        <time>2018-09-22T10:19:57Z</time>
      </trkpt>
      <trkpt lat="42.246806" lon="1.664843">
        <ele>1613.416</ele>
        <time>2018-09-22T10:20:01Z</time>
      </trkpt>
      <trkpt lat="42.246779" lon="1.664778">
        <ele>1612.576</ele>
        <time>2018-09-22T10:20:03Z</time>
      </trkpt>
      <trkpt lat="42.246734" lon="1.664707">
        <ele>1612.013</ele>
        <time>2018-09-22T10:20:06Z</time>
      </trkpt>
      <trkpt lat="42.246708" lon="1.664612">
        <ele>1609.908</ele>
        <time>2018-09-22T10:20:09Z</time>
      </trkpt>
      <trkpt lat="42.246668" lon="1.664518">
        <ele>1609.043</ele>
        <time>2018-09-22T10:20:13Z</time>
      </trkpt>
      <trkpt lat="42.246619" lon="1.664472">
        <ele>1607.279</ele>
        <time>2018-09-22T10:20:16Z</time>
      </trkpt>
      <trkpt lat="42.246516" lon="1.664461">
        <ele>1605.870</ele>
        <time>2018-09-22T10:20:21Z</time>
      </trkpt>
      <trkpt lat="42.246483" lon="1.664466">
        <ele>1605.624</ele>
        <time>2018-09-22T10:20:23Z</time>
      </trkpt>
      <trkpt lat="42.246480" lon="1.664456">
        <ele>1605.350</ele>
        <time>2018-09-22T10:20:24Z</time>
      </trkpt>
      <trkpt lat="42.246518" lon="1.664398">
        <ele>1604.110</ele>
        <time>2018-09-22T10:20:27Z</time>
      </trkpt>
      <trkpt lat="42.246552" lon="1.664341">
        <ele>1602.942</ele>
        <time>2018-09-22T10:20:30Z</time>
      </trkpt>
      <trkpt lat="42.246589" lon="1.664291">
        <ele>1601.894</ele>
        <time>2018-09-22T10:20:33Z</time>
      </trkpt>
      <trkpt lat="42.246594" lon="1.664264">
        <ele>1601.181</ele>
        <time>2018-09-22T10:20:35Z</time>
      </trkpt>
      <trkpt lat="42.246568" lon="1.664246">
        <ele>1600.461</ele>
        <time>2018-09-22T10:20:37Z</time>
      </trkpt>
      <trkpt lat="42.246527" lon="1.664255">
        <ele>1600.317</ele>
        <time>2018-09-22T10:20:41Z</time>
      </trkpt>
      <trkpt lat="42.246479" lon="1.664257">
        <ele>1600.008</ele>
        <time>2018-09-22T10:20:44Z</time>
      </trkpt>
      <trkpt lat="42.246421" lon="1.664279">
        <ele>1600.160</ele>
        <time>2018-09-22T10:20:47Z</time>
      </trkpt>
      <trkpt lat="42.246371" lon="1.664282">
        <ele>1599.486</ele>
        <time>2018-09-22T10:20:49Z</time>
      </trkpt>
      <trkpt lat="42.246306" lon="1.664306">
        <ele>1598.167</ele>
        <time>2018-09-22T10:20:52Z</time>
      </trkpt>
      <trkpt lat="42.246227" lon="1.664340">
        <ele>1596.721</ele>
        <time>2018-09-22T10:20:55Z</time>
      </trkpt>
      <trkpt lat="42.246171" lon="1.664367">
        <ele>1595.717</ele>
        <time>2018-09-22T10:20:58Z</time>
      </trkpt>
      <trkpt lat="42.246154" lon="1.664369">
        <ele>1595.397</ele>
        <time>2018-09-22T10:20:59Z</time>
      </trkpt>
      <trkpt lat="42.246113" lon="1.664377">
        <ele>1594.339</ele>
        <time>2018-09-22T10:21:01Z</time>
      </trkpt>
      <trkpt lat="42.246071" lon="1.664385">
        <ele>1593.481</ele>
        <time>2018-09-22T10:21:03Z</time>
      </trkpt>
      <trkpt lat="42.245962" lon="1.664378">
        <ele>1590.584</ele>
        <time>2018-09-22T10:21:07Z</time>
      </trkpt>
      <trkpt lat="42.245910" lon="1.664380">
        <ele>1589.207</ele>
        <time>2018-09-22T10:21:09Z</time>
      </trkpt>
      <trkpt lat="42.245861" lon="1.664387">
        <ele>1588.217</ele>
        <time>2018-09-22T10:21:11Z</time>
      </trkpt>
      <trkpt lat="42.245783" lon="1.664369">
        <ele>1586.308</ele>
        <time>2018-09-22T10:21:14Z</time>
      </trkpt>
      <trkpt lat="42.245739" lon="1.664351">
        <ele>1585.240</ele>
        <time>2018-09-22T10:21:16Z</time>
      </trkpt>
      <trkpt lat="42.245715" lon="1.664350">
        <ele>1584.936</ele>
        <time>2018-09-22T10:21:17Z</time>
      </trkpt>
      <trkpt lat="42.245647" lon="1.664351">
        <ele>1583.927</ele>
        <time>2018-09-22T10:21:20Z</time>
      </trkpt>
      <trkpt lat="42.245606" lon="1.664315">
        <ele>1582.441</ele>
        <time>2018-09-22T10:21:23Z</time>
      </trkpt>
      <trkpt lat="42.245609" lon="1.664290">
        <ele>1581.817</ele>
        <time>2018-09-22T10:21:24Z</time>
      </trkpt>
      <trkpt lat="42.245645" lon="1.664233">
        <ele>1580.997</ele>
        <time>2018-09-22T10:21:27Z</time>
      </trkpt>
      <trkpt lat="42.245648" lon="1.664218">
        <ele>1580.649</ele>
        <time>2018-09-22T10:21:28Z</time>
      </trkpt>
      <trkpt lat="42.245637" lon="1.664179">
        <ele>1579.411</ele>
        <time>2018-09-22T10:21:30Z</time>
      </trkpt>
      <trkpt lat="42.245578" lon="1.664172">
        <ele>1578.412</ele>
        <time>2018-09-22T10:21:34Z</time>
      </trkpt>
      <trkpt lat="42.245559" lon="1.664173">
        <ele>1578.232</ele>
        <time>2018-09-22T10:21:35Z</time>
      </trkpt>
      <trkpt lat="42.245520" lon="1.664151">
        <ele>1577.505</ele>
        <time>2018-09-22T10:21:37Z</time>
      </trkpt>
      <trkpt lat="42.245477" lon="1.664122">
        <ele>1576.808</ele>
        <time>2018-09-22T10:21:39Z</time>
      </trkpt>
      <trkpt lat="42.245462" lon="1.664094">
        <ele>1576.253</ele>
        <time>2018-09-22T10:21:40Z</time>
      </trkpt>
      <trkpt lat="42.245438" lon="1.664024">
        <ele>1574.989</ele>
        <time>2018-09-22T10:21:42Z</time>
      </trkpt>
      <trkpt lat="42.245413" lon="1.663939">
        <ele>1573.440</ele>
        <time>2018-09-22T10:21:44Z</time>
      </trkpt>
      <trkpt lat="42.245374" lon="1.663721">
        <ele>1571.424</ele>
        <time>2018-09-22T10:21:50Z</time>
      </trkpt>
      <trkpt lat="42.245292" lon="1.663470">
        <ele>1570.750</ele>
        <time>2018-09-22T10:21:57Z</time>
      </trkpt>
      <trkpt lat="42.245239" lon="1.663328">
        <ele>1570.930</ele>
        <time>2018-09-22T10:22:01Z</time>
      </trkpt>
      <trkpt lat="42.245170" lon="1.663053">
        <ele>1570.372</ele>
        <time>2018-09-22T10:22:08Z</time>
      </trkpt>
      <trkpt lat="42.245158" lon="1.663018">
        <ele>1569.984</ele>
        <time>2018-09-22T10:22:09Z</time>
      </trkpt>
      <trkpt lat="42.245104" lon="1.662914">
        <ele>1569.212</ele>
        <time>2018-09-22T10:22:12Z</time>
      </trkpt>
      <trkpt lat="42.245050" lon="1.662795">
        <ele>1568.232</ele>
        <time>2018-09-22T10:22:16Z</time>
      </trkpt>
      <trkpt lat="42.245036" lon="1.662746">
        <ele>1567.305</ele>
        <time>2018-09-22T10:22:18Z</time>
      </trkpt>
      <trkpt lat="42.245002" lon="1.662683">
        <ele>1566.208</ele>
        <time>2018-09-22T10:22:21Z</time>
      </trkpt>
      <trkpt lat="42.244930" lon="1.662595">
        <ele>1565.183</ele>
        <time>2018-09-22T10:22:25Z</time>
      </trkpt>
      <trkpt lat="42.244871" lon="1.662527">
        <ele>1564.159</ele>
        <time>2018-09-22T10:22:28Z</time>
      </trkpt>
      <trkpt lat="42.244794" lon="1.662432">
        <ele>1562.540</ele>
        <time>2018-09-22T10:22:31Z</time>
      </trkpt>
      <trkpt lat="42.244744" lon="1.662366">
        <ele>1561.364</ele>
        <time>2018-09-22T10:22:34Z</time>
      </trkpt>
      <trkpt lat="42.244714" lon="1.662326">
        <ele>1560.570</ele>
        <time>2018-09-22T10:22:36Z</time>
      </trkpt>
      <trkpt lat="42.244672" lon="1.662284">
        <ele>1559.960</ele>
        <time>2018-09-22T10:22:38Z</time>
      </trkpt>
      <trkpt lat="42.244588" lon="1.662195">
        <ele>1558.462</ele>
        <time>2018-09-22T10:22:42Z</time>
      </trkpt>
      <trkpt lat="42.244564" lon="1.662150">
        <ele>1557.344</ele>
        <time>2018-09-22T10:22:44Z</time>
      </trkpt>
      <trkpt lat="42.244536" lon="1.662106">
        <ele>1556.311</ele>
        <time>2018-09-22T10:22:46Z</time>
      </trkpt>
      <trkpt lat="42.244493" lon="1.662006">
        <ele>1553.421</ele>
        <time>2018-09-22T10:22:49Z</time>
      </trkpt>
      <trkpt lat="42.244445" lon="1.661924">
        <ele>1551.303</ele>
        <time>2018-09-22T10:22:52Z</time>
      </trkpt>
      <trkpt lat="42.244406" lon="1.661886">
        <ele>1550.708</ele>
        <time>2018-09-22T10:22:54Z</time>
      </trkpt>
      <trkpt lat="42.244342" lon="1.661821">
        <ele>1549.653</ele>
        <time>2018-09-22T10:22:57Z</time>
      </trkpt>
      <trkpt lat="42.244244" lon="1.661728">
        <ele>1548.079</ele>
        <time>2018-09-22T10:23:01Z</time>
      </trkpt>
      <trkpt lat="42.244193" lon="1.661670">
        <ele>1546.730</ele>
        <time>2018-09-22T10:23:03Z</time>
      </trkpt>
      <trkpt lat="42.244173" lon="1.661646">
        <ele>1546.274</ele>
        <time>2018-09-22T10:23:04Z</time>
      </trkpt>
      <trkpt lat="42.244154" lon="1.661621">
        <ele>1545.740</ele>
        <time>2018-09-22T10:23:05Z</time>
      </trkpt>
      <trkpt lat="42.244092" lon="1.661547">
        <ele>1544.460</ele>
        <time>2018-09-22T10:23:08Z</time>
      </trkpt>
      <trkpt lat="42.244039" lon="1.661475">
        <ele>1543.082</ele>
        <time>2018-09-22T10:23:11Z</time>
      </trkpt>
      <trkpt lat="42.243996" lon="1.661434">
        <ele>1542.564</ele>
        <time>2018-09-22T10:23:13Z</time>
      </trkpt>
      <trkpt lat="42.243928" lon="1.661384">
        <ele>1542.175</ele>
        <time>2018-09-22T10:23:16Z</time>
      </trkpt>
      <trkpt lat="42.243842" lon="1.661305">
        <ele>1540.628</ele>
        <time>2018-09-22T10:23:20Z</time>
      </trkpt>
      <trkpt lat="42.243779" lon="1.661253">
        <ele>1539.620</ele>
        <time>2018-09-22T10:23:23Z</time>
      </trkpt>
      <trkpt lat="42.243748" lon="1.661200">
        <ele>1538.208</ele>
        <time>2018-09-22T10:23:25Z</time>
      </trkpt>
      <trkpt lat="42.243703" lon="1.661137">
        <ele>1536.629</ele>
        <time>2018-09-22T10:23:28Z</time>
      </trkpt>
      <trkpt lat="42.243676" lon="1.661096">
        <ele>1535.525</ele>
        <time>2018-09-22T10:23:30Z</time>
      </trkpt>
      <trkpt lat="42.243640" lon="1.661057">
        <ele>1534.666</ele>
        <time>2018-09-22T10:23:32Z</time>
      </trkpt>
      <trkpt lat="42.243583" lon="1.660988">
        <ele>1532.980</ele>
        <time>2018-09-22T10:23:35Z</time>
      </trkpt>
      <trkpt lat="42.243540" lon="1.660932">
        <ele>1531.586</ele>
        <time>2018-09-22T10:23:38Z</time>
      </trkpt>
      <trkpt lat="42.243494" lon="1.660858">
        <ele>1529.566</ele>
        <time>2018-09-22T10:23:41Z</time>
      </trkpt>
      <trkpt lat="42.243449" lon="1.660800">
        <ele>1528.198</ele>
        <time>2018-09-22T10:23:43Z</time>
      </trkpt>
      <trkpt lat="42.243412" lon="1.660751">
        <ele>1527.120</ele>
        <time>2018-09-22T10:23:45Z</time>
      </trkpt>
      <trkpt lat="42.243356" lon="1.660667">
        <ele>1525.238</ele>
        <time>2018-09-22T10:23:48Z</time>
      </trkpt>
      <trkpt lat="42.243268" lon="1.660581">
        <ele>1523.770</ele>
        <time>2018-09-22T10:23:52Z</time>
      </trkpt>
      <trkpt lat="42.243223" lon="1.660529">
        <ele>1522.617</ele>
        <time>2018-09-22T10:23:54Z</time>
      </trkpt>
      <trkpt lat="42.243177" lon="1.660490">
        <ele>1522.008</ele>
        <time>2018-09-22T10:23:56Z</time>
      </trkpt>
      <trkpt lat="42.243097" lon="1.660411">
        <ele>1520.665</ele>
        <time>2018-09-22T10:24:01Z</time>
      </trkpt>
      <trkpt lat="42.243059" lon="1.660363">
        <ele>1519.781</ele>
        <time>2018-09-22T10:24:03Z</time>
      </trkpt>
      <trkpt lat="42.243004" lon="1.660304">
        <ele>1518.792</ele>
        <time>2018-09-22T10:24:06Z</time>
      </trkpt>
      <trkpt lat="42.242954" lon="1.660245">
        <ele>1517.626</ele>
        <time>2018-09-22T10:24:09Z</time>
      </trkpt>
      <trkpt lat="42.242908" lon="1.660170">
        <ele>1515.732</ele>
        <time>2018-09-22T10:24:12Z</time>
      </trkpt>
      <trkpt lat="42.242875" lon="1.660092">
        <ele>1513.552</ele>
        <time>2018-09-22T10:24:15Z</time>
      </trkpt>
      <trkpt lat="42.242841" lon="1.660014">
        <ele>1511.314</ele>
        <time>2018-09-22T10:24:18Z</time>
      </trkpt>
      <trkpt lat="42.242778" lon="1.659946">
        <ele>1510.026</ele>
        <time>2018-09-22T10:24:21Z</time>
      </trkpt>
      <trkpt lat="42.242717" lon="1.659864">
        <ele>1507.572</ele>
        <time>2018-09-22T10:24:25Z</time>
      </trkpt>
      <trkpt lat="42.242682" lon="1.659800">
        <ele>1505.413</ele>
        <time>2018-09-22T10:24:29Z</time>
      </trkpt>
      <trkpt lat="42.242625" lon="1.659751">
        <ele>1504.114</ele>
        <time>2018-09-22T10:24:32Z</time>
      </trkpt>
      <trkpt lat="42.242582" lon="1.659721">
        <ele>1503.308</ele>
        <time>2018-09-22T10:24:34Z</time>
      </trkpt>
      <trkpt lat="42.242499" lon="1.659666">
        <ele>1502.119</ele>
        <time>2018-09-22T10:24:38Z</time>
      </trkpt>
      <trkpt lat="42.242426" lon="1.659609">
        <ele>1500.225</ele>
        <time>2018-09-22T10:24:42Z</time>
      </trkpt>
      <trkpt lat="42.242361" lon="1.659569">
        <ele>1498.756</ele>
        <time>2018-09-22T10:24:45Z</time>
      </trkpt>
      <trkpt lat="42.242313" lon="1.659549">
        <ele>1497.930</ele>
        <time>2018-09-22T10:24:47Z</time>
      </trkpt>
      <trkpt lat="42.242247" lon="1.659508">
        <ele>1496.356</ele>
        <time>2018-09-22T10:24:50Z</time>
      </trkpt>
      <trkpt lat="42.242202" lon="1.659474">
        <ele>1494.946</ele>
        <time>2018-09-22T10:24:53Z</time>
      </trkpt>
      <trkpt lat="42.242160" lon="1.659431">
        <ele>1493.138</ele>
        <time>2018-09-22T10:24:56Z</time>
      </trkpt>
      <trkpt lat="42.242111" lon="1.659388">
        <ele>1491.480</ele>
        <time>2018-09-22T10:24:59Z</time>
      </trkpt>
      <trkpt lat="42.242067" lon="1.659370">
        <ele>1490.658</ele>
        <time>2018-09-22T10:25:02Z</time>
      </trkpt>
      <trkpt lat="42.242023" lon="1.659356">
        <ele>1489.952</ele>
        <time>2018-09-22T10:25:05Z</time>
      </trkpt>
      <trkpt lat="42.241992" lon="1.659356">
        <ele>1489.717</ele>
        <time>2018-09-22T10:25:07Z</time>
      </trkpt>
      <trkpt lat="42.241976" lon="1.659350">
        <ele>1489.408</ele>
        <time>2018-09-22T10:25:08Z</time>
      </trkpt>
      <trkpt lat="42.241925" lon="1.659317">
        <ele>1488.127</ele>
        <time>2018-09-22T10:25:11Z</time>
      </trkpt>
      <trkpt lat="42.241888" lon="1.659305">
        <ele>1487.393</ele>
        <time>2018-09-22T10:25:13Z</time>
      </trkpt>
      <trkpt lat="42.241838" lon="1.659260">
        <ele>1485.424</ele>
        <time>2018-09-22T10:25:16Z</time>
      </trkpt>
      <trkpt lat="42.241767" lon="1.659240">
        <ele>1483.858</ele>
        <time>2018-09-22T10:25:19Z</time>
      </trkpt>
      <trkpt lat="42.241698" lon="1.659234">
        <ele>1482.834</ele>
        <time>2018-09-22T10:25:22Z</time>
      </trkpt>
      <trkpt lat="42.241666" lon="1.659224">
        <ele>1482.034</ele>
        <time>2018-09-22T10:25:24Z</time>
      </trkpt>
      <trkpt lat="42.241648" lon="1.659213">
        <ele>1481.366</ele>
        <time>2018-09-22T10:25:25Z</time>
      </trkpt>
      <trkpt lat="42.241610" lon="1.659196">
        <ele>1480.078</ele>
        <time>2018-09-22T10:25:27Z</time>
      </trkpt>
      <trkpt lat="42.241553" lon="1.659179">
        <ele>1478.372</ele>
        <time>2018-09-22T10:25:30Z</time>
      </trkpt>
      <trkpt lat="42.241497" lon="1.659183">
        <ele>1477.513</ele>
        <time>2018-09-22T10:25:33Z</time>
      </trkpt>
      <trkpt lat="42.241424" lon="1.659184">
        <ele>1476.214</ele>
        <time>2018-09-22T10:25:37Z</time>
      </trkpt>
      <trkpt lat="42.241341" lon="1.659170">
        <ele>1474.208</ele>
        <time>2018-09-22T10:25:41Z</time>
      </trkpt>
      <trkpt lat="42.241319" lon="1.659182">
        <ele>1474.249</ele>
        <time>2018-09-22T10:25:42Z</time>
      </trkpt>
      <trkpt lat="42.241256" lon="1.659214">
        <ele>1474.015</ele>
        <time>2018-09-22T10:25:45Z</time>
      </trkpt>
      <trkpt lat="42.241177" lon="1.659250">
        <ele>1473.616</ele>
        <time>2018-09-22T10:25:49Z</time>
      </trkpt>
      <trkpt lat="42.241083" lon="1.659271">
        <ele>1472.490</ele>
        <time>2018-09-22T10:25:53Z</time>
      </trkpt>
      <trkpt lat="42.240943" lon="1.659326">
        <ele>1471.126</ele>
        <time>2018-09-22T10:25:59Z</time>
      </trkpt>
      <trkpt lat="42.240861" lon="1.659334">
        <ele>1469.716</ele>
        <time>2018-09-22T10:26:03Z</time>
      </trkpt>
      <trkpt lat="42.240794" lon="1.659348">
        <ele>1468.698</ele>
        <time>2018-09-22T10:26:06Z</time>
      </trkpt>
      <trkpt lat="42.240725" lon="1.659383">
        <ele>1467.960</ele>
        <time>2018-09-22T10:26:09Z</time>
      </trkpt>
      <trkpt lat="42.240624" lon="1.659404">
        <ele>1465.966</ele>
        <time>2018-09-22T10:26:13Z</time>
      </trkpt>
      <trkpt lat="42.240548" lon="1.659418">
        <ele>1464.329</ele>
        <time>2018-09-22T10:26:16Z</time>
      </trkpt>
      <trkpt lat="42.240475" lon="1.659424">
        <ele>1463.121</ele>
        <time>2018-09-22T10:26:19Z</time>
      </trkpt>
      <trkpt lat="42.240404" lon="1.659435">
        <ele>1462.008</ele>
        <time>2018-09-22T10:26:22Z</time>
      </trkpt>
      <trkpt lat="42.240324" lon="1.659467">
        <ele>1461.348</ele>
        <time>2018-09-22T10:26:25Z</time>
      </trkpt>
      <trkpt lat="42.240246" lon="1.659492">
        <ele>1460.374</ele>
        <time>2018-09-22T10:26:28Z</time>
      </trkpt>
      <trkpt lat="42.240173" lon="1.659518">
        <ele>1459.275</ele>
        <time>2018-09-22T10:26:31Z</time>
      </trkpt>
      <trkpt lat="42.240098" lon="1.659547">
        <ele>1458.069</ele>
        <time>2018-09-22T10:26:34Z</time>
      </trkpt>
      <trkpt lat="42.239994" lon="1.659576">
        <ele>1456.295</ele>
        <time>2018-09-22T10:26:38Z</time>
      </trkpt>
      <trkpt lat="42.239941" lon="1.659593">
        <ele>1455.215</ele>
        <time>2018-09-22T10:26:40Z</time>
      </trkpt>
      <trkpt lat="42.239887" lon="1.659620">
        <ele>1454.367</ele>
        <time>2018-09-22T10:26:43Z</time>
      </trkpt>
      <trkpt lat="42.239856" lon="1.659638">
        <ele>1453.839</ele>
        <time>2018-09-22T10:26:46Z</time>
      </trkpt>
      <trkpt lat="42.239844" lon="1.659642">
        <ele>1453.664</ele>
        <time>2018-09-22T10:26:47Z</time>
      </trkpt>
      <trkpt lat="42.239832" lon="1.659646">
        <ele>1453.306</ele>
        <time>2018-09-22T10:26:48Z</time>
      </trkpt>
      <trkpt lat="42.239786" lon="1.659669">
        <ele>1452.616</ele>
        <time>2018-09-22T10:26:52Z</time>
      </trkpt>
      <trkpt lat="42.239699" lon="1.659680">
        <ele>1450.708</ele>
        <time>2018-09-22T10:26:59Z</time>
      </trkpt>
      <trkpt lat="42.239687" lon="1.659675">
        <ele>1450.388</ele>
        <time>2018-09-22T10:27:00Z</time>
      </trkpt>
      <trkpt lat="42.239662" lon="1.659671">
        <ele>1449.744</ele>
        <time>2018-09-22T10:27:02Z</time>
      </trkpt>
      <trkpt lat="42.239594" lon="1.659689">
        <ele>1448.655</ele>
        <time>2018-09-22T10:27:07Z</time>
      </trkpt>
      <trkpt lat="42.239538" lon="1.659720">
        <ele>1447.949</ele>
        <time>2018-09-22T10:27:11Z</time>
      </trkpt>
      <trkpt lat="42.239485" lon="1.659755">
        <ele>1447.565</ele>
        <time>2018-09-22T10:27:16Z</time>
      </trkpt>
      <trkpt lat="42.239354" lon="1.659830">
        <ele>1446.525</ele>
        <time>2018-09-22T10:27:25Z</time>
      </trkpt>
      <trkpt lat="42.239345" lon="1.659842">
        <ele>1446.687</ele>
        <time>2018-09-22T10:27:26Z</time>
      </trkpt>
      <trkpt lat="42.239329" lon="1.659851">
        <ele>1446.579</ele>
        <time>2018-09-22T10:27:27Z</time>
      </trkpt>
      <trkpt lat="42.239198" lon="1.659898">
        <ele>1444.736</ele>
        <time>2018-09-22T10:27:34Z</time>
      </trkpt>
      <trkpt lat="42.239134" lon="1.659935">
        <ele>1444.317</ele>
        <time>2018-09-22T10:27:39Z</time>
      </trkpt>
      <trkpt lat="42.238967" lon="1.660049">
        <ele>1444.118</ele>
        <time>2018-09-22T10:27:54Z</time>
      </trkpt>
      <trkpt lat="42.238923" lon="1.660047">
        <ele>1443.308</ele>
        <time>2018-09-22T10:27:57Z</time>
      </trkpt>
      <trkpt lat="42.238834" lon="1.660070">
        <ele>1442.565</ele>
        <time>2018-09-22T10:28:04Z</time>
      </trkpt>
      <trkpt lat="42.238709" lon="1.660097">
        <ele>1441.391</ele>
        <time>2018-09-22T10:28:14Z</time>
      </trkpt>
      <trkpt lat="42.238598" lon="1.660103">
        <ele>1440.022</ele>
        <time>2018-09-22T10:28:23Z</time>
      </trkpt>
      <trkpt lat="42.238503" lon="1.660106">
        <ele>1438.756</ele>
        <time>2018-09-22T10:28:30Z</time>
      </trkpt>
      <trkpt lat="42.238486" lon="1.660108">
        <ele>1438.592</ele>
        <time>2018-09-22T10:28:32Z</time>
      </trkpt>
      <trkpt lat="42.238469" lon="1.660110">
        <ele>1438.342</ele>
        <time>2018-09-22T10:28:35Z</time>
      </trkpt>
      <trkpt lat="42.238425" lon="1.660151">
        <ele>1438.584</ele>
        <time>2018-09-22T10:28:40Z</time>
      </trkpt>
      <trkpt lat="42.238367" lon="1.660219">
        <ele>1439.266</ele>
        <time>2018-09-22T10:28:44Z</time>
      </trkpt>
      <trkpt lat="42.238292" lon="1.660316">
        <ele>1439.758</ele>
        <time>2018-09-22T10:28:49Z</time>
      </trkpt>
      <trkpt lat="42.238235" lon="1.660360">
        <ele>1439.352</ele>
        <time>2018-09-22T10:28:53Z</time>
      </trkpt>
      <trkpt lat="42.238200" lon="1.660376">
        <ele>1438.817</ele>
        <time>2018-09-22T10:28:55Z</time>
      </trkpt>
      <trkpt lat="42.238176" lon="1.660397">
        <ele>1438.608</ele>
        <time>2018-09-22T10:28:57Z</time>
      </trkpt>
      <trkpt lat="42.238159" lon="1.660409">
        <ele>1438.497</ele>
        <time>2018-09-22T10:28:58Z</time>
      </trkpt>
      <trkpt lat="42.238003" lon="1.660480">
        <ele>1436.423</ele>
        <time>2018-09-22T10:29:06Z</time>
      </trkpt>
      <trkpt lat="42.237849" lon="1.660588">
        <ele>1435.154</ele>
        <time>2018-09-22T10:29:16Z</time>
      </trkpt>
      <trkpt lat="42.237838" lon="1.660620">
        <ele>1435.178</ele>
        <time>2018-09-22T10:29:18Z</time>
      </trkpt>
      <trkpt lat="42.237841" lon="1.660643">
        <ele>1435.274</ele>
        <time>2018-09-22T10:29:19Z</time>
      </trkpt>
      <trkpt lat="42.237820" lon="1.660666">
        <ele>1435.064</ele>
        <time>2018-09-22T10:29:23Z</time>
      </trkpt>
      <trkpt lat="42.237770" lon="1.660673">
        <ele>1434.336</ele>
        <time>2018-09-22T10:29:29Z</time>
      </trkpt>
      <trkpt lat="42.237761" lon="1.660670">
        <ele>1434.178</ele>
        <time>2018-09-22T10:29:30Z</time>
      </trkpt>
      <trkpt lat="42.237747" lon="1.660660">
        <ele>1433.939</ele>
        <time>2018-09-22T10:29:32Z</time>
      </trkpt>
      <trkpt lat="42.237721" lon="1.660652">
        <ele>1433.501</ele>
        <time>2018-09-22T10:29:35Z</time>
      </trkpt>
      <trkpt lat="42.237701" lon="1.660650">
        <ele>1433.221</ele>
        <time>2018-09-22T10:29:37Z</time>
      </trkpt>
      <trkpt lat="42.237681" lon="1.660645">
        <ele>1432.908</ele>
        <time>2018-09-22T10:29:40Z</time>
      </trkpt>
      <trkpt lat="42.237661" lon="1.660648">
        <ele>1432.695</ele>
        <time>2018-09-22T10:29:45Z</time>
      </trkpt>
      <trkpt lat="42.237657" lon="1.660644">
        <ele>1432.511</ele>
        <time>2018-09-22T10:30:19Z</time>
      </trkpt>
      <trkpt lat="42.237601" lon="1.660634">
        <ele>1431.782</ele>
        <time>2018-09-22T10:30:38Z</time>
      </trkpt>
      <trkpt lat="42.237588" lon="1.660643">
        <ele>1431.536</ele>
        <time>2018-09-22T10:30:39Z</time>
      </trkpt>
      <trkpt lat="42.237561" lon="1.660671">
        <ele>1431.232</ele>
        <time>2018-09-22T10:30:41Z</time>
      </trkpt>
      <trkpt lat="42.237508" lon="1.660689">
        <ele>1430.582</ele>
        <time>2018-09-22T10:30:45Z</time>
      </trkpt>
      <trkpt lat="42.237443" lon="1.660693">
        <ele>1429.874</ele>
        <time>2018-09-22T10:30:50Z</time>
      </trkpt>
      <trkpt lat="42.237432" lon="1.660684">
        <ele>1429.766</ele>
        <time>2018-09-22T10:30:51Z</time>
      </trkpt>
      <trkpt lat="42.237407" lon="1.660668">
        <ele>1429.431</ele>
        <time>2018-09-22T10:30:53Z</time>
      </trkpt>
      <trkpt lat="42.237395" lon="1.660660">
        <ele>1429.361</ele>
        <time>2018-09-22T10:30:54Z</time>
      </trkpt>
      <trkpt lat="42.237364" lon="1.660638">
        <ele>1429.007</ele>
        <time>2018-09-22T10:30:57Z</time>
      </trkpt>
      <trkpt lat="42.237261" lon="1.660585">
        <ele>1428.208</ele>
        <time>2018-09-22T10:31:07Z</time>
      </trkpt>
      <trkpt lat="42.237240" lon="1.660557">
        <ele>1428.165</ele>
        <time>2018-09-22T10:31:10Z</time>
      </trkpt>
      <trkpt lat="42.237189" lon="1.660514">
        <ele>1427.731</ele>
        <time>2018-09-22T10:31:15Z</time>
      </trkpt>
      <trkpt lat="42.237162" lon="1.660506">
        <ele>1427.692</ele>
        <time>2018-09-22T10:31:17Z</time>
      </trkpt>
      <trkpt lat="42.237113" lon="1.660478">
        <ele>1427.426</ele>
        <time>2018-09-22T10:31:21Z</time>
      </trkpt>
      <trkpt lat="42.237098" lon="1.660453">
        <ele>1427.392</ele>
        <time>2018-09-22T10:31:23Z</time>
      </trkpt>
      <trkpt lat="42.237053" lon="1.660425">
        <ele>1427.232</ele>
        <time>2018-09-22T10:31:27Z</time>
      </trkpt>
      <trkpt lat="42.237020" lon="1.660407">
        <ele>1427.194</ele>
        <time>2018-09-22T10:31:30Z</time>
      </trkpt>
      <trkpt lat="42.236987" lon="1.660403">
        <ele>1427.096</ele>
        <time>2018-09-22T10:31:32Z</time>
      </trkpt>
      <trkpt lat="42.236934" lon="1.660391">
        <ele>1427.092</ele>
        <time>2018-09-22T10:31:35Z</time>
      </trkpt>
      <trkpt lat="42.236886" lon="1.660397">
        <ele>1427.273</ele>
        <time>2018-09-22T10:31:39Z</time>
      </trkpt>
      <trkpt lat="42.236840" lon="1.660380">
        <ele>1427.420</ele>
        <time>2018-09-22T10:31:43Z</time>
      </trkpt>
      <trkpt lat="42.236826" lon="1.660388">
        <ele>1427.508</ele>
        <time>2018-09-22T10:31:44Z</time>
      </trkpt>
      <trkpt lat="42.236774" lon="1.660443">
        <ele>1427.471</ele>
        <time>2018-09-22T10:31:48Z</time>
      </trkpt>
      <trkpt lat="42.236631" lon="1.660625">
        <ele>1426.827</ele>
        <time>2018-09-22T10:32:01Z</time>
      </trkpt>
      <trkpt lat="42.236597" lon="1.660700">
        <ele>1426.418</ele>
        <time>2018-09-22T10:32:05Z</time>
      </trkpt>
      <trkpt lat="42.236599" lon="1.660729">
        <ele>1426.032</ele>
        <time>2018-09-22T10:32:06Z</time>
      </trkpt>
      <trkpt lat="42.236594" lon="1.660748">
        <ele>1425.858</ele>
        <time>2018-09-22T10:32:07Z</time>
      </trkpt>
      <trkpt lat="42.236584" lon="1.660766">
        <ele>1425.728</ele>
        <time>2018-09-22T10:32:08Z</time>
      </trkpt>
      <trkpt lat="42.236577" lon="1.660786">
        <ele>1425.530</ele>
        <time>2018-09-22T10:32:09Z</time>
      </trkpt>
      <trkpt lat="42.236436" lon="1.660964">
        <ele>1424.212</ele>
        <time>2018-09-22T10:32:22Z</time>
      </trkpt>
      <trkpt lat="42.236388" lon="1.661008">
        <ele>1423.888</ele>
        <time>2018-09-22T10:32:26Z</time>
      </trkpt>
      <trkpt lat="42.236353" lon="1.661048">
        <ele>1423.624</ele>
        <time>2018-09-22T10:32:30Z</time>
      </trkpt>
      <trkpt lat="42.236187" lon="1.661172">
        <ele>1423.326</ele>
        <time>2018-09-22T10:32:42Z</time>
      </trkpt>
      <trkpt lat="42.236023" lon="1.661312">
        <ele>1423.708</ele>
        <time>2018-09-22T10:32:55Z</time>
      </trkpt>
      <trkpt lat="42.235932" lon="1.661410">
        <ele>1423.350</ele>
        <time>2018-09-22T10:33:02Z</time>
      </trkpt>
      <trkpt lat="42.235927" lon="1.661429">
        <ele>1423.116</ele>
        <time>2018-09-22T10:33:03Z</time>
      </trkpt>
      <trkpt lat="42.235797" lon="1.661555">
        <ele>1423.317</ele>
        <time>2018-09-22T10:33:14Z</time>
      </trkpt>
      <trkpt lat="42.235740" lon="1.661622">
        <ele>1423.271</ele>
        <time>2018-09-22T10:33:19Z</time>
      </trkpt>
      <trkpt lat="42.235702" lon="1.661657">
        <ele>1423.187</ele>
        <time>2018-09-22T10:33:22Z</time>
      </trkpt>
      <trkpt lat="42.235618" lon="1.661773">
        <ele>1422.357</ele>
        <time>2018-09-22T10:33:30Z</time>
      </trkpt>
      <trkpt lat="42.235554" lon="1.661858">
        <ele>1421.559</ele>
        <time>2018-09-22T10:33:37Z</time>
      </trkpt>
      <trkpt lat="42.235483" lon="1.661927">
        <ele>1421.711</ele>
        <time>2018-09-22T10:33:43Z</time>
      </trkpt>
      <trkpt lat="42.235473" lon="1.661937">
        <ele>1421.633</ele>
        <time>2018-09-22T10:33:44Z</time>
      </trkpt>
      <trkpt lat="42.235453" lon="1.661965">
        <ele>1421.523</ele>
        <time>2018-09-22T10:33:46Z</time>
      </trkpt>
      <trkpt lat="42.235436" lon="1.662004">
        <ele>1421.315</ele>
        <time>2018-09-22T10:33:48Z</time>
      </trkpt>
      <trkpt lat="42.235414" lon="1.662059">
        <ele>1420.808</ele>
        <time>2018-09-22T10:33:51Z</time>
      </trkpt>
      <trkpt lat="42.235404" lon="1.662070">
        <ele>1420.845</ele>
        <time>2018-09-22T10:33:52Z</time>
      </trkpt>
      <trkpt lat="42.235384" lon="1.662100">
        <ele>1420.591</ele>
        <time>2018-09-22T10:33:54Z</time>
      </trkpt>
      <trkpt lat="42.235315" lon="1.662187">
        <ele>1419.542</ele>
        <time>2018-09-22T10:34:00Z</time>
      </trkpt>
      <trkpt lat="42.235243" lon="1.662288">
        <ele>1419.366</ele>
        <time>2018-09-22T10:34:06Z</time>
      </trkpt>
      <trkpt lat="42.235221" lon="1.662319">
        <ele>1419.562</ele>
        <time>2018-09-22T10:34:08Z</time>
      </trkpt>
      <trkpt lat="42.235170" lon="1.662390">
        <ele>1419.512</ele>
        <time>2018-09-22T10:34:13Z</time>
      </trkpt>
      <trkpt lat="42.235160" lon="1.662405">
        <ele>1419.474</ele>
        <time>2018-09-22T10:34:14Z</time>
      </trkpt>
      <trkpt lat="42.235129" lon="1.662496">
        <ele>1418.526</ele>
        <time>2018-09-22T10:34:19Z</time>
      </trkpt>
      <trkpt lat="42.235179" lon="1.662601">
        <ele>1418.027</ele>
        <time>2018-09-22T10:34:25Z</time>
      </trkpt>
      <trkpt lat="42.235254" lon="1.662728">
        <ele>1417.968</ele>
        <time>2018-09-22T10:34:33Z</time>
      </trkpt>
      <trkpt lat="42.235368" lon="1.662932">
        <ele>1417.814</ele>
        <time>2018-09-22T10:34:46Z</time>
      </trkpt>
      <trkpt lat="42.235391" lon="1.662976">
        <ele>1417.808</ele>
        <time>2018-09-22T10:34:49Z</time>
      </trkpt>
      <trkpt lat="42.235391" lon="1.662984">
        <ele>1417.834</ele>
        <time>2018-09-22T10:34:50Z</time>
      </trkpt>
      <trkpt lat="42.235391" lon="1.662991">
        <ele>1417.830</ele>
        <time>2018-09-22T10:34:51Z</time>
      </trkpt>
      <trkpt lat="42.235401" lon="1.663015">
        <ele>1417.921</ele>
        <time>2018-09-22T10:34:55Z</time>
      </trkpt>
      <trkpt lat="42.235422" lon="1.663037">
        <ele>1418.095</ele>
        <time>2018-09-22T10:34:57Z</time>
      </trkpt>
      <trkpt lat="42.235541" lon="1.663173">
        <ele>1419.331</ele>
        <time>2018-09-22T10:35:08Z</time>
      </trkpt>
      <trkpt lat="42.235591" lon="1.663248">
        <ele>1419.831</ele>
        <time>2018-09-22T10:35:13Z</time>
      </trkpt>
      <trkpt lat="42.235655" lon="1.663320">
        <ele>1420.373</ele>
        <time>2018-09-22T10:35:19Z</time>
      </trkpt>
      <trkpt lat="42.235743" lon="1.663460">
        <ele>1421.135</ele>
        <time>2018-09-22T10:35:30Z</time>
      </trkpt>
      <trkpt lat="42.235850" lon="1.663633">
        <ele>1422.212</ele>
        <time>2018-09-22T10:35:41Z</time>
      </trkpt>
      <trkpt lat="42.235843" lon="1.663766">
        <ele>1423.132</ele>
        <time>2018-09-22T10:35:48Z</time>
      </trkpt>
      <trkpt lat="42.235799" lon="1.663884">
        <ele>1423.705</ele>
        <time>2018-09-22T10:35:55Z</time>
      </trkpt>
      <trkpt lat="42.235748" lon="1.664109">
        <ele>1424.108</ele>
        <time>2018-09-22T10:36:08Z</time>
      </trkpt>
      <trkpt lat="42.235806" lon="1.664273">
        <ele>1425.233</ele>
        <time>2018-09-22T10:36:18Z</time>
      </trkpt>
      <trkpt lat="42.235883" lon="1.664466">
        <ele>1426.429</ele>
        <time>2018-09-22T10:36:31Z</time>
      </trkpt>
      <trkpt lat="42.235982" lon="1.664687">
        <ele>1428.340</ele>
        <time>2018-09-22T10:36:47Z</time>
      </trkpt>
      <trkpt lat="42.235992" lon="1.664701">
        <ele>1428.424</ele>
        <time>2018-09-22T10:36:48Z</time>
      </trkpt>
      <trkpt lat="42.236055" lon="1.664799">
        <ele>1429.330</ele>
        <time>2018-09-22T10:36:56Z</time>
      </trkpt>
      <trkpt lat="42.236063" lon="1.664814">
        <ele>1429.470</ele>
        <time>2018-09-22T10:36:57Z</time>
      </trkpt>
      <trkpt lat="42.236082" lon="1.664839">
        <ele>1429.762</ele>
        <time>2018-09-22T10:36:59Z</time>
      </trkpt>
      <trkpt lat="42.236119" lon="1.664897">
        <ele>1430.334</ele>
        <time>2018-09-22T10:37:03Z</time>
      </trkpt>
      <trkpt lat="42.236203" lon="1.665036">
        <ele>1431.936</ele>
        <time>2018-09-22T10:37:12Z</time>
      </trkpt>
      <trkpt lat="42.236262" lon="1.665171">
        <ele>1433.317</ele>
        <time>2018-09-22T10:37:21Z</time>
      </trkpt>
      <trkpt lat="42.236296" lon="1.665279">
        <ele>1434.318</ele>
        <time>2018-09-22T10:37:27Z</time>
      </trkpt>
      <trkpt lat="42.236302" lon="1.665349">
        <ele>1434.808</ele>
        <time>2018-09-22T10:37:31Z</time>
      </trkpt>
      <trkpt lat="42.236302" lon="1.665451">
        <ele>1435.665</ele>
        <time>2018-09-22T10:37:37Z</time>
      </trkpt>
      <trkpt lat="42.236323" lon="1.665640">
        <ele>1437.281</ele>
        <time>2018-09-22T10:37:48Z</time>
      </trkpt>
      <trkpt lat="42.236327" lon="1.665661">
        <ele>1437.342</ele>
        <time>2018-09-22T10:37:49Z</time>
      </trkpt>
      <trkpt lat="42.236333" lon="1.665778">
        <ele>1438.396</ele>
        <time>2018-09-22T10:37:56Z</time>
      </trkpt>
      <trkpt lat="42.236334" lon="1.665793">
        <ele>1438.482</ele>
        <time>2018-09-22T10:37:57Z</time>
      </trkpt>
      <trkpt lat="42.236359" lon="1.665899">
        <ele>1439.332</ele>
        <time>2018-09-22T10:38:03Z</time>
      </trkpt>
      <trkpt lat="42.236371" lon="1.665964">
        <ele>1439.854</ele>
        <time>2018-09-22T10:38:07Z</time>
      </trkpt>
      <trkpt lat="42.236379" lon="1.666001">
        <ele>1440.116</ele>
        <time>2018-09-22T10:38:09Z</time>
      </trkpt>
      <trkpt lat="42.236419" lon="1.666152">
        <ele>1441.529</ele>
        <time>2018-09-22T10:38:18Z</time>
      </trkpt>
      <trkpt lat="42.236437" lon="1.666260">
        <ele>1442.600</ele>
        <time>2018-09-22T10:38:25Z</time>
      </trkpt>
      <trkpt lat="42.236461" lon="1.666402">
        <ele>1444.120</ele>
        <time>2018-09-22T10:38:33Z</time>
      </trkpt>
      <trkpt lat="42.236499" lon="1.666586">
        <ele>1445.608</ele>
        <time>2018-09-22T10:38:44Z</time>
      </trkpt>
      <trkpt lat="42.236515" lon="1.666660">
        <ele>1446.324</ele>
        <time>2018-09-22T10:38:48Z</time>
      </trkpt>
      <trkpt lat="42.236514" lon="1.666678">
        <ele>1446.550</ele>
        <time>2018-09-22T10:38:49Z</time>
      </trkpt>
      <trkpt lat="42.236539" lon="1.666813">
        <ele>1448.181</ele>
        <time>2018-09-22T10:38:57Z</time>
      </trkpt>
      <trkpt lat="42.236552" lon="1.666884">
        <ele>1448.985</ele>
        <time>2018-09-22T10:39:02Z</time>
      </trkpt>
      <trkpt lat="42.236568" lon="1.666928">
        <ele>1449.411</ele>
        <time>2018-09-22T10:39:05Z</time>
      </trkpt>
      <trkpt lat="42.236578" lon="1.666969">
        <ele>1449.961</ele>
        <time>2018-09-22T10:39:08Z</time>
      </trkpt>
      <trkpt lat="42.236582" lon="1.666984">
        <ele>1450.183</ele>
        <time>2018-09-22T10:39:09Z</time>
      </trkpt>
      <trkpt lat="42.236586" lon="1.667016">
        <ele>1450.435</ele>
        <time>2018-09-22T10:39:11Z</time>
      </trkpt>
      <trkpt lat="42.236612" lon="1.667145">
        <ele>1451.953</ele>
        <time>2018-09-22T10:39:18Z</time>
      </trkpt>
      <trkpt lat="42.236622" lon="1.667194">
        <ele>1452.504</ele>
        <time>2018-09-22T10:39:21Z</time>
      </trkpt>
      <trkpt lat="42.236631" lon="1.667225">
        <ele>1452.914</ele>
        <time>2018-09-22T10:39:23Z</time>
      </trkpt>
      <trkpt lat="42.236644" lon="1.667277">
        <ele>1453.508</ele>
        <time>2018-09-22T10:39:26Z</time>
      </trkpt>
      <trkpt lat="42.236644" lon="1.667310">
        <ele>1453.837</ele>
        <time>2018-09-22T10:39:28Z</time>
      </trkpt>
      <trkpt lat="42.236648" lon="1.667324">
        <ele>1454.063</ele>
        <time>2018-09-22T10:39:29Z</time>
      </trkpt>
      <trkpt lat="42.236663" lon="1.667423">
        <ele>1455.164</ele>
        <time>2018-09-22T10:39:35Z</time>
      </trkpt>
      <trkpt lat="42.236684" lon="1.667546">
        <ele>1456.338</ele>
        <time>2018-09-22T10:39:43Z</time>
      </trkpt>
      <trkpt lat="42.236686" lon="1.667559">
        <ele>1456.424</ele>
        <time>2018-09-22T10:39:45Z</time>
      </trkpt>
      <trkpt lat="42.236690" lon="1.667586">
        <ele>1456.694</ele>
        <time>2018-09-22T10:39:48Z</time>
      </trkpt>
      <trkpt lat="42.236700" lon="1.667616">
        <ele>1456.976</ele>
        <time>2018-09-22T10:39:50Z</time>
      </trkpt>
      <trkpt lat="42.236720" lon="1.667655">
        <ele>1457.328</ele>
        <time>2018-09-22T10:39:53Z</time>
      </trkpt>
      <trkpt lat="42.236736" lon="1.667713">
        <ele>1457.933</ele>
        <time>2018-09-22T10:39:57Z</time>
      </trkpt>
      <trkpt lat="42.236744" lon="1.667741">
        <ele>1458.223</ele>
        <time>2018-09-22T10:39:59Z</time>
      </trkpt>
      <trkpt lat="42.236746" lon="1.667757">
        <ele>1458.315</ele>
        <time>2018-09-22T10:40:00Z</time>
      </trkpt>
      <trkpt lat="42.236748" lon="1.667772">
        <ele>1458.508</ele>
        <time>2018-09-22T10:40:01Z</time>
      </trkpt>
      <trkpt lat="42.236754" lon="1.667842">
        <ele>1459.285</ele>
        <time>2018-09-22T10:40:05Z</time>
      </trkpt>
      <trkpt lat="42.236755" lon="1.667857">
        <ele>1459.431</ele>
        <time>2018-09-22T10:40:06Z</time>
      </trkpt>
      <trkpt lat="42.236757" lon="1.667872">
        <ele>1459.522</ele>
        <time>2018-09-22T10:40:07Z</time>
      </trkpt>
      <trkpt lat="42.236760" lon="1.667998">
        <ele>1460.756</ele>
        <time>2018-09-22T10:40:15Z</time>
      </trkpt>
      <trkpt lat="42.236774" lon="1.668067">
        <ele>1461.562</ele>
        <time>2018-09-22T10:40:20Z</time>
      </trkpt>
      <trkpt lat="42.236796" lon="1.668193">
        <ele>1463.472</ele>
        <time>2018-09-22T10:40:28Z</time>
      </trkpt>
      <trkpt lat="42.236796" lon="1.668227">
        <ele>1463.934</ele>
        <time>2018-09-22T10:40:30Z</time>
      </trkpt>
      <trkpt lat="42.236804" lon="1.668283">
        <ele>1464.766</ele>
        <time>2018-09-22T10:40:34Z</time>
      </trkpt>
      <trkpt lat="42.236806" lon="1.668298">
        <ele>1464.963</ele>
        <time>2018-09-22T10:40:35Z</time>
      </trkpt>
      <trkpt lat="42.236806" lon="1.668331">
        <ele>1465.444</ele>
        <time>2018-09-22T10:40:37Z</time>
      </trkpt>
      <trkpt lat="42.236816" lon="1.668370">
        <ele>1465.918</ele>
        <time>2018-09-22T10:40:39Z</time>
      </trkpt>
      <trkpt lat="42.236819" lon="1.668388">
        <ele>1466.108</ele>
        <time>2018-09-22T10:40:40Z</time>
      </trkpt>
      <trkpt lat="42.236824" lon="1.668419">
        <ele>1466.468</ele>
        <time>2018-09-22T10:40:42Z</time>
      </trkpt>
      <trkpt lat="42.236827" lon="1.668436">
        <ele>1466.644</ele>
        <time>2018-09-22T10:40:43Z</time>
      </trkpt>
      <trkpt lat="42.236830" lon="1.668465">
        <ele>1467.095</ele>
        <time>2018-09-22T10:40:45Z</time>
      </trkpt>
      <trkpt lat="42.236831" lon="1.668480">
        <ele>1467.189</ele>
        <time>2018-09-22T10:40:46Z</time>
      </trkpt>
      <trkpt lat="42.236839" lon="1.668528">
        <ele>1467.755</ele>
        <time>2018-09-22T10:40:49Z</time>
      </trkpt>
      <trkpt lat="42.236850" lon="1.668598">
        <ele>1468.575</ele>
        <time>2018-09-22T10:40:53Z</time>
      </trkpt>
      <trkpt lat="42.236852" lon="1.668628">
        <ele>1468.897</ele>
        <time>2018-09-22T10:40:55Z</time>
      </trkpt>
      <trkpt lat="42.236856" lon="1.668674">
        <ele>1469.339</ele>
        <time>2018-09-22T10:40:58Z</time>
      </trkpt>
      <trkpt lat="42.236880" lon="1.668784">
        <ele>1470.637</ele>
        <time>2018-09-22T10:41:05Z</time>
      </trkpt>
      <trkpt lat="42.236880" lon="1.668801">
        <ele>1470.849</ele>
        <time>2018-09-22T10:41:06Z</time>
      </trkpt>
      <trkpt lat="42.236877" lon="1.668817">
        <ele>1470.913</ele>
        <time>2018-09-22T10:41:07Z</time>
      </trkpt>
      <trkpt lat="42.236860" lon="1.668865">
        <ele>1471.408</ele>
        <time>2018-09-22T10:41:10Z</time>
      </trkpt>
      <trkpt lat="42.236851" lon="1.668897">
        <ele>1471.745</ele>
        <time>2018-09-22T10:41:12Z</time>
      </trkpt>
      <trkpt lat="42.236825" lon="1.668995">
        <ele>1473.181</ele>
        <time>2018-09-22T10:41:18Z</time>
      </trkpt>
      <trkpt lat="42.236800" lon="1.669119">
        <ele>1474.842</ele>
        <time>2018-09-22T10:41:26Z</time>
      </trkpt>
      <trkpt lat="42.236800" lon="1.669134">
        <ele>1475.056</ele>
        <time>2018-09-22T10:41:27Z</time>
      </trkpt>
      <trkpt lat="42.236788" lon="1.669204">
        <ele>1475.872</ele>
        <time>2018-09-22T10:41:31Z</time>
      </trkpt>
      <trkpt lat="42.236764" lon="1.669282">
        <ele>1476.512</ele>
        <time>2018-09-22T10:41:36Z</time>
      </trkpt>
      <trkpt lat="42.236744" lon="1.669417">
        <ele>1477.954</ele>
        <time>2018-09-22T10:41:44Z</time>
      </trkpt>
      <trkpt lat="42.236712" lon="1.669526">
        <ele>1479.276</ele>
        <time>2018-09-22T10:41:51Z</time>
      </trkpt>
      <trkpt lat="42.236666" lon="1.669623">
        <ele>1480.565</ele>
        <time>2018-09-22T10:41:58Z</time>
      </trkpt>
      <trkpt lat="42.236649" lon="1.669699">
        <ele>1481.668</ele>
        <time>2018-09-22T10:42:03Z</time>
      </trkpt>
      <trkpt lat="42.236631" lon="1.669790">
        <ele>1482.814</ele>
        <time>2018-09-22T10:42:09Z</time>
      </trkpt>
      <trkpt lat="42.236622" lon="1.669882">
        <ele>1484.008</ele>
        <time>2018-09-22T10:42:15Z</time>
      </trkpt>
      <trkpt lat="42.236629" lon="1.669972">
        <ele>1485.398</ele>
        <time>2018-09-22T10:42:21Z</time>
      </trkpt>
      <trkpt lat="42.236646" lon="1.670014">
        <ele>1486.054</ele>
        <time>2018-09-22T10:42:24Z</time>
      </trkpt>
      <trkpt lat="42.236654" lon="1.670042">
        <ele>1486.545</ele>
        <time>2018-09-22T10:42:26Z</time>
      </trkpt>
      <trkpt lat="42.236662" lon="1.670053">
        <ele>1486.799</ele>
        <time>2018-09-22T10:42:27Z</time>
      </trkpt>
      <trkpt lat="42.236679" lon="1.670103">
        <ele>1487.425</ele>
        <time>2018-09-22T10:42:31Z</time>
      </trkpt>
      <trkpt lat="42.236705" lon="1.670177">
        <ele>1488.595</ele>
        <time>2018-09-22T10:42:36Z</time>
      </trkpt>
      <trkpt lat="42.236710" lon="1.670191">
        <ele>1488.767</ele>
        <time>2018-09-22T10:42:37Z</time>
      </trkpt>
      <trkpt lat="42.236715" lon="1.670205">
        <ele>1488.989</ele>
        <time>2018-09-22T10:42:38Z</time>
      </trkpt>
      <trkpt lat="42.236721" lon="1.670222">
        <ele>1489.289</ele>
        <time>2018-09-22T10:42:39Z</time>
      </trkpt>
      <trkpt lat="42.236725" lon="1.670239">
        <ele>1489.406</ele>
        <time>2018-09-22T10:42:40Z</time>
      </trkpt>
      <trkpt lat="42.236730" lon="1.670300">
        <ele>1490.226</ele>
        <time>2018-09-22T10:42:44Z</time>
      </trkpt>
      <trkpt lat="42.236738" lon="1.670339">
        <ele>1490.608</ele>
        <time>2018-09-22T10:42:47Z</time>
      </trkpt>
      <trkpt lat="42.236739" lon="1.670353">
        <ele>1490.890</ele>
        <time>2018-09-22T10:42:48Z</time>
      </trkpt>
      <trkpt lat="42.236746" lon="1.670367">
        <ele>1490.986</ele>
        <time>2018-09-22T10:42:49Z</time>
      </trkpt>
      <trkpt lat="42.236764" lon="1.670416">
        <ele>1491.477</ele>
        <time>2018-09-22T10:42:52Z</time>
      </trkpt>
      <trkpt lat="42.236769" lon="1.670451">
        <ele>1491.851</ele>
        <time>2018-09-22T10:42:54Z</time>
      </trkpt>
      <trkpt lat="42.236772" lon="1.670476">
        <ele>1492.157</ele>
        <time>2018-09-22T10:42:56Z</time>
      </trkpt>
      <trkpt lat="42.236779" lon="1.670489">
        <ele>1492.237</ele>
        <time>2018-09-22T10:42:59Z</time>
      </trkpt>
      <trkpt lat="42.236782" lon="1.670493">
        <ele>1492.339</ele>
        <time>2018-09-22T10:43:00Z</time>
      </trkpt>
      <trkpt lat="42.236796" lon="1.670526">
        <ele>1492.671</ele>
        <time>2018-09-22T10:43:03Z</time>
      </trkpt>
      <trkpt lat="42.236800" lon="1.670534">
        <ele>1492.745</ele>
        <time>2018-09-22T10:43:04Z</time>
      </trkpt>
      <trkpt lat="42.236826" lon="1.670614">
        <ele>1493.847</ele>
        <time>2018-09-22T10:43:10Z</time>
      </trkpt>
      <trkpt lat="42.236849" lon="1.670687">
        <ele>1494.811</ele>
        <time>2018-09-22T10:43:16Z</time>
      </trkpt>
      <trkpt lat="42.236856" lon="1.670739">
        <ele>1495.608</ele>
        <time>2018-09-22T10:43:20Z</time>
      </trkpt>
      <trkpt lat="42.236865" lon="1.670770">
        <ele>1496.016</ele>
        <time>2018-09-22T10:43:22Z</time>
      </trkpt>
      <trkpt lat="42.236889" lon="1.670842">
        <ele>1497.112</ele>
        <time>2018-09-22T10:43:27Z</time>
      </trkpt>
      <trkpt lat="42.236897" lon="1.670865">
        <ele>1497.453</ele>
        <time>2018-09-22T10:43:29Z</time>
      </trkpt>
      <trkpt lat="42.236938" lon="1.670931">
        <ele>1498.467</ele>
        <time>2018-09-22T10:43:34Z</time>
      </trkpt>
      <trkpt lat="42.236965" lon="1.671012">
        <ele>1499.513</ele>
        <time>2018-09-22T10:43:40Z</time>
      </trkpt>
      <trkpt lat="42.236987" lon="1.671093">
        <ele>1500.783</ele>
        <time>2018-09-22T10:43:46Z</time>
      </trkpt>
      <trkpt lat="42.236993" lon="1.671109">
        <ele>1500.935</ele>
        <time>2018-09-22T10:43:47Z</time>
      </trkpt>
      <trkpt lat="42.237002" lon="1.671125">
        <ele>1501.267</ele>
        <time>2018-09-22T10:43:48Z</time>
      </trkpt>
      <trkpt lat="42.237033" lon="1.671189">
        <ele>1502.196</ele>
        <time>2018-09-22T10:43:52Z</time>
      </trkpt>
      <trkpt lat="42.237079" lon="1.671283">
        <ele>1503.431</ele>
        <time>2018-09-22T10:43:59Z</time>
      </trkpt>
      <trkpt lat="42.237086" lon="1.671294">
        <ele>1503.624</ele>
        <time>2018-09-22T10:44:00Z</time>
      </trkpt>
      <trkpt lat="42.237121" lon="1.671343">
        <ele>1504.308</ele>
        <time>2018-09-22T10:44:04Z</time>
      </trkpt>
      <trkpt lat="42.237138" lon="1.671372">
        <ele>1504.761</ele>
        <time>2018-09-22T10:44:06Z</time>
      </trkpt>
      <trkpt lat="42.237148" lon="1.671385">
        <ele>1504.947</ele>
        <time>2018-09-22T10:44:07Z</time>
      </trkpt>
      <trkpt lat="42.237169" lon="1.671444">
        <ele>1505.728</ele>
        <time>2018-09-22T10:44:11Z</time>
      </trkpt>
      <trkpt lat="42.237180" lon="1.671471">
        <ele>1506.112</ele>
        <time>2018-09-22T10:44:13Z</time>
      </trkpt>
      <trkpt lat="42.237206" lon="1.671563">
        <ele>1507.588</ele>
        <time>2018-09-22T10:44:19Z</time>
      </trkpt>
      <trkpt lat="42.237206" lon="1.671577">
        <ele>1507.728</ele>
        <time>2018-09-22T10:44:20Z</time>
      </trkpt>
      <trkpt lat="42.237212" lon="1.671637">
        <ele>1508.520</ele>
        <time>2018-09-22T10:44:24Z</time>
      </trkpt>
      <trkpt lat="42.237238" lon="1.671742">
        <ele>1509.832</ele>
        <time>2018-09-22T10:44:31Z</time>
      </trkpt>
      <trkpt lat="42.237251" lon="1.671830">
        <ele>1510.919</ele>
        <time>2018-09-22T10:44:37Z</time>
      </trkpt>
      <trkpt lat="42.237259" lon="1.671911">
        <ele>1511.809</ele>
        <time>2018-09-22T10:44:42Z</time>
      </trkpt>
      <trkpt lat="42.237266" lon="1.671944">
        <ele>1512.319</ele>
        <time>2018-09-22T10:44:44Z</time>
      </trkpt>
      <trkpt lat="42.237303" lon="1.672023">
        <ele>1513.608</ele>
        <time>2018-09-22T10:44:49Z</time>
      </trkpt>
      <trkpt lat="42.237310" lon="1.672069">
        <ele>1514.213</ele>
        <time>2018-09-22T10:44:52Z</time>
      </trkpt>
      <trkpt lat="42.237318" lon="1.672113">
        <ele>1514.939</ele>
        <time>2018-09-22T10:44:55Z</time>
      </trkpt>
      <trkpt lat="42.237324" lon="1.672160">
        <ele>1515.560</ele>
        <time>2018-09-22T10:44:58Z</time>
      </trkpt>
      <trkpt lat="42.237332" lon="1.672224">
        <ele>1516.414</ele>
        <time>2018-09-22T10:45:02Z</time>
      </trkpt>
      <trkpt lat="42.237364" lon="1.672306">
        <ele>1518.060</ele>
        <time>2018-09-22T10:45:08Z</time>
      </trkpt>
      <trkpt lat="42.237371" lon="1.672330">
        <ele>1518.490</ele>
        <time>2018-09-22T10:45:10Z</time>
      </trkpt>
      <trkpt lat="42.237362" lon="1.672390">
        <ele>1519.532</ele>
        <time>2018-09-22T10:45:14Z</time>
      </trkpt>
      <trkpt lat="42.237353" lon="1.672421">
        <ele>1520.054</ele>
        <time>2018-09-22T10:45:16Z</time>
      </trkpt>
      <trkpt lat="42.237341" lon="1.672444">
        <ele>1520.471</ele>
        <time>2018-09-22T10:45:18Z</time>
      </trkpt>
      <trkpt lat="42.237329" lon="1.672473">
        <ele>1520.941</ele>
        <time>2018-09-22T10:45:20Z</time>
      </trkpt>
      <trkpt lat="42.237320" lon="1.672520">
        <ele>1521.515</ele>
        <time>2018-09-22T10:45:23Z</time>
      </trkpt>
      <trkpt lat="42.237322" lon="1.672541">
        <ele>1521.708</ele>
        <time>2018-09-22T10:45:25Z</time>
      </trkpt>
      <trkpt lat="42.237317" lon="1.672543">
        <ele>1521.829</ele>
        <time>2018-09-22T10:45:26Z</time>
      </trkpt>
      <trkpt lat="42.237331" lon="1.672568">
        <ele>1522.145</ele>
        <time>2018-09-22T10:45:28Z</time>
      </trkpt>
      <trkpt lat="42.237336" lon="1.672584">
        <ele>1522.356</ele>
        <time>2018-09-22T10:45:29Z</time>
      </trkpt>
      <trkpt lat="42.237337" lon="1.672600">
        <ele>1522.420</ele>
        <time>2018-09-22T10:45:30Z</time>
      </trkpt>
      <trkpt lat="42.237342" lon="1.672648">
        <ele>1523.096</ele>
        <time>2018-09-22T10:45:33Z</time>
      </trkpt>
      <trkpt lat="42.237348" lon="1.672737">
        <ele>1524.016</ele>
        <time>2018-09-22T10:45:39Z</time>
      </trkpt>
      <trkpt lat="42.237354" lon="1.672752">
        <ele>1524.128</ele>
        <time>2018-09-22T10:45:40Z</time>
      </trkpt>
      <trkpt lat="42.237366" lon="1.672799">
        <ele>1524.820</ele>
        <time>2018-09-22T10:45:43Z</time>
      </trkpt>
      <trkpt lat="42.237366" lon="1.672831">
        <ele>1525.466</ele>
        <time>2018-09-22T10:45:45Z</time>
      </trkpt>
      <trkpt lat="42.237368" lon="1.672896">
        <ele>1526.629</ele>
        <time>2018-09-22T10:45:49Z</time>
      </trkpt>
      <trkpt lat="42.237368" lon="1.672911">
        <ele>1526.921</ele>
        <time>2018-09-22T10:45:50Z</time>
      </trkpt>
      <trkpt lat="42.237376" lon="1.672950">
        <ele>1527.608</ele>
        <time>2018-09-22T10:45:53Z</time>
      </trkpt>
      <trkpt lat="42.237388" lon="1.672979">
        <ele>1528.278</ele>
        <time>2018-09-22T10:45:55Z</time>
      </trkpt>
      <trkpt lat="42.237392" lon="1.672994">
        <ele>1528.514</ele>
        <time>2018-09-22T10:45:56Z</time>
      </trkpt>
      <trkpt lat="42.237389" lon="1.673058">
        <ele>1529.635</ele>
        <time>2018-09-22T10:46:01Z</time>
      </trkpt>
      <trkpt lat="42.237421" lon="1.673140">
        <ele>1530.999</ele>
        <time>2018-09-22T10:46:07Z</time>
      </trkpt>
      <trkpt lat="42.237427" lon="1.673169">
        <ele>1531.355</ele>
        <time>2018-09-22T10:46:09Z</time>
      </trkpt>
      <trkpt lat="42.237428" lon="1.673182">
        <ele>1531.575</ele>
        <time>2018-09-22T10:46:10Z</time>
      </trkpt>
      <trkpt lat="42.237424" lon="1.673252">
        <ele>1532.567</ele>
        <time>2018-09-22T10:46:15Z</time>
      </trkpt>
      <trkpt lat="42.237438" lon="1.673313">
        <ele>1533.479</ele>
        <time>2018-09-22T10:46:19Z</time>
      </trkpt>
      <trkpt lat="42.237445" lon="1.673345">
        <ele>1534.054</ele>
        <time>2018-09-22T10:46:21Z</time>
      </trkpt>
      <trkpt lat="42.237447" lon="1.673363">
        <ele>1534.456</ele>
        <time>2018-09-22T10:46:22Z</time>
      </trkpt>
      <trkpt lat="42.237441" lon="1.673392">
        <ele>1535.011</ele>
        <time>2018-09-22T10:46:24Z</time>
      </trkpt>
      <trkpt lat="42.237427" lon="1.673429">
        <ele>1535.708</ele>
        <time>2018-09-22T10:46:27Z</time>
      </trkpt>
      <trkpt lat="42.237402" lon="1.673493">
        <ele>1536.817</ele>
        <time>2018-09-22T10:46:32Z</time>
      </trkpt>
      <trkpt lat="42.237389" lon="1.673539">
        <ele>1537.763</ele>
        <time>2018-09-22T10:46:35Z</time>
      </trkpt>
      <trkpt lat="42.237381" lon="1.673553">
        <ele>1537.994</ele>
        <time>2018-09-22T10:46:36Z</time>
      </trkpt>
      <trkpt lat="42.237374" lon="1.673567">
        <ele>1538.258</ele>
        <time>2018-09-22T10:46:37Z</time>
      </trkpt>
      <trkpt lat="42.237363" lon="1.673624">
        <ele>1539.154</ele>
        <time>2018-09-22T10:46:41Z</time>
      </trkpt>
      <trkpt lat="42.237363" lon="1.673726">
        <ele>1540.684</ele>
        <time>2018-09-22T10:46:48Z</time>
      </trkpt>
      <trkpt lat="42.237363" lon="1.673764">
        <ele>1541.236</ele>
        <time>2018-09-22T10:46:51Z</time>
      </trkpt>
      <trkpt lat="42.237353" lon="1.673791">
        <ele>1541.568</ele>
        <time>2018-09-22T10:46:53Z</time>
      </trkpt>
      <trkpt lat="42.237350" lon="1.673819">
        <ele>1541.983</ele>
        <time>2018-09-22T10:46:55Z</time>
      </trkpt>
      <trkpt lat="42.237342" lon="1.673842">
        <ele>1542.125</ele>
        <time>2018-09-22T10:46:57Z</time>
      </trkpt>
      <trkpt lat="42.237343" lon="1.673882">
        <ele>1542.717</ele>
        <time>2018-09-22T10:47:00Z</time>
      </trkpt>
      <trkpt lat="42.237341" lon="1.673924">
        <ele>1543.408</ele>
        <time>2018-09-22T10:47:03Z</time>
      </trkpt>
      <trkpt lat="42.237323" lon="1.673998">
        <ele>1544.630</ele>
        <time>2018-09-22T10:47:08Z</time>
      </trkpt>
      <trkpt lat="42.237304" lon="1.674047">
        <ele>1545.476</ele>
        <time>2018-09-22T10:47:12Z</time>
      </trkpt>
      <trkpt lat="42.237287" lon="1.674106">
        <ele>1546.357</ele>
        <time>2018-09-22T10:47:17Z</time>
      </trkpt>
      <trkpt lat="42.237287" lon="1.674142">
        <ele>1547.051</ele>
        <time>2018-09-22T10:47:19Z</time>
      </trkpt>
      <trkpt lat="42.237291" lon="1.674239">
        <ele>1548.637</ele>
        <time>2018-09-22T10:47:25Z</time>
      </trkpt>
      <trkpt lat="42.237296" lon="1.674303">
        <ele>1549.687</ele>
        <time>2018-09-22T10:47:29Z</time>
      </trkpt>
      <trkpt lat="42.237293" lon="1.674351">
        <ele>1550.389</ele>
        <time>2018-09-22T10:47:32Z</time>
      </trkpt>
      <trkpt lat="42.237300" lon="1.674403">
        <ele>1551.271</ele>
        <time>2018-09-22T10:47:35Z</time>
      </trkpt>
      <trkpt lat="42.237298" lon="1.674435">
        <ele>1551.613</ele>
        <time>2018-09-22T10:47:37Z</time>
      </trkpt>
      <trkpt lat="42.237294" lon="1.674449">
        <ele>1551.843</ele>
        <time>2018-09-22T10:47:38Z</time>
      </trkpt>
      <trkpt lat="42.237274" lon="1.674493">
        <ele>1552.207</ele>
        <time>2018-09-22T10:47:41Z</time>
      </trkpt>
      <trkpt lat="42.237254" lon="1.674528">
        <ele>1552.508</ele>
        <time>2018-09-22T10:47:44Z</time>
      </trkpt>
      <trkpt lat="42.237225" lon="1.674577">
        <ele>1552.913</ele>
        <time>2018-09-22T10:47:48Z</time>
      </trkpt>
      <trkpt lat="42.237197" lon="1.674659">
        <ele>1553.829</ele>
        <time>2018-09-22T10:47:54Z</time>
      </trkpt>
      <trkpt lat="42.237171" lon="1.674754">
        <ele>1554.950</ele>
        <time>2018-09-22T10:48:00Z</time>
      </trkpt>
      <trkpt lat="42.237150" lon="1.674810">
        <ele>1555.464</ele>
        <time>2018-09-22T10:48:04Z</time>
      </trkpt>
      <trkpt lat="42.237134" lon="1.674842">
        <ele>1555.710</ele>
        <time>2018-09-22T10:48:07Z</time>
      </trkpt>
      <trkpt lat="42.237130" lon="1.674845">
        <ele>1555.760</ele>
        <time>2018-09-22T10:48:08Z</time>
      </trkpt>
      <trkpt lat="42.237127" lon="1.674842">
        <ele>1555.742</ele>
        <time>2018-09-22T10:48:09Z</time>
      </trkpt>
      <trkpt lat="42.237126" lon="1.674839">
        <ele>1555.644</ele>
        <time>2018-09-22T10:48:10Z</time>
      </trkpt>
      <trkpt lat="42.237116" lon="1.674831">
        <ele>1555.438</ele>
        <time>2018-09-22T10:48:24Z</time>
      </trkpt>
      <trkpt lat="42.237125" lon="1.674889">
        <ele>1556.370</ele>
        <time>2018-09-22T10:48:28Z</time>
      </trkpt>
      <trkpt lat="42.237145" lon="1.674930">
        <ele>1557.117</ele>
        <time>2018-09-22T10:48:31Z</time>
      </trkpt>
      <trkpt lat="42.237154" lon="1.674958">
        <ele>1557.608</ele>
        <time>2018-09-22T10:48:33Z</time>
      </trkpt>
      <trkpt lat="42.237158" lon="1.674990">
        <ele>1558.165</ele>
        <time>2018-09-22T10:48:35Z</time>
      </trkpt>
      <trkpt lat="42.237158" lon="1.675010">
        <ele>1558.471</ele>
        <time>2018-09-22T10:48:36Z</time>
      </trkpt>
      <trkpt lat="42.237181" lon="1.675040">
        <ele>1559.142</ele>
        <time>2018-09-22T10:48:38Z</time>
      </trkpt>
      <trkpt lat="42.237224" lon="1.675080">
        <ele>1560.126</ele>
        <time>2018-09-22T10:48:42Z</time>
      </trkpt>
      <trkpt lat="42.237278" lon="1.675132">
        <ele>1561.572</ele>
        <time>2018-09-22T10:48:47Z</time>
      </trkpt>
      <trkpt lat="42.237299" lon="1.675182">
        <ele>1562.432</ele>
        <time>2018-09-22T10:48:51Z</time>
      </trkpt>
      <trkpt lat="42.237300" lon="1.675195">
        <ele>1562.674</ele>
        <time>2018-09-22T10:48:52Z</time>
      </trkpt>
      <trkpt lat="42.237308" lon="1.675235">
        <ele>1563.396</ele>
        <time>2018-09-22T10:48:55Z</time>
      </trkpt>
      <trkpt lat="42.237305" lon="1.675246">
        <ele>1563.498</ele>
        <time>2018-09-22T10:48:56Z</time>
      </trkpt>
      <trkpt lat="42.237329" lon="1.675334">
        <ele>1564.815</ele>
        <time>2018-09-22T10:49:03Z</time>
      </trkpt>
      <trkpt lat="42.237336" lon="1.675348">
        <ele>1565.126</ele>
        <time>2018-09-22T10:49:04Z</time>
      </trkpt>
      <trkpt lat="42.237353" lon="1.675372">
        <ele>1565.608</ele>
        <time>2018-09-22T10:49:06Z</time>
      </trkpt>
      <trkpt lat="42.237363" lon="1.675397">
        <ele>1566.011</ele>
        <time>2018-09-22T10:49:08Z</time>
      </trkpt>
      <trkpt lat="42.237371" lon="1.675437">
        <ele>1566.557</ele>
        <time>2018-09-22T10:49:11Z</time>
      </trkpt>
      <trkpt lat="42.237367" lon="1.675465">
        <ele>1566.918</ele>
        <time>2018-09-22T10:49:13Z</time>
      </trkpt>
      <trkpt lat="42.237366" lon="1.675493">
        <ele>1567.222</ele>
        <time>2018-09-22T10:49:15Z</time>
      </trkpt>
      <trkpt lat="42.237362" lon="1.675547">
        <ele>1567.898</ele>
        <time>2018-09-22T10:49:19Z</time>
      </trkpt>
      <trkpt lat="42.237364" lon="1.675557">
        <ele>1568.038</ele>
        <time>2018-09-22T10:49:20Z</time>
      </trkpt>
      <trkpt lat="42.237364" lon="1.675567">
        <ele>1568.140</ele>
        <time>2018-09-22T10:49:21Z</time>
      </trkpt>
      <trkpt lat="42.237361" lon="1.675604">
        <ele>1568.642</ele>
        <time>2018-09-22T10:49:25Z</time>
      </trkpt>
      <trkpt lat="42.237366" lon="1.675628">
        <ele>1568.991</ele>
        <time>2018-09-22T10:49:27Z</time>
      </trkpt>
      <trkpt lat="42.237383" lon="1.675675">
        <ele>1569.681</ele>
        <time>2018-09-22T10:49:31Z</time>
      </trkpt>
      <trkpt lat="42.237427" lon="1.675759">
        <ele>1571.219</ele>
        <time>2018-09-22T10:49:37Z</time>
      </trkpt>
      <trkpt lat="42.237436" lon="1.675786">
        <ele>1571.608</ele>
        <time>2018-09-22T10:49:39Z</time>
      </trkpt>
      <trkpt lat="42.237448" lon="1.675842">
        <ele>1572.571</ele>
        <time>2018-09-22T10:49:43Z</time>
      </trkpt>
      <trkpt lat="42.237460" lon="1.675875">
        <ele>1572.987</ele>
        <time>2018-09-22T10:49:46Z</time>
      </trkpt>
      <trkpt lat="42.237453" lon="1.675895">
        <ele>1573.158</ele>
        <time>2018-09-22T10:49:48Z</time>
      </trkpt>
      <trkpt lat="42.237452" lon="1.675923">
        <ele>1573.342</ele>
        <time>2018-09-22T10:49:50Z</time>
      </trkpt>
      <trkpt lat="42.237451" lon="1.675938">
        <ele>1573.578</ele>
        <time>2018-09-22T10:49:51Z</time>
      </trkpt>
      <trkpt lat="42.237426" lon="1.675991">
        <ele>1573.758</ele>
        <time>2018-09-22T10:49:55Z</time>
      </trkpt>
      <trkpt lat="42.237405" lon="1.676018">
        <ele>1573.770</ele>
        <time>2018-09-22T10:49:58Z</time>
      </trkpt>
      <trkpt lat="42.237387" lon="1.676042">
        <ele>1573.712</ele>
        <time>2018-09-22T10:50:00Z</time>
      </trkpt>
      <trkpt lat="42.237347" lon="1.676083">
        <ele>1573.546</ele>
        <time>2018-09-22T10:50:04Z</time>
      </trkpt>
      <trkpt lat="42.237333" lon="1.676114">
        <ele>1573.688</ele>
        <time>2018-09-22T10:50:06Z</time>
      </trkpt>
      <trkpt lat="42.237330" lon="1.676126">
        <ele>1573.816</ele>
        <time>2018-09-22T10:50:07Z</time>
      </trkpt>
      <trkpt lat="42.237327" lon="1.676158">
        <ele>1574.308</ele>
        <time>2018-09-22T10:50:09Z</time>
      </trkpt>
      <trkpt lat="42.237304" lon="1.676218">
        <ele>1575.166</ele>
        <time>2018-09-22T10:50:13Z</time>
      </trkpt>
      <trkpt lat="42.237300" lon="1.676226">
        <ele>1575.222</ele>
        <time>2018-09-22T10:50:14Z</time>
      </trkpt>
      <trkpt lat="42.237292" lon="1.676234">
        <ele>1575.393</ele>
        <time>2018-09-22T10:50:15Z</time>
      </trkpt>
      <trkpt lat="42.237278" lon="1.676241">
        <ele>1575.327</ele>
        <time>2018-09-22T10:50:16Z</time>
      </trkpt>
      <trkpt lat="42.237231" lon="1.676254">
        <ele>1575.143</ele>
        <time>2018-09-22T10:50:20Z</time>
      </trkpt>
      <trkpt lat="42.237185" lon="1.676316">
        <ele>1576.873</ele>
        <time>2018-09-22T10:50:26Z</time>
      </trkpt>
      <trkpt lat="42.237178" lon="1.676318">
        <ele>1576.955</ele>
        <time>2018-09-22T10:50:27Z</time>
      </trkpt>
      <trkpt lat="42.237170" lon="1.676355">
        <ele>1577.987</ele>
        <time>2018-09-22T10:50:34Z</time>
      </trkpt>
      <trkpt lat="42.237156" lon="1.676376">
        <ele>1578.694</ele>
        <time>2018-09-22T10:50:38Z</time>
      </trkpt>
      <trkpt lat="42.237151" lon="1.676419">
        <ele>1579.957</ele>
        <time>2018-09-22T10:50:42Z</time>
      </trkpt>
      <trkpt lat="42.237143" lon="1.676425">
        <ele>1580.222</ele>
        <time>2018-09-22T10:50:44Z</time>
      </trkpt>
      <trkpt lat="42.237146" lon="1.676448">
        <ele>1580.908</ele>
        <time>2018-09-22T10:50:47Z</time>
      </trkpt>
      <trkpt lat="42.237150" lon="1.676471">
        <ele>1581.511</ele>
        <time>2018-09-22T10:50:51Z</time>
      </trkpt>
      <trkpt lat="42.237152" lon="1.676506">
        <ele>1582.687</ele>
        <time>2018-09-22T10:50:55Z</time>
      </trkpt>
      <trkpt lat="42.237156" lon="1.676523">
        <ele>1583.068</ele>
        <time>2018-09-22T10:50:57Z</time>
      </trkpt>
      <trkpt lat="42.237177" lon="1.676558">
        <ele>1583.722</ele>
        <time>2018-09-22T10:51:00Z</time>
      </trkpt>
      <trkpt lat="42.237198" lon="1.676590">
        <ele>1584.248</ele>
        <time>2018-09-22T10:51:03Z</time>
      </trkpt>
      <trkpt lat="42.237206" lon="1.676616">
        <ele>1584.898</ele>
        <time>2018-09-22T10:51:06Z</time>
      </trkpt>
      <trkpt lat="42.237185" lon="1.676674">
        <ele>1587.020</ele>
        <time>2018-09-22T10:51:13Z</time>
      </trkpt>
      <trkpt lat="42.237179" lon="1.676679">
        <ele>1587.332</ele>
        <time>2018-09-22T10:51:14Z</time>
      </trkpt>
      <trkpt lat="42.237170" lon="1.676683">
        <ele>1587.617</ele>
        <time>2018-09-22T10:51:15Z</time>
      </trkpt>
      <trkpt lat="42.237160" lon="1.676698">
        <ele>1588.387</ele>
        <time>2018-09-22T10:51:17Z</time>
      </trkpt>
      <trkpt lat="42.237158" lon="1.676724">
        <ele>1589.315</ele>
        <time>2018-09-22T10:51:22Z</time>
      </trkpt>
      <trkpt lat="42.237147" lon="1.676765">
        <ele>1590.908</ele>
        <time>2018-09-22T10:51:27Z</time>
      </trkpt>
      <trkpt lat="42.237137" lon="1.676796">
        <ele>1592.113</ele>
        <time>2018-09-22T10:51:31Z</time>
      </trkpt>
      <trkpt lat="42.237134" lon="1.676802">
        <ele>1592.429</ele>
        <time>2018-09-22T10:51:32Z</time>
      </trkpt>
      <trkpt lat="42.237116" lon="1.676800">
        <ele>1592.860</ele>
        <time>2018-09-22T10:51:34Z</time>
      </trkpt>
      <trkpt lat="42.237104" lon="1.676801">
        <ele>1593.174</ele>
        <time>2018-09-22T10:51:36Z</time>
      </trkpt>
      <trkpt lat="42.237094" lon="1.676813">
        <ele>1593.790</ele>
        <time>2018-09-22T10:51:38Z</time>
      </trkpt>
      <trkpt lat="42.237087" lon="1.676848">
        <ele>1595.160</ele>
        <time>2018-09-22T10:51:42Z</time>
      </trkpt>
      <trkpt lat="42.237081" lon="1.676872">
        <ele>1596.032</ele>
        <time>2018-09-22T10:51:46Z</time>
      </trkpt>
      <trkpt lat="42.237078" lon="1.676873">
        <ele>1596.144</ele>
        <time>2018-09-22T10:51:47Z</time>
      </trkpt>
      <trkpt lat="42.237071" lon="1.676877">
        <ele>1596.424</ele>
        <time>2018-09-22T10:51:48Z</time>
      </trkpt>
      <trkpt lat="42.237065" lon="1.676889">
        <ele>1597.004</ele>
        <time>2018-09-22T10:51:50Z</time>
      </trkpt>
      <trkpt lat="42.237074" lon="1.676929">
        <ele>1598.114</ele>
        <time>2018-09-22T10:51:55Z</time>
      </trkpt>
      <trkpt lat="42.237071" lon="1.676932">
        <ele>1598.408</ele>
        <time>2018-09-22T10:51:56Z</time>
      </trkpt>
      <trkpt lat="42.237044" lon="1.676943">
        <ele>1599.494</ele>
        <time>2018-09-22T10:52:00Z</time>
      </trkpt>
      <trkpt lat="42.237031" lon="1.676947">
        <ele>1599.990</ele>
        <time>2018-09-22T10:52:02Z</time>
      </trkpt>
      <trkpt lat="42.237026" lon="1.676958">
        <ele>1600.461</ele>
        <time>2018-09-22T10:52:04Z</time>
      </trkpt>
      <trkpt lat="42.237032" lon="1.676989">
        <ele>1601.585</ele>
        <time>2018-09-22T10:52:07Z</time>
      </trkpt>
      <trkpt lat="42.237032" lon="1.676995">
        <ele>1601.711</ele>
        <time>2018-09-22T10:52:08Z</time>
      </trkpt>
      <trkpt lat="42.237032" lon="1.677014">
        <ele>1602.471</ele>
        <time>2018-09-22T10:52:10Z</time>
      </trkpt>
      <trkpt lat="42.237047" lon="1.677035">
        <ele>1602.983</ele>
        <time>2018-09-22T10:52:15Z</time>
      </trkpt>
      <trkpt lat="42.237048" lon="1.677040">
        <ele>1603.015</ele>
        <time>2018-09-22T10:52:16Z</time>
      </trkpt>
      <trkpt lat="42.237046" lon="1.677028">
        <ele>1602.669</ele>
        <time>2018-09-22T10:52:20Z</time>
      </trkpt>
      <trkpt lat="42.237048" lon="1.677045">
        <ele>1603.204</ele>
        <time>2018-09-22T10:52:23Z</time>
      </trkpt>
      <trkpt lat="42.237043" lon="1.677068">
        <ele>1604.224</ele>
        <time>2018-09-22T10:52:28Z</time>
      </trkpt>
      <trkpt lat="42.237052" lon="1.677116">
        <ele>1605.808</ele>
        <time>2018-09-22T10:52:35Z</time>
      </trkpt>
      <trkpt lat="42.237084" lon="1.677147">
        <ele>1606.148</ele>
        <time>2018-09-22T10:52:39Z</time>
      </trkpt>
      <trkpt lat="42.237106" lon="1.677165">
        <ele>1606.124</ele>
        <time>2018-09-22T10:52:41Z</time>
      </trkpt>
      <trkpt lat="42.237113" lon="1.677173">
        <ele>1606.285</ele>
        <time>2018-09-22T10:52:43Z</time>
      </trkpt>
      <trkpt lat="42.237102" lon="1.677180">
        <ele>1606.819</ele>
        <time>2018-09-22T10:52:45Z</time>
      </trkpt>
      <trkpt lat="42.237061" lon="1.677198">
        <ele>1608.735</ele>
        <time>2018-09-22T10:52:49Z</time>
      </trkpt>
      <trkpt lat="42.237060" lon="1.677210">
        <ele>1609.175</ele>
        <time>2018-09-22T10:52:50Z</time>
      </trkpt>
      <trkpt lat="42.237045" lon="1.677226">
        <ele>1610.257</ele>
        <time>2018-09-22T10:52:54Z</time>
      </trkpt>
      <trkpt lat="42.237056" lon="1.677267">
        <ele>1611.679</ele>
        <time>2018-09-22T10:52:59Z</time>
      </trkpt>
      <trkpt lat="42.237055" lon="1.677290">
        <ele>1612.657</ele>
        <time>2018-09-22T10:53:03Z</time>
      </trkpt>
      <trkpt lat="42.237060" lon="1.677304">
        <ele>1613.000</ele>
        <time>2018-09-22T10:53:04Z</time>
      </trkpt>
      <trkpt lat="42.237062" lon="1.677314">
        <ele>1613.420</ele>
        <time>2018-09-22T10:53:05Z</time>
      </trkpt>
      <trkpt lat="42.237061" lon="1.677334">
        <ele>1614.308</ele>
        <time>2018-09-22T10:53:07Z</time>
      </trkpt>
      <trkpt lat="42.237060" lon="1.677340">
        <ele>1614.527</ele>
        <time>2018-09-22T10:53:08Z</time>
      </trkpt>
      <trkpt lat="42.237061" lon="1.677349">
        <ele>1614.993</ele>
        <time>2018-09-22T10:53:09Z</time>
      </trkpt>
      <trkpt lat="42.237061" lon="1.677357">
        <ele>1615.244</ele>
        <time>2018-09-22T10:53:10Z</time>
      </trkpt>
      <trkpt lat="42.237064" lon="1.677369">
        <ele>1615.698</ele>
        <time>2018-09-22T10:53:11Z</time>
      </trkpt>
      <trkpt lat="42.237063" lon="1.677390">
        <ele>1616.534</ele>
        <time>2018-09-22T10:53:15Z</time>
      </trkpt>
      <trkpt lat="42.237061" lon="1.677394">
        <ele>1616.894</ele>
        <time>2018-09-22T10:53:16Z</time>
      </trkpt>
      <trkpt lat="42.237041" lon="1.677397">
        <ele>1617.576</ele>
        <time>2018-09-22T10:53:20Z</time>
      </trkpt>
      <trkpt lat="42.237039" lon="1.677411">
        <ele>1618.188</ele>
        <time>2018-09-22T10:53:21Z</time>
      </trkpt>
      <trkpt lat="42.237036" lon="1.677455">
        <ele>1620.185</ele>
        <time>2018-09-22T10:53:26Z</time>
      </trkpt>
      <trkpt lat="42.237039" lon="1.677458">
        <ele>1620.189</ele>
        <time>2018-09-22T10:53:27Z</time>
      </trkpt>
      <trkpt lat="42.237035" lon="1.677490">
        <ele>1621.617</ele>
        <time>2018-09-22T10:53:32Z</time>
      </trkpt>
      <trkpt lat="42.237035" lon="1.677519">
        <ele>1622.808</ele>
        <time>2018-09-22T10:53:36Z</time>
      </trkpt>
      <trkpt lat="42.237039" lon="1.677550">
        <ele>1624.060</ele>
        <time>2018-09-22T10:53:41Z</time>
      </trkpt>
      <trkpt lat="42.237041" lon="1.677562">
        <ele>1624.466</ele>
        <time>2018-09-22T10:53:42Z</time>
      </trkpt>
      <trkpt lat="42.237046" lon="1.677575">
        <ele>1624.827</ele>
        <time>2018-09-22T10:53:44Z</time>
      </trkpt>
      <trkpt lat="42.237049" lon="1.677610">
        <ele>1626.271</ele>
        <time>2018-09-22T10:53:49Z</time>
      </trkpt>
      <trkpt lat="42.237047" lon="1.677618">
        <ele>1626.567</ele>
        <time>2018-09-22T10:53:50Z</time>
      </trkpt>
      <trkpt lat="42.237041" lon="1.677632">
        <ele>1627.327</ele>
        <time>2018-09-22T10:53:52Z</time>
      </trkpt>
      <trkpt lat="42.237040" lon="1.677634">
        <ele>1627.579</ele>
        <time>2018-09-22T10:53:54Z</time>
      </trkpt>
      <trkpt lat="42.237017" lon="1.677639">
        <ele>1628.581</ele>
        <time>2018-09-22T10:53:58Z</time>
      </trkpt>
      <trkpt lat="42.236998" lon="1.677652">
        <ele>1629.675</ele>
        <time>2018-09-22T10:54:04Z</time>
      </trkpt>
      <trkpt lat="42.236998" lon="1.677655">
        <ele>1629.828</ele>
        <time>2018-09-22T10:54:05Z</time>
      </trkpt>
      <trkpt lat="42.236971" lon="1.677648">
        <ele>1630.420</ele>
        <time>2018-09-22T10:54:09Z</time>
      </trkpt>
      <trkpt lat="42.236946" lon="1.677650">
        <ele>1631.408</ele>
        <time>2018-09-22T10:54:12Z</time>
      </trkpt>
      <trkpt lat="42.236940" lon="1.677650">
        <ele>1631.689</ele>
        <time>2018-09-22T10:54:14Z</time>
      </trkpt>
      <trkpt lat="42.236894" lon="1.677666">
        <ele>1633.915</ele>
        <time>2018-09-22T10:54:20Z</time>
      </trkpt>
      <trkpt lat="42.236852" lon="1.677679">
        <ele>1636.026</ele>
        <time>2018-09-22T10:54:26Z</time>
      </trkpt>
      <trkpt lat="42.236844" lon="1.677678">
        <ele>1636.290</ele>
        <time>2018-09-22T10:54:27Z</time>
      </trkpt>
      <trkpt lat="42.236840" lon="1.677681">
        <ele>1636.576</ele>
        <time>2018-09-22T10:54:28Z</time>
      </trkpt>
      <trkpt lat="42.236829" lon="1.677686">
        <ele>1637.156</ele>
        <time>2018-09-22T10:54:33Z</time>
      </trkpt>
      <trkpt lat="42.236827" lon="1.677691">
        <ele>1637.428</ele>
        <time>2018-09-22T10:54:34Z</time>
      </trkpt>
      <trkpt lat="42.236845" lon="1.677722">
        <ele>1638.180</ele>
        <time>2018-09-22T10:54:39Z</time>
      </trkpt>
      <trkpt lat="42.236850" lon="1.677731">
        <ele>1638.338</ele>
        <time>2018-09-22T10:54:44Z</time>
      </trkpt>
      <trkpt lat="42.236858" lon="1.677756">
        <ele>1639.170</ele>
        <time>2018-09-22T10:54:49Z</time>
      </trkpt>
      <trkpt lat="42.236857" lon="1.677767">
        <ele>1639.617</ele>
        <time>2018-09-22T10:54:52Z</time>
      </trkpt>
      <trkpt lat="42.236856" lon="1.677780">
        <ele>1640.208</ele>
        <time>2018-09-22T10:54:54Z</time>
      </trkpt>
      <trkpt lat="42.236855" lon="1.677786">
        <ele>1640.595</ele>
        <time>2018-09-22T10:54:55Z</time>
      </trkpt>
      <trkpt lat="42.236849" lon="1.677790">
        <ele>1640.921</ele>
        <time>2018-09-22T10:54:56Z</time>
      </trkpt>
      <trkpt lat="42.236840" lon="1.677791">
        <ele>1641.392</ele>
        <time>2018-09-22T10:54:57Z</time>
      </trkpt>
      <trkpt lat="42.236817" lon="1.677790">
        <ele>1642.136</ele>
        <time>2018-09-22T10:54:59Z</time>
      </trkpt>
      <trkpt lat="42.236806" lon="1.677783">
        <ele>1642.252</ele>
        <time>2018-09-22T10:55:01Z</time>
      </trkpt>
      <trkpt lat="42.236807" lon="1.677815">
        <ele>1643.622</ele>
        <time>2018-09-22T10:55:07Z</time>
      </trkpt>
      <trkpt lat="42.236810" lon="1.677816">
        <ele>1643.514</ele>
        <time>2018-09-22T10:55:08Z</time>
      </trkpt>
      <trkpt lat="42.236816" lon="1.677814">
        <ele>1643.266</ele>
        <time>2018-09-22T10:55:09Z</time>
      </trkpt>
      <trkpt lat="42.236807" lon="1.677817">
        <ele>1643.787</ele>
        <time>2018-09-22T10:55:12Z</time>
      </trkpt>
      <trkpt lat="42.236776" lon="1.677822">
        <ele>1645.042</ele>
        <time>2018-09-22T10:55:17Z</time>
      </trkpt>
      <trkpt lat="42.236759" lon="1.677830">
        <ele>1646.026</ele>
        <time>2018-09-22T10:55:20Z</time>
      </trkpt>
      <trkpt lat="42.236748" lon="1.677833">
        <ele>1646.608</ele>
        <time>2018-09-22T10:55:25Z</time>
      </trkpt>
      <trkpt lat="42.236764" lon="1.677843">
        <ele>1646.420</ele>
        <time>2018-09-22T10:55:30Z</time>
      </trkpt>
      <trkpt lat="42.236786" lon="1.677860">
        <ele>1646.416</ele>
        <time>2018-09-22T10:55:34Z</time>
      </trkpt>
      <trkpt lat="42.236806" lon="1.677873">
        <ele>1646.277</ele>
        <time>2018-09-22T10:55:38Z</time>
      </trkpt>
      <trkpt lat="42.236816" lon="1.677875">
        <ele>1645.911</ele>
        <time>2018-09-22T10:55:39Z</time>
      </trkpt>
      <trkpt lat="42.236825" lon="1.677894">
        <ele>1646.417</ele>
        <time>2018-09-22T10:55:43Z</time>
      </trkpt>
      <trkpt lat="42.236811" lon="1.677918">
        <ele>1648.187</ele>
        <time>2018-09-22T10:55:47Z</time>
      </trkpt>
      <trkpt lat="42.236820" lon="1.677973">
        <ele>1650.299</ele>
        <time>2018-09-22T10:55:53Z</time>
      </trkpt>
      <trkpt lat="42.236819" lon="1.677977">
        <ele>1650.441</ele>
        <time>2018-09-22T10:55:54Z</time>
      </trkpt>
      <trkpt lat="42.236820" lon="1.677988">
        <ele>1650.887</ele>
        <time>2018-09-22T10:55:56Z</time>
      </trkpt>
      <trkpt lat="42.236819" lon="1.678016">
        <ele>1652.242</ele>
        <time>2018-09-22T10:55:58Z</time>
      </trkpt>
      <trkpt lat="42.236814" lon="1.678026">
        <ele>1652.826</ele>
        <time>2018-09-22T10:55:59Z</time>
      </trkpt>
      <trkpt lat="42.236815" lon="1.678051">
        <ele>1653.908</ele>
        <time>2018-09-22T10:56:01Z</time>
      </trkpt>
      <trkpt lat="42.236829" lon="1.678092">
        <ele>1655.130</ele>
        <time>2018-09-22T10:56:06Z</time>
      </trkpt>
      <trkpt lat="42.236831" lon="1.678098">
        <ele>1655.336</ele>
        <time>2018-09-22T10:56:07Z</time>
      </trkpt>
      <trkpt lat="42.236841" lon="1.678128">
        <ele>1656.217</ele>
        <time>2018-09-22T10:56:12Z</time>
      </trkpt>
      <trkpt lat="42.236866" lon="1.678165">
        <ele>1656.891</ele>
        <time>2018-09-22T10:56:17Z</time>
      </trkpt>
      <trkpt lat="42.236866" lon="1.678176">
        <ele>1657.347</ele>
        <time>2018-09-22T10:56:18Z</time>
      </trkpt>
      <trkpt lat="42.236838" lon="1.678197">
        <ele>1659.357</ele>
        <time>2018-09-22T10:56:23Z</time>
      </trkpt>
      <trkpt lat="42.236832" lon="1.678196">
        <ele>1659.549</ele>
        <time>2018-09-22T10:56:24Z</time>
      </trkpt>
      <trkpt lat="42.236824" lon="1.678190">
        <ele>1659.551</ele>
        <time>2018-09-22T10:56:26Z</time>
      </trkpt>
      <trkpt lat="42.236811" lon="1.678191">
        <ele>1660.122</ele>
        <time>2018-09-22T10:56:28Z</time>
      </trkpt>
      <trkpt lat="42.236786" lon="1.678203">
        <ele>1661.662</ele>
        <time>2018-09-22T10:56:33Z</time>
      </trkpt>
      <trkpt lat="42.236780" lon="1.678201">
        <ele>1661.808</ele>
        <time>2018-09-22T10:56:34Z</time>
      </trkpt>
      <trkpt lat="42.236774" lon="1.678200">
        <ele>1661.908</ele>
        <time>2018-09-22T10:56:35Z</time>
      </trkpt>
      <trkpt lat="42.236763" lon="1.678206">
        <ele>1662.634</ele>
        <time>2018-09-22T10:56:38Z</time>
      </trkpt>
      <trkpt lat="42.236752" lon="1.678215">
        <ele>1663.590</ele>
        <time>2018-09-22T10:56:40Z</time>
      </trkpt>
      <trkpt lat="42.236753" lon="1.678229">
        <ele>1664.061</ele>
        <time>2018-09-22T10:56:44Z</time>
      </trkpt>
      <trkpt lat="42.236743" lon="1.678236">
        <ele>1664.725</ele>
        <time>2018-09-22T10:56:47Z</time>
      </trkpt>
      <trkpt lat="42.236748" lon="1.678242">
        <ele>1664.711</ele>
        <time>2018-09-22T10:56:49Z</time>
      </trkpt>
      <trkpt lat="42.236754" lon="1.678246">
        <ele>1664.771</ele>
        <time>2018-09-22T10:56:52Z</time>
      </trkpt>
      <trkpt lat="42.236798" lon="1.678278">
        <ele>1664.373</ele>
        <time>2018-09-22T10:57:01Z</time>
      </trkpt>
      <trkpt lat="42.236783" lon="1.678294">
        <ele>1665.675</ele>
        <time>2018-09-22T10:57:05Z</time>
      </trkpt>
      <trkpt lat="42.236776" lon="1.678298">
        <ele>1666.183</ele>
        <time>2018-09-22T10:57:06Z</time>
      </trkpt>
      <trkpt lat="42.236772" lon="1.678312">
        <ele>1666.925</ele>
        <time>2018-09-22T10:57:07Z</time>
      </trkpt>
      <trkpt lat="42.236768" lon="1.678321">
        <ele>1667.417</ele>
        <time>2018-09-22T10:57:08Z</time>
      </trkpt>
      <trkpt lat="42.236765" lon="1.678328">
        <ele>1667.808</ele>
        <time>2018-09-22T10:57:09Z</time>
      </trkpt>
      <trkpt lat="42.236774" lon="1.678344">
        <ele>1668.120</ele>
        <time>2018-09-22T10:57:12Z</time>
      </trkpt>
      <trkpt lat="42.236777" lon="1.678355">
        <ele>1668.536</ele>
        <time>2018-09-22T10:57:13Z</time>
      </trkpt>
      <trkpt lat="42.236784" lon="1.678361">
        <ele>1668.547</ele>
        <time>2018-09-22T10:57:14Z</time>
      </trkpt>
      <trkpt lat="42.236787" lon="1.678433">
        <ele>1671.331</ele>
        <time>2018-09-22T10:57:24Z</time>
      </trkpt>
      <trkpt lat="42.236788" lon="1.678436">
        <ele>1671.497</ele>
        <time>2018-09-22T10:57:25Z</time>
      </trkpt>
      <trkpt lat="42.236799" lon="1.678448">
        <ele>1671.517</ele>
        <time>2018-09-22T10:57:28Z</time>
      </trkpt>
      <trkpt lat="42.236816" lon="1.678480">
        <ele>1672.129</ele>
        <time>2018-09-22T10:57:32Z</time>
      </trkpt>
      <trkpt lat="42.236818" lon="1.678489">
        <ele>1672.471</ele>
        <time>2018-09-22T10:57:33Z</time>
      </trkpt>
      <trkpt lat="42.236822" lon="1.678497">
        <ele>1672.555</ele>
        <time>2018-09-22T10:57:34Z</time>
      </trkpt>
      <trkpt lat="42.236825" lon="1.678507">
        <ele>1672.807</ele>
        <time>2018-09-22T10:57:35Z</time>
      </trkpt>
      <trkpt lat="42.236821" lon="1.678522">
        <ele>1673.617</ele>
        <time>2018-09-22T10:57:37Z</time>
      </trkpt>
      <trkpt lat="42.236817" lon="1.678529">
        <ele>1674.108</ele>
        <time>2018-09-22T10:57:38Z</time>
      </trkpt>
      <trkpt lat="42.236819" lon="1.678540">
        <ele>1674.527</ele>
        <time>2018-09-22T10:57:39Z</time>
      </trkpt>
      <trkpt lat="42.236818" lon="1.678554">
        <ele>1675.123</ele>
        <time>2018-09-22T10:57:41Z</time>
      </trkpt>
      <trkpt lat="42.236823" lon="1.678562">
        <ele>1675.244</ele>
        <time>2018-09-22T10:57:43Z</time>
      </trkpt>
      <trkpt lat="42.236827" lon="1.678568">
        <ele>1675.298</ele>
        <time>2018-09-22T10:57:44Z</time>
      </trkpt>
      <trkpt lat="42.236830" lon="1.678574">
        <ele>1675.414</ele>
        <time>2018-09-22T10:57:45Z</time>
      </trkpt>
      <trkpt lat="42.236825" lon="1.678606">
        <ele>1676.964</ele>
        <time>2018-09-22T10:57:49Z</time>
      </trkpt>
      <trkpt lat="42.236819" lon="1.678640">
        <ele>1678.656</ele>
        <time>2018-09-22T10:57:52Z</time>
      </trkpt>
      <trkpt lat="42.236816" lon="1.678645">
        <ele>1678.918</ele>
        <time>2018-09-22T10:57:53Z</time>
      </trkpt>
      <trkpt lat="42.236823" lon="1.678658">
        <ele>1679.287</ele>
        <time>2018-09-22T10:57:56Z</time>
      </trkpt>
      <trkpt lat="42.236831" lon="1.678658">
        <ele>1678.842</ele>
        <time>2018-09-22T10:57:58Z</time>
      </trkpt>
      <trkpt lat="42.236849" lon="1.678659">
        <ele>1678.126</ele>
        <time>2018-09-22T10:58:00Z</time>
      </trkpt>
      <trkpt lat="42.236856" lon="1.678664">
        <ele>1678.008</ele>
        <time>2018-09-22T10:58:01Z</time>
      </trkpt>
      <trkpt lat="42.236867" lon="1.678699">
        <ele>1679.050</ele>
        <time>2018-09-22T10:58:07Z</time>
      </trkpt>
      <trkpt lat="42.236873" lon="1.678714">
        <ele>1679.486</ele>
        <time>2018-09-22T10:58:09Z</time>
      </trkpt>
      <trkpt lat="42.236874" lon="1.678721">
        <ele>1679.637</ele>
        <time>2018-09-22T10:58:10Z</time>
      </trkpt>
      <trkpt lat="42.236885" lon="1.678742">
        <ele>1680.151</ele>
        <time>2018-09-22T10:58:13Z</time>
      </trkpt>
      <trkpt lat="42.236891" lon="1.678747">
        <ele>1680.087</ele>
        <time>2018-09-22T10:58:14Z</time>
      </trkpt>
      <trkpt lat="42.236913" lon="1.678765">
        <ele>1679.947</ele>
        <time>2018-09-22T10:58:16Z</time>
      </trkpt>
      <trkpt lat="42.236926" lon="1.678778">
        <ele>1679.959</ele>
        <time>2018-09-22T10:58:18Z</time>
      </trkpt>
      <trkpt lat="42.236950" lon="1.678801">
        <ele>1679.921</ele>
        <time>2018-09-22T10:58:20Z</time>
      </trkpt>
      <trkpt lat="42.236954" lon="1.678819">
        <ele>1680.517</ele>
        <time>2018-09-22T10:58:22Z</time>
      </trkpt>
      <trkpt lat="42.236962" lon="1.678825">
        <ele>1680.587</ele>
        <time>2018-09-22T10:58:23Z</time>
      </trkpt>
      <trkpt lat="42.236963" lon="1.678828">
        <ele>1680.515</ele>
        <time>2018-09-22T10:58:24Z</time>
      </trkpt>
      <trkpt lat="42.236980" lon="1.678846">
        <ele>1680.608</ele>
        <time>2018-09-22T10:58:26Z</time>
      </trkpt>
      <trkpt lat="42.236988" lon="1.678874">
        <ele>1681.573</ele>
        <time>2018-09-22T10:58:28Z</time>
      </trkpt>
      <trkpt lat="42.236988" lon="1.678889">
        <ele>1682.129</ele>
        <time>2018-09-22T10:58:29Z</time>
      </trkpt>
      <trkpt lat="42.236991" lon="1.678898">
        <ele>1682.350</ele>
        <time>2018-09-22T10:58:30Z</time>
      </trkpt>
      <trkpt lat="42.237026" lon="1.678950">
        <ele>1682.944</ele>
        <time>2018-09-22T10:58:34Z</time>
      </trkpt>
      <trkpt lat="42.237027" lon="1.678965">
        <ele>1683.560</ele>
        <time>2018-09-22T10:58:35Z</time>
      </trkpt>
      <trkpt lat="42.237027" lon="1.678985">
        <ele>1684.380</ele>
        <time>2018-09-22T10:58:37Z</time>
      </trkpt>
      <trkpt lat="42.237041" lon="1.679009">
        <ele>1684.692</ele>
        <time>2018-09-22T10:58:41Z</time>
      </trkpt>
      <trkpt lat="42.237048" lon="1.679023">
        <ele>1685.044</ele>
        <time>2018-09-22T10:58:43Z</time>
      </trkpt>
      <trkpt lat="42.237078" lon="1.679054">
        <ele>1685.015</ele>
        <time>2018-09-22T10:58:46Z</time>
      </trkpt>
      <trkpt lat="42.237098" lon="1.679089">
        <ele>1685.665</ele>
        <time>2018-09-22T10:58:50Z</time>
      </trkpt>
      <trkpt lat="42.237113" lon="1.679103">
        <ele>1685.611</ele>
        <time>2018-09-22T10:58:52Z</time>
      </trkpt>
      <trkpt lat="42.237115" lon="1.679113">
        <ele>1686.008</ele>
        <time>2018-09-22T10:58:53Z</time>
      </trkpt>
      <trkpt lat="42.237125" lon="1.679126">
        <ele>1686.193</ele>
        <time>2018-09-22T10:58:56Z</time>
      </trkpt>
      <trkpt lat="42.237121" lon="1.679120">
        <ele>1686.019</ele>
        <time>2018-09-22T10:58:58Z</time>
      </trkpt>
      <trkpt lat="42.237118" lon="1.679127">
        <ele>1686.430</ele>
        <time>2018-09-22T10:58:59Z</time>
      </trkpt>
      <trkpt lat="42.237102" lon="1.679127">
        <ele>1687.144</ele>
        <time>2018-09-22T10:59:02Z</time>
      </trkpt>
      <trkpt lat="42.237089" lon="1.679120">
        <ele>1687.360</ele>
        <time>2018-09-22T10:59:04Z</time>
      </trkpt>
      <trkpt lat="42.237079" lon="1.679110">
        <ele>1687.370</ele>
        <time>2018-09-22T10:59:05Z</time>
      </trkpt>
      <trkpt lat="42.237071" lon="1.679107">
        <ele>1687.522</ele>
        <time>2018-09-22T10:59:06Z</time>
      </trkpt>
      <trkpt lat="42.237039" lon="1.679118">
        <ele>1689.314</ele>
        <time>2018-09-22T10:59:10Z</time>
      </trkpt>
      <trkpt lat="42.237032" lon="1.679122">
        <ele>1689.684</ele>
        <time>2018-09-22T10:59:11Z</time>
      </trkpt>
      <trkpt lat="42.237015" lon="1.679126">
        <ele>1690.507</ele>
        <time>2018-09-22T10:59:13Z</time>
      </trkpt>
      <trkpt lat="42.236996" lon="1.679121">
        <ele>1691.117</ele>
        <time>2018-09-22T10:59:15Z</time>
      </trkpt>
      <trkpt lat="42.236976" lon="1.679126">
        <ele>1692.108</ele>
        <time>2018-09-22T10:59:18Z</time>
      </trkpt>
      <trkpt lat="42.236947" lon="1.679139">
        <ele>1693.710</ele>
        <time>2018-09-22T10:59:21Z</time>
      </trkpt>
      <trkpt lat="42.236918" lon="1.679141">
        <ele>1695.036</ele>
        <time>2018-09-22T10:59:24Z</time>
      </trkpt>
      <trkpt lat="42.236908" lon="1.679138">
        <ele>1695.327</ele>
        <time>2018-09-22T10:59:25Z</time>
      </trkpt>
      <trkpt lat="42.236897" lon="1.679138">
        <ele>1695.771</ele>
        <time>2018-09-22T10:59:26Z</time>
      </trkpt>
      <trkpt lat="42.236882" lon="1.679151">
        <ele>1696.897</ele>
        <time>2018-09-22T10:59:30Z</time>
      </trkpt>
      <trkpt lat="42.236882" lon="1.679164">
        <ele>1697.317</ele>
        <time>2018-09-22T10:59:31Z</time>
      </trkpt>
      <trkpt lat="42.236875" lon="1.679165">
        <ele>1697.729</ele>
        <time>2018-09-22T10:59:35Z</time>
      </trkpt>
      <trkpt lat="42.236860" lon="1.679158">
        <ele>1698.081</ele>
        <time>2018-09-22T10:59:37Z</time>
      </trkpt>
      <trkpt lat="42.236850" lon="1.679161">
        <ele>1698.559</ele>
        <time>2018-09-22T10:59:39Z</time>
      </trkpt>
      <trkpt lat="42.236842" lon="1.679159">
        <ele>1698.703</ele>
        <time>2018-09-22T10:59:40Z</time>
      </trkpt>
      <trkpt lat="42.236834" lon="1.679155">
        <ele>1698.823</ele>
        <time>2018-09-22T10:59:41Z</time>
      </trkpt>
      <trkpt lat="42.236797" lon="1.679135">
        <ele>1699.508</ele>
        <time>2018-09-22T10:59:46Z</time>
      </trkpt>
      <trkpt lat="42.236705" lon="1.679082">
        <ele>1701.167</ele>
        <time>2018-09-22T10:59:57Z</time>
      </trkpt>
      <trkpt lat="42.236698" lon="1.679081">
        <ele>1701.343</ele>
        <time>2018-09-22T10:59:58Z</time>
      </trkpt>
      <trkpt lat="42.236690" lon="1.679077">
        <ele>1701.524</ele>
        <time>2018-09-22T10:59:59Z</time>
      </trkpt>
      <trkpt lat="42.236673" lon="1.679058">
        <ele>1701.438</ele>
        <time>2018-09-22T11:00:02Z</time>
      </trkpt>
      <trkpt lat="42.236646" lon="1.679046">
        <ele>1702.174</ele>
        <time>2018-09-22T11:00:07Z</time>
      </trkpt>
      <trkpt lat="42.236639" lon="1.679044">
        <ele>1702.354</ele>
        <time>2018-09-22T11:00:08Z</time>
      </trkpt>
      <trkpt lat="42.236616" lon="1.679035">
        <ele>1702.966</ele>
        <time>2018-09-22T11:00:12Z</time>
      </trkpt>
      <trkpt lat="42.236591" lon="1.679007">
        <ele>1702.958</ele>
        <time>2018-09-22T11:00:15Z</time>
      </trkpt>
      <trkpt lat="42.236566" lon="1.678987">
        <ele>1703.247</ele>
        <time>2018-09-22T11:00:17Z</time>
      </trkpt>
      <trkpt lat="42.236559" lon="1.678982">
        <ele>1703.329</ele>
        <time>2018-09-22T11:00:18Z</time>
      </trkpt>
      <trkpt lat="42.236536" lon="1.678974">
        <ele>1704.021</ele>
        <time>2018-09-22T11:00:22Z</time>
      </trkpt>
      <trkpt lat="42.236533" lon="1.678971">
        <ele>1704.008</ele>
        <time>2018-09-22T11:00:23Z</time>
      </trkpt>
      <trkpt lat="42.236514" lon="1.678962">
        <ele>1704.536</ele>
        <time>2018-09-22T11:00:25Z</time>
      </trkpt>
      <trkpt lat="42.236509" lon="1.678956">
        <ele>1704.582</ele>
        <time>2018-09-22T11:00:26Z</time>
      </trkpt>
      <trkpt lat="42.236498" lon="1.678948">
        <ele>1704.663</ele>
        <time>2018-09-22T11:00:27Z</time>
      </trkpt>
      <trkpt lat="42.236478" lon="1.678944">
        <ele>1705.367</ele>
        <time>2018-09-22T11:00:30Z</time>
      </trkpt>
      <trkpt lat="42.236473" lon="1.678945">
        <ele>1705.583</ele>
        <time>2018-09-22T11:00:31Z</time>
      </trkpt>
      <trkpt lat="42.236453" lon="1.678944">
        <ele>1706.443</ele>
        <time>2018-09-22T11:00:36Z</time>
      </trkpt>
      <trkpt lat="42.236432" lon="1.678924">
        <ele>1706.545</ele>
        <time>2018-09-22T11:00:39Z</time>
      </trkpt>
      <trkpt lat="42.236425" lon="1.678921">
        <ele>1706.797</ele>
        <time>2018-09-22T11:00:40Z</time>
      </trkpt>
      <trkpt lat="42.236418" lon="1.678917">
        <ele>1706.842</ele>
        <time>2018-09-22T11:00:41Z</time>
      </trkpt>
      <trkpt lat="42.236344" lon="1.678867">
        <ele>1707.622</ele>
        <time>2018-09-22T11:00:49Z</time>
      </trkpt>
      <trkpt lat="42.236313" lon="1.678860">
        <ele>1708.514</ele>
        <time>2018-09-22T11:00:51Z</time>
      </trkpt>
      <trkpt lat="42.236285" lon="1.678871">
        <ele>1709.908</ele>
        <time>2018-09-22T11:00:54Z</time>
      </trkpt>
      <trkpt lat="42.236258" lon="1.678869">
        <ele>1710.856</ele>
        <time>2018-09-22T11:00:56Z</time>
      </trkpt>
      <trkpt lat="42.236232" lon="1.678857">
        <ele>1711.212</ele>
        <time>2018-09-22T11:00:58Z</time>
      </trkpt>
      <trkpt lat="42.236215" lon="1.678850">
        <ele>1711.583</ele>
        <time>2018-09-22T11:01:00Z</time>
      </trkpt>
      <trkpt lat="42.236203" lon="1.678853">
        <ele>1712.187</ele>
        <time>2018-09-22T11:01:02Z</time>
      </trkpt>
      <trkpt lat="42.236201" lon="1.678853">
        <ele>1712.273</ele>
        <time>2018-09-22T11:01:03Z</time>
      </trkpt>
      <trkpt lat="42.236188" lon="1.678851">
        <ele>1712.643</ele>
        <time>2018-09-22T11:01:05Z</time>
      </trkpt>
      <trkpt lat="42.236163" lon="1.678827">
        <ele>1712.495</ele>
        <time>2018-09-22T11:01:10Z</time>
      </trkpt>
      <trkpt lat="42.236120" lon="1.678819">
        <ele>1713.647</ele>
        <time>2018-09-22T11:01:15Z</time>
      </trkpt>
      <trkpt lat="42.236111" lon="1.678823">
        <ele>1714.138</ele>
        <time>2018-09-22T11:01:16Z</time>
      </trkpt>
      <trkpt lat="42.236091" lon="1.678815">
        <ele>1714.370</ele>
        <time>2018-09-22T11:01:18Z</time>
      </trkpt>
      <trkpt lat="42.236062" lon="1.678813">
        <ele>1714.917</ele>
        <time>2018-09-22T11:01:20Z</time>
      </trkpt>
      <trkpt lat="42.236040" lon="1.678807">
        <ele>1715.208</ele>
        <time>2018-09-22T11:01:22Z</time>
      </trkpt>
      <trkpt lat="42.236028" lon="1.678805">
        <ele>1715.415</ele>
        <time>2018-09-22T11:01:23Z</time>
      </trkpt>
      <trkpt lat="42.236021" lon="1.678804">
        <ele>1715.531</ele>
        <time>2018-09-22T11:01:24Z</time>
      </trkpt>
      <trkpt lat="42.236014" lon="1.678802">
        <ele>1715.732</ele>
        <time>2018-09-22T11:01:25Z</time>
      </trkpt>
      <trkpt lat="42.235996" lon="1.678801">
        <ele>1716.066</ele>
        <time>2018-09-22T11:01:29Z</time>
      </trkpt>
      <trkpt lat="42.235997" lon="1.678804">
        <ele>1716.252</ele>
        <time>2018-09-22T11:01:30Z</time>
      </trkpt>
      <trkpt lat="42.235997" lon="1.678812">
        <ele>1716.552</ele>
        <time>2018-09-22T11:01:32Z</time>
      </trkpt>
      <trkpt lat="42.236012" lon="1.678815">
        <ele>1716.214</ele>
        <time>2018-09-22T11:01:34Z</time>
      </trkpt>
      <trkpt lat="42.236037" lon="1.678825">
        <ele>1716.046</ele>
        <time>2018-09-22T11:01:37Z</time>
      </trkpt>
      <trkpt lat="42.236044" lon="1.678830">
        <ele>1716.134</ele>
        <time>2018-09-22T11:01:38Z</time>
      </trkpt>
      <trkpt lat="42.236047" lon="1.678835">
        <ele>1716.255</ele>
        <time>2018-09-22T11:01:39Z</time>
      </trkpt>
      <trkpt lat="42.236062" lon="1.678865">
        <ele>1717.110</ele>
        <time>2018-09-22T11:01:44Z</time>
      </trkpt>
      <trkpt lat="42.236067" lon="1.678877">
        <ele>1717.608</ele>
        <time>2018-09-22T11:01:45Z</time>
      </trkpt>
      <trkpt lat="42.236099" lon="1.678902">
        <ele>1717.865</ele>
        <time>2018-09-22T11:01:48Z</time>
      </trkpt>
      <trkpt lat="42.236115" lon="1.678922">
        <ele>1718.121</ele>
        <time>2018-09-22T11:01:50Z</time>
      </trkpt>
      <trkpt lat="42.236125" lon="1.678928">
        <ele>1718.062</ele>
        <time>2018-09-22T11:01:51Z</time>
      </trkpt>
      <trkpt lat="42.236142" lon="1.678944">
        <ele>1718.046</ele>
        <time>2018-09-22T11:01:54Z</time>
      </trkpt>
      <trkpt lat="42.236150" lon="1.678967">
        <ele>1718.652</ele>
        <time>2018-09-22T11:01:56Z</time>
      </trkpt>
      <trkpt lat="42.236159" lon="1.679000">
        <ele>1719.682</ele>
        <time>2018-09-22T11:01:59Z</time>
      </trkpt>
      <trkpt lat="42.236156" lon="1.679007">
        <ele>1720.064</ele>
        <time>2018-09-22T11:02:01Z</time>
      </trkpt>
      <trkpt lat="42.236184" lon="1.679046">
        <ele>1720.596</ele>
        <time>2018-09-22T11:02:04Z</time>
      </trkpt>
      <trkpt lat="42.236191" lon="1.679064">
        <ele>1721.075</ele>
        <time>2018-09-22T11:02:06Z</time>
      </trkpt>
      <trkpt lat="42.236217" lon="1.679090">
        <ele>1721.128</ele>
        <time>2018-09-22T11:02:09Z</time>
      </trkpt>
      <trkpt lat="42.236225" lon="1.679102">
        <ele>1721.320</ele>
        <time>2018-09-22T11:02:10Z</time>
      </trkpt>
      <trkpt lat="42.236230" lon="1.679113">
        <ele>1721.608</ele>
        <time>2018-09-22T11:02:11Z</time>
      </trkpt>
      <trkpt lat="42.236238" lon="1.679123">
        <ele>1721.729</ele>
        <time>2018-09-22T11:02:12Z</time>
      </trkpt>
      <trkpt lat="42.236244" lon="1.679130">
        <ele>1721.765</ele>
        <time>2018-09-22T11:02:13Z</time>
      </trkpt>
      <trkpt lat="42.236279" lon="1.679161">
        <ele>1721.736</ele>
        <time>2018-09-22T11:02:17Z</time>
      </trkpt>
      <trkpt lat="42.236290" lon="1.679172">
        <ele>1721.730</ele>
        <time>2018-09-22T11:02:18Z</time>
      </trkpt>
      <trkpt lat="42.236297" lon="1.679200">
        <ele>1722.516</ele>
        <time>2018-09-22T11:02:21Z</time>
      </trkpt>
      <trkpt lat="42.236297" lon="1.679207">
        <ele>1722.836</ele>
        <time>2018-09-22T11:02:22Z</time>
      </trkpt>
      <trkpt lat="42.236302" lon="1.679214">
        <ele>1722.898</ele>
        <time>2018-09-22T11:02:23Z</time>
      </trkpt>
      <trkpt lat="42.236322" lon="1.679250">
        <ele>1723.470</ele>
        <time>2018-09-22T11:02:26Z</time>
      </trkpt>
      <trkpt lat="42.236321" lon="1.679277">
        <ele>1724.587</ele>
        <time>2018-09-22T11:02:29Z</time>
      </trkpt>
      <trkpt lat="42.236324" lon="1.679283">
        <ele>1724.642</ele>
        <time>2018-09-22T11:02:30Z</time>
      </trkpt>
      <trkpt lat="42.236327" lon="1.679301">
        <ele>1725.126</ele>
        <time>2018-09-22T11:02:32Z</time>
      </trkpt>
      <trkpt lat="42.236340" lon="1.679333">
        <ele>1725.808</ele>
        <time>2018-09-22T11:02:35Z</time>
      </trkpt>
      <trkpt lat="42.236340" lon="1.679340">
        <ele>1726.140</ele>
        <time>2018-09-22T11:02:36Z</time>
      </trkpt>
      <trkpt lat="42.236346" lon="1.679350">
        <ele>1726.286</ele>
        <time>2018-09-22T11:02:37Z</time>
      </trkpt>
      <trkpt lat="42.236351" lon="1.679358">
        <ele>1726.357</ele>
        <time>2018-09-22T11:02:38Z</time>
      </trkpt>
      <trkpt lat="42.236347" lon="1.679363">
        <ele>1726.611</ele>
        <time>2018-09-22T11:02:39Z</time>
      </trkpt>
      <trkpt lat="42.236349" lon="1.679403">
        <ele>1728.097</ele>
        <time>2018-09-22T11:02:43Z</time>
      </trkpt>
      <trkpt lat="42.236345" lon="1.679413">
        <ele>1728.597</ele>
        <time>2018-09-22T11:02:44Z</time>
      </trkpt>
      <trkpt lat="42.236340" lon="1.679427">
        <ele>1729.249</ele>
        <time>2018-09-22T11:02:46Z</time>
      </trkpt>
      <trkpt lat="42.236344" lon="1.679431">
        <ele>1729.291</ele>
        <time>2018-09-22T11:02:47Z</time>
      </trkpt>
      <trkpt lat="42.236342" lon="1.679432">
        <ele>1729.445</ele>
        <time>2018-09-22T11:02:48Z</time>
      </trkpt>
      <trkpt lat="42.236357" lon="1.679467">
        <ele>1730.147</ele>
        <time>2018-09-22T11:02:52Z</time>
      </trkpt>
      <trkpt lat="42.236362" lon="1.679482">
        <ele>1730.511</ele>
        <time>2018-09-22T11:02:54Z</time>
      </trkpt>
      <trkpt lat="42.236404" lon="1.679567">
        <ele>1732.208</ele>
        <time>2018-09-22T11:03:04Z</time>
      </trkpt>
      <trkpt lat="42.236418" lon="1.679577">
        <ele>1732.026</ele>
        <time>2018-09-22T11:03:06Z</time>
      </trkpt>
      <trkpt lat="42.236424" lon="1.679584">
        <ele>1732.182</ele>
        <time>2018-09-22T11:03:07Z</time>
      </trkpt>
      <trkpt lat="42.236452" lon="1.679618">
        <ele>1732.393</ele>
        <time>2018-09-22T11:03:11Z</time>
      </trkpt>
      <trkpt lat="42.236462" lon="1.679640">
        <ele>1732.847</ele>
        <time>2018-09-22T11:03:15Z</time>
      </trkpt>
      <trkpt lat="42.236489" lon="1.679701">
        <ele>1734.273</ele>
        <time>2018-09-22T11:03:21Z</time>
      </trkpt>
      <trkpt lat="42.236496" lon="1.679745">
        <ele>1735.653</ele>
        <time>2018-09-22T11:03:26Z</time>
      </trkpt>
      <trkpt lat="42.236502" lon="1.679765">
        <ele>1736.185</ele>
        <time>2018-09-22T11:03:30Z</time>
      </trkpt>
      <trkpt lat="42.236526" lon="1.679788">
        <ele>1736.077</ele>
        <time>2018-09-22T11:03:35Z</time>
      </trkpt>
      <trkpt lat="42.236555" lon="1.679856">
        <ele>1737.574</ele>
        <time>2018-09-22T11:03:42Z</time>
      </trkpt>
      <trkpt lat="42.236562" lon="1.679863">
        <ele>1737.556</ele>
        <time>2018-09-22T11:03:43Z</time>
      </trkpt>
      <trkpt lat="42.236566" lon="1.679866">
        <ele>1737.421</ele>
        <time>2018-09-22T11:03:44Z</time>
      </trkpt>
      <trkpt lat="42.236576" lon="1.679894">
        <ele>1738.108</ele>
        <time>2018-09-22T11:03:48Z</time>
      </trkpt>
      <trkpt lat="42.236583" lon="1.679919">
        <ele>1738.939</ele>
        <time>2018-09-22T11:03:52Z</time>
      </trkpt>
      <trkpt lat="42.236622" lon="1.679991">
        <ele>1740.275</ele>
        <time>2018-09-22T11:03:58Z</time>
      </trkpt>
      <trkpt lat="42.236633" lon="1.680015">
        <ele>1740.836</ele>
        <time>2018-09-22T11:04:01Z</time>
      </trkpt>
      <trkpt lat="42.236635" lon="1.680024">
        <ele>1741.010</ele>
        <time>2018-09-22T11:04:02Z</time>
      </trkpt>
      <trkpt lat="42.236642" lon="1.680048">
        <ele>1741.886</ele>
        <time>2018-09-22T11:04:04Z</time>
      </trkpt>
      <trkpt lat="42.236647" lon="1.680061">
        <ele>1742.146</ele>
        <time>2018-09-22T11:04:05Z</time>
      </trkpt>
      <trkpt lat="42.236652" lon="1.680080">
        <ele>1742.678</ele>
        <time>2018-09-22T11:04:07Z</time>
      </trkpt>
      <trkpt lat="42.236682" lon="1.680147">
        <ele>1744.210</ele>
        <time>2018-09-22T11:04:13Z</time>
      </trkpt>
      <trkpt lat="42.236687" lon="1.680170">
        <ele>1744.943</ele>
        <time>2018-09-22T11:04:15Z</time>
      </trkpt>
      <trkpt lat="42.236692" lon="1.680201">
        <ele>1746.064</ele>
        <time>2018-09-22T11:04:18Z</time>
      </trkpt>
      <trkpt lat="42.236690" lon="1.680225">
        <ele>1747.010</ele>
        <time>2018-09-22T11:04:21Z</time>
      </trkpt>
      <trkpt lat="42.236699" lon="1.680228">
        <ele>1746.808</ele>
        <time>2018-09-22T11:04:22Z</time>
      </trkpt>
      <trkpt lat="42.236704" lon="1.680241">
        <ele>1747.286</ele>
        <time>2018-09-22T11:04:23Z</time>
      </trkpt>
      <trkpt lat="42.236713" lon="1.680308">
        <ele>1749.412</ele>
        <time>2018-09-22T11:04:28Z</time>
      </trkpt>
      <trkpt lat="42.236716" lon="1.680315">
        <ele>1749.553</ele>
        <time>2018-09-22T11:04:29Z</time>
      </trkpt>
      <trkpt lat="42.236747" lon="1.680338">
        <ele>1749.497</ele>
        <time>2018-09-22T11:04:33Z</time>
      </trkpt>
      <trkpt lat="42.236779" lon="1.680366">
        <ele>1749.323</ele>
        <time>2018-09-22T11:04:36Z</time>
      </trkpt>
      <trkpt lat="42.236792" lon="1.680393">
        <ele>1749.953</ele>
        <time>2018-09-22T11:04:38Z</time>
      </trkpt>
      <trkpt lat="42.236824" lon="1.680426">
        <ele>1750.285</ele>
        <time>2018-09-22T11:04:42Z</time>
      </trkpt>
      <trkpt lat="42.236821" lon="1.680431">
        <ele>1750.537</ele>
        <time>2018-09-22T11:04:43Z</time>
      </trkpt>
      <trkpt lat="42.236821" lon="1.680451">
        <ele>1751.318</ele>
        <time>2018-09-22T11:04:45Z</time>
      </trkpt>
      <trkpt lat="42.236827" lon="1.680468">
        <ele>1751.898</ele>
        <time>2018-09-22T11:04:47Z</time>
      </trkpt>
      <trkpt lat="42.236827" lon="1.680475">
        <ele>1752.117</ele>
        <time>2018-09-22T11:04:48Z</time>
      </trkpt>
      <trkpt lat="42.236826" lon="1.680499">
        <ele>1753.108</ele>
        <time>2018-09-22T11:04:51Z</time>
      </trkpt>
      <trkpt lat="42.236833" lon="1.680525">
        <ele>1753.923</ele>
        <time>2018-09-22T11:04:53Z</time>
      </trkpt>
      <trkpt lat="42.236844" lon="1.680556">
        <ele>1754.959</ele>
        <time>2018-09-22T11:04:55Z</time>
      </trkpt>
      <trkpt lat="42.236835" lon="1.680570">
        <ele>1755.760</ele>
        <time>2018-09-22T11:04:57Z</time>
      </trkpt>
      <trkpt lat="42.236837" lon="1.680588">
        <ele>1756.354</ele>
        <time>2018-09-22T11:04:59Z</time>
      </trkpt>
      <trkpt lat="42.236835" lon="1.680597">
        <ele>1756.710</ele>
        <time>2018-09-22T11:05:01Z</time>
      </trkpt>
      <trkpt lat="42.236833" lon="1.680599">
        <ele>1756.950</ele>
        <time>2018-09-22T11:05:02Z</time>
      </trkpt>
      <trkpt lat="42.236816" lon="1.680619">
        <ele>1758.292</ele>
        <time>2018-09-22T11:05:07Z</time>
      </trkpt>
      <trkpt lat="42.236838" lon="1.680648">
        <ele>1758.734</ele>
        <time>2018-09-22T11:05:11Z</time>
      </trkpt>
      <trkpt lat="42.236860" lon="1.680669">
        <ele>1758.988</ele>
        <time>2018-09-22T11:05:15Z</time>
      </trkpt>
      <trkpt lat="42.236889" lon="1.680712">
        <ele>1759.724</ele>
        <time>2018-09-22T11:05:20Z</time>
      </trkpt>
      <trkpt lat="42.236899" lon="1.680739">
        <ele>1760.526</ele>
        <time>2018-09-22T11:05:22Z</time>
      </trkpt>
      <trkpt lat="42.236903" lon="1.680749">
        <ele>1760.808</ele>
        <time>2018-09-22T11:05:23Z</time>
      </trkpt>
      <trkpt lat="42.236905" lon="1.680752">
        <ele>1760.920</ele>
        <time>2018-09-22T11:05:24Z</time>
      </trkpt>
      <trkpt lat="42.236908" lon="1.680757">
        <ele>1761.066</ele>
        <time>2018-09-22T11:05:25Z</time>
      </trkpt>
      <trkpt lat="42.236920" lon="1.680786">
        <ele>1761.867</ele>
        <time>2018-09-22T11:05:30Z</time>
      </trkpt>
      <trkpt lat="42.236928" lon="1.680809">
        <ele>1762.561</ele>
        <time>2018-09-22T11:05:32Z</time>
      </trkpt>
      <trkpt lat="42.236929" lon="1.680819">
        <ele>1762.897</ele>
        <time>2018-09-22T11:05:33Z</time>
      </trkpt>
      <trkpt lat="42.236943" lon="1.680841">
        <ele>1763.377</ele>
        <time>2018-09-22T11:05:37Z</time>
      </trkpt>
      <trkpt lat="42.236958" lon="1.680844">
        <ele>1763.159</ele>
        <time>2018-09-22T11:05:39Z</time>
      </trkpt>
      <trkpt lat="42.236968" lon="1.680868">
        <ele>1763.911</ele>
        <time>2018-09-22T11:05:41Z</time>
      </trkpt>
      <trkpt lat="42.236968" lon="1.680879">
        <ele>1764.337</ele>
        <time>2018-09-22T11:05:42Z</time>
      </trkpt>
      <trkpt lat="42.236984" lon="1.680907">
        <ele>1765.149</ele>
        <time>2018-09-22T11:05:47Z</time>
      </trkpt>
      <trkpt lat="42.237007" lon="1.680968">
        <ele>1767.213</ele>
        <time>2018-09-22T11:05:53Z</time>
      </trkpt>
      <trkpt lat="42.237017" lon="1.680995">
        <ele>1768.108</ele>
        <time>2018-09-22T11:05:57Z</time>
      </trkpt>
      <trkpt lat="42.237034" lon="1.681016">
        <ele>1768.695</ele>
        <time>2018-09-22T11:06:02Z</time>
      </trkpt>
      <trkpt lat="42.237062" lon="1.681032">
        <ele>1768.691</ele>
        <time>2018-09-22T11:06:10Z</time>
      </trkpt>
      <trkpt lat="42.237022" lon="1.681040">
        <ele>1769.972</ele>
        <time>2018-09-22T11:06:15Z</time>
      </trkpt>
      <trkpt lat="42.237009" lon="1.681058">
        <ele>1771.096</ele>
        <time>2018-09-22T11:06:17Z</time>
      </trkpt>
      <trkpt lat="42.236992" lon="1.681076">
        <ele>1772.252</ele>
        <time>2018-09-22T11:06:20Z</time>
      </trkpt>
      <trkpt lat="42.236986" lon="1.681083">
        <ele>1772.712</ele>
        <time>2018-09-22T11:06:21Z</time>
      </trkpt>
      <trkpt lat="42.236975" lon="1.681096">
        <ele>1773.554</ele>
        <time>2018-09-22T11:06:23Z</time>
      </trkpt>
      <trkpt lat="42.236972" lon="1.681108">
        <ele>1774.176</ele>
        <time>2018-09-22T11:06:24Z</time>
      </trkpt>
      <trkpt lat="42.236967" lon="1.681112">
        <ele>1774.478</ele>
        <time>2018-09-22T11:06:25Z</time>
      </trkpt>
      <trkpt lat="42.236968" lon="1.681116">
        <ele>1774.633</ele>
        <time>2018-09-22T11:06:26Z</time>
      </trkpt>
      <trkpt lat="42.236947" lon="1.681134">
        <ele>1775.926</ele>
        <time>2018-09-22T11:06:31Z</time>
      </trkpt>
      <trkpt lat="42.236923" lon="1.681134">
        <ele>1776.508</ele>
        <time>2018-09-22T11:06:35Z</time>
      </trkpt>
      <trkpt lat="42.236923" lon="1.681151">
        <ele>1777.219</ele>
        <time>2018-09-22T11:06:37Z</time>
      </trkpt>
      <trkpt lat="42.236931" lon="1.681182">
        <ele>1778.315</ele>
        <time>2018-09-22T11:06:42Z</time>
      </trkpt>
      <trkpt lat="42.236941" lon="1.681181">
        <ele>1778.056</ele>
        <time>2018-09-22T11:06:44Z</time>
      </trkpt>
      <trkpt lat="42.236943" lon="1.681211">
        <ele>1779.370</ele>
        <time>2018-09-22T11:06:47Z</time>
      </trkpt>
      <trkpt lat="42.236934" lon="1.681236">
        <ele>1780.646</ele>
        <time>2018-09-22T11:06:52Z</time>
      </trkpt>
      <trkpt lat="42.236936" lon="1.681239">
        <ele>1780.696</ele>
        <time>2018-09-22T11:06:53Z</time>
      </trkpt>
      <trkpt lat="42.236937" lon="1.681248">
        <ele>1781.018</ele>
        <time>2018-09-22T11:06:58Z</time>
      </trkpt>
      <trkpt lat="42.236939" lon="1.681267">
        <ele>1781.820</ele>
        <time>2018-09-22T11:07:03Z</time>
      </trkpt>
      <trkpt lat="42.236919" lon="1.681272">
        <ele>1782.452</ele>
        <time>2018-09-22T11:07:06Z</time>
      </trkpt>
      <trkpt lat="42.236907" lon="1.681264">
        <ele>1782.353</ele>
        <time>2018-09-22T11:07:08Z</time>
      </trkpt>
      <trkpt lat="42.236895" lon="1.681254">
        <ele>1782.208</ele>
        <time>2018-09-22T11:07:09Z</time>
      </trkpt>
      <trkpt lat="42.236876" lon="1.681255">
        <ele>1782.708</ele>
        <time>2018-09-22T11:07:13Z</time>
      </trkpt>
      <trkpt lat="42.236863" lon="1.681273">
        <ele>1783.767</ele>
        <time>2018-09-22T11:07:17Z</time>
      </trkpt>
      <trkpt lat="42.236879" lon="1.681301">
        <ele>1784.523</ele>
        <time>2018-09-22T11:07:23Z</time>
      </trkpt>
      <trkpt lat="42.236887" lon="1.681312">
        <ele>1784.814</ele>
        <time>2018-09-22T11:07:24Z</time>
      </trkpt>
      <trkpt lat="42.236892" lon="1.681333">
        <ele>1785.598</ele>
        <time>2018-09-22T11:07:27Z</time>
      </trkpt>
      <trkpt lat="42.236887" lon="1.681393">
        <ele>1788.154</ele>
        <time>2018-09-22T11:07:32Z</time>
      </trkpt>
      <trkpt lat="42.236890" lon="1.681410">
        <ele>1788.814</ele>
        <time>2018-09-22T11:07:34Z</time>
      </trkpt>
      <trkpt lat="42.236893" lon="1.681443">
        <ele>1790.256</ele>
        <time>2018-09-22T11:07:37Z</time>
      </trkpt>
      <trkpt lat="42.236899" lon="1.681443">
        <ele>1790.178</ele>
        <time>2018-09-22T11:07:38Z</time>
      </trkpt>
      <trkpt lat="42.236895" lon="1.681447">
        <ele>1790.314</ele>
        <time>2018-09-22T11:07:42Z</time>
      </trkpt>
      <trkpt lat="42.236893" lon="1.681450">
        <ele>1790.554</ele>
        <time>2018-09-22T11:07:43Z</time>
      </trkpt>
      <trkpt lat="42.236881" lon="1.681475">
        <ele>1791.809</ele>
        <time>2018-09-22T11:07:47Z</time>
      </trkpt>
      <trkpt lat="42.236866" lon="1.681499">
        <ele>1793.008</ele>
        <time>2018-09-22T11:07:51Z</time>
      </trkpt>
      <trkpt lat="42.236865" lon="1.681505">
        <ele>1793.363</ele>
        <time>2018-09-22T11:07:52Z</time>
      </trkpt>
      <trkpt lat="42.236802" lon="1.681500">
        <ele>1794.159</ele>
        <time>2018-09-22T11:07:58Z</time>
      </trkpt>
      <trkpt lat="42.236799" lon="1.681541">
        <ele>1795.830</ele>
        <time>2018-09-22T11:08:02Z</time>
      </trkpt>
      <trkpt lat="42.236802" lon="1.681547">
        <ele>1796.044</ele>
        <time>2018-09-22T11:08:03Z</time>
      </trkpt>
      <trkpt lat="42.236802" lon="1.681554">
        <ele>1796.320</ele>
        <time>2018-09-22T11:08:04Z</time>
      </trkpt>
      <trkpt lat="42.236802" lon="1.681562">
        <ele>1796.740</ele>
        <time>2018-09-22T11:08:05Z</time>
      </trkpt>
      <trkpt lat="42.236806" lon="1.681572">
        <ele>1797.072</ele>
        <time>2018-09-22T11:08:09Z</time>
      </trkpt>
      <trkpt lat="42.236815" lon="1.681589">
        <ele>1797.694</ele>
        <time>2018-09-22T11:08:12Z</time>
      </trkpt>
      <trkpt lat="42.236819" lon="1.681617">
        <ele>1798.712</ele>
        <time>2018-09-22T11:08:16Z</time>
      </trkpt>
      <trkpt lat="42.236815" lon="1.681620">
        <ele>1798.932</ele>
        <time>2018-09-22T11:08:20Z</time>
      </trkpt>
      <trkpt lat="42.236801" lon="1.681619">
        <ele>1799.005</ele>
        <time>2018-09-22T11:08:22Z</time>
      </trkpt>
      <trkpt lat="42.236795" lon="1.681617">
        <ele>1799.008</ele>
        <time>2018-09-22T11:08:23Z</time>
      </trkpt>
      <trkpt lat="42.236804" lon="1.681665">
        <ele>1800.943</ele>
        <time>2018-09-22T11:08:28Z</time>
      </trkpt>
      <trkpt lat="42.236811" lon="1.681671">
        <ele>1801.199</ele>
        <time>2018-09-22T11:08:30Z</time>
      </trkpt>
      <trkpt lat="42.236794" lon="1.681650">
        <ele>1800.450</ele>
        <time>2018-09-22T11:08:40Z</time>
      </trkpt>
      <trkpt lat="42.236776" lon="1.681633">
        <ele>1800.084</ele>
        <time>2018-09-22T11:08:49Z</time>
      </trkpt>
      <trkpt lat="42.236772" lon="1.681612">
        <ele>1799.290</ele>
        <time>2018-09-22T11:09:02Z</time>
      </trkpt>
      <trkpt lat="42.236764" lon="1.681608">
        <ele>1799.130</ele>
        <time>2018-09-22T11:09:08Z</time>
      </trkpt>
      <trkpt lat="42.236756" lon="1.681606">
        <ele>1799.222</ele>
        <time>2018-09-22T11:09:12Z</time>
      </trkpt>
      <trkpt lat="42.236783" lon="1.681599">
        <ele>1798.554</ele>
        <time>2018-09-22T11:09:33Z</time>
      </trkpt>
      <trkpt lat="42.236778" lon="1.681613">
        <ele>1799.184</ele>
        <time>2018-09-22T11:09:45Z</time>
      </trkpt>
      <trkpt lat="42.236777" lon="1.681617">
        <ele>1799.307</ele>
        <time>2018-09-22T11:09:48Z</time>
      </trkpt>
      <trkpt lat="42.236776" lon="1.681616">
        <ele>1799.317</ele>
        <time>2018-09-22T11:09:54Z</time>
      </trkpt>
      <trkpt lat="42.236776" lon="1.681621">
        <ele>1799.508</ele>
        <time>2018-09-22T11:09:56Z</time>
      </trkpt>
      <trkpt lat="42.236776" lon="1.681625">
        <ele>1799.710</ele>
        <time>2018-09-22T11:09:59Z</time>
      </trkpt>
      <trkpt lat="42.236777" lon="1.681628">
        <ele>1799.886</ele>
        <time>2018-09-22T11:10:01Z</time>
      </trkpt>
      <trkpt lat="42.236777" lon="1.681639">
        <ele>1800.277</ele>
        <time>2018-09-22T11:10:07Z</time>
      </trkpt>
      <trkpt lat="42.236776" lon="1.681649">
        <ele>1800.731</ele>
        <time>2018-09-22T11:10:14Z</time>
      </trkpt>
      <trkpt lat="42.236772" lon="1.681656">
        <ele>1801.047</ele>
        <time>2018-09-22T11:10:16Z</time>
      </trkpt>
      <trkpt lat="42.236769" lon="1.681651">
        <ele>1800.877</ele>
        <time>2018-09-22T11:10:24Z</time>
      </trkpt>
      <trkpt lat="42.236776" lon="1.681648">
        <ele>1800.639</ele>
        <time>2018-09-22T11:10:30Z</time>
      </trkpt>
      <trkpt lat="42.236779" lon="1.681641">
        <ele>1800.351</ele>
        <time>2018-09-22T11:10:50Z</time>
      </trkpt>
      <trkpt lat="42.236767" lon="1.681630">
        <ele>1800.085</ele>
        <time>2018-09-22T11:11:20Z</time>
      </trkpt>
      <trkpt lat="42.236766" lon="1.681633">
        <ele>1800.189</ele>
        <time>2018-09-22T11:11:23Z</time>
      </trkpt>
      <trkpt lat="42.236768" lon="1.681610">
        <ele>1799.217</ele>
        <time>2018-09-22T11:11:37Z</time>
      </trkpt>
      <trkpt lat="42.236764" lon="1.681602">
        <ele>1798.908</ele>
        <time>2018-09-22T11:11:51Z</time>
      </trkpt>
      <trkpt lat="42.236766" lon="1.681597">
        <ele>1798.720</ele>
        <time>2018-09-22T11:11:54Z</time>
      </trkpt>
      <trkpt lat="42.236789" lon="1.681578">
        <ele>1797.556</ele>
        <time>2018-09-22T11:12:18Z</time>
      </trkpt>
      <trkpt lat="42.236797" lon="1.681584">
        <ele>1797.757</ele>
        <time>2018-09-22T11:12:21Z</time>
      </trkpt>
      <trkpt lat="42.236804" lon="1.681585">
        <ele>1797.671</ele>
        <time>2018-09-22T11:12:23Z</time>
      </trkpt>
      <trkpt lat="42.236803" lon="1.681598">
        <ele>1798.297</ele>
        <time>2018-09-22T11:12:30Z</time>
      </trkpt>
      <trkpt lat="42.236793" lon="1.681614">
        <ele>1799.027</ele>
        <time>2018-09-22T11:12:32Z</time>
      </trkpt>
      <trkpt lat="42.236791" lon="1.681644">
        <ele>1800.239</ele>
        <time>2018-09-22T11:12:35Z</time>
      </trkpt>
      <trkpt lat="42.236798" lon="1.681655">
        <ele>1800.621</ele>
        <time>2018-09-22T11:12:38Z</time>
      </trkpt>
      <trkpt lat="42.236788" lon="1.681663">
        <ele>1801.094</ele>
        <time>2018-09-22T11:12:42Z</time>
      </trkpt>
      <trkpt lat="42.236790" lon="1.681692">
        <ele>1802.257</ele>
        <time>2018-09-22T11:12:46Z</time>
      </trkpt>
      <trkpt lat="42.236777" lon="1.681712">
        <ele>1803.222</ele>
        <time>2018-09-22T11:12:53Z</time>
      </trkpt>
      <trkpt lat="42.236784" lon="1.681753">
        <ele>1804.708</ele>
        <time>2018-09-22T11:13:06Z</time>
      </trkpt>
      <trkpt lat="42.236776" lon="1.681762">
        <ele>1805.211</ele>
        <time>2018-09-22T11:13:09Z</time>
      </trkpt>
      <trkpt lat="42.236771" lon="1.681799">
        <ele>1806.787</ele>
        <time>2018-09-22T11:13:14Z</time>
      </trkpt>
      <trkpt lat="42.236772" lon="1.681840">
        <ele>1808.338</ele>
        <time>2018-09-22T11:13:18Z</time>
      </trkpt>
      <trkpt lat="42.236762" lon="1.681872">
        <ele>1809.782</ele>
        <time>2018-09-22T11:13:24Z</time>
      </trkpt>
      <trkpt lat="42.236742" lon="1.681882">
        <ele>1810.418</ele>
        <time>2018-09-22T11:13:27Z</time>
      </trkpt>
      <trkpt lat="42.236742" lon="1.681902">
        <ele>1811.278</ele>
        <time>2018-09-22T11:13:29Z</time>
      </trkpt>
      <trkpt lat="42.236740" lon="1.681909">
        <ele>1811.580</ele>
        <time>2018-09-22T11:13:31Z</time>
      </trkpt>
      <trkpt lat="42.236744" lon="1.681915">
        <ele>1811.752</ele>
        <time>2018-09-22T11:13:35Z</time>
      </trkpt>
      <trkpt lat="42.236754" lon="1.681925">
        <ele>1811.915</ele>
        <time>2018-09-22T11:13:37Z</time>
      </trkpt>
      <trkpt lat="42.236751" lon="1.681934">
        <ele>1812.365</ele>
        <time>2018-09-22T11:13:38Z</time>
      </trkpt>
      <trkpt lat="42.236746" lon="1.681935">
        <ele>1812.411</ele>
        <time>2018-09-22T11:13:39Z</time>
      </trkpt>
      <trkpt lat="42.236739" lon="1.681935">
        <ele>1812.608</ele>
        <time>2018-09-22T11:13:40Z</time>
      </trkpt>
      <trkpt lat="42.236733" lon="1.681945">
        <ele>1813.033</ele>
        <time>2018-09-22T11:13:41Z</time>
      </trkpt>
      <trkpt lat="42.236716" lon="1.681968">
        <ele>1814.119</ele>
        <time>2018-09-22T11:13:44Z</time>
      </trkpt>
      <trkpt lat="42.236712" lon="1.681988">
        <ele>1814.960</ele>
        <time>2018-09-22T11:13:46Z</time>
      </trkpt>
      <trkpt lat="42.236714" lon="1.682003">
        <ele>1815.484</ele>
        <time>2018-09-22T11:13:48Z</time>
      </trkpt>
      <trkpt lat="42.236722" lon="1.682015">
        <ele>1815.760</ele>
        <time>2018-09-22T11:13:51Z</time>
      </trkpt>
      <trkpt lat="42.236731" lon="1.682019">
        <ele>1815.870</ele>
        <time>2018-09-22T11:13:53Z</time>
      </trkpt>
      <trkpt lat="42.236737" lon="1.682029">
        <ele>1816.122</ele>
        <time>2018-09-22T11:13:55Z</time>
      </trkpt>
      <trkpt lat="42.236741" lon="1.682031">
        <ele>1816.134</ele>
        <time>2018-09-22T11:13:57Z</time>
      </trkpt>
      <trkpt lat="42.236740" lon="1.682031">
        <ele>1816.185</ele>
        <time>2018-09-22T11:14:00Z</time>
      </trkpt>
      <trkpt lat="42.236748" lon="1.682026">
        <ele>1815.889</ele>
        <time>2018-09-22T11:14:03Z</time>
      </trkpt>
      <trkpt lat="42.236753" lon="1.682039">
        <ele>1816.217</ele>
        <time>2018-09-22T11:14:05Z</time>
      </trkpt>
      <trkpt lat="42.236752" lon="1.682061">
        <ele>1817.008</ele>
        <time>2018-09-22T11:14:08Z</time>
      </trkpt>
      <trkpt lat="42.236763" lon="1.682075">
        <ele>1817.470</ele>
        <time>2018-09-22T11:14:10Z</time>
      </trkpt>
      <trkpt lat="42.236781" lon="1.682085">
        <ele>1817.676</ele>
        <time>2018-09-22T11:14:13Z</time>
      </trkpt>
      <trkpt lat="42.236812" lon="1.682127">
        <ele>1818.877</ele>
        <time>2018-09-22T11:14:17Z</time>
      </trkpt>
      <trkpt lat="42.236825" lon="1.682152">
        <ele>1819.681</ele>
        <time>2018-09-22T11:14:19Z</time>
      </trkpt>
      <trkpt lat="42.236838" lon="1.682196">
        <ele>1821.197</ele>
        <time>2018-09-22T11:14:22Z</time>
      </trkpt>
      <trkpt lat="42.236845" lon="1.682214">
        <ele>1821.747</ele>
        <time>2018-09-22T11:14:24Z</time>
      </trkpt>
      <trkpt lat="42.236847" lon="1.682234">
        <ele>1822.589</ele>
        <time>2018-09-22T11:14:26Z</time>
      </trkpt>
      <trkpt lat="42.236852" lon="1.682255">
        <ele>1823.261</ele>
        <time>2018-09-22T11:14:27Z</time>
      </trkpt>
      <trkpt lat="42.236858" lon="1.682273">
        <ele>1823.843</ele>
        <time>2018-09-22T11:14:29Z</time>
      </trkpt>
      <trkpt lat="42.236863" lon="1.682278">
        <ele>1824.064</ele>
        <time>2018-09-22T11:14:31Z</time>
      </trkpt>
      <trkpt lat="42.236873" lon="1.682304">
        <ele>1824.910</ele>
        <time>2018-09-22T11:14:34Z</time>
      </trkpt>
      <trkpt lat="42.236873" lon="1.682306">
        <ele>1825.008</ele>
        <time>2018-09-22T11:14:35Z</time>
      </trkpt>
      <trkpt lat="42.236868" lon="1.682303">
        <ele>1824.916</ele>
        <time>2018-09-22T11:14:37Z</time>
      </trkpt>
      <trkpt lat="42.236868" lon="1.682304">
        <ele>1824.952</ele>
        <time>2018-09-22T11:14:38Z</time>
      </trkpt>
      <trkpt lat="42.236876" lon="1.682305">
        <ele>1824.983</ele>
        <time>2018-09-22T11:14:39Z</time>
      </trkpt>
      <trkpt lat="42.236884" lon="1.682312">
        <ele>1825.147</ele>
        <time>2018-09-22T11:14:41Z</time>
      </trkpt>
      <trkpt lat="42.236896" lon="1.682321">
        <ele>1825.323</ele>
        <time>2018-09-22T11:14:44Z</time>
      </trkpt>
      <trkpt lat="42.236938" lon="1.682371">
        <ele>1826.923</ele>
        <time>2018-09-22T11:14:50Z</time>
      </trkpt>
      <trkpt lat="42.236954" lon="1.682405">
        <ele>1828.145</ele>
        <time>2018-09-22T11:14:53Z</time>
      </trkpt>
      <trkpt lat="42.236958" lon="1.682421">
        <ele>1828.657</ele>
        <time>2018-09-22T11:14:55Z</time>
      </trkpt>
      <trkpt lat="42.236955" lon="1.682439">
        <ele>1829.421</ele>
        <time>2018-09-22T11:14:57Z</time>
      </trkpt>
      <trkpt lat="42.236962" lon="1.682461">
        <ele>1830.241</ele>
        <time>2018-09-22T11:15:00Z</time>
      </trkpt>
      <trkpt lat="42.236965" lon="1.682468">
        <ele>1830.505</ele>
        <time>2018-09-22T11:15:01Z</time>
      </trkpt>
      <trkpt lat="42.236971" lon="1.682483">
        <ele>1831.008</ele>
        <time>2018-09-22T11:15:03Z</time>
      </trkpt>
      <trkpt lat="42.236963" lon="1.682484">
        <ele>1831.144</ele>
        <time>2018-09-22T11:15:04Z</time>
      </trkpt>
      <trkpt lat="42.236956" lon="1.682490">
        <ele>1831.410</ele>
        <time>2018-09-22T11:15:06Z</time>
      </trkpt>
      <trkpt lat="42.236959" lon="1.682514">
        <ele>1832.331</ele>
        <time>2018-09-22T11:15:11Z</time>
      </trkpt>
      <trkpt lat="42.236962" lon="1.682526">
        <ele>1832.785</ele>
        <time>2018-09-22T11:15:12Z</time>
      </trkpt>
      <trkpt lat="42.236964" lon="1.682554">
        <ele>1833.771</ele>
        <time>2018-09-22T11:15:15Z</time>
      </trkpt>
      <trkpt lat="42.236965" lon="1.682623">
        <ele>1836.281</ele>
        <time>2018-09-22T11:15:20Z</time>
      </trkpt>
      <trkpt lat="42.236967" lon="1.682636">
        <ele>1836.643</ele>
        <time>2018-09-22T11:15:21Z</time>
      </trkpt>
      <trkpt lat="42.236973" lon="1.682643">
        <ele>1836.845</ele>
        <time>2018-09-22T11:15:22Z</time>
      </trkpt>
      <trkpt lat="42.236977" lon="1.682656">
        <ele>1837.364</ele>
        <time>2018-09-22T11:15:23Z</time>
      </trkpt>
      <trkpt lat="42.236977" lon="1.682656">
        <ele>1837.306</ele>
        <time>2018-09-22T11:15:24Z</time>
      </trkpt>
      <trkpt lat="42.236979" lon="1.682663">
        <ele>1837.516</ele>
        <time>2018-09-22T11:15:26Z</time>
      </trkpt>
      <trkpt lat="42.236984" lon="1.682671">
        <ele>1837.808</ele>
        <time>2018-09-22T11:15:27Z</time>
      </trkpt>
      <trkpt lat="42.236990" lon="1.682677">
        <ele>1837.928</ele>
        <time>2018-09-22T11:15:28Z</time>
      </trkpt>
      <trkpt lat="42.236981" lon="1.682683">
        <ele>1838.284</ele>
        <time>2018-09-22T11:15:29Z</time>
      </trkpt>
      <trkpt lat="42.236974" lon="1.682693">
        <ele>1838.695</ele>
        <time>2018-09-22T11:15:30Z</time>
      </trkpt>
      <trkpt lat="42.236955" lon="1.682689">
        <ele>1838.759</ele>
        <time>2018-09-22T11:15:31Z</time>
      </trkpt>
      <trkpt lat="42.236946" lon="1.682702">
        <ele>1839.215</ele>
        <time>2018-09-22T11:15:32Z</time>
      </trkpt>
      <trkpt lat="42.236926" lon="1.682737">
        <ele>1840.565</ele>
        <time>2018-09-22T11:15:35Z</time>
      </trkpt>
      <trkpt lat="42.236921" lon="1.682751">
        <ele>1841.117</ele>
        <time>2018-09-22T11:15:36Z</time>
      </trkpt>
      <trkpt lat="42.236903" lon="1.682776">
        <ele>1842.089</ele>
        <time>2018-09-22T11:15:39Z</time>
      </trkpt>
      <trkpt lat="42.236896" lon="1.682788">
        <ele>1842.594</ele>
        <time>2018-09-22T11:15:40Z</time>
      </trkpt>
      <trkpt lat="42.236886" lon="1.682796">
        <ele>1842.757</ele>
        <time>2018-09-22T11:15:41Z</time>
      </trkpt>
      <trkpt lat="42.236874" lon="1.682811">
        <ele>1843.322</ele>
        <time>2018-09-22T11:15:43Z</time>
      </trkpt>
      <trkpt lat="42.236872" lon="1.682822">
        <ele>1843.608</ele>
        <time>2018-09-22T11:15:44Z</time>
      </trkpt>
      <trkpt lat="42.236861" lon="1.682859">
        <ele>1844.811</ele>
        <time>2018-09-22T11:15:49Z</time>
      </trkpt>
      <trkpt lat="42.236854" lon="1.682907">
        <ele>1846.377</ele>
        <time>2018-09-22T11:15:54Z</time>
      </trkpt>
      <trkpt lat="42.236859" lon="1.682922">
        <ele>1846.858</ele>
        <time>2018-09-22T11:15:56Z</time>
      </trkpt>
      <trkpt lat="42.236863" lon="1.682929">
        <ele>1847.022</ele>
        <time>2018-09-22T11:15:57Z</time>
      </trkpt>
      <trkpt lat="42.236865" lon="1.682930">
        <ele>1847.068</ele>
        <time>2018-09-22T11:15:58Z</time>
      </trkpt>
      <trkpt lat="42.236869" lon="1.682933">
        <ele>1847.138</ele>
        <time>2018-09-22T11:15:59Z</time>
      </trkpt>
      <trkpt lat="42.236892" lon="1.682985">
        <ele>1848.760</ele>
        <time>2018-09-22T11:16:04Z</time>
      </trkpt>
      <trkpt lat="42.236896" lon="1.683020">
        <ele>1849.832</ele>
        <time>2018-09-22T11:16:10Z</time>
      </trkpt>
      <trkpt lat="42.236890" lon="1.683062">
        <ele>1851.185</ele>
        <time>2018-09-22T11:16:14Z</time>
      </trkpt>
      <trkpt lat="42.236886" lon="1.683070">
        <ele>1851.489</ele>
        <time>2018-09-22T11:16:16Z</time>
      </trkpt>
      <trkpt lat="42.236900" lon="1.683084">
        <ele>1851.717</ele>
        <time>2018-09-22T11:16:19Z</time>
      </trkpt>
      <trkpt lat="42.236888" lon="1.683099">
        <ele>1852.108</ele>
        <time>2018-09-22T11:16:22Z</time>
      </trkpt>
      <trkpt lat="42.236882" lon="1.683112">
        <ele>1852.530</ele>
        <time>2018-09-22T11:16:24Z</time>
      </trkpt>
      <trkpt lat="42.236882" lon="1.683141">
        <ele>1853.336</ele>
        <time>2018-09-22T11:16:26Z</time>
      </trkpt>
      <trkpt lat="42.236886" lon="1.683167">
        <ele>1854.057</ele>
        <time>2018-09-22T11:16:28Z</time>
      </trkpt>
      <trkpt lat="42.236889" lon="1.683180">
        <ele>1854.481</ele>
        <time>2018-09-22T11:16:29Z</time>
      </trkpt>
      <trkpt lat="42.236889" lon="1.683187">
        <ele>1854.647</ele>
        <time>2018-09-22T11:16:30Z</time>
      </trkpt>
      <trkpt lat="42.236896" lon="1.683207">
        <ele>1855.177</ele>
        <time>2018-09-22T11:16:32Z</time>
      </trkpt>
      <trkpt lat="42.236901" lon="1.683221">
        <ele>1855.519</ele>
        <time>2018-09-22T11:16:34Z</time>
      </trkpt>
      <trkpt lat="42.236912" lon="1.683244">
        <ele>1856.271</ele>
        <time>2018-09-22T11:16:37Z</time>
      </trkpt>
      <trkpt lat="42.236921" lon="1.683253">
        <ele>1856.518</ele>
        <time>2018-09-22T11:16:38Z</time>
      </trkpt>
      <trkpt lat="42.236927" lon="1.683257">
        <ele>1856.798</ele>
        <time>2018-09-22T11:16:40Z</time>
      </trkpt>
      <trkpt lat="42.236930" lon="1.683269">
        <ele>1857.017</ele>
        <time>2018-09-22T11:16:43Z</time>
      </trkpt>
      <trkpt lat="42.236944" lon="1.683288">
        <ele>1857.608</ele>
        <time>2018-09-22T11:16:46Z</time>
      </trkpt>
      <trkpt lat="42.236932" lon="1.683340">
        <ele>1859.033</ele>
        <time>2018-09-22T11:16:51Z</time>
      </trkpt>
      <trkpt lat="42.236931" lon="1.683351">
        <ele>1859.389</ele>
        <time>2018-09-22T11:16:52Z</time>
      </trkpt>
      <trkpt lat="42.236929" lon="1.683368">
        <ele>1859.780</ele>
        <time>2018-09-22T11:16:54Z</time>
      </trkpt>
      <trkpt lat="42.236936" lon="1.683378">
        <ele>1860.084</ele>
        <time>2018-09-22T11:16:55Z</time>
      </trkpt>
      <trkpt lat="42.236948" lon="1.683383">
        <ele>1860.220</ele>
        <time>2018-09-22T11:16:57Z</time>
      </trkpt>
      <trkpt lat="42.236960" lon="1.683387">
        <ele>1860.480</ele>
        <time>2018-09-22T11:16:59Z</time>
      </trkpt>
      <trkpt lat="42.236962" lon="1.683400">
        <ele>1860.792</ele>
        <time>2018-09-22T11:17:01Z</time>
      </trkpt>
      <trkpt lat="42.236952" lon="1.683430">
        <ele>1861.454</ele>
        <time>2018-09-22T11:17:04Z</time>
      </trkpt>
      <trkpt lat="42.236947" lon="1.683474">
        <ele>1862.515</ele>
        <time>2018-09-22T11:17:08Z</time>
      </trkpt>
      <trkpt lat="42.236985" lon="1.683529">
        <ele>1864.265</ele>
        <time>2018-09-22T11:17:14Z</time>
      </trkpt>
      <trkpt lat="42.237016" lon="1.683571">
        <ele>1865.611</ele>
        <time>2018-09-22T11:17:18Z</time>
      </trkpt>
      <trkpt lat="42.237015" lon="1.683575">
        <ele>1865.708</ele>
        <time>2018-09-22T11:17:19Z</time>
      </trkpt>
      <trkpt lat="42.237056" lon="1.683609">
        <ele>1867.163</ele>
        <time>2018-09-22T11:17:24Z</time>
      </trkpt>
      <trkpt lat="42.237066" lon="1.683626">
        <ele>1867.519</ele>
        <time>2018-09-22T11:17:26Z</time>
      </trkpt>
      <trkpt lat="42.237070" lon="1.683639">
        <ele>1867.920</ele>
        <time>2018-09-22T11:17:27Z</time>
      </trkpt>
      <trkpt lat="42.237076" lon="1.683654">
        <ele>1868.214</ele>
        <time>2018-09-22T11:17:28Z</time>
      </trkpt>
      <trkpt lat="42.237089" lon="1.683696">
        <ele>1869.270</ele>
        <time>2018-09-22T11:17:32Z</time>
      </trkpt>
      <trkpt lat="42.237095" lon="1.683711">
        <ele>1869.680</ele>
        <time>2018-09-22T11:17:33Z</time>
      </trkpt>
      <trkpt lat="42.237103" lon="1.683748">
        <ele>1870.452</ele>
        <time>2018-09-22T11:17:37Z</time>
      </trkpt>
      <trkpt lat="42.237101" lon="1.683761">
        <ele>1870.694</ele>
        <time>2018-09-22T11:17:38Z</time>
      </trkpt>
      <trkpt lat="42.237113" lon="1.683801">
        <ele>1871.667</ele>
        <time>2018-09-22T11:17:41Z</time>
      </trkpt>
      <trkpt lat="42.237114" lon="1.683809">
        <ele>1871.881</ele>
        <time>2018-09-22T11:17:42Z</time>
      </trkpt>
      <trkpt lat="42.237116" lon="1.683819">
        <ele>1872.019</ele>
        <time>2018-09-22T11:17:43Z</time>
      </trkpt>
      <trkpt lat="42.237120" lon="1.683831">
        <ele>1872.308</ele>
        <time>2018-09-22T11:17:44Z</time>
      </trkpt>
      <trkpt lat="42.237125" lon="1.683841">
        <ele>1872.668</ele>
        <time>2018-09-22T11:17:45Z</time>
      </trkpt>
      <trkpt lat="42.237135" lon="1.683863">
        <ele>1873.264</ele>
        <time>2018-09-22T11:17:47Z</time>
      </trkpt>
      <trkpt lat="42.237138" lon="1.683871">
        <ele>1873.475</ele>
        <time>2018-09-22T11:17:48Z</time>
      </trkpt>
      <trkpt lat="42.237142" lon="1.683875">
        <ele>1873.599</ele>
        <time>2018-09-22T11:17:49Z</time>
      </trkpt>
      <trkpt lat="42.237144" lon="1.683877">
        <ele>1873.685</ele>
        <time>2018-09-22T11:17:50Z</time>
      </trkpt>
      <trkpt lat="42.237148" lon="1.683882">
        <ele>1873.785</ele>
        <time>2018-09-22T11:17:51Z</time>
      </trkpt>
      <trkpt lat="42.237154" lon="1.683889">
        <ele>1874.067</ele>
        <time>2018-09-22T11:17:52Z</time>
      </trkpt>
      <trkpt lat="42.237166" lon="1.683905">
        <ele>1874.359</ele>
        <time>2018-09-22T11:17:54Z</time>
      </trkpt>
      <trkpt lat="42.237167" lon="1.683910">
        <ele>1874.316</ele>
        <time>2018-09-22T11:17:55Z</time>
      </trkpt>
      <trkpt lat="42.237174" lon="1.683934">
        <ele>1874.676</ele>
        <time>2018-09-22T11:17:58Z</time>
      </trkpt>
      <trkpt lat="42.237200" lon="1.683973">
        <ele>1875.513</ele>
        <time>2018-09-22T11:18:03Z</time>
      </trkpt>
      <trkpt lat="42.237209" lon="1.683984">
        <ele>1875.708</ele>
        <time>2018-09-22T11:18:04Z</time>
      </trkpt>
      <trkpt lat="42.237231" lon="1.684009">
        <ele>1876.443</ele>
        <time>2018-09-22T11:18:08Z</time>
      </trkpt>
      <trkpt lat="42.237244" lon="1.684043">
        <ele>1877.149</ele>
        <time>2018-09-22T11:18:12Z</time>
      </trkpt>
      <trkpt lat="42.237270" lon="1.684106">
        <ele>1878.650</ele>
        <time>2018-09-22T11:18:17Z</time>
      </trkpt>
      <trkpt lat="42.237272" lon="1.684110">
        <ele>1878.754</ele>
        <time>2018-09-22T11:18:19Z</time>
      </trkpt>
      <trkpt lat="42.237278" lon="1.684103">
        <ele>1878.860</ele>
        <time>2018-09-22T11:18:20Z</time>
      </trkpt>
      <trkpt lat="42.237296" lon="1.684072">
        <ele>1878.820</ele>
        <time>2018-09-22T11:18:24Z</time>
      </trkpt>
      <trkpt lat="42.237302" lon="1.684062">
        <ele>1878.862</ele>
        <time>2018-09-22T11:18:25Z</time>
      </trkpt>
      <trkpt lat="42.237316" lon="1.684068">
        <ele>1879.214</ele>
        <time>2018-09-22T11:18:27Z</time>
      </trkpt>
      <trkpt lat="42.237322" lon="1.684072">
        <ele>1879.489</ele>
        <time>2018-09-22T11:18:28Z</time>
      </trkpt>
      <trkpt lat="42.237324" lon="1.684087">
        <ele>1879.806</ele>
        <time>2018-09-22T11:18:29Z</time>
      </trkpt>
      <trkpt lat="42.237330" lon="1.684103">
        <ele>1880.226</ele>
        <time>2018-09-22T11:18:32Z</time>
      </trkpt>
      <trkpt lat="42.237356" lon="1.684129">
        <ele>1881.508</ele>
        <time>2018-09-22T11:18:39Z</time>
      </trkpt>
      <trkpt lat="42.237365" lon="1.684141">
        <ele>1882.070</ele>
        <time>2018-09-22T11:18:42Z</time>
      </trkpt>
      <trkpt lat="42.237392" lon="1.684145">
        <ele>1882.946</ele>
        <time>2018-09-22T11:18:47Z</time>
      </trkpt>
      <trkpt lat="42.237395" lon="1.684153">
        <ele>1883.237</ele>
        <time>2018-09-22T11:18:48Z</time>
      </trkpt>
      <trkpt lat="42.237396" lon="1.684152">
        <ele>1883.281</ele>
        <time>2018-09-22T11:18:50Z</time>
      </trkpt>
      <trkpt lat="42.237397" lon="1.684155">
        <ele>1883.477</ele>
        <time>2018-09-22T11:18:51Z</time>
      </trkpt>
      <trkpt lat="42.237406" lon="1.684162">
        <ele>1883.817</ele>
        <time>2018-09-22T11:18:53Z</time>
      </trkpt>
      <trkpt lat="42.237428" lon="1.684190">
        <ele>1884.889</ele>
        <time>2018-09-22T11:18:58Z</time>
      </trkpt>
      <trkpt lat="42.237455" lon="1.684200">
        <ele>1885.931</ele>
        <time>2018-09-22T11:19:01Z</time>
      </trkpt>
      <trkpt lat="42.237460" lon="1.684222">
        <ele>1886.349</ele>
        <time>2018-09-22T11:19:03Z</time>
      </trkpt>
      <trkpt lat="42.237465" lon="1.684249">
        <ele>1886.802</ele>
        <time>2018-09-22T11:19:05Z</time>
      </trkpt>
      <trkpt lat="42.237469" lon="1.684257">
        <ele>1887.022</ele>
        <time>2018-09-22T11:19:06Z</time>
      </trkpt>
      <trkpt lat="42.237480" lon="1.684252">
        <ele>1887.408</ele>
        <time>2018-09-22T11:19:07Z</time>
      </trkpt>
      <trkpt lat="42.237485" lon="1.684253">
        <ele>1887.676</ele>
        <time>2018-09-22T11:19:08Z</time>
      </trkpt>
      <trkpt lat="42.237489" lon="1.684251">
        <ele>1887.742</ele>
        <time>2018-09-22T11:19:09Z</time>
      </trkpt>
      <trkpt lat="42.237499" lon="1.684239">
        <ele>1888.093</ele>
        <time>2018-09-22T11:19:11Z</time>
      </trkpt>
      <trkpt lat="42.237535" lon="1.684258">
        <ele>1888.337</ele>
        <time>2018-09-22T11:19:15Z</time>
      </trkpt>
      <trkpt lat="42.237531" lon="1.684259">
        <ele>1888.373</ele>
        <time>2018-09-22T11:19:16Z</time>
      </trkpt>
      <trkpt lat="42.237554" lon="1.684275">
        <ele>1888.753</ele>
        <time>2018-09-22T11:19:20Z</time>
      </trkpt>
      <trkpt lat="42.237554" lon="1.684280">
        <ele>1888.795</ele>
        <time>2018-09-22T11:19:21Z</time>
      </trkpt>
      <trkpt lat="42.237556" lon="1.684289">
        <ele>1888.957</ele>
        <time>2018-09-22T11:19:23Z</time>
      </trkpt>
      <trkpt lat="42.237562" lon="1.684302">
        <ele>1889.251</ele>
        <time>2018-09-22T11:19:24Z</time>
      </trkpt>
      <trkpt lat="42.237589" lon="1.684320">
        <ele>1889.801</ele>
        <time>2018-09-22T11:19:28Z</time>
      </trkpt>
      <trkpt lat="42.237607" lon="1.684331">
        <ele>1890.211</ele>
        <time>2018-09-22T11:19:30Z</time>
      </trkpt>
      <trkpt lat="42.237627" lon="1.684348">
        <ele>1890.708</ele>
        <time>2018-09-22T11:19:33Z</time>
      </trkpt>
      <trkpt lat="42.237642" lon="1.684375">
        <ele>1891.677</ele>
        <time>2018-09-22T11:19:35Z</time>
      </trkpt>
      <trkpt lat="42.237658" lon="1.684393">
        <ele>1892.393</ele>
        <time>2018-09-22T11:19:37Z</time>
      </trkpt>
      <trkpt lat="42.237678" lon="1.684421">
        <ele>1893.594</ele>
        <time>2018-09-22T11:19:39Z</time>
      </trkpt>
      <trkpt lat="42.237683" lon="1.684433">
        <ele>1893.918</ele>
        <time>2018-09-22T11:19:40Z</time>
      </trkpt>
      <trkpt lat="42.237685" lon="1.684448">
        <ele>1894.354</ele>
        <time>2018-09-22T11:19:42Z</time>
      </trkpt>
      <trkpt lat="42.237697" lon="1.684446">
        <ele>1894.534</ele>
        <time>2018-09-22T11:19:46Z</time>
      </trkpt>
      <trkpt lat="42.237713" lon="1.684465">
        <ele>1895.026</ele>
        <time>2018-09-22T11:19:48Z</time>
      </trkpt>
      <trkpt lat="42.237725" lon="1.684505">
        <ele>1895.998</ele>
        <time>2018-09-22T11:19:52Z</time>
      </trkpt>
      <trkpt lat="42.237733" lon="1.684512">
        <ele>1896.298</ele>
        <time>2018-09-22T11:19:53Z</time>
      </trkpt>
      <trkpt lat="42.237744" lon="1.684528">
        <ele>1896.815</ele>
        <time>2018-09-22T11:19:56Z</time>
      </trkpt>
      <trkpt lat="42.237764" lon="1.684542">
        <ele>1897.626</ele>
        <time>2018-09-22T11:20:01Z</time>
      </trkpt>
      <trkpt lat="42.237777" lon="1.684572">
        <ele>1898.708</ele>
        <time>2018-09-22T11:20:03Z</time>
      </trkpt>
      <trkpt lat="42.237783" lon="1.684582">
        <ele>1898.861</ele>
        <time>2018-09-22T11:20:04Z</time>
      </trkpt>
      <trkpt lat="42.237798" lon="1.684606">
        <ele>1899.127</ele>
        <time>2018-09-22T11:20:06Z</time>
      </trkpt>
      <trkpt lat="42.237805" lon="1.684613">
        <ele>1899.118</ele>
        <time>2018-09-22T11:20:07Z</time>
      </trkpt>
      <trkpt lat="42.237812" lon="1.684630">
        <ele>1899.492</ele>
        <time>2018-09-22T11:20:09Z</time>
      </trkpt>
      <trkpt lat="42.237810" lon="1.684634">
        <ele>1899.568</ele>
        <time>2018-09-22T11:20:10Z</time>
      </trkpt>
      <trkpt lat="42.237817" lon="1.684640">
        <ele>1899.668</ele>
        <time>2018-09-22T11:20:12Z</time>
      </trkpt>
      <trkpt lat="42.237819" lon="1.684648">
        <ele>1899.850</ele>
        <time>2018-09-22T11:20:13Z</time>
      </trkpt>
      <trkpt lat="42.237841" lon="1.684661">
        <ele>1899.832</ele>
        <time>2018-09-22T11:20:17Z</time>
      </trkpt>
      <trkpt lat="42.237863" lon="1.684748">
        <ele>1901.917</ele>
        <time>2018-09-22T11:20:28Z</time>
      </trkpt>
      <trkpt lat="42.237872" lon="1.684758">
        <ele>1902.187</ele>
        <time>2018-09-22T11:20:31Z</time>
      </trkpt>
      <trkpt lat="42.237882" lon="1.684762">
        <ele>1902.115</ele>
        <time>2018-09-22T11:20:33Z</time>
      </trkpt>
      <trkpt lat="42.237911" lon="1.684803">
        <ele>1903.008</ele>
        <time>2018-09-22T11:20:39Z</time>
      </trkpt>
      <trkpt lat="42.237937" lon="1.684846">
        <ele>1904.163</ele>
        <time>2018-09-22T11:20:44Z</time>
      </trkpt>
      <trkpt lat="42.237938" lon="1.684849">
        <ele>1904.289</ele>
        <time>2018-09-22T11:20:45Z</time>
      </trkpt>
      <trkpt lat="42.237952" lon="1.684860">
        <ele>1904.520</ele>
        <time>2018-09-22T11:20:47Z</time>
      </trkpt>
      <trkpt lat="42.237974" lon="1.684901">
        <ele>1905.874</ele>
        <time>2018-09-22T11:20:52Z</time>
      </trkpt>
      <trkpt lat="42.237973" lon="1.684909">
        <ele>1906.120</ele>
        <time>2018-09-22T11:20:54Z</time>
      </trkpt>
      <trkpt lat="42.237973" lon="1.684926">
        <ele>1906.660</ele>
        <time>2018-09-22T11:20:57Z</time>
      </trkpt>
      <trkpt lat="42.237973" lon="1.684925">
        <ele>1906.642</ele>
        <time>2018-09-22T11:20:58Z</time>
      </trkpt>
      <trkpt lat="42.237973" lon="1.684920">
        <ele>1906.484</ele>
        <time>2018-09-22T11:20:59Z</time>
      </trkpt>
      <trkpt lat="42.237978" lon="1.684935">
        <ele>1906.965</ele>
        <time>2018-09-22T11:21:01Z</time>
      </trkpt>
      <trkpt lat="42.237981" lon="1.684970">
        <ele>1908.068</ele>
        <time>2018-09-22T11:21:04Z</time>
      </trkpt>
      <trkpt lat="42.237987" lon="1.684986">
        <ele>1908.514</ele>
        <time>2018-09-22T11:21:06Z</time>
      </trkpt>
      <trkpt lat="42.237986" lon="1.684993">
        <ele>1908.708</ele>
        <time>2018-09-22T11:21:07Z</time>
      </trkpt>
      <trkpt lat="42.237986" lon="1.685005">
        <ele>1909.168</ele>
        <time>2018-09-22T11:21:08Z</time>
      </trkpt>
      <trkpt lat="42.238000" lon="1.685038">
        <ele>1910.564</ele>
        <time>2018-09-22T11:21:11Z</time>
      </trkpt>
      <trkpt lat="42.238033" lon="1.685133">
        <ele>1914.615</ele>
        <time>2018-09-22T11:21:17Z</time>
      </trkpt>
      <trkpt lat="42.238035" lon="1.685186">
        <ele>1916.719</ele>
        <time>2018-09-22T11:21:23Z</time>
      </trkpt>
      <trkpt lat="42.238053" lon="1.685216">
        <ele>1918.445</ele>
        <time>2018-09-22T11:21:27Z</time>
      </trkpt>
      <trkpt lat="42.238068" lon="1.685229">
        <ele>1918.575</ele>
        <time>2018-09-22T11:21:32Z</time>
      </trkpt>
      <trkpt lat="42.238065" lon="1.685233">
        <ele>1918.727</ele>
        <time>2018-09-22T11:21:33Z</time>
      </trkpt>
      <trkpt lat="42.238058" lon="1.685224">
        <ele>1918.779</ele>
        <time>2018-09-22T11:21:37Z</time>
      </trkpt>
      <trkpt lat="42.238076" lon="1.685266">
        <ele>1919.667</ele>
        <time>2018-09-22T11:21:45Z</time>
      </trkpt>
      <trkpt lat="42.238109" lon="1.685317">
        <ele>1919.981</ele>
        <time>2018-09-22T11:21:52Z</time>
      </trkpt>
      <trkpt lat="42.238133" lon="1.685346">
        <ele>1919.919</ele>
        <time>2018-09-22T11:21:56Z</time>
      </trkpt>
      <trkpt lat="42.238135" lon="1.685374">
        <ele>1920.708</ele>
        <time>2018-09-22T11:21:58Z</time>
      </trkpt>
      <trkpt lat="42.238145" lon="1.685425">
        <ele>1922.098</ele>
        <time>2018-09-22T11:22:01Z</time>
      </trkpt>
      <trkpt lat="42.238145" lon="1.685431">
        <ele>1922.244</ele>
        <time>2018-09-22T11:22:02Z</time>
      </trkpt>
      <trkpt lat="42.238156" lon="1.685447">
        <ele>1922.465</ele>
        <time>2018-09-22T11:22:04Z</time>
      </trkpt>
      <trkpt lat="42.238174" lon="1.685452">
        <ele>1921.939</ele>
        <time>2018-09-22T11:22:06Z</time>
      </trkpt>
      <trkpt lat="42.238172" lon="1.685485">
        <ele>1923.275</ele>
        <time>2018-09-22T11:22:12Z</time>
      </trkpt>
      <trkpt lat="42.238161" lon="1.685508">
        <ele>1924.365</ele>
        <time>2018-09-22T11:22:20Z</time>
      </trkpt>
      <trkpt lat="42.238164" lon="1.685501">
        <ele>1923.977</ele>
        <time>2018-09-22T11:22:23Z</time>
      </trkpt>
      <trkpt lat="42.238167" lon="1.685502">
        <ele>1923.999</ele>
        <time>2018-09-22T11:22:24Z</time>
      </trkpt>
      <trkpt lat="42.238164" lon="1.685508">
        <ele>1924.215</ele>
        <time>2018-09-22T11:22:25Z</time>
      </trkpt>
      <trkpt lat="42.238169" lon="1.685525">
        <ele>1924.665</ele>
        <time>2018-09-22T11:22:27Z</time>
      </trkpt>
      <trkpt lat="42.238171" lon="1.685530">
        <ele>1924.711</ele>
        <time>2018-09-22T11:22:29Z</time>
      </trkpt>
      <trkpt lat="42.238201" lon="1.685627">
        <ele>1925.108</ele>
        <time>2018-09-22T11:22:39Z</time>
      </trkpt>
      <trkpt lat="42.238209" lon="1.685649">
        <ele>1925.133</ele>
        <time>2018-09-22T11:22:41Z</time>
      </trkpt>
      <trkpt lat="42.238224" lon="1.685655">
        <ele>1925.059</ele>
        <time>2018-09-22T11:22:42Z</time>
      </trkpt>
      <trkpt lat="42.238241" lon="1.685690">
        <ele>1925.260</ele>
        <time>2018-09-22T11:22:45Z</time>
      </trkpt>
      <trkpt lat="42.238252" lon="1.685708">
        <ele>1925.464</ele>
        <time>2018-09-22T11:22:47Z</time>
      </trkpt>
      <trkpt lat="42.238265" lon="1.685733">
        <ele>1925.860</ele>
        <time>2018-09-22T11:22:50Z</time>
      </trkpt>
      <trkpt lat="42.238271" lon="1.685738">
        <ele>1925.930</ele>
        <time>2018-09-22T11:22:51Z</time>
      </trkpt>
      <trkpt lat="42.238278" lon="1.685737">
        <ele>1926.062</ele>
        <time>2018-09-22T11:22:52Z</time>
      </trkpt>
      <trkpt lat="42.238298" lon="1.685805">
        <ele>1927.624</ele>
        <time>2018-09-22T11:22:58Z</time>
      </trkpt>
      <trkpt lat="42.238316" lon="1.685847">
        <ele>1928.422</ele>
        <time>2018-09-22T11:23:00Z</time>
      </trkpt>
      <trkpt lat="42.238322" lon="1.685874">
        <ele>1928.262</ele>
        <time>2018-09-22T11:23:02Z</time>
      </trkpt>
      <trkpt lat="42.238338" lon="1.685920">
        <ele>1927.908</ele>
        <time>2018-09-22T11:23:06Z</time>
      </trkpt>
      <trkpt lat="42.238336" lon="1.685923">
        <ele>1927.908</ele>
        <time>2018-09-22T11:23:07Z</time>
      </trkpt>
      <trkpt lat="42.238342" lon="1.685934">
        <ele>1927.714</ele>
        <time>2018-09-22T11:23:09Z</time>
      </trkpt>
      <trkpt lat="42.238351" lon="1.685952">
        <ele>1927.390</ele>
        <time>2018-09-22T11:23:11Z</time>
      </trkpt>
      <trkpt lat="42.238389" lon="1.685997">
        <ele>1926.541</ele>
        <time>2018-09-22T11:23:16Z</time>
      </trkpt>
      <trkpt lat="42.238396" lon="1.686005">
        <ele>1926.535</ele>
        <time>2018-09-22T11:23:17Z</time>
      </trkpt>
      <trkpt lat="42.238400" lon="1.686014">
        <ele>1926.531</ele>
        <time>2018-09-22T11:23:18Z</time>
      </trkpt>
      <trkpt lat="42.238424" lon="1.686048">
        <ele>1926.571</ele>
        <time>2018-09-22T11:23:22Z</time>
      </trkpt>
      <trkpt lat="42.238434" lon="1.686059">
        <ele>1926.643</ele>
        <time>2018-09-22T11:23:23Z</time>
      </trkpt>
      <trkpt lat="42.238440" lon="1.686064">
        <ele>1926.665</ele>
        <time>2018-09-22T11:23:24Z</time>
      </trkpt>
      <trkpt lat="42.238447" lon="1.686068">
        <ele>1926.768</ele>
        <time>2018-09-22T11:23:25Z</time>
      </trkpt>
      <trkpt lat="42.238453" lon="1.686074">
        <ele>1926.842</ele>
        <time>2018-09-22T11:23:26Z</time>
      </trkpt>
      <trkpt lat="42.238460" lon="1.686080">
        <ele>1926.926</ele>
        <time>2018-09-22T11:23:27Z</time>
      </trkpt>
      <trkpt lat="42.238473" lon="1.686086">
        <ele>1927.008</ele>
        <time>2018-09-22T11:23:29Z</time>
      </trkpt>
      <trkpt lat="42.238521" lon="1.686126">
        <ele>1928.178</ele>
        <time>2018-09-22T11:23:34Z</time>
      </trkpt>
      <trkpt lat="42.238565" lon="1.686183">
        <ele>1929.574</ele>
        <time>2018-09-22T11:23:39Z</time>
      </trkpt>
      <trkpt lat="42.238589" lon="1.686226">
        <ele>1930.875</ele>
        <time>2018-09-22T11:23:43Z</time>
      </trkpt>
      <trkpt lat="42.238601" lon="1.686254">
        <ele>1931.729</ele>
        <time>2018-09-22T11:23:46Z</time>
      </trkpt>
      <trkpt lat="42.238614" lon="1.686273">
        <ele>1932.425</ele>
        <time>2018-09-22T11:23:49Z</time>
      </trkpt>
      <trkpt lat="42.238620" lon="1.686279">
        <ele>1932.375</ele>
        <time>2018-09-22T11:23:50Z</time>
      </trkpt>
      <trkpt lat="42.238626" lon="1.686284">
        <ele>1932.297</ele>
        <time>2018-09-22T11:23:51Z</time>
      </trkpt>
      <trkpt lat="42.238641" lon="1.686290">
        <ele>1931.859</ele>
        <time>2018-09-22T11:23:52Z</time>
      </trkpt>
      <trkpt lat="42.238666" lon="1.686318">
        <ele>1931.612</ele>
        <time>2018-09-22T11:23:55Z</time>
      </trkpt>
      <trkpt lat="42.238679" lon="1.686334">
        <ele>1931.532</ele>
        <time>2018-09-22T11:23:58Z</time>
      </trkpt>
      <trkpt lat="42.238690" lon="1.686350">
        <ele>1931.505</ele>
        <time>2018-09-22T11:24:01Z</time>
      </trkpt>
      <trkpt lat="42.238720" lon="1.686398">
        <ele>1931.508</ele>
        <time>2018-09-22T11:24:08Z</time>
      </trkpt>
      <trkpt lat="42.238733" lon="1.686422">
        <ele>1931.283</ele>
        <time>2018-09-22T11:24:11Z</time>
      </trkpt>
      <trkpt lat="42.238735" lon="1.686426">
        <ele>1931.239</ele>
        <time>2018-09-22T11:24:12Z</time>
      </trkpt>
      <trkpt lat="42.238738" lon="1.686431">
        <ele>1931.120</ele>
        <time>2018-09-22T11:24:13Z</time>
      </trkpt>
      <trkpt lat="42.238752" lon="1.686468">
        <ele>1931.164</ele>
        <time>2018-09-22T11:24:17Z</time>
      </trkpt>
      <trkpt lat="42.238753" lon="1.686480">
        <ele>1931.280</ele>
        <time>2018-09-22T11:24:18Z</time>
      </trkpt>
      <trkpt lat="42.238758" lon="1.686561">
        <ele>1931.980</ele>
        <time>2018-09-22T11:24:24Z</time>
      </trkpt>
      <trkpt lat="42.238759" lon="1.686622">
        <ele>1932.632</ele>
        <time>2018-09-22T11:24:28Z</time>
      </trkpt>
      <trkpt lat="42.238761" lon="1.686642">
        <ele>1932.854</ele>
        <time>2018-09-22T11:24:30Z</time>
      </trkpt>
      <trkpt lat="42.238765" lon="1.686657">
        <ele>1932.939</ele>
        <time>2018-09-22T11:24:32Z</time>
      </trkpt>
      <trkpt lat="42.238773" lon="1.686666">
        <ele>1933.101</ele>
        <time>2018-09-22T11:24:34Z</time>
      </trkpt>
      <trkpt lat="42.238764" lon="1.686694">
        <ele>1933.021</ele>
        <time>2018-09-22T11:24:51Z</time>
      </trkpt>
      <trkpt lat="42.238758" lon="1.686705">
        <ele>1932.908</ele>
        <time>2018-09-22T11:25:12Z</time>
      </trkpt>
      <trkpt lat="42.238768" lon="1.686678">
        <ele>1933.175</ele>
        <time>2018-09-22T11:25:33Z</time>
      </trkpt>
      <trkpt lat="42.238769" lon="1.686689">
        <ele>1933.041</ele>
        <time>2018-09-22T11:25:34Z</time>
      </trkpt>
      <trkpt lat="42.238770" lon="1.686698">
        <ele>1933.022</ele>
        <time>2018-09-22T11:25:35Z</time>
      </trkpt>
      <trkpt lat="42.238771" lon="1.686695">
        <ele>1933.056</ele>
        <time>2018-09-22T11:25:36Z</time>
      </trkpt>
      <trkpt lat="42.238781" lon="1.686702">
        <ele>1933.232</ele>
        <time>2018-09-22T11:25:38Z</time>
      </trkpt>
      <trkpt lat="42.238809" lon="1.686740">
        <ele>1933.762</ele>
        <time>2018-09-22T11:25:43Z</time>
      </trkpt>
      <trkpt lat="42.238824" lon="1.686764">
        <ele>1934.254</ele>
        <time>2018-09-22T11:25:47Z</time>
      </trkpt>
      <trkpt lat="42.238828" lon="1.686769">
        <ele>1934.386</ele>
        <time>2018-09-22T11:25:48Z</time>
      </trkpt>
      <trkpt lat="42.238835" lon="1.686776">
        <ele>1934.547</ele>
        <time>2018-09-22T11:25:49Z</time>
      </trkpt>
      <trkpt lat="42.238848" lon="1.686783">
        <ele>1935.029</ele>
        <time>2018-09-22T11:25:50Z</time>
      </trkpt>
      <trkpt lat="42.238860" lon="1.686811">
        <ele>1935.621</ele>
        <time>2018-09-22T11:25:54Z</time>
      </trkpt>
      <trkpt lat="42.238866" lon="1.686815">
        <ele>1935.908</ele>
        <time>2018-09-22T11:25:55Z</time>
      </trkpt>
      <trkpt lat="42.238875" lon="1.686824">
        <ele>1936.386</ele>
        <time>2018-09-22T11:25:58Z</time>
      </trkpt>
      <trkpt lat="42.238889" lon="1.686855">
        <ele>1937.372</ele>
        <time>2018-09-22T11:26:02Z</time>
      </trkpt>
      <trkpt lat="42.238894" lon="1.686866">
        <ele>1937.493</ele>
        <time>2018-09-22T11:26:03Z</time>
      </trkpt>
      <trkpt lat="42.238897" lon="1.686876">
        <ele>1937.587</ele>
        <time>2018-09-22T11:26:04Z</time>
      </trkpt>
      <trkpt lat="42.238916" lon="1.686898">
        <ele>1937.383</ele>
        <time>2018-09-22T11:26:06Z</time>
      </trkpt>
      <trkpt lat="42.238932" lon="1.686922">
        <ele>1937.243</ele>
        <time>2018-09-22T11:26:08Z</time>
      </trkpt>
      <trkpt lat="42.238942" lon="1.686938">
        <ele>1937.315</ele>
        <time>2018-09-22T11:26:10Z</time>
      </trkpt>
      <trkpt lat="42.238959" lon="1.686956">
        <ele>1937.077</ele>
        <time>2018-09-22T11:26:12Z</time>
      </trkpt>
      <trkpt lat="42.238958" lon="1.686959">
        <ele>1937.066</ele>
        <time>2018-09-22T11:26:13Z</time>
      </trkpt>
      <trkpt lat="42.238968" lon="1.686966">
        <ele>1936.829</ele>
        <time>2018-09-22T11:26:14Z</time>
      </trkpt>
      <trkpt lat="42.238973" lon="1.686995">
        <ele>1936.821</ele>
        <time>2018-09-22T11:26:18Z</time>
      </trkpt>
      <trkpt lat="42.238997" lon="1.687023">
        <ele>1936.508</ele>
        <time>2018-09-22T11:26:21Z</time>
      </trkpt>
      <trkpt lat="42.239009" lon="1.687047">
        <ele>1936.628</ele>
        <time>2018-09-22T11:26:23Z</time>
      </trkpt>
      <trkpt lat="42.239021" lon="1.687071">
        <ele>1936.844</ele>
        <time>2018-09-22T11:26:25Z</time>
      </trkpt>
      <trkpt lat="42.239035" lon="1.687097">
        <ele>1937.135</ele>
        <time>2018-09-22T11:26:27Z</time>
      </trkpt>
      <trkpt lat="42.239042" lon="1.687120">
        <ele>1937.549</ele>
        <time>2018-09-22T11:26:29Z</time>
      </trkpt>
      <trkpt lat="42.239044" lon="1.687130">
        <ele>1937.745</ele>
        <time>2018-09-22T11:26:30Z</time>
      </trkpt>
      <trkpt lat="42.239057" lon="1.687156">
        <ele>1938.315</ele>
        <time>2018-09-22T11:26:32Z</time>
      </trkpt>
      <trkpt lat="42.239075" lon="1.687177">
        <ele>1938.947</ele>
        <time>2018-09-22T11:26:34Z</time>
      </trkpt>
      <trkpt lat="42.239088" lon="1.687184">
        <ele>1939.349</ele>
        <time>2018-09-22T11:26:35Z</time>
      </trkpt>
      <trkpt lat="42.239094" lon="1.687196">
        <ele>1939.741</ele>
        <time>2018-09-22T11:26:36Z</time>
      </trkpt>
      <trkpt lat="42.239102" lon="1.687201">
        <ele>1940.081</ele>
        <time>2018-09-22T11:26:37Z</time>
      </trkpt>
      <trkpt lat="42.239136" lon="1.687264">
        <ele>1941.709</ele>
        <time>2018-09-22T11:26:46Z</time>
      </trkpt>
      <trkpt lat="42.239157" lon="1.687289">
        <ele>1942.608</ele>
        <time>2018-09-22T11:26:50Z</time>
      </trkpt>
      <trkpt lat="42.239190" lon="1.687336">
        <ele>1943.286</ele>
        <time>2018-09-22T11:26:54Z</time>
      </trkpt>
      <trkpt lat="42.239194" lon="1.687348">
        <ele>1943.332</ele>
        <time>2018-09-22T11:26:55Z</time>
      </trkpt>
      <trkpt lat="42.239208" lon="1.687372">
        <ele>1943.653</ele>
        <time>2018-09-22T11:26:58Z</time>
      </trkpt>
      <trkpt lat="42.239210" lon="1.687381">
        <ele>1943.757</ele>
        <time>2018-09-22T11:26:59Z</time>
      </trkpt>
      <trkpt lat="42.239212" lon="1.687394">
        <ele>1943.953</ele>
        <time>2018-09-22T11:27:01Z</time>
      </trkpt>
      <trkpt lat="42.239210" lon="1.687403">
        <ele>1944.173</ele>
        <time>2018-09-22T11:27:02Z</time>
      </trkpt>
      <trkpt lat="42.239222" lon="1.687427">
        <ele>1944.515</ele>
        <time>2018-09-22T11:27:05Z</time>
      </trkpt>
      <trkpt lat="42.239229" lon="1.687470">
        <ele>1945.387</ele>
        <time>2018-09-22T11:27:10Z</time>
      </trkpt>
      <trkpt lat="42.239223" lon="1.687500">
        <ele>1946.099</ele>
        <time>2018-09-22T11:27:13Z</time>
      </trkpt>
      <trkpt lat="42.239217" lon="1.687552">
        <ele>1946.307</ele>
        <time>2018-09-22T11:27:17Z</time>
      </trkpt>
      <trkpt lat="42.239221" lon="1.687565">
        <ele>1946.427</ele>
        <time>2018-09-22T11:27:18Z</time>
      </trkpt>
      <trkpt lat="42.239224" lon="1.687572">
        <ele>1946.508</ele>
        <time>2018-09-22T11:27:19Z</time>
      </trkpt>
      <trkpt lat="42.239226" lon="1.687583">
        <ele>1946.621</ele>
        <time>2018-09-22T11:27:20Z</time>
      </trkpt>
      <trkpt lat="42.239222" lon="1.687604">
        <ele>1946.747</ele>
        <time>2018-09-22T11:27:22Z</time>
      </trkpt>
      <trkpt lat="42.239237" lon="1.687653">
        <ele>1947.368</ele>
        <time>2018-09-22T11:27:26Z</time>
      </trkpt>
      <trkpt lat="42.239236" lon="1.687663">
        <ele>1947.422</ele>
        <time>2018-09-22T11:27:27Z</time>
      </trkpt>
      <trkpt lat="42.239232" lon="1.687699">
        <ele>1947.668</ele>
        <time>2018-09-22T11:27:29Z</time>
      </trkpt>
      <trkpt lat="42.239227" lon="1.687728">
        <ele>1947.778</ele>
        <time>2018-09-22T11:27:31Z</time>
      </trkpt>
      <trkpt lat="42.239230" lon="1.687773">
        <ele>1948.290</ele>
        <time>2018-09-22T11:27:34Z</time>
      </trkpt>
      <trkpt lat="42.239226" lon="1.687805">
        <ele>1948.492</ele>
        <time>2018-09-22T11:27:36Z</time>
      </trkpt>
      <trkpt lat="42.239214" lon="1.687961">
        <ele>1949.728</ele>
        <time>2018-09-22T11:27:45Z</time>
      </trkpt>
      <trkpt lat="42.239213" lon="1.687977">
        <ele>1949.889</ele>
        <time>2018-09-22T11:27:46Z</time>
      </trkpt>
      <trkpt lat="42.239200" lon="1.688109">
        <ele>1951.317</ele>
        <time>2018-09-22T11:27:54Z</time>
      </trkpt>
      <trkpt lat="42.239192" lon="1.688158">
        <ele>1952.008</ele>
        <time>2018-09-22T11:27:57Z</time>
      </trkpt>
      <trkpt lat="42.239187" lon="1.688186">
        <ele>1952.574</ele>
        <time>2018-09-22T11:27:59Z</time>
      </trkpt>
      <trkpt lat="42.239198" lon="1.688216">
        <ele>1953.990</ele>
        <time>2018-09-22T11:28:01Z</time>
      </trkpt>
      <trkpt lat="42.239206" lon="1.688275">
        <ele>1955.991</ele>
        <time>2018-09-22T11:28:06Z</time>
      </trkpt>
      <trkpt lat="42.239207" lon="1.688285">
        <ele>1956.365</ele>
        <time>2018-09-22T11:28:07Z</time>
      </trkpt>
      <trkpt lat="42.239194" lon="1.688317">
        <ele>1956.321</ele>
        <time>2018-09-22T11:28:11Z</time>
      </trkpt>
      <trkpt lat="42.239185" lon="1.688318">
        <ele>1955.851</ele>
        <time>2018-09-22T11:28:12Z</time>
      </trkpt>
      <trkpt lat="42.239178" lon="1.688332">
        <ele>1955.733</ele>
        <time>2018-09-22T11:28:14Z</time>
      </trkpt>
      <trkpt lat="42.239166" lon="1.688354">
        <ele>1955.695</ele>
        <time>2018-09-22T11:28:18Z</time>
      </trkpt>
      <trkpt lat="42.239165" lon="1.688354">
        <ele>1955.618</ele>
        <time>2018-09-22T11:28:19Z</time>
      </trkpt>
      <trkpt lat="42.239157" lon="1.688400">
        <ele>1956.798</ele>
        <time>2018-09-22T11:28:25Z</time>
      </trkpt>
      <trkpt lat="42.239156" lon="1.688413">
        <ele>1957.217</ele>
        <time>2018-09-22T11:28:26Z</time>
      </trkpt>
      <trkpt lat="42.239152" lon="1.688433">
        <ele>1957.708</ele>
        <time>2018-09-22T11:28:29Z</time>
      </trkpt>
      <trkpt lat="42.239152" lon="1.688455">
        <ele>1958.433</ele>
        <time>2018-09-22T11:28:31Z</time>
      </trkpt>
      <trkpt lat="42.239144" lon="1.688481">
        <ele>1958.989</ele>
        <time>2018-09-22T11:28:38Z</time>
      </trkpt>
      <trkpt lat="42.239146" lon="1.688500">
        <ele>1959.780</ele>
        <time>2018-09-22T11:28:41Z</time>
      </trkpt>
      <trkpt lat="42.239149" lon="1.688521">
        <ele>1960.754</ele>
        <time>2018-09-22T11:28:43Z</time>
      </trkpt>
      <trkpt lat="42.239156" lon="1.688543">
        <ele>1961.950</ele>
        <time>2018-09-22T11:28:45Z</time>
      </trkpt>
      <trkpt lat="42.239156" lon="1.688571">
        <ele>1962.930</ele>
        <time>2018-09-22T11:28:50Z</time>
      </trkpt>
      <trkpt lat="42.239157" lon="1.688606">
        <ele>1964.242</ele>
        <time>2018-09-22T11:28:55Z</time>
      </trkpt>
      <trkpt lat="42.239155" lon="1.688654">
        <ele>1966.254</ele>
        <time>2018-09-22T11:28:59Z</time>
      </trkpt>
      <trkpt lat="42.239155" lon="1.688664">
        <ele>1966.673</ele>
        <time>2018-09-22T11:29:00Z</time>
      </trkpt>
      <trkpt lat="42.239140" lon="1.688694">
        <ele>1966.985</ele>
        <time>2018-09-22T11:29:03Z</time>
      </trkpt>
      <trkpt lat="42.239130" lon="1.688719">
        <ele>1967.413</ele>
        <time>2018-09-22T11:29:07Z</time>
      </trkpt>
      <trkpt lat="42.239116" lon="1.688725">
        <ele>1966.808</ele>
        <time>2018-09-22T11:29:09Z</time>
      </trkpt>
      <trkpt lat="42.239109" lon="1.688724">
        <ele>1966.499</ele>
        <time>2018-09-22T11:29:10Z</time>
      </trkpt>
      <trkpt lat="42.239105" lon="1.688723">
        <ele>1966.165</ele>
        <time>2018-09-22T11:29:11Z</time>
      </trkpt>
      <trkpt lat="42.239094" lon="1.688723">
        <ele>1965.536</ele>
        <time>2018-09-22T11:29:14Z</time>
      </trkpt>
      <trkpt lat="42.239067" lon="1.688745">
        <ele>1964.680</ele>
        <time>2018-09-22T11:29:21Z</time>
      </trkpt>
      <trkpt lat="42.239054" lon="1.688746">
        <ele>1963.996</ele>
        <time>2018-09-22T11:29:23Z</time>
      </trkpt>
      <trkpt lat="42.239037" lon="1.688839">
        <ele>1966.236</ele>
        <time>2018-09-22T11:29:33Z</time>
      </trkpt>
      <trkpt lat="42.239032" lon="1.688850">
        <ele>1966.398</ele>
        <time>2018-09-22T11:29:34Z</time>
      </trkpt>
      <trkpt lat="42.239030" lon="1.688856">
        <ele>1966.450</ele>
        <time>2018-09-22T11:29:35Z</time>
      </trkpt>
      <trkpt lat="42.239034" lon="1.688896">
        <ele>1967.849</ele>
        <time>2018-09-22T11:29:46Z</time>
      </trkpt>
      <trkpt lat="42.239027" lon="1.688914">
        <ele>1967.202</ele>
        <time>2018-09-22T11:29:49Z</time>
      </trkpt>
      <trkpt lat="42.239030" lon="1.688944">
        <ele>1967.222</ele>
        <time>2018-09-22T11:29:53Z</time>
      </trkpt>
      <trkpt lat="42.239039" lon="1.688934">
        <ele>1968.008</ele>
        <time>2018-09-22T11:29:58Z</time>
      </trkpt>
      <trkpt lat="42.239044" lon="1.688926">
        <ele>1968.476</ele>
        <time>2018-09-22T11:30:02Z</time>
      </trkpt>
      <trkpt lat="42.239044" lon="1.688977">
        <ele>1968.142</ele>
        <time>2018-09-22T11:30:07Z</time>
      </trkpt>
      <trkpt lat="42.239059" lon="1.689064">
        <ele>1968.943</ele>
        <time>2018-09-22T11:30:17Z</time>
      </trkpt>
      <trkpt lat="42.239071" lon="1.689180">
        <ele>1969.887</ele>
        <time>2018-09-22T11:30:28Z</time>
      </trkpt>
      <trkpt lat="42.239059" lon="1.689242">
        <ele>1969.523</ele>
        <time>2018-09-22T11:30:33Z</time>
      </trkpt>
      <trkpt lat="42.239048" lon="1.689305">
        <ele>1969.243</ele>
        <time>2018-09-22T11:30:41Z</time>
      </trkpt>
      <trkpt lat="42.239043" lon="1.689330">
        <ele>1969.295</ele>
        <time>2018-09-22T11:30:44Z</time>
      </trkpt>
      <trkpt lat="42.239045" lon="1.689397">
        <ele>1970.217</ele>
        <time>2018-09-22T11:30:48Z</time>
      </trkpt>
      <trkpt lat="42.239030" lon="1.689427">
        <ele>1969.447</ele>
        <time>2018-09-22T11:30:50Z</time>
      </trkpt>
      <trkpt lat="42.239023" lon="1.689443">
        <ele>1969.029</ele>
        <time>2018-09-22T11:30:51Z</time>
      </trkpt>
      <trkpt lat="42.239011" lon="1.689493">
        <ele>1968.421</ele>
        <time>2018-09-22T11:30:55Z</time>
      </trkpt>
      <trkpt lat="42.239011" lon="1.689508">
        <ele>1968.508</ele>
        <time>2018-09-22T11:30:56Z</time>
      </trkpt>
      <trkpt lat="42.239003" lon="1.689532">
        <ele>1967.986</ele>
        <time>2018-09-22T11:30:58Z</time>
      </trkpt>
      <trkpt lat="42.238997" lon="1.689550">
        <ele>1967.692</ele>
        <time>2018-09-22T11:30:59Z</time>
      </trkpt>
      <trkpt lat="42.238992" lon="1.689566">
        <ele>1967.313</ele>
        <time>2018-09-22T11:31:00Z</time>
      </trkpt>
      <trkpt lat="42.238991" lon="1.689597">
        <ele>1967.437</ele>
        <time>2018-09-22T11:31:09Z</time>
      </trkpt>
      <trkpt lat="42.239012" lon="1.689597">
        <ele>1969.293</ele>
        <time>2018-09-22T11:31:18Z</time>
      </trkpt>
      <trkpt lat="42.239027" lon="1.689677">
        <ele>1971.173</ele>
        <time>2018-09-22T11:31:25Z</time>
      </trkpt>
      <trkpt lat="42.239034" lon="1.689742">
        <ele>1972.395</ele>
        <time>2018-09-22T11:31:30Z</time>
      </trkpt>
      <trkpt lat="42.239041" lon="1.689777">
        <ele>1973.627</ele>
        <time>2018-09-22T11:31:33Z</time>
      </trkpt>
      <trkpt lat="42.239054" lon="1.689802">
        <ele>1975.351</ele>
        <time>2018-09-22T11:31:35Z</time>
      </trkpt>
      <trkpt lat="42.239051" lon="1.689820">
        <ele>1975.301</ele>
        <time>2018-09-22T11:31:37Z</time>
      </trkpt>
      <trkpt lat="42.239053" lon="1.689830">
        <ele>1975.711</ele>
        <time>2018-09-22T11:31:39Z</time>
      </trkpt>
      <trkpt lat="42.239078" lon="1.689875">
        <ele>1979.108</ele>
        <time>2018-09-22T11:31:43Z</time>
      </trkpt>
      <trkpt lat="42.239089" lon="1.689947">
        <ele>1981.837</ele>
        <time>2018-09-22T11:31:49Z</time>
      </trkpt>
      <trkpt lat="42.239092" lon="1.689958">
        <ele>1982.493</ele>
        <time>2018-09-22T11:31:50Z</time>
      </trkpt>
      <trkpt lat="42.239087" lon="1.689985">
        <ele>1982.414</ele>
        <time>2018-09-22T11:31:52Z</time>
      </trkpt>
      <trkpt lat="42.239083" lon="1.689999">
        <ele>1982.388</ele>
        <time>2018-09-22T11:31:53Z</time>
      </trkpt>
      <trkpt lat="42.239080" lon="1.690028">
        <ele>1982.224</ele>
        <time>2018-09-22T11:31:55Z</time>
      </trkpt>
      <trkpt lat="42.239076" lon="1.690054">
        <ele>1981.924</ele>
        <time>2018-09-22T11:31:57Z</time>
      </trkpt>
      <trkpt lat="42.239071" lon="1.690070">
        <ele>1981.566</ele>
        <time>2018-09-22T11:31:58Z</time>
      </trkpt>
      <trkpt lat="42.239064" lon="1.690108">
        <ele>1981.028</ele>
        <time>2018-09-22T11:32:01Z</time>
      </trkpt>
      <trkpt lat="42.239038" lon="1.690166">
        <ele>1978.845</ele>
        <time>2018-09-22T11:32:06Z</time>
      </trkpt>
      <trkpt lat="42.239036" lon="1.690195">
        <ele>1978.847</ele>
        <time>2018-09-22T11:32:08Z</time>
      </trkpt>
      <trkpt lat="42.239035" lon="1.690270">
        <ele>1979.511</ele>
        <time>2018-09-22T11:32:14Z</time>
      </trkpt>
      <trkpt lat="42.239032" lon="1.690279">
        <ele>1979.408</ele>
        <time>2018-09-22T11:32:15Z</time>
      </trkpt>
      <trkpt lat="42.239030" lon="1.690301">
        <ele>1979.456</ele>
        <time>2018-09-22T11:32:17Z</time>
      </trkpt>
      <trkpt lat="42.239027" lon="1.690306">
        <ele>1979.252</ele>
        <time>2018-09-22T11:32:18Z</time>
      </trkpt>
      <trkpt lat="42.239024" lon="1.690309">
        <ele>1978.943</ele>
        <time>2018-09-22T11:32:19Z</time>
      </trkpt>
      <trkpt lat="42.239021" lon="1.690309">
        <ele>1978.697</ele>
        <time>2018-09-22T11:32:20Z</time>
      </trkpt>
      <trkpt lat="42.239012" lon="1.690322">
        <ele>1977.983</ele>
        <time>2018-09-22T11:32:25Z</time>
      </trkpt>
      <trkpt lat="42.239013" lon="1.690374">
        <ele>1978.573</ele>
        <time>2018-09-22T11:32:33Z</time>
      </trkpt>
      <trkpt lat="42.238996" lon="1.690473">
        <ele>1978.155</ele>
        <time>2018-09-22T11:32:43Z</time>
      </trkpt>
      <trkpt lat="42.238998" lon="1.690486">
        <ele>1978.487</ele>
        <time>2018-09-22T11:32:44Z</time>
      </trkpt>
      <trkpt lat="42.239002" lon="1.690498">
        <ele>1978.999</ele>
        <time>2018-09-22T11:32:45Z</time>
      </trkpt>
      <trkpt lat="42.239003" lon="1.690516">
        <ele>1979.107</ele>
        <time>2018-09-22T11:32:47Z</time>
      </trkpt>
      <trkpt lat="42.239003" lon="1.690531">
        <ele>1979.327</ele>
        <time>2018-09-22T11:32:48Z</time>
      </trkpt>
      <trkpt lat="42.239003" lon="1.690564">
        <ele>1979.808</ele>
        <time>2018-09-22T11:32:51Z</time>
      </trkpt>
      <trkpt lat="42.239000" lon="1.690567">
        <ele>1979.631</ele>
        <time>2018-09-22T11:32:53Z</time>
      </trkpt>
      <trkpt lat="42.238950" lon="1.690628">
        <ele>1977.377</ele>
        <time>2018-09-22T11:33:03Z</time>
      </trkpt>
      <trkpt lat="42.238945" lon="1.690633">
        <ele>1977.048</ele>
        <time>2018-09-22T11:33:05Z</time>
      </trkpt>
      <trkpt lat="42.238935" lon="1.690670">
        <ele>1977.182</ele>
        <time>2018-09-22T11:33:10Z</time>
      </trkpt>
      <trkpt lat="42.238933" lon="1.690683">
        <ele>1977.288</ele>
        <time>2018-09-22T11:33:11Z</time>
      </trkpt>
      <trkpt lat="42.238933" lon="1.690716">
        <ele>1978.118</ele>
        <time>2018-09-22T11:33:13Z</time>
      </trkpt>
      <trkpt lat="42.238930" lon="1.690737">
        <ele>1978.220</ele>
        <time>2018-09-22T11:33:15Z</time>
      </trkpt>
      <trkpt lat="42.238925" lon="1.690752">
        <ele>1978.282</ele>
        <time>2018-09-22T11:33:17Z</time>
      </trkpt>
      <trkpt lat="42.238910" lon="1.690797">
        <ele>1977.958</ele>
        <time>2018-09-22T11:33:21Z</time>
      </trkpt>
      <trkpt lat="42.238909" lon="1.690805">
        <ele>1978.152</ele>
        <time>2018-09-22T11:33:22Z</time>
      </trkpt>
      <trkpt lat="42.238913" lon="1.690819">
        <ele>1978.717</ele>
        <time>2018-09-22T11:33:23Z</time>
      </trkpt>
      <trkpt lat="42.238911" lon="1.690848">
        <ele>1979.308</ele>
        <time>2018-09-22T11:33:26Z</time>
      </trkpt>
      <trkpt lat="42.238910" lon="1.690920">
        <ele>1981.747</ele>
        <time>2018-09-22T11:33:32Z</time>
      </trkpt>
      <trkpt lat="42.238909" lon="1.690930">
        <ele>1981.913</ele>
        <time>2018-09-22T11:33:34Z</time>
      </trkpt>
      <trkpt lat="42.238907" lon="1.690936">
        <ele>1981.984</ele>
        <time>2018-09-22T11:33:35Z</time>
      </trkpt>
      <trkpt lat="42.238904" lon="1.690965">
        <ele>1982.758</ele>
        <time>2018-09-22T11:33:38Z</time>
      </trkpt>
      <trkpt lat="42.238896" lon="1.691034">
        <ele>1984.214</ele>
        <time>2018-09-22T11:33:42Z</time>
      </trkpt>
      <trkpt lat="42.238858" lon="1.691096">
        <ele>1982.794</ele>
        <time>2018-09-22T11:33:47Z</time>
      </trkpt>
      <trkpt lat="42.238820" lon="1.691174">
        <ele>1980.536</ele>
        <time>2018-09-22T11:33:55Z</time>
      </trkpt>
      <trkpt lat="42.238821" lon="1.691186">
        <ele>1980.788</ele>
        <time>2018-09-22T11:33:56Z</time>
      </trkpt>
      <trkpt lat="42.238820" lon="1.691198">
        <ele>1980.826</ele>
        <time>2018-09-22T11:33:57Z</time>
      </trkpt>
      <trkpt lat="42.238813" lon="1.691224">
        <ele>1980.547</ele>
        <time>2018-09-22T11:34:00Z</time>
      </trkpt>
      <trkpt lat="42.238803" lon="1.691244">
        <ele>1979.911</ele>
        <time>2018-09-22T11:34:02Z</time>
      </trkpt>
      <trkpt lat="42.238787" lon="1.691265">
        <ele>1978.908</ele>
        <time>2018-09-22T11:34:04Z</time>
      </trkpt>
      <trkpt lat="42.238768" lon="1.691288">
        <ele>1977.734</ele>
        <time>2018-09-22T11:34:07Z</time>
      </trkpt>
      <trkpt lat="42.238761" lon="1.691295">
        <ele>1977.340</ele>
        <time>2018-09-22T11:34:08Z</time>
      </trkpt>
      <trkpt lat="42.238740" lon="1.691326">
        <ele>1976.291</ele>
        <time>2018-09-22T11:34:11Z</time>
      </trkpt>
      <trkpt lat="42.238737" lon="1.691342">
        <ele>1976.215</ele>
        <time>2018-09-22T11:34:13Z</time>
      </trkpt>
      <trkpt lat="42.238736" lon="1.691345">
        <ele>1976.221</ele>
        <time>2018-09-22T11:34:14Z</time>
      </trkpt>
      <trkpt lat="42.238736" lon="1.691355">
        <ele>1976.491</ele>
        <time>2018-09-22T11:34:15Z</time>
      </trkpt>
      <trkpt lat="42.238737" lon="1.691369">
        <ele>1976.763</ele>
        <time>2018-09-22T11:34:17Z</time>
      </trkpt>
      <trkpt lat="42.238736" lon="1.691386">
        <ele>1976.935</ele>
        <time>2018-09-22T11:34:19Z</time>
      </trkpt>
      <trkpt lat="42.238737" lon="1.691392">
        <ele>1977.171</ele>
        <time>2018-09-22T11:34:20Z</time>
      </trkpt>
      <trkpt lat="42.238743" lon="1.691416">
        <ele>1978.041</ele>
        <time>2018-09-22T11:34:23Z</time>
      </trkpt>
      <trkpt lat="42.238753" lon="1.691449">
        <ele>1979.415</ele>
        <time>2018-09-22T11:34:27Z</time>
      </trkpt>
      <trkpt lat="42.238753" lon="1.691457">
        <ele>1979.508</ele>
        <time>2018-09-22T11:34:28Z</time>
      </trkpt>
      <trkpt lat="42.238757" lon="1.691462">
        <ele>1979.919</ele>
        <time>2018-09-22T11:34:30Z</time>
      </trkpt>
      <trkpt lat="42.238769" lon="1.691488">
        <ele>1981.345</ele>
        <time>2018-09-22T11:34:33Z</time>
      </trkpt>
      <trkpt lat="42.238776" lon="1.691511">
        <ele>1982.256</ele>
        <time>2018-09-22T11:34:37Z</time>
      </trkpt>
      <trkpt lat="42.238778" lon="1.691514">
        <ele>1982.450</ele>
        <time>2018-09-22T11:34:38Z</time>
      </trkpt>
      <trkpt lat="42.238774" lon="1.691522">
        <ele>1982.216</ele>
        <time>2018-09-22T11:34:41Z</time>
      </trkpt>
      <trkpt lat="42.238777" lon="1.691517">
        <ele>1982.426</ele>
        <time>2018-09-22T11:34:43Z</time>
      </trkpt>
      <trkpt lat="42.238784" lon="1.691532">
        <ele>1983.248</ele>
        <time>2018-09-22T11:34:45Z</time>
      </trkpt>
      <trkpt lat="42.238786" lon="1.691540">
        <ele>1983.520</ele>
        <time>2018-09-22T11:34:46Z</time>
      </trkpt>
      <trkpt lat="42.238791" lon="1.691545">
        <ele>1983.924</ele>
        <time>2018-09-22T11:34:48Z</time>
      </trkpt>
      <trkpt lat="42.238798" lon="1.691561">
        <ele>1984.704</ele>
        <time>2018-09-22T11:34:52Z</time>
      </trkpt>
      <trkpt lat="42.238795" lon="1.691564">
        <ele>1984.514</ele>
        <time>2018-09-22T11:34:53Z</time>
      </trkpt>
      <trkpt lat="42.238792" lon="1.691580">
        <ele>1984.708</ele>
        <time>2018-09-22T11:34:55Z</time>
      </trkpt>
      <trkpt lat="42.238793" lon="1.691584">
        <ele>1984.834</ele>
        <time>2018-09-22T11:34:56Z</time>
      </trkpt>
      <trkpt lat="42.238796" lon="1.691587">
        <ele>1985.110</ele>
        <time>2018-09-22T11:34:58Z</time>
      </trkpt>
      <trkpt lat="42.238806" lon="1.691594">
        <ele>1985.971</ele>
        <time>2018-09-22T11:35:01Z</time>
      </trkpt>
      <trkpt lat="42.238817" lon="1.691624">
        <ele>1987.285</ele>
        <time>2018-09-22T11:35:06Z</time>
      </trkpt>
      <trkpt lat="42.238821" lon="1.691651">
        <ele>1988.041</ele>
        <time>2018-09-22T11:35:08Z</time>
      </trkpt>
      <trkpt lat="42.238821" lon="1.691671">
        <ele>1988.491</ele>
        <time>2018-09-22T11:35:10Z</time>
      </trkpt>
      <trkpt lat="42.238822" lon="1.691677">
        <ele>1988.713</ele>
        <time>2018-09-22T11:35:11Z</time>
      </trkpt>
      <trkpt lat="42.238826" lon="1.691694">
        <ele>1989.585</ele>
        <time>2018-09-22T11:35:13Z</time>
      </trkpt>
      <trkpt lat="42.238835" lon="1.691711">
        <ele>1990.782</ele>
        <time>2018-09-22T11:35:15Z</time>
      </trkpt>
      <trkpt lat="42.238841" lon="1.691752">
        <ele>1992.443</ele>
        <time>2018-09-22T11:35:18Z</time>
      </trkpt>
      <trkpt lat="42.238844" lon="1.691765">
        <ele>1993.017</ele>
        <time>2018-09-22T11:35:19Z</time>
      </trkpt>
      <trkpt lat="42.238841" lon="1.691783">
        <ele>1993.308</ele>
        <time>2018-09-22T11:35:21Z</time>
      </trkpt>
      <trkpt lat="42.238828" lon="1.691822">
        <ele>1993.710</ele>
        <time>2018-09-22T11:35:25Z</time>
      </trkpt>
      <trkpt lat="42.238827" lon="1.691829">
        <ele>1993.946</ele>
        <time>2018-09-22T11:35:26Z</time>
      </trkpt>
      <trkpt lat="42.238829" lon="1.691864">
        <ele>1995.127</ele>
        <time>2018-09-22T11:35:30Z</time>
      </trkpt>
      <trkpt lat="42.238854" lon="1.691926">
        <ele>1998.821</ele>
        <time>2018-09-22T11:35:37Z</time>
      </trkpt>
      <trkpt lat="42.238831" lon="1.691940">
        <ele>1997.777</ele>
        <time>2018-09-22T11:35:41Z</time>
      </trkpt>
      <trkpt lat="42.238820" lon="1.691959">
        <ele>1997.497</ele>
        <time>2018-09-22T11:35:44Z</time>
      </trkpt>
      <trkpt lat="42.238821" lon="1.691967">
        <ele>1997.729</ele>
        <time>2018-09-22T11:35:45Z</time>
      </trkpt>
      <trkpt lat="42.238823" lon="1.691976">
        <ele>1998.061</ele>
        <time>2018-09-22T11:35:46Z</time>
      </trkpt>
      <trkpt lat="42.238812" lon="1.692012">
        <ele>1998.399</ele>
        <time>2018-09-22T11:35:52Z</time>
      </trkpt>
      <trkpt lat="42.238814" lon="1.692026">
        <ele>1998.807</ele>
        <time>2018-09-22T11:35:53Z</time>
      </trkpt>
      <trkpt lat="42.238819" lon="1.692064">
        <ele>2000.227</ele>
        <time>2018-09-22T11:35:57Z</time>
      </trkpt>
      <trkpt lat="42.238819" lon="1.692072">
        <ele>2000.308</ele>
        <time>2018-09-22T11:35:58Z</time>
      </trkpt>
      <trkpt lat="42.238816" lon="1.692095">
        <ele>2000.831</ele>
        <time>2018-09-22T11:36:00Z</time>
      </trkpt>
      <trkpt lat="42.238818" lon="1.692107">
        <ele>2001.297</ele>
        <time>2018-09-22T11:36:01Z</time>
      </trkpt>
      <trkpt lat="42.238819" lon="1.692115">
        <ele>2001.518</ele>
        <time>2018-09-22T11:36:02Z</time>
      </trkpt>
      <trkpt lat="42.238819" lon="1.692170">
        <ele>2003.072</ele>
        <time>2018-09-22T11:36:07Z</time>
      </trkpt>
      <trkpt lat="42.238820" lon="1.692180">
        <ele>2003.428</ele>
        <time>2018-09-22T11:36:08Z</time>
      </trkpt>
      <trkpt lat="42.238832" lon="1.692208">
        <ele>2004.938</ele>
        <time>2018-09-22T11:36:10Z</time>
      </trkpt>
      <trkpt lat="42.238832" lon="1.692217">
        <ele>2005.190</ele>
        <time>2018-09-22T11:36:11Z</time>
      </trkpt>
      <trkpt lat="42.238826" lon="1.692228">
        <ele>2005.052</ele>
        <time>2018-09-22T11:36:13Z</time>
      </trkpt>
      <trkpt lat="42.238828" lon="1.692246">
        <ele>2005.613</ele>
        <time>2018-09-22T11:36:15Z</time>
      </trkpt>
      <trkpt lat="42.238828" lon="1.692264">
        <ele>2006.043</ele>
        <time>2018-09-22T11:36:17Z</time>
      </trkpt>
      <trkpt lat="42.238815" lon="1.692288">
        <ele>2005.807</ele>
        <time>2018-09-22T11:36:21Z</time>
      </trkpt>
      <trkpt lat="42.238814" lon="1.692294">
        <ele>2005.908</ele>
        <time>2018-09-22T11:36:22Z</time>
      </trkpt>
      <trkpt lat="42.238790" lon="1.692328">
        <ele>2005.153</ele>
        <time>2018-09-22T11:36:28Z</time>
      </trkpt>
      <trkpt lat="42.238793" lon="1.692337">
        <ele>2005.549</ele>
        <time>2018-09-22T11:36:29Z</time>
      </trkpt>
      <trkpt lat="42.238807" lon="1.692392">
        <ele>2007.750</ele>
        <time>2018-09-22T11:36:36Z</time>
      </trkpt>
      <trkpt lat="42.238810" lon="1.692421">
        <ele>2008.624</ele>
        <time>2018-09-22T11:36:41Z</time>
      </trkpt>
      <trkpt lat="42.238815" lon="1.692435">
        <ele>2009.310</ele>
        <time>2018-09-22T11:36:43Z</time>
      </trkpt>
      <trkpt lat="42.238814" lon="1.692452">
        <ele>2009.650</ele>
        <time>2018-09-22T11:36:46Z</time>
      </trkpt>
      <trkpt lat="42.238815" lon="1.692456">
        <ele>2009.922</ele>
        <time>2018-09-22T11:36:47Z</time>
      </trkpt>
      <trkpt lat="42.238815" lon="1.692469">
        <ele>2010.294</ele>
        <time>2018-09-22T11:36:52Z</time>
      </trkpt>
      <trkpt lat="42.238817" lon="1.692503">
        <ele>2011.196</ele>
        <time>2018-09-22T11:36:56Z</time>
      </trkpt>
      <trkpt lat="42.238825" lon="1.692527">
        <ele>2012.231</ele>
        <time>2018-09-22T11:36:59Z</time>
      </trkpt>
      <trkpt lat="42.238821" lon="1.692534">
        <ele>2012.224</ele>
        <time>2018-09-22T11:37:00Z</time>
      </trkpt>
      <trkpt lat="42.238827" lon="1.692570">
        <ele>2013.408</ele>
        <time>2018-09-22T11:37:06Z</time>
      </trkpt>
      <trkpt lat="42.238832" lon="1.692588">
        <ele>2014.171</ele>
        <time>2018-09-22T11:37:11Z</time>
      </trkpt>
      <trkpt lat="42.238855" lon="1.692633">
        <ele>2016.767</ele>
        <time>2018-09-22T11:37:15Z</time>
      </trkpt>
      <trkpt lat="42.238860" lon="1.692641">
        <ele>2017.288</ele>
        <time>2018-09-22T11:37:16Z</time>
      </trkpt>
      <trkpt lat="42.238860" lon="1.692694">
        <ele>2018.432</ele>
        <time>2018-09-22T11:37:21Z</time>
      </trkpt>
      <trkpt lat="42.238857" lon="1.692700">
        <ele>2018.338</ele>
        <time>2018-09-22T11:37:22Z</time>
      </trkpt>
      <trkpt lat="42.238844" lon="1.692753">
        <ele>2018.848</ele>
        <time>2018-09-22T11:37:27Z</time>
      </trkpt>
      <trkpt lat="42.238816" lon="1.692783">
        <ele>2017.960</ele>
        <time>2018-09-22T11:37:32Z</time>
      </trkpt>
      <trkpt lat="42.238805" lon="1.692846">
        <ele>2019.672</ele>
        <time>2018-09-22T11:37:38Z</time>
      </trkpt>
      <trkpt lat="42.238806" lon="1.692857">
        <ele>2020.076</ele>
        <time>2018-09-22T11:37:39Z</time>
      </trkpt>
      <trkpt lat="42.238805" lon="1.692871">
        <ele>2020.590</ele>
        <time>2018-09-22T11:37:41Z</time>
      </trkpt>
      <trkpt lat="42.238807" lon="1.692875">
        <ele>2020.719</ele>
        <time>2018-09-22T11:37:42Z</time>
      </trkpt>
      <trkpt lat="42.238812" lon="1.692881">
        <ele>2021.108</ele>
        <time>2018-09-22T11:37:43Z</time>
      </trkpt>
      <trkpt lat="42.238814" lon="1.692899">
        <ele>2021.989</ele>
        <time>2018-09-22T11:37:45Z</time>
      </trkpt>
      <trkpt lat="42.238812" lon="1.692929">
        <ele>2022.925</ele>
        <time>2018-09-22T11:37:48Z</time>
      </trkpt>
      <trkpt lat="42.238810" lon="1.692976">
        <ele>2024.476</ele>
        <time>2018-09-22T11:37:54Z</time>
      </trkpt>
      <trkpt lat="42.238808" lon="1.693010">
        <ele>2025.680</ele>
        <time>2018-09-22T11:37:58Z</time>
      </trkpt>
      <trkpt lat="42.238775" lon="1.693025">
        <ele>2024.516</ele>
        <time>2018-09-22T11:38:08Z</time>
      </trkpt>
      <trkpt lat="42.238759" lon="1.693060">
        <ele>2025.196</ele>
        <time>2018-09-22T11:38:12Z</time>
      </trkpt>
      <trkpt lat="42.238763" lon="1.693100">
        <ele>2027.188</ele>
        <time>2018-09-22T11:38:17Z</time>
      </trkpt>
      <trkpt lat="42.238767" lon="1.693118">
        <ele>2028.050</ele>
        <time>2018-09-22T11:38:21Z</time>
      </trkpt>
      <trkpt lat="42.238785" lon="1.693089">
        <ele>2027.695</ele>
        <time>2018-09-22T11:38:28Z</time>
      </trkpt>
      <trkpt lat="42.238789" lon="1.693075">
        <ele>2027.249</ele>
        <time>2018-09-22T11:38:35Z</time>
      </trkpt>
      <trkpt lat="42.238817" lon="1.693089">
        <ele>2029.223</ele>
        <time>2018-09-22T11:38:42Z</time>
      </trkpt>
      <trkpt lat="42.238842" lon="1.693158">
        <ele>2033.508</ele>
        <time>2018-09-22T11:38:54Z</time>
      </trkpt>
      <trkpt lat="42.238824" lon="1.693184">
        <ele>2033.831</ele>
        <time>2018-09-22T11:38:58Z</time>
      </trkpt>
      <trkpt lat="42.238787" lon="1.693211">
        <ele>2033.347</ele>
        <time>2018-09-22T11:39:03Z</time>
      </trkpt>
      <trkpt lat="42.238772" lon="1.693212">
        <ele>2032.688</ele>
        <time>2018-09-22T11:39:05Z</time>
      </trkpt>
      <trkpt lat="42.238767" lon="1.693213">
        <ele>2032.372</ele>
        <time>2018-09-22T11:39:06Z</time>
      </trkpt>
      <trkpt lat="42.238760" lon="1.693211">
        <ele>2032.088</ele>
        <time>2018-09-22T11:39:07Z</time>
      </trkpt>
      <trkpt lat="42.238754" lon="1.693212">
        <ele>2031.768</ele>
        <time>2018-09-22T11:39:08Z</time>
      </trkpt>
      <trkpt lat="42.238746" lon="1.693213">
        <ele>2031.330</ele>
        <time>2018-09-22T11:39:09Z</time>
      </trkpt>
      <trkpt lat="42.238735" lon="1.693217">
        <ele>2031.062</ele>
        <time>2018-09-22T11:39:10Z</time>
      </trkpt>
      <trkpt lat="42.238724" lon="1.693222">
        <ele>2030.784</ele>
        <time>2018-09-22T11:39:11Z</time>
      </trkpt>
      <trkpt lat="42.238702" lon="1.693233">
        <ele>2030.107</ele>
        <time>2018-09-22T11:39:13Z</time>
      </trkpt>
      <trkpt lat="42.238694" lon="1.693245">
        <ele>2030.217</ele>
        <time>2018-09-22T11:39:14Z</time>
      </trkpt>
      <trkpt lat="42.238652" lon="1.693326">
        <ele>2031.708</ele>
        <time>2018-09-22T11:39:21Z</time>
      </trkpt>
      <trkpt lat="42.238579" lon="1.693402">
        <ele>2031.890</ele>
        <time>2018-09-22T11:39:29Z</time>
      </trkpt>
      <trkpt lat="42.238537" lon="1.693444">
        <ele>2032.026</ele>
        <time>2018-09-22T11:39:34Z</time>
      </trkpt>
      <trkpt lat="42.238513" lon="1.693483">
        <ele>2032.747</ele>
        <time>2018-09-22T11:39:38Z</time>
      </trkpt>
      <trkpt lat="42.238501" lon="1.693501">
        <ele>2033.081</ele>
        <time>2018-09-22T11:39:40Z</time>
      </trkpt>
      <trkpt lat="42.238489" lon="1.693519">
        <ele>2033.257</ele>
        <time>2018-09-22T11:39:42Z</time>
      </trkpt>
      <trkpt lat="42.238475" lon="1.693533">
        <ele>2033.217</ele>
        <time>2018-09-22T11:39:44Z</time>
      </trkpt>
      <trkpt lat="42.238470" lon="1.693540">
        <ele>2033.389</ele>
        <time>2018-09-22T11:39:45Z</time>
      </trkpt>
      <trkpt lat="42.238463" lon="1.693557">
        <ele>2033.781</ele>
        <time>2018-09-22T11:39:47Z</time>
      </trkpt>
      <trkpt lat="42.238462" lon="1.693568">
        <ele>2034.187</ele>
        <time>2018-09-22T11:39:48Z</time>
      </trkpt>
      <trkpt lat="42.238446" lon="1.693594">
        <ele>2034.542</ele>
        <time>2018-09-22T11:39:51Z</time>
      </trkpt>
      <trkpt lat="42.238444" lon="1.693603">
        <ele>2034.826</ele>
        <time>2018-09-22T11:39:52Z</time>
      </trkpt>
      <trkpt lat="42.238443" lon="1.693620">
        <ele>2035.408</ele>
        <time>2018-09-22T11:39:54Z</time>
      </trkpt>
      <trkpt lat="42.238441" lon="1.693627">
        <ele>2035.740</ele>
        <time>2018-09-22T11:39:57Z</time>
      </trkpt>
      <trkpt lat="42.238447" lon="1.693627">
        <ele>2036.066</ele>
        <time>2018-09-22T11:40:03Z</time>
      </trkpt>
      <trkpt lat="42.238453" lon="1.693640">
        <ele>2036.817</ele>
        <time>2018-09-22T11:40:06Z</time>
      </trkpt>
      <trkpt lat="42.238455" lon="1.693676">
        <ele>2038.551</ele>
        <time>2018-09-22T11:40:10Z</time>
      </trkpt>
      <trkpt lat="42.238458" lon="1.693690">
        <ele>2039.297</ele>
        <time>2018-09-22T11:40:11Z</time>
      </trkpt>
      <trkpt lat="42.238451" lon="1.693715">
        <ele>2039.937</ele>
        <time>2018-09-22T11:40:15Z</time>
      </trkpt>
      <trkpt lat="42.238458" lon="1.693736">
        <ele>2041.239</ele>
        <time>2018-09-22T11:40:18Z</time>
      </trkpt>
      <trkpt lat="42.238456" lon="1.693751">
        <ele>2041.861</ele>
        <time>2018-09-22T11:40:20Z</time>
      </trkpt>
      <trkpt lat="42.238438" lon="1.693781">
        <ele>2042.269</ele>
        <time>2018-09-22T11:40:23Z</time>
      </trkpt>
      <trkpt lat="42.238428" lon="1.693784">
        <ele>2041.904</ele>
        <time>2018-09-22T11:40:24Z</time>
      </trkpt>
      <trkpt lat="42.238419" lon="1.693817">
        <ele>2042.824</ele>
        <time>2018-09-22T11:40:27Z</time>
      </trkpt>
      <trkpt lat="42.238415" lon="1.693835">
        <ele>2043.408</ele>
        <time>2018-09-22T11:40:29Z</time>
      </trkpt>
      <trkpt lat="42.238413" lon="1.693847">
        <ele>2043.988</ele>
        <time>2018-09-22T11:40:30Z</time>
      </trkpt>
      <trkpt lat="42.238409" lon="1.693871">
        <ele>2044.754</ele>
        <time>2018-09-22T11:40:32Z</time>
      </trkpt>
      <trkpt lat="42.238399" lon="1.693887">
        <ele>2044.935</ele>
        <time>2018-09-22T11:40:34Z</time>
      </trkpt>
      <trkpt lat="42.238395" lon="1.693923">
        <ele>2046.249</ele>
        <time>2018-09-22T11:40:37Z</time>
      </trkpt>
      <trkpt lat="42.238394" lon="1.693932">
        <ele>2046.515</ele>
        <time>2018-09-22T11:40:38Z</time>
      </trkpt>
      <trkpt lat="42.238392" lon="1.693972">
        <ele>2048.065</ele>
        <time>2018-09-22T11:40:42Z</time>
      </trkpt>
      <trkpt lat="42.238390" lon="1.693988">
        <ele>2048.557</ele>
        <time>2018-09-22T11:40:44Z</time>
      </trkpt>
      <trkpt lat="42.238387" lon="1.694025">
        <ele>2049.919</ele>
        <time>2018-09-22T11:40:48Z</time>
      </trkpt>
      <trkpt lat="42.238370" lon="1.694047">
        <ele>2049.984</ele>
        <time>2018-09-22T11:40:52Z</time>
      </trkpt>
      <trkpt lat="42.238363" lon="1.694054">
        <ele>2049.907</ele>
        <time>2018-09-22T11:40:53Z</time>
      </trkpt>
      <trkpt lat="42.238359" lon="1.694061">
        <ele>2050.017</ele>
        <time>2018-09-22T11:40:55Z</time>
      </trkpt>
      <trkpt lat="42.238356" lon="1.694066">
        <ele>2050.008</ele>
        <time>2018-09-22T11:40:56Z</time>
      </trkpt>
      <trkpt lat="42.238352" lon="1.694077">
        <ele>2050.310</ele>
        <time>2018-09-22T11:40:59Z</time>
      </trkpt>
      <trkpt lat="42.238348" lon="1.694090">
        <ele>2050.636</ele>
        <time>2018-09-22T11:41:01Z</time>
      </trkpt>
      <trkpt lat="42.238337" lon="1.694114">
        <ele>2051.057</ele>
        <time>2018-09-22T11:41:05Z</time>
      </trkpt>
      <trkpt lat="42.238326" lon="1.694115">
        <ele>2050.651</ele>
        <time>2018-09-22T11:41:08Z</time>
      </trkpt>
      <trkpt lat="42.238325" lon="1.694137">
        <ele>2051.487</ele>
        <time>2018-09-22T11:41:11Z</time>
      </trkpt>
      <trkpt lat="42.238347" lon="1.694146">
        <ele>2052.857</ele>
        <time>2018-09-22T11:41:16Z</time>
      </trkpt>
      <trkpt lat="42.238357" lon="1.694148">
        <ele>2053.339</ele>
        <time>2018-09-22T11:41:21Z</time>
      </trkpt>
      <trkpt lat="42.238337" lon="1.694186">
        <ele>2053.971</ele>
        <time>2018-09-22T11:41:27Z</time>
      </trkpt>
      <trkpt lat="42.238375" lon="1.694186">
        <ele>2055.768</ele>
        <time>2018-09-22T11:41:36Z</time>
      </trkpt>
      <trkpt lat="42.238385" lon="1.694175">
        <ele>2055.742</ele>
        <time>2018-09-22T11:41:38Z</time>
      </trkpt>
      <trkpt lat="42.238392" lon="1.694172">
        <ele>2055.926</ele>
        <time>2018-09-22T11:41:39Z</time>
      </trkpt>
      <trkpt lat="42.238380" lon="1.694195">
        <ele>2056.308</ele>
        <time>2018-09-22T11:41:45Z</time>
      </trkpt>
      <trkpt lat="42.238376" lon="1.694239">
        <ele>2057.838</ele>
        <time>2018-09-22T11:41:50Z</time>
      </trkpt>
      <trkpt lat="42.238371" lon="1.694288">
        <ele>2059.614</ele>
        <time>2018-09-22T11:41:55Z</time>
      </trkpt>
      <trkpt lat="42.238381" lon="1.694308">
        <ele>2060.965</ele>
        <time>2018-09-22T11:41:57Z</time>
      </trkpt>
      <trkpt lat="42.238389" lon="1.694342">
        <ele>2062.649</ele>
        <time>2018-09-22T11:42:00Z</time>
      </trkpt>
      <trkpt lat="42.238391" lon="1.694350">
        <ele>2063.195</ele>
        <time>2018-09-22T11:42:01Z</time>
      </trkpt>
      <trkpt lat="42.238384" lon="1.694362">
        <ele>2063.235</ele>
        <time>2018-09-22T11:42:03Z</time>
      </trkpt>
      <trkpt lat="42.238388" lon="1.694398">
        <ele>2064.977</ele>
        <time>2018-09-22T11:42:06Z</time>
      </trkpt>
      <trkpt lat="42.238388" lon="1.694430">
        <ele>2066.169</ele>
        <time>2018-09-22T11:42:09Z</time>
      </trkpt>
      <trkpt lat="42.238385" lon="1.694450">
        <ele>2066.882</ele>
        <time>2018-09-22T11:42:11Z</time>
      </trkpt>
      <trkpt lat="42.238384" lon="1.694455">
        <ele>2066.943</ele>
        <time>2018-09-22T11:42:12Z</time>
      </trkpt>
      <trkpt lat="42.238367" lon="1.694488">
        <ele>2067.217</ele>
        <time>2018-09-22T11:42:17Z</time>
      </trkpt>
      <trkpt lat="42.238360" lon="1.694515">
        <ele>2067.808</ele>
        <time>2018-09-22T11:42:23Z</time>
      </trkpt>
      <trkpt lat="42.238345" lon="1.694544">
        <ele>2068.180</ele>
        <time>2018-09-22T11:42:27Z</time>
      </trkpt>
      <trkpt lat="42.238343" lon="1.694545">
        <ele>2068.056</ele>
        <time>2018-09-22T11:42:28Z</time>
      </trkpt>
      <trkpt lat="42.238336" lon="1.694531">
        <ele>2067.287</ele>
        <time>2018-09-22T11:42:37Z</time>
      </trkpt>
      <trkpt lat="42.238321" lon="1.694547">
        <ele>2067.271</ele>
        <time>2018-09-22T11:42:47Z</time>
      </trkpt>
      <trkpt lat="42.238321" lon="1.694548">
        <ele>2067.267</ele>
        <time>2018-09-22T11:43:10Z</time>
      </trkpt>
      <trkpt lat="42.238327" lon="1.694534">
        <ele>2067.067</ele>
        <time>2018-09-22T11:43:12Z</time>
      </trkpt>
      <trkpt lat="42.238330" lon="1.694528">
        <ele>2066.819</ele>
        <time>2018-09-22T11:43:13Z</time>
      </trkpt>
      <trkpt lat="42.238330" lon="1.694518">
        <ele>2066.521</ele>
        <time>2018-09-22T11:43:14Z</time>
      </trkpt>
      <trkpt lat="42.238339" lon="1.694498">
        <ele>2066.128</ele>
        <time>2018-09-22T11:43:16Z</time>
      </trkpt>
      <trkpt lat="42.238355" lon="1.694514">
        <ele>2067.689</ele>
        <time>2018-09-22T11:43:21Z</time>
      </trkpt>
      <trkpt lat="42.238373" lon="1.694520">
        <ele>2068.617</ele>
        <time>2018-09-22T11:43:23Z</time>
      </trkpt>
      <trkpt lat="42.238398" lon="1.694507">
        <ele>2069.408</ele>
        <time>2018-09-22T11:43:29Z</time>
      </trkpt>
      <trkpt lat="42.238411" lon="1.694502">
        <ele>2069.984</ele>
        <time>2018-09-22T11:43:31Z</time>
      </trkpt>
      <trkpt lat="42.238419" lon="1.694508">
        <ele>2070.550</ele>
        <time>2018-09-22T11:43:32Z</time>
      </trkpt>
      <trkpt lat="42.238426" lon="1.694510">
        <ele>2070.981</ele>
        <time>2018-09-22T11:43:34Z</time>
      </trkpt>
      <trkpt lat="42.238434" lon="1.694519">
        <ele>2071.625</ele>
        <time>2018-09-22T11:43:35Z</time>
      </trkpt>
      <trkpt lat="42.238439" lon="1.694525">
        <ele>2072.091</ele>
        <time>2018-09-22T11:43:38Z</time>
      </trkpt>
      <trkpt lat="42.238440" lon="1.694525">
        <ele>2072.171</ele>
        <time>2018-09-22T11:43:41Z</time>
      </trkpt>
      <trkpt lat="42.238454" lon="1.694564">
        <ele>2074.183</ele>
        <time>2018-09-22T11:43:45Z</time>
      </trkpt>
      <trkpt lat="42.238466" lon="1.694581">
        <ele>2075.385</ele>
        <time>2018-09-22T11:43:46Z</time>
      </trkpt>
      <trkpt lat="42.238467" lon="1.694590">
        <ele>2075.749</ele>
        <time>2018-09-22T11:43:47Z</time>
      </trkpt>
      <trkpt lat="42.238462" lon="1.694615">
        <ele>2076.302</ele>
        <time>2018-09-22T11:43:52Z</time>
      </trkpt>
      <trkpt lat="42.238464" lon="1.694661">
        <ele>2078.022</ele>
        <time>2018-09-22T11:43:56Z</time>
      </trkpt>
      <trkpt lat="42.238475" lon="1.694689">
        <ele>2079.508</ele>
        <time>2018-09-22T11:44:01Z</time>
      </trkpt>
      <trkpt lat="42.238483" lon="1.694714">
        <ele>2080.616</ele>
        <time>2018-09-22T11:44:06Z</time>
      </trkpt>
      <trkpt lat="42.238490" lon="1.694753">
        <ele>2082.472</ele>
        <time>2018-09-22T11:44:11Z</time>
      </trkpt>
      <trkpt lat="42.238486" lon="1.694775">
        <ele>2083.093</ele>
        <time>2018-09-22T11:44:15Z</time>
      </trkpt>
      <trkpt lat="42.238484" lon="1.694780">
        <ele>2083.067</ele>
        <time>2018-09-22T11:44:16Z</time>
      </trkpt>
      <trkpt lat="42.238484" lon="1.694780">
        <ele>2083.113</ele>
        <time>2018-09-22T11:44:17Z</time>
      </trkpt>
      <trkpt lat="42.238488" lon="1.694783">
        <ele>2083.333</ele>
        <time>2018-09-22T11:44:18Z</time>
      </trkpt>
      <trkpt lat="42.238490" lon="1.694773">
        <ele>2083.125</ele>
        <time>2018-09-22T11:44:19Z</time>
      </trkpt>
      <trkpt lat="42.238495" lon="1.694772">
        <ele>2083.327</ele>
        <time>2018-09-22T11:44:22Z</time>
      </trkpt>
      <trkpt lat="42.238494" lon="1.694787">
        <ele>2083.886</ele>
        <time>2018-09-22T11:44:27Z</time>
      </trkpt>
      <trkpt lat="42.238489" lon="1.694820">
        <ele>2084.760</ele>
        <time>2018-09-22T11:44:31Z</time>
      </trkpt>
      <trkpt lat="42.238492" lon="1.694850">
        <ele>2085.926</ele>
        <time>2018-09-22T11:44:33Z</time>
      </trkpt>
      <trkpt lat="42.238492" lon="1.694870">
        <ele>2086.608</ele>
        <time>2018-09-22T11:44:35Z</time>
      </trkpt>
      <trkpt lat="42.238495" lon="1.694891">
        <ele>2087.550</ele>
        <time>2018-09-22T11:44:36Z</time>
      </trkpt>
      <trkpt lat="42.238495" lon="1.694907">
        <ele>2088.076</ele>
        <time>2018-09-22T11:44:37Z</time>
      </trkpt>
      <trkpt lat="42.238504" lon="1.694944">
        <ele>2089.797</ele>
        <time>2018-09-22T11:44:39Z</time>
      </trkpt>
      <trkpt lat="42.238514" lon="1.694973">
        <ele>2091.161</ele>
        <time>2018-09-22T11:44:41Z</time>
      </trkpt>
      <trkpt lat="42.238518" lon="1.694983">
        <ele>2091.767</ele>
        <time>2018-09-22T11:44:42Z</time>
      </trkpt>
      <trkpt lat="42.238519" lon="1.694990">
        <ele>2092.027</ele>
        <time>2018-09-22T11:44:43Z</time>
      </trkpt>
      <trkpt lat="42.238517" lon="1.695000">
        <ele>2092.229</ele>
        <time>2018-09-22T11:44:44Z</time>
      </trkpt>
      <trkpt lat="42.238505" lon="1.695020">
        <ele>2092.571</ele>
        <time>2018-09-22T11:44:46Z</time>
      </trkpt>
      <trkpt lat="42.238496" lon="1.695032">
        <ele>2092.696</ele>
        <time>2018-09-22T11:44:48Z</time>
      </trkpt>
      <trkpt lat="42.238489" lon="1.695069">
        <ele>2093.631</ele>
        <time>2018-09-22T11:44:51Z</time>
      </trkpt>
      <trkpt lat="42.238475" lon="1.695086">
        <ele>2093.724</ele>
        <time>2018-09-22T11:44:53Z</time>
      </trkpt>
      <trkpt lat="42.238470" lon="1.695091">
        <ele>2093.708</ele>
        <time>2018-09-22T11:44:54Z</time>
      </trkpt>
      <trkpt lat="42.238458" lon="1.695117">
        <ele>2094.181</ele>
        <time>2018-09-22T11:44:56Z</time>
      </trkpt>
      <trkpt lat="42.238440" lon="1.695129">
        <ele>2093.837</ele>
        <time>2018-09-22T11:44:58Z</time>
      </trkpt>
      <trkpt lat="42.238432" lon="1.695139">
        <ele>2093.828</ele>
        <time>2018-09-22T11:44:59Z</time>
      </trkpt>
      <trkpt lat="42.238416" lon="1.695147">
        <ele>2093.522</ele>
        <time>2018-09-22T11:45:01Z</time>
      </trkpt>
      <trkpt lat="42.238406" lon="1.695145">
        <ele>2093.058</ele>
        <time>2018-09-22T11:45:03Z</time>
      </trkpt>
      <trkpt lat="42.238403" lon="1.695150">
        <ele>2093.128</ele>
        <time>2018-09-22T11:45:05Z</time>
      </trkpt>
      <trkpt lat="42.238403" lon="1.695158">
        <ele>2093.460</ele>
        <time>2018-09-22T11:45:06Z</time>
      </trkpt>
      <trkpt lat="42.238403" lon="1.695181">
        <ele>2094.242</ele>
        <time>2018-09-22T11:45:09Z</time>
      </trkpt>
      <trkpt lat="42.238407" lon="1.695212">
        <ele>2095.534</ele>
        <time>2018-09-22T11:45:12Z</time>
      </trkpt>
      <trkpt lat="42.238381" lon="1.695258">
        <ele>2096.155</ele>
        <time>2018-09-22T11:45:19Z</time>
      </trkpt>
      <trkpt lat="42.238386" lon="1.695293">
        <ele>2097.510</ele>
        <time>2018-09-22T11:45:23Z</time>
      </trkpt>
      <trkpt lat="42.238398" lon="1.695324">
        <ele>2099.008</ele>
        <time>2018-09-22T11:45:27Z</time>
      </trkpt>
      <trkpt lat="42.238404" lon="1.695332">
        <ele>2099.635</ele>
        <time>2018-09-22T11:45:32Z</time>
      </trkpt>
      <trkpt lat="42.238399" lon="1.695325">
        <ele>2099.191</ele>
        <time>2018-09-22T11:45:38Z</time>
      </trkpt>
      <trkpt lat="42.238400" lon="1.695344">
        <ele>2099.892</ele>
        <time>2018-09-22T11:45:41Z</time>
      </trkpt>
      <trkpt lat="42.238398" lon="1.695352">
        <ele>2100.056</ele>
        <time>2018-09-22T11:45:42Z</time>
      </trkpt>
      <trkpt lat="42.238405" lon="1.695394">
        <ele>2101.792</ele>
        <time>2018-09-22T11:45:45Z</time>
      </trkpt>
      <trkpt lat="42.238397" lon="1.695412">
        <ele>2101.972</ele>
        <time>2018-09-22T11:45:47Z</time>
      </trkpt>
      <trkpt lat="42.238381" lon="1.695461">
        <ele>2102.974</ele>
        <time>2018-09-22T11:45:53Z</time>
      </trkpt>
      <trkpt lat="42.238385" lon="1.695467">
        <ele>2103.316</ele>
        <time>2018-09-22T11:45:55Z</time>
      </trkpt>
      <trkpt lat="42.238398" lon="1.695474">
        <ele>2104.063</ele>
        <time>2018-09-22T11:45:57Z</time>
      </trkpt>
      <trkpt lat="42.238406" lon="1.695508">
        <ele>2105.544</ele>
        <time>2018-09-22T11:45:59Z</time>
      </trkpt>
      <trkpt lat="42.238406" lon="1.695513">
        <ele>2105.718</ele>
        <time>2018-09-22T11:46:00Z</time>
      </trkpt>
      <trkpt lat="42.238407" lon="1.695527">
        <ele>2106.208</ele>
        <time>2018-09-22T11:46:03Z</time>
      </trkpt>
      <trkpt lat="42.238405" lon="1.695550">
        <ele>2106.918</ele>
        <time>2018-09-22T11:46:06Z</time>
      </trkpt>
      <trkpt lat="42.238401" lon="1.695554">
        <ele>2106.854</ele>
        <time>2018-09-22T11:46:07Z</time>
      </trkpt>
      <trkpt lat="42.238402" lon="1.695560">
        <ele>2107.025</ele>
        <time>2018-09-22T11:46:08Z</time>
      </trkpt>
      <trkpt lat="42.238388" lon="1.695606">
        <ele>2107.489</ele>
        <time>2018-09-22T11:46:13Z</time>
      </trkpt>
      <trkpt lat="42.238408" lon="1.695666">
        <ele>2109.745</ele>
        <time>2018-09-22T11:46:18Z</time>
      </trkpt>
      <trkpt lat="42.238414" lon="1.695702">
        <ele>2110.925</ele>
        <time>2018-09-22T11:46:21Z</time>
      </trkpt>
      <trkpt lat="42.238416" lon="1.695724">
        <ele>2111.537</ele>
        <time>2018-09-22T11:46:23Z</time>
      </trkpt>
      <trkpt lat="42.238406" lon="1.695767">
        <ele>2111.919</ele>
        <time>2018-09-22T11:46:28Z</time>
      </trkpt>
      <trkpt lat="42.238393" lon="1.695774">
        <ele>2111.342</ele>
        <time>2018-09-22T11:46:31Z</time>
      </trkpt>
      <trkpt lat="42.238389" lon="1.695770">
        <ele>2111.022</ele>
        <time>2018-09-22T11:46:34Z</time>
      </trkpt>
      <trkpt lat="42.238405" lon="1.695771">
        <ele>2111.914</ele>
        <time>2018-09-22T11:46:40Z</time>
      </trkpt>
      <trkpt lat="42.238414" lon="1.695773">
        <ele>2112.508</ele>
        <time>2018-09-22T11:46:42Z</time>
      </trkpt>
      <trkpt lat="42.238429" lon="1.695757">
        <ele>2113.076</ele>
        <time>2018-09-22T11:46:45Z</time>
      </trkpt>
      <trkpt lat="42.238434" lon="1.695759">
        <ele>2113.392</ele>
        <time>2018-09-22T11:46:46Z</time>
      </trkpt>
      <trkpt lat="42.238451" lon="1.695793">
        <ele>2115.123</ele>
        <time>2018-09-22T11:46:48Z</time>
      </trkpt>
      <trkpt lat="42.238455" lon="1.695799">
        <ele>2115.517</ele>
        <time>2018-09-22T11:46:49Z</time>
      </trkpt>
      <trkpt lat="42.238462" lon="1.695821">
        <ele>2116.523</ele>
        <time>2018-09-22T11:46:51Z</time>
      </trkpt>
      <trkpt lat="42.238455" lon="1.695861">
        <ele>2116.743</ele>
        <time>2018-09-22T11:46:55Z</time>
      </trkpt>
      <trkpt lat="42.238457" lon="1.695870">
        <ele>2116.925</ele>
        <time>2018-09-22T11:46:58Z</time>
      </trkpt>
      <trkpt lat="42.238464" lon="1.695877">
        <ele>2117.437</ele>
        <time>2018-09-22T11:47:00Z</time>
      </trkpt>
      <trkpt lat="42.238473" lon="1.695888">
        <ele>2118.182</ele>
        <time>2018-09-22T11:47:03Z</time>
      </trkpt>
      <trkpt lat="42.238493" lon="1.695912">
        <ele>2119.643</ele>
        <time>2018-09-22T11:47:08Z</time>
      </trkpt>
      <trkpt lat="42.238506" lon="1.695965">
        <ele>2121.117</ele>
        <time>2018-09-22T11:47:15Z</time>
      </trkpt>
      <trkpt lat="42.238511" lon="1.696069">
        <ele>2122.608</ele>
        <time>2018-09-22T11:47:25Z</time>
      </trkpt>
      <trkpt lat="42.238514" lon="1.696097">
        <ele>2123.210</ele>
        <time>2018-09-22T11:47:27Z</time>
      </trkpt>
      <trkpt lat="42.238515" lon="1.696110">
        <ele>2123.316</ele>
        <time>2018-09-22T11:47:28Z</time>
      </trkpt>
      <trkpt lat="42.238516" lon="1.696125">
        <ele>2123.677</ele>
        <time>2018-09-22T11:47:29Z</time>
      </trkpt>
      <trkpt lat="42.238528" lon="1.696173">
        <ele>2125.161</ele>
        <time>2018-09-22T11:47:33Z</time>
      </trkpt>
      <trkpt lat="42.238527" lon="1.696201">
        <ele>2125.447</ele>
        <time>2018-09-22T11:47:36Z</time>
      </trkpt>
      <trkpt lat="42.238534" lon="1.696255">
        <ele>2126.557</ele>
        <time>2018-09-22T11:47:41Z</time>
      </trkpt>
      <trkpt lat="42.238532" lon="1.696299">
        <ele>2127.089</ele>
        <time>2018-09-22T11:47:44Z</time>
      </trkpt>
      <trkpt lat="42.238543" lon="1.696376">
        <ele>2128.661</ele>
        <time>2018-09-22T11:47:49Z</time>
      </trkpt>
      <trkpt lat="42.238551" lon="1.696400">
        <ele>2129.625</ele>
        <time>2018-09-22T11:47:51Z</time>
      </trkpt>
      <trkpt lat="42.238560" lon="1.696443">
        <ele>2131.326</ele>
        <time>2018-09-22T11:47:55Z</time>
      </trkpt>
      <trkpt lat="42.238559" lon="1.696464">
        <ele>2131.708</ele>
        <time>2018-09-22T11:47:57Z</time>
      </trkpt>
      <trkpt lat="42.238551" lon="1.696522">
        <ele>2132.808</ele>
        <time>2018-09-22T11:48:02Z</time>
      </trkpt>
      <trkpt lat="42.238534" lon="1.696553">
        <ele>2132.774</ele>
        <time>2018-09-22T11:48:05Z</time>
      </trkpt>
      <trkpt lat="42.238525" lon="1.696562">
        <ele>2132.490</ele>
        <time>2018-09-22T11:48:06Z</time>
      </trkpt>
      <trkpt lat="42.238502" lon="1.696606">
        <ele>2132.321</ele>
        <time>2018-09-22T11:48:09Z</time>
      </trkpt>
      <trkpt lat="42.238486" lon="1.696658">
        <ele>2132.955</ele>
        <time>2018-09-22T11:48:14Z</time>
      </trkpt>
      <trkpt lat="42.238476" lon="1.696681">
        <ele>2133.171</ele>
        <time>2018-09-22T11:48:16Z</time>
      </trkpt>
      <trkpt lat="42.238471" lon="1.696694">
        <ele>2133.381</ele>
        <time>2018-09-22T11:48:17Z</time>
      </trkpt>
      <trkpt lat="42.238466" lon="1.696702">
        <ele>2133.363</ele>
        <time>2018-09-22T11:48:18Z</time>
      </trkpt>
      <trkpt lat="42.238463" lon="1.696723">
        <ele>2133.965</ele>
        <time>2018-09-22T11:48:20Z</time>
      </trkpt>
      <trkpt lat="42.238463" lon="1.696733">
        <ele>2134.246</ele>
        <time>2018-09-22T11:48:21Z</time>
      </trkpt>
      <trkpt lat="42.238457" lon="1.696749">
        <ele>2134.588</ele>
        <time>2018-09-22T11:48:23Z</time>
      </trkpt>
      <trkpt lat="42.238456" lon="1.696756">
        <ele>2134.616</ele>
        <time>2018-09-22T11:48:24Z</time>
      </trkpt>
      <trkpt lat="42.238453" lon="1.696775">
        <ele>2135.108</ele>
        <time>2018-09-22T11:48:26Z</time>
      </trkpt>
      <trkpt lat="42.238447" lon="1.696780">
        <ele>2134.946</ele>
        <time>2018-09-22T11:48:27Z</time>
      </trkpt>
      <trkpt lat="42.238449" lon="1.696805">
        <ele>2135.952</ele>
        <time>2018-09-22T11:48:30Z</time>
      </trkpt>
      <trkpt lat="42.238452" lon="1.696821">
        <ele>2136.683</ele>
        <time>2018-09-22T11:48:32Z</time>
      </trkpt>
      <trkpt lat="42.238454" lon="1.696858">
        <ele>2138.017</ele>
        <time>2018-09-22T11:48:36Z</time>
      </trkpt>
      <trkpt lat="42.238454" lon="1.696866">
        <ele>2138.213</ele>
        <time>2018-09-22T11:48:37Z</time>
      </trkpt>
      <trkpt lat="42.238453" lon="1.696885">
        <ele>2138.863</ele>
        <time>2018-09-22T11:48:39Z</time>
      </trkpt>
      <trkpt lat="42.238453" lon="1.696904">
        <ele>2139.475</ele>
        <time>2018-09-22T11:48:41Z</time>
      </trkpt>
      <trkpt lat="42.238449" lon="1.696911">
        <ele>2139.597</ele>
        <time>2018-09-22T11:48:42Z</time>
      </trkpt>
      <trkpt lat="42.238455" lon="1.696942">
        <ele>2140.956</ele>
        <time>2018-09-22T11:48:47Z</time>
      </trkpt>
      <trkpt lat="42.238453" lon="1.696966">
        <ele>2141.759</ele>
        <time>2018-09-22T11:48:51Z</time>
      </trkpt>
      <trkpt lat="42.238447" lon="1.696968">
        <ele>2141.414</ele>
        <time>2018-09-22T11:48:52Z</time>
      </trkpt>
      <trkpt lat="42.238444" lon="1.697009">
        <ele>2142.808</ele>
        <time>2018-09-22T11:48:59Z</time>
      </trkpt>
      <trkpt lat="42.238442" lon="1.697015">
        <ele>2142.977</ele>
        <time>2018-09-22T11:49:04Z</time>
      </trkpt>
      <trkpt lat="42.238448" lon="1.697008">
        <ele>2143.073</ele>
        <time>2018-09-22T11:49:08Z</time>
      </trkpt>
      <trkpt lat="42.238445" lon="1.697013">
        <ele>2143.084</ele>
        <time>2018-09-22T11:49:10Z</time>
      </trkpt>
      <trkpt lat="42.238439" lon="1.697013">
        <ele>2142.788</ele>
        <time>2018-09-22T11:49:11Z</time>
      </trkpt>
      <trkpt lat="42.238435" lon="1.697036">
        <ele>2143.354</ele>
        <time>2018-09-22T11:49:14Z</time>
      </trkpt>
      <trkpt lat="42.238443" lon="1.697043">
        <ele>2144.064</ele>
        <time>2018-09-22T11:49:15Z</time>
      </trkpt>
      <trkpt lat="42.238442" lon="1.697051">
        <ele>2144.386</ele>
        <time>2018-09-22T11:49:17Z</time>
      </trkpt>
      <trkpt lat="42.238439" lon="1.697077">
        <ele>2145.148</ele>
        <time>2018-09-22T11:49:19Z</time>
      </trkpt>
      <trkpt lat="42.238429" lon="1.697097">
        <ele>2145.385</ele>
        <time>2018-09-22T11:49:21Z</time>
      </trkpt>
      <trkpt lat="42.238427" lon="1.697100">
        <ele>2145.389</ele>
        <time>2018-09-22T11:49:22Z</time>
      </trkpt>
      <trkpt lat="42.238422" lon="1.697134">
        <ele>2146.417</ele>
        <time>2018-09-22T11:49:26Z</time>
      </trkpt>
      <trkpt lat="42.238406" lon="1.697180">
        <ele>2147.308</ele>
        <time>2018-09-22T11:49:31Z</time>
      </trkpt>
      <trkpt lat="42.238406" lon="1.697230">
        <ele>2149.140</ele>
        <time>2018-09-22T11:49:37Z</time>
      </trkpt>
      <trkpt lat="42.238404" lon="1.697277">
        <ele>2150.786</ele>
        <time>2018-09-22T11:49:42Z</time>
      </trkpt>
      <trkpt lat="42.238401" lon="1.697292">
        <ele>2151.177</ele>
        <time>2018-09-22T11:49:44Z</time>
      </trkpt>
      <trkpt lat="42.238397" lon="1.697295">
        <ele>2150.981</ele>
        <time>2018-09-22T11:49:45Z</time>
      </trkpt>
      <trkpt lat="42.238395" lon="1.697304">
        <ele>2151.197</ele>
        <time>2018-09-22T11:49:46Z</time>
      </trkpt>
      <trkpt lat="42.238386" lon="1.697360">
        <ele>2152.727</ele>
        <time>2018-09-22T11:49:52Z</time>
      </trkpt>
      <trkpt lat="42.238382" lon="1.697404">
        <ele>2154.089</ele>
        <time>2018-09-22T11:49:57Z</time>
      </trkpt>
      <trkpt lat="42.238380" lon="1.697406">
        <ele>2154.031</ele>
        <time>2018-09-22T11:49:58Z</time>
      </trkpt>
      <trkpt lat="42.238359" lon="1.697465">
        <ele>2155.072</ele>
        <time>2018-09-22T11:50:05Z</time>
      </trkpt>
      <trkpt lat="42.238355" lon="1.697472">
        <ele>2155.013</ele>
        <time>2018-09-22T11:50:06Z</time>
      </trkpt>
      <trkpt lat="42.238349" lon="1.697500">
        <ele>2155.714</ele>
        <time>2018-09-22T11:50:09Z</time>
      </trkpt>
      <trkpt lat="42.238334" lon="1.697558">
        <ele>2157.508</ele>
        <time>2018-09-22T11:50:16Z</time>
      </trkpt>
      <trkpt lat="42.238326" lon="1.697591">
        <ele>2158.699</ele>
        <time>2018-09-22T11:50:20Z</time>
      </trkpt>
      <trkpt lat="42.238324" lon="1.697610">
        <ele>2159.415</ele>
        <time>2018-09-22T11:50:24Z</time>
      </trkpt>
      <trkpt lat="42.238310" lon="1.697645">
        <ele>2160.436</ele>
        <time>2018-09-22T11:50:30Z</time>
      </trkpt>
      <trkpt lat="42.238274" lon="1.697649">
        <ele>2159.480</ele>
        <time>2018-09-22T11:50:42Z</time>
      </trkpt>
      <trkpt lat="42.238260" lon="1.697673">
        <ele>2159.996</ele>
        <time>2018-09-22T11:50:51Z</time>
      </trkpt>
      <trkpt lat="42.238246" lon="1.697706">
        <ele>2160.986</ele>
        <time>2018-09-22T11:50:54Z</time>
      </trkpt>
      <trkpt lat="42.238242" lon="1.697731">
        <ele>2161.928</ele>
        <time>2018-09-22T11:50:56Z</time>
      </trkpt>
      <trkpt lat="42.238236" lon="1.697744">
        <ele>2162.390</ele>
        <time>2018-09-22T11:50:58Z</time>
      </trkpt>
      <trkpt lat="42.238231" lon="1.697760">
        <ele>2162.999</ele>
        <time>2018-09-22T11:51:00Z</time>
      </trkpt>
      <trkpt lat="42.238220" lon="1.697788">
        <ele>2163.807</ele>
        <time>2018-09-22T11:51:04Z</time>
      </trkpt>
      <trkpt lat="42.238214" lon="1.697803">
        <ele>2164.227</ele>
        <time>2018-09-22T11:51:06Z</time>
      </trkpt>
      <trkpt lat="42.238214" lon="1.697811">
        <ele>2164.608</ele>
        <time>2018-09-22T11:51:07Z</time>
      </trkpt>
      <trkpt lat="42.238211" lon="1.697818">
        <ele>2164.831</ele>
        <time>2018-09-22T11:51:08Z</time>
      </trkpt>
      <trkpt lat="42.238209" lon="1.697828">
        <ele>2165.267</ele>
        <time>2018-09-22T11:51:10Z</time>
      </trkpt>
      <trkpt lat="42.238209" lon="1.697835">
        <ele>2165.578</ele>
        <time>2018-09-22T11:51:11Z</time>
      </trkpt>
      <trkpt lat="42.238211" lon="1.697846">
        <ele>2166.122</ele>
        <time>2018-09-22T11:51:13Z</time>
      </trkpt>
      <trkpt lat="42.238208" lon="1.697849">
        <ele>2166.138</ele>
        <time>2018-09-22T11:51:14Z</time>
      </trkpt>
      <trkpt lat="42.238212" lon="1.697879">
        <ele>2167.658</ele>
        <time>2018-09-22T11:51:19Z</time>
      </trkpt>
      <trkpt lat="42.238213" lon="1.697883">
        <ele>2167.890</ele>
        <time>2018-09-22T11:51:20Z</time>
      </trkpt>
      <trkpt lat="42.238216" lon="1.697888">
        <ele>2168.252</ele>
        <time>2018-09-22T11:51:21Z</time>
      </trkpt>
      <trkpt lat="42.238216" lon="1.697892">
        <ele>2168.353</ele>
        <time>2018-09-22T11:51:22Z</time>
      </trkpt>
      <trkpt lat="42.238216" lon="1.697896">
        <ele>2168.504</ele>
        <time>2018-09-22T11:51:23Z</time>
      </trkpt>
      <trkpt lat="42.238198" lon="1.697912">
        <ele>2168.614</ele>
        <time>2018-09-22T11:51:27Z</time>
      </trkpt>
      <trkpt lat="42.238188" lon="1.697936">
        <ele>2169.408</ele>
        <time>2018-09-22T11:51:30Z</time>
      </trkpt>
      <trkpt lat="42.238183" lon="1.697975">
        <ele>2170.977</ele>
        <time>2018-09-22T11:51:34Z</time>
      </trkpt>
      <trkpt lat="42.238169" lon="1.698014">
        <ele>2172.293</ele>
        <time>2018-09-22T11:51:39Z</time>
      </trkpt>
      <trkpt lat="42.238161" lon="1.698026">
        <ele>2172.424</ele>
        <time>2018-09-22T11:51:41Z</time>
      </trkpt>
      <trkpt lat="42.238154" lon="1.698023">
        <ele>2172.028</ele>
        <time>2018-09-22T11:51:43Z</time>
      </trkpt>
      <trkpt lat="42.238128" lon="1.698033">
        <ele>2171.654</ele>
        <time>2018-09-22T11:51:50Z</time>
      </trkpt>
      <trkpt lat="42.238123" lon="1.698040">
        <ele>2171.794</ele>
        <time>2018-09-22T11:51:51Z</time>
      </trkpt>
      <trkpt lat="42.238120" lon="1.698045">
        <ele>2171.816</ele>
        <time>2018-09-22T11:51:52Z</time>
      </trkpt>
      <trkpt lat="42.238117" lon="1.698048">
        <ele>2171.838</ele>
        <time>2018-09-22T11:51:53Z</time>
      </trkpt>
      <trkpt lat="42.238114" lon="1.698054">
        <ele>2172.095</ele>
        <time>2018-09-22T11:51:55Z</time>
      </trkpt>
      <trkpt lat="42.238112" lon="1.698087">
        <ele>2173.449</ele>
        <time>2018-09-22T11:51:59Z</time>
      </trkpt>
      <trkpt lat="42.238115" lon="1.698142">
        <ele>2175.923</ele>
        <time>2018-09-22T11:52:04Z</time>
      </trkpt>
      <trkpt lat="42.238113" lon="1.698161">
        <ele>2176.708</ele>
        <time>2018-09-22T11:52:07Z</time>
      </trkpt>
      <trkpt lat="42.238115" lon="1.698168">
        <ele>2177.031</ele>
        <time>2018-09-22T11:52:08Z</time>
      </trkpt>
      <trkpt lat="42.238103" lon="1.698204">
        <ele>2178.167</ele>
        <time>2018-09-22T11:52:13Z</time>
      </trkpt>
      <trkpt lat="42.238072" lon="1.698243">
        <ele>2178.798</ele>
        <time>2018-09-22T11:52:19Z</time>
      </trkpt>
      <trkpt lat="42.238059" lon="1.698275">
        <ele>2179.672</ele>
        <time>2018-09-22T11:52:23Z</time>
      </trkpt>
      <trkpt lat="42.238050" lon="1.698316">
        <ele>2181.138</ele>
        <time>2018-09-22T11:52:27Z</time>
      </trkpt>
      <trkpt lat="42.238033" lon="1.698322">
        <ele>2181.188</ele>
        <time>2018-09-22T11:52:29Z</time>
      </trkpt>
      <trkpt lat="42.238026" lon="1.698329">
        <ele>2181.270</ele>
        <time>2018-09-22T11:52:30Z</time>
      </trkpt>
      <trkpt lat="42.238006" lon="1.698357">
        <ele>2182.222</ele>
        <time>2018-09-22T11:52:34Z</time>
      </trkpt>
      <trkpt lat="42.237984" lon="1.698373">
        <ele>2182.555</ele>
        <time>2018-09-22T11:52:38Z</time>
      </trkpt>
      <trkpt lat="42.237970" lon="1.698404">
        <ele>2183.707</ele>
        <time>2018-09-22T11:52:43Z</time>
      </trkpt>
      <trkpt lat="42.237964" lon="1.698413">
        <ele>2184.017</ele>
        <time>2018-09-22T11:52:45Z</time>
      </trkpt>
      <trkpt lat="42.237958" lon="1.698418">
        <ele>2184.208</ele>
        <time>2018-09-22T11:52:46Z</time>
      </trkpt>
      <trkpt lat="42.237951" lon="1.698434">
        <ele>2184.837</ele>
        <time>2018-09-22T11:52:48Z</time>
      </trkpt>
      <trkpt lat="42.237933" lon="1.698439">
        <ele>2184.753</ele>
        <time>2018-09-22T11:52:50Z</time>
      </trkpt>
      <trkpt lat="42.237930" lon="1.698443">
        <ele>2184.884</ele>
        <time>2018-09-22T11:52:51Z</time>
      </trkpt>
      <trkpt lat="42.237926" lon="1.698450">
        <ele>2185.168</ele>
        <time>2018-09-22T11:52:52Z</time>
      </trkpt>
      <trkpt lat="42.237920" lon="1.698461">
        <ele>2185.524</ele>
        <time>2018-09-22T11:52:53Z</time>
      </trkpt>
      <trkpt lat="42.237909" lon="1.698471">
        <ele>2185.864</ele>
        <time>2018-09-22T11:52:55Z</time>
      </trkpt>
      <trkpt lat="42.237888" lon="1.698501">
        <ele>2186.846</ele>
        <time>2018-09-22T11:53:01Z</time>
      </trkpt>
      <trkpt lat="42.237885" lon="1.698510">
        <ele>2187.198</ele>
        <time>2018-09-22T11:53:02Z</time>
      </trkpt>
      <trkpt lat="42.237882" lon="1.698549">
        <ele>2188.976</ele>
        <time>2018-09-22T11:53:05Z</time>
      </trkpt>
      <trkpt lat="42.237881" lon="1.698558">
        <ele>2189.390</ele>
        <time>2018-09-22T11:53:06Z</time>
      </trkpt>
      <trkpt lat="42.237879" lon="1.698579">
        <ele>2190.319</ele>
        <time>2018-09-22T11:53:08Z</time>
      </trkpt>
      <trkpt lat="42.237866" lon="1.698592">
        <ele>2190.708</ele>
        <time>2018-09-22T11:53:11Z</time>
      </trkpt>
      <trkpt lat="42.237843" lon="1.698603">
        <ele>2190.779</ele>
        <time>2018-09-22T11:53:16Z</time>
      </trkpt>
      <trkpt lat="42.237841" lon="1.698602">
        <ele>2190.795</ele>
        <time>2018-09-22T11:53:17Z</time>
      </trkpt>
      <trkpt lat="42.237831" lon="1.698668">
        <ele>2193.286</ele>
        <time>2018-09-22T11:53:29Z</time>
      </trkpt>
      <trkpt lat="42.237826" lon="1.698669">
        <ele>2193.170</ele>
        <time>2018-09-22T11:53:30Z</time>
      </trkpt>
      <trkpt lat="42.237823" lon="1.698689">
        <ele>2193.996</ele>
        <time>2018-09-22T11:53:34Z</time>
      </trkpt>
      <trkpt lat="42.237810" lon="1.698705">
        <ele>2194.366</ele>
        <time>2018-09-22T11:53:40Z</time>
      </trkpt>
      <trkpt lat="42.237806" lon="1.698719">
        <ele>2194.848</ele>
        <time>2018-09-22T11:53:42Z</time>
      </trkpt>
      <trkpt lat="42.237807" lon="1.698741">
        <ele>2195.750</ele>
        <time>2018-09-22T11:53:44Z</time>
      </trkpt>
      <trkpt lat="42.237808" lon="1.698759">
        <ele>2196.428</ele>
        <time>2018-09-22T11:53:46Z</time>
      </trkpt>
      <trkpt lat="42.237806" lon="1.698766">
        <ele>2196.689</ele>
        <time>2018-09-22T11:53:47Z</time>
      </trkpt>
      <trkpt lat="42.237807" lon="1.698774">
        <ele>2197.017</ele>
        <time>2018-09-22T11:53:48Z</time>
      </trkpt>
      <trkpt lat="42.237810" lon="1.698783">
        <ele>2197.408</ele>
        <time>2018-09-22T11:53:49Z</time>
      </trkpt>
      <trkpt lat="42.237817" lon="1.698797">
        <ele>2198.164</ele>
        <time>2018-09-22T11:53:51Z</time>
      </trkpt>
      <trkpt lat="42.237819" lon="1.698800">
        <ele>2198.350</ele>
        <time>2018-09-22T11:53:54Z</time>
      </trkpt>
      <trkpt lat="42.237816" lon="1.698862">
        <ele>2200.711</ele>
        <time>2018-09-22T11:54:01Z</time>
      </trkpt>
      <trkpt lat="42.237818" lon="1.698895">
        <ele>2202.175</ele>
        <time>2018-09-22T11:54:05Z</time>
      </trkpt>
      <trkpt lat="42.237819" lon="1.698903">
        <ele>2202.381</ele>
        <time>2018-09-22T11:54:06Z</time>
      </trkpt>
      <trkpt lat="42.237818" lon="1.698912">
        <ele>2202.781</ele>
        <time>2018-09-22T11:54:07Z</time>
      </trkpt>
      <trkpt lat="42.237816" lon="1.698921">
        <ele>2203.083</ele>
        <time>2018-09-22T11:54:08Z</time>
      </trkpt>
      <trkpt lat="42.237808" lon="1.698942">
        <ele>2203.675</ele>
        <time>2018-09-22T11:54:11Z</time>
      </trkpt>
      <trkpt lat="42.237805" lon="1.698947">
        <ele>2203.792</ele>
        <time>2018-09-22T11:54:13Z</time>
      </trkpt>
      <trkpt lat="42.237798" lon="1.698946">
        <ele>2203.573</ele>
        <time>2018-09-22T11:54:16Z</time>
      </trkpt>
      <trkpt lat="42.237823" lon="1.698937">
        <ele>2203.720</ele>
        <time>2018-09-22T11:54:24Z</time>
      </trkpt>
      <trkpt lat="42.237857" lon="1.698997">
        <ele>2206.808</ele>
        <time>2018-09-22T11:54:34Z</time>
      </trkpt>
      <trkpt lat="42.237873" lon="1.699044">
        <ele>2209.071</ele>
        <time>2018-09-22T11:54:38Z</time>
      </trkpt>
      <trkpt lat="42.237866" lon="1.699060">
        <ele>2209.467</ele>
        <time>2018-09-22T11:54:40Z</time>
      </trkpt>
      <trkpt lat="42.237861" lon="1.699066">
        <ele>2209.568</ele>
        <time>2018-09-22T11:54:41Z</time>
      </trkpt>
      <trkpt lat="42.237852" lon="1.699074">
        <ele>2209.682</ele>
        <time>2018-09-22T11:54:43Z</time>
      </trkpt>
      <trkpt lat="42.237837" lon="1.699093">
        <ele>2209.978</ele>
        <time>2018-09-22T11:54:47Z</time>
      </trkpt>
      <trkpt lat="42.237818" lon="1.699115">
        <ele>2210.298</ele>
        <time>2018-09-22T11:54:51Z</time>
      </trkpt>
      <trkpt lat="42.237822" lon="1.699144">
        <ele>2211.440</ele>
        <time>2018-09-22T11:54:53Z</time>
      </trkpt>
      <trkpt lat="42.237819" lon="1.699151">
        <ele>2211.682</ele>
        <time>2018-09-22T11:54:55Z</time>
      </trkpt>
      <trkpt lat="42.237820" lon="1.699149">
        <ele>2211.524</ele>
        <time>2018-09-22T11:54:56Z</time>
      </trkpt>
      <trkpt lat="42.237813" lon="1.699152">
        <ele>2211.404</ele>
        <time>2018-09-22T11:55:01Z</time>
      </trkpt>
      <trkpt lat="42.237806" lon="1.699187">
        <ele>2212.514</ele>
        <time>2018-09-22T11:55:05Z</time>
      </trkpt>
      <trkpt lat="42.237801" lon="1.699195">
        <ele>2212.608</ele>
        <time>2018-09-22T11:55:06Z</time>
      </trkpt>
      <trkpt lat="42.237799" lon="1.699206">
        <ele>2213.024</ele>
        <time>2018-09-22T11:55:07Z</time>
      </trkpt>
      <trkpt lat="42.237799" lon="1.699217">
        <ele>2213.450</ele>
        <time>2018-09-22T11:55:08Z</time>
      </trkpt>
      <trkpt lat="42.237785" lon="1.699227">
        <ele>2213.411</ele>
        <time>2018-09-22T11:55:11Z</time>
      </trkpt>
      <trkpt lat="42.237777" lon="1.699226">
        <ele>2213.165</ele>
        <time>2018-09-22T11:55:12Z</time>
      </trkpt>
      <trkpt lat="42.237761" lon="1.699232">
        <ele>2213.271</ele>
        <time>2018-09-22T11:55:14Z</time>
      </trkpt>
      <trkpt lat="42.237759" lon="1.699234">
        <ele>2213.341</ele>
        <time>2018-09-22T11:55:16Z</time>
      </trkpt>
      <trkpt lat="42.237762" lon="1.699258">
        <ele>2214.243</ele>
        <time>2018-09-22T11:55:19Z</time>
      </trkpt>
      <trkpt lat="42.237763" lon="1.699268">
        <ele>2214.515</ele>
        <time>2018-09-22T11:55:20Z</time>
      </trkpt>
      <trkpt lat="42.237768" lon="1.699285">
        <ele>2215.298</ele>
        <time>2018-09-22T11:55:24Z</time>
      </trkpt>
      <trkpt lat="42.237769" lon="1.699295">
        <ele>2215.515</ele>
        <time>2018-09-22T11:55:25Z</time>
      </trkpt>
      <trkpt lat="42.237768" lon="1.699303">
        <ele>2215.826</ele>
        <time>2018-09-22T11:55:26Z</time>
      </trkpt>
      <trkpt lat="42.237755" lon="1.699347">
        <ele>2217.408</ele>
        <time>2018-09-22T11:55:30Z</time>
      </trkpt>
      <trkpt lat="42.237756" lon="1.699358">
        <ele>2217.851</ele>
        <time>2018-09-22T11:55:31Z</time>
      </trkpt>
      <trkpt lat="42.237751" lon="1.699372">
        <ele>2218.317</ele>
        <time>2018-09-22T11:55:33Z</time>
      </trkpt>
      <trkpt lat="42.237748" lon="1.699382">
        <ele>2218.778</ele>
        <time>2018-09-22T11:55:35Z</time>
      </trkpt>
      <trkpt lat="42.237746" lon="1.699390">
        <ele>2219.092</ele>
        <time>2018-09-22T11:55:36Z</time>
      </trkpt>
      <trkpt lat="42.237723" lon="1.699422">
        <ele>2220.168</ele>
        <time>2018-09-22T11:55:41Z</time>
      </trkpt>
      <trkpt lat="42.237717" lon="1.699431">
        <ele>2220.598</ele>
        <time>2018-09-22T11:55:42Z</time>
      </trkpt>
      <trkpt lat="42.237710" lon="1.699442">
        <ele>2220.930</ele>
        <time>2018-09-22T11:55:43Z</time>
      </trkpt>
      <trkpt lat="42.237702" lon="1.699457">
        <ele>2221.342</ele>
        <time>2018-09-22T11:55:44Z</time>
      </trkpt>
      <trkpt lat="42.237698" lon="1.699465">
        <ele>2221.614</ele>
        <time>2018-09-22T11:55:45Z</time>
      </trkpt>
      <trkpt lat="42.237687" lon="1.699496">
        <ele>2222.454</ele>
        <time>2018-09-22T11:55:48Z</time>
      </trkpt>
      <trkpt lat="42.237681" lon="1.699500">
        <ele>2222.509</ele>
        <time>2018-09-22T11:55:49Z</time>
      </trkpt>
      <trkpt lat="42.237677" lon="1.699512">
        <ele>2222.708</ele>
        <time>2018-09-22T11:55:51Z</time>
      </trkpt>
      <trkpt lat="42.237665" lon="1.699534">
        <ele>2223.213</ele>
        <time>2018-09-22T11:55:54Z</time>
      </trkpt>
      <trkpt lat="42.237659" lon="1.699537">
        <ele>2223.339</ele>
        <time>2018-09-22T11:55:55Z</time>
      </trkpt>
      <trkpt lat="42.237646" lon="1.699565">
        <ele>2223.990</ele>
        <time>2018-09-22T11:55:59Z</time>
      </trkpt>
      <trkpt lat="42.237642" lon="1.699607">
        <ele>2224.834</ele>
        <time>2018-09-22T11:56:05Z</time>
      </trkpt>
      <trkpt lat="42.237647" lon="1.699635">
        <ele>2225.560</ele>
        <time>2018-09-22T11:56:09Z</time>
      </trkpt>
      <trkpt lat="42.237648" lon="1.699670">
        <ele>2226.440</ele>
        <time>2018-09-22T11:56:13Z</time>
      </trkpt>
      <trkpt lat="42.237635" lon="1.699694">
        <ele>2226.772</ele>
        <time>2018-09-22T11:56:17Z</time>
      </trkpt>
      <trkpt lat="42.237638" lon="1.699713">
        <ele>2227.284</ele>
        <time>2018-09-22T11:56:19Z</time>
      </trkpt>
      <trkpt lat="42.237640" lon="1.699732">
        <ele>2227.742</ele>
        <time>2018-09-22T11:56:21Z</time>
      </trkpt>
      <trkpt lat="42.237636" lon="1.699741">
        <ele>2227.922</ele>
        <time>2018-09-22T11:56:22Z</time>
      </trkpt>
      <trkpt lat="42.237639" lon="1.699818">
        <ele>2230.014</ele>
        <time>2018-09-22T11:56:28Z</time>
      </trkpt>
      <trkpt lat="42.237636" lon="1.699840">
        <ele>2230.508</ele>
        <time>2018-09-22T11:56:30Z</time>
      </trkpt>
      <trkpt lat="42.237638" lon="1.699869">
        <ele>2231.436</ele>
        <time>2018-09-22T11:56:33Z</time>
      </trkpt>
      <trkpt lat="42.237641" lon="1.699882">
        <ele>2231.862</ele>
        <time>2018-09-22T11:56:34Z</time>
      </trkpt>
      <trkpt lat="42.237651" lon="1.699905">
        <ele>2232.833</ele>
        <time>2018-09-22T11:56:36Z</time>
      </trkpt>
      <trkpt lat="42.237651" lon="1.699913">
        <ele>2233.177</ele>
        <time>2018-09-22T11:56:37Z</time>
      </trkpt>
      <trkpt lat="42.237651" lon="1.699928">
        <ele>2233.523</ele>
        <time>2018-09-22T11:56:39Z</time>
      </trkpt>
      <trkpt lat="42.237650" lon="1.699941">
        <ele>2233.863</ele>
        <time>2018-09-22T11:56:40Z</time>
      </trkpt>
      <trkpt lat="42.237637" lon="1.699981">
        <ele>2234.345</ele>
        <time>2018-09-22T11:56:44Z</time>
      </trkpt>
      <trkpt lat="42.237629" lon="1.700003">
        <ele>2234.687</ele>
        <time>2018-09-22T11:56:46Z</time>
      </trkpt>
      <trkpt lat="42.237619" lon="1.700029">
        <ele>2235.051</ele>
        <time>2018-09-22T11:56:49Z</time>
      </trkpt>
      <trkpt lat="42.237615" lon="1.700041">
        <ele>2235.201</ele>
        <time>2018-09-22T11:56:50Z</time>
      </trkpt>
      <trkpt lat="42.237614" lon="1.700052">
        <ele>2235.611</ele>
        <time>2018-09-22T11:56:51Z</time>
      </trkpt>
      <trkpt lat="42.237609" lon="1.700081">
        <ele>2236.308</ele>
        <time>2018-09-22T11:56:54Z</time>
      </trkpt>
      <trkpt lat="42.237610" lon="1.700106">
        <ele>2237.197</ele>
        <time>2018-09-22T11:56:56Z</time>
      </trkpt>
      <trkpt lat="42.237609" lon="1.700144">
        <ele>2238.333</ele>
        <time>2018-09-22T11:57:00Z</time>
      </trkpt>
      <trkpt lat="42.237604" lon="1.700154">
        <ele>2238.454</ele>
        <time>2018-09-22T11:57:01Z</time>
      </trkpt>
      <trkpt lat="42.237599" lon="1.700171">
        <ele>2238.848</ele>
        <time>2018-09-22T11:57:03Z</time>
      </trkpt>
      <trkpt lat="42.237592" lon="1.700200">
        <ele>2239.454</ele>
        <time>2018-09-22T11:57:06Z</time>
      </trkpt>
      <trkpt lat="42.237595" lon="1.700199">
        <ele>2239.534</ele>
        <time>2018-09-22T11:57:09Z</time>
      </trkpt>
      <trkpt lat="42.237587" lon="1.700238">
        <ele>2240.436</ele>
        <time>2018-09-22T11:57:18Z</time>
      </trkpt>
      <trkpt lat="42.237589" lon="1.700251">
        <ele>2240.928</ele>
        <time>2018-09-22T11:57:19Z</time>
      </trkpt>
      <trkpt lat="42.237590" lon="1.700262">
        <ele>2241.362</ele>
        <time>2018-09-22T11:57:20Z</time>
      </trkpt>
      <trkpt lat="42.237588" lon="1.700299">
        <ele>2242.683</ele>
        <time>2018-09-22T11:57:25Z</time>
      </trkpt>
      <trkpt lat="42.237593" lon="1.700311">
        <ele>2243.211</ele>
        <time>2018-09-22T11:57:27Z</time>
      </trkpt>
      <trkpt lat="42.237581" lon="1.700320">
        <ele>2243.108</ele>
        <time>2018-09-22T11:57:29Z</time>
      </trkpt>
      <trkpt lat="42.237577" lon="1.700335">
        <ele>2243.568</ele>
        <time>2018-09-22T11:57:31Z</time>
      </trkpt>
      <trkpt lat="42.237568" lon="1.700345">
        <ele>2243.594</ele>
        <time>2018-09-22T11:57:34Z</time>
      </trkpt>
      <trkpt lat="42.237572" lon="1.700356">
        <ele>2244.145</ele>
        <time>2018-09-22T11:57:35Z</time>
      </trkpt>
      <trkpt lat="42.237559" lon="1.700402">
        <ele>2245.419</ele>
        <time>2018-09-22T11:57:40Z</time>
      </trkpt>
      <trkpt lat="42.237554" lon="1.700444">
        <ele>2246.725</ele>
        <time>2018-09-22T11:57:45Z</time>
      </trkpt>
      <trkpt lat="42.237550" lon="1.700471">
        <ele>2247.625</ele>
        <time>2018-09-22T11:57:49Z</time>
      </trkpt>
      <trkpt lat="42.237547" lon="1.700505">
        <ele>2248.997</ele>
        <time>2018-09-22T11:57:55Z</time>
      </trkpt>
      <trkpt lat="42.237533" lon="1.700553">
        <ele>2250.249</ele>
        <time>2018-09-22T11:58:01Z</time>
      </trkpt>
      <trkpt lat="42.237529" lon="1.700560">
        <ele>2250.315</ele>
        <time>2018-09-22T11:58:02Z</time>
      </trkpt>
      <trkpt lat="42.237524" lon="1.700565">
        <ele>2250.265</ele>
        <time>2018-09-22T11:58:03Z</time>
      </trkpt>
      <trkpt lat="42.237498" lon="1.700598">
        <ele>2250.611</ele>
        <time>2018-09-22T11:58:07Z</time>
      </trkpt>
      <trkpt lat="42.237449" lon="1.700657">
        <ele>2252.308</ele>
        <time>2018-09-22T11:58:16Z</time>
      </trkpt>
      <trkpt lat="42.237439" lon="1.700673">
        <ele>2252.873</ele>
        <time>2018-09-22T11:58:19Z</time>
      </trkpt>
      <trkpt lat="42.237417" lon="1.700696">
        <ele>2253.559</ele>
        <time>2018-09-22T11:58:23Z</time>
      </trkpt>
      <trkpt lat="42.237401" lon="1.700716">
        <ele>2254.130</ele>
        <time>2018-09-22T11:58:28Z</time>
      </trkpt>
      <trkpt lat="42.237384" lon="1.700757">
        <ele>2255.664</ele>
        <time>2018-09-22T11:58:35Z</time>
      </trkpt>
      <trkpt lat="42.237369" lon="1.700776">
        <ele>2256.210</ele>
        <time>2018-09-22T11:58:41Z</time>
      </trkpt>
      <trkpt lat="42.237364" lon="1.700801">
        <ele>2257.270</ele>
        <time>2018-09-22T11:58:48Z</time>
      </trkpt>
      <trkpt lat="42.237364" lon="1.700805">
        <ele>2257.322</ele>
        <time>2018-09-22T11:58:49Z</time>
      </trkpt>
      <trkpt lat="42.237352" lon="1.700843">
        <ele>2258.714</ele>
        <time>2018-09-22T11:59:01Z</time>
      </trkpt>
      <trkpt lat="42.237355" lon="1.700848">
        <ele>2258.983</ele>
        <time>2018-09-22T11:59:02Z</time>
      </trkpt>
      <trkpt lat="42.237348" lon="1.700862">
        <ele>2259.425</ele>
        <time>2018-09-22T11:59:04Z</time>
      </trkpt>
      <trkpt lat="42.237345" lon="1.700865">
        <ele>2259.517</ele>
        <time>2018-09-22T11:59:05Z</time>
      </trkpt>
      <trkpt lat="42.237345" lon="1.700868">
        <ele>2259.608</ele>
        <time>2018-09-22T11:59:06Z</time>
      </trkpt>
      <trkpt lat="42.237330" lon="1.700901">
        <ele>2260.890</ele>
        <time>2018-09-22T11:59:11Z</time>
      </trkpt>
      <trkpt lat="42.237322" lon="1.700921">
        <ele>2261.586</ele>
        <time>2018-09-22T11:59:14Z</time>
      </trkpt>
      <trkpt lat="42.237319" lon="1.700927">
        <ele>2261.787</ele>
        <time>2018-09-22T11:59:15Z</time>
      </trkpt>
      <trkpt lat="42.237304" lon="1.700960">
        <ele>2262.881</ele>
        <time>2018-09-22T11:59:19Z</time>
      </trkpt>
      <trkpt lat="42.237301" lon="1.700966">
        <ele>2263.127</ele>
        <time>2018-09-22T11:59:20Z</time>
      </trkpt>
      <trkpt lat="42.237295" lon="1.700972">
        <ele>2263.237</ele>
        <time>2018-09-22T11:59:21Z</time>
      </trkpt>
      <trkpt lat="42.237270" lon="1.700987">
        <ele>2263.689</ele>
        <time>2018-09-22T11:59:27Z</time>
      </trkpt>
      <trkpt lat="42.237269" lon="1.700993">
        <ele>2263.871</ele>
        <time>2018-09-22T11:59:28Z</time>
      </trkpt>
      <trkpt lat="42.237262" lon="1.701019">
        <ele>2264.717</ele>
        <time>2018-09-22T11:59:32Z</time>
      </trkpt>
      <trkpt lat="42.237257" lon="1.701045">
        <ele>2265.787</ele>
        <time>2018-09-22T11:59:36Z</time>
      </trkpt>
      <trkpt lat="42.237246" lon="1.701082">
        <ele>2267.115</ele>
        <time>2018-09-22T11:59:46Z</time>
      </trkpt>
      <trkpt lat="42.237244" lon="1.701111">
        <ele>2268.208</ele>
        <time>2018-09-22T11:59:50Z</time>
      </trkpt>
      <trkpt lat="42.237243" lon="1.701148">
        <ele>2269.653</ele>
        <time>2018-09-22T11:59:55Z</time>
      </trkpt>
      <trkpt lat="42.237235" lon="1.701159">
        <ele>2270.019</ele>
        <time>2018-09-22T11:59:59Z</time>
      </trkpt>
      <trkpt lat="42.237213" lon="1.701183">
        <ele>2270.950</ele>
        <time>2018-09-22T12:00:10Z</time>
      </trkpt>
      <trkpt lat="42.237241" lon="1.701204">
        <ele>2271.914</ele>
        <time>2018-09-22T12:00:15Z</time>
      </trkpt>
      <trkpt lat="42.237245" lon="1.701212">
        <ele>2272.210</ele>
        <time>2018-09-22T12:00:17Z</time>
      </trkpt>
      <trkpt lat="42.237244" lon="1.701229">
        <ele>2272.940</ele>
        <time>2018-09-22T12:00:20Z</time>
      </trkpt>
      <trkpt lat="42.237242" lon="1.701251">
        <ele>2273.762</ele>
        <time>2018-09-22T12:00:23Z</time>
      </trkpt>
      <trkpt lat="42.237232" lon="1.701268">
        <ele>2274.344</ele>
        <time>2018-09-22T12:00:26Z</time>
      </trkpt>
      <trkpt lat="42.237231" lon="1.701277">
        <ele>2274.682</ele>
        <time>2018-09-22T12:00:27Z</time>
      </trkpt>
      <trkpt lat="42.237220" lon="1.701323">
        <ele>2276.443</ele>
        <time>2018-09-22T12:00:32Z</time>
      </trkpt>
      <trkpt lat="42.237214" lon="1.701346">
        <ele>2277.317</ele>
        <time>2018-09-22T12:00:50Z</time>
      </trkpt>
      <trkpt lat="42.237215" lon="1.701348">
        <ele>2277.408</ele>
        <time>2018-09-22T12:00:51Z</time>
      </trkpt>
      <trkpt lat="42.237217" lon="1.701367">
        <ele>2278.150</ele>
        <time>2018-09-22T12:00:54Z</time>
      </trkpt>
      <trkpt lat="42.237225" lon="1.701397">
        <ele>2279.326</ele>
        <time>2018-09-22T12:00:58Z</time>
      </trkpt>
      <trkpt lat="42.237216" lon="1.701422">
        <ele>2280.357</ele>
        <time>2018-09-22T12:01:01Z</time>
      </trkpt>
      <trkpt lat="42.237212" lon="1.701425">
        <ele>2280.581</ele>
        <time>2018-09-22T12:01:02Z</time>
      </trkpt>
      <trkpt lat="42.237209" lon="1.701446">
        <ele>2281.437</ele>
        <time>2018-09-22T12:01:05Z</time>
      </trkpt>
      <trkpt lat="42.237206" lon="1.701453">
        <ele>2281.777</ele>
        <time>2018-09-22T12:01:06Z</time>
      </trkpt>
      <trkpt lat="42.237206" lon="1.701459">
        <ele>2281.999</ele>
        <time>2018-09-22T12:01:07Z</time>
      </trkpt>
      <trkpt lat="42.237206" lon="1.701468">
        <ele>2282.311</ele>
        <time>2018-09-22T12:01:08Z</time>
      </trkpt>
      <trkpt lat="42.237205" lon="1.701476">
        <ele>2282.615</ele>
        <time>2018-09-22T12:01:09Z</time>
      </trkpt>
      <trkpt lat="42.237203" lon="1.701489">
        <ele>2283.265</ele>
        <time>2018-09-22T12:01:11Z</time>
      </trkpt>
      <trkpt lat="42.237205" lon="1.701525">
        <ele>2284.611</ele>
        <time>2018-09-22T12:01:16Z</time>
      </trkpt>
      <trkpt lat="42.237218" lon="1.701563">
        <ele>2285.908</ele>
        <time>2018-09-22T12:01:21Z</time>
      </trkpt>
      <trkpt lat="42.237215" lon="1.701588">
        <ele>2287.033</ele>
        <time>2018-09-22T12:01:24Z</time>
      </trkpt>
      <trkpt lat="42.237211" lon="1.701594">
        <ele>2287.399</ele>
        <time>2018-09-22T12:01:25Z</time>
      </trkpt>
      <trkpt lat="42.237209" lon="1.701634">
        <ele>2288.940</ele>
        <time>2018-09-22T12:01:30Z</time>
      </trkpt>
      <trkpt lat="42.237209" lon="1.701638">
        <ele>2289.164</ele>
        <time>2018-09-22T12:01:32Z</time>
      </trkpt>
      <trkpt lat="42.237217" lon="1.701652">
        <ele>2289.530</ele>
        <time>2018-09-22T12:01:35Z</time>
      </trkpt>
      <trkpt lat="42.237218" lon="1.701683">
        <ele>2290.730</ele>
        <time>2018-09-22T12:01:40Z</time>
      </trkpt>
      <trkpt lat="42.237209" lon="1.701695">
        <ele>2291.372</ele>
        <time>2018-09-22T12:01:43Z</time>
      </trkpt>
      <trkpt lat="42.237219" lon="1.701720">
        <ele>2292.064</ele>
        <time>2018-09-22T12:01:48Z</time>
      </trkpt>
      <trkpt lat="42.237227" lon="1.701761">
        <ele>2293.412</ele>
        <time>2018-09-22T12:01:54Z</time>
      </trkpt>
      <trkpt lat="42.237227" lon="1.701768">
        <ele>2293.732</ele>
        <time>2018-09-22T12:01:55Z</time>
      </trkpt>
      <trkpt lat="42.237219" lon="1.701811">
        <ele>2295.305</ele>
        <time>2018-09-22T12:02:00Z</time>
      </trkpt>
      <trkpt lat="42.237215" lon="1.701821">
        <ele>2295.708</ele>
        <time>2018-09-22T12:02:01Z</time>
      </trkpt>
      <trkpt lat="42.237212" lon="1.701827">
        <ele>2296.063</ele>
        <time>2018-09-22T12:02:02Z</time>
      </trkpt>
      <trkpt lat="42.237210" lon="1.701855">
        <ele>2297.139</ele>
        <time>2018-09-22T12:02:06Z</time>
      </trkpt>
      <trkpt lat="42.237213" lon="1.701874">
        <ele>2297.790</ele>
        <time>2018-09-22T12:02:08Z</time>
      </trkpt>
      <trkpt lat="42.237212" lon="1.701885">
        <ele>2298.184</ele>
        <time>2018-09-22T12:02:10Z</time>
      </trkpt>
      <trkpt lat="42.237203" lon="1.701927">
        <ele>2299.910</ele>
        <time>2018-09-22T12:02:15Z</time>
      </trkpt>
      <trkpt lat="42.237190" lon="1.701964">
        <ele>2301.670</ele>
        <time>2018-09-22T12:02:19Z</time>
      </trkpt>
      <trkpt lat="42.237190" lon="1.701978">
        <ele>2302.112</ele>
        <time>2018-09-22T12:02:21Z</time>
      </trkpt>
      <trkpt lat="42.237188" lon="1.701992">
        <ele>2302.624</ele>
        <time>2018-09-22T12:02:23Z</time>
      </trkpt>
      <trkpt lat="42.237186" lon="1.702012">
        <ele>2303.436</ele>
        <time>2018-09-22T12:02:27Z</time>
      </trkpt>
      <trkpt lat="42.237186" lon="1.702010">
        <ele>2303.317</ele>
        <time>2018-09-22T12:02:28Z</time>
      </trkpt>
      <trkpt lat="42.237203" lon="1.702042">
        <ele>2304.018</ele>
        <time>2018-09-22T12:02:35Z</time>
      </trkpt>
      <trkpt lat="42.237200" lon="1.702074">
        <ele>2305.208</ele>
        <time>2018-09-22T12:02:40Z</time>
      </trkpt>
      <trkpt lat="42.237200" lon="1.702079">
        <ele>2305.465</ele>
        <time>2018-09-22T12:02:41Z</time>
      </trkpt>
      <trkpt lat="42.237199" lon="1.702092">
        <ele>2305.931</ele>
        <time>2018-09-22T12:02:44Z</time>
      </trkpt>
      <trkpt lat="42.237208" lon="1.702121">
        <ele>2306.732</ele>
        <time>2018-09-22T12:02:50Z</time>
      </trkpt>
      <trkpt lat="42.237202" lon="1.702152">
        <ele>2308.016</ele>
        <time>2018-09-22T12:02:55Z</time>
      </trkpt>
      <trkpt lat="42.237200" lon="1.702197">
        <ele>2309.622</ele>
        <time>2018-09-22T12:03:05Z</time>
      </trkpt>
      <trkpt lat="42.237221" lon="1.702238">
        <ele>2310.542</ele>
        <time>2018-09-22T12:03:10Z</time>
      </trkpt>
      <trkpt lat="42.237222" lon="1.702253">
        <ele>2311.114</ele>
        <time>2018-09-22T12:03:12Z</time>
      </trkpt>
      <trkpt lat="42.237223" lon="1.702280">
        <ele>2312.076</ele>
        <time>2018-09-22T12:03:16Z</time>
      </trkpt>
      <trkpt lat="42.237215" lon="1.702308">
        <ele>2313.239</ele>
        <time>2018-09-22T12:03:20Z</time>
      </trkpt>
      <trkpt lat="42.237220" lon="1.702328">
        <ele>2313.801</ele>
        <time>2018-09-22T12:03:24Z</time>
      </trkpt>
      <trkpt lat="42.237219" lon="1.702333">
        <ele>2314.021</ele>
        <time>2018-09-22T12:03:25Z</time>
      </trkpt>
      <trkpt lat="42.237220" lon="1.702355">
        <ele>2314.808</ele>
        <time>2018-09-22T12:03:28Z</time>
      </trkpt>
      <trkpt lat="42.237217" lon="1.702370">
        <ele>2315.455</ele>
        <time>2018-09-22T12:03:30Z</time>
      </trkpt>
      <trkpt lat="42.237213" lon="1.702405">
        <ele>2316.731</ele>
        <time>2018-09-22T12:03:35Z</time>
      </trkpt>
      <trkpt lat="42.237217" lon="1.702429">
        <ele>2317.512</ele>
        <time>2018-09-22T12:03:39Z</time>
      </trkpt>
      <trkpt lat="42.237208" lon="1.702440">
        <ele>2318.136</ele>
        <time>2018-09-22T12:03:45Z</time>
      </trkpt>
      <trkpt lat="42.237204" lon="1.702484">
        <ele>2319.812</ele>
        <time>2018-09-22T12:03:56Z</time>
      </trkpt>
      <trkpt lat="42.237203" lon="1.702505">
        <ele>2320.582</ele>
        <time>2018-09-22T12:03:59Z</time>
      </trkpt>
      <trkpt lat="42.237156" lon="1.702533">
        <ele>2322.484</ele>
        <time>2018-09-22T12:04:08Z</time>
      </trkpt>
      <trkpt lat="42.237189" lon="1.702593">
        <ele>2323.646</ele>
        <time>2018-09-22T12:04:21Z</time>
      </trkpt>
      <trkpt lat="42.237191" lon="1.702603">
        <ele>2323.963</ele>
        <time>2018-09-22T12:04:22Z</time>
      </trkpt>
      <trkpt lat="42.237192" lon="1.702630">
        <ele>2324.744</ele>
        <time>2018-09-22T12:04:25Z</time>
      </trkpt>
      <trkpt lat="42.237193" lon="1.702639">
        <ele>2325.018</ele>
        <time>2018-09-22T12:04:26Z</time>
      </trkpt>
      <trkpt lat="42.237196" lon="1.702648">
        <ele>2325.208</ele>
        <time>2018-09-22T12:04:27Z</time>
      </trkpt>
      <trkpt lat="42.237196" lon="1.702655">
        <ele>2325.418</ele>
        <time>2018-09-22T12:04:28Z</time>
      </trkpt>
      <trkpt lat="42.237192" lon="1.702664">
        <ele>2325.824</ele>
        <time>2018-09-22T12:04:29Z</time>
      </trkpt>
      <trkpt lat="42.237190" lon="1.702674">
        <ele>2326.165</ele>
        <time>2018-09-22T12:04:30Z</time>
      </trkpt>
      <trkpt lat="42.237193" lon="1.702681">
        <ele>2326.359</ele>
        <time>2018-09-22T12:04:31Z</time>
      </trkpt>
      <trkpt lat="42.237207" lon="1.702712">
        <ele>2327.185</ele>
        <time>2018-09-22T12:04:35Z</time>
      </trkpt>
      <trkpt lat="42.237206" lon="1.702720">
        <ele>2327.345</ele>
        <time>2018-09-22T12:04:36Z</time>
      </trkpt>
      <trkpt lat="42.237201" lon="1.702749">
        <ele>2328.337</ele>
        <time>2018-09-22T12:04:40Z</time>
      </trkpt>
      <trkpt lat="42.237197" lon="1.702753">
        <ele>2328.579</ele>
        <time>2018-09-22T12:04:41Z</time>
      </trkpt>
      <trkpt lat="42.237199" lon="1.702788">
        <ele>2329.697</ele>
        <time>2018-09-22T12:04:45Z</time>
      </trkpt>
      <trkpt lat="42.237197" lon="1.702812">
        <ele>2330.323</ele>
        <time>2018-09-22T12:04:48Z</time>
      </trkpt>
      <trkpt lat="42.237200" lon="1.702824">
        <ele>2330.625</ele>
        <time>2018-09-22T12:04:49Z</time>
      </trkpt>
      <trkpt lat="42.237195" lon="1.702836">
        <ele>2331.008</ele>
        <time>2018-09-22T12:04:50Z</time>
      </trkpt>
      <trkpt lat="42.237199" lon="1.702859">
        <ele>2331.661</ele>
        <time>2018-09-22T12:04:52Z</time>
      </trkpt>
      <trkpt lat="42.237198" lon="1.702868">
        <ele>2331.947</ele>
        <time>2018-09-22T12:04:53Z</time>
      </trkpt>
      <trkpt lat="42.237198" lon="1.702888">
        <ele>2332.568</ele>
        <time>2018-09-22T12:04:55Z</time>
      </trkpt>
      <trkpt lat="42.237198" lon="1.702917">
        <ele>2333.362</ele>
        <time>2018-09-22T12:04:58Z</time>
      </trkpt>
      <trkpt lat="42.237190" lon="1.702956">
        <ele>2334.588</ele>
        <time>2018-09-22T12:05:03Z</time>
      </trkpt>
      <trkpt lat="42.237190" lon="1.702960">
        <ele>2334.738</ele>
        <time>2018-09-22T12:05:04Z</time>
      </trkpt>
      <trkpt lat="42.237180" lon="1.702974">
        <ele>2335.270</ele>
        <time>2018-09-22T12:05:06Z</time>
      </trkpt>
      <trkpt lat="42.237204" lon="1.703006">
        <ele>2335.892</ele>
        <time>2018-09-22T12:05:10Z</time>
      </trkpt>
      <trkpt lat="42.237195" lon="1.703040">
        <ele>2336.947</ele>
        <time>2018-09-22T12:05:13Z</time>
      </trkpt>
      <trkpt lat="42.237197" lon="1.703056">
        <ele>2337.329</ele>
        <time>2018-09-22T12:05:15Z</time>
      </trkpt>
      <trkpt lat="42.237194" lon="1.703078">
        <ele>2337.921</ele>
        <time>2018-09-22T12:05:17Z</time>
      </trkpt>
      <trkpt lat="42.237192" lon="1.703120">
        <ele>2339.008</ele>
        <time>2018-09-22T12:05:22Z</time>
      </trkpt>
      <trkpt lat="42.237179" lon="1.703160">
        <ele>2340.376</ele>
        <time>2018-09-22T12:05:26Z</time>
      </trkpt>
      <trkpt lat="42.237172" lon="1.703167">
        <ele>2340.632</ele>
        <time>2018-09-22T12:05:27Z</time>
      </trkpt>
      <trkpt lat="42.237175" lon="1.703186">
        <ele>2341.043</ele>
        <time>2018-09-22T12:05:30Z</time>
      </trkpt>
      <trkpt lat="42.237181" lon="1.703212">
        <ele>2341.647</ele>
        <time>2018-09-22T12:05:33Z</time>
      </trkpt>
      <trkpt lat="42.237186" lon="1.703306">
        <ele>2343.963</ele>
        <time>2018-09-22T12:05:41Z</time>
      </trkpt>
      <trkpt lat="42.237190" lon="1.703328">
        <ele>2344.443</ele>
        <time>2018-09-22T12:05:43Z</time>
      </trkpt>
      <trkpt lat="42.237190" lon="1.703345">
        <ele>2344.885</ele>
        <time>2018-09-22T12:05:45Z</time>
      </trkpt>
      <trkpt lat="42.237191" lon="1.703354">
        <ele>2345.047</ele>
        <time>2018-09-22T12:05:46Z</time>
      </trkpt>
      <trkpt lat="42.237194" lon="1.703382">
        <ele>2345.755</ele>
        <time>2018-09-22T12:05:49Z</time>
      </trkpt>
      <trkpt lat="42.237196" lon="1.703403">
        <ele>2346.107</ele>
        <time>2018-09-22T12:05:51Z</time>
      </trkpt>
      <trkpt lat="42.237197" lon="1.703413">
        <ele>2346.417</ele>
        <time>2018-09-22T12:05:52Z</time>
      </trkpt>
      <trkpt lat="42.237183" lon="1.703440">
        <ele>2347.308</ele>
        <time>2018-09-22T12:05:56Z</time>
      </trkpt>
      <trkpt lat="42.237172" lon="1.703457">
        <ele>2347.947</ele>
        <time>2018-09-22T12:06:10Z</time>
      </trkpt>
      <trkpt lat="42.237163" lon="1.703494">
        <ele>2349.093</ele>
        <time>2018-09-22T12:06:15Z</time>
      </trkpt>
      <trkpt lat="42.237163" lon="1.703503">
        <ele>2349.284</ele>
        <time>2018-09-22T12:06:16Z</time>
      </trkpt>
      <trkpt lat="42.237166" lon="1.703514">
        <ele>2349.458</ele>
        <time>2018-09-22T12:06:17Z</time>
      </trkpt>
      <trkpt lat="42.237176" lon="1.703534">
        <ele>2349.794</ele>
        <time>2018-09-22T12:06:19Z</time>
      </trkpt>
      <trkpt lat="42.237184" lon="1.703544">
        <ele>2349.854</ele>
        <time>2018-09-22T12:06:20Z</time>
      </trkpt>
      <trkpt lat="42.237181" lon="1.703553">
        <ele>2350.116</ele>
        <time>2018-09-22T12:06:21Z</time>
      </trkpt>
      <trkpt lat="42.237179" lon="1.703565">
        <ele>2350.468</ele>
        <time>2018-09-22T12:06:22Z</time>
      </trkpt>
      <trkpt lat="42.237180" lon="1.703587">
        <ele>2351.063</ele>
        <time>2018-09-22T12:06:24Z</time>
      </trkpt>
      <trkpt lat="42.237183" lon="1.703595">
        <ele>2351.144</ele>
        <time>2018-09-22T12:06:25Z</time>
      </trkpt>
      <trkpt lat="42.237187" lon="1.703610">
        <ele>2351.418</ele>
        <time>2018-09-22T12:06:27Z</time>
      </trkpt>
      <trkpt lat="42.237194" lon="1.703637">
        <ele>2351.808</ele>
        <time>2018-09-22T12:06:30Z</time>
      </trkpt>
      <trkpt lat="42.237193" lon="1.703648">
        <ele>2352.038</ele>
        <time>2018-09-22T12:06:31Z</time>
      </trkpt>
      <trkpt lat="42.237200" lon="1.703675">
        <ele>2352.474</ele>
        <time>2018-09-22T12:06:34Z</time>
      </trkpt>
      <trkpt lat="42.237202" lon="1.703683">
        <ele>2352.535</ele>
        <time>2018-09-22T12:06:35Z</time>
      </trkpt>
      <trkpt lat="42.237206" lon="1.703689">
        <ele>2352.679</ele>
        <time>2018-09-22T12:06:36Z</time>
      </trkpt>
      <trkpt lat="42.237211" lon="1.703695">
        <ele>2352.665</ele>
        <time>2018-09-22T12:06:37Z</time>
      </trkpt>
      <trkpt lat="42.237217" lon="1.703707">
        <ele>2352.755</ele>
        <time>2018-09-22T12:06:40Z</time>
      </trkpt>
      <trkpt lat="42.237225" lon="1.703727">
        <ele>2353.177</ele>
        <time>2018-09-22T12:06:43Z</time>
      </trkpt>
      <trkpt lat="42.237253" lon="1.703763">
        <ele>2354.569</ele>
        <time>2018-09-22T12:06:48Z</time>
      </trkpt>
      <trkpt lat="42.237253" lon="1.703780">
        <ele>2354.818</ele>
        <time>2018-09-22T12:06:50Z</time>
      </trkpt>
      <trkpt lat="42.237270" lon="1.703824">
        <ele>2356.098</ele>
        <time>2018-09-22T12:06:55Z</time>
      </trkpt>
      <trkpt lat="42.237299" lon="1.703846">
        <ele>2357.117</ele>
        <time>2018-09-22T12:06:59Z</time>
      </trkpt>
      <trkpt lat="42.237298" lon="1.703849">
        <ele>2357.108</ele>
        <time>2018-09-22T12:07:01Z</time>
      </trkpt>
      <trkpt lat="42.237306" lon="1.703826">
        <ele>2356.973</ele>
        <time>2018-09-22T12:07:21Z</time>
      </trkpt>
      <trkpt lat="42.237353" lon="1.703820">
        <ele>2358.029</ele>
        <time>2018-09-22T12:07:53Z</time>
      </trkpt>
      <trkpt lat="42.237355" lon="1.703821">
        <ele>2358.130</ele>
        <time>2018-09-22T12:07:54Z</time>
      </trkpt>
      <trkpt lat="42.237358" lon="1.703825">
        <ele>2358.244</ele>
        <time>2018-09-22T12:07:55Z</time>
      </trkpt>
      <trkpt lat="42.237365" lon="1.703827">
        <ele>2358.410</ele>
        <time>2018-09-22T12:07:56Z</time>
      </trkpt>
      <trkpt lat="42.237388" lon="1.703830">
        <ele>2359.170</ele>
        <time>2018-09-22T12:07:59Z</time>
      </trkpt>
      <trkpt lat="42.237394" lon="1.703830">
        <ele>2359.212</ele>
        <time>2018-09-22T12:08:00Z</time>
      </trkpt>
      <trkpt lat="42.237403" lon="1.703829">
        <ele>2359.424</ele>
        <time>2018-09-22T12:08:01Z</time>
      </trkpt>
      <trkpt lat="42.237422" lon="1.703826">
        <ele>2359.892</ele>
        <time>2018-09-22T12:08:03Z</time>
      </trkpt>
      <trkpt lat="42.237439" lon="1.703823">
        <ele>2360.273</ele>
        <time>2018-09-22T12:08:05Z</time>
      </trkpt>
      <trkpt lat="42.237455" lon="1.703823">
        <ele>2360.620</ele>
        <time>2018-09-22T12:08:07Z</time>
      </trkpt>
      <trkpt lat="42.237468" lon="1.703820">
        <ele>2360.908</ele>
        <time>2018-09-22T12:08:09Z</time>
      </trkpt>
      <trkpt lat="42.237473" lon="1.703819">
        <ele>2361.011</ele>
        <time>2018-09-22T12:08:10Z</time>
      </trkpt>
      <trkpt lat="42.237482" lon="1.703821">
        <ele>2361.337</ele>
        <time>2018-09-22T12:08:11Z</time>
      </trkpt>
      <trkpt lat="42.237490" lon="1.703827">
        <ele>2361.668</ele>
        <time>2018-09-22T12:08:12Z</time>
      </trkpt>
      <trkpt lat="42.237528" lon="1.703839">
        <ele>2363.272</ele>
        <time>2018-09-22T12:08:17Z</time>
      </trkpt>
      <trkpt lat="42.237537" lon="1.703842">
        <ele>2363.678</ele>
        <time>2018-09-22T12:08:18Z</time>
      </trkpt>
      <trkpt lat="42.237542" lon="1.703846">
        <ele>2363.868</ele>
        <time>2018-09-22T12:08:19Z</time>
      </trkpt>
      <trkpt lat="42.237556" lon="1.703851">
        <ele>2364.550</ele>
        <time>2018-09-22T12:08:21Z</time>
      </trkpt>
      <trkpt lat="42.237580" lon="1.703847">
        <ele>2365.452</ele>
        <time>2018-09-22T12:08:24Z</time>
      </trkpt>
      <trkpt lat="42.237604" lon="1.703845">
        <ele>2366.313</ele>
        <time>2018-09-22T12:08:29Z</time>
      </trkpt>
      <trkpt lat="42.237622" lon="1.703845">
        <ele>2367.043</ele>
        <time>2018-09-22T12:08:33Z</time>
      </trkpt>
      <trkpt lat="42.237628" lon="1.703856">
        <ele>2367.407</ele>
        <time>2018-09-22T12:08:35Z</time>
      </trkpt>
      <trkpt lat="42.237643" lon="1.703872">
        <ele>2368.308</ele>
        <time>2018-09-22T12:08:38Z</time>
      </trkpt>
      <trkpt lat="42.237645" lon="1.703877">
        <ele>2368.573</ele>
        <time>2018-09-22T12:08:39Z</time>
      </trkpt>
      <trkpt lat="42.237664" lon="1.703879">
        <ele>2369.329</ele>
        <time>2018-09-22T12:08:41Z</time>
      </trkpt>
      <trkpt lat="42.237689" lon="1.703895">
        <ele>2370.550</ele>
        <time>2018-09-22T12:08:46Z</time>
      </trkpt>
      <trkpt lat="42.237706" lon="1.703891">
        <ele>2371.134</ele>
        <time>2018-09-22T12:08:49Z</time>
      </trkpt>
      <trkpt lat="42.237712" lon="1.703891">
        <ele>2371.320</ele>
        <time>2018-09-22T12:08:50Z</time>
      </trkpt>
      <trkpt lat="42.237716" lon="1.703894">
        <ele>2371.550</ele>
        <time>2018-09-22T12:08:51Z</time>
      </trkpt>
      <trkpt lat="42.237746" lon="1.703924">
        <ele>2372.872</ele>
        <time>2018-09-22T12:09:00Z</time>
      </trkpt>
      <trkpt lat="42.237774" lon="1.703907">
        <ele>2373.934</ele>
        <time>2018-09-22T12:09:07Z</time>
      </trkpt>
      <trkpt lat="42.237795" lon="1.703915">
        <ele>2374.947</ele>
        <time>2018-09-22T12:09:11Z</time>
      </trkpt>
      <trkpt lat="42.237836" lon="1.703911">
        <ele>2377.029</ele>
        <time>2018-09-22T12:09:18Z</time>
      </trkpt>
      <trkpt lat="42.237856" lon="1.703884">
        <ele>2377.821</ele>
        <time>2018-09-22T12:09:23Z</time>
      </trkpt>
      <trkpt lat="42.237879" lon="1.703899">
        <ele>2379.208</ele>
        <time>2018-09-22T12:09:28Z</time>
      </trkpt>
      <trkpt lat="42.237916" lon="1.703887">
        <ele>2380.966</ele>
        <time>2018-09-22T12:09:35Z</time>
      </trkpt>
      <trkpt lat="42.237946" lon="1.703857">
        <ele>2381.892</ele>
        <time>2018-09-22T12:09:40Z</time>
      </trkpt>
      <trkpt lat="42.237974" lon="1.703842">
        <ele>2383.063</ele>
        <time>2018-09-22T12:09:45Z</time>
      </trkpt>
      <trkpt lat="42.238007" lon="1.703820">
        <ele>2384.277</ele>
        <time>2018-09-22T12:09:52Z</time>
      </trkpt>
      <trkpt lat="42.238012" lon="1.703821">
        <ele>2384.633</ele>
        <time>2018-09-22T12:09:53Z</time>
      </trkpt>
      <trkpt lat="42.238023" lon="1.703806">
        <ele>2384.843</ele>
        <time>2018-09-22T12:09:57Z</time>
      </trkpt>
      <trkpt lat="42.238056" lon="1.703801">
        <ele>2386.495</ele>
        <time>2018-09-22T12:10:05Z</time>
      </trkpt>
      <trkpt lat="42.238060" lon="1.703795">
        <ele>2386.637</ele>
        <time>2018-09-22T12:10:06Z</time>
      </trkpt>
      <trkpt lat="42.238063" lon="1.703791">
        <ele>2386.872</ele>
        <time>2018-09-22T12:10:07Z</time>
      </trkpt>
      <trkpt lat="42.238078" lon="1.703764">
        <ele>2387.413</ele>
        <time>2018-09-22T12:10:11Z</time>
      </trkpt>
      <trkpt lat="42.238104" lon="1.703728">
        <ele>2388.714</ele>
        <time>2018-09-22T12:10:17Z</time>
      </trkpt>
      <trkpt lat="42.238124" lon="1.703700">
        <ele>2389.608</ele>
        <time>2018-09-22T12:10:22Z</time>
      </trkpt>
      <trkpt lat="42.238164" lon="1.703661">
        <ele>2391.429</ele>
        <time>2018-09-22T12:10:28Z</time>
      </trkpt>
      <trkpt lat="42.238202" lon="1.703645">
        <ele>2393.565</ele>
        <time>2018-09-22T12:10:34Z</time>
      </trkpt>
      <trkpt lat="42.238210" lon="1.703644">
        <ele>2394.016</ele>
        <time>2018-09-22T12:10:35Z</time>
      </trkpt>
      <trkpt lat="42.238245" lon="1.703627">
        <ele>2395.810</ele>
        <time>2018-09-22T12:10:41Z</time>
      </trkpt>
      <trkpt lat="42.238264" lon="1.703611">
        <ele>2396.426</ele>
        <time>2018-09-22T12:10:46Z</time>
      </trkpt>
      <trkpt lat="42.238275" lon="1.703570">
        <ele>2395.856</ele>
        <time>2018-09-22T12:10:50Z</time>
      </trkpt>
      <trkpt lat="42.238275" lon="1.703562">
        <ele>2395.518</ele>
        <time>2018-09-22T12:10:51Z</time>
      </trkpt>
      <trkpt lat="42.238277" lon="1.703554">
        <ele>2395.430</ele>
        <time>2018-09-22T12:10:52Z</time>
      </trkpt>
      <trkpt lat="42.238277" lon="1.703545">
        <ele>2395.194</ele>
        <time>2018-09-22T12:10:53Z</time>
      </trkpt>
      <trkpt lat="42.238282" lon="1.703540">
        <ele>2395.257</ele>
        <time>2018-09-22T12:10:54Z</time>
      </trkpt>
      <trkpt lat="42.238287" lon="1.703533">
        <ele>2395.322</ele>
        <time>2018-09-22T12:10:55Z</time>
      </trkpt>
      <trkpt lat="42.238303" lon="1.703524">
        <ele>2396.008</ele>
        <time>2018-09-22T12:10:58Z</time>
      </trkpt>
      <trkpt lat="42.238331" lon="1.703517">
        <ele>2397.431</ele>
        <time>2018-09-22T12:11:05Z</time>
      </trkpt>
      <trkpt lat="42.238349" lon="1.703575">
        <ele>2400.947</ele>
        <time>2018-09-22T12:11:14Z</time>
      </trkpt>
      <trkpt lat="42.238357" lon="1.703582">
        <ele>2401.938</ele>
        <time>2018-09-22T12:11:20Z</time>
      </trkpt>
      <trkpt lat="42.238382" lon="1.703509">
        <ele>2401.352</ele>
        <time>2018-09-22T12:11:29Z</time>
      </trkpt>
      <trkpt lat="42.238395" lon="1.703474">
        <ele>2401.198</ele>
        <time>2018-09-22T12:11:35Z</time>
      </trkpt>
      <trkpt lat="42.238420" lon="1.703476">
        <ele>2403.358</ele>
        <time>2018-09-22T12:11:43Z</time>
      </trkpt>
      <trkpt lat="42.238423" lon="1.703476">
        <ele>2403.530</ele>
        <time>2018-09-22T12:11:45Z</time>
      </trkpt>
      <trkpt lat="42.238426" lon="1.703479">
        <ele>2403.882</ele>
        <time>2018-09-22T12:11:46Z</time>
      </trkpt>
      <trkpt lat="42.238433" lon="1.703493">
        <ele>2405.095</ele>
        <time>2018-09-22T12:11:50Z</time>
      </trkpt>
      <trkpt lat="42.238438" lon="1.703470">
        <ele>2404.649</ele>
        <time>2018-09-22T12:11:58Z</time>
      </trkpt>
      <trkpt lat="42.238446" lon="1.703448">
        <ele>2404.423</ele>
        <time>2018-09-22T12:12:04Z</time>
      </trkpt>
      <trkpt lat="42.238476" lon="1.703442">
        <ele>2406.608</ele>
        <time>2018-09-22T12:12:18Z</time>
      </trkpt>
      <trkpt lat="42.238492" lon="1.703444">
        <ele>2408.111</ele>
        <time>2018-09-22T12:12:22Z</time>
      </trkpt>
      <trkpt lat="42.238520" lon="1.703431">
        <ele>2409.937</ele>
        <time>2018-09-22T12:12:26Z</time>
      </trkpt>
      <trkpt lat="42.238524" lon="1.703427">
        <ele>2410.198</ele>
        <time>2018-09-22T12:12:27Z</time>
      </trkpt>
      <trkpt lat="42.238537" lon="1.703427">
        <ele>2411.252</ele>
        <time>2018-09-22T12:12:30Z</time>
      </trkpt>
      <trkpt lat="42.238559" lon="1.703435">
        <ele>2413.398</ele>
        <time>2018-09-22T12:12:37Z</time>
      </trkpt>
      <trkpt lat="42.238594" lon="1.703368">
        <ele>2413.888</ele>
        <time>2018-09-22T12:12:53Z</time>
      </trkpt>
      <trkpt lat="42.238616" lon="1.703368">
        <ele>2415.780</ele>
        <time>2018-09-22T12:13:03Z</time>
      </trkpt>
      <trkpt lat="42.238626" lon="1.703356">
        <ele>2416.042</ele>
        <time>2018-09-22T12:13:08Z</time>
      </trkpt>
      <trkpt lat="42.238651" lon="1.703344">
        <ele>2417.781</ele>
        <time>2018-09-22T12:13:15Z</time>
      </trkpt>
      <trkpt lat="42.238667" lon="1.703340">
        <ele>2418.961</ele>
        <time>2018-09-22T12:13:18Z</time>
      </trkpt>
      <trkpt lat="42.238667" lon="1.703337">
        <ele>2418.817</ele>
        <time>2018-09-22T12:13:19Z</time>
      </trkpt>
      <trkpt lat="42.238670" lon="1.703334">
        <ele>2418.808</ele>
        <time>2018-09-22T12:13:20Z</time>
      </trkpt>
      <trkpt lat="42.238674" lon="1.703328">
        <ele>2419.120</ele>
        <time>2018-09-22T12:13:21Z</time>
      </trkpt>
      <trkpt lat="42.238679" lon="1.703324">
        <ele>2419.566</ele>
        <time>2018-09-22T12:13:22Z</time>
      </trkpt>
      <trkpt lat="42.238697" lon="1.703337">
        <ele>2421.267</ele>
        <time>2018-09-22T12:13:27Z</time>
      </trkpt>
      <trkpt lat="42.238705" lon="1.703354">
        <ele>2422.471</ele>
        <time>2018-09-22T12:13:31Z</time>
      </trkpt>
      <trkpt lat="42.238742" lon="1.703346">
        <ele>2425.247</ele>
        <time>2018-09-22T12:13:42Z</time>
      </trkpt>
      <trkpt lat="42.238752" lon="1.703350">
        <ele>2426.227</ele>
        <time>2018-09-22T12:13:44Z</time>
      </trkpt>
      <trkpt lat="42.238761" lon="1.703348">
        <ele>2426.919</ele>
        <time>2018-09-22T12:13:46Z</time>
      </trkpt>
      <trkpt lat="42.238763" lon="1.703353">
        <ele>2427.241</ele>
        <time>2018-09-22T12:13:47Z</time>
      </trkpt>
      <trkpt lat="42.238763" lon="1.703355">
        <ele>2427.334</ele>
        <time>2018-09-22T12:13:49Z</time>
      </trkpt>
      <trkpt lat="42.238770" lon="1.703346">
        <ele>2427.655</ele>
        <time>2018-09-22T12:13:52Z</time>
      </trkpt>
      <trkpt lat="42.238789" lon="1.703340">
        <ele>2428.910</ele>
        <time>2018-09-22T12:14:01Z</time>
      </trkpt>
      <trkpt lat="42.238806" lon="1.703333">
        <ele>2430.108</ele>
        <time>2018-09-22T12:14:09Z</time>
      </trkpt>
      <trkpt lat="42.238819" lon="1.703359">
        <ele>2432.025</ele>
        <time>2018-09-22T12:14:18Z</time>
      </trkpt>
      <trkpt lat="42.238825" lon="1.703362">
        <ele>2432.791</ele>
        <time>2018-09-22T12:14:25Z</time>
      </trkpt>
      <trkpt lat="42.238844" lon="1.703320">
        <ele>2432.982</ele>
        <time>2018-09-22T12:14:34Z</time>
      </trkpt>
      <trkpt lat="42.238856" lon="1.703318">
        <ele>2433.936</ele>
        <time>2018-09-22T12:14:40Z</time>
      </trkpt>
      <trkpt lat="42.238861" lon="1.703319">
        <ele>2434.272</ele>
        <time>2018-09-22T12:14:41Z</time>
      </trkpt>
      <trkpt lat="42.238863" lon="1.703306">
        <ele>2434.142</ele>
        <time>2018-09-22T12:14:49Z</time>
      </trkpt>
      <trkpt lat="42.238861" lon="1.703308">
        <ele>2434.044</ele>
        <time>2018-09-22T12:15:19Z</time>
      </trkpt>
      <trkpt lat="42.238877" lon="1.703305">
        <ele>2435.286</ele>
        <time>2018-09-22T12:15:25Z</time>
      </trkpt>
      <trkpt lat="42.238891" lon="1.703290">
        <ele>2435.832</ele>
        <time>2018-09-22T12:15:29Z</time>
      </trkpt>
      <trkpt lat="42.238900" lon="1.703287">
        <ele>2436.492</ele>
        <time>2018-09-22T12:15:38Z</time>
      </trkpt>
      <trkpt lat="42.238917" lon="1.703287">
        <ele>2437.811</ele>
        <time>2018-09-22T12:15:49Z</time>
      </trkpt>
      <trkpt lat="42.238927" lon="1.703290">
        <ele>2438.608</ele>
        <time>2018-09-22T12:15:53Z</time>
      </trkpt>
      <trkpt lat="42.238946" lon="1.703294">
        <ele>2440.075</ele>
        <time>2018-09-22T12:16:00Z</time>
      </trkpt>
      <trkpt lat="42.238960" lon="1.703302">
        <ele>2441.391</ele>
        <time>2018-09-22T12:16:03Z</time>
      </trkpt>
      <trkpt lat="42.238969" lon="1.703310">
        <ele>2442.062</ele>
        <time>2018-09-22T12:16:04Z</time>
      </trkpt>
      <trkpt lat="42.238995" lon="1.703320">
        <ele>2444.016</ele>
        <time>2018-09-22T12:16:12Z</time>
      </trkpt>
      <trkpt lat="42.239002" lon="1.703311">
        <ele>2444.482</ele>
        <time>2018-09-22T12:16:14Z</time>
      </trkpt>
      <trkpt lat="42.239017" lon="1.703295">
        <ele>2445.382</ele>
        <time>2018-09-22T12:16:18Z</time>
      </trkpt>
      <trkpt lat="42.239017" lon="1.703270">
        <ele>2445.134</ele>
        <time>2018-09-22T12:16:22Z</time>
      </trkpt>
      <trkpt lat="42.239021" lon="1.703258">
        <ele>2445.246</ele>
        <time>2018-09-22T12:16:25Z</time>
      </trkpt>
      <trkpt lat="42.239029" lon="1.703248">
        <ele>2445.843</ele>
        <time>2018-09-22T12:16:29Z</time>
      </trkpt>
      <trkpt lat="42.239042" lon="1.703251">
        <ele>2446.964</ele>
        <time>2018-09-22T12:16:35Z</time>
      </trkpt>
      <trkpt lat="42.239062" lon="1.703238">
        <ele>2448.410</ele>
        <time>2018-09-22T12:16:43Z</time>
      </trkpt>
      <trkpt lat="42.239081" lon="1.703220">
        <ele>2450.008</ele>
        <time>2018-09-22T12:16:47Z</time>
      </trkpt>
      <trkpt lat="42.239098" lon="1.703215">
        <ele>2451.466</ele>
        <time>2018-09-22T12:16:52Z</time>
      </trkpt>
      <trkpt lat="42.239111" lon="1.703248">
        <ele>2452.472</ele>
        <time>2018-09-22T12:16:58Z</time>
      </trkpt>
      <trkpt lat="42.239113" lon="1.703250">
        <ele>2452.543</ele>
        <time>2018-09-22T12:16:59Z</time>
      </trkpt>
      <trkpt lat="42.239116" lon="1.703259">
        <ele>2452.837</ele>
        <time>2018-09-22T12:17:08Z</time>
      </trkpt>
      <trkpt lat="42.239126" lon="1.703262">
        <ele>2453.533</ele>
        <time>2018-09-22T12:17:10Z</time>
      </trkpt>
      <trkpt lat="42.239133" lon="1.703265">
        <ele>2454.183</ele>
        <time>2018-09-22T12:17:11Z</time>
      </trkpt>
      <trkpt lat="42.239138" lon="1.703291">
        <ele>2454.325</ele>
        <time>2018-09-22T12:17:14Z</time>
      </trkpt>
      <trkpt lat="42.239140" lon="1.703301">
        <ele>2454.387</ele>
        <time>2018-09-22T12:17:20Z</time>
      </trkpt>
      <trkpt lat="42.239142" lon="1.703299">
        <ele>2454.591</ele>
        <time>2018-09-22T12:17:21Z</time>
      </trkpt>
      <trkpt lat="42.239151" lon="1.703287">
        <ele>2455.281</ele>
        <time>2018-09-22T12:17:25Z</time>
      </trkpt>
      <trkpt lat="42.239161" lon="1.703272">
        <ele>2456.219</ele>
        <time>2018-09-22T12:17:29Z</time>
      </trkpt>
      <trkpt lat="42.239174" lon="1.703272">
        <ele>2457.208</ele>
        <time>2018-09-22T12:17:36Z</time>
      </trkpt>
      <trkpt lat="42.239180" lon="1.703275">
        <ele>2457.571</ele>
        <time>2018-09-22T12:17:37Z</time>
      </trkpt>
      <trkpt lat="42.239182" lon="1.703273">
        <ele>2457.787</ele>
        <time>2018-09-22T12:17:39Z</time>
      </trkpt>
      <trkpt lat="42.239187" lon="1.703275">
        <ele>2458.198</ele>
        <time>2018-09-22T12:17:40Z</time>
      </trkpt>
      <trkpt lat="42.239195" lon="1.703278">
        <ele>2458.772</ele>
        <time>2018-09-22T12:17:42Z</time>
      </trkpt>
      <trkpt lat="42.239199" lon="1.703278">
        <ele>2458.948</ele>
        <time>2018-09-22T12:17:45Z</time>
      </trkpt>
      <trkpt lat="42.239226" lon="1.703254">
        <ele>2461.188</ele>
        <time>2018-09-22T12:17:50Z</time>
      </trkpt>
      <trkpt lat="42.239239" lon="1.703227">
        <ele>2462.370</ele>
        <time>2018-09-22T12:18:00Z</time>
      </trkpt>
      <trkpt lat="42.239264" lon="1.703216">
        <ele>2464.162</ele>
        <time>2018-09-22T12:18:11Z</time>
      </trkpt>
      <trkpt lat="42.239267" lon="1.703227">
        <ele>2464.258</ele>
        <time>2018-09-22T12:18:20Z</time>
      </trkpt>
      <trkpt lat="42.239266" lon="1.703225">
        <ele>2464.252</ele>
        <time>2018-09-22T12:18:27Z</time>
      </trkpt>
      <trkpt lat="42.239292" lon="1.703226">
        <ele>2466.017</ele>
        <time>2018-09-22T12:18:36Z</time>
      </trkpt>
      <trkpt lat="42.239302" lon="1.703242">
        <ele>2466.708</ele>
        <time>2018-09-22T12:18:38Z</time>
      </trkpt>
      <trkpt lat="42.239310" lon="1.703236">
        <ele>2467.377</ele>
        <time>2018-09-22T12:18:42Z</time>
      </trkpt>
      <trkpt lat="42.239318" lon="1.703246">
        <ele>2467.833</ele>
        <time>2018-09-22T12:18:48Z</time>
      </trkpt>
      <trkpt lat="42.239324" lon="1.703273">
        <ele>2468.134</ele>
        <time>2018-09-22T12:18:54Z</time>
      </trkpt>
      <trkpt lat="42.239346" lon="1.703256">
        <ele>2469.868</ele>
        <time>2018-09-22T12:19:05Z</time>
      </trkpt>
      <trkpt lat="42.239362" lon="1.703251">
        <ele>2471.074</ele>
        <time>2018-09-22T12:19:12Z</time>
      </trkpt>
      <trkpt lat="42.239364" lon="1.703238">
        <ele>2471.264</ele>
        <time>2018-09-22T12:19:16Z</time>
      </trkpt>
      <trkpt lat="42.239374" lon="1.703239">
        <ele>2471.996</ele>
        <time>2018-09-22T12:19:24Z</time>
      </trkpt>
      <trkpt lat="42.239373" lon="1.703242">
        <ele>2471.818</ele>
        <time>2018-09-22T12:19:25Z</time>
      </trkpt>
      <trkpt lat="42.239373" lon="1.703249">
        <ele>2471.851</ele>
        <time>2018-09-22T12:19:26Z</time>
      </trkpt>
      <trkpt lat="42.239386" lon="1.703263">
        <ele>2472.701</ele>
        <time>2018-09-22T12:19:30Z</time>
      </trkpt>
      <trkpt lat="42.239390" lon="1.703248">
        <ele>2473.011</ele>
        <time>2018-09-22T12:19:38Z</time>
      </trkpt>
      <trkpt lat="42.239408" lon="1.703262">
        <ele>2474.308</ele>
        <time>2018-09-22T12:19:46Z</time>
      </trkpt>
      <trkpt lat="42.239423" lon="1.703255">
        <ele>2475.447</ele>
        <time>2018-09-22T12:20:00Z</time>
      </trkpt>
      <trkpt lat="42.239433" lon="1.703248">
        <ele>2476.163</ele>
        <time>2018-09-22T12:20:05Z</time>
      </trkpt>
      <trkpt lat="42.239453" lon="1.703278">
        <ele>2476.754</ele>
        <time>2018-09-22T12:20:14Z</time>
      </trkpt>
      <trkpt lat="42.239465" lon="1.703281">
        <ele>2476.488</ele>
        <time>2018-09-22T12:20:23Z</time>
      </trkpt>
      <trkpt lat="42.239490" lon="1.703277">
        <ele>2475.984</ele>
        <time>2018-09-22T12:20:27Z</time>
      </trkpt>
      <trkpt lat="42.239506" lon="1.703275">
        <ele>2475.684</ele>
        <time>2018-09-22T12:20:32Z</time>
      </trkpt>
      <trkpt lat="42.239519" lon="1.703255">
        <ele>2475.946</ele>
        <time>2018-09-22T12:20:39Z</time>
      </trkpt>
      <trkpt lat="42.239543" lon="1.703237">
        <ele>2476.388</ele>
        <time>2018-09-22T12:20:48Z</time>
      </trkpt>
      <trkpt lat="42.239565" lon="1.703243">
        <ele>2475.878</ele>
        <time>2018-09-22T12:20:55Z</time>
      </trkpt>
      <trkpt lat="42.239546" lon="1.703232">
        <ele>2476.533</ele>
        <time>2018-09-22T12:21:02Z</time>
      </trkpt>
      <trkpt lat="42.239562" lon="1.703241">
        <ele>2475.926</ele>
        <time>2018-09-22T12:21:08Z</time>
      </trkpt>
      <trkpt lat="42.239576" lon="1.703243">
        <ele>2475.708</ele>
        <time>2018-09-22T12:21:12Z</time>
      </trkpt>
      <trkpt lat="42.239577" lon="1.703233">
        <ele>2476.319</ele>
        <time>2018-09-22T12:21:19Z</time>
      </trkpt>
      <trkpt lat="42.239593" lon="1.703242">
        <ele>2475.735</ele>
        <time>2018-09-22T12:21:25Z</time>
      </trkpt>
      <trkpt lat="42.239618" lon="1.703254">
        <ele>2474.696</ele>
        <time>2018-09-22T12:21:30Z</time>
      </trkpt>
      <trkpt lat="42.239637" lon="1.703253">
        <ele>2474.470</ele>
        <time>2018-09-22T12:21:37Z</time>
      </trkpt>
      <trkpt lat="42.239663" lon="1.703236">
        <ele>2475.516</ele>
        <time>2018-09-22T12:21:41Z</time>
      </trkpt>
      <trkpt lat="42.239665" lon="1.703228">
        <ele>2476.326</ele>
        <time>2018-09-22T12:21:42Z</time>
      </trkpt>
      <trkpt lat="42.239685" lon="1.703104">
        <ele>2488.528</ele>
        <time>2018-09-22T12:22:02Z</time>
      </trkpt>
      <trkpt lat="42.239682" lon="1.703095">
        <ele>2489.390</ele>
        <time>2018-09-22T12:22:03Z</time>
      </trkpt>
      <trkpt lat="42.239680" lon="1.703072">
        <ele>2491.449</ele>
        <time>2018-09-22T12:22:05Z</time>
      </trkpt>
      <trkpt lat="42.239688" lon="1.703059">
        <ele>2493.202</ele>
        <time>2018-09-22T12:22:08Z</time>
      </trkpt>
      <trkpt lat="42.239697" lon="1.703072">
        <ele>2492.522</ele>
        <time>2018-09-22T12:22:10Z</time>
      </trkpt>
      <trkpt lat="42.239701" lon="1.703079">
        <ele>2492.008</ele>
        <time>2018-09-22T12:22:11Z</time>
      </trkpt>
      <trkpt lat="42.239702" lon="1.703082">
        <ele>2491.726</ele>
        <time>2018-09-22T12:22:12Z</time>
      </trkpt>
      <trkpt lat="42.239708" lon="1.703084">
        <ele>2491.812</ele>
        <time>2018-09-22T12:22:13Z</time>
      </trkpt>
      <trkpt lat="42.239736" lon="1.703085">
        <ele>2492.053</ele>
        <time>2018-09-22T12:22:17Z</time>
      </trkpt>
      <trkpt lat="42.239762" lon="1.703074">
        <ele>2492.437</ele>
        <time>2018-09-22T12:22:22Z</time>
      </trkpt>
      <trkpt lat="42.239767" lon="1.703076">
        <ele>2492.013</ele>
        <time>2018-09-22T12:22:24Z</time>
      </trkpt>
      <trkpt lat="42.239770" lon="1.703076">
        <ele>2491.833</ele>
        <time>2018-09-22T12:22:25Z</time>
      </trkpt>
      <trkpt lat="42.239774" lon="1.703077">
        <ele>2491.555</ele>
        <time>2018-09-22T12:22:26Z</time>
      </trkpt>
      <trkpt lat="42.239782" lon="1.703081">
        <ele>2490.637</ele>
        <time>2018-09-22T12:22:28Z</time>
      </trkpt>
      <trkpt lat="42.239800" lon="1.703082">
        <ele>2489.899</ele>
        <time>2018-09-22T12:22:31Z</time>
      </trkpt>
      <trkpt lat="42.239815" lon="1.703075">
        <ele>2490.307</ele>
        <time>2018-09-22T12:22:34Z</time>
      </trkpt>
      <trkpt lat="42.239843" lon="1.703035">
        <ele>2492.227</ele>
        <time>2018-09-22T12:22:46Z</time>
      </trkpt>
      <trkpt lat="42.239847" lon="1.702987">
        <ele>2491.608</ele>
        <time>2018-09-22T12:22:55Z</time>
      </trkpt>
      <trkpt lat="42.239868" lon="1.702998">
        <ele>2491.531</ele>
        <time>2018-09-22T12:23:00Z</time>
      </trkpt>
      <trkpt lat="42.239893" lon="1.703017">
        <ele>2491.187</ele>
        <time>2018-09-22T12:23:20Z</time>
      </trkpt>
      <trkpt lat="42.239902" lon="1.703035">
        <ele>2490.928</ele>
        <time>2018-09-22T12:23:26Z</time>
      </trkpt>
      <trkpt lat="42.239904" lon="1.703041">
        <ele>2490.892</ele>
        <time>2018-09-22T12:23:29Z</time>
      </trkpt>
      <trkpt lat="42.239901" lon="1.703075">
        <ele>2487.168</ele>
        <time>2018-09-22T12:23:38Z</time>
      </trkpt>
      <trkpt lat="42.239899" lon="1.703088">
        <ele>2484.778</ele>
        <time>2018-09-22T12:23:49Z</time>
      </trkpt>
      <trkpt lat="42.239910" lon="1.703060">
        <ele>2489.750</ele>
        <time>2018-09-22T12:23:56Z</time>
      </trkpt>
      <trkpt lat="42.239910" lon="1.703027">
        <ele>2490.882</ele>
        <time>2018-09-22T12:24:28Z</time>
      </trkpt>
      <trkpt lat="42.239909" lon="1.703028">
        <ele>2490.811</ele>
        <time>2018-09-22T12:24:31Z</time>
      </trkpt>
      <trkpt lat="42.239908" lon="1.703024">
        <ele>2490.821</ele>
        <time>2018-09-22T12:24:35Z</time>
      </trkpt>
      <trkpt lat="42.239906" lon="1.703023">
        <ele>2490.903</ele>
        <time>2018-09-22T12:24:50Z</time>
      </trkpt>
      <trkpt lat="42.239913" lon="1.703040">
        <ele>2490.608</ele>
        <time>2018-09-22T12:25:19Z</time>
      </trkpt>
      <trkpt lat="42.239912" lon="1.703038">
        <ele>2490.633</ele>
        <time>2018-09-22T12:25:40Z</time>
      </trkpt>
      <trkpt lat="42.239912" lon="1.703037">
        <ele>2490.639</ele>
        <time>2018-09-22T12:26:09Z</time>
      </trkpt>
      <trkpt lat="42.239910" lon="1.703037">
        <ele>2490.760</ele>
        <time>2018-09-22T12:26:21Z</time>
      </trkpt>
      <trkpt lat="42.239911" lon="1.703033">
        <ele>2490.744</ele>
        <time>2018-09-22T12:26:39Z</time>
      </trkpt>
      <trkpt lat="42.239914" lon="1.703033">
        <ele>2490.670</ele>
        <time>2018-09-22T12:26:51Z</time>
      </trkpt>
      <trkpt lat="42.239912" lon="1.703046">
        <ele>2490.660</ele>
        <time>2018-09-22T12:27:16Z</time>
      </trkpt>
      <trkpt lat="42.239909" lon="1.703046">
        <ele>2490.792</ele>
        <time>2018-09-22T12:27:54Z</time>
      </trkpt>
      <trkpt lat="42.239908" lon="1.703041">
        <ele>2490.794</ele>
        <time>2018-09-22T12:29:06Z</time>
      </trkpt>
      <trkpt lat="42.239914" lon="1.703030">
        <ele>2490.778</ele>
        <time>2018-09-22T12:29:18Z</time>
      </trkpt>
      <trkpt lat="42.239914" lon="1.703030">
        <ele>2490.733</ele>
        <time>2018-09-22T12:29:19Z</time>
      </trkpt>
      <trkpt lat="42.239913" lon="1.703028">
        <ele>2490.726</ele>
        <time>2018-09-22T12:29:40Z</time>
      </trkpt>
      <trkpt lat="42.239912" lon="1.703026">
        <ele>2490.708</ele>
        <time>2018-09-22T12:30:08Z</time>
      </trkpt>
      <trkpt lat="42.239916" lon="1.703038">
        <ele>2490.539</ele>
        <time>2018-09-22T12:30:38Z</time>
      </trkpt>
      <trkpt lat="42.239911" lon="1.703031">
        <ele>2490.725</ele>
        <time>2018-09-22T12:31:01Z</time>
      </trkpt>
      <trkpt lat="42.239911" lon="1.703030">
        <ele>2490.796</ele>
        <time>2018-09-22T12:31:11Z</time>
      </trkpt>
      <trkpt lat="42.239911" lon="1.703030">
        <ele>2490.750</ele>
        <time>2018-09-22T12:31:19Z</time>
      </trkpt>
      <trkpt lat="42.239911" lon="1.703034">
        <ele>2490.736</ele>
        <time>2018-09-22T12:31:30Z</time>
      </trkpt>
      <trkpt lat="42.239912" lon="1.703032">
        <ele>2490.796</ele>
        <time>2018-09-22T12:31:36Z</time>
      </trkpt>
      <trkpt lat="42.239909" lon="1.703041">
        <ele>2490.718</ele>
        <time>2018-09-22T12:31:50Z</time>
      </trkpt>
      <trkpt lat="42.239911" lon="1.703041">
        <ele>2490.650</ele>
        <time>2018-09-22T12:31:53Z</time>
      </trkpt>
      <trkpt lat="42.239912" lon="1.703040">
        <ele>2490.689</ele>
        <time>2018-09-22T12:31:55Z</time>
      </trkpt>
      <trkpt lat="42.239914" lon="1.703036">
        <ele>2490.606</ele>
        <time>2018-09-22T12:32:03Z</time>
      </trkpt>
      <trkpt lat="42.239912" lon="1.703041">
        <ele>2490.626</ele>
        <time>2018-09-22T12:32:05Z</time>
      </trkpt>
      <trkpt lat="42.239906" lon="1.703043">
        <ele>2490.808</ele>
        <time>2018-09-22T12:32:10Z</time>
      </trkpt>
      <trkpt lat="42.239905" lon="1.703037">
        <ele>2490.810</ele>
        <time>2018-09-22T12:32:35Z</time>
      </trkpt>
      <trkpt lat="42.239905" lon="1.703037">
        <ele>2490.866</ele>
        <time>2018-09-22T12:32:51Z</time>
      </trkpt>
      <trkpt lat="42.239909" lon="1.703039">
        <ele>2490.727</ele>
        <time>2018-09-22T12:33:19Z</time>
      </trkpt>
      <trkpt lat="42.239915" lon="1.703048">
        <ele>2490.521</ele>
        <time>2018-09-22T12:33:25Z</time>
      </trkpt>
      <trkpt lat="42.239911" lon="1.703050">
        <ele>2490.697</ele>
        <time>2018-09-22T12:33:33Z</time>
      </trkpt>
      <trkpt lat="42.239906" lon="1.703035">
        <ele>2490.877</ele>
        <time>2018-09-22T12:33:47Z</time>
      </trkpt>
      <trkpt lat="42.239906" lon="1.703026">
        <ele>2490.969</ele>
        <time>2018-09-22T12:33:57Z</time>
      </trkpt>
      <trkpt lat="42.239907" lon="1.703025">
        <ele>2490.811</ele>
        <time>2018-09-22T12:34:01Z</time>
      </trkpt>
      <trkpt lat="42.239907" lon="1.703025">
        <ele>2490.876</ele>
        <time>2018-09-22T12:34:03Z</time>
      </trkpt>
      <trkpt lat="42.239913" lon="1.703024">
        <ele>2490.790</ele>
        <time>2018-09-22T12:34:10Z</time>
      </trkpt>
      <trkpt lat="42.239913" lon="1.703021">
        <ele>2490.819</ele>
        <time>2018-09-22T12:34:28Z</time>
      </trkpt>
      <trkpt lat="42.239911" lon="1.703033">
        <ele>2490.708</ele>
        <time>2018-09-22T12:34:38Z</time>
      </trkpt>
      <trkpt lat="42.239912" lon="1.703033">
        <ele>2490.759</ele>
        <time>2018-09-22T12:34:44Z</time>
      </trkpt>
      <trkpt lat="42.239907" lon="1.703032">
        <ele>2490.895</ele>
        <time>2018-09-22T12:34:52Z</time>
      </trkpt>
      <trkpt lat="42.239904" lon="1.703021">
        <ele>2490.926</ele>
        <time>2018-09-22T12:35:01Z</time>
      </trkpt>
      <trkpt lat="42.239898" lon="1.703020">
        <ele>2491.090</ele>
        <time>2018-09-22T12:35:07Z</time>
      </trkpt>
      <trkpt lat="42.239896" lon="1.703008">
        <ele>2491.136</ele>
        <time>2018-09-22T12:35:27Z</time>
      </trkpt>
      <trkpt lat="42.239894" lon="1.703022">
        <ele>2491.196</ele>
        <time>2018-09-22T12:35:31Z</time>
      </trkpt>
      <trkpt lat="42.239890" lon="1.703021">
        <ele>2491.218</ele>
        <time>2018-09-22T12:35:46Z</time>
      </trkpt>
      <trkpt lat="42.239901" lon="1.703008">
        <ele>2491.010</ele>
        <time>2018-09-22T12:35:54Z</time>
      </trkpt>
      <trkpt lat="42.239906" lon="1.703003">
        <ele>2491.021</ele>
        <time>2018-09-22T12:36:01Z</time>
      </trkpt>
      <trkpt lat="42.239890" lon="1.703026">
        <ele>2491.241</ele>
        <time>2018-09-22T12:36:20Z</time>
      </trkpt>
      <trkpt lat="42.239892" lon="1.703026">
        <ele>2491.105</ele>
        <time>2018-09-22T12:36:26Z</time>
      </trkpt>
      <trkpt lat="42.239892" lon="1.703030">
        <ele>2491.108</ele>
        <time>2018-09-22T12:36:39Z</time>
      </trkpt>
      <trkpt lat="42.239903" lon="1.703035">
        <ele>2490.954</ele>
        <time>2018-09-22T12:36:52Z</time>
      </trkpt>
      <trkpt lat="42.239895" lon="1.703031">
        <ele>2491.190</ele>
        <time>2018-09-22T12:37:09Z</time>
      </trkpt>
      <trkpt lat="42.239894" lon="1.703022">
        <ele>2491.171</ele>
        <time>2018-09-22T12:37:17Z</time>
      </trkpt>
      <trkpt lat="42.239896" lon="1.703022">
        <ele>2491.165</ele>
        <time>2018-09-22T12:37:29Z</time>
      </trkpt>
      <trkpt lat="42.239897" lon="1.703021">
        <ele>2491.161</ele>
        <time>2018-09-22T12:37:37Z</time>
      </trkpt>
      <trkpt lat="42.239891" lon="1.703021">
        <ele>2491.251</ele>
        <time>2018-09-22T12:37:43Z</time>
      </trkpt>
      <trkpt lat="42.239903" lon="1.703004">
        <ele>2491.093</ele>
        <time>2018-09-22T12:37:57Z</time>
      </trkpt>
      <trkpt lat="42.239906" lon="1.703006">
        <ele>2491.075</ele>
        <time>2018-09-22T12:38:11Z</time>
      </trkpt>
      <trkpt lat="42.239910" lon="1.703018">
        <ele>2490.933</ele>
        <time>2018-09-22T12:38:18Z</time>
      </trkpt>
      <trkpt lat="42.239906" lon="1.703020">
        <ele>2490.923</ele>
        <time>2018-09-22T12:38:19Z</time>
      </trkpt>
      <trkpt lat="42.239877" lon="1.703012">
        <ele>2491.415</ele>
        <time>2018-09-22T12:38:32Z</time>
      </trkpt>
      <trkpt lat="42.239877" lon="1.703012">
        <ele>2491.408</ele>
        <time>2018-09-22T12:38:36Z</time>
      </trkpt>
      <trkpt lat="42.239874" lon="1.703032">
        <ele>2491.585</ele>
        <time>2018-09-22T12:38:41Z</time>
      </trkpt>
      <trkpt lat="42.239833" lon="1.703041">
        <ele>2492.521</ele>
        <time>2018-09-22T12:38:55Z</time>
      </trkpt>
      <trkpt lat="42.239805" lon="1.703036">
        <ele>2493.152</ele>
        <time>2018-09-22T12:39:02Z</time>
      </trkpt>
      <trkpt lat="42.239766" lon="1.703053">
        <ele>2494.656</ele>
        <time>2018-09-22T12:39:12Z</time>
      </trkpt>
      <trkpt lat="42.239741" lon="1.703070">
        <ele>2493.682</ele>
        <time>2018-09-22T12:39:23Z</time>
      </trkpt>
      <trkpt lat="42.239735" lon="1.703065">
        <ele>2494.472</ele>
        <time>2018-09-22T12:39:25Z</time>
      </trkpt>
      <trkpt lat="42.239673" lon="1.703096">
        <ele>2488.794</ele>
        <time>2018-09-22T12:39:51Z</time>
      </trkpt>
      <trkpt lat="42.239670" lon="1.703181">
        <ele>2480.656</ele>
        <time>2018-09-22T12:40:02Z</time>
      </trkpt>
      <trkpt lat="42.239672" lon="1.703216">
        <ele>2477.429</ele>
        <time>2018-09-22T12:40:07Z</time>
      </trkpt>
      <trkpt lat="42.239627" lon="1.703213">
        <ele>2477.500</ele>
        <time>2018-09-22T12:40:20Z</time>
      </trkpt>
      <trkpt lat="42.239618" lon="1.703221">
        <ele>2476.920</ele>
        <time>2018-09-22T12:40:24Z</time>
      </trkpt>
      <trkpt lat="42.239619" lon="1.703223">
        <ele>2476.808</ele>
        <time>2018-09-22T12:40:25Z</time>
      </trkpt>
      <trkpt lat="42.239614" lon="1.703229">
        <ele>2476.394</ele>
        <time>2018-09-22T12:40:30Z</time>
      </trkpt>
      <trkpt lat="42.239589" lon="1.703228">
        <ele>2476.540</ele>
        <time>2018-09-22T12:40:36Z</time>
      </trkpt>
      <trkpt lat="42.239561" lon="1.703235">
        <ele>2476.311</ele>
        <time>2018-09-22T12:40:44Z</time>
      </trkpt>
      <trkpt lat="42.239552" lon="1.703246">
        <ele>2475.845</ele>
        <time>2018-09-22T12:40:52Z</time>
      </trkpt>
      <trkpt lat="42.239530" lon="1.703212">
        <ele>2477.381</ele>
        <time>2018-09-22T12:40:59Z</time>
      </trkpt>
      <trkpt lat="42.239525" lon="1.703192">
        <ele>2477.991</ele>
        <time>2018-09-22T12:41:03Z</time>
      </trkpt>
      <trkpt lat="42.239543" lon="1.703192">
        <ele>2478.173</ele>
        <time>2018-09-22T12:41:08Z</time>
      </trkpt>
      <trkpt lat="42.239527" lon="1.703195">
        <ele>2477.895</ele>
        <time>2018-09-22T12:41:16Z</time>
      </trkpt>
      <trkpt lat="42.239532" lon="1.703232">
        <ele>2476.556</ele>
        <time>2018-09-22T12:41:33Z</time>
      </trkpt>
      <trkpt lat="42.239534" lon="1.703255">
        <ele>2475.759</ele>
        <time>2018-09-22T12:41:42Z</time>
      </trkpt>
      <trkpt lat="42.239532" lon="1.703265">
        <ele>2475.314</ele>
        <time>2018-09-22T12:41:48Z</time>
      </trkpt>
      <trkpt lat="42.239532" lon="1.703227">
        <ele>2476.708</ele>
        <time>2018-09-22T12:41:58Z</time>
      </trkpt>
      <trkpt lat="42.239484" lon="1.703209">
        <ele>2477.177</ele>
        <time>2018-09-22T12:42:04Z</time>
      </trkpt>
      <trkpt lat="42.239448" lon="1.703223">
        <ele>2476.933</ele>
        <time>2018-09-22T12:42:10Z</time>
      </trkpt>
      <trkpt lat="42.239426" lon="1.703210">
        <ele>2475.794</ele>
        <time>2018-09-22T12:42:15Z</time>
      </trkpt>
      <trkpt lat="42.239422" lon="1.703215">
        <ele>2475.368</ele>
        <time>2018-09-22T12:42:20Z</time>
      </trkpt>
      <trkpt lat="42.239407" lon="1.703224">
        <ele>2474.314</ele>
        <time>2018-09-22T12:42:25Z</time>
      </trkpt>
      <trkpt lat="42.239388" lon="1.703231">
        <ele>2472.984</ele>
        <time>2018-09-22T12:42:31Z</time>
      </trkpt>
      <trkpt lat="42.239374" lon="1.703231">
        <ele>2471.946</ele>
        <time>2018-09-22T12:42:36Z</time>
      </trkpt>
      <trkpt lat="42.239376" lon="1.703247">
        <ele>2472.088</ele>
        <time>2018-09-22T12:42:43Z</time>
      </trkpt>
      <trkpt lat="42.239353" lon="1.703263">
        <ele>2470.336</ele>
        <time>2018-09-22T12:42:50Z</time>
      </trkpt>
      <trkpt lat="42.239347" lon="1.703250">
        <ele>2469.917</ele>
        <time>2018-09-22T12:42:56Z</time>
      </trkpt>
      <trkpt lat="42.239304" lon="1.703241">
        <ele>2466.818</ele>
        <time>2018-09-22T12:43:03Z</time>
      </trkpt>
      <trkpt lat="42.239287" lon="1.703232">
        <ele>2465.708</ele>
        <time>2018-09-22T12:43:06Z</time>
      </trkpt>
      <trkpt lat="42.239283" lon="1.703219">
        <ele>2465.435</ele>
        <time>2018-09-22T12:43:08Z</time>
      </trkpt>
      <trkpt lat="42.239275" lon="1.703227">
        <ele>2464.861</ele>
        <time>2018-09-22T12:43:11Z</time>
      </trkpt>
      <trkpt lat="42.239270" lon="1.703242">
        <ele>2464.422</ele>
        <time>2018-09-22T12:43:17Z</time>
      </trkpt>
      <trkpt lat="42.239255" lon="1.703260">
        <ele>2463.246</ele>
        <time>2018-09-22T12:43:27Z</time>
      </trkpt>
      <trkpt lat="42.239246" lon="1.703255">
        <ele>2462.592</ele>
        <time>2018-09-22T12:43:36Z</time>
      </trkpt>
      <trkpt lat="42.239230" lon="1.703276">
        <ele>2461.242</ele>
        <time>2018-09-22T12:43:43Z</time>
      </trkpt>
      <trkpt lat="42.239223" lon="1.703283">
        <ele>2460.794</ele>
        <time>2018-09-22T12:43:46Z</time>
      </trkpt>
      <trkpt lat="42.239202" lon="1.703275">
        <ele>2459.216</ele>
        <time>2018-09-22T12:43:50Z</time>
      </trkpt>
      <trkpt lat="42.239189" lon="1.703279">
        <ele>2458.283</ele>
        <time>2018-09-22T12:43:54Z</time>
      </trkpt>
      <trkpt lat="42.239184" lon="1.703275">
        <ele>2457.925</ele>
        <time>2018-09-22T12:43:59Z</time>
      </trkpt>
      <trkpt lat="42.239174" lon="1.703257">
        <ele>2457.317</ele>
        <time>2018-09-22T12:44:04Z</time>
      </trkpt>
      <trkpt lat="42.239152" lon="1.703256">
        <ele>2455.608</ele>
        <time>2018-09-22T12:44:06Z</time>
      </trkpt>
      <trkpt lat="42.239141" lon="1.703250">
        <ele>2454.890</ele>
        <time>2018-09-22T12:44:07Z</time>
      </trkpt>
      <trkpt lat="42.239108" lon="1.703251">
        <ele>2452.126</ele>
        <time>2018-09-22T12:44:10Z</time>
      </trkpt>
      <trkpt lat="42.239081" lon="1.703263">
        <ele>2450.057</ele>
        <time>2018-09-22T12:44:13Z</time>
      </trkpt>
      <trkpt lat="42.239053" lon="1.703246">
        <ele>2447.741</ele>
        <time>2018-09-22T12:44:16Z</time>
      </trkpt>
      <trkpt lat="42.239027" lon="1.703239">
        <ele>2445.527</ele>
        <time>2018-09-22T12:44:19Z</time>
      </trkpt>
      <trkpt lat="42.239016" lon="1.703237">
        <ele>2444.647</ele>
        <time>2018-09-22T12:44:20Z</time>
      </trkpt>
      <trkpt lat="42.238994" lon="1.703225">
        <ele>2442.799</ele>
        <time>2018-09-22T12:44:22Z</time>
      </trkpt>
      <trkpt lat="42.238986" lon="1.703218">
        <ele>2441.921</ele>
        <time>2018-09-22T12:44:24Z</time>
      </trkpt>
      <trkpt lat="42.238983" lon="1.703222">
        <ele>2441.786</ele>
        <time>2018-09-22T12:44:25Z</time>
      </trkpt>
      <trkpt lat="42.238975" lon="1.703245">
        <ele>2441.460</ele>
        <time>2018-09-22T12:44:29Z</time>
      </trkpt>
      <trkpt lat="42.238972" lon="1.703266">
        <ele>2441.526</ele>
        <time>2018-09-22T12:44:35Z</time>
      </trkpt>
      <trkpt lat="42.238949" lon="1.703291">
        <ele>2440.208</ele>
        <time>2018-09-22T12:44:41Z</time>
      </trkpt>
      <trkpt lat="42.238942" lon="1.703292">
        <ele>2439.760</ele>
        <time>2018-09-22T12:44:45Z</time>
      </trkpt>
      <trkpt lat="42.238934" lon="1.703298">
        <ele>2439.336</ele>
        <time>2018-09-22T12:44:53Z</time>
      </trkpt>
      <trkpt lat="42.238926" lon="1.703280">
        <ele>2438.227</ele>
        <time>2018-09-22T12:44:57Z</time>
      </trkpt>
      <trkpt lat="42.238906" lon="1.703292">
        <ele>2437.021</ele>
        <time>2018-09-22T12:45:02Z</time>
      </trkpt>
      <trkpt lat="42.238896" lon="1.703306">
        <ele>2436.637</ele>
        <time>2018-09-22T12:45:06Z</time>
      </trkpt>
      <trkpt lat="42.238896" lon="1.703310">
        <ele>2436.827</ele>
        <time>2018-09-22T12:45:10Z</time>
      </trkpt>
      <trkpt lat="42.238883" lon="1.703328">
        <ele>2436.389</ele>
        <time>2018-09-22T12:45:17Z</time>
      </trkpt>
      <trkpt lat="42.238879" lon="1.703334">
        <ele>2436.181</ele>
        <time>2018-09-22T12:45:21Z</time>
      </trkpt>
      <trkpt lat="42.238851" lon="1.703337">
        <ele>2434.097</ele>
        <time>2018-09-22T12:45:25Z</time>
      </trkpt>
      <trkpt lat="42.238842" lon="1.703351">
        <ele>2433.723</ele>
        <time>2018-09-22T12:45:29Z</time>
      </trkpt>
      <trkpt lat="42.238850" lon="1.703370">
        <ele>2434.925</ele>
        <time>2018-09-22T12:45:32Z</time>
      </trkpt>
      <trkpt lat="42.238845" lon="1.703378">
        <ele>2434.808</ele>
        <time>2018-09-22T12:45:33Z</time>
      </trkpt>
      <trkpt lat="42.238836" lon="1.703380">
        <ele>2434.111</ele>
        <time>2018-09-22T12:45:35Z</time>
      </trkpt>
      <trkpt lat="42.238803" lon="1.703392">
        <ele>2431.847</ele>
        <time>2018-09-22T12:45:44Z</time>
      </trkpt>
      <trkpt lat="42.238775" lon="1.703377">
        <ele>2428.918</ele>
        <time>2018-09-22T12:45:49Z</time>
      </trkpt>
      <trkpt lat="42.238762" lon="1.703378">
        <ele>2428.072</ele>
        <time>2018-09-22T12:45:52Z</time>
      </trkpt>
      <trkpt lat="42.238746" lon="1.703376">
        <ele>2426.688</ele>
        <time>2018-09-22T12:45:55Z</time>
      </trkpt>
      <trkpt lat="42.238726" lon="1.703397">
        <ele>2425.618</ele>
        <time>2018-09-22T12:45:59Z</time>
      </trkpt>
      <trkpt lat="42.238716" lon="1.703397">
        <ele>2424.930</ele>
        <time>2018-09-22T12:46:02Z</time>
      </trkpt>
      <trkpt lat="42.238699" lon="1.703385">
        <ele>2423.112</ele>
        <time>2018-09-22T12:46:07Z</time>
      </trkpt>
      <trkpt lat="42.238662" lon="1.703383">
        <ele>2419.917</ele>
        <time>2018-09-22T12:46:12Z</time>
      </trkpt>
      <trkpt lat="42.238634" lon="1.703363">
        <ele>2416.987</ele>
        <time>2018-09-22T12:46:18Z</time>
      </trkpt>
      <trkpt lat="42.238627" lon="1.703366">
        <ele>2416.415</ele>
        <time>2018-09-22T12:46:23Z</time>
      </trkpt>
      <trkpt lat="42.238609" lon="1.703394">
        <ele>2415.908</ele>
        <time>2018-09-22T12:46:30Z</time>
      </trkpt>
      <trkpt lat="42.238589" lon="1.703405">
        <ele>2414.823</ele>
        <time>2018-09-22T12:46:36Z</time>
      </trkpt>
      <trkpt lat="42.238593" lon="1.703415">
        <ele>2415.319</ele>
        <time>2018-09-22T12:46:41Z</time>
      </trkpt>
      <trkpt lat="42.238581" lon="1.703430">
        <ele>2415.040</ele>
        <time>2018-09-22T12:46:46Z</time>
      </trkpt>
      <trkpt lat="42.238550" lon="1.703477">
        <ele>2414.154</ele>
        <time>2018-09-22T12:46:58Z</time>
      </trkpt>
      <trkpt lat="42.238531" lon="1.703507">
        <ele>2413.630</ele>
        <time>2018-09-22T12:47:03Z</time>
      </trkpt>
      <trkpt lat="42.238526" lon="1.703519">
        <ele>2413.630</ele>
        <time>2018-09-22T12:47:06Z</time>
      </trkpt>
      <trkpt lat="42.238517" lon="1.703548">
        <ele>2413.942</ele>
        <time>2018-09-22T12:47:11Z</time>
      </trkpt>
      <trkpt lat="42.238493" lon="1.703566">
        <ele>2412.694</ele>
        <time>2018-09-22T12:47:18Z</time>
      </trkpt>
      <trkpt lat="42.238477" lon="1.703556">
        <ele>2410.896</ele>
        <time>2018-09-22T12:47:22Z</time>
      </trkpt>
      <trkpt lat="42.238426" lon="1.703553">
        <ele>2406.531</ele>
        <time>2018-09-22T12:47:30Z</time>
      </trkpt>
      <trkpt lat="42.238396" lon="1.703553">
        <ele>2404.124</ele>
        <time>2018-09-22T12:47:34Z</time>
      </trkpt>
      <trkpt lat="42.238374" lon="1.703547">
        <ele>2402.008</ele>
        <time>2018-09-22T12:47:38Z</time>
      </trkpt>
      <trkpt lat="42.238344" lon="1.703547">
        <ele>2399.541</ele>
        <time>2018-09-22T12:47:45Z</time>
      </trkpt>
      <trkpt lat="42.238332" lon="1.703533">
        <ele>2398.137</ele>
        <time>2018-09-22T12:47:48Z</time>
      </trkpt>
      <trkpt lat="42.238332" lon="1.703528">
        <ele>2397.828</ele>
        <time>2018-09-22T12:47:49Z</time>
      </trkpt>
      <trkpt lat="42.238328" lon="1.703520">
        <ele>2397.342</ele>
        <time>2018-09-22T12:47:51Z</time>
      </trkpt>
      <trkpt lat="42.238307" lon="1.703551">
        <ele>2397.278</ele>
        <time>2018-09-22T12:47:57Z</time>
      </trkpt>
      <trkpt lat="42.238306" lon="1.703557">
        <ele>2397.348</ele>
        <time>2018-09-22T12:47:58Z</time>
      </trkpt>
      <trkpt lat="42.238307" lon="1.703586">
        <ele>2398.440</ele>
        <time>2018-09-22T12:48:01Z</time>
      </trkpt>
      <trkpt lat="42.238260" lon="1.703649">
        <ele>2397.682</ele>
        <time>2018-09-22T12:48:07Z</time>
      </trkpt>
      <trkpt lat="42.238219" lon="1.703663">
        <ele>2395.225</ele>
        <time>2018-09-22T12:48:10Z</time>
      </trkpt>
      <trkpt lat="42.238208" lon="1.703664">
        <ele>2394.526</ele>
        <time>2018-09-22T12:48:11Z</time>
      </trkpt>
      <trkpt lat="42.238146" lon="1.703697">
        <ele>2391.108</ele>
        <time>2018-09-22T12:48:15Z</time>
      </trkpt>
      <trkpt lat="42.238120" lon="1.703723">
        <ele>2389.808</ele>
        <time>2018-09-22T12:48:17Z</time>
      </trkpt>
      <trkpt lat="42.238091" lon="1.703771">
        <ele>2388.714</ele>
        <time>2018-09-22T12:48:19Z</time>
      </trkpt>
      <trkpt lat="42.238035" lon="1.703815">
        <ele>2385.610</ele>
        <time>2018-09-22T12:48:22Z</time>
      </trkpt>
      <trkpt lat="42.237985" lon="1.703844">
        <ele>2383.691</ele>
        <time>2018-09-22T12:48:25Z</time>
      </trkpt>
      <trkpt lat="42.237957" lon="1.703860">
        <ele>2382.525</ele>
        <time>2018-09-22T12:48:27Z</time>
      </trkpt>
      <trkpt lat="42.237927" lon="1.703871">
        <ele>2381.211</ele>
        <time>2018-09-22T12:48:29Z</time>
      </trkpt>
      <trkpt lat="42.237910" lon="1.703876">
        <ele>2380.441</ele>
        <time>2018-09-22T12:48:30Z</time>
      </trkpt>
      <trkpt lat="42.237896" lon="1.703888">
        <ele>2379.973</ele>
        <time>2018-09-22T12:48:31Z</time>
      </trkpt>
      <trkpt lat="42.237875" lon="1.703919">
        <ele>2379.185</ele>
        <time>2018-09-22T12:48:33Z</time>
      </trkpt>
      <trkpt lat="42.237855" lon="1.703941">
        <ele>2378.242</ele>
        <time>2018-09-22T12:48:35Z</time>
      </trkpt>
      <trkpt lat="42.237825" lon="1.703936">
        <ele>2376.622</ele>
        <time>2018-09-22T12:48:38Z</time>
      </trkpt>
      <trkpt lat="42.237783" lon="1.703958">
        <ele>2374.514</ele>
        <time>2018-09-22T12:48:42Z</time>
      </trkpt>
      <trkpt lat="42.237763" lon="1.703981">
        <ele>2373.708</ele>
        <time>2018-09-22T12:48:44Z</time>
      </trkpt>
      <trkpt lat="42.237756" lon="1.703998">
        <ele>2373.576</ele>
        <time>2018-09-22T12:48:45Z</time>
      </trkpt>
      <trkpt lat="42.237748" lon="1.704009">
        <ele>2373.282</ele>
        <time>2018-09-22T12:48:46Z</time>
      </trkpt>
      <trkpt lat="42.237736" lon="1.704015">
        <ele>2372.893</ele>
        <time>2018-09-22T12:48:47Z</time>
      </trkpt>
      <trkpt lat="42.237719" lon="1.704031">
        <ele>2372.197</ele>
        <time>2018-09-22T12:48:49Z</time>
      </trkpt>
      <trkpt lat="42.237713" lon="1.704038">
        <ele>2371.923</ele>
        <time>2018-09-22T12:48:50Z</time>
      </trkpt>
      <trkpt lat="42.237686" lon="1.704064">
        <ele>2371.073</ele>
        <time>2018-09-22T12:48:53Z</time>
      </trkpt>
      <trkpt lat="42.237677" lon="1.704065">
        <ele>2370.655</ele>
        <time>2018-09-22T12:48:54Z</time>
      </trkpt>
      <trkpt lat="42.237666" lon="1.704077">
        <ele>2370.237</ele>
        <time>2018-09-22T12:48:56Z</time>
      </trkpt>
      <trkpt lat="42.237657" lon="1.704097">
        <ele>2369.942</ele>
        <time>2018-09-22T12:48:59Z</time>
      </trkpt>
      <trkpt lat="42.237632" lon="1.704119">
        <ele>2369.022</ele>
        <time>2018-09-22T12:49:03Z</time>
      </trkpt>
      <trkpt lat="42.237616" lon="1.704127">
        <ele>2368.414</ele>
        <time>2018-09-22T12:49:05Z</time>
      </trkpt>
      <trkpt lat="42.237592" lon="1.704138">
        <ele>2367.508</ele>
        <time>2018-09-22T12:49:07Z</time>
      </trkpt>
      <trkpt lat="42.237582" lon="1.704138">
        <ele>2367.196</ele>
        <time>2018-09-22T12:49:08Z</time>
      </trkpt>
      <trkpt lat="42.237535" lon="1.704161">
        <ele>2365.342</ele>
        <time>2018-09-22T12:49:12Z</time>
      </trkpt>
      <trkpt lat="42.237511" lon="1.704199">
        <ele>2364.093</ele>
        <time>2018-09-22T12:49:15Z</time>
      </trkpt>
      <trkpt lat="42.237486" lon="1.704269">
        <ele>2362.487</ele>
        <time>2018-09-22T12:49:20Z</time>
      </trkpt>
      <trkpt lat="42.237477" lon="1.704363">
        <ele>2361.013</ele>
        <time>2018-09-22T12:49:25Z</time>
      </trkpt>
      <trkpt lat="42.237474" lon="1.704397">
        <ele>2360.593</ele>
        <time>2018-09-22T12:49:27Z</time>
      </trkpt>
      <trkpt lat="42.237467" lon="1.704414">
        <ele>2360.015</ele>
        <time>2018-09-22T12:49:28Z</time>
      </trkpt>
      <trkpt lat="42.237445" lon="1.704465">
        <ele>2358.177</ele>
        <time>2018-09-22T12:49:31Z</time>
      </trkpt>
      <trkpt lat="42.237440" lon="1.704479">
        <ele>2357.513</ele>
        <time>2018-09-22T12:49:32Z</time>
      </trkpt>
      <trkpt lat="42.237446" lon="1.704512">
        <ele>2356.643</ele>
        <time>2018-09-22T12:49:34Z</time>
      </trkpt>
      <trkpt lat="42.237453" lon="1.704561">
        <ele>2355.407</ele>
        <time>2018-09-22T12:49:37Z</time>
      </trkpt>
      <trkpt lat="42.237475" lon="1.704616">
        <ele>2354.508</ele>
        <time>2018-09-22T12:49:41Z</time>
      </trkpt>
      <trkpt lat="42.237480" lon="1.704642">
        <ele>2353.893</ele>
        <time>2018-09-22T12:49:43Z</time>
      </trkpt>
      <trkpt lat="42.237484" lon="1.704655">
        <ele>2353.699</ele>
        <time>2018-09-22T12:49:44Z</time>
      </trkpt>
      <trkpt lat="42.237469" lon="1.704663">
        <ele>2352.740</ele>
        <time>2018-09-22T12:49:46Z</time>
      </trkpt>
      <trkpt lat="42.237460" lon="1.704665">
        <ele>2352.454</ele>
        <time>2018-09-22T12:49:47Z</time>
      </trkpt>
      <trkpt lat="42.237449" lon="1.704672">
        <ele>2351.750</ele>
        <time>2018-09-22T12:49:49Z</time>
      </trkpt>
      <trkpt lat="42.237450" lon="1.704693">
        <ele>2351.130</ele>
        <time>2018-09-22T12:49:51Z</time>
      </trkpt>
      <trkpt lat="42.237459" lon="1.704712">
        <ele>2350.882</ele>
        <time>2018-09-22T12:49:53Z</time>
      </trkpt>
      <trkpt lat="42.237460" lon="1.704752">
        <ele>2349.574</ele>
        <time>2018-09-22T12:49:56Z</time>
      </trkpt>
      <trkpt lat="42.237463" lon="1.704771">
        <ele>2349.016</ele>
        <time>2018-09-22T12:49:57Z</time>
      </trkpt>
      <trkpt lat="42.237477" lon="1.704834">
        <ele>2347.576</ele>
        <time>2018-09-22T12:50:00Z</time>
      </trkpt>
      <trkpt lat="42.237489" lon="1.704875">
        <ele>2346.613</ele>
        <time>2018-09-22T12:50:02Z</time>
      </trkpt>
      <trkpt lat="42.237500" lon="1.704957">
        <ele>2344.308</ele>
        <time>2018-09-22T12:50:06Z</time>
      </trkpt>
      <trkpt lat="42.237506" lon="1.704994">
        <ele>2343.433</ele>
        <time>2018-09-22T12:50:08Z</time>
      </trkpt>
      <trkpt lat="42.237508" lon="1.705013">
        <ele>2343.159</ele>
        <time>2018-09-22T12:50:09Z</time>
      </trkpt>
      <trkpt lat="42.237503" lon="1.705047">
        <ele>2342.170</ele>
        <time>2018-09-22T12:50:11Z</time>
      </trkpt>
      <trkpt lat="42.237515" lon="1.705071">
        <ele>2342.254</ele>
        <time>2018-09-22T12:50:13Z</time>
      </trkpt>
      <trkpt lat="42.237544" lon="1.705114">
        <ele>2342.830</ele>
        <time>2018-09-22T12:50:16Z</time>
      </trkpt>
      <trkpt lat="42.237547" lon="1.705136">
        <ele>2342.580</ele>
        <time>2018-09-22T12:50:17Z</time>
      </trkpt>
      <trkpt lat="42.237534" lon="1.705164">
        <ele>2341.322</ele>
        <time>2018-09-22T12:50:19Z</time>
      </trkpt>
      <trkpt lat="42.237519" lon="1.705186">
        <ele>2340.034</ele>
        <time>2018-09-22T12:50:21Z</time>
      </trkpt>
      <trkpt lat="42.237510" lon="1.705196">
        <ele>2339.376</ele>
        <time>2018-09-22T12:50:22Z</time>
      </trkpt>
      <trkpt lat="42.237497" lon="1.705218">
        <ele>2338.190</ele>
        <time>2018-09-22T12:50:24Z</time>
      </trkpt>
      <trkpt lat="42.237485" lon="1.705259">
        <ele>2336.619</ele>
        <time>2018-09-22T12:50:27Z</time>
      </trkpt>
      <trkpt lat="42.237474" lon="1.705278">
        <ele>2335.708</ele>
        <time>2018-09-22T12:50:29Z</time>
      </trkpt>
      <trkpt lat="42.237462" lon="1.705311">
        <ele>2334.499</ele>
        <time>2018-09-22T12:50:32Z</time>
      </trkpt>
      <trkpt lat="42.237461" lon="1.705326">
        <ele>2334.185</ele>
        <time>2018-09-22T12:50:33Z</time>
      </trkpt>
      <trkpt lat="42.237445" lon="1.705355">
        <ele>2332.726</ele>
        <time>2018-09-22T12:50:35Z</time>
      </trkpt>
      <trkpt lat="42.237437" lon="1.705356">
        <ele>2332.380</ele>
        <time>2018-09-22T12:50:36Z</time>
      </trkpt>
      <trkpt lat="42.237425" lon="1.705353">
        <ele>2331.816</ele>
        <time>2018-09-22T12:50:38Z</time>
      </trkpt>
      <trkpt lat="42.237425" lon="1.705361">
        <ele>2331.696</ele>
        <time>2018-09-22T12:50:39Z</time>
      </trkpt>
      <trkpt lat="42.237423" lon="1.705385">
        <ele>2331.198</ele>
        <time>2018-09-22T12:50:41Z</time>
      </trkpt>
      <trkpt lat="42.237415" lon="1.705396">
        <ele>2330.470</ele>
        <time>2018-09-22T12:50:42Z</time>
      </trkpt>
      <trkpt lat="42.237403" lon="1.705415">
        <ele>2329.423</ele>
        <time>2018-09-22T12:50:44Z</time>
      </trkpt>
      <trkpt lat="42.237394" lon="1.705430">
        <ele>2328.683</ele>
        <time>2018-09-22T12:50:45Z</time>
      </trkpt>
      <trkpt lat="42.237384" lon="1.705441">
        <ele>2327.911</ele>
        <time>2018-09-22T12:50:46Z</time>
      </trkpt>
      <trkpt lat="42.237383" lon="1.705454">
        <ele>2327.608</ele>
        <time>2018-09-22T12:50:48Z</time>
      </trkpt>
      <trkpt lat="42.237363" lon="1.705495">
        <ele>2325.714</ele>
        <time>2018-09-22T12:50:51Z</time>
      </trkpt>
      <trkpt lat="42.237352" lon="1.705505">
        <ele>2325.040</ele>
        <time>2018-09-22T12:50:52Z</time>
      </trkpt>
      <trkpt lat="42.237340" lon="1.705511">
        <ele>2324.221</ele>
        <time>2018-09-22T12:50:54Z</time>
      </trkpt>
      <trkpt lat="42.237335" lon="1.705518">
        <ele>2323.865</ele>
        <time>2018-09-22T12:50:55Z</time>
      </trkpt>
      <trkpt lat="42.237318" lon="1.705574">
        <ele>2321.791</ele>
        <time>2018-09-22T12:50:58Z</time>
      </trkpt>
      <trkpt lat="42.237313" lon="1.705591">
        <ele>2321.181</ele>
        <time>2018-09-22T12:50:59Z</time>
      </trkpt>
      <trkpt lat="42.237311" lon="1.705608">
        <ele>2320.663</ele>
        <time>2018-09-22T12:51:00Z</time>
      </trkpt>
      <trkpt lat="42.237312" lon="1.705626">
        <ele>2320.295</ele>
        <time>2018-09-22T12:51:01Z</time>
      </trkpt>
      <trkpt lat="42.237307" lon="1.705642">
        <ele>2319.636</ele>
        <time>2018-09-22T12:51:02Z</time>
      </trkpt>
      <trkpt lat="42.237301" lon="1.705651">
        <ele>2319.117</ele>
        <time>2018-09-22T12:51:03Z</time>
      </trkpt>
      <trkpt lat="42.237280" lon="1.705652">
        <ele>2317.918</ele>
        <time>2018-09-22T12:51:05Z</time>
      </trkpt>
      <trkpt lat="42.237272" lon="1.705675">
        <ele>2317.008</ele>
        <time>2018-09-22T12:51:07Z</time>
      </trkpt>
      <trkpt lat="42.237268" lon="1.705687">
        <ele>2316.545</ele>
        <time>2018-09-22T12:51:08Z</time>
      </trkpt>
      <trkpt lat="42.237240" lon="1.705707">
        <ele>2314.651</ele>
        <time>2018-09-22T12:51:11Z</time>
      </trkpt>
      <trkpt lat="42.237199" lon="1.705707">
        <ele>2313.012</ele>
        <time>2018-09-22T12:51:14Z</time>
      </trkpt>
      <trkpt lat="42.237178" lon="1.705717">
        <ele>2312.246</ele>
        <time>2018-09-22T12:51:16Z</time>
      </trkpt>
      <trkpt lat="42.237169" lon="1.705720">
        <ele>2311.822</ele>
        <time>2018-09-22T12:51:17Z</time>
      </trkpt>
      <trkpt lat="42.237156" lon="1.705741">
        <ele>2311.032</ele>
        <time>2018-09-22T12:51:19Z</time>
      </trkpt>
      <trkpt lat="42.237149" lon="1.705750">
        <ele>2310.554</ele>
        <time>2018-09-22T12:51:20Z</time>
      </trkpt>
      <trkpt lat="42.237128" lon="1.705753">
        <ele>2309.886</ele>
        <time>2018-09-22T12:51:22Z</time>
      </trkpt>
      <trkpt lat="42.237116" lon="1.705755">
        <ele>2309.452</ele>
        <time>2018-09-22T12:51:23Z</time>
      </trkpt>
      <trkpt lat="42.237099" lon="1.705758">
        <ele>2308.853</ele>
        <time>2018-09-22T12:51:24Z</time>
      </trkpt>
      <trkpt lat="42.237058" lon="1.705764">
        <ele>2307.408</ele>
        <time>2018-09-22T12:51:26Z</time>
      </trkpt>
      <trkpt lat="42.237022" lon="1.705783">
        <ele>2305.808</ele>
        <time>2018-09-22T12:51:28Z</time>
      </trkpt>
      <trkpt lat="42.236995" lon="1.705817">
        <ele>2304.077</ele>
        <time>2018-09-22T12:51:30Z</time>
      </trkpt>
      <trkpt lat="42.236975" lon="1.705862">
        <ele>2302.183</ele>
        <time>2018-09-22T12:51:32Z</time>
      </trkpt>
      <trkpt lat="42.236967" lon="1.705889">
        <ele>2301.054</ele>
        <time>2018-09-22T12:51:33Z</time>
      </trkpt>
      <trkpt lat="42.236924" lon="1.705961">
        <ele>2298.688</ele>
        <time>2018-09-22T12:51:36Z</time>
      </trkpt>
      <trkpt lat="42.236899" lon="1.706001">
        <ele>2297.934</ele>
        <time>2018-09-22T12:51:38Z</time>
      </trkpt>
      <trkpt lat="42.236893" lon="1.706023">
        <ele>2297.464</ele>
        <time>2018-09-22T12:51:39Z</time>
      </trkpt>
      <trkpt lat="42.236883" lon="1.706073">
        <ele>2296.196</ele>
        <time>2018-09-22T12:51:41Z</time>
      </trkpt>
      <trkpt lat="42.236894" lon="1.706143">
        <ele>2293.898</ele>
        <time>2018-09-22T12:51:44Z</time>
      </trkpt>
      <trkpt lat="42.236920" lon="1.706181">
        <ele>2292.248</ele>
        <time>2018-09-22T12:51:46Z</time>
      </trkpt>
      <trkpt lat="42.236945" lon="1.706212">
        <ele>2290.761</ele>
        <time>2018-09-22T12:51:48Z</time>
      </trkpt>
      <trkpt lat="42.236975" lon="1.706266">
        <ele>2289.817</ele>
        <time>2018-09-22T12:51:51Z</time>
      </trkpt>
      <trkpt lat="42.236978" lon="1.706287">
        <ele>2289.108</ele>
        <time>2018-09-22T12:51:52Z</time>
      </trkpt>
      <trkpt lat="42.236972" lon="1.706307">
        <ele>2288.366</ele>
        <time>2018-09-22T12:51:53Z</time>
      </trkpt>
      <trkpt lat="42.236967" lon="1.706344">
        <ele>2287.062</ele>
        <time>2018-09-22T12:51:55Z</time>
      </trkpt>
      <trkpt lat="42.236966" lon="1.706366">
        <ele>2286.213</ele>
        <time>2018-09-22T12:51:57Z</time>
      </trkpt>
      <trkpt lat="42.236965" lon="1.706372">
        <ele>2286.097</ele>
        <time>2018-09-22T12:51:58Z</time>
      </trkpt>
      <trkpt lat="42.236961" lon="1.706377">
        <ele>2285.823</ele>
        <time>2018-09-22T12:52:00Z</time>
      </trkpt>
      <trkpt lat="42.236943" lon="1.706411">
        <ele>2284.133</ele>
        <time>2018-09-22T12:52:05Z</time>
      </trkpt>
      <trkpt lat="42.236931" lon="1.706432">
        <ele>2283.565</ele>
        <time>2018-09-22T12:52:08Z</time>
      </trkpt>
      <trkpt lat="42.236919" lon="1.706455">
        <ele>2282.997</ele>
        <time>2018-09-22T12:52:10Z</time>
      </trkpt>
      <trkpt lat="42.236911" lon="1.706462">
        <ele>2282.829</ele>
        <time>2018-09-22T12:52:11Z</time>
      </trkpt>
      <trkpt lat="42.236891" lon="1.706525">
        <ele>2280.900</ele>
        <time>2018-09-22T12:52:15Z</time>
      </trkpt>
      <trkpt lat="42.236881" lon="1.706565">
        <ele>2279.620</ele>
        <time>2018-09-22T12:52:17Z</time>
      </trkpt>
      <trkpt lat="42.236860" lon="1.706636">
        <ele>2277.508</ele>
        <time>2018-09-22T12:52:20Z</time>
      </trkpt>
      <trkpt lat="42.236847" lon="1.706667">
        <ele>2276.714</ele>
        <time>2018-09-22T12:52:22Z</time>
      </trkpt>
      <trkpt lat="42.236831" lon="1.706726">
        <ele>2275.110</ele>
        <time>2018-09-22T12:52:25Z</time>
      </trkpt>
      <trkpt lat="42.236802" lon="1.706801">
        <ele>2273.241</ele>
        <time>2018-09-22T12:52:28Z</time>
      </trkpt>
      <trkpt lat="42.236797" lon="1.706825">
        <ele>2272.595</ele>
        <time>2018-09-22T12:52:29Z</time>
      </trkpt>
      <trkpt lat="42.236786" lon="1.706873">
        <ele>2271.141</ele>
        <time>2018-09-22T12:52:31Z</time>
      </trkpt>
      <trkpt lat="42.236754" lon="1.706950">
        <ele>2269.271</ele>
        <time>2018-09-22T12:52:34Z</time>
      </trkpt>
      <trkpt lat="42.236706" lon="1.707025">
        <ele>2267.033</ele>
        <time>2018-09-22T12:52:37Z</time>
      </trkpt>
      <trkpt lat="42.236674" lon="1.707094">
        <ele>2264.755</ele>
        <time>2018-09-22T12:52:40Z</time>
      </trkpt>
      <trkpt lat="42.236649" lon="1.707151">
        <ele>2262.874</ele>
        <time>2018-09-22T12:52:43Z</time>
      </trkpt>
      <trkpt lat="42.236617" lon="1.707188">
        <ele>2262.056</ele>
        <time>2018-09-22T12:52:46Z</time>
      </trkpt>
      <trkpt lat="42.236611" lon="1.707199">
        <ele>2261.721</ele>
        <time>2018-09-22T12:52:47Z</time>
      </trkpt>
      <trkpt lat="42.236593" lon="1.707232">
        <ele>2260.608</ele>
        <time>2018-09-22T12:52:49Z</time>
      </trkpt>
      <trkpt lat="42.236568" lon="1.707262">
        <ele>2259.919</ele>
        <time>2018-09-22T12:52:51Z</time>
      </trkpt>
      <trkpt lat="42.236538" lon="1.707301">
        <ele>2258.965</ele>
        <time>2018-09-22T12:52:54Z</time>
      </trkpt>
      <trkpt lat="42.236528" lon="1.707334">
        <ele>2257.516</ele>
        <time>2018-09-22T12:52:56Z</time>
      </trkpt>
      <trkpt lat="42.236522" lon="1.707341">
        <ele>2257.370</ele>
        <time>2018-09-22T12:52:57Z</time>
      </trkpt>
      <trkpt lat="42.236511" lon="1.707365">
        <ele>2256.576</ele>
        <time>2018-09-22T12:52:59Z</time>
      </trkpt>
      <trkpt lat="42.236503" lon="1.707388">
        <ele>2255.616</ele>
        <time>2018-09-22T12:53:01Z</time>
      </trkpt>
      <trkpt lat="42.236493" lon="1.707432">
        <ele>2253.798</ele>
        <time>2018-09-22T12:53:04Z</time>
      </trkpt>
      <trkpt lat="42.236483" lon="1.707461">
        <ele>2252.510</ele>
        <time>2018-09-22T12:53:06Z</time>
      </trkpt>
      <trkpt lat="42.236470" lon="1.707491">
        <ele>2251.466</ele>
        <time>2018-09-22T12:53:08Z</time>
      </trkpt>
      <trkpt lat="42.236455" lon="1.707506">
        <ele>2251.029</ele>
        <time>2018-09-22T12:53:10Z</time>
      </trkpt>
      <trkpt lat="42.236459" lon="1.707529">
        <ele>2249.721</ele>
        <time>2018-09-22T12:53:14Z</time>
      </trkpt>
      <trkpt lat="42.236457" lon="1.707540">
        <ele>2249.308</ele>
        <time>2018-09-22T12:53:17Z</time>
      </trkpt>
      <trkpt lat="42.236459" lon="1.707537">
        <ele>2249.498</ele>
        <time>2018-09-22T12:53:21Z</time>
      </trkpt>
      <trkpt lat="42.236473" lon="1.707566">
        <ele>2247.694</ele>
        <time>2018-09-22T12:53:31Z</time>
      </trkpt>
      <trkpt lat="42.236505" lon="1.707571">
        <ele>2246.535</ele>
        <time>2018-09-22T12:53:35Z</time>
      </trkpt>
      <trkpt lat="42.236509" lon="1.707570">
        <ele>2246.579</ele>
        <time>2018-09-22T12:53:36Z</time>
      </trkpt>
      <trkpt lat="42.236544" lon="1.707596">
        <ele>2244.495</ele>
        <time>2018-09-22T12:53:41Z</time>
      </trkpt>
      <trkpt lat="42.236534" lon="1.707613">
        <ele>2243.885</ele>
        <time>2018-09-22T12:53:42Z</time>
      </trkpt>
      <trkpt lat="42.236506" lon="1.707647">
        <ele>2242.847</ele>
        <time>2018-09-22T12:53:44Z</time>
      </trkpt>
      <trkpt lat="42.236489" lon="1.707675">
        <ele>2241.849</ele>
        <time>2018-09-22T12:53:47Z</time>
      </trkpt>
      <trkpt lat="42.236514" lon="1.707695">
        <ele>2240.329</ele>
        <time>2018-09-22T12:53:52Z</time>
      </trkpt>
      <trkpt lat="42.236520" lon="1.707700">
        <ele>2239.900</ele>
        <time>2018-09-22T12:53:53Z</time>
      </trkpt>
      <trkpt lat="42.236528" lon="1.707715">
        <ele>2239.020</ele>
        <time>2018-09-22T12:53:55Z</time>
      </trkpt>
      <trkpt lat="42.236529" lon="1.707722">
        <ele>2238.608</ele>
        <time>2018-09-22T12:53:57Z</time>
      </trkpt>
      <trkpt lat="42.236532" lon="1.707740">
        <ele>2237.754</ele>
        <time>2018-09-22T12:54:00Z</time>
      </trkpt>
      <trkpt lat="42.236511" lon="1.707785">
        <ele>2236.090</ele>
        <time>2018-09-22T12:54:04Z</time>
      </trkpt>
      <trkpt lat="42.236497" lon="1.707822">
        <ele>2234.491</ele>
        <time>2018-09-22T12:54:07Z</time>
      </trkpt>
      <trkpt lat="42.236489" lon="1.707829">
        <ele>2234.285</ele>
        <time>2018-09-22T12:54:08Z</time>
      </trkpt>
      <trkpt lat="42.236481" lon="1.707842">
        <ele>2233.771</ele>
        <time>2018-09-22T12:54:10Z</time>
      </trkpt>
      <trkpt lat="42.236475" lon="1.707845">
        <ele>2233.751</ele>
        <time>2018-09-22T12:54:11Z</time>
      </trkpt>
      <trkpt lat="42.236427" lon="1.707871">
        <ele>2233.413</ele>
        <time>2018-09-22T12:54:16Z</time>
      </trkpt>
      <trkpt lat="42.236415" lon="1.707878">
        <ele>2233.325</ele>
        <time>2018-09-22T12:54:19Z</time>
      </trkpt>
      <trkpt lat="42.236397" lon="1.707925">
        <ele>2231.343</ele>
        <time>2018-09-22T12:54:24Z</time>
      </trkpt>
      <trkpt lat="42.236391" lon="1.707932">
        <ele>2231.164</ele>
        <time>2018-09-22T12:54:25Z</time>
      </trkpt>
      <trkpt lat="42.236387" lon="1.707940">
        <ele>2231.010</ele>
        <time>2018-09-22T12:54:26Z</time>
      </trkpt>
      <trkpt lat="42.236382" lon="1.707957">
        <ele>2230.808</ele>
        <time>2018-09-22T12:54:28Z</time>
      </trkpt>
      <trkpt lat="42.236374" lon="1.707979">
        <ele>2230.616</ele>
        <time>2018-09-22T12:54:32Z</time>
      </trkpt>
      <trkpt lat="42.236362" lon="1.707992">
        <ele>2231.182</ele>
        <time>2018-09-22T12:54:35Z</time>
      </trkpt>
      <trkpt lat="42.236338" lon="1.708018">
        <ele>2231.523</ele>
        <time>2018-09-22T12:54:38Z</time>
      </trkpt>
      <trkpt lat="42.236328" lon="1.708026">
        <ele>2231.887</ele>
        <time>2018-09-22T12:54:41Z</time>
      </trkpt>
      <trkpt lat="42.236351" lon="1.708057">
        <ele>2227.653</ele>
        <time>2018-09-22T12:54:44Z</time>
      </trkpt>
      <trkpt lat="42.236408" lon="1.708090">
        <ele>2222.613</ele>
        <time>2018-09-22T12:54:47Z</time>
      </trkpt>
      <trkpt lat="42.236426" lon="1.708109">
        <ele>2221.145</ele>
        <time>2018-09-22T12:54:50Z</time>
      </trkpt>
      <trkpt lat="42.236437" lon="1.708127">
        <ele>2219.927</ele>
        <time>2018-09-22T12:54:52Z</time>
      </trkpt>
      <trkpt lat="42.236422" lon="1.708150">
        <ele>2218.873</ele>
        <time>2018-09-22T12:54:54Z</time>
      </trkpt>
      <trkpt lat="42.236348" lon="1.708177">
        <ele>2220.585</ele>
        <time>2018-09-22T12:54:57Z</time>
      </trkpt>
      <trkpt lat="42.236300" lon="1.708176">
        <ele>2223.613</ele>
        <time>2018-09-22T12:54:59Z</time>
      </trkpt>
      <trkpt lat="42.236283" lon="1.708179">
        <ele>2224.408</ele>
        <time>2018-09-22T12:55:00Z</time>
      </trkpt>
      <trkpt lat="42.236278" lon="1.708208">
        <ele>2222.939</ele>
        <time>2018-09-22T12:55:02Z</time>
      </trkpt>
      <trkpt lat="42.236276" lon="1.708219">
        <ele>2222.375</ele>
        <time>2018-09-22T12:55:04Z</time>
      </trkpt>
      <trkpt lat="42.236282" lon="1.708231">
        <ele>2221.196</ele>
        <time>2018-09-22T12:55:06Z</time>
      </trkpt>
      <trkpt lat="42.236314" lon="1.708197">
        <ele>2221.370</ele>
        <time>2018-09-22T12:55:10Z</time>
      </trkpt>
      <trkpt lat="42.236354" lon="1.708216">
        <ele>2217.846</ele>
        <time>2018-09-22T12:55:14Z</time>
      </trkpt>
      <trkpt lat="42.236361" lon="1.708228">
        <ele>2216.636</ele>
        <time>2018-09-22T12:55:15Z</time>
      </trkpt>
      <trkpt lat="42.236384" lon="1.708265">
        <ele>2213.288</ele>
        <time>2018-09-22T12:55:17Z</time>
      </trkpt>
      <trkpt lat="42.236407" lon="1.708284">
        <ele>2211.410</ele>
        <time>2018-09-22T12:55:19Z</time>
      </trkpt>
      <trkpt lat="42.236418" lon="1.708291">
        <ele>2210.954</ele>
        <time>2018-09-22T12:55:21Z</time>
      </trkpt>
      <trkpt lat="42.236404" lon="1.708337">
        <ele>2208.556</ele>
        <time>2018-09-22T12:55:27Z</time>
      </trkpt>
      <trkpt lat="42.236391" lon="1.708365">
        <ele>2207.111</ele>
        <time>2018-09-22T12:55:29Z</time>
      </trkpt>
      <trkpt lat="42.236371" lon="1.708384">
        <ele>2207.008</ele>
        <time>2018-09-22T12:55:31Z</time>
      </trkpt>
      <trkpt lat="42.236353" lon="1.708395">
        <ele>2207.287</ele>
        <time>2018-09-22T12:55:34Z</time>
      </trkpt>
      <trkpt lat="42.236359" lon="1.708398">
        <ele>2206.873</ele>
        <time>2018-09-22T12:55:36Z</time>
      </trkpt>
      <trkpt lat="42.236384" lon="1.708413">
        <ele>2204.744</ele>
        <time>2018-09-22T12:55:39Z</time>
      </trkpt>
      <trkpt lat="42.236395" lon="1.708417">
        <ele>2204.138</ele>
        <time>2018-09-22T12:55:40Z</time>
      </trkpt>
      <trkpt lat="42.236385" lon="1.708435">
        <ele>2203.354</ele>
        <time>2018-09-22T12:55:44Z</time>
      </trkpt>
      <trkpt lat="42.236369" lon="1.708462">
        <ele>2202.684</ele>
        <time>2018-09-22T12:55:48Z</time>
      </trkpt>
      <trkpt lat="42.236347" lon="1.708489">
        <ele>2202.286</ele>
        <time>2018-09-22T12:55:52Z</time>
      </trkpt>
      <trkpt lat="42.236373" lon="1.708510">
        <ele>2199.788</ele>
        <time>2018-09-22T12:55:55Z</time>
      </trkpt>
      <trkpt lat="42.236390" lon="1.708516">
        <ele>2198.439</ele>
        <time>2018-09-22T12:55:56Z</time>
      </trkpt>
      <trkpt lat="42.236424" lon="1.708526">
        <ele>2197.301</ele>
        <time>2018-09-22T12:55:58Z</time>
      </trkpt>
      <trkpt lat="42.236452" lon="1.708539">
        <ele>2196.121</ele>
        <time>2018-09-22T12:56:00Z</time>
      </trkpt>
      <trkpt lat="42.236463" lon="1.708554">
        <ele>2195.108</ele>
        <time>2018-09-22T12:56:03Z</time>
      </trkpt>
      <trkpt lat="42.236466" lon="1.708559">
        <ele>2194.895</ele>
        <time>2018-09-22T12:56:04Z</time>
      </trkpt>
      <trkpt lat="42.236480" lon="1.708571">
        <ele>2193.981</ele>
        <time>2018-09-22T12:56:06Z</time>
      </trkpt>
      <trkpt lat="42.236474" lon="1.708592">
        <ele>2192.892</ele>
        <time>2018-09-22T12:56:08Z</time>
      </trkpt>
      <trkpt lat="42.236466" lon="1.708604">
        <ele>2192.226</ele>
        <time>2018-09-22T12:56:09Z</time>
      </trkpt>
      <trkpt lat="42.236448" lon="1.708630">
        <ele>2191.132</ele>
        <time>2018-09-22T12:56:11Z</time>
      </trkpt>
      <trkpt lat="42.236441" lon="1.708639">
        <ele>2190.762</ele>
        <time>2018-09-22T12:56:12Z</time>
      </trkpt>
      <trkpt lat="42.236436" lon="1.708654">
        <ele>2190.054</ele>
        <time>2018-09-22T12:56:13Z</time>
      </trkpt>
      <trkpt lat="42.236421" lon="1.708691">
        <ele>2188.246</ele>
        <time>2018-09-22T12:56:16Z</time>
      </trkpt>
      <trkpt lat="42.236407" lon="1.708734">
        <ele>2186.132</ele>
        <time>2018-09-22T12:56:19Z</time>
      </trkpt>
      <trkpt lat="42.236402" lon="1.708750">
        <ele>2185.392</ele>
        <time>2018-09-22T12:56:20Z</time>
      </trkpt>
      <trkpt lat="42.236386" lon="1.708780">
        <ele>2183.911</ele>
        <time>2018-09-22T12:56:22Z</time>
      </trkpt>
      <trkpt lat="42.236388" lon="1.708783">
        <ele>2183.708</ele>
        <time>2018-09-22T12:56:23Z</time>
      </trkpt>
      <trkpt lat="42.236397" lon="1.708783">
        <ele>2183.695</ele>
        <time>2018-09-22T12:56:24Z</time>
      </trkpt>
      <trkpt lat="42.236437" lon="1.708768">
        <ele>2183.841</ele>
        <time>2018-09-22T12:56:27Z</time>
      </trkpt>
      <trkpt lat="42.236444" lon="1.708772">
        <ele>2183.572</ele>
        <time>2018-09-22T12:56:28Z</time>
      </trkpt>
      <trkpt lat="42.236444" lon="1.708776">
        <ele>2183.226</ele>
        <time>2018-09-22T12:56:29Z</time>
      </trkpt>
      <trkpt lat="42.236431" lon="1.708793">
        <ele>2182.592</ele>
        <time>2018-09-22T12:56:32Z</time>
      </trkpt>
      <trkpt lat="42.236408" lon="1.708826">
        <ele>2181.132</ele>
        <time>2018-09-22T12:56:35Z</time>
      </trkpt>
      <trkpt lat="42.236386" lon="1.708850">
        <ele>2180.114</ele>
        <time>2018-09-22T12:56:37Z</time>
      </trkpt>
      <trkpt lat="42.236357" lon="1.708877">
        <ele>2179.466</ele>
        <time>2018-09-22T12:56:39Z</time>
      </trkpt>
      <trkpt lat="42.236327" lon="1.708904">
        <ele>2178.592</ele>
        <time>2018-09-22T12:56:41Z</time>
      </trkpt>
      <trkpt lat="42.236309" lon="1.708924">
        <ele>2177.773</ele>
        <time>2018-09-22T12:56:43Z</time>
      </trkpt>
      <trkpt lat="42.236291" lon="1.708956">
        <ele>2176.220</ele>
        <time>2018-09-22T12:56:46Z</time>
      </trkpt>
      <trkpt lat="42.236270" lon="1.708973">
        <ele>2175.608</ele>
        <time>2018-09-22T12:56:49Z</time>
      </trkpt>
      <trkpt lat="42.236255" lon="1.709004">
        <ele>2174.051</ele>
        <time>2018-09-22T12:56:52Z</time>
      </trkpt>
      <trkpt lat="42.236248" lon="1.709008">
        <ele>2173.947</ele>
        <time>2018-09-22T12:56:53Z</time>
      </trkpt>
      <trkpt lat="42.236238" lon="1.709010">
        <ele>2173.928</ele>
        <time>2018-09-22T12:56:54Z</time>
      </trkpt>
      <trkpt lat="42.236218" lon="1.709040">
        <ele>2172.572</ele>
        <time>2018-09-22T12:56:57Z</time>
      </trkpt>
      <trkpt lat="42.236238" lon="1.709065">
        <ele>2170.638</ele>
        <time>2018-09-22T12:56:59Z</time>
      </trkpt>
      <trkpt lat="42.236247" lon="1.709079">
        <ele>2169.788</ele>
        <time>2018-09-22T12:57:00Z</time>
      </trkpt>
      <trkpt lat="42.236249" lon="1.709090">
        <ele>2169.080</ele>
        <time>2018-09-22T12:57:01Z</time>
      </trkpt>
      <trkpt lat="42.236239" lon="1.709100">
        <ele>2168.672</ele>
        <time>2018-09-22T12:57:03Z</time>
      </trkpt>
      <trkpt lat="42.236245" lon="1.709115">
        <ele>2167.671</ele>
        <time>2018-09-22T12:57:07Z</time>
      </trkpt>
      <trkpt lat="42.236224" lon="1.709126">
        <ele>2167.241</ele>
        <time>2018-09-22T12:57:19Z</time>
      </trkpt>
      <trkpt lat="42.236245" lon="1.709146">
        <ele>2165.815</ele>
        <time>2018-09-22T12:57:22Z</time>
      </trkpt>
      <trkpt lat="42.236250" lon="1.709170">
        <ele>2164.308</ele>
        <time>2018-09-22T12:57:25Z</time>
      </trkpt>
      <trkpt lat="42.236262" lon="1.709172">
        <ele>2164.049</ele>
        <time>2018-09-22T12:57:27Z</time>
      </trkpt>
      <trkpt lat="42.236289" lon="1.709171">
        <ele>2163.895</ele>
        <time>2018-09-22T12:57:30Z</time>
      </trkpt>
      <trkpt lat="42.236307" lon="1.709193">
        <ele>2162.466</ele>
        <time>2018-09-22T12:57:33Z</time>
      </trkpt>
      <trkpt lat="42.236294" lon="1.709228">
        <ele>2160.780</ele>
        <time>2018-09-22T12:57:37Z</time>
      </trkpt>
      <trkpt lat="42.236303" lon="1.709264">
        <ele>2158.666</ele>
        <time>2018-09-22T12:57:42Z</time>
      </trkpt>
      <trkpt lat="42.236285" lon="1.709300">
        <ele>2156.916</ele>
        <time>2018-09-22T12:57:46Z</time>
      </trkpt>
      <trkpt lat="42.236273" lon="1.709327">
        <ele>2155.578</ele>
        <time>2018-09-22T12:57:49Z</time>
      </trkpt>
      <trkpt lat="42.236264" lon="1.709353">
        <ele>2154.330</ele>
        <time>2018-09-22T12:57:51Z</time>
      </trkpt>
      <trkpt lat="42.236258" lon="1.709363">
        <ele>2153.741</ele>
        <time>2018-09-22T12:57:52Z</time>
      </trkpt>
      <trkpt lat="42.236230" lon="1.709403">
        <ele>2151.981</ele>
        <time>2018-09-22T12:57:56Z</time>
      </trkpt>
      <trkpt lat="42.236220" lon="1.709419">
        <ele>2151.209</ele>
        <time>2018-09-22T12:57:58Z</time>
      </trkpt>
      <trkpt lat="42.236219" lon="1.709429">
        <ele>2150.608</ele>
        <time>2018-09-22T12:57:59Z</time>
      </trkpt>
      <trkpt lat="42.236202" lon="1.709452">
        <ele>2149.656</ele>
        <time>2018-09-22T12:58:02Z</time>
      </trkpt>
      <trkpt lat="42.236201" lon="1.709490">
        <ele>2147.662</ele>
        <time>2018-09-22T12:58:08Z</time>
      </trkpt>
      <trkpt lat="42.236212" lon="1.709483">
        <ele>2147.883</ele>
        <time>2018-09-22T12:58:11Z</time>
      </trkpt>
      <trkpt lat="42.236252" lon="1.709494">
        <ele>2146.937</ele>
        <time>2018-09-22T12:58:15Z</time>
      </trkpt>
      <trkpt lat="42.236289" lon="1.709497">
        <ele>2146.383</ele>
        <time>2018-09-22T12:58:18Z</time>
      </trkpt>
      <trkpt lat="42.236296" lon="1.709495">
        <ele>2146.433</ele>
        <time>2018-09-22T12:58:19Z</time>
      </trkpt>
      <trkpt lat="42.236298" lon="1.709499">
        <ele>2146.125</ele>
        <time>2018-09-22T12:58:21Z</time>
      </trkpt>
      <trkpt lat="42.236279" lon="1.709550">
        <ele>2143.757</ele>
        <time>2018-09-22T12:58:26Z</time>
      </trkpt>
      <trkpt lat="42.236272" lon="1.709560">
        <ele>2143.241</ele>
        <time>2018-09-22T12:58:27Z</time>
      </trkpt>
      <trkpt lat="42.236261" lon="1.709570">
        <ele>2142.881</ele>
        <time>2018-09-22T12:58:29Z</time>
      </trkpt>
      <trkpt lat="42.236263" lon="1.709574">
        <ele>2142.609</ele>
        <time>2018-09-22T12:58:30Z</time>
      </trkpt>
      <trkpt lat="42.236234" lon="1.709601">
        <ele>2141.408</ele>
        <time>2018-09-22T12:58:40Z</time>
      </trkpt>
      <trkpt lat="42.236195" lon="1.709626">
        <ele>2140.416</ele>
        <time>2018-09-22T12:58:43Z</time>
      </trkpt>
      <trkpt lat="42.236186" lon="1.709634">
        <ele>2140.192</ele>
        <time>2018-09-22T12:58:44Z</time>
      </trkpt>
      <trkpt lat="42.236161" lon="1.709661">
        <ele>2138.963</ele>
        <time>2018-09-22T12:58:47Z</time>
      </trkpt>
      <trkpt lat="42.236126" lon="1.709681">
        <ele>2138.017</ele>
        <time>2018-09-22T12:58:50Z</time>
      </trkpt>
      <trkpt lat="42.236110" lon="1.709700">
        <ele>2137.423</ele>
        <time>2018-09-22T12:58:53Z</time>
      </trkpt>
      <trkpt lat="42.236084" lon="1.709713">
        <ele>2140.933</ele>
        <time>2018-09-22T12:58:56Z</time>
      </trkpt>
      <trkpt lat="42.236073" lon="1.709709">
        <ele>2142.925</ele>
        <time>2018-09-22T12:58:57Z</time>
      </trkpt>
      <trkpt lat="42.236057" lon="1.709701">
        <ele>2145.987</ele>
        <time>2018-09-22T12:58:59Z</time>
      </trkpt>
      <trkpt lat="42.236020" lon="1.709706">
        <ele>2151.756</ele>
        <time>2018-09-22T12:59:03Z</time>
      </trkpt>
      <trkpt lat="42.235992" lon="1.709702">
        <ele>2156.659</ele>
        <time>2018-09-22T12:59:06Z</time>
      </trkpt>
      <trkpt lat="42.235971" lon="1.709725">
        <ele>2158.414</ele>
        <time>2018-09-22T12:59:09Z</time>
      </trkpt>
      <trkpt lat="42.235971" lon="1.709736">
        <ele>2157.808</ele>
        <time>2018-09-22T12:59:10Z</time>
      </trkpt>
      <trkpt lat="42.235969" lon="1.709749">
        <ele>2157.387</ele>
        <time>2018-09-22T12:59:12Z</time>
      </trkpt>
      <trkpt lat="42.235992" lon="1.709790">
        <ele>2151.113</ele>
        <time>2018-09-22T12:59:16Z</time>
      </trkpt>
      <trkpt lat="42.236010" lon="1.709813">
        <ele>2147.034</ele>
        <time>2018-09-22T12:59:20Z</time>
      </trkpt>
      <trkpt lat="42.236029" lon="1.709835">
        <ele>2142.738</ele>
        <time>2018-09-22T12:59:22Z</time>
      </trkpt>
      <trkpt lat="42.236047" lon="1.709854">
        <ele>2138.734</ele>
        <time>2018-09-22T12:59:24Z</time>
      </trkpt>
      <trkpt lat="42.236052" lon="1.709863">
        <ele>2137.544</ele>
        <time>2018-09-22T12:59:25Z</time>
      </trkpt>
      <trkpt lat="42.236073" lon="1.709882">
        <ele>2133.156</ele>
        <time>2018-09-22T12:59:27Z</time>
      </trkpt>
      <trkpt lat="42.236096" lon="1.709898">
        <ele>2128.868</ele>
        <time>2018-09-22T12:59:29Z</time>
      </trkpt>
      <trkpt lat="42.236105" lon="1.709900">
        <ele>2127.371</ele>
        <time>2018-09-22T12:59:30Z</time>
      </trkpt>
      <trkpt lat="42.236108" lon="1.709907">
        <ele>2126.441</ele>
        <time>2018-09-22T12:59:32Z</time>
      </trkpt>
      <trkpt lat="42.236113" lon="1.709913">
        <ele>2125.615</ele>
        <time>2018-09-22T12:59:33Z</time>
      </trkpt>
      <trkpt lat="42.236116" lon="1.709928">
        <ele>2124.808</ele>
        <time>2018-09-22T12:59:35Z</time>
      </trkpt>
      <trkpt lat="42.236115" lon="1.709932">
        <ele>2124.689</ele>
        <time>2018-09-22T12:59:36Z</time>
      </trkpt>
      <trkpt lat="42.236096" lon="1.709942">
        <ele>2126.455</ele>
        <time>2018-09-22T12:59:40Z</time>
      </trkpt>
      <trkpt lat="42.236100" lon="1.709972">
        <ele>2124.196</ele>
        <time>2018-09-22T12:59:44Z</time>
      </trkpt>
      <trkpt lat="42.236107" lon="1.710001">
        <ele>2121.520</ele>
        <time>2018-09-22T12:59:47Z</time>
      </trkpt>
      <trkpt lat="42.236084" lon="1.710025">
        <ele>2123.746</ele>
        <time>2018-09-22T12:59:51Z</time>
      </trkpt>
      <trkpt lat="42.236082" lon="1.710029">
        <ele>2123.836</ele>
        <time>2018-09-22T12:59:57Z</time>
      </trkpt>
      <trkpt lat="42.236088" lon="1.710041">
        <ele>2122.218</ele>
        <time>2018-09-22T12:59:58Z</time>
      </trkpt>
      <trkpt lat="42.236103" lon="1.710053">
        <ele>2119.530</ele>
        <time>2018-09-22T13:00:05Z</time>
      </trkpt>
      <trkpt lat="42.236133" lon="1.710087">
        <ele>2116.433</ele>
        <time>2018-09-22T13:00:11Z</time>
      </trkpt>
      <trkpt lat="42.236146" lon="1.710096">
        <ele>2115.823</ele>
        <time>2018-09-22T13:00:13Z</time>
      </trkpt>
      <trkpt lat="42.236156" lon="1.710108">
        <ele>2115.215</ele>
        <time>2018-09-22T13:00:15Z</time>
      </trkpt>
      <trkpt lat="42.236169" lon="1.710118">
        <ele>2114.608</ele>
        <time>2018-09-22T13:00:20Z</time>
      </trkpt>
      <trkpt lat="42.236101" lon="1.710152">
        <ele>2114.885</ele>
        <time>2018-09-22T13:00:27Z</time>
      </trkpt>
      <trkpt lat="42.236112" lon="1.710161">
        <ele>2112.871</ele>
        <time>2018-09-22T13:00:30Z</time>
      </trkpt>
      <trkpt lat="42.236170" lon="1.710170">
        <ele>2112.022</ele>
        <time>2018-09-22T13:00:35Z</time>
      </trkpt>
      <trkpt lat="42.236142" lon="1.710202">
        <ele>2110.686</ele>
        <time>2018-09-22T13:00:38Z</time>
      </trkpt>
      <trkpt lat="42.236146" lon="1.710205">
        <ele>2110.492</ele>
        <time>2018-09-22T13:00:40Z</time>
      </trkpt>
      <trkpt lat="42.236162" lon="1.710234">
        <ele>2108.862</ele>
        <time>2018-09-22T13:00:46Z</time>
      </trkpt>
      <trkpt lat="42.236178" lon="1.710258">
        <ele>2107.594</ele>
        <time>2018-09-22T13:00:49Z</time>
      </trkpt>
      <trkpt lat="42.236188" lon="1.710262">
        <ele>2107.266</ele>
        <time>2018-09-22T13:00:51Z</time>
      </trkpt>
      <trkpt lat="42.236192" lon="1.710258">
        <ele>2107.417</ele>
        <time>2018-09-22T13:00:52Z</time>
      </trkpt>
      <trkpt lat="42.236199" lon="1.710257">
        <ele>2107.387</ele>
        <time>2018-09-22T13:00:55Z</time>
      </trkpt>
      <trkpt lat="42.236185" lon="1.710260">
        <ele>2107.315</ele>
        <time>2018-09-22T13:00:57Z</time>
      </trkpt>
      <trkpt lat="42.236193" lon="1.710271">
        <ele>2106.708</ele>
        <time>2018-09-22T13:01:00Z</time>
      </trkpt>
      <trkpt lat="42.236208" lon="1.710282">
        <ele>2106.023</ele>
        <time>2018-09-22T13:01:02Z</time>
      </trkpt>
      <trkpt lat="42.236210" lon="1.710299">
        <ele>2105.259</ele>
        <time>2018-09-22T13:01:04Z</time>
      </trkpt>
      <trkpt lat="42.236231" lon="1.710325">
        <ele>2103.750</ele>
        <time>2018-09-22T13:01:07Z</time>
      </trkpt>
      <trkpt lat="42.236246" lon="1.710344">
        <ele>2102.664</ele>
        <time>2018-09-22T13:01:10Z</time>
      </trkpt>
      <trkpt lat="42.236279" lon="1.710344">
        <ele>2102.460</ele>
        <time>2018-09-22T13:01:12Z</time>
      </trkpt>
      <trkpt lat="42.236287" lon="1.710349">
        <ele>2102.060</ele>
        <time>2018-09-22T13:01:13Z</time>
      </trkpt>
      <trkpt lat="42.236303" lon="1.710382">
        <ele>2100.222</ele>
        <time>2018-09-22T13:01:16Z</time>
      </trkpt>
      <trkpt lat="42.236315" lon="1.710420">
        <ele>2098.194</ele>
        <time>2018-09-22T13:01:19Z</time>
      </trkpt>
      <trkpt lat="42.236315" lon="1.710431">
        <ele>2097.545</ele>
        <time>2018-09-22T13:01:20Z</time>
      </trkpt>
      <trkpt lat="42.236312" lon="1.710452">
        <ele>2096.447</ele>
        <time>2018-09-22T13:01:22Z</time>
      </trkpt>
      <trkpt lat="42.236318" lon="1.710471">
        <ele>2095.411</ele>
        <time>2018-09-22T13:01:24Z</time>
      </trkpt>
      <trkpt lat="42.236325" lon="1.710489">
        <ele>2094.408</ele>
        <time>2018-09-22T13:01:26Z</time>
      </trkpt>
      <trkpt lat="42.236326" lon="1.710526">
        <ele>2092.466</ele>
        <time>2018-09-22T13:01:30Z</time>
      </trkpt>
      <trkpt lat="42.236357" lon="1.710557">
        <ele>2090.342</ele>
        <time>2018-09-22T13:01:35Z</time>
      </trkpt>
      <trkpt lat="42.236374" lon="1.710571">
        <ele>2089.453</ele>
        <time>2018-09-22T13:01:37Z</time>
      </trkpt>
      <trkpt lat="42.236378" lon="1.710571">
        <ele>2089.447</ele>
        <time>2018-09-22T13:01:39Z</time>
      </trkpt>
      <trkpt lat="42.236366" lon="1.710585">
        <ele>2088.993</ele>
        <time>2018-09-22T13:01:53Z</time>
      </trkpt>
      <trkpt lat="42.236404" lon="1.710616">
        <ele>2087.063</ele>
        <time>2018-09-22T13:01:55Z</time>
      </trkpt>
      <trkpt lat="42.236421" lon="1.710628">
        <ele>2086.485</ele>
        <time>2018-09-22T13:01:56Z</time>
      </trkpt>
      <trkpt lat="42.236435" lon="1.710631">
        <ele>2086.127</ele>
        <time>2018-09-22T13:01:57Z</time>
      </trkpt>
      <trkpt lat="42.236439" lon="1.710641">
        <ele>2085.723</ele>
        <time>2018-09-22T13:01:59Z</time>
      </trkpt>
      <trkpt lat="42.236428" lon="1.710651">
        <ele>2085.283</ele>
        <time>2018-09-22T13:02:01Z</time>
      </trkpt>
      <trkpt lat="42.236419" lon="1.710655">
        <ele>2085.111</ele>
        <time>2018-09-22T13:02:03Z</time>
      </trkpt>
      <trkpt lat="42.236414" lon="1.710651">
        <ele>2085.308</ele>
        <time>2018-09-22T13:02:07Z</time>
      </trkpt>
      <trkpt lat="42.236400" lon="1.710667">
        <ele>2084.784</ele>
        <time>2018-09-22T13:02:11Z</time>
      </trkpt>
      <trkpt lat="42.236416" lon="1.710692">
        <ele>2083.430</ele>
        <time>2018-09-22T13:02:15Z</time>
      </trkpt>
      <trkpt lat="42.236419" lon="1.710698">
        <ele>2083.141</ele>
        <time>2018-09-22T13:02:16Z</time>
      </trkpt>
      <trkpt lat="42.236422" lon="1.710704">
        <ele>2082.845</ele>
        <time>2018-09-22T13:02:17Z</time>
      </trkpt>
      <trkpt lat="42.236430" lon="1.710717">
        <ele>2082.221</ele>
        <time>2018-09-22T13:02:19Z</time>
      </trkpt>
      <trkpt lat="42.236418" lon="1.710731">
        <ele>2081.681</ele>
        <time>2018-09-22T13:02:22Z</time>
      </trkpt>
      <trkpt lat="42.236404" lon="1.710747">
        <ele>2080.943</ele>
        <time>2018-09-22T13:02:24Z</time>
      </trkpt>
      <trkpt lat="42.236397" lon="1.710751">
        <ele>2080.865</ele>
        <time>2018-09-22T13:02:25Z</time>
      </trkpt>
      <trkpt lat="42.236381" lon="1.710759">
        <ele>2080.578</ele>
        <time>2018-09-22T13:02:28Z</time>
      </trkpt>
      <trkpt lat="42.236370" lon="1.710774">
        <ele>2080.033</ele>
        <time>2018-09-22T13:02:31Z</time>
      </trkpt>
      <trkpt lat="42.236369" lon="1.710789">
        <ele>2079.326</ele>
        <time>2018-09-22T13:02:37Z</time>
      </trkpt>
      <trkpt lat="42.236363" lon="1.710807">
        <ele>2078.608</ele>
        <time>2018-09-22T13:02:40Z</time>
      </trkpt>
      <trkpt lat="42.236359" lon="1.710812">
        <ele>2078.459</ele>
        <time>2018-09-22T13:02:41Z</time>
      </trkpt>
      <trkpt lat="42.236375" lon="1.710859">
        <ele>2076.045</ele>
        <time>2018-09-22T13:02:47Z</time>
      </trkpt>
      <trkpt lat="42.236384" lon="1.710874">
        <ele>2075.136</ele>
        <time>2018-09-22T13:02:48Z</time>
      </trkpt>
      <trkpt lat="42.236397" lon="1.710897">
        <ele>2074.010</ele>
        <time>2018-09-22T13:02:50Z</time>
      </trkpt>
      <trkpt lat="42.236397" lon="1.710908">
        <ele>2073.516</ele>
        <time>2018-09-22T13:02:51Z</time>
      </trkpt>
      <trkpt lat="42.236394" lon="1.710909">
        <ele>2073.446</ele>
        <time>2018-09-22T13:02:53Z</time>
      </trkpt>
      <trkpt lat="42.236432" lon="1.710934">
        <ele>2072.228</ele>
        <time>2018-09-22T13:03:02Z</time>
      </trkpt>
      <trkpt lat="42.236447" lon="1.710965">
        <ele>2070.760</ele>
        <time>2018-09-22T13:03:04Z</time>
      </trkpt>
      <trkpt lat="42.236462" lon="1.710992">
        <ele>2069.491</ele>
        <time>2018-09-22T13:03:06Z</time>
      </trkpt>
      <trkpt lat="42.236494" lon="1.711016">
        <ele>2068.381</ele>
        <time>2018-09-22T13:03:08Z</time>
      </trkpt>
      <trkpt lat="42.236497" lon="1.711044">
        <ele>2067.019</ele>
        <time>2018-09-22T13:03:10Z</time>
      </trkpt>
      <trkpt lat="42.236493" lon="1.711052">
        <ele>2066.608</ele>
        <time>2018-09-22T13:03:11Z</time>
      </trkpt>
      <trkpt lat="42.236457" lon="1.711076">
        <ele>2065.621</ele>
        <time>2018-09-22T13:03:15Z</time>
      </trkpt>
      <trkpt lat="42.236472" lon="1.711110">
        <ele>2064.067</ele>
        <time>2018-09-22T13:03:20Z</time>
      </trkpt>
      <trkpt lat="42.236458" lon="1.711135">
        <ele>2062.968</ele>
        <time>2018-09-22T13:03:22Z</time>
      </trkpt>
      <trkpt lat="42.236396" lon="1.711179">
        <ele>2060.822</ele>
        <time>2018-09-22T13:03:26Z</time>
      </trkpt>
      <trkpt lat="42.236385" lon="1.711186">
        <ele>2060.578</ele>
        <time>2018-09-22T13:03:27Z</time>
      </trkpt>
      <trkpt lat="42.236409" lon="1.711214">
        <ele>2059.238</ele>
        <time>2018-09-22T13:03:29Z</time>
      </trkpt>
      <trkpt lat="42.236456" lon="1.711261">
        <ele>2057.190</ele>
        <time>2018-09-22T13:03:32Z</time>
      </trkpt>
      <trkpt lat="42.236432" lon="1.711288">
        <ele>2055.852</ele>
        <time>2018-09-22T13:03:35Z</time>
      </trkpt>
      <trkpt lat="42.236413" lon="1.711292">
        <ele>2055.673</ele>
        <time>2018-09-22T13:03:37Z</time>
      </trkpt>
      <trkpt lat="42.236410" lon="1.711282">
        <ele>2056.085</ele>
        <time>2018-09-22T13:03:38Z</time>
      </trkpt>
      <trkpt lat="42.236423" lon="1.711260">
        <ele>2057.013</ele>
        <time>2018-09-22T13:03:42Z</time>
      </trkpt>
      <trkpt lat="42.236441" lon="1.711252">
        <ele>2057.408</ele>
        <time>2018-09-22T13:03:45Z</time>
      </trkpt>
      <trkpt lat="42.236453" lon="1.711260">
        <ele>2057.119</ele>
        <time>2018-09-22T13:03:47Z</time>
      </trkpt>
      <trkpt lat="42.236436" lon="1.711294">
        <ele>2055.555</ele>
        <time>2018-09-22T13:03:51Z</time>
      </trkpt>
      <trkpt lat="42.236431" lon="1.711323">
        <ele>2054.196</ele>
        <time>2018-09-22T13:03:54Z</time>
      </trkpt>
      <trkpt lat="42.236430" lon="1.711337">
        <ele>2053.590</ele>
        <time>2018-09-22T13:03:55Z</time>
      </trkpt>
      <trkpt lat="42.236412" lon="1.711365">
        <ele>2052.286</ele>
        <time>2018-09-22T13:03:57Z</time>
      </trkpt>
      <trkpt lat="42.236386" lon="1.711385">
        <ele>2051.286</ele>
        <time>2018-09-22T13:03:59Z</time>
      </trkpt>
      <trkpt lat="42.236364" lon="1.711435">
        <ele>2049.498</ele>
        <time>2018-09-22T13:04:02Z</time>
      </trkpt>
      <trkpt lat="42.236346" lon="1.711478">
        <ele>2047.940</ele>
        <time>2018-09-22T13:04:05Z</time>
      </trkpt>
      <trkpt lat="42.236339" lon="1.711493">
        <ele>2047.476</ele>
        <time>2018-09-22T13:04:06Z</time>
      </trkpt>
      <trkpt lat="42.236323" lon="1.711512">
        <ele>2046.890</ele>
        <time>2018-09-22T13:04:08Z</time>
      </trkpt>
      <trkpt lat="42.236320" lon="1.711541">
        <ele>2045.619</ele>
        <time>2018-09-22T13:04:11Z</time>
      </trkpt>
      <trkpt lat="42.236323" lon="1.711544">
        <ele>2045.408</ele>
        <time>2018-09-22T13:04:14Z</time>
      </trkpt>
      <trkpt lat="42.236340" lon="1.711594">
        <ele>2043.089</ele>
        <time>2018-09-22T13:04:21Z</time>
      </trkpt>
      <trkpt lat="42.236352" lon="1.711609">
        <ele>2042.185</ele>
        <time>2018-09-22T13:04:24Z</time>
      </trkpt>
      <trkpt lat="42.236346" lon="1.711622">
        <ele>2041.696</ele>
        <time>2018-09-22T13:04:26Z</time>
      </trkpt>
      <trkpt lat="42.236331" lon="1.711672">
        <ele>2039.770</ele>
        <time>2018-09-22T13:04:30Z</time>
      </trkpt>
      <trkpt lat="42.236324" lon="1.711686">
        <ele>2039.226</ele>
        <time>2018-09-22T13:04:31Z</time>
      </trkpt>
      <trkpt lat="42.236302" lon="1.711719">
        <ele>2038.176</ele>
        <time>2018-09-22T13:04:34Z</time>
      </trkpt>
      <trkpt lat="42.236297" lon="1.711734">
        <ele>2037.588</ele>
        <time>2018-09-22T13:04:35Z</time>
      </trkpt>
      <trkpt lat="42.236291" lon="1.711773">
        <ele>2035.770</ele>
        <time>2018-09-22T13:04:37Z</time>
      </trkpt>
      <trkpt lat="42.236278" lon="1.711805">
        <ele>2034.513</ele>
        <time>2018-09-22T13:04:39Z</time>
      </trkpt>
      <trkpt lat="42.236265" lon="1.711816">
        <ele>2034.243</ele>
        <time>2018-09-22T13:04:41Z</time>
      </trkpt>
      <trkpt lat="42.236260" lon="1.711826">
        <ele>2033.807</ele>
        <time>2018-09-22T13:04:43Z</time>
      </trkpt>
      <trkpt lat="42.236258" lon="1.711825">
        <ele>2033.908</ele>
        <time>2018-09-22T13:04:45Z</time>
      </trkpt>
      <trkpt lat="42.236248" lon="1.711852">
        <ele>2032.813</ele>
        <time>2018-09-22T13:04:51Z</time>
      </trkpt>
      <trkpt lat="42.236240" lon="1.711895">
        <ele>2031.039</ele>
        <time>2018-09-22T13:04:55Z</time>
      </trkpt>
      <trkpt lat="42.236225" lon="1.711917">
        <ele>2030.230</ele>
        <time>2018-09-22T13:04:58Z</time>
      </trkpt>
      <trkpt lat="42.236209" lon="1.711931">
        <ele>2029.814</ele>
        <time>2018-09-22T13:05:01Z</time>
      </trkpt>
      <trkpt lat="42.236203" lon="1.711975">
        <ele>2027.970</ele>
        <time>2018-09-22T13:05:07Z</time>
      </trkpt>
      <trkpt lat="42.236180" lon="1.711985">
        <ele>2027.950</ele>
        <time>2018-09-22T13:05:09Z</time>
      </trkpt>
      <trkpt lat="42.236173" lon="1.711993">
        <ele>2027.672</ele>
        <time>2018-09-22T13:05:10Z</time>
      </trkpt>
      <trkpt lat="42.236160" lon="1.712010">
        <ele>2027.114</ele>
        <time>2018-09-22T13:05:12Z</time>
      </trkpt>
      <trkpt lat="42.236153" lon="1.712026">
        <ele>2026.434</ele>
        <time>2018-09-22T13:05:14Z</time>
      </trkpt>
      <trkpt lat="42.236155" lon="1.712038">
        <ele>2025.855</ele>
        <time>2018-09-22T13:05:15Z</time>
      </trkpt>
      <trkpt lat="42.236145" lon="1.712061">
        <ele>2024.910</ele>
        <time>2018-09-22T13:05:19Z</time>
      </trkpt>
      <trkpt lat="42.236138" lon="1.712070">
        <ele>2024.608</ele>
        <time>2018-09-22T13:05:23Z</time>
      </trkpt>
      <trkpt lat="42.236123" lon="1.712111">
        <ele>2023.025</ele>
        <time>2018-09-22T13:05:28Z</time>
      </trkpt>
      <trkpt lat="42.236132" lon="1.712137">
        <ele>2021.641</ele>
        <time>2018-09-22T13:05:30Z</time>
      </trkpt>
      <trkpt lat="42.236127" lon="1.712149">
        <ele>2021.152</ele>
        <time>2018-09-22T13:05:31Z</time>
      </trkpt>
      <trkpt lat="42.236096" lon="1.712152">
        <ele>2021.456</ele>
        <time>2018-09-22T13:05:34Z</time>
      </trkpt>
      <trkpt lat="42.236095" lon="1.712161">
        <ele>2021.062</ele>
        <time>2018-09-22T13:05:35Z</time>
      </trkpt>
      <trkpt lat="42.236093" lon="1.712196">
        <ele>2019.432</ele>
        <time>2018-09-22T13:05:38Z</time>
      </trkpt>
      <trkpt lat="42.236115" lon="1.712220">
        <ele>2018.034</ele>
        <time>2018-09-22T13:05:41Z</time>
      </trkpt>
      <trkpt lat="42.236134" lon="1.712229">
        <ele>2017.386</ele>
        <time>2018-09-22T13:05:43Z</time>
      </trkpt>
      <trkpt lat="42.236143" lon="1.712235">
        <ele>2016.911</ele>
        <time>2018-09-22T13:05:44Z</time>
      </trkpt>
      <trkpt lat="42.236152" lon="1.712248">
        <ele>2016.121</ele>
        <time>2018-09-22T13:05:45Z</time>
      </trkpt>
      <trkpt lat="42.236168" lon="1.712265">
        <ele>2015.003</ele>
        <time>2018-09-22T13:05:47Z</time>
      </trkpt>
      <trkpt lat="42.236187" lon="1.712284">
        <ele>2013.908</ele>
        <time>2018-09-22T13:05:49Z</time>
      </trkpt>
      <trkpt lat="42.236197" lon="1.712291">
        <ele>2013.423</ele>
        <time>2018-09-22T13:05:50Z</time>
      </trkpt>
      <trkpt lat="42.236216" lon="1.712303">
        <ele>2012.659</ele>
        <time>2018-09-22T13:05:52Z</time>
      </trkpt>
      <trkpt lat="42.236220" lon="1.712309">
        <ele>2012.220</ele>
        <time>2018-09-22T13:05:53Z</time>
      </trkpt>
      <trkpt lat="42.236235" lon="1.712317">
        <ele>2011.734</ele>
        <time>2018-09-22T13:05:55Z</time>
      </trkpt>
      <trkpt lat="42.236244" lon="1.712359">
        <ele>2009.660</ele>
        <time>2018-09-22T13:06:00Z</time>
      </trkpt>
      <trkpt lat="42.236249" lon="1.712370">
        <ele>2009.110</ele>
        <time>2018-09-22T13:06:02Z</time>
      </trkpt>
      <trkpt lat="42.236283" lon="1.712380">
        <ele>2008.232</ele>
        <time>2018-09-22T13:06:05Z</time>
      </trkpt>
      <trkpt lat="42.236303" lon="1.712390">
        <ele>2007.644</ele>
        <time>2018-09-22T13:06:07Z</time>
      </trkpt>
      <trkpt lat="42.236305" lon="1.712399">
        <ele>2007.197</ele>
        <time>2018-09-22T13:06:08Z</time>
      </trkpt>
      <trkpt lat="42.236306" lon="1.712409">
        <ele>2006.723</ele>
        <time>2018-09-22T13:06:09Z</time>
      </trkpt>
      <trkpt lat="42.236317" lon="1.712423">
        <ele>2005.925</ele>
        <time>2018-09-22T13:06:11Z</time>
      </trkpt>
      <trkpt lat="42.236335" lon="1.712431">
        <ele>2005.408</ele>
        <time>2018-09-22T13:06:13Z</time>
      </trkpt>
      <trkpt lat="42.236344" lon="1.712437">
        <ele>2005.141</ele>
        <time>2018-09-22T13:06:14Z</time>
      </trkpt>
      <trkpt lat="42.236347" lon="1.712443">
        <ele>2004.817</ele>
        <time>2018-09-22T13:06:15Z</time>
      </trkpt>
      <trkpt lat="42.236328" lon="1.712482">
        <ele>2003.248</ele>
        <time>2018-09-22T13:06:18Z</time>
      </trkpt>
      <trkpt lat="42.236323" lon="1.712495">
        <ele>2002.652</ele>
        <time>2018-09-22T13:06:19Z</time>
      </trkpt>
      <trkpt lat="42.236319" lon="1.712523">
        <ele>2001.428</ele>
        <time>2018-09-22T13:06:21Z</time>
      </trkpt>
      <trkpt lat="42.236324" lon="1.712537">
        <ele>2000.758</ele>
        <time>2018-09-22T13:06:22Z</time>
      </trkpt>
      <trkpt lat="42.236334" lon="1.712582">
        <ele>1998.630</ele>
        <time>2018-09-22T13:06:25Z</time>
      </trkpt>
      <trkpt lat="42.236341" lon="1.712591">
        <ele>1998.262</ele>
        <time>2018-09-22T13:06:26Z</time>
      </trkpt>
      <trkpt lat="42.236337" lon="1.712607">
        <ele>1997.585</ele>
        <time>2018-09-22T13:06:28Z</time>
      </trkpt>
      <trkpt lat="42.236328" lon="1.712614">
        <ele>1997.289</ele>
        <time>2018-09-22T13:06:29Z</time>
      </trkpt>
      <trkpt lat="42.236305" lon="1.712621">
        <ele>1996.917</ele>
        <time>2018-09-22T13:06:32Z</time>
      </trkpt>
      <trkpt lat="42.236289" lon="1.712632">
        <ele>1996.508</ele>
        <time>2018-09-22T13:06:33Z</time>
      </trkpt>
      <trkpt lat="42.236273" lon="1.712644">
        <ele>1995.980</ele>
        <time>2018-09-22T13:06:34Z</time>
      </trkpt>
      <trkpt lat="42.236253" lon="1.712669">
        <ele>1994.746</ele>
        <time>2018-09-22T13:06:36Z</time>
      </trkpt>
      <trkpt lat="42.236236" lon="1.712685">
        <ele>1994.047</ele>
        <time>2018-09-22T13:06:38Z</time>
      </trkpt>
      <trkpt lat="42.236226" lon="1.712682">
        <ele>1994.151</ele>
        <time>2018-09-22T13:06:40Z</time>
      </trkpt>
      <trkpt lat="42.236224" lon="1.712725">
        <ele>1992.077</ele>
        <time>2018-09-22T13:06:44Z</time>
      </trkpt>
      <trkpt lat="42.236224" lon="1.712738">
        <ele>1991.347</ele>
        <time>2018-09-22T13:06:45Z</time>
      </trkpt>
      <trkpt lat="42.236218" lon="1.712764">
        <ele>1990.089</ele>
        <time>2018-09-22T13:06:47Z</time>
      </trkpt>
      <trkpt lat="42.236212" lon="1.712762">
        <ele>1990.181</ele>
        <time>2018-09-22T13:06:49Z</time>
      </trkpt>
      <trkpt lat="42.236212" lon="1.712753">
        <ele>1990.589</ele>
        <time>2018-09-22T13:06:53Z</time>
      </trkpt>
      <trkpt lat="42.236196" lon="1.712763">
        <ele>1990.006</ele>
        <time>2018-09-22T13:06:57Z</time>
      </trkpt>
      <trkpt lat="42.236167" lon="1.712792">
        <ele>1988.526</ele>
        <time>2018-09-22T13:07:00Z</time>
      </trkpt>
      <trkpt lat="42.236161" lon="1.712803">
        <ele>1987.908</ele>
        <time>2018-09-22T13:07:01Z</time>
      </trkpt>
      <trkpt lat="42.236140" lon="1.712828">
        <ele>1986.520</ele>
        <time>2018-09-22T13:07:04Z</time>
      </trkpt>
      <trkpt lat="42.236116" lon="1.712826">
        <ele>1986.696</ele>
        <time>2018-09-22T13:07:07Z</time>
      </trkpt>
      <trkpt lat="42.236094" lon="1.712843">
        <ele>1985.767</ele>
        <time>2018-09-22T13:07:10Z</time>
      </trkpt>
      <trkpt lat="42.236077" lon="1.712866">
        <ele>1984.611</ele>
        <time>2018-09-22T13:07:14Z</time>
      </trkpt>
      <trkpt lat="42.236057" lon="1.712911">
        <ele>1982.487</ele>
        <time>2018-09-22T13:07:19Z</time>
      </trkpt>
      <trkpt lat="42.236044" lon="1.712926">
        <ele>1981.777</ele>
        <time>2018-09-22T13:07:21Z</time>
      </trkpt>
      <trkpt lat="42.236045" lon="1.712953">
        <ele>1980.389</ele>
        <time>2018-09-22T13:07:24Z</time>
      </trkpt>
      <trkpt lat="42.236038" lon="1.712979">
        <ele>1979.151</ele>
        <time>2018-09-22T13:07:26Z</time>
      </trkpt>
      <trkpt lat="42.236022" lon="1.712999">
        <ele>1978.159</ele>
        <time>2018-09-22T13:07:28Z</time>
      </trkpt>
      <trkpt lat="42.235989" lon="1.713030">
        <ele>1976.703</ele>
        <time>2018-09-22T13:07:31Z</time>
      </trkpt>
      <trkpt lat="42.235952" lon="1.713064">
        <ele>1975.123</ele>
        <time>2018-09-22T13:07:35Z</time>
      </trkpt>
      <trkpt lat="42.235926" lon="1.713095">
        <ele>1973.808</ele>
        <time>2018-09-22T13:07:38Z</time>
      </trkpt>
      <trkpt lat="42.235894" lon="1.713144">
        <ele>1971.647</ele>
        <time>2018-09-22T13:07:42Z</time>
      </trkpt>
      <trkpt lat="42.235859" lon="1.713171">
        <ele>1970.483</ele>
        <time>2018-09-22T13:07:45Z</time>
      </trkpt>
      <trkpt lat="42.235845" lon="1.713178">
        <ele>1970.274</ele>
        <time>2018-09-22T13:07:47Z</time>
      </trkpt>
      <trkpt lat="42.235842" lon="1.713187">
        <ele>1969.828</ele>
        <time>2018-09-22T13:07:48Z</time>
      </trkpt>
      <trkpt lat="42.235846" lon="1.713204">
        <ele>1969.064</ele>
        <time>2018-09-22T13:07:50Z</time>
      </trkpt>
      <trkpt lat="42.235856" lon="1.713222">
        <ele>1968.194</ele>
        <time>2018-09-22T13:07:52Z</time>
      </trkpt>
      <trkpt lat="42.235850" lon="1.713239">
        <ele>1967.386</ele>
        <time>2018-09-22T13:07:54Z</time>
      </trkpt>
      <trkpt lat="42.235837" lon="1.713243">
        <ele>1967.298</ele>
        <time>2018-09-22T13:07:56Z</time>
      </trkpt>
      <trkpt lat="42.235833" lon="1.713249">
        <ele>1966.967</ele>
        <time>2018-09-22T13:07:57Z</time>
      </trkpt>
      <trkpt lat="42.235830" lon="1.713258">
        <ele>1966.481</ele>
        <time>2018-09-22T13:07:58Z</time>
      </trkpt>
      <trkpt lat="42.235819" lon="1.713266">
        <ele>1965.919</ele>
        <time>2018-09-22T13:08:00Z</time>
      </trkpt>
      <trkpt lat="42.235815" lon="1.713275">
        <ele>1965.408</ele>
        <time>2018-09-22T13:08:02Z</time>
      </trkpt>
      <trkpt lat="42.235812" lon="1.713308">
        <ele>1963.748</ele>
        <time>2018-09-22T13:08:08Z</time>
      </trkpt>
      <trkpt lat="42.235826" lon="1.713316">
        <ele>1963.684</ele>
        <time>2018-09-22T13:08:12Z</time>
      </trkpt>
      <trkpt lat="42.235822" lon="1.713325">
        <ele>1963.065</ele>
        <time>2018-09-22T13:08:16Z</time>
      </trkpt>
      <trkpt lat="42.235822" lon="1.713343">
        <ele>1962.219</ele>
        <time>2018-09-22T13:08:21Z</time>
      </trkpt>
      <trkpt lat="42.235821" lon="1.713369">
        <ele>1960.985</ele>
        <time>2018-09-22T13:08:26Z</time>
      </trkpt>
      <trkpt lat="42.235822" lon="1.713382">
        <ele>1960.465</ele>
        <time>2018-09-22T13:08:30Z</time>
      </trkpt>
      <trkpt lat="42.235825" lon="1.713408">
        <ele>1959.267</ele>
        <time>2018-09-22T13:08:35Z</time>
      </trkpt>
      <trkpt lat="42.235829" lon="1.713425">
        <ele>1958.579</ele>
        <time>2018-09-22T13:08:39Z</time>
      </trkpt>
      <trkpt lat="42.235848" lon="1.713454">
        <ele>1957.258</ele>
        <time>2018-09-22T13:08:44Z</time>
      </trkpt>
      <trkpt lat="42.235843" lon="1.713474">
        <ele>1956.352</ele>
        <time>2018-09-22T13:08:48Z</time>
      </trkpt>
      <trkpt lat="42.235826" lon="1.713499">
        <ele>1955.017</ele>
        <time>2018-09-22T13:08:53Z</time>
      </trkpt>
      <trkpt lat="42.235810" lon="1.713535">
        <ele>1952.808</ele>
        <time>2018-09-22T13:08:57Z</time>
      </trkpt>
      <trkpt lat="42.235812" lon="1.713558">
        <ele>1951.817</ele>
        <time>2018-09-22T13:09:01Z</time>
      </trkpt>
      <trkpt lat="42.235808" lon="1.713598">
        <ele>1949.823</ele>
        <time>2018-09-22T13:09:07Z</time>
      </trkpt>
      <trkpt lat="42.235842" lon="1.713600">
        <ele>1950.424</ele>
        <time>2018-09-22T13:09:11Z</time>
      </trkpt>
      <trkpt lat="42.235851" lon="1.713625">
        <ele>1949.168</ele>
        <time>2018-09-22T13:09:17Z</time>
      </trkpt>
      <trkpt lat="42.235868" lon="1.713651">
        <ele>1947.724</ele>
        <time>2018-09-22T13:09:22Z</time>
      </trkpt>
      <trkpt lat="42.235852" lon="1.713697">
        <ele>1945.214</ele>
        <time>2018-09-22T13:09:26Z</time>
      </trkpt>
      <trkpt lat="42.235835" lon="1.713722">
        <ele>1943.956</ele>
        <time>2018-09-22T13:09:28Z</time>
      </trkpt>
      <trkpt lat="42.235827" lon="1.713737">
        <ele>1943.018</ele>
        <time>2018-09-22T13:09:29Z</time>
      </trkpt>
      <trkpt lat="42.235823" lon="1.713776">
        <ele>1940.846</ele>
        <time>2018-09-22T13:09:32Z</time>
      </trkpt>
      <trkpt lat="42.235819" lon="1.713786">
        <ele>1940.188</ele>
        <time>2018-09-22T13:09:33Z</time>
      </trkpt>
      <trkpt lat="42.235806" lon="1.713808">
        <ele>1938.616</ele>
        <time>2018-09-22T13:09:37Z</time>
      </trkpt>
      <trkpt lat="42.235819" lon="1.713808">
        <ele>1939.008</ele>
        <time>2018-09-22T13:09:40Z</time>
      </trkpt>
      <trkpt lat="42.235837" lon="1.713796">
        <ele>1939.986</ele>
        <time>2018-09-22T13:09:44Z</time>
      </trkpt>
      <trkpt lat="42.235834" lon="1.713791">
        <ele>1940.282</ele>
        <time>2018-09-22T13:09:48Z</time>
      </trkpt>
      <trkpt lat="42.235860" lon="1.713830">
        <ele>1938.073</ele>
        <time>2018-09-22T13:09:55Z</time>
      </trkpt>
      <trkpt lat="42.235876" lon="1.713842">
        <ele>1937.357</ele>
        <time>2018-09-22T13:09:59Z</time>
      </trkpt>
      <trkpt lat="42.235874" lon="1.713876">
        <ele>1935.563</ele>
        <time>2018-09-22T13:10:04Z</time>
      </trkpt>
      <trkpt lat="42.235863" lon="1.713883">
        <ele>1935.243</ele>
        <time>2018-09-22T13:10:08Z</time>
      </trkpt>
      <trkpt lat="42.235862" lon="1.713890">
        <ele>1934.815</ele>
        <time>2018-09-22T13:10:09Z</time>
      </trkpt>
      <trkpt lat="42.235877" lon="1.713908">
        <ele>1933.787</ele>
        <time>2018-09-22T13:10:13Z</time>
      </trkpt>
      <trkpt lat="42.235912" lon="1.713914">
        <ele>1933.258</ele>
        <time>2018-09-22T13:10:16Z</time>
      </trkpt>
      <trkpt lat="42.235917" lon="1.713917">
        <ele>1933.052</ele>
        <time>2018-09-22T13:10:17Z</time>
      </trkpt>
      <trkpt lat="42.235920" lon="1.713912">
        <ele>1933.317</ele>
        <time>2018-09-22T13:10:19Z</time>
      </trkpt>
      <trkpt lat="42.235922" lon="1.713909">
        <ele>1933.508</ele>
        <time>2018-09-22T13:10:20Z</time>
      </trkpt>
      <trkpt lat="42.235931" lon="1.713910">
        <ele>1933.427</ele>
        <time>2018-09-22T13:10:23Z</time>
      </trkpt>
      <trkpt lat="42.235922" lon="1.713934">
        <ele>1932.133</ele>
        <time>2018-09-22T13:10:27Z</time>
      </trkpt>
      <trkpt lat="42.235917" lon="1.713958">
        <ele>1930.744</ele>
        <time>2018-09-22T13:10:31Z</time>
      </trkpt>
      <trkpt lat="42.235916" lon="1.713962">
        <ele>1930.518</ele>
        <time>2018-09-22T13:10:32Z</time>
      </trkpt>
      <trkpt lat="42.235917" lon="1.713965">
        <ele>1930.384</ele>
        <time>2018-09-22T13:10:33Z</time>
      </trkpt>
      <trkpt lat="42.235925" lon="1.713971">
        <ele>1930.034</ele>
        <time>2018-09-22T13:10:36Z</time>
      </trkpt>
      <trkpt lat="42.235936" lon="1.713996">
        <ele>1928.676</ele>
        <time>2018-09-22T13:10:42Z</time>
      </trkpt>
      <trkpt lat="42.235940" lon="1.714026">
        <ele>1927.088</ele>
        <time>2018-09-22T13:10:45Z</time>
      </trkpt>
      <trkpt lat="42.235942" lon="1.714037">
        <ele>1926.459</ele>
        <time>2018-09-22T13:10:46Z</time>
      </trkpt>
      <trkpt lat="42.235910" lon="1.714072">
        <ele>1924.203</ele>
        <time>2018-09-22T13:10:52Z</time>
      </trkpt>
      <trkpt lat="42.235906" lon="1.714077">
        <ele>1923.923</ele>
        <time>2018-09-22T13:10:53Z</time>
      </trkpt>
      <trkpt lat="42.235906" lon="1.714093">
        <ele>1923.008</ele>
        <time>2018-09-22T13:10:55Z</time>
      </trkpt>
      <trkpt lat="42.235906" lon="1.714131">
        <ele>1920.837</ele>
        <time>2018-09-22T13:10:58Z</time>
      </trkpt>
      <trkpt lat="42.235901" lon="1.714158">
        <ele>1919.283</ele>
        <time>2018-09-22T13:11:00Z</time>
      </trkpt>
      <trkpt lat="42.235909" lon="1.714180">
        <ele>1918.164</ele>
        <time>2018-09-22T13:11:02Z</time>
      </trkpt>
      <trkpt lat="42.235912" lon="1.714185">
        <ele>1917.968</ele>
        <time>2018-09-22T13:11:03Z</time>
      </trkpt>
      <trkpt lat="42.235917" lon="1.714186">
        <ele>1918.064</ele>
        <time>2018-09-22T13:11:04Z</time>
      </trkpt>
      <trkpt lat="42.235941" lon="1.714201">
        <ele>1917.614</ele>
        <time>2018-09-22T13:11:08Z</time>
      </trkpt>
      <trkpt lat="42.235942" lon="1.714234">
        <ele>1916.126</ele>
        <time>2018-09-22T13:11:12Z</time>
      </trkpt>
      <trkpt lat="42.235940" lon="1.714247">
        <ele>1915.528</ele>
        <time>2018-09-22T13:11:13Z</time>
      </trkpt>
      <trkpt lat="42.235932" lon="1.714260">
        <ele>1914.813</ele>
        <time>2018-09-22T13:11:14Z</time>
      </trkpt>
      <trkpt lat="42.235934" lon="1.714286">
        <ele>1913.643</ele>
        <time>2018-09-22T13:11:16Z</time>
      </trkpt>
      <trkpt lat="42.235960" lon="1.714316">
        <ele>1912.807</ele>
        <time>2018-09-22T13:11:19Z</time>
      </trkpt>
      <trkpt lat="42.235952" lon="1.714341">
        <ele>1911.508</ele>
        <time>2018-09-22T13:11:22Z</time>
      </trkpt>
      <trkpt lat="42.235954" lon="1.714389">
        <ele>1909.523</ele>
        <time>2018-09-22T13:11:25Z</time>
      </trkpt>
      <trkpt lat="42.235949" lon="1.714395">
        <ele>1909.199</ele>
        <time>2018-09-22T13:11:26Z</time>
      </trkpt>
      <trkpt lat="42.235919" lon="1.714425">
        <ele>1907.020</ele>
        <time>2018-09-22T13:11:31Z</time>
      </trkpt>
      <trkpt lat="42.235886" lon="1.714437">
        <ele>1905.634</ele>
        <time>2018-09-22T13:11:34Z</time>
      </trkpt>
      <trkpt lat="42.235880" lon="1.714442">
        <ele>1905.250</ele>
        <time>2018-09-22T13:11:35Z</time>
      </trkpt>
      <trkpt lat="42.235870" lon="1.714458">
        <ele>1904.380</ele>
        <time>2018-09-22T13:11:37Z</time>
      </trkpt>
      <trkpt lat="42.235848" lon="1.714469">
        <ele>1903.272</ele>
        <time>2018-09-22T13:11:40Z</time>
      </trkpt>
      <trkpt lat="42.235842" lon="1.714475">
        <ele>1902.834</ele>
        <time>2018-09-22T13:11:41Z</time>
      </trkpt>
      <trkpt lat="42.235832" lon="1.714500">
        <ele>1901.382</ele>
        <time>2018-09-22T13:11:45Z</time>
      </trkpt>
      <trkpt lat="42.235822" lon="1.714513">
        <ele>1900.643</ele>
        <time>2018-09-22T13:11:47Z</time>
      </trkpt>
      <trkpt lat="42.235824" lon="1.714523">
        <ele>1900.117</ele>
        <time>2018-09-22T13:11:49Z</time>
      </trkpt>
      <trkpt lat="42.235857" lon="1.714531">
        <ele>1900.608</ele>
        <time>2018-09-22T13:11:52Z</time>
      </trkpt>
      <trkpt lat="42.235871" lon="1.714536">
        <ele>1900.880</ele>
        <time>2018-09-22T13:11:54Z</time>
      </trkpt>
      <trkpt lat="42.235899" lon="1.714530">
        <ele>1902.036</ele>
        <time>2018-09-22T13:12:01Z</time>
      </trkpt>
      <trkpt lat="42.235920" lon="1.714556">
        <ele>1901.587</ele>
        <time>2018-09-22T13:12:05Z</time>
      </trkpt>
      <trkpt lat="42.235901" lon="1.714576">
        <ele>1900.181</ele>
        <time>2018-09-22T13:12:08Z</time>
      </trkpt>
      <trkpt lat="42.235899" lon="1.714587">
        <ele>1899.537</ele>
        <time>2018-09-22T13:12:10Z</time>
      </trkpt>
      <trkpt lat="42.235886" lon="1.714607">
        <ele>1898.297</ele>
        <time>2018-09-22T13:12:14Z</time>
      </trkpt>
      <trkpt lat="42.235868" lon="1.714645">
        <ele>1895.929</ele>
        <time>2018-09-22T13:12:18Z</time>
      </trkpt>
      <trkpt lat="42.235861" lon="1.714645">
        <ele>1895.631</ele>
        <time>2018-09-22T13:12:19Z</time>
      </trkpt>
      <trkpt lat="42.235833" lon="1.714670">
        <ele>1893.485</ele>
        <time>2018-09-22T13:12:23Z</time>
      </trkpt>
      <trkpt lat="42.235816" lon="1.714669">
        <ele>1893.289</ele>
        <time>2018-09-22T13:12:28Z</time>
      </trkpt>
      <trkpt lat="42.235807" lon="1.714710">
        <ele>1891.217</ele>
        <time>2018-09-22T13:12:33Z</time>
      </trkpt>
      <trkpt lat="42.235804" lon="1.714737">
        <ele>1890.008</ele>
        <time>2018-09-22T13:12:35Z</time>
      </trkpt>
      <trkpt lat="42.235800" lon="1.714751">
        <ele>1889.430</ele>
        <time>2018-09-22T13:12:36Z</time>
      </trkpt>
      <trkpt lat="42.235792" lon="1.714788">
        <ele>1887.886</ele>
        <time>2018-09-22T13:12:38Z</time>
      </trkpt>
      <trkpt lat="42.235788" lon="1.714805">
        <ele>1887.177</ele>
        <time>2018-09-22T13:12:40Z</time>
      </trkpt>
      <trkpt lat="42.235786" lon="1.714818">
        <ele>1886.511</ele>
        <time>2018-09-22T13:12:42Z</time>
      </trkpt>
      <trkpt lat="42.235785" lon="1.714827">
        <ele>1886.257</ele>
        <time>2018-09-22T13:12:43Z</time>
      </trkpt>
      <trkpt lat="42.235760" lon="1.714842">
        <ele>1885.287</ele>
        <time>2018-09-22T13:12:49Z</time>
      </trkpt>
      <trkpt lat="42.235756" lon="1.714877">
        <ele>1883.789</ele>
        <time>2018-09-22T13:12:54Z</time>
      </trkpt>
      <trkpt lat="42.235746" lon="1.714892">
        <ele>1882.991</ele>
        <time>2018-09-22T13:12:59Z</time>
      </trkpt>
      <trkpt lat="42.235746" lon="1.714918">
        <ele>1881.897</ele>
        <time>2018-09-22T13:13:06Z</time>
      </trkpt>
      <trkpt lat="42.235741" lon="1.714943">
        <ele>1880.723</ele>
        <time>2018-09-22T13:13:09Z</time>
      </trkpt>
      <trkpt lat="42.235733" lon="1.714944">
        <ele>1880.525</ele>
        <time>2018-09-22T13:13:11Z</time>
      </trkpt>
      <trkpt lat="42.235730" lon="1.714950">
        <ele>1880.208</ele>
        <time>2018-09-22T13:13:12Z</time>
      </trkpt>
      <trkpt lat="42.235710" lon="1.714963">
        <ele>1879.331</ele>
        <time>2018-09-22T13:13:16Z</time>
      </trkpt>
      <trkpt lat="42.235688" lon="1.714953">
        <ele>1879.447</ele>
        <time>2018-09-22T13:13:20Z</time>
      </trkpt>
      <trkpt lat="42.235670" lon="1.714964">
        <ele>1878.688</ele>
        <time>2018-09-22T13:13:22Z</time>
      </trkpt>
      <trkpt lat="42.235676" lon="1.714987">
        <ele>1877.772</ele>
        <time>2018-09-22T13:13:26Z</time>
      </trkpt>
      <trkpt lat="42.235676" lon="1.715015">
        <ele>1876.388</ele>
        <time>2018-09-22T13:13:30Z</time>
      </trkpt>
      <trkpt lat="42.235645" lon="1.715023">
        <ele>1875.238</ele>
        <time>2018-09-22T13:13:35Z</time>
      </trkpt>
      <trkpt lat="42.235633" lon="1.715026">
        <ele>1874.890</ele>
        <time>2018-09-22T13:13:40Z</time>
      </trkpt>
      <trkpt lat="42.235615" lon="1.715058">
        <ele>1872.642</ele>
        <time>2018-09-22T13:13:45Z</time>
      </trkpt>
      <trkpt lat="42.235595" lon="1.715078">
        <ele>1871.098</ele>
        <time>2018-09-22T13:13:49Z</time>
      </trkpt>
      <trkpt lat="42.235591" lon="1.715091">
        <ele>1870.115</ele>
        <time>2018-09-22T13:13:53Z</time>
      </trkpt>
      <trkpt lat="42.235596" lon="1.715108">
        <ele>1869.226</ele>
        <time>2018-09-22T13:13:57Z</time>
      </trkpt>
      <trkpt lat="42.235616" lon="1.715174">
        <ele>1865.808</ele>
        <time>2018-09-22T13:14:00Z</time>
      </trkpt>
      <trkpt lat="42.235585" lon="1.715159">
        <ele>1865.911</ele>
        <time>2018-09-22T13:14:06Z</time>
      </trkpt>
      <trkpt lat="42.235575" lon="1.715193">
        <ele>1863.677</ele>
        <time>2018-09-22T13:14:11Z</time>
      </trkpt>
      <trkpt lat="42.235538" lon="1.715197">
        <ele>1862.528</ele>
        <time>2018-09-22T13:14:16Z</time>
      </trkpt>
      <trkpt lat="42.235532" lon="1.715189">
        <ele>1862.822</ele>
        <time>2018-09-22T13:14:17Z</time>
      </trkpt>
      <trkpt lat="42.235513" lon="1.715179">
        <ele>1862.878</ele>
        <time>2018-09-22T13:14:20Z</time>
      </trkpt>
      <trkpt lat="42.235493" lon="1.715205">
        <ele>1860.868</ele>
        <time>2018-09-22T13:14:24Z</time>
      </trkpt>
      <trkpt lat="42.235486" lon="1.715229">
        <ele>1859.320</ele>
        <time>2018-09-22T13:14:29Z</time>
      </trkpt>
      <trkpt lat="42.235482" lon="1.715251">
        <ele>1857.982</ele>
        <time>2018-09-22T13:14:35Z</time>
      </trkpt>
      <trkpt lat="42.235457" lon="1.715236">
        <ele>1858.251</ele>
        <time>2018-09-22T13:14:40Z</time>
      </trkpt>
      <trkpt lat="42.235422" lon="1.715235">
        <ele>1857.401</ele>
        <time>2018-09-22T13:14:48Z</time>
      </trkpt>
      <trkpt lat="42.235401" lon="1.715205">
        <ele>1858.511</ele>
        <time>2018-09-22T13:14:54Z</time>
      </trkpt>
      <trkpt lat="42.235373" lon="1.715235">
        <ele>1856.308</ele>
        <time>2018-09-22T13:15:02Z</time>
      </trkpt>
      <trkpt lat="42.235368" lon="1.715231">
        <ele>1856.357</ele>
        <time>2018-09-22T13:15:03Z</time>
      </trkpt>
      <trkpt lat="42.235363" lon="1.715225">
        <ele>1856.593</ele>
        <time>2018-09-22T13:15:04Z</time>
      </trkpt>
      <trkpt lat="42.235353" lon="1.715243">
        <ele>1855.384</ele>
        <time>2018-09-22T13:15:07Z</time>
      </trkpt>
      <trkpt lat="42.235333" lon="1.715252">
        <ele>1854.428</ele>
        <time>2018-09-22T13:15:09Z</time>
      </trkpt>
      <trkpt lat="42.235324" lon="1.715261">
        <ele>1853.864</ele>
        <time>2018-09-22T13:15:10Z</time>
      </trkpt>
      <trkpt lat="42.235301" lon="1.715269">
        <ele>1852.954</ele>
        <time>2018-09-22T13:15:13Z</time>
      </trkpt>
      <trkpt lat="42.235298" lon="1.715273">
        <ele>1852.626</ele>
        <time>2018-09-22T13:15:14Z</time>
      </trkpt>
      <trkpt lat="42.235297" lon="1.715290">
        <ele>1851.898</ele>
        <time>2018-09-22T13:15:17Z</time>
      </trkpt>
      <trkpt lat="42.235285" lon="1.715304">
        <ele>1850.955</ele>
        <time>2018-09-22T13:15:20Z</time>
      </trkpt>
      <trkpt lat="42.235290" lon="1.715336">
        <ele>1849.507</ele>
        <time>2018-09-22T13:15:26Z</time>
      </trkpt>
      <trkpt lat="42.235288" lon="1.715340">
        <ele>1849.317</ele>
        <time>2018-09-22T13:15:27Z</time>
      </trkpt>
      <trkpt lat="42.235288" lon="1.715358">
        <ele>1848.408</ele>
        <time>2018-09-22T13:15:29Z</time>
      </trkpt>
      <trkpt lat="42.235287" lon="1.715366">
        <ele>1848.047</ele>
        <time>2018-09-22T13:15:30Z</time>
      </trkpt>
      <trkpt lat="42.235298" lon="1.715387">
        <ele>1847.313</ele>
        <time>2018-09-22T13:15:35Z</time>
      </trkpt>
      <trkpt lat="42.235333" lon="1.715396">
        <ele>1847.644</ele>
        <time>2018-09-22T13:15:42Z</time>
      </trkpt>
      <trkpt lat="42.235338" lon="1.715430">
        <ele>1846.188</ele>
        <time>2018-09-22T13:15:45Z</time>
      </trkpt>
      <trkpt lat="42.235352" lon="1.715438">
        <ele>1846.014</ele>
        <time>2018-09-22T13:15:46Z</time>
      </trkpt>
      <trkpt lat="42.235364" lon="1.715449">
        <ele>1845.864</ele>
        <time>2018-09-22T13:15:47Z</time>
      </trkpt>
      <trkpt lat="42.235401" lon="1.715463">
        <ele>1846.096</ele>
        <time>2018-09-22T13:15:50Z</time>
      </trkpt>
      <trkpt lat="42.235423" lon="1.715483">
        <ele>1845.518</ele>
        <time>2018-09-22T13:15:52Z</time>
      </trkpt>
      <trkpt lat="42.235413" lon="1.715526">
        <ele>1843.312</ele>
        <time>2018-09-22T13:15:55Z</time>
      </trkpt>
      <trkpt lat="42.235406" lon="1.715542">
        <ele>1842.332</ele>
        <time>2018-09-22T13:15:56Z</time>
      </trkpt>
      <trkpt lat="42.235405" lon="1.715556">
        <ele>1841.705</ele>
        <time>2018-09-22T13:15:57Z</time>
      </trkpt>
      <trkpt lat="42.235405" lon="1.715589">
        <ele>1840.408</ele>
        <time>2018-09-22T13:15:59Z</time>
      </trkpt>
      <trkpt lat="42.235402" lon="1.715622">
        <ele>1839.143</ele>
        <time>2018-09-22T13:16:01Z</time>
      </trkpt>
      <trkpt lat="42.235399" lon="1.715636">
        <ele>1838.579</ele>
        <time>2018-09-22T13:16:02Z</time>
      </trkpt>
      <trkpt lat="42.235392" lon="1.715657">
        <ele>1837.620</ele>
        <time>2018-09-22T13:16:04Z</time>
      </trkpt>
      <trkpt lat="42.235376" lon="1.715652">
        <ele>1837.434</ele>
        <time>2018-09-22T13:16:06Z</time>
      </trkpt>
      <trkpt lat="42.235369" lon="1.715656">
        <ele>1837.170</ele>
        <time>2018-09-22T13:16:07Z</time>
      </trkpt>
      <trkpt lat="42.235362" lon="1.715673">
        <ele>1836.240</ele>
        <time>2018-09-22T13:16:09Z</time>
      </trkpt>
      <trkpt lat="42.235367" lon="1.715684">
        <ele>1835.942</ele>
        <time>2018-09-22T13:16:10Z</time>
      </trkpt>
      <trkpt lat="42.235366" lon="1.715702">
        <ele>1835.244</ele>
        <time>2018-09-22T13:16:12Z</time>
      </trkpt>
      <trkpt lat="42.235356" lon="1.715709">
        <ele>1834.757</ele>
        <time>2018-09-22T13:16:13Z</time>
      </trkpt>
      <trkpt lat="42.235341" lon="1.715741">
        <ele>1833.100</ele>
        <time>2018-09-22T13:16:16Z</time>
      </trkpt>
      <trkpt lat="42.235350" lon="1.715758">
        <ele>1832.720</ele>
        <time>2018-09-22T13:16:17Z</time>
      </trkpt>
      <trkpt lat="42.235355" lon="1.715772">
        <ele>1832.208</ele>
        <time>2018-09-22T13:16:18Z</time>
      </trkpt>
      <trkpt lat="42.235355" lon="1.715798">
        <ele>1831.367</ele>
        <time>2018-09-22T13:16:20Z</time>
      </trkpt>
      <trkpt lat="42.235353" lon="1.715816">
        <ele>1830.573</ele>
        <time>2018-09-22T13:16:22Z</time>
      </trkpt>
      <trkpt lat="42.235349" lon="1.715843">
        <ele>1829.394</ele>
        <time>2018-09-22T13:16:24Z</time>
      </trkpt>
      <trkpt lat="42.235361" lon="1.715856">
        <ele>1829.168</ele>
        <time>2018-09-22T13:16:26Z</time>
      </trkpt>
      <trkpt lat="42.235369" lon="1.715900">
        <ele>1827.524</ele>
        <time>2018-09-22T13:16:29Z</time>
      </trkpt>
      <trkpt lat="42.235375" lon="1.715917">
        <ele>1827.094</ele>
        <time>2018-09-22T13:16:30Z</time>
      </trkpt>
      <trkpt lat="42.235380" lon="1.715934">
        <ele>1826.486</ele>
        <time>2018-09-22T13:16:31Z</time>
      </trkpt>
      <trkpt lat="42.235373" lon="1.715945">
        <ele>1825.848</ele>
        <time>2018-09-22T13:16:33Z</time>
      </trkpt>
      <trkpt lat="42.235374" lon="1.715966">
        <ele>1825.098</ele>
        <time>2018-09-22T13:16:36Z</time>
      </trkpt>
      <trkpt lat="42.235376" lon="1.715979">
        <ele>1824.515</ele>
        <time>2018-09-22T13:16:37Z</time>
      </trkpt>
      <trkpt lat="42.235374" lon="1.715990">
        <ele>1824.026</ele>
        <time>2018-09-22T13:16:38Z</time>
      </trkpt>
      <trkpt lat="42.235353" lon="1.716009">
        <ele>1822.708</ele>
        <time>2018-09-22T13:16:41Z</time>
      </trkpt>
      <trkpt lat="42.235344" lon="1.716011">
        <ele>1822.481</ele>
        <time>2018-09-22T13:16:42Z</time>
      </trkpt>
      <trkpt lat="42.235330" lon="1.716022">
        <ele>1821.777</ele>
        <time>2018-09-22T13:16:44Z</time>
      </trkpt>
      <trkpt lat="42.235322" lon="1.716025">
        <ele>1821.418</ele>
        <time>2018-09-22T13:16:45Z</time>
      </trkpt>
      <trkpt lat="42.235279" lon="1.716046">
        <ele>1819.592</ele>
        <time>2018-09-22T13:16:49Z</time>
      </trkpt>
      <trkpt lat="42.235260" lon="1.716084">
        <ele>1818.678</ele>
        <time>2018-09-22T13:16:53Z</time>
      </trkpt>
      <trkpt lat="42.235314" lon="1.716134">
        <ele>1816.838</ele>
        <time>2018-09-22T13:16:57Z</time>
      </trkpt>
      <trkpt lat="42.235311" lon="1.716144">
        <ele>1816.490</ele>
        <time>2018-09-22T13:16:58Z</time>
      </trkpt>
      <trkpt lat="42.235299" lon="1.716163">
        <ele>1815.412</ele>
        <time>2018-09-22T13:17:01Z</time>
      </trkpt>
      <trkpt lat="42.235305" lon="1.716202">
        <ele>1814.046</ele>
        <time>2018-09-22T13:17:07Z</time>
      </trkpt>
      <trkpt lat="42.235304" lon="1.716246">
        <ele>1812.388</ele>
        <time>2018-09-22T13:17:11Z</time>
      </trkpt>
      <trkpt lat="42.235281" lon="1.716285">
        <ele>1810.716</ele>
        <time>2018-09-22T13:17:14Z</time>
      </trkpt>
      <trkpt lat="42.235295" lon="1.716323">
        <ele>1809.308</ele>
        <time>2018-09-22T13:17:16Z</time>
      </trkpt>
      <trkpt lat="42.235316" lon="1.716356">
        <ele>1808.046</ele>
        <time>2018-09-22T13:17:18Z</time>
      </trkpt>
      <trkpt lat="42.235339" lon="1.716400">
        <ele>1806.162</ele>
        <time>2018-09-22T13:17:20Z</time>
      </trkpt>
      <trkpt lat="42.235365" lon="1.716425">
        <ele>1804.933</ele>
        <time>2018-09-22T13:17:22Z</time>
      </trkpt>
      <trkpt lat="42.235385" lon="1.716435">
        <ele>1804.377</ele>
        <time>2018-09-22T13:17:24Z</time>
      </trkpt>
      <trkpt lat="42.235391" lon="1.716447">
        <ele>1803.833</ele>
        <time>2018-09-22T13:17:25Z</time>
      </trkpt>
      <trkpt lat="42.235392" lon="1.716471">
        <ele>1802.823</ele>
        <time>2018-09-22T13:17:27Z</time>
      </trkpt>
      <trkpt lat="42.235417" lon="1.716480">
        <ele>1802.295</ele>
        <time>2018-09-22T13:17:29Z</time>
      </trkpt>
      <trkpt lat="42.235428" lon="1.716504">
        <ele>1801.097</ele>
        <time>2018-09-22T13:17:31Z</time>
      </trkpt>
      <trkpt lat="42.235428" lon="1.716515">
        <ele>1800.665</ele>
        <time>2018-09-22T13:17:32Z</time>
      </trkpt>
      <trkpt lat="42.235428" lon="1.716543">
        <ele>1799.468</ele>
        <time>2018-09-22T13:17:34Z</time>
      </trkpt>
      <trkpt lat="42.235431" lon="1.716558">
        <ele>1798.814</ele>
        <time>2018-09-22T13:17:35Z</time>
      </trkpt>
      <trkpt lat="42.235461" lon="1.716574">
        <ele>1797.608</ele>
        <time>2018-09-22T13:17:38Z</time>
      </trkpt>
      <trkpt lat="42.235474" lon="1.716572">
        <ele>1797.668</ele>
        <time>2018-09-22T13:17:39Z</time>
      </trkpt>
      <trkpt lat="42.235486" lon="1.716576">
        <ele>1797.274</ele>
        <time>2018-09-22T13:17:40Z</time>
      </trkpt>
      <trkpt lat="42.235505" lon="1.716589">
        <ele>1796.395</ele>
        <time>2018-09-22T13:17:42Z</time>
      </trkpt>
      <trkpt lat="42.235509" lon="1.716605">
        <ele>1795.689</ele>
        <time>2018-09-22T13:17:44Z</time>
      </trkpt>
      <trkpt lat="42.235519" lon="1.716632">
        <ele>1794.255</ele>
        <time>2018-09-22T13:17:46Z</time>
      </trkpt>
      <trkpt lat="42.235520" lon="1.716647">
        <ele>1793.515</ele>
        <time>2018-09-22T13:17:47Z</time>
      </trkpt>
      <trkpt lat="42.235532" lon="1.716656">
        <ele>1792.997</ele>
        <time>2018-09-22T13:17:49Z</time>
      </trkpt>
      <trkpt lat="42.235541" lon="1.716651">
        <ele>1792.919</ele>
        <time>2018-09-22T13:17:50Z</time>
      </trkpt>
      <trkpt lat="42.235556" lon="1.716658">
        <ele>1792.366</ele>
        <time>2018-09-22T13:17:52Z</time>
      </trkpt>
      <trkpt lat="42.235569" lon="1.716668">
        <ele>1791.829</ele>
        <time>2018-09-22T13:17:54Z</time>
      </trkpt>
      <trkpt lat="42.235580" lon="1.716671">
        <ele>1791.521</ele>
        <time>2018-09-22T13:17:55Z</time>
      </trkpt>
      <trkpt lat="42.235599" lon="1.716674">
        <ele>1791.208</ele>
        <time>2018-09-22T13:17:59Z</time>
      </trkpt>
      <trkpt lat="42.235620" lon="1.716682">
        <ele>1790.758</ele>
        <time>2018-09-22T13:18:02Z</time>
      </trkpt>
      <trkpt lat="42.235655" lon="1.716698">
        <ele>1789.664</ele>
        <time>2018-09-22T13:18:05Z</time>
      </trkpt>
      <trkpt lat="42.235683" lon="1.716732">
        <ele>1788.085</ele>
        <time>2018-09-22T13:18:08Z</time>
      </trkpt>
      <trkpt lat="42.235702" lon="1.716739">
        <ele>1787.589</ele>
        <time>2018-09-22T13:18:10Z</time>
      </trkpt>
      <trkpt lat="42.235712" lon="1.716743">
        <ele>1787.295</ele>
        <time>2018-09-22T13:18:11Z</time>
      </trkpt>
      <trkpt lat="42.235723" lon="1.716748">
        <ele>1786.985</ele>
        <time>2018-09-22T13:18:13Z</time>
      </trkpt>
      <trkpt lat="42.235724" lon="1.716748">
        <ele>1786.997</ele>
        <time>2018-09-22T13:18:14Z</time>
      </trkpt>
      <trkpt lat="42.235729" lon="1.716745">
        <ele>1787.069</ele>
        <time>2018-09-22T13:18:20Z</time>
      </trkpt>
      <trkpt lat="42.235754" lon="1.716775">
        <ele>1785.563</ele>
        <time>2018-09-22T13:18:26Z</time>
      </trkpt>
      <trkpt lat="42.235777" lon="1.716799">
        <ele>1784.344</ele>
        <time>2018-09-22T13:18:29Z</time>
      </trkpt>
      <trkpt lat="42.235813" lon="1.716827">
        <ele>1782.818</ele>
        <time>2018-09-22T13:18:33Z</time>
      </trkpt>
      <trkpt lat="42.235823" lon="1.716836">
        <ele>1782.408</ele>
        <time>2018-09-22T13:18:34Z</time>
      </trkpt>
      <trkpt lat="42.235869" lon="1.716867">
        <ele>1781.858</ele>
        <time>2018-09-22T13:18:37Z</time>
      </trkpt>
      <trkpt lat="42.235880" lon="1.716873">
        <ele>1781.974</ele>
        <time>2018-09-22T13:18:38Z</time>
      </trkpt>
      <trkpt lat="42.235886" lon="1.716873">
        <ele>1782.025</ele>
        <time>2018-09-22T13:18:39Z</time>
      </trkpt>
      <trkpt lat="42.235894" lon="1.716873">
        <ele>1782.219</ele>
        <time>2018-09-22T13:18:40Z</time>
      </trkpt>
      <trkpt lat="42.235907" lon="1.716875">
        <ele>1782.465</ele>
        <time>2018-09-22T13:18:42Z</time>
      </trkpt>
      <trkpt lat="42.235926" lon="1.716892">
        <ele>1782.175</ele>
        <time>2018-09-22T13:18:44Z</time>
      </trkpt>
      <trkpt lat="42.235935" lon="1.716905">
        <ele>1781.887</ele>
        <time>2018-09-22T13:18:45Z</time>
      </trkpt>
      <trkpt lat="42.235942" lon="1.716911">
        <ele>1781.739</ele>
        <time>2018-09-22T13:18:46Z</time>
      </trkpt>
      <trkpt lat="42.235956" lon="1.716913">
        <ele>1781.964</ele>
        <time>2018-09-22T13:18:48Z</time>
      </trkpt>
      <trkpt lat="42.235987" lon="1.716900">
        <ele>1783.206</ele>
        <time>2018-09-22T13:18:51Z</time>
      </trkpt>
      <trkpt lat="42.236012" lon="1.716916">
        <ele>1783.116</ele>
        <time>2018-09-22T13:18:54Z</time>
      </trkpt>
      <trkpt lat="42.236019" lon="1.716927">
        <ele>1782.708</ele>
        <time>2018-09-22T13:18:55Z</time>
      </trkpt>
      <trkpt lat="42.236026" lon="1.716938">
        <ele>1782.428</ele>
        <time>2018-09-22T13:18:56Z</time>
      </trkpt>
      <trkpt lat="42.236049" lon="1.716953">
        <ele>1782.324</ele>
        <time>2018-09-22T13:18:58Z</time>
      </trkpt>
      <trkpt lat="42.236132" lon="1.717067">
        <ele>1780.295</ele>
        <time>2018-09-22T13:19:05Z</time>
      </trkpt>
      <trkpt lat="42.236162" lon="1.717127">
        <ele>1779.449</ele>
        <time>2018-09-22T13:19:08Z</time>
      </trkpt>
      <trkpt lat="42.236176" lon="1.717135">
        <ele>1779.835</ele>
        <time>2018-09-22T13:19:09Z</time>
      </trkpt>
      <trkpt lat="42.236187" lon="1.717136">
        <ele>1780.325</ele>
        <time>2018-09-22T13:19:10Z</time>
      </trkpt>
      <trkpt lat="42.236193" lon="1.717140">
        <ele>1780.537</ele>
        <time>2018-09-22T13:19:11Z</time>
      </trkpt>
      <trkpt lat="42.236199" lon="1.717143">
        <ele>1780.879</ele>
        <time>2018-09-22T13:19:12Z</time>
      </trkpt>
      <trkpt lat="42.236204" lon="1.717151">
        <ele>1780.797</ele>
        <time>2018-09-22T13:19:13Z</time>
      </trkpt>
      <trkpt lat="42.236213" lon="1.717159">
        <ele>1780.823</ele>
        <time>2018-09-22T13:19:14Z</time>
      </trkpt>
      <trkpt lat="42.236227" lon="1.717202">
        <ele>1780.025</ele>
        <time>2018-09-22T13:19:16Z</time>
      </trkpt>
      <trkpt lat="42.236242" lon="1.717269">
        <ele>1778.708</ele>
        <time>2018-09-22T13:19:18Z</time>
      </trkpt>
      <trkpt lat="42.236268" lon="1.717387">
        <ele>1776.611</ele>
        <time>2018-09-22T13:19:22Z</time>
      </trkpt>
      <trkpt lat="42.236280" lon="1.717468">
        <ele>1775.057</ele>
        <time>2018-09-22T13:19:25Z</time>
      </trkpt>
      <trkpt lat="42.236300" lon="1.717538">
        <ele>1774.198</ele>
        <time>2018-09-22T13:19:28Z</time>
      </trkpt>
      <trkpt lat="42.236338" lon="1.717596">
        <ele>1774.542</ele>
        <time>2018-09-22T13:19:32Z</time>
      </trkpt>
      <trkpt lat="42.236349" lon="1.717684">
        <ele>1772.688</ele>
        <time>2018-09-22T13:19:41Z</time>
      </trkpt>
      <trkpt lat="42.236351" lon="1.717702">
        <ele>1772.258</ele>
        <time>2018-09-22T13:19:42Z</time>
      </trkpt>
      <trkpt lat="42.236371" lon="1.717745">
        <ele>1772.030</ele>
        <time>2018-09-22T13:19:45Z</time>
      </trkpt>
      <trkpt lat="42.236382" lon="1.717759">
        <ele>1772.142</ele>
        <time>2018-09-22T13:19:46Z</time>
      </trkpt>
      <trkpt lat="42.236403" lon="1.717776">
        <ele>1772.742</ele>
        <time>2018-09-22T13:19:48Z</time>
      </trkpt>
      <trkpt lat="42.236440" lon="1.717794">
        <ele>1774.022</ele>
        <time>2018-09-22T13:19:52Z</time>
      </trkpt>
      <trkpt lat="42.236448" lon="1.717805">
        <ele>1774.014</ele>
        <time>2018-09-22T13:19:53Z</time>
      </trkpt>
      <trkpt lat="42.236483" lon="1.717877">
        <ele>1773.508</ele>
        <time>2018-09-22T13:19:56Z</time>
      </trkpt>
      <trkpt lat="42.236537" lon="1.718066">
        <ele>1770.196</ele>
        <time>2018-09-22T13:20:02Z</time>
      </trkpt>
      <trkpt lat="42.236590" lon="1.718245">
        <ele>1766.432</ele>
        <time>2018-09-22T13:20:08Z</time>
      </trkpt>
      <trkpt lat="42.236614" lon="1.718341">
        <ele>1764.233</ele>
        <time>2018-09-22T13:20:12Z</time>
      </trkpt>
      <trkpt lat="42.236629" lon="1.718394">
        <ele>1763.057</ele>
        <time>2018-09-22T13:20:15Z</time>
      </trkpt>
      <trkpt lat="42.236659" lon="1.718482">
        <ele>1761.253</ele>
        <time>2018-09-22T13:20:20Z</time>
      </trkpt>
      <trkpt lat="42.236670" lon="1.718493">
        <ele>1761.443</ele>
        <time>2018-09-22T13:20:21Z</time>
      </trkpt>
      <trkpt lat="42.236680" lon="1.718507">
        <ele>1761.445</ele>
        <time>2018-09-22T13:20:22Z</time>
      </trkpt>
      <trkpt lat="42.236705" lon="1.718536">
        <ele>1761.577</ele>
        <time>2018-09-22T13:20:24Z</time>
      </trkpt>
      <trkpt lat="42.236768" lon="1.718658">
        <ele>1760.022</ele>
        <time>2018-09-22T13:20:30Z</time>
      </trkpt>
      <trkpt lat="42.236793" lon="1.718715">
        <ele>1759.062</ele>
        <time>2018-09-22T13:20:33Z</time>
      </trkpt>
      <trkpt lat="42.236814" lon="1.718738">
        <ele>1759.008</ele>
        <time>2018-09-22T13:20:35Z</time>
      </trkpt>
      <trkpt lat="42.236844" lon="1.718756">
        <ele>1759.608</ele>
        <time>2018-09-22T13:20:39Z</time>
      </trkpt>
      <trkpt lat="42.236851" lon="1.718756">
        <ele>1759.944</ele>
        <time>2018-09-22T13:20:40Z</time>
      </trkpt>
      <trkpt lat="42.236861" lon="1.718748">
        <ele>1760.660</ele>
        <time>2018-09-22T13:20:41Z</time>
      </trkpt>
      <trkpt lat="42.236908" lon="1.718705">
        <ele>1764.321</ele>
        <time>2018-09-22T13:20:46Z</time>
      </trkpt>
      <trkpt lat="42.236916" lon="1.718696">
        <ele>1765.035</ele>
        <time>2018-09-22T13:20:48Z</time>
      </trkpt>
      <trkpt lat="42.236929" lon="1.718689">
        <ele>1765.991</ele>
        <time>2018-09-22T13:20:51Z</time>
      </trkpt>
      <trkpt lat="42.236979" lon="1.718721">
        <ele>1765.791</ele>
        <time>2018-09-22T13:20:58Z</time>
      </trkpt>
      <trkpt lat="42.237009" lon="1.718735">
        <ele>1765.593</ele>
        <time>2018-09-22T13:21:01Z</time>
      </trkpt>
      <trkpt lat="42.237015" lon="1.718751">
        <ele>1764.825</ele>
        <time>2018-09-22T13:21:02Z</time>
      </trkpt>
      <trkpt lat="42.237016" lon="1.718765">
        <ele>1764.138</ele>
        <time>2018-09-22T13:21:03Z</time>
      </trkpt>
      <trkpt lat="42.237052" lon="1.718850">
        <ele>1760.370</ele>
        <time>2018-09-22T13:21:10Z</time>
      </trkpt>
      <trkpt lat="42.237160" lon="1.718791">
        <ele>1764.317</ele>
        <time>2018-09-22T13:21:19Z</time>
      </trkpt>
      <trkpt lat="42.237176" lon="1.718797">
        <ele>1764.108</ele>
        <time>2018-09-22T13:21:20Z</time>
      </trkpt>
      <trkpt lat="42.237193" lon="1.718807">
        <ele>1763.725</ele>
        <time>2018-09-22T13:21:22Z</time>
      </trkpt>
      <trkpt lat="42.237207" lon="1.718811">
        <ele>1763.621</ele>
        <time>2018-09-22T13:21:23Z</time>
      </trkpt>
      <trkpt lat="42.237224" lon="1.718816">
        <ele>1763.532</ele>
        <time>2018-09-22T13:21:24Z</time>
      </trkpt>
      <trkpt lat="42.237252" lon="1.718872">
        <ele>1761.686</ele>
        <time>2018-09-22T13:21:26Z</time>
      </trkpt>
      <trkpt lat="42.237264" lon="1.718909">
        <ele>1760.062</ele>
        <time>2018-09-22T13:21:27Z</time>
      </trkpt>
      <trkpt lat="42.237308" lon="1.718976">
        <ele>1757.692</ele>
        <time>2018-09-22T13:21:30Z</time>
      </trkpt>
      <trkpt lat="42.237330" lon="1.718994">
        <ele>1757.314</ele>
        <time>2018-09-22T13:21:33Z</time>
      </trkpt>
      <trkpt lat="42.237340" lon="1.718997">
        <ele>1757.416</ele>
        <time>2018-09-22T13:21:35Z</time>
      </trkpt>
      <trkpt lat="42.237362" lon="1.719003">
        <ele>1757.911</ele>
        <time>2018-09-22T13:21:37Z</time>
      </trkpt>
      <trkpt lat="42.237376" lon="1.719010">
        <ele>1757.921</ele>
        <time>2018-09-22T13:21:38Z</time>
      </trkpt>
      <trkpt lat="42.237404" lon="1.719025">
        <ele>1757.703</ele>
        <time>2018-09-22T13:21:41Z</time>
      </trkpt>
      <trkpt lat="42.237416" lon="1.719037">
        <ele>1757.208</ele>
        <time>2018-09-22T13:21:42Z</time>
      </trkpt>
      <trkpt lat="42.237429" lon="1.719049">
        <ele>1756.653</ele>
        <time>2018-09-22T13:21:43Z</time>
      </trkpt>
      <trkpt lat="42.237479" lon="1.719061">
        <ele>1757.179</ele>
        <time>2018-09-22T13:21:48Z</time>
      </trkpt>
      <trkpt lat="42.237493" lon="1.719066">
        <ele>1757.120</ele>
        <time>2018-09-22T13:21:50Z</time>
      </trkpt>
      <trkpt lat="42.237559" lon="1.719105">
        <ele>1754.314</ele>
        <time>2018-09-22T13:21:55Z</time>
      </trkpt>
      <trkpt lat="42.237643" lon="1.719077">
        <ele>1758.040</ele>
        <time>2018-09-22T13:22:00Z</time>
      </trkpt>
      <trkpt lat="42.237749" lon="1.719090">
        <ele>1757.910</ele>
        <time>2018-09-22T13:22:08Z</time>
      </trkpt>
      <trkpt lat="42.237755" lon="1.719095">
        <ele>1757.462</ele>
        <time>2018-09-22T13:22:09Z</time>
      </trkpt>
      <trkpt lat="42.237765" lon="1.719088">
        <ele>1758.374</ele>
        <time>2018-09-22T13:22:11Z</time>
      </trkpt>
      <trkpt lat="42.237775" lon="1.719111">
        <ele>1755.942</ele>
        <time>2018-09-22T13:22:17Z</time>
      </trkpt>
      <trkpt lat="42.237807" lon="1.719170">
        <ele>1747.922</ele>
        <time>2018-09-22T13:22:22Z</time>
      </trkpt>
      <trkpt lat="42.237824" lon="1.719190">
        <ele>1745.014</ele>
        <time>2018-09-22T13:22:24Z</time>
      </trkpt>
      <trkpt lat="42.237859" lon="1.719192">
        <ele>1742.908</ele>
        <time>2018-09-22T13:22:28Z</time>
      </trkpt>
      <trkpt lat="42.237886" lon="1.719199">
        <ele>1740.736</ele>
        <time>2018-09-22T13:22:31Z</time>
      </trkpt>
      <trkpt lat="42.237905" lon="1.719191">
        <ele>1740.412</ele>
        <time>2018-09-22T13:22:33Z</time>
      </trkpt>
      <trkpt lat="42.237921" lon="1.719178">
        <ele>1740.763</ele>
        <time>2018-09-22T13:22:35Z</time>
      </trkpt>
      <trkpt lat="42.237959" lon="1.719176">
        <ele>1738.717</ele>
        <time>2018-09-22T13:22:39Z</time>
      </trkpt>
      <trkpt lat="42.237981" lon="1.719165">
        <ele>1738.493</ele>
        <time>2018-09-22T13:22:41Z</time>
      </trkpt>
      <trkpt lat="42.237992" lon="1.719152">
        <ele>1738.943</ele>
        <time>2018-09-22T13:22:42Z</time>
      </trkpt>
      <trkpt lat="42.238021" lon="1.719114">
        <ele>1740.355</ele>
        <time>2018-09-22T13:22:44Z</time>
      </trkpt>
      <trkpt lat="42.238048" lon="1.719100">
        <ele>1739.777</ele>
        <time>2018-09-22T13:22:46Z</time>
      </trkpt>
      <trkpt lat="42.238090" lon="1.719080">
        <ele>1738.785</ele>
        <time>2018-09-22T13:22:49Z</time>
      </trkpt>
      <trkpt lat="42.238096" lon="1.719065">
        <ele>1739.489</ele>
        <time>2018-09-22T13:22:50Z</time>
      </trkpt>
      <trkpt lat="42.238101" lon="1.719054">
        <ele>1740.017</ele>
        <time>2018-09-22T13:22:51Z</time>
      </trkpt>
      <trkpt lat="42.238114" lon="1.719034">
        <ele>1740.708</ele>
        <time>2018-09-22T13:22:54Z</time>
      </trkpt>
      <trkpt lat="42.238134" lon="1.718974">
        <ele>1743.930</ele>
        <time>2018-09-22T13:23:00Z</time>
      </trkpt>
      <trkpt lat="42.238145" lon="1.718940">
        <ele>1745.716</ele>
        <time>2018-09-22T13:23:02Z</time>
      </trkpt>
      <trkpt lat="42.238144" lon="1.718911">
        <ele>1748.017</ele>
        <time>2018-09-22T13:23:03Z</time>
      </trkpt>
      <trkpt lat="42.238135" lon="1.718878">
        <ele>1751.011</ele>
        <time>2018-09-22T13:23:05Z</time>
      </trkpt>
      <trkpt lat="42.238134" lon="1.718845">
        <ele>1753.557</ele>
        <time>2018-09-22T13:23:07Z</time>
      </trkpt>
      <trkpt lat="42.238139" lon="1.718829">
        <ele>1754.437</ele>
        <time>2018-09-22T13:23:09Z</time>
      </trkpt>
      <trkpt lat="42.238143" lon="1.718769">
        <ele>1758.419</ele>
        <time>2018-09-22T13:23:13Z</time>
      </trkpt>
      <trkpt lat="42.238181" lon="1.718746">
        <ele>1757.281</ele>
        <time>2018-09-22T13:23:18Z</time>
      </trkpt>
      <trkpt lat="42.238206" lon="1.718754">
        <ele>1754.713</ele>
        <time>2018-09-22T13:23:20Z</time>
      </trkpt>
      <trkpt lat="42.238228" lon="1.718761">
        <ele>1752.643</ele>
        <time>2018-09-22T13:23:22Z</time>
      </trkpt>
      <trkpt lat="42.238260" lon="1.718755">
        <ele>1750.607</ele>
        <time>2018-09-22T13:23:24Z</time>
      </trkpt>
      <trkpt lat="42.238290" lon="1.718758">
        <ele>1748.208</ele>
        <time>2018-09-22T13:23:28Z</time>
      </trkpt>
      <trkpt lat="42.238299" lon="1.718758">
        <ele>1747.473</ele>
        <time>2018-09-22T13:23:29Z</time>
      </trkpt>
      <trkpt lat="42.238335" lon="1.718753">
        <ele>1745.279</ele>
        <time>2018-09-22T13:23:33Z</time>
      </trkpt>
      <trkpt lat="42.238352" lon="1.718742">
        <ele>1745.580</ele>
        <time>2018-09-22T13:23:36Z</time>
      </trkpt>
      <trkpt lat="42.238436" lon="1.718759">
        <ele>1742.144</ele>
        <time>2018-09-22T13:23:43Z</time>
      </trkpt>
      <trkpt lat="42.238456" lon="1.718751">
        <ele>1742.020</ele>
        <time>2018-09-22T13:23:45Z</time>
      </trkpt>
      <trkpt lat="42.238476" lon="1.718737">
        <ele>1742.480</ele>
        <time>2018-09-22T13:23:47Z</time>
      </trkpt>
      <trkpt lat="42.238517" lon="1.718734">
        <ele>1741.512</ele>
        <time>2018-09-22T13:23:49Z</time>
      </trkpt>
      <trkpt lat="42.238541" lon="1.718728">
        <ele>1741.364</ele>
        <time>2018-09-22T13:23:51Z</time>
      </trkpt>
      <trkpt lat="42.238576" lon="1.718744">
        <ele>1739.344</ele>
        <time>2018-09-22T13:23:55Z</time>
      </trkpt>
      <trkpt lat="42.238586" lon="1.718738">
        <ele>1739.405</ele>
        <time>2018-09-22T13:23:56Z</time>
      </trkpt>
      <trkpt lat="42.238595" lon="1.718725">
        <ele>1740.015</ele>
        <time>2018-09-22T13:23:57Z</time>
      </trkpt>
      <trkpt lat="42.238621" lon="1.718701">
        <ele>1740.908</ele>
        <time>2018-09-22T13:24:00Z</time>
      </trkpt>
      <trkpt lat="42.238628" lon="1.718699">
        <ele>1740.816</ele>
        <time>2018-09-22T13:24:01Z</time>
      </trkpt>
      <trkpt lat="42.238656" lon="1.718637">
        <ele>1744.182</ele>
        <time>2018-09-22T13:24:04Z</time>
      </trkpt>
      <trkpt lat="42.238670" lon="1.718627">
        <ele>1744.343</ele>
        <time>2018-09-22T13:24:06Z</time>
      </trkpt>
      <trkpt lat="42.238688" lon="1.718622">
        <ele>1744.127</ele>
        <time>2018-09-22T13:24:08Z</time>
      </trkpt>
      <trkpt lat="42.238692" lon="1.718622">
        <ele>1743.943</ele>
        <time>2018-09-22T13:24:09Z</time>
      </trkpt>
      <trkpt lat="42.238728" lon="1.718597">
        <ele>1744.633</ele>
        <time>2018-09-22T13:24:12Z</time>
      </trkpt>
      <trkpt lat="42.238749" lon="1.718588">
        <ele>1744.635</ele>
        <time>2018-09-22T13:24:14Z</time>
      </trkpt>
      <trkpt lat="42.238761" lon="1.718586">
        <ele>1744.437</ele>
        <time>2018-09-22T13:24:15Z</time>
      </trkpt>
      <trkpt lat="42.238791" lon="1.718564">
        <ele>1745.147</ele>
        <time>2018-09-22T13:24:18Z</time>
      </trkpt>
      <trkpt lat="42.238826" lon="1.718548">
        <ele>1745.229</ele>
        <time>2018-09-22T13:24:22Z</time>
      </trkpt>
      <trkpt lat="42.238863" lon="1.718573">
        <ele>1742.321</ele>
        <time>2018-09-22T13:24:24Z</time>
      </trkpt>
      <trkpt lat="42.238887" lon="1.718597">
        <ele>1739.908</ele>
        <time>2018-09-22T13:24:26Z</time>
      </trkpt>
      <trkpt lat="42.238901" lon="1.718590">
        <ele>1740.036</ele>
        <time>2018-09-22T13:24:28Z</time>
      </trkpt>
      <trkpt lat="42.238919" lon="1.718596">
        <ele>1739.072</ele>
        <time>2018-09-22T13:24:30Z</time>
      </trkpt>
      <trkpt lat="42.238952" lon="1.718574">
        <ele>1739.433</ele>
        <time>2018-09-22T13:24:33Z</time>
      </trkpt>
      <trkpt lat="42.238978" lon="1.718555">
        <ele>1739.887</ele>
        <time>2018-09-22T13:24:35Z</time>
      </trkpt>
      <trkpt lat="42.238993" lon="1.718536">
        <ele>1740.563</ele>
        <time>2018-09-22T13:24:37Z</time>
      </trkpt>
      <trkpt lat="42.239006" lon="1.718512">
        <ele>1741.653</ele>
        <time>2018-09-22T13:24:39Z</time>
      </trkpt>
      <trkpt lat="42.239046" lon="1.718469">
        <ele>1743.095</ele>
        <time>2018-09-22T13:24:43Z</time>
      </trkpt>
      <trkpt lat="42.239052" lon="1.718460">
        <ele>1743.357</ele>
        <time>2018-09-22T13:24:44Z</time>
      </trkpt>
      <trkpt lat="42.239059" lon="1.718451">
        <ele>1743.715</ele>
        <time>2018-09-22T13:24:45Z</time>
      </trkpt>
      <trkpt lat="42.239073" lon="1.718447">
        <ele>1743.465</ele>
        <time>2018-09-22T13:24:47Z</time>
      </trkpt>
      <trkpt lat="42.239098" lon="1.718433">
        <ele>1743.411</ele>
        <time>2018-09-22T13:24:50Z</time>
      </trkpt>
      <trkpt lat="42.239113" lon="1.718417">
        <ele>1743.808</ele>
        <time>2018-09-22T13:24:52Z</time>
      </trkpt>
      <trkpt lat="42.239138" lon="1.718393">
        <ele>1744.443</ele>
        <time>2018-09-22T13:24:55Z</time>
      </trkpt>
      <trkpt lat="42.239154" lon="1.718357">
        <ele>1746.089</ele>
        <time>2018-09-22T13:24:57Z</time>
      </trkpt>
      <trkpt lat="42.239279" lon="1.718304">
        <ele>1746.450</ele>
        <time>2018-09-22T13:25:05Z</time>
      </trkpt>
      <trkpt lat="42.239338" lon="1.718305">
        <ele>1745.084</ele>
        <time>2018-09-22T13:25:08Z</time>
      </trkpt>
      <trkpt lat="42.239397" lon="1.718288">
        <ele>1744.720</ele>
        <time>2018-09-22T13:25:13Z</time>
      </trkpt>
      <trkpt lat="42.239444" lon="1.718258">
        <ele>1745.390</ele>
        <time>2018-09-22T13:25:17Z</time>
      </trkpt>
      <trkpt lat="42.239452" lon="1.718246">
        <ele>1745.922</ele>
        <time>2018-09-22T13:25:18Z</time>
      </trkpt>
      <trkpt lat="42.239472" lon="1.718235">
        <ele>1746.254</ele>
        <time>2018-09-22T13:25:20Z</time>
      </trkpt>
      <trkpt lat="42.239589" lon="1.718214">
        <ele>1745.754</ele>
        <time>2018-09-22T13:25:29Z</time>
      </trkpt>
      <trkpt lat="42.239669" lon="1.718241">
        <ele>1743.056</ele>
        <time>2018-09-22T13:25:35Z</time>
      </trkpt>
      <trkpt lat="42.239685" lon="1.718241">
        <ele>1742.811</ele>
        <time>2018-09-22T13:25:36Z</time>
      </trkpt>
      <trkpt lat="42.239710" lon="1.718237">
        <ele>1742.708</ele>
        <time>2018-09-22T13:25:38Z</time>
      </trkpt>
      <trkpt lat="42.239757" lon="1.718224">
        <ele>1743.017</ele>
        <time>2018-09-22T13:25:43Z</time>
      </trkpt>
      <trkpt lat="42.239764" lon="1.718231">
        <ele>1742.523</ele>
        <time>2018-09-22T13:25:44Z</time>
      </trkpt>
      <trkpt lat="42.239773" lon="1.718232">
        <ele>1742.434</ele>
        <time>2018-09-22T13:25:45Z</time>
      </trkpt>
      <trkpt lat="42.239805" lon="1.718237">
        <ele>1741.978</ele>
        <time>2018-09-22T13:25:49Z</time>
      </trkpt>
      <trkpt lat="42.239816" lon="1.718247">
        <ele>1741.214</ele>
        <time>2018-09-22T13:25:50Z</time>
      </trkpt>
      <trkpt lat="42.239846" lon="1.718251">
        <ele>1740.824</ele>
        <time>2018-09-22T13:25:52Z</time>
      </trkpt>
      <trkpt lat="42.239867" lon="1.718255">
        <ele>1740.476</ele>
        <time>2018-09-22T13:25:54Z</time>
      </trkpt>
      <trkpt lat="42.239876" lon="1.718249">
        <ele>1740.758</ele>
        <time>2018-09-22T13:25:56Z</time>
      </trkpt>
      <trkpt lat="42.239903" lon="1.718236">
        <ele>1741.218</ele>
        <time>2018-09-22T13:25:58Z</time>
      </trkpt>
      <trkpt lat="42.239933" lon="1.718233">
        <ele>1741.298</ele>
        <time>2018-09-22T13:26:01Z</time>
      </trkpt>
      <trkpt lat="42.240041" lon="1.718221">
        <ele>1740.817</ele>
        <time>2018-09-22T13:26:10Z</time>
      </trkpt>
      <trkpt lat="42.240053" lon="1.718218">
        <ele>1740.808</ele>
        <time>2018-09-22T13:26:11Z</time>
      </trkpt>
      <trkpt lat="42.240089" lon="1.718208">
        <ele>1740.793</ele>
        <time>2018-09-22T13:26:14Z</time>
      </trkpt>
      <trkpt lat="42.240098" lon="1.718194">
        <ele>1741.429</ele>
        <time>2018-09-22T13:26:16Z</time>
      </trkpt>
      <trkpt lat="42.240107" lon="1.718195">
        <ele>1741.270</ele>
        <time>2018-09-22T13:26:17Z</time>
      </trkpt>
      <trkpt lat="42.240167" lon="1.718192">
        <ele>1740.484</ele>
        <time>2018-09-22T13:26:22Z</time>
      </trkpt>
      <trkpt lat="42.240175" lon="1.718189">
        <ele>1740.410</ele>
        <time>2018-09-22T13:26:23Z</time>
      </trkpt>
      <trkpt lat="42.240255" lon="1.718181">
        <ele>1739.640</ele>
        <time>2018-09-22T13:26:30Z</time>
      </trkpt>
      <trkpt lat="42.240306" lon="1.718168">
        <ele>1739.782</ele>
        <time>2018-09-22T13:26:33Z</time>
      </trkpt>
      <trkpt lat="42.240313" lon="1.718151">
        <ele>1740.624</ele>
        <time>2018-09-22T13:26:35Z</time>
      </trkpt>
      <trkpt lat="42.240334" lon="1.718139">
        <ele>1741.284</ele>
        <time>2018-09-22T13:26:37Z</time>
      </trkpt>
      <trkpt lat="42.240368" lon="1.718132">
        <ele>1741.407</ele>
        <time>2018-09-22T13:26:41Z</time>
      </trkpt>
      <trkpt lat="42.240440" lon="1.718129">
        <ele>1741.217</ele>
        <time>2018-09-22T13:26:46Z</time>
      </trkpt>
      <trkpt lat="42.240450" lon="1.718135">
        <ele>1740.908</ele>
        <time>2018-09-22T13:26:47Z</time>
      </trkpt>
      <trkpt lat="42.240462" lon="1.718142">
        <ele>1740.410</ele>
        <time>2018-09-22T13:26:48Z</time>
      </trkpt>
      <trkpt lat="42.240489" lon="1.718143">
        <ele>1740.266</ele>
        <time>2018-09-22T13:26:50Z</time>
      </trkpt>
      <trkpt lat="42.240519" lon="1.718152">
        <ele>1739.657</ele>
        <time>2018-09-22T13:26:53Z</time>
      </trkpt>
      <trkpt lat="42.240538" lon="1.718163">
        <ele>1738.961</ele>
        <time>2018-09-22T13:26:56Z</time>
      </trkpt>
      <trkpt lat="42.240552" lon="1.718161">
        <ele>1738.977</ele>
        <time>2018-09-22T13:26:57Z</time>
      </trkpt>
      <trkpt lat="42.240560" lon="1.718157">
        <ele>1739.177</ele>
        <time>2018-09-22T13:26:58Z</time>
      </trkpt>
      <trkpt lat="42.240562" lon="1.718154">
        <ele>1739.239</ele>
        <time>2018-09-22T13:26:59Z</time>
      </trkpt>
      <trkpt lat="42.240577" lon="1.718183">
        <ele>1737.461</ele>
        <time>2018-09-22T13:27:03Z</time>
      </trkpt>
      <trkpt lat="42.240597" lon="1.718185">
        <ele>1737.026</ele>
        <time>2018-09-22T13:27:05Z</time>
      </trkpt>
      <trkpt lat="42.240611" lon="1.718188">
        <ele>1736.747</ele>
        <time>2018-09-22T13:27:06Z</time>
      </trkpt>
      <trkpt lat="42.240621" lon="1.718198">
        <ele>1736.011</ele>
        <time>2018-09-22T13:27:07Z</time>
      </trkpt>
      <trkpt lat="42.240636" lon="1.718219">
        <ele>1734.708</ele>
        <time>2018-09-22T13:27:09Z</time>
      </trkpt>
      <trkpt lat="42.240656" lon="1.718228">
        <ele>1733.924</ele>
        <time>2018-09-22T13:27:11Z</time>
      </trkpt>
      <trkpt lat="42.240675" lon="1.718235">
        <ele>1733.320</ele>
        <time>2018-09-22T13:27:13Z</time>
      </trkpt>
      <trkpt lat="42.240693" lon="1.718242">
        <ele>1732.731</ele>
        <time>2018-09-22T13:27:15Z</time>
      </trkpt>
      <trkpt lat="42.240731" lon="1.718253">
        <ele>1731.775</ele>
        <time>2018-09-22T13:27:20Z</time>
      </trkpt>
      <trkpt lat="42.240741" lon="1.718255">
        <ele>1731.511</ele>
        <time>2018-09-22T13:27:21Z</time>
      </trkpt>
      <trkpt lat="42.240791" lon="1.718249">
        <ele>1731.351</ele>
        <time>2018-09-22T13:27:24Z</time>
      </trkpt>
      <trkpt lat="42.240802" lon="1.718246">
        <ele>1731.333</ele>
        <time>2018-09-22T13:27:25Z</time>
      </trkpt>
      <trkpt lat="42.240839" lon="1.718244">
        <ele>1731.025</ele>
        <time>2018-09-22T13:27:28Z</time>
      </trkpt>
      <trkpt lat="42.240870" lon="1.718251">
        <ele>1729.948</ele>
        <time>2018-09-22T13:27:30Z</time>
      </trkpt>
      <trkpt lat="42.240881" lon="1.718250">
        <ele>1729.861</ele>
        <time>2018-09-22T13:27:31Z</time>
      </trkpt>
      <trkpt lat="42.240889" lon="1.718245">
        <ele>1729.917</ele>
        <time>2018-09-22T13:27:32Z</time>
      </trkpt>
      <trkpt lat="42.240899" lon="1.718238">
        <ele>1730.108</ele>
        <time>2018-09-22T13:27:33Z</time>
      </trkpt>
      <trkpt lat="42.240911" lon="1.718235">
        <ele>1730.086</ele>
        <time>2018-09-22T13:27:34Z</time>
      </trkpt>
      <trkpt lat="42.240922" lon="1.718231">
        <ele>1730.012</ele>
        <time>2018-09-22T13:27:35Z</time>
      </trkpt>
      <trkpt lat="42.240942" lon="1.718224">
        <ele>1730.093</ele>
        <time>2018-09-22T13:27:37Z</time>
      </trkpt>
      <trkpt lat="42.240984" lon="1.718214">
        <ele>1729.637</ele>
        <time>2018-09-22T13:27:40Z</time>
      </trkpt>
      <trkpt lat="42.241010" lon="1.718213">
        <ele>1729.213</ele>
        <time>2018-09-22T13:27:42Z</time>
      </trkpt>
      <trkpt lat="42.241063" lon="1.718220">
        <ele>1727.753</ele>
        <time>2018-09-22T13:27:46Z</time>
      </trkpt>
      <trkpt lat="42.241133" lon="1.718190">
        <ele>1727.625</ele>
        <time>2018-09-22T13:27:52Z</time>
      </trkpt>
      <trkpt lat="42.241141" lon="1.718182">
        <ele>1727.857</ele>
        <time>2018-09-22T13:27:53Z</time>
      </trkpt>
      <trkpt lat="42.241150" lon="1.718176">
        <ele>1727.913</ele>
        <time>2018-09-22T13:27:54Z</time>
      </trkpt>
      <trkpt lat="42.241260" lon="1.718126">
        <ele>1727.543</ele>
        <time>2018-09-22T13:28:02Z</time>
      </trkpt>
      <trkpt lat="42.241301" lon="1.718110">
        <ele>1727.307</ele>
        <time>2018-09-22T13:28:05Z</time>
      </trkpt>
      <trkpt lat="42.241357" lon="1.718093">
        <ele>1726.708</ele>
        <time>2018-09-22T13:28:09Z</time>
      </trkpt>
      <trkpt lat="42.241404" lon="1.718083">
        <ele>1725.923</ele>
        <time>2018-09-22T13:28:12Z</time>
      </trkpt>
      <trkpt lat="42.241446" lon="1.718062">
        <ele>1725.659</ele>
        <time>2018-09-22T13:28:16Z</time>
      </trkpt>
      <trkpt lat="42.241472" lon="1.718054">
        <ele>1725.070</ele>
        <time>2018-09-22T13:28:19Z</time>
      </trkpt>
      <trkpt lat="42.241481" lon="1.718055">
        <ele>1724.714</ele>
        <time>2018-09-22T13:28:20Z</time>
      </trkpt>
      <trkpt lat="42.241528" lon="1.718059">
        <ele>1722.890</ele>
        <time>2018-09-22T13:28:24Z</time>
      </trkpt>
      <trkpt lat="42.241540" lon="1.718054">
        <ele>1722.620</ele>
        <time>2018-09-22T13:28:25Z</time>
      </trkpt>
      <trkpt lat="42.241551" lon="1.718041">
        <ele>1722.812</ele>
        <time>2018-09-22T13:28:26Z</time>
      </trkpt>
      <trkpt lat="42.241583" lon="1.718014">
        <ele>1722.894</ele>
        <time>2018-09-22T13:28:29Z</time>
      </trkpt>
      <trkpt lat="42.241619" lon="1.717980">
        <ele>1723.024</ele>
        <time>2018-09-22T13:28:33Z</time>
      </trkpt>
      <trkpt lat="42.241632" lon="1.717969">
        <ele>1723.004</ele>
        <time>2018-09-22T13:28:34Z</time>
      </trkpt>
      <trkpt lat="42.241666" lon="1.717947">
        <ele>1722.714</ele>
        <time>2018-09-22T13:28:37Z</time>
      </trkpt>
      <trkpt lat="42.241684" lon="1.717927">
        <ele>1722.608</ele>
        <time>2018-09-22T13:28:39Z</time>
      </trkpt>
      <trkpt lat="42.241711" lon="1.717908">
        <ele>1722.264</ele>
        <time>2018-09-22T13:28:41Z</time>
      </trkpt>
      <trkpt lat="42.241758" lon="1.717864">
        <ele>1721.790</ele>
        <time>2018-09-22T13:28:45Z</time>
      </trkpt>
      <trkpt lat="42.241790" lon="1.717845">
        <ele>1721.091</ele>
        <time>2018-09-22T13:28:48Z</time>
      </trkpt>
      <trkpt lat="42.241811" lon="1.717828">
        <ele>1720.615</ele>
        <time>2018-09-22T13:28:50Z</time>
      </trkpt>
      <trkpt lat="42.241847" lon="1.717797">
        <ele>1720.131</ele>
        <time>2018-09-22T13:28:54Z</time>
      </trkpt>
      <trkpt lat="42.241855" lon="1.717790">
        <ele>1720.011</ele>
        <time>2018-09-22T13:28:55Z</time>
      </trkpt>
      <trkpt lat="42.241866" lon="1.717777">
        <ele>1719.963</ele>
        <time>2018-09-22T13:28:57Z</time>
      </trkpt>
      <trkpt lat="42.241872" lon="1.717772">
        <ele>1719.825</ele>
        <time>2018-09-22T13:28:58Z</time>
      </trkpt>
      <trkpt lat="42.241877" lon="1.717764">
        <ele>1719.977</ele>
        <time>2018-09-22T13:28:59Z</time>
      </trkpt>
      <trkpt lat="42.241887" lon="1.717740">
        <ele>1720.261</ele>
        <time>2018-09-22T13:29:01Z</time>
      </trkpt>
      <trkpt lat="42.241892" lon="1.717730">
        <ele>1720.427</ele>
        <time>2018-09-22T13:29:02Z</time>
      </trkpt>
      <trkpt lat="42.241897" lon="1.717704">
        <ele>1721.108</ele>
        <time>2018-09-22T13:29:04Z</time>
      </trkpt>
      <trkpt lat="42.241948" lon="1.717643">
        <ele>1720.799</ele>
        <time>2018-09-22T13:29:12Z</time>
      </trkpt>
      <trkpt lat="42.242049" lon="1.717651">
        <ele>1716.915</ele>
        <time>2018-09-22T13:29:16Z</time>
      </trkpt>
      <trkpt lat="42.242063" lon="1.717654">
        <ele>1716.286</ele>
        <time>2018-09-22T13:29:17Z</time>
      </trkpt>
      <trkpt lat="42.242097" lon="1.717669">
        <ele>1714.380</ele>
        <time>2018-09-22T13:29:19Z</time>
      </trkpt>
      <trkpt lat="42.242104" lon="1.717672">
        <ele>1714.096</ele>
        <time>2018-09-22T13:29:20Z</time>
      </trkpt>
      <trkpt lat="42.242119" lon="1.717664">
        <ele>1713.846</ele>
        <time>2018-09-22T13:29:21Z</time>
      </trkpt>
      <trkpt lat="42.242136" lon="1.717655">
        <ele>1713.758</ele>
        <time>2018-09-22T13:29:23Z</time>
      </trkpt>
      <trkpt lat="42.242155" lon="1.717633">
        <ele>1714.170</ele>
        <time>2018-09-22T13:29:25Z</time>
      </trkpt>
      <trkpt lat="42.242166" lon="1.717617">
        <ele>1714.584</ele>
        <time>2018-09-22T13:29:26Z</time>
      </trkpt>
      <trkpt lat="42.242175" lon="1.717603">
        <ele>1714.907</ele>
        <time>2018-09-22T13:29:27Z</time>
      </trkpt>
      <trkpt lat="42.242199" lon="1.717598">
        <ele>1714.417</ele>
        <time>2018-09-22T13:29:30Z</time>
      </trkpt>
      <trkpt lat="42.242256" lon="1.717580">
        <ele>1714.308</ele>
        <time>2018-09-22T13:29:35Z</time>
      </trkpt>
      <trkpt lat="42.242294" lon="1.717571">
        <ele>1714.320</ele>
        <time>2018-09-22T13:29:38Z</time>
      </trkpt>
      <trkpt lat="42.242323" lon="1.717566">
        <ele>1714.376</ele>
        <time>2018-09-22T13:29:40Z</time>
      </trkpt>
      <trkpt lat="42.242349" lon="1.717565">
        <ele>1714.137</ele>
        <time>2018-09-22T13:29:42Z</time>
      </trkpt>
      <trkpt lat="42.242370" lon="1.717566">
        <ele>1713.811</ele>
        <time>2018-09-22T13:29:44Z</time>
      </trkpt>
      <trkpt lat="42.242396" lon="1.717569">
        <ele>1713.367</ele>
        <time>2018-09-22T13:29:46Z</time>
      </trkpt>
      <trkpt lat="42.242408" lon="1.717569">
        <ele>1713.297</ele>
        <time>2018-09-22T13:29:47Z</time>
      </trkpt>
      <trkpt lat="42.242423" lon="1.717567">
        <ele>1713.149</ele>
        <time>2018-09-22T13:29:48Z</time>
      </trkpt>
      <trkpt lat="42.242472" lon="1.717557">
        <ele>1713.271</ele>
        <time>2018-09-22T13:29:52Z</time>
      </trkpt>
      <trkpt lat="42.242637" lon="1.717502">
        <ele>1711.481</ele>
        <time>2018-09-22T13:30:03Z</time>
      </trkpt>
      <trkpt lat="42.242641" lon="1.717489">
        <ele>1711.861</ele>
        <time>2018-09-22T13:30:04Z</time>
      </trkpt>
      <trkpt lat="42.242656" lon="1.717465">
        <ele>1712.417</ele>
        <time>2018-09-22T13:30:07Z</time>
      </trkpt>
      <trkpt lat="42.242681" lon="1.717443">
        <ele>1712.408</ele>
        <time>2018-09-22T13:30:10Z</time>
      </trkpt>
      <trkpt lat="42.242695" lon="1.717449">
        <ele>1711.740</ele>
        <time>2018-09-22T13:30:12Z</time>
      </trkpt>
      <trkpt lat="42.242714" lon="1.717455">
        <ele>1710.826</ele>
        <time>2018-09-22T13:30:14Z</time>
      </trkpt>
      <trkpt lat="42.242726" lon="1.717454">
        <ele>1710.437</ele>
        <time>2018-09-22T13:30:16Z</time>
      </trkpt>
      <trkpt lat="42.242734" lon="1.717449">
        <ele>1710.391</ele>
        <time>2018-09-22T13:30:17Z</time>
      </trkpt>
      <trkpt lat="42.242760" lon="1.717431">
        <ele>1710.147</ele>
        <time>2018-09-22T13:30:20Z</time>
      </trkpt>
      <trkpt lat="42.242765" lon="1.717428">
        <ele>1710.027</ele>
        <time>2018-09-22T13:30:21Z</time>
      </trkpt>
      <trkpt lat="42.242781" lon="1.717413">
        <ele>1709.939</ele>
        <time>2018-09-22T13:30:23Z</time>
      </trkpt>
      <trkpt lat="42.242801" lon="1.717399">
        <ele>1709.641</ele>
        <time>2018-09-22T13:30:25Z</time>
      </trkpt>
      <trkpt lat="42.242809" lon="1.717392">
        <ele>1709.577</ele>
        <time>2018-09-22T13:30:26Z</time>
      </trkpt>
      <trkpt lat="42.242825" lon="1.717384">
        <ele>1709.161</ele>
        <time>2018-09-22T13:30:28Z</time>
      </trkpt>
      <trkpt lat="42.242833" lon="1.717380">
        <ele>1708.927</ele>
        <time>2018-09-22T13:30:29Z</time>
      </trkpt>
      <trkpt lat="42.242853" lon="1.717353">
        <ele>1709.008</ele>
        <time>2018-09-22T13:30:31Z</time>
      </trkpt>
      <trkpt lat="42.242867" lon="1.717344">
        <ele>1708.739</ele>
        <time>2018-09-22T13:30:32Z</time>
      </trkpt>
      <trkpt lat="42.242888" lon="1.717324">
        <ele>1708.555</ele>
        <time>2018-09-22T13:30:34Z</time>
      </trkpt>
      <trkpt lat="42.242919" lon="1.717310">
        <ele>1707.726</ele>
        <time>2018-09-22T13:30:36Z</time>
      </trkpt>
      <trkpt lat="42.242931" lon="1.717303">
        <ele>1707.410</ele>
        <time>2018-09-22T13:30:37Z</time>
      </trkpt>
      <trkpt lat="42.242968" lon="1.717281">
        <ele>1706.636</ele>
        <time>2018-09-22T13:30:40Z</time>
      </trkpt>
      <trkpt lat="42.242980" lon="1.717277">
        <ele>1706.216</ele>
        <time>2018-09-22T13:30:41Z</time>
      </trkpt>
      <trkpt lat="42.243010" lon="1.717275">
        <ele>1705.078</ele>
        <time>2018-09-22T13:30:44Z</time>
      </trkpt>
      <trkpt lat="42.243039" lon="1.717277">
        <ele>1703.780</ele>
        <time>2018-09-22T13:30:47Z</time>
      </trkpt>
      <trkpt lat="42.243079" lon="1.717296">
        <ele>1702.084</ele>
        <time>2018-09-22T13:30:50Z</time>
      </trkpt>
      <trkpt lat="42.243102" lon="1.717305">
        <ele>1701.307</ele>
        <time>2018-09-22T13:30:53Z</time>
      </trkpt>
      <trkpt lat="42.243114" lon="1.717309">
        <ele>1701.017</ele>
        <time>2018-09-22T13:30:54Z</time>
      </trkpt>
      <trkpt lat="42.243141" lon="1.717317">
        <ele>1700.308</ele>
        <time>2018-09-22T13:30:56Z</time>
      </trkpt>
      <trkpt lat="42.243180" lon="1.717339">
        <ele>1698.950</ele>
        <time>2018-09-22T13:31:00Z</time>
      </trkpt>
      <trkpt lat="42.243184" lon="1.717340">
        <ele>1698.936</ele>
        <time>2018-09-22T13:31:01Z</time>
      </trkpt>
      <trkpt lat="42.243206" lon="1.717344">
        <ele>1698.497</ele>
        <time>2018-09-22T13:31:03Z</time>
      </trkpt>
      <trkpt lat="42.243223" lon="1.717340">
        <ele>1698.311</ele>
        <time>2018-09-22T13:31:05Z</time>
      </trkpt>
      <trkpt lat="42.243258" lon="1.717343">
        <ele>1697.797</ele>
        <time>2018-09-22T13:31:07Z</time>
      </trkpt>
      <trkpt lat="42.243273" lon="1.717345">
        <ele>1697.417</ele>
        <time>2018-09-22T13:31:08Z</time>
      </trkpt>
      <trkpt lat="42.243296" lon="1.717351">
        <ele>1696.829</ele>
        <time>2018-09-22T13:31:10Z</time>
      </trkpt>
      <trkpt lat="42.243311" lon="1.717352">
        <ele>1696.661</ele>
        <time>2018-09-22T13:31:12Z</time>
      </trkpt>
      <trkpt lat="42.243327" lon="1.717331">
        <ele>1697.198</ele>
        <time>2018-09-22T13:31:14Z</time>
      </trkpt>
      <trkpt lat="42.243345" lon="1.717329">
        <ele>1696.815</ele>
        <time>2018-09-22T13:31:17Z</time>
      </trkpt>
      <trkpt lat="42.243354" lon="1.717332">
        <ele>1696.526</ele>
        <time>2018-09-22T13:31:18Z</time>
      </trkpt>
      <trkpt lat="42.243386" lon="1.717344">
        <ele>1695.208</ele>
        <time>2018-09-22T13:31:21Z</time>
      </trkpt>
      <trkpt lat="42.243404" lon="1.717349">
        <ele>1694.571</ele>
        <time>2018-09-22T13:31:23Z</time>
      </trkpt>
      <trkpt lat="42.243453" lon="1.717364">
        <ele>1692.637</ele>
        <time>2018-09-22T13:31:27Z</time>
      </trkpt>
      <trkpt lat="42.243461" lon="1.717370">
        <ele>1692.298</ele>
        <time>2018-09-22T13:31:28Z</time>
      </trkpt>
      <trkpt lat="42.243473" lon="1.717382">
        <ele>1691.482</ele>
        <time>2018-09-22T13:31:30Z</time>
      </trkpt>
      <trkpt lat="42.243494" lon="1.717381">
        <ele>1690.928</ele>
        <time>2018-09-22T13:31:33Z</time>
      </trkpt>
      <trkpt lat="42.243512" lon="1.717366">
        <ele>1691.068</ele>
        <time>2018-09-22T13:31:35Z</time>
      </trkpt>
      <trkpt lat="42.243561" lon="1.717328">
        <ele>1691.160</ele>
        <time>2018-09-22T13:31:40Z</time>
      </trkpt>
      <trkpt lat="42.243576" lon="1.717322">
        <ele>1690.962</ele>
        <time>2018-09-22T13:31:41Z</time>
      </trkpt>
      <trkpt lat="42.243587" lon="1.717315">
        <ele>1690.916</ele>
        <time>2018-09-22T13:31:42Z</time>
      </trkpt>
      <trkpt lat="42.243615" lon="1.717309">
        <ele>1690.476</ele>
        <time>2018-09-22T13:31:44Z</time>
      </trkpt>
      <trkpt lat="42.243630" lon="1.717312">
        <ele>1689.913</ele>
        <time>2018-09-22T13:31:45Z</time>
      </trkpt>
      <trkpt lat="42.243675" lon="1.717306">
        <ele>1689.008</ele>
        <time>2018-09-22T13:31:48Z</time>
      </trkpt>
      <trkpt lat="42.243687" lon="1.717307">
        <ele>1688.763</ele>
        <time>2018-09-22T13:31:49Z</time>
      </trkpt>
      <trkpt lat="42.243712" lon="1.717308">
        <ele>1688.099</ele>
        <time>2018-09-22T13:31:51Z</time>
      </trkpt>
      <trkpt lat="42.243733" lon="1.717313">
        <ele>1687.330</ele>
        <time>2018-09-22T13:31:53Z</time>
      </trkpt>
      <trkpt lat="42.243780" lon="1.717316">
        <ele>1686.084</ele>
        <time>2018-09-22T13:31:57Z</time>
      </trkpt>
      <trkpt lat="42.243796" lon="1.717317">
        <ele>1685.520</ele>
        <time>2018-09-22T13:31:59Z</time>
      </trkpt>
      <trkpt lat="42.243812" lon="1.717305">
        <ele>1685.660</ele>
        <time>2018-09-22T13:32:01Z</time>
      </trkpt>
      <trkpt lat="42.243855" lon="1.717281">
        <ele>1685.512</ele>
        <time>2018-09-22T13:32:05Z</time>
      </trkpt>
      <trkpt lat="42.243869" lon="1.717276">
        <ele>1685.354</ele>
        <time>2018-09-22T13:32:06Z</time>
      </trkpt>
      <trkpt lat="42.243917" lon="1.717261">
        <ele>1684.678</ele>
        <time>2018-09-22T13:32:09Z</time>
      </trkpt>
      <trkpt lat="42.243939" lon="1.717253">
        <ele>1684.333</ele>
        <time>2018-09-22T13:32:11Z</time>
      </trkpt>
      <trkpt lat="42.243975" lon="1.717268">
        <ele>1682.726</ele>
        <time>2018-09-22T13:32:14Z</time>
      </trkpt>
      <trkpt lat="42.243998" lon="1.717269">
        <ele>1682.108</ele>
        <time>2018-09-22T13:32:16Z</time>
      </trkpt>
      <trkpt lat="42.244043" lon="1.717242">
        <ele>1681.889</ele>
        <time>2018-09-22T13:32:20Z</time>
      </trkpt>
      <trkpt lat="42.244075" lon="1.717239">
        <ele>1681.035</ele>
        <time>2018-09-22T13:32:22Z</time>
      </trkpt>
      <trkpt lat="42.244096" lon="1.717219">
        <ele>1681.166</ele>
        <time>2018-09-22T13:32:24Z</time>
      </trkpt>
      <trkpt lat="42.244108" lon="1.717211">
        <ele>1681.070</ele>
        <time>2018-09-22T13:32:25Z</time>
      </trkpt>
      <trkpt lat="42.244117" lon="1.717201">
        <ele>1681.116</ele>
        <time>2018-09-22T13:32:26Z</time>
      </trkpt>
      <trkpt lat="42.244125" lon="1.717192">
        <ele>1681.186</ele>
        <time>2018-09-22T13:32:27Z</time>
      </trkpt>
      <trkpt lat="42.244144" lon="1.717177">
        <ele>1681.188</ele>
        <time>2018-09-22T13:32:29Z</time>
      </trkpt>
      <trkpt lat="42.244181" lon="1.717139">
        <ele>1681.220</ele>
        <time>2018-09-22T13:32:33Z</time>
      </trkpt>
      <trkpt lat="42.244217" lon="1.717128">
        <ele>1680.353</ele>
        <time>2018-09-22T13:32:36Z</time>
      </trkpt>
      <trkpt lat="42.244236" lon="1.717113">
        <ele>1680.204</ele>
        <time>2018-09-22T13:32:38Z</time>
      </trkpt>
      <trkpt lat="42.244243" lon="1.717108">
        <ele>1680.114</ele>
        <time>2018-09-22T13:32:39Z</time>
      </trkpt>
      <trkpt lat="42.244271" lon="1.717101">
        <ele>1679.308</ele>
        <time>2018-09-22T13:32:42Z</time>
      </trkpt>
      <trkpt lat="42.244311" lon="1.717088">
        <ele>1678.477</ele>
        <time>2018-09-22T13:32:44Z</time>
      </trkpt>
      <trkpt lat="42.244340" lon="1.717071">
        <ele>1677.923</ele>
        <time>2018-09-22T13:32:46Z</time>
      </trkpt>
      <trkpt lat="42.244359" lon="1.717064">
        <ele>1677.444</ele>
        <time>2018-09-22T13:32:48Z</time>
      </trkpt>
      <trkpt lat="42.244379" lon="1.717063">
        <ele>1676.838</ele>
        <time>2018-09-22T13:32:50Z</time>
      </trkpt>
      <trkpt lat="42.244391" lon="1.717061">
        <ele>1676.594</ele>
        <time>2018-09-22T13:32:51Z</time>
      </trkpt>
      <trkpt lat="42.244436" lon="1.717019">
        <ele>1676.184</ele>
        <time>2018-09-22T13:32:54Z</time>
      </trkpt>
      <trkpt lat="42.244462" lon="1.717001">
        <ele>1675.786</ele>
        <time>2018-09-22T13:32:56Z</time>
      </trkpt>
      <trkpt lat="42.244485" lon="1.716984">
        <ele>1675.498</ele>
        <time>2018-09-22T13:32:58Z</time>
      </trkpt>
      <trkpt lat="42.244527" lon="1.716946">
        <ele>1674.943</ele>
        <time>2018-09-22T13:33:02Z</time>
      </trkpt>
      <trkpt lat="42.244555" lon="1.716912">
        <ele>1674.864</ele>
        <time>2018-09-22T13:33:05Z</time>
      </trkpt>
      <trkpt lat="42.244562" lon="1.716901">
        <ele>1674.810</ele>
        <time>2018-09-22T13:33:06Z</time>
      </trkpt>
      <trkpt lat="42.244570" lon="1.716883">
        <ele>1675.008</ele>
        <time>2018-09-22T13:33:08Z</time>
      </trkpt>
      <trkpt lat="42.244573" lon="1.716867">
        <ele>1675.376</ele>
        <time>2018-09-22T13:33:09Z</time>
      </trkpt>
      <trkpt lat="42.244578" lon="1.716845">
        <ele>1675.632</ele>
        <time>2018-09-22T13:33:11Z</time>
      </trkpt>
      <trkpt lat="42.244587" lon="1.716842">
        <ele>1675.443</ele>
        <time>2018-09-22T13:33:12Z</time>
      </trkpt>
      <trkpt lat="42.244607" lon="1.716822">
        <ele>1675.227</ele>
        <time>2018-09-22T13:33:14Z</time>
      </trkpt>
      <trkpt lat="42.244663" lon="1.716772">
        <ele>1674.533</ele>
        <time>2018-09-22T13:33:19Z</time>
      </trkpt>
      <trkpt lat="42.244749" lon="1.716680">
        <ele>1673.973</ele>
        <time>2018-09-22T13:33:25Z</time>
      </trkpt>
      <trkpt lat="42.244920" lon="1.716600">
        <ele>1670.975</ele>
        <time>2018-09-22T13:33:34Z</time>
      </trkpt>
      <trkpt lat="42.245065" lon="1.716561">
        <ele>1669.787</ele>
        <time>2018-09-22T13:33:41Z</time>
      </trkpt>
      <trkpt lat="42.245101" lon="1.716576">
        <ele>1669.643</ele>
        <time>2018-09-22T13:33:44Z</time>
      </trkpt>
      <trkpt lat="42.245131" lon="1.716531">
        <ele>1670.464</ele>
        <time>2018-09-22T13:33:49Z</time>
      </trkpt>
      <trkpt lat="42.245130" lon="1.716523">
        <ele>1670.510</ele>
        <time>2018-09-22T13:33:51Z</time>
      </trkpt>
      <trkpt lat="42.245143" lon="1.716534">
        <ele>1670.408</ele>
        <time>2018-09-22T13:33:53Z</time>
      </trkpt>
      <trkpt lat="42.245149" lon="1.716539">
        <ele>1670.396</ele>
        <time>2018-09-22T13:33:54Z</time>
      </trkpt>
      <trkpt lat="42.245170" lon="1.716542">
        <ele>1670.452</ele>
        <time>2018-09-22T13:33:56Z</time>
      </trkpt>
      <trkpt lat="42.245204" lon="1.716553">
        <ele>1670.393</ele>
        <time>2018-09-22T13:33:59Z</time>
      </trkpt>
      <trkpt lat="42.245226" lon="1.716546">
        <ele>1670.577</ele>
        <time>2018-09-22T13:34:01Z</time>
      </trkpt>
      <trkpt lat="42.245251" lon="1.716556">
        <ele>1670.463</ele>
        <time>2018-09-22T13:34:03Z</time>
      </trkpt>
      <trkpt lat="42.245268" lon="1.716571">
        <ele>1670.313</ele>
        <time>2018-09-22T13:34:05Z</time>
      </trkpt>
      <trkpt lat="42.245294" lon="1.716607">
        <ele>1669.565</ele>
        <time>2018-09-22T13:34:07Z</time>
      </trkpt>
      <trkpt lat="42.245297" lon="1.716627">
        <ele>1669.277</ele>
        <time>2018-09-22T13:34:08Z</time>
      </trkpt>
      <trkpt lat="42.245283" lon="1.716735">
        <ele>1667.963</ele>
        <time>2018-09-22T13:34:14Z</time>
      </trkpt>
      <trkpt lat="42.245281" lon="1.716750">
        <ele>1667.744</ele>
        <time>2018-09-22T13:34:15Z</time>
      </trkpt>
      <trkpt lat="42.245279" lon="1.716768">
        <ele>1667.518</ele>
        <time>2018-09-22T13:34:16Z</time>
      </trkpt>
      <trkpt lat="42.245285" lon="1.716836">
        <ele>1666.408</ele>
        <time>2018-09-22T13:34:20Z</time>
      </trkpt>
      <trkpt lat="42.245285" lon="1.716845">
        <ele>1666.358</ele>
        <time>2018-09-22T13:34:21Z</time>
      </trkpt>
      <trkpt lat="42.245300" lon="1.716874">
        <ele>1665.654</ele>
        <time>2018-09-22T13:34:24Z</time>
      </trkpt>
      <trkpt lat="42.245333" lon="1.716885">
        <ele>1665.055</ele>
        <time>2018-09-22T13:34:27Z</time>
      </trkpt>
      <trkpt lat="42.245343" lon="1.716890">
        <ele>1664.899</ele>
        <time>2018-09-22T13:34:28Z</time>
      </trkpt>
      <trkpt lat="42.245392" lon="1.716939">
        <ele>1663.415</ele>
        <time>2018-09-22T13:34:32Z</time>
      </trkpt>
      <trkpt lat="42.245413" lon="1.716959">
        <ele>1662.875</ele>
        <time>2018-09-22T13:34:33Z</time>
      </trkpt>
      <trkpt lat="42.245427" lon="1.716977">
        <ele>1662.387</ele>
        <time>2018-09-22T13:34:34Z</time>
      </trkpt>
      <trkpt lat="42.245472" lon="1.717034">
        <ele>1661.029</ele>
        <time>2018-09-22T13:34:37Z</time>
      </trkpt>
      <trkpt lat="42.245485" lon="1.717054">
        <ele>1660.757</ele>
        <time>2018-09-22T13:34:38Z</time>
      </trkpt>
      <trkpt lat="42.245527" lon="1.717147">
        <ele>1659.500</ele>
        <time>2018-09-22T13:34:42Z</time>
      </trkpt>
      <trkpt lat="42.245535" lon="1.717165">
        <ele>1659.420</ele>
        <time>2018-09-22T13:34:43Z</time>
      </trkpt>
      <trkpt lat="42.245539" lon="1.717207">
        <ele>1659.008</ele>
        <time>2018-09-22T13:34:45Z</time>
      </trkpt>
      <trkpt lat="42.245523" lon="1.717317">
        <ele>1657.377</ele>
        <time>2018-09-22T13:34:49Z</time>
      </trkpt>
      <trkpt lat="42.245522" lon="1.717401">
        <ele>1655.963</ele>
        <time>2018-09-22T13:34:52Z</time>
      </trkpt>
      <trkpt lat="42.245534" lon="1.717454">
        <ele>1655.364</ele>
        <time>2018-09-22T13:34:54Z</time>
      </trkpt>
      <trkpt lat="42.245534" lon="1.717505">
        <ele>1654.568</ele>
        <time>2018-09-22T13:34:56Z</time>
      </trkpt>
      <trkpt lat="42.245549" lon="1.717578">
        <ele>1653.714</ele>
        <time>2018-09-22T13:34:59Z</time>
      </trkpt>
      <trkpt lat="42.245552" lon="1.717672">
        <ele>1652.464</ele>
        <time>2018-09-22T13:35:03Z</time>
      </trkpt>
      <trkpt lat="42.245563" lon="1.717696">
        <ele>1651.766</ele>
        <time>2018-09-22T13:35:04Z</time>
      </trkpt>
      <trkpt lat="42.245579" lon="1.717756">
        <ele>1649.978</ele>
        <time>2018-09-22T13:35:06Z</time>
      </trkpt>
      <trkpt lat="42.245577" lon="1.717823">
        <ele>1648.932</ele>
        <time>2018-09-22T13:35:08Z</time>
      </trkpt>
      <trkpt lat="42.245584" lon="1.717913">
        <ele>1647.092</ele>
        <time>2018-09-22T13:35:11Z</time>
      </trkpt>
      <trkpt lat="42.245593" lon="1.718002">
        <ele>1645.111</ele>
        <time>2018-09-22T13:35:15Z</time>
      </trkpt>
      <trkpt lat="42.245589" lon="1.718069">
        <ele>1644.108</ele>
        <time>2018-09-22T13:35:18Z</time>
      </trkpt>
      <trkpt lat="42.245618" lon="1.718168">
        <ele>1640.985</ele>
        <time>2018-09-22T13:35:22Z</time>
      </trkpt>
      <trkpt lat="42.245625" lon="1.718236">
        <ele>1639.411</ele>
        <time>2018-09-22T13:35:25Z</time>
      </trkpt>
      <trkpt lat="42.245626" lon="1.718287">
        <ele>1638.592</ele>
        <time>2018-09-22T13:35:27Z</time>
      </trkpt>
      <trkpt lat="42.245622" lon="1.718349">
        <ele>1637.636</ele>
        <time>2018-09-22T13:35:29Z</time>
      </trkpt>
      <trkpt lat="42.245620" lon="1.718459">
        <ele>1636.582</ele>
        <time>2018-09-22T13:35:33Z</time>
      </trkpt>
      <trkpt lat="42.245639" lon="1.718556">
        <ele>1635.012</ele>
        <time>2018-09-22T13:35:36Z</time>
      </trkpt>
      <trkpt lat="42.245692" lon="1.718658">
        <ele>1633.164</ele>
        <time>2018-09-22T13:35:40Z</time>
      </trkpt>
      <trkpt lat="42.245736" lon="1.718763">
        <ele>1631.716</ele>
        <time>2018-09-22T13:35:45Z</time>
      </trkpt>
      <trkpt lat="42.245754" lon="1.718817">
        <ele>1631.343</ele>
        <time>2018-09-22T13:35:47Z</time>
      </trkpt>
      <trkpt lat="42.245769" lon="1.718900">
        <ele>1630.864</ele>
        <time>2018-09-22T13:35:50Z</time>
      </trkpt>
      <trkpt lat="42.245783" lon="1.718967">
        <ele>1629.810</ele>
        <time>2018-09-22T13:35:52Z</time>
      </trkpt>
      <trkpt lat="42.245800" lon="1.719054">
        <ele>1628.708</ele>
        <time>2018-09-22T13:35:55Z</time>
      </trkpt>
      <trkpt lat="42.245814" lon="1.719142">
        <ele>1627.826</ele>
        <time>2018-09-22T13:35:58Z</time>
      </trkpt>
      <trkpt lat="42.245842" lon="1.719251">
        <ele>1625.752</ele>
        <time>2018-09-22T13:36:02Z</time>
      </trkpt>
      <trkpt lat="42.245864" lon="1.719276">
        <ele>1624.963</ele>
        <time>2018-09-22T13:36:05Z</time>
      </trkpt>
      <trkpt lat="42.245873" lon="1.719288">
        <ele>1624.677</ele>
        <time>2018-09-22T13:36:06Z</time>
      </trkpt>
      <trkpt lat="42.245884" lon="1.719300">
        <ele>1624.363</ele>
        <time>2018-09-22T13:36:07Z</time>
      </trkpt>
      <trkpt lat="42.245911" lon="1.719328">
        <ele>1623.963</ele>
        <time>2018-09-22T13:36:09Z</time>
      </trkpt>
      <trkpt lat="42.245926" lon="1.719337">
        <ele>1623.935</ele>
        <time>2018-09-22T13:36:10Z</time>
      </trkpt>
      <trkpt lat="42.245981" lon="1.719355">
        <ele>1624.037</ele>
        <time>2018-09-22T13:36:14Z</time>
      </trkpt>
      <trkpt lat="42.245985" lon="1.719352">
        <ele>1624.016</ele>
        <time>2018-09-22T13:36:15Z</time>
      </trkpt>
      <trkpt lat="42.246014" lon="1.719308">
        <ele>1623.876</ele>
        <time>2018-09-22T13:36:19Z</time>
      </trkpt>
      <trkpt lat="42.246026" lon="1.719281">
        <ele>1623.513</ele>
        <time>2018-09-22T13:36:21Z</time>
      </trkpt>
      <trkpt lat="42.246052" lon="1.719257">
        <ele>1623.008</ele>
        <time>2018-09-22T13:36:24Z</time>
      </trkpt>
      <trkpt lat="42.246057" lon="1.719250">
        <ele>1622.833</ele>
        <time>2018-09-22T13:36:25Z</time>
      </trkpt>
      <trkpt lat="42.246066" lon="1.719244">
        <ele>1622.669</ele>
        <time>2018-09-22T13:36:26Z</time>
      </trkpt>
      <trkpt lat="42.246089" lon="1.719231">
        <ele>1621.920</ele>
        <time>2018-09-22T13:36:28Z</time>
      </trkpt>
      <trkpt lat="42.246094" lon="1.719228">
        <ele>1621.834</ele>
        <time>2018-09-22T13:36:29Z</time>
      </trkpt>
      <trkpt lat="42.246136" lon="1.719257">
        <ele>1621.740</ele>
        <time>2018-09-22T13:36:35Z</time>
      </trkpt>
      <trkpt lat="42.246151" lon="1.719260">
        <ele>1621.520</ele>
        <time>2018-09-22T13:36:37Z</time>
      </trkpt>
      <trkpt lat="42.246201" lon="1.719276">
        <ele>1621.072</ele>
        <time>2018-09-22T13:36:42Z</time>
      </trkpt>
      <trkpt lat="42.246239" lon="1.719299">
        <ele>1621.144</ele>
        <time>2018-09-22T13:36:45Z</time>
      </trkpt>
      <trkpt lat="42.246291" lon="1.719310">
        <ele>1620.738</ele>
        <time>2018-09-22T13:36:48Z</time>
      </trkpt>
      <trkpt lat="42.246313" lon="1.719315">
        <ele>1620.670</ele>
        <time>2018-09-22T13:36:49Z</time>
      </trkpt>
      <trkpt lat="42.246350" lon="1.719326">
        <ele>1620.517</ele>
        <time>2018-09-22T13:36:51Z</time>
      </trkpt>
      <trkpt lat="42.246458" lon="1.719382">
        <ele>1621.408</ele>
        <time>2018-09-22T13:36:57Z</time>
      </trkpt>
      <trkpt lat="42.246499" lon="1.719390">
        <ele>1621.175</ele>
        <time>2018-09-22T13:36:59Z</time>
      </trkpt>
      <trkpt lat="42.246559" lon="1.719413">
        <ele>1621.291</ele>
        <time>2018-09-22T13:37:02Z</time>
      </trkpt>
      <trkpt lat="42.246576" lon="1.719420">
        <ele>1621.212</ele>
        <time>2018-09-22T13:37:03Z</time>
      </trkpt>
      <trkpt lat="42.246612" lon="1.719429">
        <ele>1621.176</ele>
        <time>2018-09-22T13:37:05Z</time>
      </trkpt>
      <trkpt lat="42.246631" lon="1.719428">
        <ele>1620.742</ele>
        <time>2018-09-22T13:37:06Z</time>
      </trkpt>
      <trkpt lat="42.246773" lon="1.719487">
        <ele>1621.162</ele>
        <time>2018-09-22T13:37:11Z</time>
      </trkpt>
      <trkpt lat="42.246875" lon="1.719557">
        <ele>1622.394</ele>
        <time>2018-09-22T13:37:16Z</time>
      </trkpt>
      <trkpt lat="42.247002" lon="1.719603">
        <ele>1622.026</ele>
        <time>2018-09-22T13:37:21Z</time>
      </trkpt>
      <trkpt lat="42.247064" lon="1.719635">
        <ele>1622.072</ele>
        <time>2018-09-22T13:37:24Z</time>
      </trkpt>
      <trkpt lat="42.247082" lon="1.719638">
        <ele>1621.713</ele>
        <time>2018-09-22T13:37:25Z</time>
      </trkpt>
      <trkpt lat="42.247122" lon="1.719690">
        <ele>1622.114</ele>
        <time>2018-09-22T13:37:28Z</time>
      </trkpt>
      <trkpt lat="42.247139" lon="1.719743">
        <ele>1621.908</ele>
        <time>2018-09-22T13:37:31Z</time>
      </trkpt>
      <trkpt lat="42.247143" lon="1.719821">
        <ele>1620.199</ele>
        <time>2018-09-22T13:37:34Z</time>
      </trkpt>
      <trkpt lat="42.247091" lon="1.719985">
        <ele>1620.135</ele>
        <time>2018-09-22T13:37:40Z</time>
      </trkpt>
      <trkpt lat="42.247086" lon="1.720006">
        <ele>1620.126</ele>
        <time>2018-09-22T13:37:41Z</time>
      </trkpt>
      <trkpt lat="42.247089" lon="1.720030">
        <ele>1618.810</ele>
        <time>2018-09-22T13:37:43Z</time>
      </trkpt>
      <trkpt lat="42.247089" lon="1.720076">
        <ele>1617.016</ele>
        <time>2018-09-22T13:37:45Z</time>
      </trkpt>
      <trkpt lat="42.247072" lon="1.720185">
        <ele>1614.036</ele>
        <time>2018-09-22T13:37:49Z</time>
      </trkpt>
      <trkpt lat="42.247057" lon="1.720282">
        <ele>1611.588</ele>
        <time>2018-09-22T13:37:53Z</time>
      </trkpt>
      <trkpt lat="42.247058" lon="1.720351">
        <ele>1610.450</ele>
        <time>2018-09-22T13:37:55Z</time>
      </trkpt>
      <trkpt lat="42.247064" lon="1.720385">
        <ele>1609.332</ele>
        <time>2018-09-22T13:37:56Z</time>
      </trkpt>
      <trkpt lat="42.247076" lon="1.720535">
        <ele>1605.992</ele>
        <time>2018-09-22T13:38:02Z</time>
      </trkpt>
      <trkpt lat="42.247069" lon="1.720601">
        <ele>1604.711</ele>
        <time>2018-09-22T13:38:05Z</time>
      </trkpt>
      <trkpt lat="42.247058" lon="1.720622">
        <ele>1604.908</ele>
        <time>2018-09-22T13:38:07Z</time>
      </trkpt>
      <trkpt lat="42.247060" lon="1.720651">
        <ele>1603.795</ele>
        <time>2018-09-22T13:38:09Z</time>
      </trkpt>
      <trkpt lat="42.247055" lon="1.720680">
        <ele>1603.281</ele>
        <time>2018-09-22T13:38:11Z</time>
      </trkpt>
      <trkpt lat="42.247041" lon="1.720685">
        <ele>1604.332</ele>
        <time>2018-09-22T13:38:12Z</time>
      </trkpt>
      <trkpt lat="42.247018" lon="1.720706">
        <ele>1605.526</ele>
        <time>2018-09-22T13:38:14Z</time>
      </trkpt>
      <trkpt lat="42.247006" lon="1.720722">
        <ele>1606.162</ele>
        <time>2018-09-22T13:38:15Z</time>
      </trkpt>
      <trkpt lat="42.246984" lon="1.720810">
        <ele>1605.222</ele>
        <time>2018-09-22T13:38:19Z</time>
      </trkpt>
      <trkpt lat="42.246984" lon="1.720824">
        <ele>1604.724</ele>
        <time>2018-09-22T13:38:20Z</time>
      </trkpt>
      <trkpt lat="42.246990" lon="1.720857">
        <ele>1603.496</ele>
        <time>2018-09-22T13:38:22Z</time>
      </trkpt>
      <trkpt lat="42.246998" lon="1.720903">
        <ele>1601.883</ele>
        <time>2018-09-22T13:38:25Z</time>
      </trkpt>
      <trkpt lat="42.247005" lon="1.720922">
        <ele>1600.825</ele>
        <time>2018-09-22T13:38:26Z</time>
      </trkpt>
      <trkpt lat="42.247011" lon="1.720961">
        <ele>1599.517</ele>
        <time>2018-09-22T13:38:28Z</time>
      </trkpt>
      <trkpt lat="42.247017" lon="1.720976">
        <ele>1598.808</ele>
        <time>2018-09-22T13:38:29Z</time>
      </trkpt>
      <trkpt lat="42.247037" lon="1.721008">
        <ele>1596.480</ele>
        <time>2018-09-22T13:38:31Z</time>
      </trkpt>
      <trkpt lat="42.247042" lon="1.721036">
        <ele>1595.676</ele>
        <time>2018-09-22T13:38:33Z</time>
      </trkpt>
      <trkpt lat="42.247033" lon="1.721051">
        <ele>1596.087</ele>
        <time>2018-09-22T13:38:34Z</time>
      </trkpt>
      <trkpt lat="42.247025" lon="1.721063">
        <ele>1596.581</ele>
        <time>2018-09-22T13:38:35Z</time>
      </trkpt>
      <trkpt lat="42.246983" lon="1.721117">
        <ele>1598.717</ele>
        <time>2018-09-22T13:38:39Z</time>
      </trkpt>
      <trkpt lat="42.246980" lon="1.721135">
        <ele>1598.447</ele>
        <time>2018-09-22T13:38:40Z</time>
      </trkpt>
      <trkpt lat="42.246972" lon="1.721174">
        <ele>1598.059</ele>
        <time>2018-09-22T13:38:42Z</time>
      </trkpt>
      <trkpt lat="42.246956" lon="1.721242">
        <ele>1597.331</ele>
        <time>2018-09-22T13:38:45Z</time>
      </trkpt>
      <trkpt lat="42.246963" lon="1.721281">
        <ele>1595.724</ele>
        <time>2018-09-22T13:38:47Z</time>
      </trkpt>
      <trkpt lat="42.246969" lon="1.721296">
        <ele>1594.804</ele>
        <time>2018-09-22T13:38:48Z</time>
      </trkpt>
      <trkpt lat="42.246977" lon="1.721385">
        <ele>1591.714</ele>
        <time>2018-09-22T13:38:52Z</time>
      </trkpt>
      <trkpt lat="42.246978" lon="1.721436">
        <ele>1591.008</ele>
        <time>2018-09-22T13:38:54Z</time>
      </trkpt>
      <trkpt lat="42.247001" lon="1.721531">
        <ele>1588.344</ele>
        <time>2018-09-22T13:38:57Z</time>
      </trkpt>
      <trkpt lat="42.247039" lon="1.721630">
        <ele>1585.240</ele>
        <time>2018-09-22T13:39:00Z</time>
      </trkpt>
      <trkpt lat="42.247001" lon="1.721730">
        <ele>1586.671</ele>
        <time>2018-09-22T13:39:04Z</time>
      </trkpt>
      <trkpt lat="42.246980" lon="1.721737">
        <ele>1587.615</ele>
        <time>2018-09-22T13:39:05Z</time>
      </trkpt>
      <trkpt lat="42.246937" lon="1.721736">
        <ele>1589.021</ele>
        <time>2018-09-22T13:39:07Z</time>
      </trkpt>
      <trkpt lat="42.246887" lon="1.721736">
        <ele>1587.931</ele>
        <time>2018-09-22T13:39:10Z</time>
      </trkpt>
      <trkpt lat="42.246850" lon="1.721727">
        <ele>1587.153</ele>
        <time>2018-09-22T13:39:12Z</time>
      </trkpt>
      <trkpt lat="42.246775" lon="1.721698">
        <ele>1586.275</ele>
        <time>2018-09-22T13:39:16Z</time>
      </trkpt>
      <trkpt lat="42.246747" lon="1.721688">
        <ele>1585.989</ele>
        <time>2018-09-22T13:39:18Z</time>
      </trkpt>
      <trkpt lat="42.246737" lon="1.721690">
        <ele>1585.606</ele>
        <time>2018-09-22T13:39:19Z</time>
      </trkpt>
      <trkpt lat="42.246690" lon="1.721694">
        <ele>1584.526</ele>
        <time>2018-09-22T13:39:22Z</time>
      </trkpt>
      <trkpt lat="42.246669" lon="1.721694">
        <ele>1584.108</ele>
        <time>2018-09-22T13:39:24Z</time>
      </trkpt>
      <trkpt lat="42.246659" lon="1.721709">
        <ele>1583.450</ele>
        <time>2018-09-22T13:39:27Z</time>
      </trkpt>
      <trkpt lat="42.246644" lon="1.721770">
        <ele>1581.256</ele>
        <time>2018-09-22T13:39:30Z</time>
      </trkpt>
      <trkpt lat="42.246637" lon="1.721787">
        <ele>1580.597</ele>
        <time>2018-09-22T13:39:31Z</time>
      </trkpt>
      <trkpt lat="42.246631" lon="1.721796">
        <ele>1580.171</ele>
        <time>2018-09-22T13:39:32Z</time>
      </trkpt>
      <trkpt lat="42.246603" lon="1.721800">
        <ele>1579.487</ele>
        <time>2018-09-22T13:39:34Z</time>
      </trkpt>
      <trkpt lat="42.246590" lon="1.721806">
        <ele>1578.947</ele>
        <time>2018-09-22T13:39:35Z</time>
      </trkpt>
      <trkpt lat="42.246556" lon="1.721829">
        <ele>1577.459</ele>
        <time>2018-09-22T13:39:38Z</time>
      </trkpt>
      <trkpt lat="42.246543" lon="1.721837">
        <ele>1576.891</ele>
        <time>2018-09-22T13:39:39Z</time>
      </trkpt>
      <trkpt lat="42.246531" lon="1.721841">
        <ele>1576.411</ele>
        <time>2018-09-22T13:39:40Z</time>
      </trkpt>
      <trkpt lat="42.246510" lon="1.721858">
        <ele>1575.321</ele>
        <time>2018-09-22T13:39:42Z</time>
      </trkpt>
      <trkpt lat="42.246504" lon="1.721884">
        <ele>1574.203</ele>
        <time>2018-09-22T13:39:44Z</time>
      </trkpt>
      <trkpt lat="42.246506" lon="1.721937">
        <ele>1572.208</ele>
        <time>2018-09-22T13:39:47Z</time>
      </trkpt>
      <trkpt lat="42.246514" lon="1.721968">
        <ele>1571.323</ele>
        <time>2018-09-22T13:39:49Z</time>
      </trkpt>
      <trkpt lat="42.246514" lon="1.721999">
        <ele>1570.359</ele>
        <time>2018-09-22T13:39:51Z</time>
      </trkpt>
      <trkpt lat="42.246475" lon="1.722010">
        <ele>1568.950</ele>
        <time>2018-09-22T13:39:53Z</time>
      </trkpt>
      <trkpt lat="42.246404" lon="1.721989">
        <ele>1567.724</ele>
        <time>2018-09-22T13:39:56Z</time>
      </trkpt>
      <trkpt lat="42.246293" lon="1.721965">
        <ele>1567.580</ele>
        <time>2018-09-22T13:40:02Z</time>
      </trkpt>
      <trkpt lat="42.246280" lon="1.721965">
        <ele>1567.410</ele>
        <time>2018-09-22T13:40:03Z</time>
      </trkpt>
      <trkpt lat="42.246269" lon="1.721960">
        <ele>1567.542</ele>
        <time>2018-09-22T13:40:04Z</time>
      </trkpt>
      <trkpt lat="42.246248" lon="1.721960">
        <ele>1567.354</ele>
        <time>2018-09-22T13:40:06Z</time>
      </trkpt>
      <trkpt lat="42.246236" lon="1.721964">
        <ele>1567.154</ele>
        <time>2018-09-22T13:40:07Z</time>
      </trkpt>
      <trkpt lat="42.246514" lon="1.721820">
        <ele>1574.911</ele>
        <time>2021-08-25T11:42:01Z</time>
      </trkpt>
      <trkpt lat="42.246563" lon="1.721827">
        <ele>1581.321</ele>
        <time>2021-08-25T11:42:57Z</time>
      </trkpt>
      <trkpt lat="42.246631" lon="1.721781">
        <ele>1581.303</ele>
        <time>2021-08-25T11:43:00Z</time>
      </trkpt>
      <trkpt lat="42.246677" lon="1.721762">
        <ele>1581.408</ele>
        <time>2021-08-25T11:43:02Z</time>
      </trkpt>
      <trkpt lat="42.246722" lon="1.721751">
        <ele>1581.629</ele>
        <time>2021-08-25T11:43:04Z</time>
      </trkpt>
      <trkpt lat="42.246784" lon="1.721761">
        <ele>1581.633</ele>
        <time>2021-08-25T11:43:07Z</time>
      </trkpt>
      <trkpt lat="42.246842" lon="1.721760">
        <ele>1583.321</ele>
        <time>2021-08-25T11:43:09Z</time>
      </trkpt>
      <trkpt lat="42.246889" lon="1.721748">
        <ele>1584.957</ele>
        <time>2021-08-25T11:43:11Z</time>
      </trkpt>
      <trkpt lat="42.246944" lon="1.721747">
        <ele>1587.872</ele>
        <time>2021-08-25T11:43:15Z</time>
      </trkpt>
      <trkpt lat="42.246981" lon="1.721688">
        <ele>1588.036</ele>
        <time>2021-08-25T11:43:19Z</time>
      </trkpt>
      <trkpt lat="42.246974" lon="1.721609">
        <ele>1588.633</ele>
        <time>2021-08-25T11:43:22Z</time>
      </trkpt>
      <trkpt lat="42.246947" lon="1.721551">
        <ele>1588.338</ele>
        <time>2021-08-25T11:43:25Z</time>
      </trkpt>
      <trkpt lat="42.246911" lon="1.721491">
        <ele>1587.154</ele>
        <time>2021-08-25T11:43:29Z</time>
      </trkpt>
      <trkpt lat="42.246918" lon="1.721421">
        <ele>1585.556</ele>
        <time>2021-08-25T11:43:34Z</time>
      </trkpt>
      <trkpt lat="42.246926" lon="1.721351">
        <ele>1585.211</ele>
        <time>2021-08-25T11:43:40Z</time>
      </trkpt>
      <trkpt lat="42.246953" lon="1.721300">
        <ele>1585.708</ele>
        <time>2021-08-25T11:43:44Z</time>
      </trkpt>
      <trkpt lat="42.246970" lon="1.721239">
        <ele>1586.783</ele>
        <time>2021-08-25T11:43:48Z</time>
      </trkpt>
      <trkpt lat="42.246977" lon="1.721165">
        <ele>1589.227</ele>
        <time>2021-08-25T11:43:53Z</time>
      </trkpt>
      <trkpt lat="42.246975" lon="1.721095">
        <ele>1593.455</ele>
        <time>2021-08-25T11:43:58Z</time>
      </trkpt>
      <trkpt lat="42.246971" lon="1.721021">
        <ele>1596.651</ele>
        <time>2021-08-25T11:44:03Z</time>
      </trkpt>
      <trkpt lat="42.246971" lon="1.720949">
        <ele>1597.996</ele>
        <time>2021-08-25T11:44:08Z</time>
      </trkpt>
      <trkpt lat="42.246964" lon="1.720889">
        <ele>1599.050</ele>
        <time>2021-08-25T11:44:13Z</time>
      </trkpt>
      <trkpt lat="42.246974" lon="1.720825">
        <ele>1602.567</ele>
        <time>2021-08-25T11:44:18Z</time>
      </trkpt>
      <trkpt lat="42.246989" lon="1.720757">
        <ele>1603.522</ele>
        <time>2021-08-25T11:44:23Z</time>
      </trkpt>
      <trkpt lat="42.247015" lon="1.720701">
        <ele>1604.598</ele>
        <time>2021-08-25T11:44:27Z</time>
      </trkpt>
      <trkpt lat="42.247040" lon="1.720646">
        <ele>1607.615</ele>
        <time>2021-08-25T11:44:32Z</time>
      </trkpt>
      <trkpt lat="42.247017" lon="1.720591">
        <ele>1609.426</ele>
        <time>2021-08-25T11:44:35Z</time>
      </trkpt>
      <trkpt lat="42.247019" lon="1.720522">
        <ele>1610.908</ele>
        <time>2021-08-25T11:44:39Z</time>
      </trkpt>
      <trkpt lat="42.247027" lon="1.720447">
        <ele>1611.487</ele>
        <time>2021-08-25T11:44:43Z</time>
      </trkpt>
      <trkpt lat="42.247030" lon="1.720385">
        <ele>1611.641</ele>
        <time>2021-08-25T11:44:46Z</time>
      </trkpt>
      <trkpt lat="42.247039" lon="1.720321">
        <ele>1612.569</ele>
        <time>2021-08-25T11:44:49Z</time>
      </trkpt>
      <trkpt lat="42.247046" lon="1.720248">
        <ele>1613.325</ele>
        <time>2021-08-25T11:44:52Z</time>
      </trkpt>
      <trkpt lat="42.247067" lon="1.720175">
        <ele>1613.880</ele>
        <time>2021-08-25T11:44:56Z</time>
      </trkpt>
      <trkpt lat="42.247061" lon="1.720100">
        <ele>1613.754</ele>
        <time>2021-08-25T11:44:59Z</time>
      </trkpt>
      <trkpt lat="42.247079" lon="1.720030">
        <ele>1613.421</ele>
        <time>2021-08-25T11:45:03Z</time>
      </trkpt>
      <trkpt lat="42.247091" lon="1.719969">
        <ele>1613.186</ele>
        <time>2021-08-25T11:45:08Z</time>
      </trkpt>
      <trkpt lat="42.247127" lon="1.719918">
        <ele>1613.066</ele>
        <time>2021-08-25T11:45:12Z</time>
      </trkpt>
      <trkpt lat="42.247133" lon="1.719858">
        <ele>1612.829</ele>
        <time>2021-08-25T11:45:15Z</time>
      </trkpt>
      <trkpt lat="42.247121" lon="1.719794">
        <ele>1612.821</ele>
        <time>2021-08-25T11:45:20Z</time>
      </trkpt>
      <trkpt lat="42.247102" lon="1.719730">
        <ele>1613.208</ele>
        <time>2021-08-25T11:45:26Z</time>
      </trkpt>
      <trkpt lat="42.247067" lon="1.719691">
        <ele>1613.244</ele>
        <time>2021-08-25T11:45:29Z</time>
      </trkpt>
      <trkpt lat="42.247019" lon="1.719658">
        <ele>1612.668</ele>
        <time>2021-08-25T11:45:32Z</time>
      </trkpt>
      <trkpt lat="42.246970" lon="1.719629">
        <ele>1612.476</ele>
        <time>2021-08-25T11:45:35Z</time>
      </trkpt>
      <trkpt lat="42.246920" lon="1.719590">
        <ele>1611.972</ele>
        <time>2021-08-25T11:45:38Z</time>
      </trkpt>
      <trkpt lat="42.246875" lon="1.719549">
        <ele>1611.417</ele>
        <time>2021-08-25T11:45:42Z</time>
      </trkpt>
      <trkpt lat="42.246817" lon="1.719527">
        <ele>1611.191</ele>
        <time>2021-08-25T11:45:45Z</time>
      </trkpt>
      <trkpt lat="42.246764" lon="1.719526">
        <ele>1610.948</ele>
        <time>2021-08-25T11:45:48Z</time>
      </trkpt>
      <trkpt lat="42.246714" lon="1.719542">
        <ele>1609.823</ele>
        <time>2021-08-25T11:45:51Z</time>
      </trkpt>
      <trkpt lat="42.246662" lon="1.719538">
        <ele>1608.717</ele>
        <time>2021-08-25T11:45:54Z</time>
      </trkpt>
      <trkpt lat="42.246605" lon="1.719511">
        <ele>1607.987</ele>
        <time>2021-08-25T11:45:57Z</time>
      </trkpt>
      <trkpt lat="42.246553" lon="1.719483">
        <ele>1605.915</ele>
        <time>2021-08-25T11:46:00Z</time>
      </trkpt>
      <trkpt lat="42.246501" lon="1.719466">
        <ele>1605.208</ele>
        <time>2021-08-25T11:46:03Z</time>
      </trkpt>
      <trkpt lat="42.246448" lon="1.719446">
        <ele>1605.159</ele>
        <time>2021-08-25T11:46:06Z</time>
      </trkpt>
      <trkpt lat="42.246402" lon="1.719430">
        <ele>1605.233</ele>
        <time>2021-08-25T11:46:08Z</time>
      </trkpt>
      <trkpt lat="42.246353" lon="1.719409">
        <ele>1606.611</ele>
        <time>2021-08-25T11:46:11Z</time>
      </trkpt>
      <trkpt lat="42.246291" lon="1.719407">
        <ele>1606.947</ele>
        <time>2021-08-25T11:46:13Z</time>
      </trkpt>
      <trkpt lat="42.246227" lon="1.719384">
        <ele>1607.872</ele>
        <time>2021-08-25T11:46:16Z</time>
      </trkpt>
      <trkpt lat="42.246173" lon="1.719374">
        <ele>1608.026</ele>
        <time>2021-08-25T11:46:19Z</time>
      </trkpt>
      <trkpt lat="42.246120" lon="1.719369">
        <ele>1608.523</ele>
        <time>2021-08-25T11:46:23Z</time>
      </trkpt>
      <trkpt lat="42.246075" lon="1.719404">
        <ele>1608.958</ele>
        <time>2021-08-25T11:46:26Z</time>
      </trkpt>
      <trkpt lat="42.246047" lon="1.719468">
        <ele>1610.623</ele>
        <time>2021-08-25T11:46:29Z</time>
      </trkpt>
      <trkpt lat="42.246105" lon="1.719504">
        <ele>1611.883</ele>
        <time>2021-08-25T11:46:31Z</time>
      </trkpt>
      <trkpt lat="42.246130" lon="1.719426">
        <ele>1612.711</ele>
        <time>2021-08-25T11:46:33Z</time>
      </trkpt>
      <trkpt lat="42.246126" lon="1.719361">
        <ele>1613.608</ele>
        <time>2021-08-25T11:46:35Z</time>
      </trkpt>
      <trkpt lat="42.246117" lon="1.719301">
        <ele>1611.080</ele>
        <time>2021-08-25T11:46:37Z</time>
      </trkpt>
      <trkpt lat="42.246109" lon="1.719226">
        <ele>1610.614</ele>
        <time>2021-08-25T11:46:40Z</time>
      </trkpt>
      <trkpt lat="42.246113" lon="1.719161">
        <ele>1610.332</ele>
        <time>2021-08-25T11:46:43Z</time>
      </trkpt>
      <trkpt lat="42.246115" lon="1.719075">
        <ele>1610.378</ele>
        <time>2021-08-25T11:46:46Z</time>
      </trkpt>
      <trkpt lat="42.246109" lon="1.719013">
        <ele>1610.263</ele>
        <time>2021-08-25T11:46:49Z</time>
      </trkpt>
      <trkpt lat="42.246119" lon="1.718929">
        <ele>1610.097</ele>
        <time>2021-08-25T11:46:52Z</time>
      </trkpt>
      <trkpt lat="42.246135" lon="1.718852">
        <ele>1610.034</ele>
        <time>2021-08-25T11:46:55Z</time>
      </trkpt>
      <trkpt lat="42.246136" lon="1.718776">
        <ele>1610.279</ele>
        <time>2021-08-25T11:46:58Z</time>
      </trkpt>
      <trkpt lat="42.246144" lon="1.718715">
        <ele>1610.494</ele>
        <time>2021-08-25T11:47:02Z</time>
      </trkpt>
      <trkpt lat="42.246104" lon="1.718682">
        <ele>1611.257</ele>
        <time>2021-08-25T11:47:07Z</time>
      </trkpt>
      <trkpt lat="42.246059" lon="1.718683">
        <ele>1611.222</ele>
        <time>2021-08-25T11:47:08Z</time>
      </trkpt>
      <trkpt lat="42.246044" lon="1.718741">
        <ele>1611.508</ele>
        <time>2021-08-25T11:47:11Z</time>
      </trkpt>
      <trkpt lat="42.246036" lon="1.718817">
        <ele>1612.017</ele>
        <time>2021-08-25T11:47:15Z</time>
      </trkpt>
      <trkpt lat="42.246030" lon="1.718889">
        <ele>1615.141</ele>
        <time>2021-08-25T11:47:19Z</time>
      </trkpt>
      <trkpt lat="42.246027" lon="1.718971">
        <ele>1616.329</ele>
        <time>2021-08-25T11:47:22Z</time>
      </trkpt>
      <trkpt lat="42.246022" lon="1.719053">
        <ele>1617.285</ele>
        <time>2021-08-25T11:47:25Z</time>
      </trkpt>
      <trkpt lat="42.246025" lon="1.719126">
        <ele>1617.560</ele>
        <time>2021-08-25T11:47:27Z</time>
      </trkpt>
      <trkpt lat="42.246012" lon="1.719212">
        <ele>1617.864</ele>
        <time>2021-08-25T11:47:30Z</time>
      </trkpt>
      <trkpt lat="42.245987" lon="1.719276">
        <ele>1619.061</ele>
        <time>2021-08-25T11:47:32Z</time>
      </trkpt>
      <trkpt lat="42.245955" lon="1.719338">
        <ele>1621.576</ele>
        <time>2021-08-25T11:47:34Z</time>
      </trkpt>
      <trkpt lat="42.245895" lon="1.719327">
        <ele>1624.511</ele>
        <time>2021-08-25T11:47:37Z</time>
      </trkpt>
      <trkpt lat="42.245866" lon="1.719274">
        <ele>1625.621</ele>
        <time>2021-08-25T11:47:41Z</time>
      </trkpt>
      <trkpt lat="42.245837" lon="1.719216">
        <ele>1628.003</ele>
        <time>2021-08-25T11:47:47Z</time>
      </trkpt>
      <trkpt lat="42.245760" lon="1.719221">
        <ele>1628.008</ele>
        <time>2021-08-25T11:47:51Z</time>
      </trkpt>
      <trkpt lat="42.245758" lon="1.719148">
        <ele>1628.019</ele>
        <time>2021-08-25T11:47:54Z</time>
      </trkpt>
      <trkpt lat="42.245739" lon="1.719055">
        <ele>1628.483</ele>
        <time>2021-08-25T11:48:20Z</time>
      </trkpt>
      <trkpt lat="42.245715" lon="1.718983">
        <ele>1627.841</ele>
        <time>2021-08-25T11:48:24Z</time>
      </trkpt>
      <trkpt lat="42.245700" lon="1.718920">
        <ele>1632.027</ele>
        <time>2021-08-25T11:48:27Z</time>
      </trkpt>
      <trkpt lat="42.245683" lon="1.718861">
        <ele>1632.052</ele>
        <time>2021-08-25T11:48:31Z</time>
      </trkpt>
      <trkpt lat="42.245678" lon="1.718794">
        <ele>1632.336</ele>
        <time>2021-08-25T11:48:37Z</time>
      </trkpt>
      <trkpt lat="42.245680" lon="1.718731">
        <ele>1632.543</ele>
        <time>2021-08-25T11:48:45Z</time>
      </trkpt>
      <trkpt lat="42.245653" lon="1.718679">
        <ele>1633.348</ele>
        <time>2021-08-25T11:48:50Z</time>
      </trkpt>
      <trkpt lat="42.245641" lon="1.718621">
        <ele>1634.217</ele>
        <time>2021-08-25T11:48:54Z</time>
      </trkpt>
      <trkpt lat="42.245628" lon="1.718543">
        <ele>1634.287</ele>
        <time>2021-08-25T11:48:57Z</time>
      </trkpt>
      <trkpt lat="42.245626" lon="1.718470">
        <ele>1634.515</ele>
        <time>2021-08-25T11:49:00Z</time>
      </trkpt>
      <trkpt lat="42.245634" lon="1.718408">
        <ele>1634.508</ele>
        <time>2021-08-25T11:49:04Z</time>
      </trkpt>
      <trkpt lat="42.245634" lon="1.718332">
        <ele>1634.589</ele>
        <time>2021-08-25T11:49:09Z</time>
      </trkpt>
      <trkpt lat="42.245613" lon="1.718266">
        <ele>1634.643</ele>
        <time>2021-08-25T11:49:14Z</time>
      </trkpt>
      <trkpt lat="42.245598" lon="1.718200">
        <ele>1637.681</ele>
        <time>2021-08-25T11:49:19Z</time>
      </trkpt>
      <trkpt lat="42.245583" lon="1.718142">
        <ele>1638.297</ele>
        <time>2021-08-25T11:49:23Z</time>
      </trkpt>
      <trkpt lat="42.245574" lon="1.718068">
        <ele>1638.482</ele>
        <time>2021-08-25T11:49:28Z</time>
      </trkpt>
      <trkpt lat="42.245585" lon="1.717995">
        <ele>1639.756</ele>
        <time>2021-08-25T11:49:33Z</time>
      </trkpt>
      <trkpt lat="42.245591" lon="1.717912">
        <ele>1639.923</ele>
        <time>2021-08-25T11:49:37Z</time>
      </trkpt>
      <trkpt lat="42.245588" lon="1.717846">
        <ele>1640.348</ele>
        <time>2021-08-25T11:49:40Z</time>
      </trkpt>
      <trkpt lat="42.245563" lon="1.717765">
        <ele>1640.653</ele>
        <time>2021-08-25T11:49:44Z</time>
      </trkpt>
      <trkpt lat="42.245552" lon="1.717697">
        <ele>1643.104</ele>
        <time>2021-08-25T11:49:48Z</time>
      </trkpt>
      <trkpt lat="42.245543" lon="1.717625">
        <ele>1644.814</ele>
        <time>2021-08-25T11:49:52Z</time>
      </trkpt>
      <trkpt lat="42.245530" lon="1.717559">
        <ele>1645.308</ele>
        <time>2021-08-25T11:49:56Z</time>
      </trkpt>
      <trkpt lat="42.245532" lon="1.717494">
        <ele>1645.983</ele>
        <time>2021-08-25T11:50:01Z</time>
      </trkpt>
      <trkpt lat="42.245522" lon="1.717428">
        <ele>1647.247</ele>
        <time>2021-08-25T11:50:05Z</time>
      </trkpt>
      <trkpt lat="42.245523" lon="1.717349">
        <ele>1650.555</ele>
        <time>2021-08-25T11:50:10Z</time>
      </trkpt>
      <trkpt lat="42.245533" lon="1.717289">
        <ele>1651.251</ele>
        <time>2021-08-25T11:50:13Z</time>
      </trkpt>
      <trkpt lat="42.245538" lon="1.717209">
        <ele>1652.566</ele>
        <time>2021-08-25T11:50:17Z</time>
      </trkpt>
      <trkpt lat="42.245532" lon="1.717138">
        <ele>1652.980</ele>
        <time>2021-08-25T11:50:21Z</time>
      </trkpt>
      <trkpt lat="42.245500" lon="1.717074">
        <ele>1653.657</ele>
        <time>2021-08-25T11:50:24Z</time>
      </trkpt>
      <trkpt lat="42.245471" lon="1.717014">
        <ele>1658.482</ele>
        <time>2021-08-25T11:50:27Z</time>
      </trkpt>
      <trkpt lat="42.245441" lon="1.716951">
        <ele>1659.882</ele>
        <time>2021-08-25T11:50:31Z</time>
      </trkpt>
      <trkpt lat="42.245399" lon="1.716909">
        <ele>1659.743</ele>
        <time>2021-08-25T11:50:36Z</time>
      </trkpt>
      <trkpt lat="42.245365" lon="1.716864">
        <ele>1659.617</ele>
        <time>2021-08-25T11:50:41Z</time>
      </trkpt>
      <trkpt lat="42.245333" lon="1.716818">
        <ele>1659.908</ele>
        <time>2021-08-25T11:50:48Z</time>
      </trkpt>
      <trkpt lat="42.245334" lon="1.716755">
        <ele>1660.836</ele>
        <time>2021-08-25T11:50:55Z</time>
      </trkpt>
      <trkpt lat="42.245295" lon="1.716696">
        <ele>1660.890</ele>
        <time>2021-08-25T11:51:01Z</time>
      </trkpt>
      <trkpt lat="42.245267" lon="1.716644">
        <ele>1661.078</ele>
        <time>2021-08-25T11:51:05Z</time>
      </trkpt>
      <trkpt lat="42.245252" lon="1.716583">
        <ele>1661.354</ele>
        <time>2021-08-25T11:51:11Z</time>
      </trkpt>
      <trkpt lat="42.245220" lon="1.716537">
        <ele>1661.519</ele>
        <time>2021-08-25T11:51:18Z</time>
      </trkpt>
      <trkpt lat="42.245195" lon="1.716486">
        <ele>1662.043</ele>
        <time>2021-08-25T11:51:34Z</time>
      </trkpt>
      <trkpt lat="42.245170" lon="1.716426">
        <ele>1665.160</ele>
        <time>2021-08-25T11:51:40Z</time>
      </trkpt>
      <trkpt lat="42.245150" lon="1.716369">
        <ele>1665.755</ele>
        <time>2021-08-25T11:51:44Z</time>
      </trkpt>
      <trkpt lat="42.245121" lon="1.716308">
        <ele>1665.786</ele>
        <time>2021-08-25T11:51:49Z</time>
      </trkpt>
      <trkpt lat="42.245090" lon="1.716264">
        <ele>1668.060</ele>
        <time>2021-08-25T11:51:53Z</time>
      </trkpt>
      <trkpt lat="42.245090" lon="1.716328">
        <ele>1670.226</ele>
        <time>2021-08-25T11:52:05Z</time>
      </trkpt>
      <trkpt lat="42.245039" lon="1.716353">
        <ele>1671.708</ele>
        <time>2021-08-25T11:52:10Z</time>
      </trkpt>
      <trkpt lat="42.245013" lon="1.716303">
        <ele>1672.046</ele>
        <time>2021-08-25T11:52:14Z</time>
      </trkpt>
      <trkpt lat="42.245010" lon="1.716241">
        <ele>1672.130</ele>
        <time>2021-08-25T11:52:19Z</time>
      </trkpt>
      <trkpt lat="42.245026" lon="1.716181">
        <ele>1673.758</ele>
        <time>2021-08-25T11:52:24Z</time>
      </trkpt>
      <trkpt lat="42.245022" lon="1.716108">
        <ele>1673.624</ele>
        <time>2021-08-25T11:52:28Z</time>
      </trkpt>
      <trkpt lat="42.245028" lon="1.716030">
        <ele>1673.799</ele>
        <time>2021-08-25T11:52:31Z</time>
      </trkpt>
      <trkpt lat="42.245020" lon="1.715955">
        <ele>1670.953</ele>
        <time>2021-08-25T11:52:41Z</time>
      </trkpt>
      <trkpt lat="42.245010" lon="1.715885">
        <ele>1670.460</ele>
        <time>2021-08-25T11:52:49Z</time>
      </trkpt>
      <trkpt lat="42.245003" lon="1.715813">
        <ele>1670.045</ele>
        <time>2021-08-25T11:52:52Z</time>
      </trkpt>
      <trkpt lat="42.244968" lon="1.715739">
        <ele>1669.852</ele>
        <time>2021-08-25T11:52:55Z</time>
      </trkpt>
      <trkpt lat="42.244960" lon="1.715675">
        <ele>1668.353</ele>
        <time>2021-08-25T11:52:58Z</time>
      </trkpt>
      <trkpt lat="42.244943" lon="1.715617">
        <ele>1666.208</ele>
        <time>2021-08-25T11:53:01Z</time>
      </trkpt>
      <trkpt lat="42.244930" lon="1.715557">
        <ele>1664.608</ele>
        <time>2021-08-25T11:53:05Z</time>
      </trkpt>
      <trkpt lat="42.244935" lon="1.715493">
        <ele>1663.833</ele>
        <time>2021-08-25T11:53:08Z</time>
      </trkpt>
      <trkpt lat="42.244903" lon="1.715414">
        <ele>1662.927</ele>
        <time>2021-08-25T11:53:11Z</time>
      </trkpt>
      <trkpt lat="42.244888" lon="1.715335">
        <ele>1662.985</ele>
        <time>2021-08-25T11:53:14Z</time>
      </trkpt>
      <trkpt lat="42.244887" lon="1.715273">
        <ele>1662.861</ele>
        <time>2021-08-25T11:53:16Z</time>
      </trkpt>
      <trkpt lat="42.244864" lon="1.715205">
        <ele>1662.226</ele>
        <time>2021-08-25T11:53:18Z</time>
      </trkpt>
      <trkpt lat="42.244888" lon="1.715152">
        <ele>1663.310</ele>
        <time>2021-08-25T11:53:20Z</time>
      </trkpt>
      <trkpt lat="42.244900" lon="1.715073">
        <ele>1663.847</ele>
        <time>2021-08-25T11:53:23Z</time>
      </trkpt>
      <trkpt lat="42.244924" lon="1.715005">
        <ele>1665.262</ele>
        <time>2021-08-25T11:53:26Z</time>
      </trkpt>
      <trkpt lat="42.244925" lon="1.714913">
        <ele>1668.129</ele>
        <time>2021-08-25T11:53:29Z</time>
      </trkpt>
      <trkpt lat="42.244938" lon="1.714850">
        <ele>1668.500</ele>
        <time>2021-08-25T11:53:31Z</time>
      </trkpt>
      <trkpt lat="42.244932" lon="1.714784">
        <ele>1668.720</ele>
        <time>2021-08-25T11:53:34Z</time>
      </trkpt>
      <trkpt lat="42.244923" lon="1.714721">
        <ele>1669.808</ele>
        <time>2021-08-25T11:53:36Z</time>
      </trkpt>
      <trkpt lat="42.244907" lon="1.714646">
        <ele>1670.190</ele>
        <time>2021-08-25T11:53:38Z</time>
      </trkpt>
      <trkpt lat="42.244902" lon="1.714581">
        <ele>1671.474</ele>
        <time>2021-08-25T11:53:40Z</time>
      </trkpt>
      <trkpt lat="42.244909" lon="1.714509">
        <ele>1671.872</ele>
        <time>2021-08-25T11:53:43Z</time>
      </trkpt>
      <trkpt lat="42.244926" lon="1.714445">
        <ele>1672.148</ele>
        <time>2021-08-25T11:53:46Z</time>
      </trkpt>
      <trkpt lat="42.244937" lon="1.714376">
        <ele>1672.743</ele>
        <time>2021-08-25T11:53:48Z</time>
      </trkpt>
      <trkpt lat="42.244940" lon="1.714302">
        <ele>1673.387</ele>
        <time>2021-08-25T11:53:50Z</time>
      </trkpt>
      <trkpt lat="42.244949" lon="1.714242">
        <ele>1673.824</ele>
        <time>2021-08-25T11:53:52Z</time>
      </trkpt>
      <trkpt lat="42.244930" lon="1.714184">
        <ele>1674.229</ele>
        <time>2021-08-25T11:53:55Z</time>
      </trkpt>
      <trkpt lat="42.244906" lon="1.714123">
        <ele>1674.427</ele>
        <time>2021-08-25T11:53:58Z</time>
      </trkpt>
      <trkpt lat="42.244888" lon="1.714049">
        <ele>1673.868</ele>
        <time>2021-08-25T11:54:02Z</time>
      </trkpt>
      <trkpt lat="42.244894" lon="1.713981">
        <ele>1673.714</ele>
        <time>2021-08-25T11:54:06Z</time>
      </trkpt>
      <trkpt lat="42.244859" lon="1.713933">
        <ele>1673.908</ele>
        <time>2021-08-25T11:54:09Z</time>
      </trkpt>
      <trkpt lat="42.244820" lon="1.713868">
        <ele>1673.970</ele>
        <time>2021-08-25T11:54:13Z</time>
      </trkpt>
      <trkpt lat="42.244785" lon="1.713797">
        <ele>1674.254</ele>
        <time>2021-08-25T11:54:16Z</time>
      </trkpt>
      <trkpt lat="42.244773" lon="1.713721">
        <ele>1674.252</ele>
        <time>2021-08-25T11:54:19Z</time>
      </trkpt>
      <trkpt lat="42.244794" lon="1.713659">
        <ele>1674.318</ele>
        <time>2021-08-25T11:54:23Z</time>
      </trkpt>
      <trkpt lat="42.244815" lon="1.713600">
        <ele>1674.713</ele>
        <time>2021-08-25T11:54:27Z</time>
      </trkpt>
      <trkpt lat="42.244834" lon="1.713530">
        <ele>1674.817</ele>
        <time>2021-08-25T11:54:31Z</time>
      </trkpt>
      <trkpt lat="42.244825" lon="1.713461">
        <ele>1676.274</ele>
        <time>2021-08-25T11:54:35Z</time>
      </trkpt>
      <trkpt lat="42.244814" lon="1.713382">
        <ele>1678.869</ele>
        <time>2021-08-25T11:54:39Z</time>
      </trkpt>
      <trkpt lat="42.244808" lon="1.713303">
        <ele>1681.076</ele>
        <time>2021-08-25T11:54:42Z</time>
      </trkpt>
      <trkpt lat="42.244787" lon="1.713238">
        <ele>1681.590</ele>
        <time>2021-08-25T11:54:45Z</time>
      </trkpt>
      <trkpt lat="42.244768" lon="1.713167">
        <ele>1682.019</ele>
        <time>2021-08-25T11:54:48Z</time>
      </trkpt>
      <trkpt lat="42.244758" lon="1.713095">
        <ele>1682.208</ele>
        <time>2021-08-25T11:54:52Z</time>
      </trkpt>
      <trkpt lat="42.244726" lon="1.713043">
        <ele>1681.515</ele>
        <time>2021-08-25T11:54:54Z</time>
      </trkpt>
      <trkpt lat="42.244701" lon="1.712983">
        <ele>1681.779</ele>
        <time>2021-08-25T11:54:56Z</time>
      </trkpt>
      <trkpt lat="42.244706" lon="1.712899">
        <ele>1680.917</ele>
        <time>2021-08-25T11:54:58Z</time>
      </trkpt>
      <trkpt lat="42.244734" lon="1.712816">
        <ele>1680.443</ele>
        <time>2021-08-25T11:55:00Z</time>
      </trkpt>
      <trkpt lat="42.244742" lon="1.712741">
        <ele>1680.398</ele>
        <time>2021-08-25T11:55:02Z</time>
      </trkpt>
      <trkpt lat="42.244756" lon="1.712667">
        <ele>1681.172</ele>
        <time>2021-08-25T11:55:05Z</time>
      </trkpt>
      <trkpt lat="42.244745" lon="1.712594">
        <ele>1681.939</ele>
        <time>2021-08-25T11:55:08Z</time>
      </trkpt>
      <trkpt lat="42.244746" lon="1.712528">
        <ele>1682.044</ele>
        <time>2021-08-25T11:55:12Z</time>
      </trkpt>
      <trkpt lat="42.244706" lon="1.712447">
        <ele>1682.012</ele>
        <time>2021-08-25T11:55:15Z</time>
      </trkpt>
      <trkpt lat="42.244670" lon="1.712369">
        <ele>1682.032</ele>
        <time>2021-08-25T11:55:18Z</time>
      </trkpt>
      <trkpt lat="42.244636" lon="1.712303">
        <ele>1681.505</ele>
        <time>2021-08-25T11:55:21Z</time>
      </trkpt>
      <trkpt lat="42.244602" lon="1.712262">
        <ele>1681.408</ele>
        <time>2021-08-25T11:55:24Z</time>
      </trkpt>
      <trkpt lat="42.244575" lon="1.712195">
        <ele>1681.359</ele>
        <time>2021-08-25T11:55:27Z</time>
      </trkpt>
      <trkpt lat="42.244571" lon="1.712120">
        <ele>1681.593</ele>
        <time>2021-08-25T11:55:30Z</time>
      </trkpt>
      <trkpt lat="42.244583" lon="1.712043">
        <ele>1683.191</ele>
        <time>2021-08-25T11:55:34Z</time>
      </trkpt>
      <trkpt lat="42.244592" lon="1.711975">
        <ele>1683.767</ele>
        <time>2021-08-25T11:55:37Z</time>
      </trkpt>
      <trkpt lat="42.244581" lon="1.711898">
        <ele>1683.712</ele>
        <time>2021-08-25T11:55:40Z</time>
      </trkpt>
      <trkpt lat="42.244557" lon="1.711838">
        <ele>1683.716</ele>
        <time>2021-08-25T11:55:42Z</time>
      </trkpt>
      <trkpt lat="42.244532" lon="1.711760">
        <ele>1681.633</ele>
        <time>2021-08-25T11:55:45Z</time>
      </trkpt>
      <trkpt lat="42.244511" lon="1.711675">
        <ele>1678.648</ele>
        <time>2021-08-25T11:55:48Z</time>
      </trkpt>
      <trkpt lat="42.244487" lon="1.711610">
        <ele>1676.875</ele>
        <time>2021-08-25T11:55:52Z</time>
      </trkpt>
      <trkpt lat="42.244477" lon="1.711514">
        <ele>1676.128</ele>
        <time>2021-08-25T11:55:55Z</time>
      </trkpt>
      <trkpt lat="42.244456" lon="1.711437">
        <ele>1675.320</ele>
        <time>2021-08-25T11:55:57Z</time>
      </trkpt>
      <trkpt lat="42.244436" lon="1.711367">
        <ele>1673.708</ele>
        <time>2021-08-25T11:55:59Z</time>
      </trkpt>
      <trkpt lat="42.244432" lon="1.711304">
        <ele>1673.715</ele>
        <time>2021-08-25T11:56:01Z</time>
      </trkpt>
      <trkpt lat="42.244445" lon="1.711234">
        <ele>1673.499</ele>
        <time>2021-08-25T11:56:04Z</time>
      </trkpt>
      <trkpt lat="42.244471" lon="1.711176">
        <ele>1673.037</ele>
        <time>2021-08-25T11:56:10Z</time>
      </trkpt>
      <trkpt lat="42.244517" lon="1.711221">
        <ele>1673.583</ele>
        <time>2021-08-25T11:56:17Z</time>
      </trkpt>
      <trkpt lat="42.244572" lon="1.711218">
        <ele>1674.468</ele>
        <time>2021-08-25T11:56:22Z</time>
      </trkpt>
      <trkpt lat="42.244595" lon="1.711156">
        <ele>1675.852</ele>
        <time>2021-08-25T11:56:27Z</time>
      </trkpt>
      <trkpt lat="42.244610" lon="1.711090">
        <ele>1676.789</ele>
        <time>2021-08-25T11:56:32Z</time>
      </trkpt>
      <trkpt lat="42.244661" lon="1.711090">
        <ele>1679.134</ele>
        <time>2021-08-25T11:56:38Z</time>
      </trkpt>
      <trkpt lat="42.244696" lon="1.711046">
        <ele>1680.235</ele>
        <time>2021-08-25T11:56:44Z</time>
      </trkpt>
      <trkpt lat="42.244749" lon="1.711041">
        <ele>1682.386</ele>
        <time>2021-08-25T11:56:50Z</time>
      </trkpt>
      <trkpt lat="42.244787" lon="1.711004">
        <ele>1682.414</ele>
        <time>2021-08-25T11:56:54Z</time>
      </trkpt>
      <trkpt lat="42.244835" lon="1.710996">
        <ele>1682.408</ele>
        <time>2021-08-25T11:57:00Z</time>
      </trkpt>
      <trkpt lat="42.244872" lon="1.710957">
        <ele>1680.571</ele>
        <time>2021-08-25T11:57:05Z</time>
      </trkpt>
      <trkpt lat="42.244902" lon="1.710910">
        <ele>1678.835</ele>
        <time>2021-08-25T11:57:09Z</time>
      </trkpt>
      <trkpt lat="42.244934" lon="1.710863">
        <ele>1676.643</ele>
        <time>2021-08-25T11:57:14Z</time>
      </trkpt>
      <trkpt lat="42.244964" lon="1.710807">
        <ele>1674.879</ele>
        <time>2021-08-25T11:57:18Z</time>
      </trkpt>
      <trkpt lat="42.244954" lon="1.710746">
        <ele>1672.664</ele>
        <time>2021-08-25T11:57:25Z</time>
      </trkpt>
      <trkpt lat="42.244977" lon="1.710677">
        <ele>1670.978</ele>
        <time>2021-08-25T11:57:30Z</time>
      </trkpt>
      <trkpt lat="42.244954" lon="1.710736">
        <ele>1670.235</ele>
        <time>2021-08-25T11:57:43Z</time>
      </trkpt>
      <trkpt lat="42.244928" lon="1.710793">
        <ele>1670.430</ele>
        <time>2021-08-25T11:57:49Z</time>
      </trkpt>
      <trkpt lat="42.244894" lon="1.710736">
        <ele>1670.017</ele>
        <time>2021-08-25T11:57:57Z</time>
      </trkpt>
      <trkpt lat="42.244853" lon="1.710691">
        <ele>1669.387</ele>
        <time>2021-08-25T11:58:05Z</time>
      </trkpt>
      <trkpt lat="42.244830" lon="1.710638">
        <ele>1667.715</ele>
        <time>2021-08-25T11:58:12Z</time>
      </trkpt>
      <trkpt lat="42.244826" lon="1.710576">
        <ele>1667.808</ele>
        <time>2021-08-25T11:58:21Z</time>
      </trkpt>
      <trkpt lat="42.244851" lon="1.710513">
        <ele>1667.859</ele>
        <time>2021-08-25T11:58:27Z</time>
      </trkpt>
      <trkpt lat="42.244879" lon="1.710464">
        <ele>1667.853</ele>
        <time>2021-08-25T11:58:31Z</time>
      </trkpt>
      <trkpt lat="42.244852" lon="1.710405">
        <ele>1669.651</ele>
        <time>2021-08-25T11:58:42Z</time>
      </trkpt>
      <trkpt lat="42.244814" lon="1.710453">
        <ele>1667.737</ele>
        <time>2021-08-25T11:58:57Z</time>
      </trkpt>
      <trkpt lat="42.244833" lon="1.710512">
        <ele>1664.962</ele>
        <time>2021-08-25T11:59:00Z</time>
      </trkpt>
      <trkpt lat="42.244888" lon="1.710517">
        <ele>1664.666</ele>
        <time>2021-08-25T11:59:04Z</time>
      </trkpt>
      <trkpt lat="42.244900" lon="1.710582">
        <ele>1664.653</ele>
        <time>2021-08-25T11:59:10Z</time>
      </trkpt>
      <trkpt lat="42.244936" lon="1.710631">
        <ele>1666.998</ele>
        <time>2021-08-25T11:59:27Z</time>
      </trkpt>
      <trkpt lat="42.244971" lon="1.710592">
        <ele>1664.523</ele>
        <time>2021-08-25T12:00:00Z</time>
      </trkpt>
      <trkpt lat="42.244954" lon="1.710653">
        <ele>1663.083</ele>
        <time>2021-08-25T12:00:24Z</time>
      </trkpt>
      <trkpt lat="42.244925" lon="1.710707">
        <ele>1662.511</ele>
        <time>2021-08-25T12:00:29Z</time>
      </trkpt>
      <trkpt lat="42.244880" lon="1.710694">
        <ele>1661.908</ele>
        <time>2021-08-25T12:00:37Z</time>
      </trkpt>
      <trkpt lat="42.244860" lon="1.710639">
        <ele>1661.260</ele>
        <time>2021-08-25T12:00:44Z</time>
      </trkpt>
      <trkpt lat="42.244811" lon="1.710652">
        <ele>1660.544</ele>
        <time>2021-08-25T12:00:51Z</time>
      </trkpt>
      <trkpt lat="42.244800" lon="1.710593">
        <ele>1660.772</ele>
        <time>2021-08-25T12:00:59Z</time>
      </trkpt>
      <trkpt lat="42.244760" lon="1.710558">
        <ele>1661.698</ele>
        <time>2021-08-25T12:01:06Z</time>
      </trkpt>
      <trkpt lat="42.244773" lon="1.710491">
        <ele>1663.033</ele>
        <time>2021-08-25T12:01:12Z</time>
      </trkpt>
      <trkpt lat="42.244742" lon="1.710442">
        <ele>1674.637</ele>
        <time>2021-08-25T12:01:30Z</time>
      </trkpt>
      <trkpt lat="42.244735" lon="1.710380">
        <ele>1676.864</ele>
        <time>2021-08-25T12:01:34Z</time>
      </trkpt>
      <trkpt lat="42.244702" lon="1.710330">
        <ele>1678.579</ele>
        <time>2021-08-25T12:01:40Z</time>
      </trkpt>
      <trkpt lat="42.244677" lon="1.710257">
        <ele>1679.254</ele>
        <time>2021-08-25T12:01:49Z</time>
      </trkpt>
      <trkpt lat="42.244685" lon="1.710195">
        <ele>1679.556</ele>
        <time>2021-08-25T12:01:53Z</time>
      </trkpt>
      <trkpt lat="42.244688" lon="1.710127">
        <ele>1681.811</ele>
        <time>2021-08-25T12:02:04Z</time>
      </trkpt>
      <trkpt lat="42.244680" lon="1.710066">
        <ele>1685.208</ele>
        <time>2021-08-25T12:02:12Z</time>
      </trkpt>
      <trkpt lat="42.244691" lon="1.710006">
        <ele>1687.733</ele>
        <time>2021-08-25T12:02:21Z</time>
      </trkpt>
      <trkpt lat="42.244680" lon="1.709943">
        <ele>1692.227</ele>
        <time>2021-08-25T12:02:27Z</time>
      </trkpt>
      <trkpt lat="42.244716" lon="1.709886">
        <ele>1695.175</ele>
        <time>2021-08-25T12:02:30Z</time>
      </trkpt>
      <trkpt lat="42.244752" lon="1.709849">
        <ele>1695.821</ele>
        <time>2021-08-25T12:02:34Z</time>
      </trkpt>
      <trkpt lat="42.244760" lon="1.709786">
        <ele>1697.156</ele>
        <time>2021-08-25T12:02:40Z</time>
      </trkpt>
      <trkpt lat="42.244771" lon="1.709721">
        <ele>1698.370</ele>
        <time>2021-08-25T12:02:46Z</time>
      </trkpt>
      <trkpt lat="42.244753" lon="1.709658">
        <ele>1699.237</ele>
        <time>2021-08-25T12:03:05Z</time>
      </trkpt>
      <trkpt lat="42.244760" lon="1.709588">
        <ele>1699.972</ele>
        <time>2021-08-25T12:03:11Z</time>
      </trkpt>
      <trkpt lat="42.244765" lon="1.709525">
        <ele>1700.993</ele>
        <time>2021-08-25T12:03:17Z</time>
      </trkpt>
      <trkpt lat="42.244764" lon="1.709464">
        <ele>1701.365</ele>
        <time>2021-08-25T12:03:22Z</time>
      </trkpt>
      <trkpt lat="42.244761" lon="1.709400">
        <ele>1701.721</ele>
        <time>2021-08-25T12:03:30Z</time>
      </trkpt>
      <trkpt lat="42.244754" lon="1.709330">
        <ele>1702.108</ele>
        <time>2021-08-25T12:03:35Z</time>
      </trkpt>
      <trkpt lat="42.244754" lon="1.709391">
        <ele>1701.777</ele>
        <time>2021-08-25T12:03:48Z</time>
      </trkpt>
      <trkpt lat="42.244709" lon="1.709398">
        <ele>1701.051</ele>
        <time>2021-08-25T12:03:55Z</time>
      </trkpt>
      <trkpt lat="42.244665" lon="1.709372">
        <ele>1699.339</ele>
        <time>2021-08-25T12:03:58Z</time>
      </trkpt>
      <trkpt lat="42.244630" lon="1.709322">
        <ele>1699.425</ele>
        <time>2021-08-25T12:04:10Z</time>
      </trkpt>
      <trkpt lat="42.244608" lon="1.709386">
        <ele>1699.880</ele>
        <time>2021-08-25T12:04:16Z</time>
      </trkpt>
      <trkpt lat="42.244571" lon="1.709424">
        <ele>1701.474</ele>
        <time>2021-08-25T12:04:30Z</time>
      </trkpt>
      <trkpt lat="42.244522" lon="1.709428">
        <ele>1702.251</ele>
        <time>2021-08-25T12:04:37Z</time>
      </trkpt>
      <trkpt lat="42.244510" lon="1.709366">
        <ele>1704.416</ele>
        <time>2021-08-25T12:04:41Z</time>
      </trkpt>
      <trkpt lat="42.244497" lon="1.709305">
        <ele>1708.095</ele>
        <time>2021-08-25T12:04:47Z</time>
      </trkpt>
      <trkpt lat="42.244476" lon="1.709366">
        <ele>1708.949</ele>
        <time>2021-08-25T12:04:52Z</time>
      </trkpt>
      <trkpt lat="42.244426" lon="1.709356">
        <ele>1711.623</ele>
        <time>2021-08-25T12:05:01Z</time>
      </trkpt>
      <trkpt lat="42.244423" lon="1.709285">
        <ele>1713.308</ele>
        <time>2021-08-25T12:05:06Z</time>
      </trkpt>
      <trkpt lat="42.244402" lon="1.709219">
        <ele>1716.887</ele>
        <time>2021-08-25T12:05:12Z</time>
      </trkpt>
      <trkpt lat="42.244395" lon="1.709158">
        <ele>1717.721</ele>
        <time>2021-08-25T12:05:17Z</time>
      </trkpt>
      <trkpt lat="42.244373" lon="1.709098">
        <ele>1718.749</ele>
        <time>2021-08-25T12:05:22Z</time>
      </trkpt>
      <trkpt lat="42.244335" lon="1.709058">
        <ele>1721.315</ele>
        <time>2021-08-25T12:05:28Z</time>
      </trkpt>
      <trkpt lat="42.244349" lon="1.708993">
        <ele>1722.620</ele>
        <time>2021-08-25T12:05:33Z</time>
      </trkpt>
      <trkpt lat="42.244380" lon="1.708948">
        <ele>1722.914</ele>
        <time>2021-08-25T12:05:36Z</time>
      </trkpt>
      <trkpt lat="42.244417" lon="1.708879">
        <ele>1722.921</ele>
        <time>2021-08-25T12:05:39Z</time>
      </trkpt>
      <trkpt lat="42.244443" lon="1.708823">
        <ele>1722.736</ele>
        <time>2021-08-25T12:05:41Z</time>
      </trkpt>
      <trkpt lat="42.244458" lon="1.708760">
        <ele>1722.264</ele>
        <time>2021-08-25T12:05:46Z</time>
      </trkpt>
      <trkpt lat="42.244462" lon="1.708690">
        <ele>1722.606</ele>
        <time>2021-08-25T12:05:52Z</time>
      </trkpt>
      <trkpt lat="42.244412" lon="1.708660">
        <ele>1722.816</ele>
        <time>2021-08-25T12:05:56Z</time>
      </trkpt>
      <trkpt lat="42.244457" lon="1.708649">
        <ele>1723.908</ele>
        <time>2021-08-25T12:06:06Z</time>
      </trkpt>
      <trkpt lat="42.244505" lon="1.708672">
        <ele>1724.184</ele>
        <time>2021-08-25T12:06:11Z</time>
      </trkpt>
      <trkpt lat="42.244552" lon="1.708689">
        <ele>1724.218</ele>
        <time>2021-08-25T12:06:14Z</time>
      </trkpt>
      <trkpt lat="42.244601" lon="1.708710">
        <ele>1724.356</ele>
        <time>2021-08-25T12:06:17Z</time>
      </trkpt>
      <trkpt lat="42.244627" lon="1.708652">
        <ele>1724.792</ele>
        <time>2021-08-25T12:06:25Z</time>
      </trkpt>
      <trkpt lat="42.244664" lon="1.708611">
        <ele>1724.927</ele>
        <time>2021-08-25T12:06:30Z</time>
      </trkpt>
      <trkpt lat="42.244694" lon="1.708554">
        <ele>1724.871</ele>
        <time>2021-08-25T12:06:34Z</time>
      </trkpt>
      <trkpt lat="42.244732" lon="1.708497">
        <ele>1724.958</ele>
        <time>2021-08-25T12:06:37Z</time>
      </trkpt>
      <trkpt lat="42.244767" lon="1.708426">
        <ele>1725.093</ele>
        <time>2021-08-25T12:06:40Z</time>
      </trkpt>
      <trkpt lat="42.244781" lon="1.708348">
        <ele>1725.297</ele>
        <time>2021-08-25T12:06:43Z</time>
      </trkpt>
      <trkpt lat="42.244795" lon="1.708290">
        <ele>1725.623</ele>
        <time>2021-08-25T12:06:47Z</time>
      </trkpt>
      <trkpt lat="42.244824" lon="1.708214">
        <ele>1725.925</ele>
        <time>2021-08-25T12:06:51Z</time>
      </trkpt>
      <trkpt lat="42.244837" lon="1.708142">
        <ele>1726.108</ele>
        <time>2021-08-25T12:06:55Z</time>
      </trkpt>
      <trkpt lat="42.244861" lon="1.708080">
        <ele>1725.817</ele>
        <time>2021-08-25T12:06:58Z</time>
      </trkpt>
      <trkpt lat="42.244912" lon="1.708034">
        <ele>1725.751</ele>
        <time>2021-08-25T12:07:01Z</time>
      </trkpt>
      <trkpt lat="42.244938" lon="1.707984">
        <ele>1725.749</ele>
        <time>2021-08-25T12:07:05Z</time>
      </trkpt>
      <trkpt lat="42.244973" lon="1.707942">
        <ele>1725.815</ele>
        <time>2021-08-25T12:07:09Z</time>
      </trkpt>
      <trkpt lat="42.244994" lon="1.707886">
        <ele>1726.230</ele>
        <time>2021-08-25T12:07:13Z</time>
      </trkpt>
      <trkpt lat="42.244999" lon="1.707813">
        <ele>1727.844</ele>
        <time>2021-08-25T12:07:17Z</time>
      </trkpt>
      <trkpt lat="42.245026" lon="1.707750">
        <ele>1728.141</ele>
        <time>2021-08-25T12:07:21Z</time>
      </trkpt>
      <trkpt lat="42.245058" lon="1.707689">
        <ele>1728.476</ele>
        <time>2021-08-25T12:07:25Z</time>
      </trkpt>
      <trkpt lat="42.245058" lon="1.707627">
        <ele>1728.513</ele>
        <time>2021-08-25T12:07:29Z</time>
      </trkpt>
      <trkpt lat="42.245100" lon="1.707578">
        <ele>1728.843</ele>
        <time>2021-08-25T12:07:33Z</time>
      </trkpt>
      <trkpt lat="42.245132" lon="1.707531">
        <ele>1729.007</ele>
        <time>2021-08-25T12:07:37Z</time>
      </trkpt>
      <trkpt lat="42.245142" lon="1.707470">
        <ele>1730.408</ele>
        <time>2021-08-25T12:07:43Z</time>
      </trkpt>
      <trkpt lat="42.245187" lon="1.707445">
        <ele>1730.889</ele>
        <time>2021-08-25T12:07:51Z</time>
      </trkpt>
      <trkpt lat="42.245233" lon="1.707449">
        <ele>1732.153</ele>
        <time>2021-08-25T12:08:05Z</time>
      </trkpt>
      <trkpt lat="42.245280" lon="1.707430">
        <ele>1733.231</ele>
        <time>2021-08-25T12:08:16Z</time>
      </trkpt>
      <trkpt lat="42.245325" lon="1.707462">
        <ele>1734.017</ele>
        <time>2021-08-25T12:08:23Z</time>
      </trkpt>
      <trkpt lat="42.245370" lon="1.707470">
        <ele>1734.942</ele>
        <time>2021-08-25T12:08:28Z</time>
      </trkpt>
      <trkpt lat="42.245412" lon="1.707444">
        <ele>1736.146</ele>
        <time>2021-08-25T12:08:32Z</time>
      </trkpt>
      <trkpt lat="42.245457" lon="1.707435">
        <ele>1736.293</ele>
        <time>2021-08-25T12:08:40Z</time>
      </trkpt>
      <trkpt lat="42.245493" lon="1.707391">
        <ele>1736.248</ele>
        <time>2021-08-25T12:08:45Z</time>
      </trkpt>
      <trkpt lat="42.245540" lon="1.707388">
        <ele>1736.425</ele>
        <time>2021-08-25T12:08:49Z</time>
      </trkpt>
      <trkpt lat="42.245560" lon="1.707318">
        <ele>1736.726</ele>
        <time>2021-08-25T12:08:57Z</time>
      </trkpt>
      <trkpt lat="42.245605" lon="1.707274">
        <ele>1737.308</ele>
        <time>2021-08-25T12:09:01Z</time>
      </trkpt>
      <trkpt lat="42.245651" lon="1.707254">
        <ele>1739.008</ele>
        <time>2021-08-25T12:09:06Z</time>
      </trkpt>
      <trkpt lat="42.245700" lon="1.707257">
        <ele>1741.740</ele>
        <time>2021-08-25T12:09:12Z</time>
      </trkpt>
      <trkpt lat="42.245733" lon="1.707301">
        <ele>1743.684</ele>
        <time>2021-08-25T12:09:16Z</time>
      </trkpt>
      <trkpt lat="42.245782" lon="1.707297">
        <ele>1745.822</ele>
        <time>2021-08-25T12:09:21Z</time>
      </trkpt>
      <trkpt lat="42.245828" lon="1.707306">
        <ele>1748.628</ele>
        <time>2021-08-25T12:09:26Z</time>
      </trkpt>
      <trkpt lat="42.245870" lon="1.707283">
        <ele>1748.663</ele>
        <time>2021-08-25T12:09:31Z</time>
      </trkpt>
      <trkpt lat="42.245916" lon="1.707305">
        <ele>1748.697</ele>
        <time>2021-08-25T12:09:38Z</time>
      </trkpt>
      <trkpt lat="42.245961" lon="1.707313">
        <ele>1747.344</ele>
        <time>2021-08-25T12:09:44Z</time>
      </trkpt>
      <trkpt lat="42.246009" lon="1.707324">
        <ele>1746.069</ele>
        <time>2021-08-25T12:09:50Z</time>
      </trkpt>
      <trkpt lat="42.246048" lon="1.707291">
        <ele>1746.028</ele>
        <time>2021-08-25T12:09:55Z</time>
      </trkpt>
      <trkpt lat="42.246099" lon="1.707275">
        <ele>1746.089</ele>
        <time>2021-08-25T12:10:02Z</time>
      </trkpt>
      <trkpt lat="42.246107" lon="1.707215">
        <ele>1747.417</ele>
        <time>2021-08-25T12:10:13Z</time>
      </trkpt>
      <trkpt lat="42.246120" lon="1.707144">
        <ele>1749.508</ele>
        <time>2021-08-25T12:10:22Z</time>
      </trkpt>
      <trkpt lat="42.246137" lon="1.707078">
        <ele>1751.560</ele>
        <time>2021-08-25T12:10:35Z</time>
      </trkpt>
      <trkpt lat="42.246176" lon="1.707033">
        <ele>1752.944</ele>
        <time>2021-08-25T12:10:44Z</time>
      </trkpt>
      <trkpt lat="42.246215" lon="1.706992">
        <ele>1758.492</ele>
        <time>2021-08-25T12:10:51Z</time>
      </trkpt>
      <trkpt lat="42.246244" lon="1.706937">
        <ele>1763.938</ele>
        <time>2021-08-25T12:10:58Z</time>
      </trkpt>
      <trkpt lat="42.246265" lon="1.706874">
        <ele>1764.433</ele>
        <time>2021-08-25T12:11:01Z</time>
      </trkpt>
      <trkpt lat="42.246294" lon="1.706795">
        <ele>1767.167</ele>
        <time>2021-08-25T12:11:04Z</time>
      </trkpt>
      <trkpt lat="42.246338" lon="1.706762">
        <ele>1773.594</ele>
        <time>2021-08-25T12:11:14Z</time>
      </trkpt>
      <trkpt lat="42.246386" lon="1.706757">
        <ele>1776.579</ele>
        <time>2021-08-25T12:11:18Z</time>
      </trkpt>
      <trkpt lat="42.246420" lon="1.706716">
        <ele>1778.678</ele>
        <time>2021-08-25T12:11:22Z</time>
      </trkpt>
      <trkpt lat="42.246455" lon="1.706671">
        <ele>1781.633</ele>
        <time>2021-08-25T12:11:37Z</time>
      </trkpt>
      <trkpt lat="42.246483" lon="1.706610">
        <ele>1784.626</ele>
        <time>2021-08-25T12:11:51Z</time>
      </trkpt>
      <trkpt lat="42.246513" lon="1.706560">
        <ele>1786.008</ele>
        <time>2021-08-25T12:11:58Z</time>
      </trkpt>
      <trkpt lat="42.246550" lon="1.706523">
        <ele>1786.475</ele>
        <time>2021-08-25T12:12:07Z</time>
      </trkpt>
      <trkpt lat="42.246575" lon="1.706466">
        <ele>1787.439</ele>
        <time>2021-08-25T12:12:13Z</time>
      </trkpt>
      <trkpt lat="42.246603" lon="1.706409">
        <ele>1792.867</ele>
        <time>2021-08-25T12:12:21Z</time>
      </trkpt>
      <trkpt lat="42.246640" lon="1.706374">
        <ele>1793.973</ele>
        <time>2021-08-25T12:12:27Z</time>
      </trkpt>
      <trkpt lat="42.246683" lon="1.706356">
        <ele>1796.318</ele>
        <time>2021-08-25T12:12:42Z</time>
      </trkpt>
      <trkpt lat="42.246717" lon="1.706304">
        <ele>1797.092</ele>
        <time>2021-08-25T12:12:49Z</time>
      </trkpt>
      <trkpt lat="42.246761" lon="1.706275">
        <ele>1797.329</ele>
        <time>2021-08-25T12:13:01Z</time>
      </trkpt>
      <trkpt lat="42.246808" lon="1.706273">
        <ele>1797.564</ele>
        <time>2021-08-25T12:13:06Z</time>
      </trkpt>
      <trkpt lat="42.246846" lon="1.706236">
        <ele>1798.031</ele>
        <time>2021-08-25T12:13:11Z</time>
      </trkpt>
      <trkpt lat="42.246896" lon="1.706215">
        <ele>1803.061</ele>
        <time>2021-08-25T12:13:16Z</time>
      </trkpt>
      <trkpt lat="42.246948" lon="1.706189">
        <ele>1804.207</ele>
        <time>2021-08-25T12:13:20Z</time>
      </trkpt>
      <trkpt lat="42.246990" lon="1.706153">
        <ele>1807.108</ele>
        <time>2021-08-25T12:13:38Z</time>
      </trkpt>
      <trkpt lat="42.247031" lon="1.706124">
        <ele>1810.551</ele>
        <time>2021-08-25T12:14:06Z</time>
      </trkpt>
      <trkpt lat="42.246984" lon="1.706114">
        <ele>1812.165</ele>
        <time>2021-08-25T12:14:12Z</time>
      </trkpt>
      <trkpt lat="42.246939" lon="1.706077">
        <ele>1816.173</ele>
        <time>2021-08-25T12:14:34Z</time>
      </trkpt>
      <trkpt lat="42.246985" lon="1.706069">
        <ele>1819.779</ele>
        <time>2021-08-25T12:14:52Z</time>
      </trkpt>
      <trkpt lat="42.247034" lon="1.706091">
        <ele>1821.334</ele>
        <time>2021-08-25T12:14:59Z</time>
      </trkpt>
      <trkpt lat="42.247081" lon="1.706097">
        <ele>1823.828</ele>
        <time>2021-08-25T12:15:05Z</time>
      </trkpt>
      <trkpt lat="42.247128" lon="1.706109">
        <ele>1825.435</ele>
        <time>2021-08-25T12:15:10Z</time>
      </trkpt>
      <trkpt lat="42.247173" lon="1.706109">
        <ele>1829.830</ele>
        <time>2021-08-25T12:15:15Z</time>
      </trkpt>
      <trkpt lat="42.247202" lon="1.706059">
        <ele>1830.248</ele>
        <time>2021-08-25T12:15:19Z</time>
      </trkpt>
      <trkpt lat="42.247152" lon="1.706054">
        <ele>1830.361</ele>
        <time>2021-08-25T12:15:23Z</time>
      </trkpt>
      <trkpt lat="42.247101" lon="1.706051">
        <ele>1830.317</ele>
        <time>2021-08-25T12:15:29Z</time>
      </trkpt>
      <trkpt lat="42.247087" lon="1.705988">
        <ele>1829.908</ele>
        <time>2021-08-25T12:15:36Z</time>
      </trkpt>
      <trkpt lat="42.247033" lon="1.705960">
        <ele>1830.332</ele>
        <time>2021-08-25T12:15:42Z</time>
      </trkpt>
      <trkpt lat="42.246987" lon="1.705975">
        <ele>1830.056</ele>
        <time>2021-08-25T12:15:45Z</time>
      </trkpt>
      <trkpt lat="42.247005" lon="1.705914">
        <ele>1832.884</ele>
        <time>2021-08-25T12:15:53Z</time>
      </trkpt>
      <trkpt lat="42.247054" lon="1.705897">
        <ele>1833.430</ele>
        <time>2021-08-25T12:15:59Z</time>
      </trkpt>
      <trkpt lat="42.247102" lon="1.705893">
        <ele>1833.485</ele>
        <time>2021-08-25T12:16:06Z</time>
      </trkpt>
      <trkpt lat="42.247097" lon="1.705828">
        <ele>1832.549</ele>
        <time>2021-08-25T12:16:21Z</time>
      </trkpt>
      <trkpt lat="42.247144" lon="1.705834">
        <ele>1833.096</ele>
        <time>2021-08-25T12:16:29Z</time>
      </trkpt>
      <trkpt lat="42.247187" lon="1.705805">
        <ele>1833.341</ele>
        <time>2021-08-25T12:16:35Z</time>
      </trkpt>
      <trkpt lat="42.247224" lon="1.705770">
        <ele>1836.693</ele>
        <time>2021-08-25T12:16:47Z</time>
      </trkpt>
      <trkpt lat="42.247240" lon="1.705704">
        <ele>1839.065</ele>
        <time>2021-08-25T12:16:55Z</time>
      </trkpt>
      <trkpt lat="42.247255" lon="1.705642">
        <ele>1839.921</ele>
        <time>2021-08-25T12:17:09Z</time>
      </trkpt>
      <trkpt lat="42.247305" lon="1.705614">
        <ele>1841.308</ele>
        <time>2021-08-25T12:17:17Z</time>
      </trkpt>
      <trkpt lat="42.247305" lon="1.705552">
        <ele>1847.347</ele>
        <time>2021-08-25T12:17:40Z</time>
      </trkpt>
      <trkpt lat="42.247271" lon="1.705500">
        <ele>1848.021</ele>
        <time>2021-08-25T12:17:47Z</time>
      </trkpt>
      <trkpt lat="42.247245" lon="1.705440">
        <ele>1848.899</ele>
        <time>2021-08-25T12:17:57Z</time>
      </trkpt>
      <trkpt lat="42.247253" lon="1.705372">
        <ele>1849.625</ele>
        <time>2021-08-25T12:18:04Z</time>
      </trkpt>
      <trkpt lat="42.247209" lon="1.705334">
        <ele>1857.190</ele>
        <time>2021-08-25T12:18:22Z</time>
      </trkpt>
      <trkpt lat="42.247208" lon="1.705268">
        <ele>1859.354</ele>
        <time>2021-08-25T12:18:28Z</time>
      </trkpt>
      <trkpt lat="42.247166" lon="1.705234">
        <ele>1863.261</ele>
        <time>2021-08-25T12:18:38Z</time>
      </trkpt>
      <trkpt lat="42.247175" lon="1.705171">
        <ele>1867.916</ele>
        <time>2021-08-25T12:18:56Z</time>
      </trkpt>
      <trkpt lat="42.247205" lon="1.705112">
        <ele>1873.588</ele>
        <time>2021-08-25T12:19:05Z</time>
      </trkpt>
      <trkpt lat="42.247210" lon="1.705045">
        <ele>1874.024</ele>
        <time>2021-08-25T12:19:13Z</time>
      </trkpt>
      <trkpt lat="42.247166" lon="1.705011">
        <ele>1874.526</ele>
        <time>2021-08-25T12:20:04Z</time>
      </trkpt>
      <trkpt lat="42.247117" lon="1.704992">
        <ele>1874.608</ele>
        <time>2021-08-25T12:20:12Z</time>
      </trkpt>
      <trkpt lat="42.247284" lon="1.704873">
        <ele>1875.336</ele>
        <time>2021-08-25T12:20:30Z</time>
      </trkpt>
      <trkpt lat="42.247212" lon="1.704915">
        <ele>1875.420</ele>
        <time>2021-08-25T12:20:32Z</time>
      </trkpt>
      <trkpt lat="42.247147" lon="1.704958">
        <ele>1875.578</ele>
        <time>2021-08-25T12:20:34Z</time>
      </trkpt>
      <trkpt lat="42.247086" lon="1.705032">
        <ele>1880.744</ele>
        <time>2021-08-25T12:20:42Z</time>
      </trkpt>
      <trkpt lat="42.247040" lon="1.705059">
        <ele>1882.519</ele>
        <time>2021-08-25T12:20:47Z</time>
      </trkpt>
      <trkpt lat="42.246991" lon="1.705053">
        <ele>1883.723</ele>
        <time>2021-08-25T12:21:03Z</time>
      </trkpt>
      <trkpt lat="42.246951" lon="1.705008">
        <ele>1887.290</ele>
        <time>2021-08-25T12:21:18Z</time>
      </trkpt>
      <trkpt lat="42.246980" lon="1.704962">
        <ele>1889.975</ele>
        <time>2021-08-25T12:21:24Z</time>
      </trkpt>
      <trkpt lat="42.247020" lon="1.704927">
        <ele>1892.176</ele>
        <time>2021-08-25T12:21:35Z</time>
      </trkpt>
      <trkpt lat="42.247068" lon="1.704907">
        <ele>1893.090</ele>
        <time>2021-08-25T12:21:41Z</time>
      </trkpt>
      <trkpt lat="42.247058" lon="1.704842">
        <ele>1896.419</ele>
        <time>2021-08-25T12:22:19Z</time>
      </trkpt>
      <trkpt lat="42.247106" lon="1.704844">
        <ele>1896.408</ele>
        <time>2021-08-25T12:22:26Z</time>
      </trkpt>
      <trkpt lat="42.247125" lon="1.704779">
        <ele>1897.245</ele>
        <time>2021-08-25T12:22:32Z</time>
      </trkpt>
      <trkpt lat="42.247099" lon="1.704721">
        <ele>1900.159</ele>
        <time>2021-08-25T12:22:35Z</time>
      </trkpt>
      <trkpt lat="42.247113" lon="1.704626">
        <ele>1905.787</ele>
        <time>2021-08-25T12:22:38Z</time>
      </trkpt>
      <trkpt lat="42.247129" lon="1.704557">
        <ele>1906.863</ele>
        <time>2021-08-25T12:22:40Z</time>
      </trkpt>
      <trkpt lat="42.247121" lon="1.704477">
        <ele>1906.858</ele>
        <time>2021-08-25T12:22:43Z</time>
      </trkpt>
      <trkpt lat="42.247158" lon="1.704437">
        <ele>1906.132</ele>
        <time>2021-08-25T12:22:45Z</time>
      </trkpt>
      <trkpt lat="42.247200" lon="1.704391">
        <ele>1906.299</ele>
        <time>2021-08-25T12:22:49Z</time>
      </trkpt>
      <trkpt lat="42.247243" lon="1.704361">
        <ele>1906.284</ele>
        <time>2021-08-25T12:22:52Z</time>
      </trkpt>
      <trkpt lat="42.247283" lon="1.704329">
        <ele>1906.228</ele>
        <time>2021-08-25T12:22:55Z</time>
      </trkpt>
      <trkpt lat="42.247331" lon="1.704309">
        <ele>1907.789</ele>
        <time>2021-08-25T12:22:59Z</time>
      </trkpt>
      <trkpt lat="42.247387" lon="1.704285">
        <ele>1911.117</ele>
        <time>2021-08-25T12:23:04Z</time>
      </trkpt>
      <trkpt lat="42.247377" lon="1.704224">
        <ele>1912.308</ele>
        <time>2021-08-25T12:23:07Z</time>
      </trkpt>
      <trkpt lat="42.247350" lon="1.704164">
        <ele>1914.710</ele>
        <time>2021-08-25T12:23:33Z</time>
      </trkpt>
      <trkpt lat="42.247372" lon="1.704110">
        <ele>1915.414</ele>
        <time>2021-08-25T12:23:43Z</time>
      </trkpt>
      <trkpt lat="42.247397" lon="1.704056">
        <ele>1916.182</ele>
        <time>2021-08-25T12:23:50Z</time>
      </trkpt>
      <trkpt lat="42.247411" lon="1.703996">
        <ele>1917.478</ele>
        <time>2021-08-25T12:23:55Z</time>
      </trkpt>
      <trkpt lat="42.247395" lon="1.703922">
        <ele>1917.023</ele>
        <time>2021-08-25T12:23:59Z</time>
      </trkpt>
      <trkpt lat="42.247358" lon="1.703883">
        <ele>1917.447</ele>
        <time>2021-08-25T12:24:04Z</time>
      </trkpt>
      <trkpt lat="42.247347" lon="1.703823">
        <ele>1917.584</ele>
        <time>2021-08-25T12:24:09Z</time>
      </trkpt>
      <trkpt lat="42.247371" lon="1.703771">
        <ele>1917.449</ele>
        <time>2021-08-25T12:24:13Z</time>
      </trkpt>
      <trkpt lat="42.247409" lon="1.703715">
        <ele>1916.924</ele>
        <time>2021-08-25T12:24:18Z</time>
      </trkpt>
      <trkpt lat="42.247387" lon="1.703654">
        <ele>1916.904</ele>
        <time>2021-08-25T12:24:27Z</time>
      </trkpt>
      <trkpt lat="42.247357" lon="1.703598">
        <ele>1916.814</ele>
        <time>2021-08-25T12:24:32Z</time>
      </trkpt>
      <trkpt lat="42.247320" lon="1.703547">
        <ele>1916.408</ele>
        <time>2021-08-25T12:24:37Z</time>
      </trkpt>
      <trkpt lat="42.247300" lon="1.703485">
        <ele>1915.690</ele>
        <time>2021-08-25T12:24:42Z</time>
      </trkpt>
      <trkpt lat="42.247290" lon="1.703426">
        <ele>1914.084</ele>
        <time>2021-08-25T12:24:47Z</time>
      </trkpt>
      <trkpt lat="42.247258" lon="1.703376">
        <ele>1911.772</ele>
        <time>2021-08-25T12:24:52Z</time>
      </trkpt>
      <trkpt lat="42.247227" lon="1.703328">
        <ele>1911.288</ele>
        <time>2021-08-25T12:24:57Z</time>
      </trkpt>
      <trkpt lat="42.247194" lon="1.703285">
        <ele>1910.953</ele>
        <time>2021-08-25T12:25:01Z</time>
      </trkpt>
      <trkpt lat="42.247161" lon="1.703232">
        <ele>1910.587</ele>
        <time>2021-08-25T12:25:06Z</time>
      </trkpt>
      <trkpt lat="42.247122" lon="1.703189">
        <ele>1911.044</ele>
        <time>2021-08-25T12:25:18Z</time>
      </trkpt>
      <trkpt lat="42.247081" lon="1.703155">
        <ele>1911.879</ele>
        <time>2021-08-25T12:25:29Z</time>
      </trkpt>
      <trkpt lat="42.247048" lon="1.703197">
        <ele>1912.978</ele>
        <time>2021-08-25T12:25:40Z</time>
      </trkpt>
      <trkpt lat="42.247003" lon="1.703226">
        <ele>1913.333</ele>
        <time>2021-08-25T12:25:47Z</time>
      </trkpt>
      <trkpt lat="42.246968" lon="1.703267">
        <ele>1915.726</ele>
        <time>2021-08-25T12:25:55Z</time>
      </trkpt>
      <trkpt lat="42.246921" lon="1.703261">
        <ele>1917.208</ele>
        <time>2021-08-25T12:26:04Z</time>
      </trkpt>
      <trkpt lat="42.246897" lon="1.703320">
        <ele>1920.855</ele>
        <time>2021-08-25T12:26:47Z</time>
      </trkpt>
      <trkpt lat="42.246900" lon="1.703382">
        <ele>1921.229</ele>
        <time>2021-08-25T12:26:56Z</time>
      </trkpt>
      <trkpt lat="42.246851" lon="1.703377">
        <ele>1925.767</ele>
        <time>2021-08-25T12:27:06Z</time>
      </trkpt>
      <trkpt lat="42.246808" lon="1.703396">
        <ele>1927.083</ele>
        <time>2021-08-25T12:27:20Z</time>
      </trkpt>
      <trkpt lat="42.246761" lon="1.703383">
        <ele>1927.438</ele>
        <time>2021-08-25T12:27:26Z</time>
      </trkpt>
      <trkpt lat="42.246717" lon="1.703343">
        <ele>1927.022</ele>
        <time>2021-08-25T12:27:33Z</time>
      </trkpt>
      <trkpt lat="42.246690" lon="1.703287">
        <ele>1928.299</ele>
        <time>2021-08-25T12:27:40Z</time>
      </trkpt>
      <trkpt lat="42.246667" lon="1.703232">
        <ele>1932.284</ele>
        <time>2021-08-25T12:27:48Z</time>
      </trkpt>
      <trkpt lat="42.246619" lon="1.703237">
        <ele>1934.376</ele>
        <time>2021-08-25T12:27:59Z</time>
      </trkpt>
      <trkpt lat="42.246598" lon="1.703292">
        <ele>1936.490</ele>
        <time>2021-08-25T12:28:12Z</time>
      </trkpt>
      <trkpt lat="42.246555" lon="1.703264">
        <ele>1939.319</ele>
        <time>2021-08-25T12:28:20Z</time>
      </trkpt>
      <trkpt lat="42.246503" lon="1.703265">
        <ele>1940.708</ele>
        <time>2021-08-25T12:28:30Z</time>
      </trkpt>
      <trkpt lat="42.246461" lon="1.703241">
        <ele>1944.745</ele>
        <time>2021-08-25T12:28:36Z</time>
      </trkpt>
      <trkpt lat="42.246415" lon="1.703222">
        <ele>1945.929</ele>
        <time>2021-08-25T12:28:43Z</time>
      </trkpt>
      <trkpt lat="42.246393" lon="1.703284">
        <ele>1947.177</ele>
        <time>2021-08-25T12:28:55Z</time>
      </trkpt>
      <trkpt lat="42.246348" lon="1.703297">
        <ele>1948.043</ele>
        <time>2021-08-25T12:29:02Z</time>
      </trkpt>
      <trkpt lat="42.246323" lon="1.703350">
        <ele>1949.528</ele>
        <time>2021-08-25T12:29:12Z</time>
      </trkpt>
      <trkpt lat="42.246310" lon="1.703416">
        <ele>1950.452</ele>
        <time>2021-08-25T12:29:21Z</time>
      </trkpt>
      <trkpt lat="42.246322" lon="1.703479">
        <ele>1950.899</ele>
        <time>2021-08-25T12:29:25Z</time>
      </trkpt>
      <trkpt lat="42.246332" lon="1.703541">
        <ele>1953.024</ele>
        <time>2021-08-25T12:29:31Z</time>
      </trkpt>
      <trkpt lat="42.246357" lon="1.703593">
        <ele>1953.541</ele>
        <time>2021-08-25T12:29:35Z</time>
      </trkpt>
      <trkpt lat="42.246351" lon="1.703663">
        <ele>1957.481</ele>
        <time>2021-08-25T12:29:40Z</time>
      </trkpt>
      <trkpt lat="42.246314" lon="1.703704">
        <ele>1958.809</ele>
        <time>2021-08-25T12:29:44Z</time>
      </trkpt>
      <trkpt lat="42.246286" lon="1.703766">
        <ele>1960.608</ele>
        <time>2021-08-25T12:29:49Z</time>
      </trkpt>
      <trkpt lat="42.246242" lon="1.703811">
        <ele>1962.642</ele>
        <time>2021-08-25T12:29:54Z</time>
      </trkpt>
      <trkpt lat="42.246218" lon="1.703874">
        <ele>1963.556</ele>
        <time>2021-08-25T12:29:58Z</time>
      </trkpt>
      <trkpt lat="42.246191" lon="1.703926">
        <ele>1964.054</ele>
        <time>2021-08-25T12:30:02Z</time>
      </trkpt>
      <trkpt lat="42.246181" lon="1.703989">
        <ele>1964.410</ele>
        <time>2021-08-25T12:30:06Z</time>
      </trkpt>
      <trkpt lat="42.246142" lon="1.704041">
        <ele>1964.985</ele>
        <time>2021-08-25T12:30:12Z</time>
      </trkpt>
      <trkpt lat="42.246109" lon="1.704088">
        <ele>1966.029</ele>
        <time>2021-08-25T12:30:17Z</time>
      </trkpt>
      <trkpt lat="42.246060" lon="1.704098">
        <ele>1966.236</ele>
        <time>2021-08-25T12:30:23Z</time>
      </trkpt>
      <trkpt lat="42.246011" lon="1.704139">
        <ele>1966.251</ele>
        <time>2021-08-25T12:30:28Z</time>
      </trkpt>
      <trkpt lat="42.245976" lon="1.704179">
        <ele>1965.182</ele>
        <time>2021-08-25T12:30:35Z</time>
      </trkpt>
      <trkpt lat="42.245972" lon="1.704247">
        <ele>1965.143</ele>
        <time>2021-08-25T12:30:50Z</time>
      </trkpt>
      <trkpt lat="42.245927" lon="1.704273">
        <ele>1965.117</ele>
        <time>2021-08-25T12:30:55Z</time>
      </trkpt>
      <trkpt lat="42.245885" lon="1.704297">
        <ele>1965.408</ele>
        <time>2021-08-25T12:31:00Z</time>
      </trkpt>
      <trkpt lat="42.245840" lon="1.704272">
        <ele>1966.026</ele>
        <time>2021-08-25T12:31:08Z</time>
      </trkpt>
      <trkpt lat="42.245801" lon="1.704235">
        <ele>1966.610</ele>
        <time>2021-08-25T12:31:17Z</time>
      </trkpt>
      <trkpt lat="42.245749" lon="1.704234">
        <ele>1967.178</ele>
        <time>2021-08-25T12:31:22Z</time>
      </trkpt>
      <trkpt lat="42.245802" lon="1.704216">
        <ele>1975.594</ele>
        <time>2021-08-25T12:31:43Z</time>
      </trkpt>
      <trkpt lat="42.245843" lon="1.704190">
        <ele>1976.419</ele>
        <time>2021-08-25T12:31:46Z</time>
      </trkpt>
      <trkpt lat="42.245869" lon="1.704135">
        <ele>1976.623</ele>
        <time>2021-08-25T12:31:51Z</time>
      </trkpt>
      <trkpt lat="42.245897" lon="1.704074">
        <ele>1976.720</ele>
        <time>2021-08-25T12:31:56Z</time>
      </trkpt>
      <trkpt lat="42.245877" lon="1.704017">
        <ele>1976.025</ele>
        <time>2021-08-25T12:32:01Z</time>
      </trkpt>
      <trkpt lat="42.245866" lon="1.703958">
        <ele>1973.633</ele>
        <time>2021-08-25T12:32:07Z</time>
      </trkpt>
      <trkpt lat="42.245859" lon="1.703892">
        <ele>1974.023</ele>
        <time>2021-08-25T12:32:16Z</time>
      </trkpt>
      <trkpt lat="42.245836" lon="1.703831">
        <ele>1977.215</ele>
        <time>2021-08-25T12:32:25Z</time>
      </trkpt>
      <trkpt lat="42.245823" lon="1.703771">
        <ele>1978.108</ele>
        <time>2021-08-25T12:32:35Z</time>
      </trkpt>
      <trkpt lat="42.245815" lon="1.703707">
        <ele>1979.211</ele>
        <time>2021-08-25T12:32:43Z</time>
      </trkpt>
      <trkpt lat="42.245799" lon="1.703649">
        <ele>1980.765</ele>
        <time>2021-08-25T12:32:51Z</time>
      </trkpt>
      <trkpt lat="42.245779" lon="1.703593">
        <ele>1982.283</ele>
        <time>2021-08-25T12:32:59Z</time>
      </trkpt>
      <trkpt lat="42.245732" lon="1.703566">
        <ele>1983.579</ele>
        <time>2021-08-25T12:33:05Z</time>
      </trkpt>
      <trkpt lat="42.245721" lon="1.703499">
        <ele>1984.654</ele>
        <time>2021-08-25T12:33:12Z</time>
      </trkpt>
      <trkpt lat="42.245694" lon="1.703445">
        <ele>1986.758</ele>
        <time>2021-08-25T12:33:20Z</time>
      </trkpt>
      <trkpt lat="42.245691" lon="1.703379">
        <ele>1987.935</ele>
        <time>2021-08-25T12:33:26Z</time>
      </trkpt>
      <trkpt lat="42.245710" lon="1.703320">
        <ele>1991.050</ele>
        <time>2021-08-25T12:33:32Z</time>
      </trkpt>
      <trkpt lat="42.245675" lon="1.703280">
        <ele>1994.685</ele>
        <time>2021-08-25T12:33:38Z</time>
      </trkpt>
      <trkpt lat="42.245641" lon="1.703233">
        <ele>1997.689</ele>
        <time>2021-08-25T12:33:44Z</time>
      </trkpt>
      <trkpt lat="42.245602" lon="1.703199">
        <ele>2001.717</ele>
        <time>2021-08-25T12:33:51Z</time>
      </trkpt>
      <trkpt lat="42.245553" lon="1.703180">
        <ele>2002.108</ele>
        <time>2021-08-25T12:33:55Z</time>
      </trkpt>
      <trkpt lat="42.245509" lon="1.703149">
        <ele>2002.736</ele>
        <time>2021-08-25T12:34:02Z</time>
      </trkpt>
      <trkpt lat="42.245483" lon="1.703094">
        <ele>2004.680</ele>
        <time>2021-08-25T12:34:08Z</time>
      </trkpt>
      <trkpt lat="42.245438" lon="1.703062">
        <ele>2005.438</ele>
        <time>2021-08-25T12:34:15Z</time>
      </trkpt>
      <trkpt lat="42.245437" lon="1.703001">
        <ele>2005.854</ele>
        <time>2021-08-25T12:34:22Z</time>
      </trkpt>
      <trkpt lat="42.245405" lon="1.702955">
        <ele>2006.589</ele>
        <time>2021-08-25T12:34:30Z</time>
      </trkpt>
      <trkpt lat="42.245373" lon="1.702900">
        <ele>2008.963</ele>
        <time>2021-08-25T12:34:40Z</time>
      </trkpt>
      <trkpt lat="42.245331" lon="1.702871">
        <ele>2011.970</ele>
        <time>2021-08-25T12:34:50Z</time>
      </trkpt>
      <trkpt lat="42.245286" lon="1.702863">
        <ele>2012.535</ele>
        <time>2021-08-25T12:34:56Z</time>
      </trkpt>
      <trkpt lat="42.245237" lon="1.702850">
        <ele>2015.696</ele>
        <time>2021-08-25T12:35:03Z</time>
      </trkpt>
      <trkpt lat="42.245203" lon="1.702807">
        <ele>2019.231</ele>
        <time>2021-08-25T12:35:15Z</time>
      </trkpt>
      <trkpt lat="42.245221" lon="1.702749">
        <ele>2024.424</ele>
        <time>2021-08-25T12:35:23Z</time>
      </trkpt>
      <trkpt lat="42.245213" lon="1.702685">
        <ele>2025.708</ele>
        <time>2021-08-25T12:35:33Z</time>
      </trkpt>
      <trkpt lat="42.245173" lon="1.702642">
        <ele>2026.277</ele>
        <time>2021-08-25T12:35:42Z</time>
      </trkpt>
      <trkpt lat="42.245137" lon="1.702605">
        <ele>2026.761</ele>
        <time>2021-08-25T12:35:54Z</time>
      </trkpt>
      <trkpt lat="42.245128" lon="1.702541">
        <ele>2028.649</ele>
        <time>2021-08-25T12:36:04Z</time>
      </trkpt>
      <trkpt lat="42.245111" lon="1.702484">
        <ele>2030.155</ele>
        <time>2021-08-25T12:36:12Z</time>
      </trkpt>
      <trkpt lat="42.245092" lon="1.702425">
        <ele>2031.090</ele>
        <time>2021-08-25T12:36:21Z</time>
      </trkpt>
      <trkpt lat="42.245122" lon="1.702377">
        <ele>2032.114</ele>
        <time>2021-08-25T12:36:30Z</time>
      </trkpt>
      <trkpt lat="42.245136" lon="1.702313">
        <ele>2033.841</ele>
        <time>2021-08-25T12:36:41Z</time>
      </trkpt>
      <trkpt lat="42.245178" lon="1.702266">
        <ele>2038.266</ele>
        <time>2021-08-25T12:36:53Z</time>
      </trkpt>
      <trkpt lat="42.245212" lon="1.702220">
        <ele>2039.562</ele>
        <time>2021-08-25T12:37:02Z</time>
      </trkpt>
      <trkpt lat="42.245232" lon="1.702163">
        <ele>2044.183</ele>
        <time>2021-08-25T12:37:12Z</time>
      </trkpt>
      <trkpt lat="42.245246" lon="1.702099">
        <ele>2046.611</ele>
        <time>2021-08-25T12:37:19Z</time>
      </trkpt>
      <trkpt lat="42.245231" lon="1.702035">
        <ele>2051.408</ele>
        <time>2021-08-25T12:37:26Z</time>
      </trkpt>
      <trkpt lat="42.245189" lon="1.702003">
        <ele>2053.174</ele>
        <time>2021-08-25T12:37:33Z</time>
      </trkpt>
      <trkpt lat="42.245147" lon="1.701963">
        <ele>2054.718</ele>
        <time>2021-08-25T12:37:41Z</time>
      </trkpt>
      <trkpt lat="42.245111" lon="1.701926">
        <ele>2056.796</ele>
        <time>2021-08-25T12:37:59Z</time>
      </trkpt>
      <trkpt lat="42.245117" lon="1.701865">
        <ele>2058.622</ele>
        <time>2021-08-25T12:38:12Z</time>
      </trkpt>
      <trkpt lat="42.245116" lon="1.701802">
        <ele>2059.847</ele>
        <time>2021-08-25T12:38:28Z</time>
      </trkpt>
      <trkpt lat="42.245122" lon="1.701739">
        <ele>2061.471</ele>
        <time>2021-08-25T12:38:41Z</time>
      </trkpt>
      <trkpt lat="42.245134" lon="1.701676">
        <ele>2066.358</ele>
        <time>2021-08-25T12:39:01Z</time>
      </trkpt>
      <trkpt lat="42.245133" lon="1.701614">
        <ele>2069.753</ele>
        <time>2021-08-25T12:39:15Z</time>
      </trkpt>
      <trkpt lat="42.245091" lon="1.701588">
        <ele>2070.653</ele>
        <time>2021-08-25T12:39:24Z</time>
      </trkpt>
      <trkpt lat="42.245066" lon="1.701537">
        <ele>2070.704</ele>
        <time>2021-08-25T12:39:35Z</time>
      </trkpt>
      <trkpt lat="42.245043" lon="1.701484">
        <ele>2070.014</ele>
        <time>2021-08-25T12:39:55Z</time>
      </trkpt>
      <trkpt lat="42.245038" lon="1.701423">
        <ele>2070.008</ele>
        <time>2021-08-25T12:40:07Z</time>
      </trkpt>
      <trkpt lat="42.245071" lon="1.701380">
        <ele>2070.683</ele>
        <time>2021-08-25T12:40:18Z</time>
      </trkpt>
      <trkpt lat="42.245052" lon="1.701318">
        <ele>2072.937</ele>
        <time>2021-08-25T12:40:33Z</time>
      </trkpt>
      <trkpt lat="42.245056" lon="1.701257">
        <ele>2082.585</ele>
        <time>2021-08-25T12:40:43Z</time>
      </trkpt>
      <trkpt lat="42.245079" lon="1.701196">
        <ele>2084.421</ele>
        <time>2021-08-25T12:40:51Z</time>
      </trkpt>
      <trkpt lat="42.245084" lon="1.701135">
        <ele>2085.096</ele>
        <time>2021-08-25T12:40:59Z</time>
      </trkpt>
      <trkpt lat="42.245096" lon="1.701066">
        <ele>2088.250</ele>
        <time>2021-08-25T12:41:05Z</time>
      </trkpt>
      <trkpt lat="42.245072" lon="1.701011">
        <ele>2090.117</ele>
        <time>2021-08-25T12:41:17Z</time>
      </trkpt>
      <trkpt lat="42.245031" lon="1.700981">
        <ele>2094.642</ele>
        <time>2021-08-25T12:41:37Z</time>
      </trkpt>
      <trkpt lat="42.245027" lon="1.700913">
        <ele>2095.917</ele>
        <time>2021-08-25T12:41:53Z</time>
      </trkpt>
      <trkpt lat="42.245028" lon="1.700977">
        <ele>2097.487</ele>
        <time>2021-08-25T12:42:03Z</time>
      </trkpt>
      <trkpt lat="42.244982" lon="1.701006">
        <ele>2098.315</ele>
        <time>2021-08-25T12:42:09Z</time>
      </trkpt>
      <trkpt lat="42.244939" lon="1.701044">
        <ele>2099.508</ele>
        <time>2021-08-25T12:42:20Z</time>
      </trkpt>
      <trkpt lat="42.244884" lon="1.701067">
        <ele>2100.019</ele>
        <time>2021-08-25T12:42:25Z</time>
      </trkpt>
      <trkpt lat="42.244834" lon="1.701078">
        <ele>2100.273</ele>
        <time>2021-08-25T12:42:30Z</time>
      </trkpt>
      <trkpt lat="42.244828" lon="1.701016">
        <ele>2101.171</ele>
        <time>2021-08-25T12:42:37Z</time>
      </trkpt>
      <trkpt lat="42.244819" lon="1.700952">
        <ele>2103.967</ele>
        <time>2021-08-25T12:42:44Z</time>
      </trkpt>
      <trkpt lat="42.244842" lon="1.700897">
        <ele>2104.712</ele>
        <time>2021-08-25T12:42:53Z</time>
      </trkpt>
      <trkpt lat="42.244803" lon="1.700860">
        <ele>2110.056</ele>
        <time>2021-08-25T12:43:10Z</time>
      </trkpt>
      <trkpt lat="42.244749" lon="1.700851">
        <ele>2112.713</ele>
        <time>2021-08-25T12:43:16Z</time>
      </trkpt>
      <trkpt lat="42.244718" lon="1.700794">
        <ele>2116.548</ele>
        <time>2021-08-25T12:43:28Z</time>
      </trkpt>
      <trkpt lat="42.244717" lon="1.700728">
        <ele>2119.664</ele>
        <time>2021-08-25T12:43:34Z</time>
      </trkpt>
      <trkpt lat="42.244682" lon="1.700684">
        <ele>2119.806</ele>
        <time>2021-08-25T12:43:42Z</time>
      </trkpt>
      <trkpt lat="42.244713" lon="1.700627">
        <ele>2119.016</ele>
        <time>2021-08-25T12:44:03Z</time>
      </trkpt>
      <trkpt lat="42.244674" lon="1.700581">
        <ele>2119.808</ele>
        <time>2021-08-25T12:44:17Z</time>
      </trkpt>
      <trkpt lat="42.244628" lon="1.700544">
        <ele>2119.824</ele>
        <time>2021-08-25T12:44:25Z</time>
      </trkpt>
      <trkpt lat="42.244593" lon="1.700495">
        <ele>2124.228</ele>
        <time>2021-08-25T12:44:34Z</time>
      </trkpt>
      <trkpt lat="42.244548" lon="1.700465">
        <ele>2125.536</ele>
        <time>2021-08-25T12:44:42Z</time>
      </trkpt>
      <trkpt lat="42.244547" lon="1.700402">
        <ele>2130.992</ele>
        <time>2021-08-25T12:45:11Z</time>
      </trkpt>
      <trkpt lat="42.244505" lon="1.700371">
        <ele>2131.667</ele>
        <time>2021-08-25T12:45:21Z</time>
      </trkpt>
      <trkpt lat="42.244506" lon="1.700308">
        <ele>2134.251</ele>
        <time>2021-08-25T12:45:38Z</time>
      </trkpt>
      <trkpt lat="42.244504" lon="1.700246">
        <ele>2137.178</ele>
        <time>2021-08-25T12:46:05Z</time>
      </trkpt>
      <trkpt lat="42.244499" lon="1.700183">
        <ele>2137.933</ele>
        <time>2021-08-25T12:46:21Z</time>
      </trkpt>
      <trkpt lat="42.244475" lon="1.700121">
        <ele>2138.098</ele>
        <time>2021-08-25T12:46:27Z</time>
      </trkpt>
      <trkpt lat="42.244451" lon="1.700059">
        <ele>2138.815</ele>
        <time>2021-08-25T12:46:33Z</time>
      </trkpt>
      <trkpt lat="42.244409" lon="1.700030">
        <ele>2139.226</ele>
        <time>2021-08-25T12:46:43Z</time>
      </trkpt>
      <trkpt lat="42.244375" lon="1.699988">
        <ele>2146.708</ele>
        <time>2021-08-25T12:47:16Z</time>
      </trkpt>
      <trkpt lat="42.244355" lon="1.699930">
        <ele>2146.827</ele>
        <time>2021-08-25T12:47:20Z</time>
      </trkpt>
      <trkpt lat="42.244309" lon="1.699898">
        <ele>2147.011</ele>
        <time>2021-08-25T12:47:24Z</time>
      </trkpt>
      <trkpt lat="42.244277" lon="1.699847">
        <ele>2147.189</ele>
        <time>2021-08-25T12:47:31Z</time>
      </trkpt>
      <trkpt lat="42.244229" lon="1.699819">
        <ele>2149.595</ele>
        <time>2021-08-25T12:47:41Z</time>
      </trkpt>
      <trkpt lat="42.244184" lon="1.699794">
        <ele>2151.360</ele>
        <time>2021-08-25T12:47:47Z</time>
      </trkpt>
      <trkpt lat="42.244167" lon="1.699738">
        <ele>2152.574</ele>
        <time>2021-08-25T12:48:28Z</time>
      </trkpt>
      <trkpt lat="42.244140" lon="1.699676">
        <ele>2152.581</ele>
        <time>2021-08-25T12:48:36Z</time>
      </trkpt>
      <trkpt lat="42.244181" lon="1.699631">
        <ele>2152.626</ele>
        <time>2021-08-25T12:48:42Z</time>
      </trkpt>
      <trkpt lat="42.244177" lon="1.699565">
        <ele>2152.616</ele>
        <time>2021-08-25T12:48:50Z</time>
      </trkpt>
      <trkpt lat="42.244130" lon="1.699547">
        <ele>2156.376</ele>
        <time>2021-08-25T12:49:01Z</time>
      </trkpt>
      <trkpt lat="42.244171" lon="1.699516">
        <ele>2160.313</ele>
        <time>2021-08-25T12:49:11Z</time>
      </trkpt>
      <trkpt lat="42.244181" lon="1.699575">
        <ele>2167.208</ele>
        <time>2021-08-25T12:49:54Z</time>
      </trkpt>
      <trkpt lat="42.244208" lon="1.699522">
        <ele>2167.259</ele>
        <time>2021-08-25T12:50:01Z</time>
      </trkpt>
      <trkpt lat="42.244220" lon="1.699462">
        <ele>2167.733</ele>
        <time>2021-08-25T12:50:12Z</time>
      </trkpt>
      <trkpt lat="42.244195" lon="1.699406">
        <ele>2167.851</ele>
        <time>2021-08-25T12:50:22Z</time>
      </trkpt>
      <trkpt lat="42.244165" lon="1.699346">
        <ele>2173.977</ele>
        <time>2021-08-25T12:50:52Z</time>
      </trkpt>
      <trkpt lat="42.244133" lon="1.699296">
        <ele>2176.772</ele>
        <time>2021-08-25T12:51:15Z</time>
      </trkpt>
      <trkpt lat="42.244086" lon="1.699265">
        <ele>2178.456</ele>
        <time>2021-08-25T12:51:29Z</time>
      </trkpt>
      <trkpt lat="42.244052" lon="1.699222">
        <ele>2180.043</ele>
        <time>2021-08-25T12:51:43Z</time>
      </trkpt>
      <trkpt lat="42.244076" lon="1.699167">
        <ele>2182.728</ele>
        <time>2021-08-25T12:51:50Z</time>
      </trkpt>
      <trkpt lat="42.244068" lon="1.699100">
        <ele>2188.472</ele>
        <time>2021-08-25T12:52:00Z</time>
      </trkpt>
      <trkpt lat="42.244020" lon="1.699087">
        <ele>2190.913</ele>
        <time>2021-08-25T12:52:09Z</time>
      </trkpt>
      <trkpt lat="42.244008" lon="1.699028">
        <ele>2195.514</ele>
        <time>2021-08-25T12:52:19Z</time>
      </trkpt>
      <trkpt lat="42.243963" lon="1.699018">
        <ele>2204.908</ele>
        <time>2021-08-25T12:52:45Z</time>
      </trkpt>
      <trkpt lat="42.243949" lon="1.699077">
        <ele>2205.825</ele>
        <time>2021-08-25T12:52:48Z</time>
      </trkpt>
      <trkpt lat="42.243972" lon="1.699022">
        <ele>2208.549</ele>
        <time>2021-08-25T12:53:21Z</time>
      </trkpt>
      <trkpt lat="42.244012" lon="1.698994">
        <ele>2208.867</ele>
        <time>2021-08-25T12:53:24Z</time>
      </trkpt>
      <trkpt lat="42.244019" lon="1.698930">
        <ele>2209.333</ele>
        <time>2021-08-25T12:53:29Z</time>
      </trkpt>
      <trkpt lat="42.244008" lon="1.698869">
        <ele>2209.098</ele>
        <time>2021-08-25T12:53:33Z</time>
      </trkpt>
      <trkpt lat="42.243997" lon="1.698807">
        <ele>2206.332</ele>
        <time>2021-08-25T12:53:39Z</time>
      </trkpt>
      <trkpt lat="42.243976" lon="1.698748">
        <ele>2206.349</ele>
        <time>2021-08-25T12:53:44Z</time>
      </trkpt>
      <trkpt lat="42.243940" lon="1.698703">
        <ele>2207.114</ele>
        <time>2021-08-25T12:53:54Z</time>
      </trkpt>
      <trkpt lat="42.243907" lon="1.698662">
        <ele>2207.992</ele>
        <time>2021-08-25T12:54:02Z</time>
      </trkpt>
      <trkpt lat="42.243869" lon="1.698621">
        <ele>2207.573</ele>
        <time>2021-08-25T12:54:11Z</time>
      </trkpt>
      <trkpt lat="42.243852" lon="1.698561">
        <ele>2208.120</ele>
        <time>2021-08-25T12:54:20Z</time>
      </trkpt>
      <trkpt lat="42.243823" lon="1.698505">
        <ele>2208.808</ele>
        <time>2021-08-25T12:54:31Z</time>
      </trkpt>
      <trkpt lat="42.243798" lon="1.698450">
        <ele>2208.747</ele>
        <time>2021-08-25T12:54:40Z</time>
      </trkpt>
      <trkpt lat="42.243775" lon="1.698397">
        <ele>2210.691</ele>
        <time>2021-08-25T12:54:58Z</time>
      </trkpt>
      <trkpt lat="42.243759" lon="1.698333">
        <ele>2213.859</ele>
        <time>2021-08-25T12:55:17Z</time>
      </trkpt>
      <trkpt lat="42.243762" lon="1.698267">
        <ele>2214.145</ele>
        <time>2021-08-25T12:55:27Z</time>
      </trkpt>
      <trkpt lat="42.243789" lon="1.698216">
        <ele>2215.430</ele>
        <time>2021-08-25T12:55:38Z</time>
      </trkpt>
      <trkpt lat="42.243777" lon="1.698153">
        <ele>2218.674</ele>
        <time>2021-08-25T12:55:48Z</time>
      </trkpt>
      <trkpt lat="42.243748" lon="1.698098">
        <ele>2222.711</ele>
        <time>2021-08-25T12:55:54Z</time>
      </trkpt>
      <trkpt lat="42.243703" lon="1.698079">
        <ele>2229.926</ele>
        <time>2021-08-25T12:56:01Z</time>
      </trkpt>
      <trkpt lat="42.243727" lon="1.698022">
        <ele>2236.444</ele>
        <time>2021-08-25T12:56:16Z</time>
      </trkpt>
      <trkpt lat="42.243740" lon="1.697960">
        <ele>2237.505</ele>
        <time>2021-08-25T12:56:23Z</time>
      </trkpt>
      <trkpt lat="42.243760" lon="1.697904">
        <ele>2241.015</ele>
        <time>2021-08-25T12:56:28Z</time>
      </trkpt>
      <trkpt lat="42.243714" lon="1.697916">
        <ele>2244.708</ele>
        <time>2021-08-25T12:57:02Z</time>
      </trkpt>
      <trkpt lat="42.243668" lon="1.697937">
        <ele>2245.332</ele>
        <time>2021-08-25T12:57:27Z</time>
      </trkpt>
      <trkpt lat="42.243641" lon="1.697999">
        <ele>2249.016</ele>
        <time>2021-08-25T12:57:32Z</time>
      </trkpt>
      <trkpt lat="42.243612" lon="1.698048">
        <ele>2249.314</ele>
        <time>2021-08-25T12:57:38Z</time>
      </trkpt>
      <trkpt lat="42.243578" lon="1.698093">
        <ele>2254.380</ele>
        <time>2021-08-25T12:57:55Z</time>
      </trkpt>
      <trkpt lat="42.243548" lon="1.698142">
        <ele>2255.385</ele>
        <time>2021-08-25T12:58:02Z</time>
      </trkpt>
      <trkpt lat="42.243504" lon="1.698173">
        <ele>2255.479</ele>
        <time>2021-08-25T12:58:10Z</time>
      </trkpt>
      <trkpt lat="42.243472" lon="1.698224">
        <ele>2255.336</ele>
        <time>2021-08-25T12:58:17Z</time>
      </trkpt>
      <trkpt lat="42.243433" lon="1.698262">
        <ele>2255.291</ele>
        <time>2021-08-25T12:58:24Z</time>
      </trkpt>
      <trkpt lat="42.243396" lon="1.698303">
        <ele>2254.973</ele>
        <time>2021-08-25T12:58:29Z</time>
      </trkpt>
      <trkpt lat="42.243356" lon="1.698330">
        <ele>2254.885</ele>
        <time>2021-08-25T12:58:34Z</time>
      </trkpt>
      <trkpt lat="42.243318" lon="1.698366">
        <ele>2254.913</ele>
        <time>2021-08-25T12:58:41Z</time>
      </trkpt>
      <trkpt lat="42.243272" lon="1.698387">
        <ele>2255.908</ele>
        <time>2021-08-25T12:58:49Z</time>
      </trkpt>
      <trkpt lat="42.243225" lon="1.698398">
        <ele>2258.715</ele>
        <time>2021-08-25T12:58:57Z</time>
      </trkpt>
      <trkpt lat="42.243175" lon="1.698402">
        <ele>2261.349</ele>
        <time>2021-08-25T12:59:08Z</time>
      </trkpt>
      <trkpt lat="42.243133" lon="1.698432">
        <ele>2261.697</ele>
        <time>2021-08-25T12:59:16Z</time>
      </trkpt>
      <trkpt lat="42.243085" lon="1.698455">
        <ele>2262.613</ele>
        <time>2021-08-25T12:59:32Z</time>
      </trkpt>
      <trkpt lat="42.243040" lon="1.698481">
        <ele>2264.958</ele>
        <time>2021-08-25T12:59:37Z</time>
      </trkpt>
      <trkpt lat="42.242992" lon="1.698482">
        <ele>2267.642</ele>
        <time>2021-08-25T12:59:45Z</time>
      </trkpt>
      <trkpt lat="42.242976" lon="1.698422">
        <ele>2267.969</ele>
        <time>2021-08-25T12:59:51Z</time>
      </trkpt>
      <trkpt lat="42.242935" lon="1.698449">
        <ele>2269.964</ele>
        <time>2021-08-25T12:59:59Z</time>
      </trkpt>
      <trkpt lat="42.242884" lon="1.698442">
        <ele>2274.958</ele>
        <time>2021-08-25T13:00:23Z</time>
      </trkpt>
      <trkpt lat="42.242836" lon="1.698448">
        <ele>2276.652</ele>
        <time>2021-08-25T13:00:32Z</time>
      </trkpt>
      <trkpt lat="42.242792" lon="1.698479">
        <ele>2276.617</ele>
        <time>2021-08-25T13:00:39Z</time>
      </trkpt>
      <trkpt lat="42.242749" lon="1.698503">
        <ele>2276.708</ele>
        <time>2021-08-25T13:00:46Z</time>
      </trkpt>
      <trkpt lat="42.242701" lon="1.698508">
        <ele>2279.783</ele>
        <time>2021-08-25T13:00:55Z</time>
      </trkpt>
      <trkpt lat="42.242659" lon="1.698529">
        <ele>2282.667</ele>
        <time>2021-08-25T13:01:01Z</time>
      </trkpt>
      <trkpt lat="42.242611" lon="1.698513">
        <ele>2285.885</ele>
        <time>2021-08-25T13:01:11Z</time>
      </trkpt>
      <trkpt lat="42.242566" lon="1.698541">
        <ele>2286.861</ele>
        <time>2021-08-25T13:01:28Z</time>
      </trkpt>
      <trkpt lat="42.242521" lon="1.698560">
        <ele>2287.246</ele>
        <time>2021-08-25T13:01:36Z</time>
      </trkpt>
      <trkpt lat="42.242475" lon="1.698569">
        <ele>2288.310</ele>
        <time>2021-08-25T13:01:47Z</time>
      </trkpt>
      <trkpt lat="42.242428" lon="1.698570">
        <ele>2289.117</ele>
        <time>2021-08-25T13:01:59Z</time>
      </trkpt>
      <trkpt lat="42.242379" lon="1.698576">
        <ele>2289.642</ele>
        <time>2021-08-25T13:02:07Z</time>
      </trkpt>
      <trkpt lat="42.242337" lon="1.698604">
        <ele>2294.023</ele>
        <time>2021-08-25T13:02:20Z</time>
      </trkpt>
      <trkpt lat="42.242326" lon="1.698539">
        <ele>2299.783</ele>
        <time>2021-08-25T13:02:34Z</time>
      </trkpt>
      <trkpt lat="42.242288" lon="1.698587">
        <ele>2303.811</ele>
        <time>2021-08-25T13:02:51Z</time>
      </trkpt>
      <trkpt lat="42.242263" lon="1.698639">
        <ele>2305.408</ele>
        <time>2021-08-25T13:03:04Z</time>
      </trkpt>
      <trkpt lat="42.242231" lon="1.698692">
        <ele>2305.990</ele>
        <time>2021-08-25T13:03:10Z</time>
      </trkpt>
      <trkpt lat="42.242181" lon="1.698725">
        <ele>2306.034</ele>
        <time>2021-08-25T13:03:15Z</time>
      </trkpt>
      <trkpt lat="42.242126" lon="1.698734">
        <ele>2306.552</ele>
        <time>2021-08-25T13:03:21Z</time>
      </trkpt>
      <trkpt lat="42.242074" lon="1.698727">
        <ele>2306.538</ele>
        <time>2021-08-25T13:03:27Z</time>
      </trkpt>
      <trkpt lat="42.242027" lon="1.698732">
        <ele>2306.393</ele>
        <time>2021-08-25T13:03:36Z</time>
      </trkpt>
      <trkpt lat="42.242004" lon="1.698676">
        <ele>2305.977</ele>
        <time>2021-08-25T13:03:46Z</time>
      </trkpt>
      <trkpt lat="42.241959" lon="1.698690">
        <ele>2306.494</ele>
        <time>2021-08-25T13:04:03Z</time>
      </trkpt>
      <trkpt lat="42.241912" lon="1.698696">
        <ele>2307.749</ele>
        <time>2021-08-25T13:04:13Z</time>
      </trkpt>
      <trkpt lat="42.241871" lon="1.698671">
        <ele>2313.845</ele>
        <time>2021-08-25T13:04:43Z</time>
      </trkpt>
      <trkpt lat="42.241846" lon="1.698620">
        <ele>2315.947</ele>
        <time>2021-08-25T13:04:55Z</time>
      </trkpt>
      <trkpt lat="42.241861" lon="1.698556">
        <ele>2317.811</ele>
        <time>2021-08-25T13:05:05Z</time>
      </trkpt>
      <trkpt lat="42.241819" lon="1.698533">
        <ele>2324.108</ele>
        <time>2021-08-25T13:05:35Z</time>
      </trkpt>
      <trkpt lat="42.241790" lon="1.698481">
        <ele>2325.462</ele>
        <time>2021-08-25T13:05:45Z</time>
      </trkpt>
      <trkpt lat="42.241757" lon="1.698434">
        <ele>2326.646</ele>
        <time>2021-08-25T13:05:51Z</time>
      </trkpt>
      <trkpt lat="42.241701" lon="1.698426">
        <ele>2327.314</ele>
        <time>2021-08-25T13:06:02Z</time>
      </trkpt>
      <trkpt lat="42.241662" lon="1.698386">
        <ele>2328.280</ele>
        <time>2021-08-25T13:06:07Z</time>
      </trkpt>
      <trkpt lat="42.241638" lon="1.698439">
        <ele>2329.085</ele>
        <time>2021-08-25T13:06:22Z</time>
      </trkpt>
      <trkpt lat="42.241634" lon="1.698500">
        <ele>2330.619</ele>
        <time>2021-08-25T13:06:37Z</time>
      </trkpt>
      <trkpt lat="42.241621" lon="1.698563">
        <ele>2333.896</ele>
        <time>2021-08-25T13:06:47Z</time>
      </trkpt>
      <trkpt lat="42.241660" lon="1.698597">
        <ele>2336.971</ele>
        <time>2021-08-25T13:07:17Z</time>
      </trkpt>
      <trkpt lat="42.241626" lon="1.698649">
        <ele>2339.513</ele>
        <time>2021-08-25T13:08:03Z</time>
      </trkpt>
      <trkpt lat="42.241586" lon="1.698678">
        <ele>2341.443</ele>
        <time>2021-08-25T13:08:09Z</time>
      </trkpt>
      <trkpt lat="42.241558" lon="1.698728">
        <ele>2341.707</ele>
        <time>2021-08-25T13:08:16Z</time>
      </trkpt>
      <trkpt lat="42.241514" lon="1.698748">
        <ele>2345.308</ele>
        <time>2021-08-25T13:08:51Z</time>
      </trkpt>
      <trkpt lat="42.241538" lon="1.698690">
        <ele>2352.039</ele>
        <time>2021-08-25T13:09:16Z</time>
      </trkpt>
      <trkpt lat="42.241490" lon="1.698718">
        <ele>2352.183</ele>
        <time>2021-08-25T13:09:48Z</time>
      </trkpt>
      <trkpt lat="42.241450" lon="1.698756">
        <ele>2352.111</ele>
        <time>2021-08-25T13:09:52Z</time>
      </trkpt>
      <trkpt lat="42.241429" lon="1.698689">
        <ele>2353.017</ele>
        <time>2021-08-25T13:09:57Z</time>
      </trkpt>
      <trkpt lat="42.241465" lon="1.698650">
        <ele>2359.762</ele>
        <time>2021-08-25T13:10:56Z</time>
      </trkpt>
      <trkpt lat="42.241425" lon="1.698681">
        <ele>2360.266</ele>
        <time>2021-08-25T13:11:04Z</time>
      </trkpt>
      <trkpt lat="42.241399" lon="1.698735">
        <ele>2361.043</ele>
        <time>2021-08-25T13:11:13Z</time>
      </trkpt>
      <trkpt lat="42.241359" lon="1.698688">
        <ele>2362.598</ele>
        <time>2021-08-25T13:11:18Z</time>
      </trkpt>
      <trkpt lat="42.241339" lon="1.698626">
        <ele>2362.557</ele>
        <time>2021-08-25T13:11:23Z</time>
      </trkpt>
      <trkpt lat="42.241358" lon="1.698567">
        <ele>2366.300</ele>
        <time>2021-08-25T13:11:40Z</time>
      </trkpt>
      <trkpt lat="42.241361" lon="1.698502">
        <ele>2367.120</ele>
        <time>2021-08-25T13:11:51Z</time>
      </trkpt>
      <trkpt lat="42.241326" lon="1.698546">
        <ele>2368.908</ele>
        <time>2021-08-25T13:11:58Z</time>
      </trkpt>
      <trkpt lat="42.241280" lon="1.698520">
        <ele>2376.463</ele>
        <time>2021-08-25T13:12:42Z</time>
      </trkpt>
      <trkpt lat="42.241238" lon="1.698496">
        <ele>2376.767</ele>
        <time>2021-08-25T13:12:56Z</time>
      </trkpt>
      <trkpt lat="42.241200" lon="1.698463">
        <ele>2384.495</ele>
        <time>2021-08-25T13:14:08Z</time>
      </trkpt>
      <trkpt lat="42.241158" lon="1.698433">
        <ele>2385.341</ele>
        <time>2021-08-25T13:14:20Z</time>
      </trkpt>
      <trkpt lat="42.241122" lon="1.698392">
        <ele>2386.126</ele>
        <time>2021-08-25T13:15:04Z</time>
      </trkpt>
      <trkpt lat="42.241076" lon="1.698399">
        <ele>2391.260</ele>
        <time>2021-08-25T13:15:28Z</time>
      </trkpt>
      <trkpt lat="42.241129" lon="1.698355">
        <ele>2399.557</ele>
        <time>2021-08-25T13:15:37Z</time>
      </trkpt>
      <trkpt lat="42.241085" lon="1.698373">
        <ele>2409.572</ele>
        <time>2021-08-25T13:17:03Z</time>
      </trkpt>
      <trkpt lat="42.241034" lon="1.698357">
        <ele>2409.633</ele>
        <time>2021-08-25T13:17:08Z</time>
      </trkpt>
      <trkpt lat="42.241054" lon="1.698436">
        <ele>2413.523</ele>
        <time>2021-08-25T13:17:30Z</time>
      </trkpt>
      <trkpt lat="42.241059" lon="1.698498">
        <ele>2412.515</ele>
        <time>2021-08-25T13:19:07Z</time>
      </trkpt>
      <trkpt lat="42.241008" lon="1.698515">
        <ele>2414.408</ele>
        <time>2021-08-25T13:19:12Z</time>
      </trkpt>
      <trkpt lat="42.241041" lon="1.698472">
        <ele>2416.731</ele>
        <time>2021-08-25T13:19:29Z</time>
      </trkpt>
      <trkpt lat="42.241003" lon="1.698529">
        <ele>2419.395</ele>
        <time>2021-08-25T13:20:02Z</time>
      </trkpt>
      <trkpt lat="42.240969" lon="1.698468">
        <ele>2419.463</ele>
        <time>2021-08-25T13:20:11Z</time>
      </trkpt>
      <trkpt lat="42.241011" lon="1.698437">
        <ele>2419.529</ele>
        <time>2021-08-25T13:20:19Z</time>
      </trkpt>
      <trkpt lat="42.240966" lon="1.698443">
        <ele>2417.514</ele>
        <time>2021-08-25T13:20:48Z</time>
      </trkpt>
      <trkpt lat="42.240939" lon="1.698494">
        <ele>2417.678</ele>
        <time>2021-08-25T13:20:54Z</time>
      </trkpt>
      <trkpt lat="42.240912" lon="1.698443">
        <ele>2418.745</ele>
        <time>2021-08-25T13:21:06Z</time>
      </trkpt>
      <trkpt lat="42.240887" lon="1.698504">
        <ele>2419.330</ele>
        <time>2021-08-25T13:21:47Z</time>
      </trkpt>
      <trkpt lat="42.240889" lon="1.698568">
        <ele>2423.316</ele>
        <time>2021-08-25T13:22:00Z</time>
      </trkpt>
      <trkpt lat="42.240879" lon="1.698628">
        <ele>2432.376</ele>
        <time>2021-08-25T13:22:46Z</time>
      </trkpt>
      <trkpt lat="42.240897" lon="1.698692">
        <ele>2432.613</ele>
        <time>2021-08-25T13:22:53Z</time>
      </trkpt>
      <trkpt lat="42.240846" lon="1.698665">
        <ele>2433.008</ele>
        <time>2021-08-25T13:23:05Z</time>
      </trkpt>
      <trkpt lat="42.240826" lon="1.698611">
        <ele>2434.949</ele>
        <time>2021-08-25T13:23:10Z</time>
      </trkpt>
      <trkpt lat="42.240824" lon="1.698675">
        <ele>2435.263</ele>
        <time>2021-08-25T13:23:19Z</time>
      </trkpt>
      <trkpt lat="42.240808" lon="1.698744">
        <ele>2435.211</ele>
        <time>2021-08-25T13:23:27Z</time>
      </trkpt>
      <trkpt lat="42.240791" lon="1.698804">
        <ele>2433.917</ele>
        <time>2021-08-25T13:23:45Z</time>
      </trkpt>
      <trkpt lat="42.240809" lon="1.698874">
        <ele>2432.262</ele>
        <time>2021-08-25T13:24:42Z</time>
      </trkpt>
      <trkpt lat="42.240797" lon="1.698934">
        <ele>2432.246</ele>
        <time>2021-08-25T13:24:50Z</time>
      </trkpt>
      <trkpt lat="42.240804" lon="1.698998">
        <ele>2426.383</ele>
        <time>2021-08-25T13:24:54Z</time>
      </trkpt>
      <trkpt lat="42.240782" lon="1.699063">
        <ele>2426.298</ele>
        <time>2021-08-25T13:24:59Z</time>
      </trkpt>
      <trkpt lat="42.240744" lon="1.699098">
        <ele>2426.174</ele>
        <time>2021-08-25T13:25:04Z</time>
      </trkpt>
      <trkpt lat="42.240793" lon="1.699108">
        <ele>2425.256</ele>
        <time>2021-08-25T13:25:12Z</time>
      </trkpt>
      <trkpt lat="42.240749" lon="1.699154">
        <ele>2424.021</ele>
        <time>2021-08-25T13:25:31Z</time>
      </trkpt>
      <trkpt lat="42.240734" lon="1.699219">
        <ele>2423.308</ele>
        <time>2021-08-25T13:25:38Z</time>
      </trkpt>
      <trkpt lat="42.240745" lon="1.699282">
        <ele>2418.135</ele>
        <time>2021-08-25T13:26:12Z</time>
      </trkpt>
      <trkpt lat="42.240752" lon="1.699350">
        <ele>2417.649</ele>
        <time>2021-08-25T13:26:24Z</time>
      </trkpt>
      <trkpt lat="42.240764" lon="1.699419">
        <ele>2417.627</ele>
        <time>2021-08-25T13:26:29Z</time>
      </trkpt>
      <trkpt lat="42.240750" lon="1.699486">
        <ele>2416.753</ele>
        <time>2021-08-25T13:26:34Z</time>
      </trkpt>
      <trkpt lat="42.240716" lon="1.699528">
        <ele>2413.038</ele>
        <time>2021-08-25T13:26:40Z</time>
      </trkpt>
      <trkpt lat="42.240681" lon="1.699566">
        <ele>2412.692</ele>
        <time>2021-08-25T13:26:45Z</time>
      </trkpt>
      <trkpt lat="42.240673" lon="1.699635">
        <ele>2412.529</ele>
        <time>2021-08-25T13:26:54Z</time>
      </trkpt>
      <trkpt lat="42.240645" lon="1.699696">
        <ele>2411.844</ele>
        <time>2021-08-25T13:27:00Z</time>
      </trkpt>
      <trkpt lat="42.240658" lon="1.699761">
        <ele>2410.721</ele>
        <time>2021-08-25T13:27:07Z</time>
      </trkpt>
      <trkpt lat="42.240708" lon="1.699734">
        <ele>2408.241</ele>
        <time>2021-08-25T13:27:16Z</time>
      </trkpt>
      <trkpt lat="42.240671" lon="1.699769">
        <ele>2405.205</ele>
        <time>2021-08-25T13:27:40Z</time>
      </trkpt>
      <trkpt lat="42.240636" lon="1.699813">
        <ele>2406.808</ele>
        <time>2021-08-25T13:28:05Z</time>
      </trkpt>
      <trkpt lat="42.240591" lon="1.699786">
        <ele>2410.410</ele>
        <time>2021-08-25T13:29:10Z</time>
      </trkpt>
      <trkpt lat="42.240547" lon="1.699767">
        <ele>2410.414</ele>
        <time>2021-08-25T13:29:18Z</time>
      </trkpt>
      <trkpt lat="42.240502" lon="1.699793">
        <ele>2410.582</ele>
        <time>2021-08-25T13:29:29Z</time>
      </trkpt>
      <trkpt lat="42.240456" lon="1.699828">
        <ele>2408.158</ele>
        <time>2021-08-25T13:29:43Z</time>
      </trkpt>
      <trkpt lat="42.240420" lon="1.699867">
        <ele>2405.633</ele>
        <time>2021-08-25T13:29:51Z</time>
      </trkpt>
      <trkpt lat="42.240385" lon="1.699914">
        <ele>2404.857</ele>
        <time>2021-08-25T13:30:11Z</time>
      </trkpt>
      <trkpt lat="42.240342" lon="1.699945">
        <ele>2404.954</ele>
        <time>2021-08-25T13:30:17Z</time>
      </trkpt>
      <trkpt lat="42.240359" lon="1.700010">
        <ele>2406.159</ele>
        <time>2021-08-25T13:30:45Z</time>
      </trkpt>
      <trkpt lat="42.240395" lon="1.700058">
        <ele>2406.579</ele>
        <time>2021-08-25T13:31:02Z</time>
      </trkpt>
      <trkpt lat="42.240435" lon="1.700095">
        <ele>2407.905</ele>
        <time>2021-08-25T13:31:10Z</time>
      </trkpt>
      <trkpt lat="42.240479" lon="1.700079">
        <ele>2407.925</ele>
        <time>2021-08-25T13:31:17Z</time>
      </trkpt>
      <trkpt lat="42.240496" lon="1.700021">
        <ele>2408.708</ele>
        <time>2021-08-25T13:31:23Z</time>
      </trkpt>
      <trkpt lat="42.240499" lon="1.700087">
        <ele>2408.795</ele>
        <time>2021-08-25T13:31:43Z</time>
      </trkpt>
      <trkpt lat="42.240469" lon="1.700138">
        <ele>2408.719</ele>
        <time>2021-08-25T13:31:53Z</time>
      </trkpt>
      <trkpt lat="42.240436" lon="1.700186">
        <ele>2409.177</ele>
        <time>2021-08-25T13:32:07Z</time>
      </trkpt>
      <trkpt lat="42.240477" lon="1.700159">
        <ele>2413.093</ele>
        <time>2021-08-25T13:33:10Z</time>
      </trkpt>
      <trkpt lat="42.240514" lon="1.700195">
        <ele>2413.068</ele>
        <time>2021-08-25T13:33:23Z</time>
      </trkpt>
      <trkpt lat="42.240557" lon="1.700178">
        <ele>2413.112</ele>
        <time>2021-08-25T13:33:31Z</time>
      </trkpt>
      <trkpt lat="42.240561" lon="1.700247">
        <ele>2419.739</ele>
        <time>2021-08-25T13:33:44Z</time>
      </trkpt>
      <trkpt lat="42.240534" lon="1.700313">
        <ele>2422.574</ele>
        <time>2021-08-25T13:34:06Z</time>
      </trkpt>
      <trkpt lat="42.240547" lon="1.700374">
        <ele>2424.367</ele>
        <time>2021-08-25T13:34:24Z</time>
      </trkpt>
      <trkpt lat="42.240545" lon="1.700439">
        <ele>2426.481</ele>
        <time>2021-08-25T13:34:44Z</time>
      </trkpt>
      <trkpt lat="42.240559" lon="1.700502">
        <ele>2430.219</ele>
        <time>2021-08-25T13:34:57Z</time>
      </trkpt>
      <trkpt lat="42.240603" lon="1.700530">
        <ele>2439.408</ele>
        <time>2021-08-25T13:36:13Z</time>
      </trkpt>
      <trkpt lat="42.240639" lon="1.700566">
        <ele>2439.844</ele>
        <time>2021-08-25T13:36:25Z</time>
      </trkpt>
      <trkpt lat="42.240686" lon="1.700562">
        <ele>2440.698</ele>
        <time>2021-08-25T13:36:38Z</time>
      </trkpt>
      <trkpt lat="42.240684" lon="1.700492">
        <ele>2443.716</ele>
        <time>2021-08-25T13:36:54Z</time>
      </trkpt>
      <trkpt lat="42.240692" lon="1.700555">
        <ele>2448.662</ele>
        <time>2021-08-25T13:37:04Z</time>
      </trkpt>
      <trkpt lat="42.240693" lon="1.700622">
        <ele>2457.367</ele>
        <time>2021-08-25T13:37:38Z</time>
      </trkpt>
      <trkpt lat="42.240652" lon="1.700659">
        <ele>2458.471</ele>
        <time>2021-08-25T13:37:44Z</time>
      </trkpt>
      <trkpt lat="42.240615" lon="1.700695">
        <ele>2459.538</ele>
        <time>2021-08-25T13:37:50Z</time>
      </trkpt>
      <trkpt lat="42.240614" lon="1.700758">
        <ele>2460.673</ele>
        <time>2021-08-25T13:37:56Z</time>
      </trkpt>
      <trkpt lat="42.240561" lon="1.700757">
        <ele>2461.671</ele>
        <time>2021-08-25T13:38:04Z</time>
      </trkpt>
      <trkpt lat="42.240541" lon="1.700816">
        <ele>2462.441</ele>
        <time>2021-08-25T13:38:26Z</time>
      </trkpt>
      <trkpt lat="42.240544" lon="1.700886">
        <ele>2462.415</ele>
        <time>2021-08-25T13:38:37Z</time>
      </trkpt>
      <trkpt lat="42.240536" lon="1.700948">
        <ele>2464.708</ele>
        <time>2021-08-25T13:39:11Z</time>
      </trkpt>
      <trkpt lat="42.240505" lon="1.701001">
        <ele>2464.735</ele>
        <time>2021-08-25T13:39:27Z</time>
      </trkpt>
      <trkpt lat="42.240475" lon="1.701053">
        <ele>2464.749</ele>
        <time>2021-08-25T13:39:46Z</time>
      </trkpt>
      <trkpt lat="42.240437" lon="1.701098">
        <ele>2464.167</ele>
        <time>2021-08-25T13:39:52Z</time>
      </trkpt>
      <trkpt lat="42.240394" lon="1.701120">
        <ele>2466.213</ele>
        <time>2021-08-25T13:40:02Z</time>
      </trkpt>
      <trkpt lat="42.240423" lon="1.701171">
        <ele>2470.248</ele>
        <time>2021-08-25T13:40:25Z</time>
      </trkpt>
      <trkpt lat="42.240459" lon="1.701133">
        <ele>2459.952</ele>
        <time>2021-08-25T13:41:15Z</time>
      </trkpt>
      <trkpt lat="42.240414" lon="1.701119">
        <ele>2459.049</ele>
        <time>2021-08-25T13:42:01Z</time>
      </trkpt>
      <trkpt lat="42.240375" lon="1.701149">
        <ele>2458.934</ele>
        <time>2021-08-25T13:42:20Z</time>
      </trkpt>
      <trkpt lat="42.240402" lon="1.701219">
        <ele>2458.848</ele>
        <time>2021-08-25T13:42:29Z</time>
      </trkpt>
      <trkpt lat="42.240448" lon="1.701226">
        <ele>2458.661</ele>
        <time>2021-08-25T13:42:33Z</time>
      </trkpt>
      <trkpt lat="42.240422" lon="1.701170">
        <ele>2451.717</ele>
        <time>2021-08-25T13:43:17Z</time>
      </trkpt>
      <trkpt lat="42.240374" lon="1.701164">
        <ele>2451.708</ele>
        <time>2021-08-25T13:43:26Z</time>
      </trkpt>
      <trkpt lat="42.240413" lon="1.701196">
        <ele>2451.742</ele>
        <time>2021-08-25T13:43:47Z</time>
      </trkpt>
      <trkpt lat="42.240410" lon="1.701260">
        <ele>2452.866</ele>
        <time>2021-08-25T13:44:06Z</time>
      </trkpt>
      <trkpt lat="42.240457" lon="1.701279">
        <ele>2452.854</ele>
        <time>2021-08-25T13:44:15Z</time>
      </trkpt>
      <trkpt lat="42.240505" lon="1.701296">
        <ele>2452.820</ele>
        <time>2021-08-25T13:44:23Z</time>
      </trkpt>
      <trkpt lat="42.240484" lon="1.701351">
        <ele>2452.325</ele>
        <time>2021-08-25T13:44:38Z</time>
      </trkpt>
      <trkpt lat="42.240480" lon="1.701412">
        <ele>2452.449</ele>
        <time>2021-08-25T13:44:46Z</time>
      </trkpt>
      <trkpt lat="42.240457" lon="1.701467">
        <ele>2453.426</ele>
        <time>2021-08-25T13:44:56Z</time>
      </trkpt>
      <trkpt lat="42.240436" lon="1.701521">
        <ele>2454.291</ele>
        <time>2021-08-25T13:45:03Z</time>
      </trkpt>
      <trkpt lat="42.240401" lon="1.701566">
        <ele>2460.693</ele>
        <time>2021-08-25T13:45:11Z</time>
      </trkpt>
      <trkpt lat="42.240389" lon="1.701632">
        <ele>2464.865</ele>
        <time>2021-08-25T13:45:19Z</time>
      </trkpt>
      <trkpt lat="42.240363" lon="1.701683">
        <ele>2469.021</ele>
        <time>2021-08-25T13:45:27Z</time>
      </trkpt>
      <trkpt lat="42.240337" lon="1.701740">
        <ele>2471.608</ele>
        <time>2021-08-25T13:45:35Z</time>
      </trkpt>
      <trkpt lat="42.240289" lon="1.701757">
        <ele>2475.357</ele>
        <time>2021-08-25T13:45:43Z</time>
      </trkpt>
      <trkpt lat="42.240248" lon="1.701785">
        <ele>2476.811</ele>
        <time>2021-08-25T13:45:48Z</time>
      </trkpt>
      <trkpt lat="42.240199" lon="1.701777">
        <ele>2477.499</ele>
        <time>2021-08-25T13:45:57Z</time>
      </trkpt>
      <trkpt lat="42.240151" lon="1.701797">
        <ele>2477.485</ele>
        <time>2021-08-25T13:46:09Z</time>
      </trkpt>
      <trkpt lat="42.240106" lon="1.701775">
        <ele>2476.740</ele>
        <time>2021-08-25T13:46:14Z</time>
      </trkpt>
      <trkpt lat="42.240137" lon="1.701822">
        <ele>2476.294</ele>
        <time>2021-08-25T13:46:22Z</time>
      </trkpt>
      <trkpt lat="42.240165" lon="1.701870">
        <ele>2475.261</ele>
        <time>2021-08-25T13:46:33Z</time>
      </trkpt>
      <trkpt lat="42.240120" lon="1.701899">
        <ele>2474.746</ele>
        <time>2021-08-25T13:46:39Z</time>
      </trkpt>
      <trkpt lat="42.240068" lon="1.701905">
        <ele>2476.624</ele>
        <time>2021-08-25T13:47:08Z</time>
      </trkpt>
      <trkpt lat="42.240022" lon="1.701881">
        <ele>2477.904</ele>
        <time>2021-08-25T13:47:20Z</time>
      </trkpt>
      <trkpt lat="42.239976" lon="1.701851">
        <ele>2478.114</ele>
        <time>2021-08-25T13:47:40Z</time>
      </trkpt>
      <trkpt lat="42.239928" lon="1.701878">
        <ele>2480.908</ele>
        <time>2021-08-25T13:47:53Z</time>
      </trkpt>
      <trkpt lat="42.239922" lon="1.701941">
        <ele>2481.110</ele>
        <time>2021-08-25T13:48:01Z</time>
      </trkpt>
      <trkpt lat="42.239936" lon="1.701999">
        <ele>2481.464</ele>
        <time>2021-08-25T13:48:07Z</time>
      </trkpt>
      <trkpt lat="42.239934" lon="1.702063">
        <ele>2481.582</ele>
        <time>2021-08-25T13:48:13Z</time>
      </trkpt>
      <trkpt lat="42.239905" lon="1.702112">
        <ele>2480.118</ele>
        <time>2021-08-25T13:48:33Z</time>
      </trkpt>
      <trkpt lat="42.239849" lon="1.702121">
        <ele>2479.893</ele>
        <time>2021-08-25T13:48:54Z</time>
      </trkpt>
      <trkpt lat="42.239821" lon="1.702176">
        <ele>2479.397</ele>
        <time>2021-08-25T13:49:00Z</time>
      </trkpt>
      <trkpt lat="42.239856" lon="1.702215">
        <ele>2474.674</ele>
        <time>2021-08-25T13:49:22Z</time>
      </trkpt>
      <trkpt lat="42.239909" lon="1.702207">
        <ele>2472.559</ele>
        <time>2021-08-25T13:49:38Z</time>
      </trkpt>
      <trkpt lat="42.239895" lon="1.702283">
        <ele>2471.866</ele>
        <time>2021-08-25T13:49:44Z</time>
      </trkpt>
      <trkpt lat="42.239878" lon="1.702197">
        <ele>2468.229</ele>
        <time>2021-08-25T13:50:03Z</time>
      </trkpt>
      <trkpt lat="42.239916" lon="1.702160">
        <ele>2468.021</ele>
        <time>2021-08-25T13:50:07Z</time>
      </trkpt>
      <trkpt lat="42.239883" lon="1.702203">
        <ele>2460.808</ele>
        <time>2021-08-25T13:50:26Z</time>
      </trkpt>
      <trkpt lat="42.239853" lon="1.702250">
        <ele>2455.054</ele>
        <time>2021-08-25T13:50:34Z</time>
      </trkpt>
      <trkpt lat="42.239830" lon="1.702313">
        <ele>2455.178</ele>
        <time>2021-08-25T13:50:45Z</time>
      </trkpt>
      <trkpt lat="42.239782" lon="1.702273">
        <ele>2455.056</ele>
        <time>2021-08-25T13:50:57Z</time>
      </trkpt>
      <trkpt lat="42.239775" lon="1.702337">
        <ele>2455.562</ele>
        <time>2021-08-25T13:51:12Z</time>
      </trkpt>
      <trkpt lat="42.239763" lon="1.702401">
        <ele>2458.017</ele>
        <time>2021-08-25T13:51:18Z</time>
      </trkpt>
      <trkpt lat="42.239717" lon="1.702386">
        <ele>2459.971</ele>
        <time>2021-08-25T13:51:20Z</time>
      </trkpt>
      <trkpt lat="42.239684" lon="1.702428">
        <ele>2461.248</ele>
        <time>2021-08-25T13:51:27Z</time>
      </trkpt>
      <trkpt lat="42.239728" lon="1.702443">
        <ele>2465.453</ele>
        <time>2021-08-25T13:51:39Z</time>
      </trkpt>
      <trkpt lat="42.239774" lon="1.702426">
        <ele>2473.241</ele>
        <time>2021-08-25T13:52:14Z</time>
      </trkpt>
      <trkpt lat="42.239827" lon="1.702410">
        <ele>2474.881</ele>
        <time>2021-08-25T13:52:24Z</time>
      </trkpt>
      <trkpt lat="42.239878" lon="1.702411">
        <ele>2475.109</ele>
        <time>2021-08-25T13:52:31Z</time>
      </trkpt>
      <trkpt lat="42.239922" lon="1.702379">
        <ele>2473.708</ele>
        <time>2021-08-25T13:52:37Z</time>
      </trkpt>
      <trkpt lat="42.239958" lon="1.702417">
        <ele>2470.992</ele>
        <time>2021-08-25T13:53:39Z</time>
      </trkpt>
      <trkpt lat="42.240008" lon="1.702418">
        <ele>2472.736</ele>
        <time>2021-08-25T13:53:52Z</time>
      </trkpt>
      <trkpt lat="42.239965" lon="1.702441">
        <ele>2475.934</ele>
        <time>2021-08-25T13:54:07Z</time>
      </trkpt>
      <trkpt lat="42.239958" lon="1.702505">
        <ele>2477.360</ele>
        <time>2021-08-25T13:54:19Z</time>
      </trkpt>
      <trkpt lat="42.240001" lon="1.702543">
        <ele>2484.155</ele>
        <time>2021-08-25T13:54:35Z</time>
      </trkpt>
      <trkpt lat="42.240047" lon="1.702542">
        <ele>2484.599</ele>
        <time>2021-08-25T13:54:46Z</time>
      </trkpt>
      <trkpt lat="42.240086" lon="1.702578">
        <ele>2485.056</ele>
        <time>2021-08-25T13:55:15Z</time>
      </trkpt>
      <trkpt lat="42.240089" lon="1.702645">
        <ele>2485.071</ele>
        <time>2021-08-25T13:55:21Z</time>
      </trkpt>
      <trkpt lat="42.240085" lon="1.702706">
        <ele>2488.462</ele>
        <time>2021-08-25T13:55:33Z</time>
      </trkpt>
      <trkpt lat="42.240065" lon="1.702762">
        <ele>2490.483</ele>
        <time>2021-08-25T13:55:42Z</time>
      </trkpt>
      <trkpt lat="42.240039" lon="1.702820">
        <ele>2493.011</ele>
        <time>2021-08-25T13:55:47Z</time>
      </trkpt>
      <trkpt lat="42.240037" lon="1.702883">
        <ele>2496.808</ele>
        <time>2021-08-25T13:55:58Z</time>
      </trkpt>
      <trkpt lat="42.239992" lon="1.702882">
        <ele>2498.244</ele>
        <time>2021-08-25T13:56:09Z</time>
      </trkpt>
      <trkpt lat="42.239959" lon="1.702930">
        <ele>2499.558</ele>
        <time>2021-08-25T13:56:18Z</time>
      </trkpt>
      <trkpt lat="42.239925" lon="1.702970">
        <ele>2501.726</ele>
        <time>2021-08-25T13:56:31Z</time>
      </trkpt>
      <trkpt lat="42.239886" lon="1.703014">
        <ele>2502.732</ele>
        <time>2021-08-25T13:57:07Z</time>
      </trkpt>
      <trkpt lat="42.239846" lon="1.703045">
        <ele>2504.097</ele>
        <time>2021-08-25T14:01:35Z</time>
      </trkpt>
      <trkpt lat="42.239804" lon="1.703067">
        <ele>2504.051</ele>
        <time>2021-08-25T14:01:44Z</time>
      </trkpt>
      <trkpt lat="42.239755" lon="1.703083">
        <ele>2503.498</ele>
        <time>2021-08-25T14:02:25Z</time>
      </trkpt>
      <trkpt lat="42.239707" lon="1.703075">
        <ele>2502.613</ele>
        <time>2021-08-25T14:02:35Z</time>
      </trkpt>
      <trkpt lat="42.239687" lon="1.703142">
        <ele>2502.315</ele>
        <time>2021-08-25T14:02:47Z</time>
      </trkpt>
      <trkpt lat="42.239655" lon="1.703186">
        <ele>2502.165</ele>
        <time>2021-08-25T14:02:57Z</time>
      </trkpt>
      <trkpt lat="42.239613" lon="1.703221">
        <ele>2500.811</ele>
        <time>2021-08-25T14:03:20Z</time>
      </trkpt>
      <trkpt lat="42.239566" lon="1.703232">
        <ele>2494.008</ele>
        <time>2021-08-25T14:03:52Z</time>
      </trkpt>
      <trkpt lat="42.239533" lon="1.703277">
        <ele>2490.719</ele>
        <time>2021-08-25T14:04:08Z</time>
      </trkpt>
      <trkpt lat="42.239491" lon="1.703249">
        <ele>2488.723</ele>
        <time>2021-08-25T14:04:21Z</time>
      </trkpt>
      <trkpt lat="42.239471" lon="1.703309">
        <ele>2485.841</ele>
        <time>2021-08-25T14:04:36Z</time>
      </trkpt>
      <trkpt lat="42.239429" lon="1.703275">
        <ele>2473.157</ele>
        <time>2021-08-25T14:05:14Z</time>
      </trkpt>
      <trkpt lat="42.239389" lon="1.703306">
        <ele>2470.272</ele>
        <time>2021-08-25T14:05:29Z</time>
      </trkpt>
      <trkpt lat="42.239343" lon="1.703311">
        <ele>2467.776</ele>
        <time>2021-08-25T14:05:38Z</time>
      </trkpt>
      <trkpt lat="42.239313" lon="1.703266">
        <ele>2466.453</ele>
        <time>2021-08-25T14:06:07Z</time>
      </trkpt>
      <trkpt lat="42.239269" lon="1.703287">
        <ele>2466.178</ele>
        <time>2021-08-25T14:06:30Z</time>
      </trkpt>
      <trkpt lat="42.239223" lon="1.703283">
        <ele>2462.168</ele>
        <time>2021-08-25T14:07:00Z</time>
      </trkpt>
      <trkpt lat="42.239180" lon="1.703262">
        <ele>2461.142</ele>
        <time>2021-08-25T14:07:17Z</time>
      </trkpt>
      <trkpt lat="42.239136" lon="1.703233">
        <ele>2460.426</ele>
        <time>2021-08-25T14:07:31Z</time>
      </trkpt>
      <trkpt lat="42.239082" lon="1.703244">
        <ele>2456.908</ele>
        <time>2021-08-25T14:08:08Z</time>
      </trkpt>
      <trkpt lat="42.239033" lon="1.703250">
        <ele>2454.914</ele>
        <time>2021-08-25T14:08:14Z</time>
      </trkpt>
      <trkpt lat="42.238987" lon="1.703244">
        <ele>2452.528</ele>
        <time>2021-08-25T14:08:20Z</time>
      </trkpt>
      <trkpt lat="42.238951" lon="1.703281">
        <ele>2447.636</ele>
        <time>2021-08-25T14:08:40Z</time>
      </trkpt>
      <trkpt lat="42.238957" lon="1.703366">
        <ele>2441.512</ele>
        <time>2021-08-25T14:08:43Z</time>
      </trkpt>
      <trkpt lat="42.238905" lon="1.703329">
        <ele>2439.277</ele>
        <time>2021-08-25T14:08:46Z</time>
      </trkpt>
      <trkpt lat="42.238862" lon="1.703293">
        <ele>2437.581</ele>
        <time>2021-08-25T14:08:50Z</time>
      </trkpt>
      <trkpt lat="42.238817" lon="1.703278">
        <ele>2439.138</ele>
        <time>2021-08-25T14:08:59Z</time>
      </trkpt>
      <trkpt lat="42.238775" lon="1.703301">
        <ele>2441.723</ele>
        <time>2021-08-25T14:09:11Z</time>
      </trkpt>
      <trkpt lat="42.238728" lon="1.703282">
        <ele>2442.917</ele>
        <time>2021-08-25T14:09:36Z</time>
      </trkpt>
      <trkpt lat="42.238684" lon="1.703295">
        <ele>2442.587</ele>
        <time>2021-08-25T14:09:58Z</time>
      </trkpt>
      <trkpt lat="42.238662" lon="1.703356">
        <ele>2441.315</ele>
        <time>2021-08-25T14:10:07Z</time>
      </trkpt>
      <trkpt lat="42.238614" lon="1.703360">
        <ele>2431.408</ele>
        <time>2021-08-25T14:10:29Z</time>
      </trkpt>
      <trkpt lat="42.238565" lon="1.703353">
        <ele>2421.559</ele>
        <time>2021-08-25T14:10:56Z</time>
      </trkpt>
      <trkpt lat="42.238551" lon="1.703412">
        <ele>2416.983</ele>
        <time>2021-08-25T14:11:14Z</time>
      </trkpt>
      <trkpt lat="42.238512" lon="1.703443">
        <ele>2415.711</ele>
        <time>2021-08-25T14:11:24Z</time>
      </trkpt>
      <trkpt lat="42.238562" lon="1.703445">
        <ele>2408.517</ele>
        <time>2021-08-25T14:11:51Z</time>
      </trkpt>
      <trkpt lat="42.238525" lon="1.703404">
        <ele>2408.152</ele>
        <time>2021-08-25T14:12:09Z</time>
      </trkpt>
      <trkpt lat="42.238487" lon="1.703367">
        <ele>2404.836</ele>
        <time>2021-08-25T14:12:26Z</time>
      </trkpt>
      <trkpt lat="42.238454" lon="1.703320">
        <ele>2402.963</ele>
        <time>2021-08-25T14:12:37Z</time>
      </trkpt>
      <trkpt lat="42.238410" lon="1.703283">
        <ele>2400.458</ele>
        <time>2021-08-25T14:13:13Z</time>
      </trkpt>
      <trkpt lat="42.238363" lon="1.703298">
        <ele>2394.445</ele>
        <time>2021-08-25T14:13:30Z</time>
      </trkpt>
      <trkpt lat="42.238322" lon="1.703329">
        <ele>2393.447</ele>
        <time>2021-08-25T14:13:41Z</time>
      </trkpt>
      <trkpt lat="42.238266" lon="1.703363">
        <ele>2391.111</ele>
        <time>2021-08-25T14:13:45Z</time>
      </trkpt>
      <trkpt lat="42.238212" lon="1.703342">
        <ele>2389.008</ele>
        <time>2021-08-25T14:13:49Z</time>
      </trkpt>
      <trkpt lat="42.238166" lon="1.703317">
        <ele>2388.042</ele>
        <time>2021-08-25T14:13:53Z</time>
      </trkpt>
      <trkpt lat="42.238158" lon="1.703252">
        <ele>2385.846</ele>
        <time>2021-08-25T14:14:04Z</time>
      </trkpt>
      <trkpt lat="42.238115" lon="1.703290">
        <ele>2382.974</ele>
        <time>2021-08-25T14:14:26Z</time>
      </trkpt>
      <trkpt lat="42.238071" lon="1.703304">
        <ele>2382.180</ele>
        <time>2021-08-25T14:14:31Z</time>
      </trkpt>
      <trkpt lat="42.238021" lon="1.703339">
        <ele>2381.975</ele>
        <time>2021-08-25T14:14:37Z</time>
      </trkpt>
      <trkpt lat="42.237984" lon="1.703394">
        <ele>2381.959</ele>
        <time>2021-08-25T14:14:40Z</time>
      </trkpt>
      <trkpt lat="42.237944" lon="1.703424">
        <ele>2376.276</ele>
        <time>2021-08-25T14:14:45Z</time>
      </trkpt>
      <trkpt lat="42.237937" lon="1.703485">
        <ele>2375.131</ele>
        <time>2021-08-25T14:14:50Z</time>
      </trkpt>
      <trkpt lat="42.237915" lon="1.703544">
        <ele>2374.795</ele>
        <time>2021-08-25T14:14:55Z</time>
      </trkpt>
      <trkpt lat="42.237878" lon="1.703600">
        <ele>2372.449</ele>
        <time>2021-08-25T14:14:59Z</time>
      </trkpt>
      <trkpt lat="42.237833" lon="1.703652">
        <ele>2372.123</ele>
        <time>2021-08-25T14:15:03Z</time>
      </trkpt>
      <trkpt lat="42.237797" lon="1.703689">
        <ele>2371.908</ele>
        <time>2021-08-25T14:15:06Z</time>
      </trkpt>
      <trkpt lat="42.237756" lon="1.703733">
        <ele>2371.677</ele>
        <time>2021-08-25T14:15:09Z</time>
      </trkpt>
      <trkpt lat="42.237719" lon="1.703795">
        <ele>2370.781</ele>
        <time>2021-08-25T14:15:13Z</time>
      </trkpt>
      <trkpt lat="42.237695" lon="1.703858">
        <ele>2369.949</ele>
        <time>2021-08-25T14:15:18Z</time>
      </trkpt>
      <trkpt lat="42.237674" lon="1.703916">
        <ele>2369.825</ele>
        <time>2021-08-25T14:15:22Z</time>
      </trkpt>
      <trkpt lat="42.237622" lon="1.703964">
        <ele>2368.880</ele>
        <time>2021-08-25T14:15:26Z</time>
      </trkpt>
      <trkpt lat="42.237585" lon="1.704019">
        <ele>2368.664</ele>
        <time>2021-08-25T14:15:30Z</time>
      </trkpt>
      <trkpt lat="42.237567" lon="1.704085">
        <ele>2367.161</ele>
        <time>2021-08-25T14:15:35Z</time>
      </trkpt>
      <trkpt lat="42.237549" lon="1.704143">
        <ele>2366.346</ele>
        <time>2021-08-25T14:15:39Z</time>
      </trkpt>
      <trkpt lat="42.237510" lon="1.704178">
        <ele>2365.629</ele>
        <time>2021-08-25T14:15:43Z</time>
      </trkpt>
      <trkpt lat="42.237472" lon="1.704216">
        <ele>2364.900</ele>
        <time>2021-08-25T14:15:46Z</time>
      </trkpt>
      <trkpt lat="42.237437" lon="1.704260">
        <ele>2364.520</ele>
        <time>2021-08-25T14:15:49Z</time>
      </trkpt>
      <trkpt lat="42.237419" lon="1.704318">
        <ele>2362.108</ele>
        <time>2021-08-25T14:15:54Z</time>
      </trkpt>
      <trkpt lat="42.237395" lon="1.704373">
        <ele>2356.690</ele>
        <time>2021-08-25T14:17:31Z</time>
      </trkpt>
      <trkpt lat="42.237369" lon="1.704434">
        <ele>2356.644</ele>
        <time>2021-08-25T14:17:36Z</time>
      </trkpt>
      <trkpt lat="42.237353" lon="1.704500">
        <ele>2356.662</ele>
        <time>2021-08-25T14:17:41Z</time>
      </trkpt>
      <trkpt lat="42.237356" lon="1.704562">
        <ele>2356.628</ele>
        <time>2021-08-25T14:17:47Z</time>
      </trkpt>
      <trkpt lat="42.237377" lon="1.704621">
        <ele>2355.793</ele>
        <time>2021-08-25T14:19:01Z</time>
      </trkpt>
      <trkpt lat="42.237389" lon="1.704690">
        <ele>2355.787</ele>
        <time>2021-08-25T14:19:06Z</time>
      </trkpt>
      <trkpt lat="42.237339" lon="1.704709">
        <ele>2355.644</ele>
        <time>2021-08-25T14:19:12Z</time>
      </trkpt>
      <trkpt lat="42.237356" lon="1.704773">
        <ele>2355.779</ele>
        <time>2021-08-25T14:19:16Z</time>
      </trkpt>
      <trkpt lat="42.237346" lon="1.704840">
        <ele>2352.348</ele>
        <time>2021-08-25T14:19:21Z</time>
      </trkpt>
      <trkpt lat="42.237352" lon="1.704902">
        <ele>2351.461</ele>
        <time>2021-08-25T14:19:25Z</time>
      </trkpt>
      <trkpt lat="42.237368" lon="1.704969">
        <ele>2350.417</ele>
        <time>2021-08-25T14:19:29Z</time>
      </trkpt>
      <trkpt lat="42.237376" lon="1.705041">
        <ele>2348.108</ele>
        <time>2021-08-25T14:19:33Z</time>
      </trkpt>
      <trkpt lat="42.237401" lon="1.705099">
        <ele>2346.142</ele>
        <time>2021-08-25T14:19:37Z</time>
      </trkpt>
      <trkpt lat="42.237405" lon="1.705161">
        <ele>2345.016</ele>
        <time>2021-08-25T14:19:41Z</time>
      </trkpt>
      <trkpt lat="42.237412" lon="1.705228">
        <ele>2341.244</ele>
        <time>2021-08-25T14:19:45Z</time>
      </trkpt>
      <trkpt lat="42.237371" lon="1.705269">
        <ele>2338.450</ele>
        <time>2021-08-25T14:19:55Z</time>
      </trkpt>
      <trkpt lat="42.237326" lon="1.705299">
        <ele>2335.155</ele>
        <time>2021-08-25T14:20:02Z</time>
      </trkpt>
      <trkpt lat="42.237300" lon="1.705364">
        <ele>2334.099</ele>
        <time>2021-08-25T14:20:07Z</time>
      </trkpt>
      <trkpt lat="42.237255" lon="1.705371">
        <ele>2332.216</ele>
        <time>2021-08-25T14:20:13Z</time>
      </trkpt>
      <trkpt lat="42.237254" lon="1.705451">
        <ele>2330.931</ele>
        <time>2021-08-25T14:20:18Z</time>
      </trkpt>
      <trkpt lat="42.237240" lon="1.705516">
        <ele>2327.148</ele>
        <time>2021-08-25T14:20:25Z</time>
      </trkpt>
      <trkpt lat="42.237213" lon="1.705569">
        <ele>2326.661</ele>
        <time>2021-08-25T14:20:31Z</time>
      </trkpt>
      <trkpt lat="42.237178" lon="1.705609">
        <ele>2321.017</ele>
        <time>2021-08-25T14:20:59Z</time>
      </trkpt>
      <trkpt lat="42.237169" lon="1.705681">
        <ele>2320.208</ele>
        <time>2021-08-25T14:21:28Z</time>
      </trkpt>
      <trkpt lat="42.237175" lon="1.705747">
        <ele>2320.232</ele>
        <time>2021-08-25T14:21:38Z</time>
      </trkpt>
      <trkpt lat="42.237133" lon="1.705823">
        <ele>2320.266</ele>
        <time>2021-08-25T14:21:46Z</time>
      </trkpt>
      <trkpt lat="42.237101" lon="1.705889">
        <ele>2318.354</ele>
        <time>2021-08-25T14:21:49Z</time>
      </trkpt>
      <trkpt lat="42.237077" lon="1.705814">
        <ele>2315.490</ele>
        <time>2021-08-25T14:21:53Z</time>
      </trkpt>
      <trkpt lat="42.237056" lon="1.705760">
        <ele>2313.325</ele>
        <time>2021-08-25T14:21:59Z</time>
      </trkpt>
      <trkpt lat="42.237005" lon="1.705779">
        <ele>2307.149</ele>
        <time>2021-08-25T14:22:06Z</time>
      </trkpt>
      <trkpt lat="42.236949" lon="1.705765">
        <ele>2305.426</ele>
        <time>2021-08-25T14:22:09Z</time>
      </trkpt>
      <trkpt lat="42.236910" lon="1.705806">
        <ele>2304.731</ele>
        <time>2021-08-25T14:22:12Z</time>
      </trkpt>
      <trkpt lat="42.236881" lon="1.705875">
        <ele>2301.477</ele>
        <time>2021-08-25T14:22:16Z</time>
      </trkpt>
      <trkpt lat="42.236864" lon="1.705949">
        <ele>2300.061</ele>
        <time>2021-08-25T14:22:20Z</time>
      </trkpt>
      <trkpt lat="42.236846" lon="1.706014">
        <ele>2299.727</ele>
        <time>2021-08-25T14:22:23Z</time>
      </trkpt>
      <trkpt lat="42.236823" lon="1.706070">
        <ele>2299.608</ele>
        <time>2021-08-25T14:22:26Z</time>
      </trkpt>
      <trkpt lat="42.236809" lon="1.706133">
        <ele>2299.285</ele>
        <time>2021-08-25T14:22:30Z</time>
      </trkpt>
      <trkpt lat="42.236787" lon="1.706194">
        <ele>2298.339</ele>
        <time>2021-08-25T14:22:34Z</time>
      </trkpt>
      <trkpt lat="42.236788" lon="1.706265">
        <ele>2296.397</ele>
        <time>2021-08-25T14:22:39Z</time>
      </trkpt>
      <trkpt lat="42.236779" lon="1.706327">
        <ele>2295.033</ele>
        <time>2021-08-25T14:22:43Z</time>
      </trkpt>
      <trkpt lat="42.236786" lon="1.706392">
        <ele>2294.158</ele>
        <time>2021-08-25T14:22:47Z</time>
      </trkpt>
      <trkpt lat="42.236795" lon="1.706455">
        <ele>2293.792</ele>
        <time>2021-08-25T14:22:52Z</time>
      </trkpt>
      <trkpt lat="42.236765" lon="1.706519">
        <ele>2292.289</ele>
        <time>2021-08-25T14:22:57Z</time>
      </trkpt>
      <trkpt lat="42.236747" lon="1.706599">
        <ele>2288.064</ele>
        <time>2021-08-25T14:23:03Z</time>
      </trkpt>
      <trkpt lat="42.236722" lon="1.706650">
        <ele>2287.122</ele>
        <time>2021-08-25T14:23:07Z</time>
      </trkpt>
      <trkpt lat="42.236737" lon="1.706707">
        <ele>2287.962</ele>
        <time>2021-08-25T14:23:48Z</time>
      </trkpt>
      <trkpt lat="42.236733" lon="1.706775">
        <ele>2287.908</ele>
        <time>2021-08-25T14:23:55Z</time>
      </trkpt>
      <trkpt lat="42.236719" lon="1.706843">
        <ele>2287.508</ele>
        <time>2021-08-25T14:24:03Z</time>
      </trkpt>
      <trkpt lat="42.236706" lon="1.706904">
        <ele>2284.280</ele>
        <time>2021-08-25T14:24:09Z</time>
      </trkpt>
      <trkpt lat="42.236686" lon="1.706968">
        <ele>2279.794</ele>
        <time>2021-08-25T14:24:19Z</time>
      </trkpt>
      <trkpt lat="42.236652" lon="1.707017">
        <ele>2278.792</ele>
        <time>2021-08-25T14:24:24Z</time>
      </trkpt>
      <trkpt lat="42.236617" lon="1.707077">
        <ele>2277.478</ele>
        <time>2021-08-25T14:24:28Z</time>
      </trkpt>
      <trkpt lat="42.236584" lon="1.707118">
        <ele>2277.143</ele>
        <time>2021-08-25T14:24:32Z</time>
      </trkpt>
      <trkpt lat="42.236546" lon="1.707163">
        <ele>2276.647</ele>
        <time>2021-08-25T14:24:37Z</time>
      </trkpt>
      <trkpt lat="42.236518" lon="1.707216">
        <ele>2275.454</ele>
        <time>2021-08-25T14:24:42Z</time>
      </trkpt>
      <trkpt lat="42.236517" lon="1.707280">
        <ele>2274.149</ele>
        <time>2021-08-25T14:24:47Z</time>
      </trkpt>
      <trkpt lat="42.236497" lon="1.707339">
        <ele>2272.331</ele>
        <time>2021-08-25T14:24:52Z</time>
      </trkpt>
      <trkpt lat="42.236504" lon="1.707404">
        <ele>2270.861</ele>
        <time>2021-08-25T14:24:56Z</time>
      </trkpt>
      <trkpt lat="42.236467" lon="1.707440">
        <ele>2268.207</ele>
        <time>2021-08-25T14:25:20Z</time>
      </trkpt>
      <trkpt lat="42.236439" lon="1.707498">
        <ele>2268.108</ele>
        <time>2021-08-25T14:25:28Z</time>
      </trkpt>
      <trkpt lat="42.236443" lon="1.707565">
        <ele>2266.721</ele>
        <time>2021-08-25T14:25:38Z</time>
      </trkpt>
      <trkpt lat="42.236490" lon="1.707561">
        <ele>2263.825</ele>
        <time>2021-08-25T14:25:46Z</time>
      </trkpt>
      <trkpt lat="42.236469" lon="1.707633">
        <ele>2258.513</ele>
        <time>2021-08-25T14:25:56Z</time>
      </trkpt>
      <trkpt lat="42.236516" lon="1.707640">
        <ele>2251.699</ele>
        <time>2021-08-25T14:26:07Z</time>
      </trkpt>
      <trkpt lat="42.236544" lon="1.707695">
        <ele>2250.834</ele>
        <time>2021-08-25T14:26:12Z</time>
      </trkpt>
      <trkpt lat="42.236514" lon="1.707758">
        <ele>2244.158</ele>
        <time>2021-08-25T14:26:18Z</time>
      </trkpt>
      <trkpt lat="42.236475" lon="1.707799">
        <ele>2242.735</ele>
        <time>2021-08-25T14:26:28Z</time>
      </trkpt>
      <trkpt lat="42.236444" lon="1.707849">
        <ele>2242.080</ele>
        <time>2021-08-25T14:26:34Z</time>
      </trkpt>
      <trkpt lat="42.236420" lon="1.707906">
        <ele>2242.344</ele>
        <time>2021-08-25T14:26:40Z</time>
      </trkpt>
      <trkpt lat="42.236384" lon="1.707955">
        <ele>2242.005</ele>
        <time>2021-08-25T14:26:45Z</time>
      </trkpt>
      <trkpt lat="42.236346" lon="1.707995">
        <ele>2241.715</ele>
        <time>2021-08-25T14:26:51Z</time>
      </trkpt>
      <trkpt lat="42.236313" lon="1.708040">
        <ele>2241.408</ele>
        <time>2021-08-25T14:26:55Z</time>
      </trkpt>
      <trkpt lat="42.236279" lon="1.708095">
        <ele>2240.722</ele>
        <time>2021-08-25T14:26:59Z</time>
      </trkpt>
      <trkpt lat="42.236321" lon="1.708120">
        <ele>2237.696</ele>
        <time>2021-08-25T14:27:16Z</time>
      </trkpt>
      <trkpt lat="42.236369" lon="1.708139">
        <ele>2236.744</ele>
        <time>2021-08-25T14:27:21Z</time>
      </trkpt>
      <trkpt lat="42.236324" lon="1.708166">
        <ele>2231.680</ele>
        <time>2021-08-25T14:27:32Z</time>
      </trkpt>
      <trkpt lat="42.236310" lon="1.708234">
        <ele>2227.635</ele>
        <time>2021-08-25T14:27:39Z</time>
      </trkpt>
      <trkpt lat="42.236348" lon="1.708284">
        <ele>2224.819</ele>
        <time>2021-08-25T14:27:47Z</time>
      </trkpt>
      <trkpt lat="42.236386" lon="1.708317">
        <ele>2223.756</ele>
        <time>2021-08-25T14:27:53Z</time>
      </trkpt>
      <trkpt lat="42.236376" lon="1.708377">
        <ele>2222.131</ele>
        <time>2021-08-25T14:28:15Z</time>
      </trkpt>
      <trkpt lat="42.236401" lon="1.708432">
        <ele>2216.072</ele>
        <time>2021-08-25T14:28:24Z</time>
      </trkpt>
      <trkpt lat="42.236385" lon="1.708489">
        <ele>2214.313</ele>
        <time>2021-08-25T14:28:31Z</time>
      </trkpt>
      <trkpt lat="42.236413" lon="1.708537">
        <ele>2213.414</ele>
        <time>2021-08-25T14:28:39Z</time>
      </trkpt>
      <trkpt lat="42.236457" lon="1.708567">
        <ele>2212.708</ele>
        <time>2021-08-25T14:28:47Z</time>
      </trkpt>
      <trkpt lat="42.236450" lon="1.708628">
        <ele>2208.335</ele>
        <time>2021-08-25T14:28:55Z</time>
      </trkpt>
      <trkpt lat="42.236418" lon="1.708681">
        <ele>2208.089</ele>
        <time>2021-08-25T14:29:01Z</time>
      </trkpt>
      <trkpt lat="42.236376" lon="1.708705">
        <ele>2206.817</ele>
        <time>2021-08-25T14:29:07Z</time>
      </trkpt>
      <trkpt lat="42.236356" lon="1.708763">
        <ele>2205.513</ele>
        <time>2021-08-25T14:29:14Z</time>
      </trkpt>
      <trkpt lat="42.236404" lon="1.708754">
        <ele>2202.138</ele>
        <time>2021-08-25T14:29:19Z</time>
      </trkpt>
      <trkpt lat="42.236392" lon="1.708823">
        <ele>2196.122</ele>
        <time>2021-08-25T14:29:29Z</time>
      </trkpt>
      <trkpt lat="42.236357" lon="1.708866">
        <ele>2193.949</ele>
        <time>2021-08-25T14:29:34Z</time>
      </trkpt>
      <trkpt lat="42.236329" lon="1.708913">
        <ele>2192.554</ele>
        <time>2021-08-25T14:29:40Z</time>
      </trkpt>
      <trkpt lat="42.236287" lon="1.708942">
        <ele>2190.577</ele>
        <time>2021-08-25T14:29:46Z</time>
      </trkpt>
      <trkpt lat="42.236250" lon="1.709000">
        <ele>2189.761</ele>
        <time>2021-08-25T14:29:57Z</time>
      </trkpt>
      <trkpt lat="42.236203" lon="1.709042">
        <ele>2186.527</ele>
        <time>2021-08-25T14:30:03Z</time>
      </trkpt>
      <trkpt lat="42.236180" lon="1.709096">
        <ele>2180.808</ele>
        <time>2021-08-25T14:30:16Z</time>
      </trkpt>
      <trkpt lat="42.236200" lon="1.709164">
        <ele>2177.975</ele>
        <time>2021-08-25T14:30:27Z</time>
      </trkpt>
      <trkpt lat="42.236247" lon="1.709178">
        <ele>2175.169</ele>
        <time>2021-08-25T14:30:32Z</time>
      </trkpt>
      <trkpt lat="42.236262" lon="1.709244">
        <ele>2171.447</ele>
        <time>2021-08-25T14:30:40Z</time>
      </trkpt>
      <trkpt lat="42.236247" lon="1.709302">
        <ele>2170.333</ele>
        <time>2021-08-25T14:30:47Z</time>
      </trkpt>
      <trkpt lat="42.236209" lon="1.709344">
        <ele>2170.168</ele>
        <time>2021-08-25T14:30:51Z</time>
      </trkpt>
      <trkpt lat="42.236181" lon="1.709400">
        <ele>2169.632</ele>
        <time>2021-08-25T14:30:55Z</time>
      </trkpt>
      <trkpt lat="42.236135" lon="1.709410">
        <ele>2169.589</ele>
        <time>2021-08-25T14:30:58Z</time>
      </trkpt>
      <trkpt lat="42.236097" lon="1.709454">
        <ele>2168.594</ele>
        <time>2021-08-25T14:31:03Z</time>
      </trkpt>
      <trkpt lat="42.236125" lon="1.709510">
        <ele>2164.293</ele>
        <time>2021-08-25T14:31:11Z</time>
      </trkpt>
      <trkpt lat="42.236170" lon="1.709496">
        <ele>2162.765</ele>
        <time>2021-08-25T14:31:17Z</time>
      </trkpt>
      <trkpt lat="42.236219" lon="1.709479">
        <ele>2158.421</ele>
        <time>2021-08-25T14:31:23Z</time>
      </trkpt>
      <trkpt lat="42.236187" lon="1.709538">
        <ele>2156.608</ele>
        <time>2021-08-25T14:31:31Z</time>
      </trkpt>
      <trkpt lat="42.236161" lon="1.709597">
        <ele>2153.417</ele>
        <time>2021-08-25T14:31:37Z</time>
      </trkpt>
      <trkpt lat="42.236128" lon="1.709645">
        <ele>2152.541</ele>
        <time>2021-08-25T14:31:41Z</time>
      </trkpt>
      <trkpt lat="42.236085" lon="1.709680">
        <ele>2151.779</ele>
        <time>2021-08-25T14:31:46Z</time>
      </trkpt>
      <trkpt lat="42.236038" lon="1.709716">
        <ele>2149.345</ele>
        <time>2021-08-25T14:31:53Z</time>
      </trkpt>
      <trkpt lat="42.235984" lon="1.709688">
        <ele>2144.750</ele>
        <time>2021-08-25T14:32:21Z</time>
      </trkpt>
      <trkpt lat="42.235985" lon="1.709756">
        <ele>2144.614</ele>
        <time>2021-08-25T14:32:30Z</time>
      </trkpt>
      <trkpt lat="42.236026" lon="1.709792">
        <ele>2143.291</ele>
        <time>2021-08-25T14:32:41Z</time>
      </trkpt>
      <trkpt lat="42.236069" lon="1.709819">
        <ele>2140.326</ele>
        <time>2021-08-25T14:33:01Z</time>
      </trkpt>
      <trkpt lat="42.236091" lon="1.709876">
        <ele>2134.457</ele>
        <time>2021-08-25T14:33:09Z</time>
      </trkpt>
      <trkpt lat="42.236094" lon="1.709941">
        <ele>2132.300</ele>
        <time>2021-08-25T14:33:23Z</time>
      </trkpt>
      <trkpt lat="42.236095" lon="1.710007">
        <ele>2129.420</ele>
        <time>2021-08-25T14:33:34Z</time>
      </trkpt>
      <trkpt lat="42.236110" lon="1.710071">
        <ele>2125.308</ele>
        <time>2021-08-25T14:33:42Z</time>
      </trkpt>
      <trkpt lat="42.236123" lon="1.710134">
        <ele>2124.973</ele>
        <time>2021-08-25T14:33:46Z</time>
      </trkpt>
      <trkpt lat="42.236168" lon="1.710160">
        <ele>2122.497</ele>
        <time>2021-08-25T14:33:54Z</time>
      </trkpt>
      <trkpt lat="42.236184" lon="1.710228">
        <ele>2120.055</ele>
        <time>2021-08-25T14:34:04Z</time>
      </trkpt>
      <trkpt lat="42.236217" lon="1.710274">
        <ele>2118.591</ele>
        <time>2021-08-25T14:34:10Z</time>
      </trkpt>
      <trkpt lat="42.236248" lon="1.710334">
        <ele>2118.086</ele>
        <time>2021-08-25T14:34:17Z</time>
      </trkpt>
      <trkpt lat="42.236301" lon="1.710337">
        <ele>2117.960</ele>
        <time>2021-08-25T14:34:22Z</time>
      </trkpt>
      <trkpt lat="42.236342" lon="1.710370">
        <ele>2118.187</ele>
        <time>2021-08-25T14:34:30Z</time>
      </trkpt>
      <trkpt lat="42.236389" lon="1.710363">
        <ele>2118.632</ele>
        <time>2021-08-25T14:34:36Z</time>
      </trkpt>
      <trkpt lat="42.236345" lon="1.710415">
        <ele>2117.565</ele>
        <time>2021-08-25T14:35:01Z</time>
      </trkpt>
      <trkpt lat="42.236373" lon="1.710463">
        <ele>2115.168</ele>
        <time>2021-08-25T14:35:43Z</time>
      </trkpt>
      <trkpt lat="42.236327" lon="1.710494">
        <ele>2115.114</ele>
        <time>2021-08-25T14:35:49Z</time>
      </trkpt>
      <trkpt lat="42.236284" lon="1.710525">
        <ele>2115.008</ele>
        <time>2021-08-25T14:35:55Z</time>
      </trkpt>
      <trkpt lat="42.236294" lon="1.710594">
        <ele>2104.444</ele>
        <time>2021-08-25T14:36:22Z</time>
      </trkpt>
      <trkpt lat="42.236350" lon="1.710605">
        <ele>2101.168</ele>
        <time>2021-08-25T14:36:26Z</time>
      </trkpt>
      <trkpt lat="42.236396" lon="1.710610">
        <ele>2100.816</ele>
        <time>2021-08-25T14:36:30Z</time>
      </trkpt>
      <trkpt lat="42.236359" lon="1.710665">
        <ele>2100.792</ele>
        <time>2021-08-25T14:36:35Z</time>
      </trkpt>
      <trkpt lat="42.236386" lon="1.710715">
        <ele>2094.547</ele>
        <time>2021-08-25T14:36:42Z</time>
      </trkpt>
      <trkpt lat="42.236405" lon="1.710782">
        <ele>2093.531</ele>
        <time>2021-08-25T14:36:53Z</time>
      </trkpt>
      <trkpt lat="42.236367" lon="1.710815">
        <ele>2090.528</ele>
        <time>2021-08-25T14:36:58Z</time>
      </trkpt>
      <trkpt lat="42.236311" lon="1.710803">
        <ele>2087.683</ele>
        <time>2021-08-25T14:37:02Z</time>
      </trkpt>
      <trkpt lat="42.236262" lon="1.710794">
        <ele>2087.136</ele>
        <time>2021-08-25T14:37:06Z</time>
      </trkpt>
      <trkpt lat="42.236271" lon="1.710865">
        <ele>2084.417</ele>
        <time>2021-08-25T14:37:11Z</time>
      </trkpt>
      <trkpt lat="42.236291" lon="1.710923">
        <ele>2079.418</ele>
        <time>2021-08-25T14:37:19Z</time>
      </trkpt>
      <trkpt lat="42.236327" lon="1.710967">
        <ele>2077.608</ele>
        <time>2021-08-25T14:37:25Z</time>
      </trkpt>
      <trkpt lat="42.236361" lon="1.711015">
        <ele>2075.431</ele>
        <time>2021-08-25T14:37:30Z</time>
      </trkpt>
      <trkpt lat="42.236413" lon="1.711027">
        <ele>2074.235</ele>
        <time>2021-08-25T14:37:36Z</time>
      </trkpt>
      <trkpt lat="42.236386" lon="1.711088">
        <ele>2071.543</ele>
        <time>2021-08-25T14:37:43Z</time>
      </trkpt>
      <trkpt lat="42.236348" lon="1.711138">
        <ele>2064.889</ele>
        <time>2021-08-25T14:37:48Z</time>
      </trkpt>
      <trkpt lat="42.236321" lon="1.711190">
        <ele>2063.464</ele>
        <time>2021-08-25T14:37:52Z</time>
      </trkpt>
      <trkpt lat="42.236374" lon="1.711210">
        <ele>2062.828</ele>
        <time>2021-08-25T14:37:56Z</time>
      </trkpt>
      <trkpt lat="42.236344" lon="1.711261">
        <ele>2061.925</ele>
        <time>2021-08-25T14:38:01Z</time>
      </trkpt>
      <trkpt lat="42.236370" lon="1.711322">
        <ele>2058.490</ele>
        <time>2021-08-25T14:38:11Z</time>
      </trkpt>
      <trkpt lat="42.236338" lon="1.711380">
        <ele>2057.012</ele>
        <time>2021-08-25T14:38:16Z</time>
      </trkpt>
      <trkpt lat="42.236304" lon="1.711428">
        <ele>2055.632</ele>
        <time>2021-08-25T14:38:22Z</time>
      </trkpt>
      <trkpt lat="42.236275" lon="1.711485">
        <ele>2054.905</ele>
        <time>2021-08-25T14:38:27Z</time>
      </trkpt>
      <trkpt lat="42.236252" lon="1.711546">
        <ele>2053.108</ele>
        <time>2021-08-25T14:38:32Z</time>
      </trkpt>
      <trkpt lat="42.236260" lon="1.711609">
        <ele>2051.819</ele>
        <time>2021-08-25T14:38:38Z</time>
      </trkpt>
      <trkpt lat="42.236253" lon="1.711680">
        <ele>2050.643</ele>
        <time>2021-08-25T14:38:45Z</time>
      </trkpt>
      <trkpt lat="42.236221" lon="1.711750">
        <ele>2046.361</ele>
        <time>2021-08-25T14:38:52Z</time>
      </trkpt>
      <trkpt lat="42.236191" lon="1.711807">
        <ele>2045.487</ele>
        <time>2021-08-25T14:38:57Z</time>
      </trkpt>
      <trkpt lat="42.236161" lon="1.711861">
        <ele>2044.742</ele>
        <time>2021-08-25T14:39:02Z</time>
      </trkpt>
      <trkpt lat="42.236138" lon="1.711917">
        <ele>2042.876</ele>
        <time>2021-08-25T14:39:09Z</time>
      </trkpt>
      <trkpt lat="42.236106" lon="1.711960">
        <ele>2041.243</ele>
        <time>2021-08-25T14:39:15Z</time>
      </trkpt>
      <trkpt lat="42.236073" lon="1.712009">
        <ele>2037.668</ele>
        <time>2021-08-25T14:39:21Z</time>
      </trkpt>
      <trkpt lat="42.236072" lon="1.712071">
        <ele>2034.848</ele>
        <time>2021-08-25T14:39:28Z</time>
      </trkpt>
      <trkpt lat="42.236058" lon="1.712132">
        <ele>2032.861</ele>
        <time>2021-08-25T14:39:37Z</time>
      </trkpt>
      <trkpt lat="42.236062" lon="1.712194">
        <ele>2030.717</ele>
        <time>2021-08-25T14:39:46Z</time>
      </trkpt>
      <trkpt lat="42.236106" lon="1.712229">
        <ele>2027.608</ele>
        <time>2021-08-25T14:39:53Z</time>
      </trkpt>
      <trkpt lat="42.236152" lon="1.712266">
        <ele>2024.882</ele>
        <time>2021-08-25T14:39:59Z</time>
      </trkpt>
      <trkpt lat="42.236193" lon="1.712297">
        <ele>2021.496</ele>
        <time>2021-08-25T14:40:03Z</time>
      </trkpt>
      <trkpt lat="42.236246" lon="1.712339">
        <ele>2017.144</ele>
        <time>2021-08-25T14:40:06Z</time>
      </trkpt>
      <trkpt lat="42.236240" lon="1.712417">
        <ele>2011.790</ele>
        <time>2021-08-25T14:40:09Z</time>
      </trkpt>
      <trkpt lat="42.236269" lon="1.712475">
        <ele>2010.075</ele>
        <time>2021-08-25T14:40:12Z</time>
      </trkpt>
      <trkpt lat="42.236316" lon="1.712457">
        <ele>2009.979</ele>
        <time>2021-08-25T14:40:15Z</time>
      </trkpt>
      <trkpt lat="42.236330" lon="1.712527">
        <ele>2011.176</ele>
        <time>2021-08-25T14:40:20Z</time>
      </trkpt>
      <trkpt lat="42.236316" lon="1.712587">
        <ele>2011.251</ele>
        <time>2021-08-25T14:40:28Z</time>
      </trkpt>
      <trkpt lat="42.236283" lon="1.712640">
        <ele>2011.148</ele>
        <time>2021-08-25T14:40:33Z</time>
      </trkpt>
      <trkpt lat="42.236261" lon="1.712699">
        <ele>2009.361</ele>
        <time>2021-08-25T14:40:39Z</time>
      </trkpt>
      <trkpt lat="42.236209" lon="1.712731">
        <ele>2008.717</ele>
        <time>2021-08-25T14:40:43Z</time>
      </trkpt>
      <trkpt lat="42.236154" lon="1.712752">
        <ele>2007.508</ele>
        <time>2021-08-25T14:40:47Z</time>
      </trkpt>
      <trkpt lat="42.236119" lon="1.712792">
        <ele>2002.492</ele>
        <time>2021-08-25T14:41:02Z</time>
      </trkpt>
      <trkpt lat="42.236070" lon="1.712822">
        <ele>1999.516</ele>
        <time>2021-08-25T14:41:11Z</time>
      </trkpt>
      <trkpt lat="42.236024" lon="1.712852">
        <ele>1998.744</ele>
        <time>2021-08-25T14:41:16Z</time>
      </trkpt>
      <trkpt lat="42.236005" lon="1.712917">
        <ele>1994.350</ele>
        <time>2021-08-25T14:41:26Z</time>
      </trkpt>
      <trkpt lat="42.235969" lon="1.712967">
        <ele>1992.585</ele>
        <time>2021-08-25T14:41:33Z</time>
      </trkpt>
      <trkpt lat="42.235938" lon="1.713018">
        <ele>1991.269</ele>
        <time>2021-08-25T14:41:37Z</time>
      </trkpt>
      <trkpt lat="42.235893" lon="1.713033">
        <ele>1990.526</ele>
        <time>2021-08-25T14:41:42Z</time>
      </trkpt>
      <trkpt lat="42.235856" lon="1.713069">
        <ele>1989.311</ele>
        <time>2021-08-25T14:41:46Z</time>
      </trkpt>
      <trkpt lat="42.235814" lon="1.713105">
        <ele>1985.536</ele>
        <time>2021-08-25T14:41:52Z</time>
      </trkpt>
      <trkpt lat="42.235798" lon="1.713164">
        <ele>1981.017</ele>
        <time>2021-08-25T14:42:03Z</time>
      </trkpt>
      <trkpt lat="42.235767" lon="1.713223">
        <ele>1978.718</ele>
        <time>2021-08-25T14:42:08Z</time>
      </trkpt>
      <trkpt lat="42.235800" lon="1.713267">
        <ele>1972.308</ele>
        <time>2021-08-25T14:42:20Z</time>
      </trkpt>
      <trkpt lat="42.235814" lon="1.713344">
        <ele>1966.911</ele>
        <time>2021-08-25T14:42:27Z</time>
      </trkpt>
      <trkpt lat="42.235849" lon="1.713391">
        <ele>1964.915</ele>
        <time>2021-08-25T14:42:33Z</time>
      </trkpt>
      <trkpt lat="42.235823" lon="1.713449">
        <ele>1962.883</ele>
        <time>2021-08-25T14:42:42Z</time>
      </trkpt>
      <trkpt lat="42.235868" lon="1.713477">
        <ele>1959.949</ele>
        <time>2021-08-25T14:42:48Z</time>
      </trkpt>
      <trkpt lat="42.235894" lon="1.713528">
        <ele>1958.294</ele>
        <time>2021-08-25T14:42:56Z</time>
      </trkpt>
      <trkpt lat="42.235873" lon="1.713591">
        <ele>1956.728</ele>
        <time>2021-08-25T14:43:04Z</time>
      </trkpt>
      <trkpt lat="42.235840" lon="1.713642">
        <ele>1955.165</ele>
        <time>2021-08-25T14:43:09Z</time>
      </trkpt>
      <trkpt lat="42.235814" lon="1.713705">
        <ele>1953.820</ele>
        <time>2021-08-25T14:43:21Z</time>
      </trkpt>
      <trkpt lat="42.235791" lon="1.713762">
        <ele>1953.767</ele>
        <time>2021-08-25T14:43:26Z</time>
      </trkpt>
      <trkpt lat="42.235812" lon="1.713818">
        <ele>1953.581</ele>
        <time>2021-08-25T14:43:31Z</time>
      </trkpt>
      <trkpt lat="42.235856" lon="1.713841">
        <ele>1953.019</ele>
        <time>2021-08-25T14:43:42Z</time>
      </trkpt>
      <trkpt lat="42.235827" lon="1.713894">
        <ele>1947.808</ele>
        <time>2021-08-25T14:43:57Z</time>
      </trkpt>
      <trkpt lat="42.235869" lon="1.713920">
        <ele>1939.684</ele>
        <time>2021-08-25T14:44:16Z</time>
      </trkpt>
      <trkpt lat="42.235896" lon="1.713980">
        <ele>1938.698</ele>
        <time>2021-08-25T14:44:23Z</time>
      </trkpt>
      <trkpt lat="42.235934" lon="1.714023">
        <ele>1933.146</ele>
        <time>2021-08-25T14:44:33Z</time>
      </trkpt>
      <trkpt lat="42.235917" lon="1.714080">
        <ele>1931.152</ele>
        <time>2021-08-25T14:44:40Z</time>
      </trkpt>
      <trkpt lat="42.235873" lon="1.714107">
        <ele>1930.217</ele>
        <time>2021-08-25T14:44:47Z</time>
      </trkpt>
      <trkpt lat="42.235862" lon="1.714170">
        <ele>1926.571</ele>
        <time>2021-08-25T14:44:56Z</time>
      </trkpt>
      <trkpt lat="42.235910" lon="1.714190">
        <ele>1924.398</ele>
        <time>2021-08-25T14:45:02Z</time>
      </trkpt>
      <trkpt lat="42.235916" lon="1.714254">
        <ele>1921.293</ele>
        <time>2021-08-25T14:45:08Z</time>
      </trkpt>
      <trkpt lat="42.235928" lon="1.714313">
        <ele>1918.287</ele>
        <time>2021-08-25T14:45:18Z</time>
      </trkpt>
      <trkpt lat="42.235902" lon="1.714373">
        <ele>1915.842</ele>
        <time>2021-08-25T14:45:26Z</time>
      </trkpt>
      <trkpt lat="42.235856" lon="1.714409">
        <ele>1912.026</ele>
        <time>2021-08-25T14:45:33Z</time>
      </trkpt>
      <trkpt lat="42.235813" lon="1.714445">
        <ele>1910.408</ele>
        <time>2021-08-25T14:45:39Z</time>
      </trkpt>
      <trkpt lat="42.235786" lon="1.714497">
        <ele>1909.816</ele>
        <time>2021-08-25T14:45:44Z</time>
      </trkpt>
      <trkpt lat="42.235754" lon="1.714548">
        <ele>1909.440</ele>
        <time>2021-08-25T14:45:50Z</time>
      </trkpt>
      <trkpt lat="42.235803" lon="1.714566">
        <ele>1906.168</ele>
        <time>2021-08-25T14:46:02Z</time>
      </trkpt>
      <trkpt lat="42.235778" lon="1.714504">
        <ele>1903.644</ele>
        <time>2021-08-25T14:46:17Z</time>
      </trkpt>
      <trkpt lat="42.235755" lon="1.714450">
        <ele>1901.949</ele>
        <time>2021-08-25T14:46:21Z</time>
      </trkpt>
      <trkpt lat="42.235792" lon="1.714505">
        <ele>1901.613</ele>
        <time>2021-08-25T14:46:37Z</time>
      </trkpt>
      <trkpt lat="42.235838" lon="1.714503">
        <ele>1901.510</ele>
        <time>2021-08-25T14:46:41Z</time>
      </trkpt>
      <trkpt lat="42.235885" lon="1.714501">
        <ele>1900.735</ele>
        <time>2021-08-25T14:46:47Z</time>
      </trkpt>
      <trkpt lat="42.235871" lon="1.714564">
        <ele>1897.491</ele>
        <time>2021-08-25T14:47:00Z</time>
      </trkpt>
      <trkpt lat="42.235838" lon="1.714611">
        <ele>1896.681</ele>
        <time>2021-08-25T14:47:05Z</time>
      </trkpt>
      <trkpt lat="42.235798" lon="1.714640">
        <ele>1896.319</ele>
        <time>2021-08-25T14:47:10Z</time>
      </trkpt>
      <trkpt lat="42.235763" lon="1.714678">
        <ele>1895.808</ele>
        <time>2021-08-25T14:47:15Z</time>
      </trkpt>
      <trkpt lat="42.235747" lon="1.714737">
        <ele>1894.267</ele>
        <time>2021-08-25T14:47:22Z</time>
      </trkpt>
      <trkpt lat="42.235724" lon="1.714800">
        <ele>1892.721</ele>
        <time>2021-08-25T14:47:31Z</time>
      </trkpt>
      <trkpt lat="42.235694" lon="1.714855">
        <ele>1889.799</ele>
        <time>2021-08-25T14:47:44Z</time>
      </trkpt>
      <trkpt lat="42.235674" lon="1.714917">
        <ele>1888.345</ele>
        <time>2021-08-25T14:47:49Z</time>
      </trkpt>
      <trkpt lat="42.235665" lon="1.714986">
        <ele>1886.730</ele>
        <time>2021-08-25T14:47:54Z</time>
      </trkpt>
      <trkpt lat="42.235701" lon="1.715022">
        <ele>1885.394</ele>
        <time>2021-08-25T14:48:02Z</time>
      </trkpt>
      <trkpt lat="42.235659" lon="1.715000">
        <ele>1883.971</ele>
        <time>2021-08-25T14:48:12Z</time>
      </trkpt>
      <trkpt lat="42.235609" lon="1.715002">
        <ele>1882.156</ele>
        <time>2021-08-25T14:48:21Z</time>
      </trkpt>
      <trkpt lat="42.235573" lon="1.715042">
        <ele>1880.072</ele>
        <time>2021-08-25T14:48:29Z</time>
      </trkpt>
      <trkpt lat="42.235590" lon="1.715111">
        <ele>1875.713</ele>
        <time>2021-08-25T14:48:40Z</time>
      </trkpt>
      <trkpt lat="42.235545" lon="1.715129">
        <ele>1873.214</ele>
        <time>2021-08-25T14:48:55Z</time>
      </trkpt>
      <trkpt lat="42.235542" lon="1.715193">
        <ele>1871.008</ele>
        <time>2021-08-25T14:49:01Z</time>
      </trkpt>
      <trkpt lat="42.235493" lon="1.715213">
        <ele>1869.325</ele>
        <time>2021-08-25T14:49:09Z</time>
      </trkpt>
      <trkpt lat="42.235468" lon="1.715271">
        <ele>1867.039</ele>
        <time>2021-08-25T14:49:21Z</time>
      </trkpt>
      <trkpt lat="42.235420" lon="1.715287">
        <ele>1863.637</ele>
        <time>2021-08-25T14:49:39Z</time>
      </trkpt>
      <trkpt lat="42.235375" lon="1.715302">
        <ele>1863.063</ele>
        <time>2021-08-25T14:49:45Z</time>
      </trkpt>
      <trkpt lat="42.235328" lon="1.715302">
        <ele>1861.678</ele>
        <time>2021-08-25T14:49:54Z</time>
      </trkpt>
      <trkpt lat="42.235275" lon="1.715320">
        <ele>1860.312</ele>
        <time>2021-08-25T14:50:05Z</time>
      </trkpt>
      <trkpt lat="42.235298" lon="1.715373">
        <ele>1856.259</ele>
        <time>2021-08-25T14:50:16Z</time>
      </trkpt>
      <trkpt lat="42.235322" lon="1.715431">
        <ele>1854.684</ele>
        <time>2021-08-25T14:50:24Z</time>
      </trkpt>
      <trkpt lat="42.235367" lon="1.715460">
        <ele>1851.223</ele>
        <time>2021-08-25T14:50:28Z</time>
      </trkpt>
      <trkpt lat="42.235390" lon="1.715520">
        <ele>1848.883</ele>
        <time>2021-08-25T14:50:32Z</time>
      </trkpt>
      <trkpt lat="42.235340" lon="1.715516">
        <ele>1845.411</ele>
        <time>2021-08-25T14:50:35Z</time>
      </trkpt>
      <trkpt lat="42.235292" lon="1.715511">
        <ele>1842.008</ele>
        <time>2021-08-25T14:50:38Z</time>
      </trkpt>
      <trkpt lat="42.235304" lon="1.715591">
        <ele>1841.590</ele>
        <time>2021-08-25T14:50:41Z</time>
      </trkpt>
      <trkpt lat="42.235320" lon="1.715659">
        <ele>1841.534</ele>
        <time>2021-08-25T14:50:44Z</time>
      </trkpt>
      <trkpt lat="42.235296" lon="1.715713">
        <ele>1846.872</ele>
        <time>2021-08-25T14:50:47Z</time>
      </trkpt>
      <trkpt lat="42.235296" lon="1.715785">
        <ele>1847.278</ele>
        <time>2021-08-25T14:50:50Z</time>
      </trkpt>
      <trkpt lat="42.235282" lon="1.715844">
        <ele>1847.223</ele>
        <time>2021-08-25T14:50:54Z</time>
      </trkpt>
      <trkpt lat="42.235298" lon="1.715902">
        <ele>1844.457</ele>
        <time>2021-08-25T14:51:02Z</time>
      </trkpt>
      <trkpt lat="42.235321" lon="1.715960">
        <ele>1838.464</ele>
        <time>2021-08-25T14:51:10Z</time>
      </trkpt>
      <trkpt lat="42.235289" lon="1.716010">
        <ele>1836.079</ele>
        <time>2021-08-25T14:51:19Z</time>
      </trkpt>
      <trkpt lat="42.235251" lon="1.716045">
        <ele>1833.361</ele>
        <time>2021-08-25T14:51:24Z</time>
      </trkpt>
      <trkpt lat="42.235280" lon="1.716106">
        <ele>1827.621</ele>
        <time>2021-08-25T14:51:34Z</time>
      </trkpt>
      <trkpt lat="42.235249" lon="1.716155">
        <ele>1823.513</ele>
        <time>2021-08-25T14:51:41Z</time>
      </trkpt>
      <trkpt lat="42.235265" lon="1.716213">
        <ele>1818.308</ele>
        <time>2021-08-25T14:51:50Z</time>
      </trkpt>
      <trkpt lat="42.235265" lon="1.716274">
        <ele>1815.584</ele>
        <time>2021-08-25T14:51:56Z</time>
      </trkpt>
      <trkpt lat="42.235300" lon="1.716315">
        <ele>1814.318</ele>
        <time>2021-08-25T14:52:01Z</time>
      </trkpt>
      <trkpt lat="42.235329" lon="1.716365">
        <ele>1809.836</ele>
        <time>2021-08-25T14:52:08Z</time>
      </trkpt>
      <trkpt lat="42.235363" lon="1.716411">
        <ele>1805.282</ele>
        <time>2021-08-25T14:52:16Z</time>
      </trkpt>
      <trkpt lat="42.235399" lon="1.716447">
        <ele>1803.777</ele>
        <time>2021-08-25T14:52:22Z</time>
      </trkpt>
      <trkpt lat="42.235445" lon="1.716490">
        <ele>1801.641</ele>
        <time>2021-08-25T14:52:32Z</time>
      </trkpt>
      <trkpt lat="42.235458" lon="1.716549">
        <ele>1797.868</ele>
        <time>2021-08-25T14:52:46Z</time>
      </trkpt>
      <trkpt lat="42.235465" lon="1.716610">
        <ele>1794.383</ele>
        <time>2021-08-25T14:52:54Z</time>
      </trkpt>
      <trkpt lat="42.235490" lon="1.716671">
        <ele>1793.498</ele>
        <time>2021-08-25T14:53:08Z</time>
      </trkpt>
      <trkpt lat="42.235515" lon="1.716727">
        <ele>1791.815</ele>
        <time>2021-08-25T14:53:19Z</time>
      </trkpt>
      <trkpt lat="42.235512" lon="1.716794">
        <ele>1789.726</ele>
        <time>2021-08-25T14:53:27Z</time>
      </trkpt>
      <trkpt lat="42.235548" lon="1.716836">
        <ele>1780.808</ele>
        <time>2021-08-25T14:54:53Z</time>
      </trkpt>
      <trkpt lat="42.235565" lon="1.716896">
        <ele>1780.857</ele>
        <time>2021-08-25T14:55:08Z</time>
      </trkpt>
      <trkpt lat="42.235595" lon="1.716953">
        <ele>1780.841</ele>
        <time>2021-08-25T14:55:16Z</time>
      </trkpt>
      <trkpt lat="42.235638" lon="1.716975">
        <ele>1780.889</ele>
        <time>2021-08-25T14:55:21Z</time>
      </trkpt>
      <trkpt lat="42.235692" lon="1.717024">
        <ele>1776.955</ele>
        <time>2021-08-25T14:55:33Z</time>
      </trkpt>
      <trkpt lat="42.235683" lon="1.716958">
        <ele>1776.330</ele>
        <time>2021-08-25T14:55:39Z</time>
      </trkpt>
      <trkpt lat="42.235735" lon="1.716979">
        <ele>1776.134</ele>
        <time>2021-08-25T14:55:41Z</time>
      </trkpt>
      <trkpt lat="42.235780" lon="1.717009">
        <ele>1776.111</ele>
        <time>2021-08-25T14:55:45Z</time>
      </trkpt>
      <trkpt lat="42.235799" lon="1.717080">
        <ele>1777.346</ele>
        <time>2021-08-25T14:55:50Z</time>
      </trkpt>
      <trkpt lat="42.235807" lon="1.717162">
        <ele>1781.629</ele>
        <time>2021-08-25T14:55:57Z</time>
      </trkpt>
      <trkpt lat="42.235806" lon="1.717227">
        <ele>1785.600</ele>
        <time>2021-08-25T14:56:15Z</time>
      </trkpt>
      <trkpt lat="42.235792" lon="1.717288">
        <ele>1785.020</ele>
        <time>2021-08-25T14:56:23Z</time>
      </trkpt>
      <trkpt lat="42.235756" lon="1.717331">
        <ele>1783.908</ele>
        <time>2021-08-25T14:56:30Z</time>
      </trkpt>
      <trkpt lat="42.235768" lon="1.717264">
        <ele>1780.270</ele>
        <time>2021-08-25T14:56:41Z</time>
      </trkpt>
      <trkpt lat="42.235816" lon="1.717263">
        <ele>1772.374</ele>
        <time>2021-08-25T14:56:50Z</time>
      </trkpt>
      <trkpt lat="42.235864" lon="1.717248">
        <ele>1770.552</ele>
        <time>2021-08-25T14:56:57Z</time>
      </trkpt>
      <trkpt lat="42.235910" lon="1.717257">
        <ele>1767.738</ele>
        <time>2021-08-25T14:57:04Z</time>
      </trkpt>
      <trkpt lat="42.235925" lon="1.717317">
        <ele>1764.873</ele>
        <time>2021-08-25T14:57:10Z</time>
      </trkpt>
      <trkpt lat="42.235891" lon="1.717363">
        <ele>1762.347</ele>
        <time>2021-08-25T14:57:17Z</time>
      </trkpt>
      <trkpt lat="42.235859" lon="1.717407">
        <ele>1761.934</ele>
        <time>2021-08-25T14:57:32Z</time>
      </trkpt>
      <trkpt lat="42.235900" lon="1.717455">
        <ele>1761.689</ele>
        <time>2021-08-25T14:57:39Z</time>
      </trkpt>
      <trkpt lat="42.235920" lon="1.717520">
        <ele>1761.519</ele>
        <time>2021-08-25T14:57:46Z</time>
      </trkpt>
      <trkpt lat="42.235959" lon="1.717551">
        <ele>1758.809</ele>
        <time>2021-08-25T14:57:53Z</time>
      </trkpt>
      <trkpt lat="42.236006" lon="1.717555">
        <ele>1757.019</ele>
        <time>2021-08-25T14:58:02Z</time>
      </trkpt>
      <trkpt lat="42.236046" lon="1.717584">
        <ele>1756.708</ele>
        <time>2021-08-25T14:58:12Z</time>
      </trkpt>
      <trkpt lat="42.236021" lon="1.717639">
        <ele>1756.659</ele>
        <time>2021-08-25T14:58:21Z</time>
      </trkpt>
      <trkpt lat="42.235984" lon="1.717683">
        <ele>1756.473</ele>
        <time>2021-08-25T14:58:27Z</time>
      </trkpt>
      <trkpt lat="42.236016" lon="1.717726">
        <ele>1756.481</ele>
        <time>2021-08-25T14:58:31Z</time>
      </trkpt>
      <trkpt lat="42.236030" lon="1.717794">
        <ele>1755.137</ele>
        <time>2021-08-25T14:58:36Z</time>
      </trkpt>
      <trkpt lat="42.236039" lon="1.717863">
        <ele>1753.372</ele>
        <time>2021-08-25T14:58:40Z</time>
      </trkpt>
      <trkpt lat="42.236050" lon="1.717922">
        <ele>1751.766</ele>
        <time>2021-08-25T14:58:47Z</time>
      </trkpt>
      <trkpt lat="42.236084" lon="1.717968">
        <ele>1750.213</ele>
        <time>2021-08-25T14:58:53Z</time>
      </trkpt>
      <trkpt lat="42.236128" lon="1.718000">
        <ele>1750.348</ele>
        <time>2021-08-25T14:58:59Z</time>
      </trkpt>
      <trkpt lat="42.236163" lon="1.718045">
        <ele>1750.382</ele>
        <time>2021-08-25T14:59:04Z</time>
      </trkpt>
      <trkpt lat="42.236207" lon="1.718063">
        <ele>1750.843</ele>
        <time>2021-08-25T14:59:11Z</time>
      </trkpt>
      <trkpt lat="42.236235" lon="1.718117">
        <ele>1752.617</ele>
        <time>2021-08-25T14:59:20Z</time>
      </trkpt>
      <trkpt lat="42.236266" lon="1.718164">
        <ele>1754.408</ele>
        <time>2021-08-25T14:59:24Z</time>
      </trkpt>
      <trkpt lat="42.236309" lon="1.718145">
        <ele>1755.436</ele>
        <time>2021-08-25T14:59:32Z</time>
      </trkpt>
      <trkpt lat="42.236359" lon="1.718136">
        <ele>1755.690</ele>
        <time>2021-08-25T14:59:39Z</time>
      </trkpt>
      <trkpt lat="42.236402" lon="1.718171">
        <ele>1755.338</ele>
        <time>2021-08-25T14:59:44Z</time>
      </trkpt>
      <trkpt lat="42.236440" lon="1.718212">
        <ele>1754.914</ele>
        <time>2021-08-25T14:59:50Z</time>
      </trkpt>
      <trkpt lat="42.236463" lon="1.718268">
        <ele>1754.889</ele>
        <time>2021-08-25T14:59:57Z</time>
      </trkpt>
      <trkpt lat="42.236464" lon="1.718337">
        <ele>1753.853</ele>
        <time>2021-08-25T15:00:05Z</time>
      </trkpt>
      <trkpt lat="42.236448" lon="1.718394">
        <ele>1753.760</ele>
        <time>2021-08-25T15:00:13Z</time>
      </trkpt>
      <trkpt lat="42.236433" lon="1.718452">
        <ele>1753.715</ele>
        <time>2021-08-25T15:00:19Z</time>
      </trkpt>
      <trkpt lat="42.236486" lon="1.718488">
        <ele>1753.042</ele>
        <time>2021-08-25T15:00:32Z</time>
      </trkpt>
      <trkpt lat="42.236542" lon="1.718470">
        <ele>1751.722</ele>
        <time>2021-08-25T15:00:43Z</time>
      </trkpt>
      <trkpt lat="42.236513" lon="1.718414">
        <ele>1751.714</ele>
        <time>2021-08-25T15:00:55Z</time>
      </trkpt>
      <trkpt lat="42.236469" lon="1.718429">
        <ele>1751.908</ele>
        <time>2021-08-25T15:01:01Z</time>
      </trkpt>
      <trkpt lat="42.236490" lon="1.718363">
        <ele>1753.552</ele>
        <time>2021-08-25T15:01:09Z</time>
      </trkpt>
      <trkpt lat="42.236514" lon="1.718300">
        <ele>1753.896</ele>
        <time>2021-08-25T15:01:16Z</time>
      </trkpt>
      <trkpt lat="42.236523" lon="1.718235">
        <ele>1755.354</ele>
        <time>2021-08-25T15:01:31Z</time>
      </trkpt>
      <trkpt lat="42.236572" lon="1.718232">
        <ele>1756.130</ele>
        <time>2021-08-25T15:01:38Z</time>
      </trkpt>
      <trkpt lat="42.236600" lon="1.718183">
        <ele>1758.255</ele>
        <time>2021-08-25T15:01:46Z</time>
      </trkpt>
      <trkpt lat="42.236617" lon="1.718246">
        <ele>1760.289</ele>
        <time>2021-08-25T15:01:53Z</time>
      </trkpt>
      <trkpt lat="42.236647" lon="1.718313">
        <ele>1760.996</ele>
        <time>2021-08-25T15:01:58Z</time>
      </trkpt>
      <trkpt lat="42.236688" lon="1.718342">
        <ele>1762.061</ele>
        <time>2021-08-25T15:02:02Z</time>
      </trkpt>
      <trkpt lat="42.236729" lon="1.718398">
        <ele>1762.551</ele>
        <time>2021-08-25T15:02:06Z</time>
      </trkpt>
      <trkpt lat="42.236749" lon="1.718472">
        <ele>1762.001</ele>
        <time>2021-08-25T15:02:09Z</time>
      </trkpt>
      <trkpt lat="42.236771" lon="1.718525">
        <ele>1761.611</ele>
        <time>2021-08-25T15:02:13Z</time>
      </trkpt>
      <trkpt lat="42.236808" lon="1.718582">
        <ele>1761.508</ele>
        <time>2021-08-25T15:02:16Z</time>
      </trkpt>
      <trkpt lat="42.236853" lon="1.718622">
        <ele>1759.723</ele>
        <time>2021-08-25T15:02:20Z</time>
      </trkpt>
      <trkpt lat="42.236888" lon="1.718661">
        <ele>1758.737</ele>
        <time>2021-08-25T15:02:24Z</time>
      </trkpt>
      <trkpt lat="42.236923" lon="1.718721">
        <ele>1758.725</ele>
        <time>2021-08-25T15:02:29Z</time>
      </trkpt>
      <trkpt lat="42.236960" lon="1.718767">
        <ele>1758.221</ele>
        <time>2021-08-25T15:02:34Z</time>
      </trkpt>
      <trkpt lat="42.237006" lon="1.718814">
        <ele>1757.916</ele>
        <time>2021-08-25T15:02:39Z</time>
      </trkpt>
      <trkpt lat="42.237053" lon="1.718822">
        <ele>1756.350</ele>
        <time>2021-08-25T15:04:31Z</time>
      </trkpt>
      <trkpt lat="42.237092" lon="1.718857">
        <ele>1756.337</ele>
        <time>2021-08-25T15:04:35Z</time>
      </trkpt>
      <trkpt lat="42.237148" lon="1.718858">
        <ele>1756.382</ele>
        <time>2021-08-25T15:04:38Z</time>
      </trkpt>
      <trkpt lat="42.237195" lon="1.718872">
        <ele>1756.329</ele>
        <time>2021-08-25T15:04:42Z</time>
      </trkpt>
      <trkpt lat="42.237243" lon="1.718893">
        <ele>1756.300</ele>
        <time>2021-08-25T15:04:46Z</time>
      </trkpt>
      <trkpt lat="42.237275" lon="1.718947">
        <ele>1755.120</ele>
        <time>2021-08-25T15:04:50Z</time>
      </trkpt>
      <trkpt lat="42.237328" lon="1.718977">
        <ele>1755.108</ele>
        <time>2021-08-25T15:04:54Z</time>
      </trkpt>
      <trkpt lat="42.237385" lon="1.718999">
        <ele>1754.590</ele>
        <time>2021-08-25T15:05:00Z</time>
      </trkpt>
      <trkpt lat="42.237432" lon="1.719046">
        <ele>1753.374</ele>
        <time>2021-08-25T15:05:03Z</time>
      </trkpt>
      <trkpt lat="42.237475" lon="1.719074">
        <ele>1753.212</ele>
        <time>2021-08-25T15:05:07Z</time>
      </trkpt>
      <trkpt lat="42.237523" lon="1.719105">
        <ele>1753.028</ele>
        <time>2021-08-25T15:05:10Z</time>
      </trkpt>
      <trkpt lat="42.237587" lon="1.719130">
        <ele>1752.943</ele>
        <time>2021-08-25T15:05:12Z</time>
      </trkpt>
      <trkpt lat="42.237635" lon="1.719107">
        <ele>1753.057</ele>
        <time>2021-08-25T15:05:15Z</time>
      </trkpt>
      <trkpt lat="42.237700" lon="1.719129">
        <ele>1752.224</ele>
        <time>2021-08-25T15:05:18Z</time>
      </trkpt>
      <trkpt lat="42.237734" lon="1.719174">
        <ele>1750.859</ele>
        <time>2021-08-25T15:05:22Z</time>
      </trkpt>
      <trkpt lat="42.237766" lon="1.719224">
        <ele>1750.625</ele>
        <time>2021-08-25T15:05:29Z</time>
      </trkpt>
      <trkpt lat="42.237817" lon="1.719224">
        <ele>1749.126</ele>
        <time>2021-08-25T15:05:39Z</time>
      </trkpt>
      <trkpt lat="42.237865" lon="1.719207">
        <ele>1748.308</ele>
        <time>2021-08-25T15:06:00Z</time>
      </trkpt>
      <trkpt lat="42.237901" lon="1.719158">
        <ele>1748.308</ele>
        <time>2021-08-25T15:06:04Z</time>
      </trkpt>
      <trkpt lat="42.237944" lon="1.719120">
        <ele>1748.030</ele>
        <time>2021-08-25T15:06:08Z</time>
      </trkpt>
      <trkpt lat="42.238012" lon="1.719095">
        <ele>1747.914</ele>
        <time>2021-08-25T15:06:11Z</time>
      </trkpt>
      <trkpt lat="42.238059" lon="1.719071">
        <ele>1747.992</ele>
        <time>2021-08-25T15:06:13Z</time>
      </trkpt>
      <trkpt lat="42.238089" lon="1.719017">
        <ele>1744.258</ele>
        <time>2021-08-25T15:06:18Z</time>
      </trkpt>
      <trkpt lat="42.238116" lon="1.718966">
        <ele>1744.173</ele>
        <time>2021-08-25T15:06:22Z</time>
      </trkpt>
      <trkpt lat="42.238117" lon="1.718892">
        <ele>1743.447</ele>
        <time>2021-08-25T15:06:28Z</time>
      </trkpt>
      <trkpt lat="42.238113" lon="1.718831">
        <ele>1743.374</ele>
        <time>2021-08-25T15:06:31Z</time>
      </trkpt>
      <trkpt lat="42.238150" lon="1.718780">
        <ele>1743.289</ele>
        <time>2021-08-25T15:06:35Z</time>
      </trkpt>
      <trkpt lat="42.238204" lon="1.718730">
        <ele>1742.617</ele>
        <time>2021-08-25T15:06:38Z</time>
      </trkpt>
      <trkpt lat="42.238247" lon="1.718706">
        <ele>1742.187</ele>
        <time>2021-08-25T15:06:40Z</time>
      </trkpt>
      <trkpt lat="42.238301" lon="1.718684">
        <ele>1741.215</ele>
        <time>2021-08-25T15:06:45Z</time>
      </trkpt>
      <trkpt lat="42.238344" lon="1.718650">
        <ele>1740.708</ele>
        <time>2021-08-25T15:06:49Z</time>
      </trkpt>
      <trkpt lat="42.238388" lon="1.718614">
        <ele>1740.399</ele>
        <time>2021-08-25T15:06:52Z</time>
      </trkpt>
      <trkpt lat="42.238444" lon="1.718599">
        <ele>1740.063</ele>
        <time>2021-08-25T15:06:56Z</time>
      </trkpt>
      <trkpt lat="42.238501" lon="1.718591">
        <ele>1739.851</ele>
        <time>2021-08-25T15:06:59Z</time>
      </trkpt>
      <trkpt lat="42.238563" lon="1.718592">
        <ele>1738.227</ele>
        <time>2021-08-25T15:07:02Z</time>
      </trkpt>
      <trkpt lat="42.238615" lon="1.718567">
        <ele>1737.942</ele>
        <time>2021-08-25T15:07:05Z</time>
      </trkpt>
      <trkpt lat="42.238668" lon="1.718565">
        <ele>1736.616</ele>
        <time>2021-08-25T15:07:08Z</time>
      </trkpt>
      <trkpt lat="42.238718" lon="1.718534">
        <ele>1733.833</ele>
        <time>2021-08-25T15:07:12Z</time>
      </trkpt>
      <trkpt lat="42.238764" lon="1.718481">
        <ele>1733.078</ele>
        <time>2021-08-25T15:07:16Z</time>
      </trkpt>
      <trkpt lat="42.238816" lon="1.718454">
        <ele>1729.087</ele>
        <time>2021-08-25T15:07:21Z</time>
      </trkpt>
      <trkpt lat="42.238858" lon="1.718423">
        <ele>1725.742</ele>
        <time>2021-08-25T15:07:24Z</time>
      </trkpt>
      <trkpt lat="42.238905" lon="1.718401">
        <ele>1724.826</ele>
        <time>2021-08-25T15:07:27Z</time>
      </trkpt>
      <trkpt lat="42.238960" lon="1.718372">
        <ele>1724.408</ele>
        <time>2021-08-25T15:07:30Z</time>
      </trkpt>
      <trkpt lat="42.239015" lon="1.718357">
        <ele>1724.266</ele>
        <time>2021-08-25T15:07:33Z</time>
      </trkpt>
      <trkpt lat="42.239070" lon="1.718345">
        <ele>1724.710</ele>
        <time>2021-08-25T15:07:37Z</time>
      </trkpt>
      <trkpt lat="42.239129" lon="1.718337">
        <ele>1727.848</ele>
        <time>2021-08-25T15:07:41Z</time>
      </trkpt>
      <trkpt lat="42.239178" lon="1.718320">
        <ele>1730.524</ele>
        <time>2021-08-25T15:07:44Z</time>
      </trkpt>
      <trkpt lat="42.239223" lon="1.718298">
        <ele>1731.019</ele>
        <time>2021-08-25T15:07:47Z</time>
      </trkpt>
      <trkpt lat="42.239269" lon="1.718303">
        <ele>1732.223</ele>
        <time>2021-08-25T15:07:49Z</time>
      </trkpt>
      <trkpt lat="42.239317" lon="1.718287">
        <ele>1732.690</ele>
        <time>2021-08-25T15:07:51Z</time>
      </trkpt>
      <trkpt lat="42.239363" lon="1.718253">
        <ele>1732.745</ele>
        <time>2021-08-25T15:07:54Z</time>
      </trkpt>
      <trkpt lat="42.239416" lon="1.718229">
        <ele>1733.186</ele>
        <time>2021-08-25T15:07:57Z</time>
      </trkpt>
      <trkpt lat="42.239740" lon="1.718124">
        <ele>1731.060</ele>
        <time>2021-08-25T15:08:21Z</time>
      </trkpt>
      <trkpt lat="42.239792" lon="1.718159">
        <ele>1733.626</ele>
        <time>2021-08-25T15:08:24Z</time>
      </trkpt>
      <trkpt lat="42.239850" lon="1.718148">
        <ele>1735.308</ele>
        <time>2021-08-25T15:08:26Z</time>
      </trkpt>
      <trkpt lat="42.239907" lon="1.718188">
        <ele>1735.786</ele>
        <time>2021-08-25T15:08:28Z</time>
      </trkpt>
      <trkpt lat="42.239955" lon="1.718212">
        <ele>1736.570</ele>
        <time>2021-08-25T15:08:30Z</time>
      </trkpt>
      <trkpt lat="42.240002" lon="1.718199">
        <ele>1737.368</ele>
        <time>2021-08-25T15:08:32Z</time>
      </trkpt>
      <trkpt lat="42.240048" lon="1.718181">
        <ele>1738.014</ele>
        <time>2021-08-25T15:08:34Z</time>
      </trkpt>
      <trkpt lat="42.240097" lon="1.718193">
        <ele>1738.289</ele>
        <time>2021-08-25T15:08:37Z</time>
      </trkpt>
      <trkpt lat="42.240146" lon="1.718191">
        <ele>1738.283</ele>
        <time>2021-08-25T15:08:39Z</time>
      </trkpt>
      <trkpt lat="42.240193" lon="1.718192">
        <ele>1738.170</ele>
        <time>2021-08-25T15:08:41Z</time>
      </trkpt>
      <trkpt lat="42.240249" lon="1.718176">
        <ele>1738.015</ele>
        <time>2021-08-25T15:08:44Z</time>
      </trkpt>
      <trkpt lat="42.240293" lon="1.718144">
        <ele>1737.517</ele>
        <time>2021-08-25T15:08:50Z</time>
      </trkpt>
      <trkpt lat="42.240335" lon="1.718121">
        <ele>1736.987</ele>
        <time>2021-08-25T15:08:56Z</time>
      </trkpt>
      <trkpt lat="42.240385" lon="1.718117">
        <ele>1736.615</ele>
        <time>2021-08-25T15:08:59Z</time>
      </trkpt>
      <trkpt lat="42.240435" lon="1.718124">
        <ele>1735.208</ele>
        <time>2021-08-25T15:09:02Z</time>
      </trkpt>
      <trkpt lat="42.240481" lon="1.718131">
        <ele>1734.239</ele>
        <time>2021-08-25T15:09:04Z</time>
      </trkpt>
      <trkpt lat="42.240532" lon="1.718159">
        <ele>1732.213</ele>
        <time>2021-08-25T15:09:07Z</time>
      </trkpt>
      <trkpt lat="42.240579" lon="1.718205">
        <ele>1730.911</ele>
        <time>2021-08-25T15:09:10Z</time>
      </trkpt>
      <trkpt lat="42.240634" lon="1.718230">
        <ele>1730.957</ele>
        <time>2021-08-25T15:09:15Z</time>
      </trkpt>
      <trkpt lat="42.240701" lon="1.718242">
        <ele>1730.112</ele>
        <time>2021-08-25T15:09:18Z</time>
      </trkpt>
      <trkpt lat="42.240760" lon="1.718238">
        <ele>1730.246</ele>
        <time>2021-08-25T15:09:20Z</time>
      </trkpt>
      <trkpt lat="42.240805" lon="1.718237">
        <ele>1730.583</ele>
        <time>2021-08-25T15:09:22Z</time>
      </trkpt>
      <trkpt lat="42.240849" lon="1.718249">
        <ele>1730.098</ele>
        <time>2021-08-25T15:09:24Z</time>
      </trkpt>
      <trkpt lat="42.240898" lon="1.718260">
        <ele>1729.129</ele>
        <time>2021-08-25T15:09:26Z</time>
      </trkpt>
      <trkpt lat="42.240944" lon="1.718252">
        <ele>1729.000</ele>
        <time>2021-08-25T15:09:28Z</time>
      </trkpt>
      <trkpt lat="42.240996" lon="1.718246">
        <ele>1729.020</ele>
        <time>2021-08-25T15:09:31Z</time>
      </trkpt>
      <trkpt lat="42.241063" lon="1.718261">
        <ele>1729.008</ele>
        <time>2021-08-25T15:09:34Z</time>
      </trkpt>
      <trkpt lat="42.241132" lon="1.718259">
        <ele>1728.860</ele>
        <time>2021-08-25T15:09:36Z</time>
      </trkpt>
      <trkpt lat="42.241184" lon="1.718221">
        <ele>1727.324</ele>
        <time>2021-08-25T15:09:38Z</time>
      </trkpt>
      <trkpt lat="42.241234" lon="1.718176">
        <ele>1726.952</ele>
        <time>2021-08-25T15:09:40Z</time>
      </trkpt>
      <trkpt lat="42.241287" lon="1.718148">
        <ele>1726.188</ele>
        <time>2021-08-25T15:09:42Z</time>
      </trkpt>
      <trkpt lat="42.241335" lon="1.718144">
        <ele>1726.163</ele>
        <time>2021-08-25T15:09:44Z</time>
      </trkpt>
      <trkpt lat="42.241391" lon="1.718130">
        <ele>1726.087</ele>
        <time>2021-08-25T15:09:46Z</time>
      </trkpt>
      <trkpt lat="42.241447" lon="1.718116">
        <ele>1726.084</ele>
        <time>2021-08-25T15:09:48Z</time>
      </trkpt>
      <trkpt lat="42.241495" lon="1.718115">
        <ele>1725.859</ele>
        <time>2021-08-25T15:09:51Z</time>
      </trkpt>
      <trkpt lat="42.241545" lon="1.718096">
        <ele>1725.341</ele>
        <time>2021-08-25T15:09:55Z</time>
      </trkpt>
      <trkpt lat="42.241592" lon="1.718057">
        <ele>1724.881</ele>
        <time>2021-08-25T15:09:57Z</time>
      </trkpt>
      <trkpt lat="42.241644" lon="1.718016">
        <ele>1723.609</ele>
        <time>2021-08-25T15:09:59Z</time>
      </trkpt>
      <trkpt lat="42.241707" lon="1.717964">
        <ele>1722.908</ele>
        <time>2021-08-25T15:10:01Z</time>
      </trkpt>
      <trkpt lat="42.241760" lon="1.717919">
        <ele>1722.462</ele>
        <time>2021-08-25T15:10:03Z</time>
      </trkpt>
      <trkpt lat="42.241797" lon="1.717875">
        <ele>1721.976</ele>
        <time>2021-08-25T15:10:06Z</time>
      </trkpt>
      <trkpt lat="42.241825" lon="1.717818">
        <ele>1718.564</ele>
        <time>2021-08-25T15:10:10Z</time>
      </trkpt>
      <trkpt lat="42.241851" lon="1.717767">
        <ele>1718.220</ele>
        <time>2021-08-25T15:10:12Z</time>
      </trkpt>
      <trkpt lat="42.241881" lon="1.717709">
        <ele>1717.885</ele>
        <time>2021-08-25T15:10:14Z</time>
      </trkpt>
      <trkpt lat="42.241930" lon="1.717690">
        <ele>1717.349</ele>
        <time>2021-08-25T15:10:17Z</time>
      </trkpt>
      <trkpt lat="42.241991" lon="1.717677">
        <ele>1716.226</ele>
        <time>2021-08-25T15:10:20Z</time>
      </trkpt>
      <trkpt lat="42.242036" lon="1.717662">
        <ele>1715.471</ele>
        <time>2021-08-25T15:10:22Z</time>
      </trkpt>
      <trkpt lat="42.242081" lon="1.717650">
        <ele>1714.559</ele>
        <time>2021-08-25T15:10:24Z</time>
      </trkpt>
      <trkpt lat="42.242132" lon="1.717604">
        <ele>1713.303</ele>
        <time>2021-08-25T15:10:27Z</time>
      </trkpt>
      <trkpt lat="42.242195" lon="1.717597">
        <ele>1712.423</ele>
        <time>2021-08-25T15:10:30Z</time>
      </trkpt>
      <trkpt lat="42.242256" lon="1.717583">
        <ele>1712.008</ele>
        <time>2021-08-25T15:10:33Z</time>
      </trkpt>
      <trkpt lat="42.242302" lon="1.717575">
        <ele>1712.033</ele>
        <time>2021-08-25T15:10:35Z</time>
      </trkpt>
      <trkpt lat="42.242349" lon="1.717550">
        <ele>1711.237</ele>
        <time>2021-08-25T15:10:37Z</time>
      </trkpt>
      <trkpt lat="42.242393" lon="1.717524">
        <ele>1711.135</ele>
        <time>2021-08-25T15:10:39Z</time>
      </trkpt>
      <trkpt lat="42.242448" lon="1.717497">
        <ele>1711.161</ele>
        <time>2021-08-25T15:10:42Z</time>
      </trkpt>
      <trkpt lat="42.242490" lon="1.717468">
        <ele>1709.486</ele>
        <time>2021-08-25T15:10:44Z</time>
      </trkpt>
      <trkpt lat="42.242550" lon="1.717439">
        <ele>1707.530</ele>
        <time>2021-08-25T15:10:47Z</time>
      </trkpt>
      <trkpt lat="42.242607" lon="1.717428">
        <ele>1707.177</ele>
        <time>2021-08-25T15:10:50Z</time>
      </trkpt>
      <trkpt lat="42.242659" lon="1.717430">
        <ele>1706.932</ele>
        <time>2021-08-25T15:10:53Z</time>
      </trkpt>
      <trkpt lat="42.242711" lon="1.717443">
        <ele>1706.532</ele>
        <time>2021-08-25T15:10:55Z</time>
      </trkpt>
      <trkpt lat="42.242762" lon="1.717440">
        <ele>1706.392</ele>
        <time>2021-08-25T15:10:58Z</time>
      </trkpt>
      <trkpt lat="42.242816" lon="1.717408">
        <ele>1706.211</ele>
        <time>2021-08-25T15:11:01Z</time>
      </trkpt>
      <trkpt lat="42.242882" lon="1.717397">
        <ele>1705.708</ele>
        <time>2021-08-25T15:11:04Z</time>
      </trkpt>
      <trkpt lat="42.242939" lon="1.717380">
        <ele>1704.981</ele>
        <time>2021-08-25T15:11:07Z</time>
      </trkpt>
      <trkpt lat="42.242992" lon="1.717326">
        <ele>1704.125</ele>
        <time>2021-08-25T15:11:10Z</time>
      </trkpt>
      <trkpt lat="42.243041" lon="1.717290">
        <ele>1703.983</ele>
        <time>2021-08-25T15:11:13Z</time>
      </trkpt>
      <trkpt lat="42.243089" lon="1.717304">
        <ele>1703.339</ele>
        <time>2021-08-25T15:11:19Z</time>
      </trkpt>
      <trkpt lat="42.243139" lon="1.717336">
        <ele>1703.334</ele>
        <time>2021-08-25T15:11:23Z</time>
      </trkpt>
      <trkpt lat="42.243190" lon="1.717379">
        <ele>1703.598</ele>
        <time>2021-08-25T15:11:25Z</time>
      </trkpt>
      <trkpt lat="42.243234" lon="1.717395">
        <ele>1703.355</ele>
        <time>2021-08-25T15:11:27Z</time>
      </trkpt>
      <trkpt lat="42.243283" lon="1.717390">
        <ele>1702.840</ele>
        <time>2021-08-25T15:11:31Z</time>
      </trkpt>
      <trkpt lat="42.243334" lon="1.717415">
        <ele>1701.834</ele>
        <time>2021-08-25T15:11:35Z</time>
      </trkpt>
      <trkpt lat="42.243380" lon="1.717421">
        <ele>1700.855</ele>
        <time>2021-08-25T15:11:38Z</time>
      </trkpt>
      <trkpt lat="42.243424" lon="1.717441">
        <ele>1700.210</ele>
        <time>2021-08-25T15:11:40Z</time>
      </trkpt>
      <trkpt lat="42.243475" lon="1.717435">
        <ele>1699.308</ele>
        <time>2021-08-25T15:11:44Z</time>
      </trkpt>
      <trkpt lat="42.243532" lon="1.717435">
        <ele>1699.361</ele>
        <time>2021-08-25T15:11:50Z</time>
      </trkpt>
      <trkpt lat="42.243578" lon="1.717413">
        <ele>1699.095</ele>
        <time>2021-08-25T15:11:52Z</time>
      </trkpt>
      <trkpt lat="42.243633" lon="1.717386">
        <ele>1699.343</ele>
        <time>2021-08-25T15:11:54Z</time>
      </trkpt>
      <trkpt lat="42.243685" lon="1.717376">
        <ele>1699.149</ele>
        <time>2021-08-25T15:11:56Z</time>
      </trkpt>
      <trkpt lat="42.243736" lon="1.717373">
        <ele>1698.644</ele>
        <time>2021-08-25T15:11:58Z</time>
      </trkpt>
      <trkpt lat="42.243800" lon="1.717375">
        <ele>1693.468</ele>
        <time>2021-08-25T15:12:01Z</time>
      </trkpt>
      <trkpt lat="42.243863" lon="1.717344">
        <ele>1691.525</ele>
        <time>2021-08-25T15:12:05Z</time>
      </trkpt>
      <trkpt lat="42.243912" lon="1.717314">
        <ele>1690.310</ele>
        <time>2021-08-25T15:12:07Z</time>
      </trkpt>
      <trkpt lat="42.243961" lon="1.717295">
        <ele>1688.632</ele>
        <time>2021-08-25T15:12:12Z</time>
      </trkpt>
      <trkpt lat="42.244031" lon="1.717289">
        <ele>1687.792</ele>
        <time>2021-08-25T15:12:15Z</time>
      </trkpt>
      <trkpt lat="42.244083" lon="1.717294">
        <ele>1685.911</ele>
        <time>2021-08-25T15:12:17Z</time>
      </trkpt>
      <trkpt lat="42.244133" lon="1.717287">
        <ele>1685.308</ele>
        <time>2021-08-25T15:12:19Z</time>
      </trkpt>
      <trkpt lat="42.244187" lon="1.717270">
        <ele>1684.841</ele>
        <time>2021-08-25T15:12:23Z</time>
      </trkpt>
      <trkpt lat="42.244231" lon="1.717251">
        <ele>1684.475</ele>
        <time>2021-08-25T15:12:26Z</time>
      </trkpt>
      <trkpt lat="42.244282" lon="1.717213">
        <ele>1683.293</ele>
        <time>2021-08-25T15:12:30Z</time>
      </trkpt>
      <trkpt lat="42.244333" lon="1.717179">
        <ele>1682.679</ele>
        <time>2021-08-25T15:12:33Z</time>
      </trkpt>
      <trkpt lat="42.244373" lon="1.717119">
        <ele>1682.394</ele>
        <time>2021-08-25T15:12:37Z</time>
      </trkpt>
      <trkpt lat="42.244409" lon="1.717071">
        <ele>1682.268</ele>
        <time>2021-08-25T15:12:39Z</time>
      </trkpt>
      <trkpt lat="42.244453" lon="1.717021">
        <ele>1681.625</ele>
        <time>2021-08-25T15:12:41Z</time>
      </trkpt>
      <trkpt lat="42.244489" lon="1.716982">
        <ele>1679.450</ele>
        <time>2021-08-25T15:12:43Z</time>
      </trkpt>
      <trkpt lat="42.244533" lon="1.716943">
        <ele>1677.032</ele>
        <time>2021-08-25T15:12:45Z</time>
      </trkpt>
      <trkpt lat="42.244572" lon="1.716885">
        <ele>1676.192</ele>
        <time>2021-08-25T15:12:47Z</time>
      </trkpt>
      <trkpt lat="42.244623" lon="1.716859">
        <ele>1675.811</ele>
        <time>2021-08-25T15:12:49Z</time>
      </trkpt>
      <trkpt lat="42.244672" lon="1.716838">
        <ele>1675.608</ele>
        <time>2021-08-25T15:12:51Z</time>
      </trkpt>
      <trkpt lat="42.244724" lon="1.716818">
        <ele>1674.551</ele>
        <time>2021-08-25T15:12:54Z</time>
      </trkpt>
      <trkpt lat="42.244767" lon="1.716796">
        <ele>1674.045</ele>
        <time>2021-08-25T15:12:56Z</time>
      </trkpt>
      <trkpt lat="42.244821" lon="1.716747">
        <ele>1673.163</ele>
        <time>2021-08-25T15:12:58Z</time>
      </trkpt>
      <trkpt lat="42.244873" lon="1.716689">
        <ele>1671.999</ele>
        <time>2021-08-25T15:13:00Z</time>
      </trkpt>
      <trkpt lat="42.244930" lon="1.716651">
        <ele>1671.344</ele>
        <time>2021-08-25T15:13:02Z</time>
      </trkpt>
      <trkpt lat="42.244995" lon="1.716625">
        <ele>1670.848</ele>
        <time>2021-08-25T15:13:04Z</time>
      </trkpt>
      <trkpt lat="42.245061" lon="1.716617">
        <ele>1670.595</ele>
        <time>2021-08-25T15:13:06Z</time>
      </trkpt>
      <trkpt lat="42.245099" lon="1.716650">
        <ele>1671.220</ele>
        <time>2021-08-25T15:13:09Z</time>
      </trkpt>
      <trkpt lat="42.245143" lon="1.716677">
        <ele>1671.038</ele>
        <time>2021-08-25T15:13:12Z</time>
      </trkpt>
      <trkpt lat="42.245137" lon="1.716605">
        <ele>1670.070</ele>
        <time>2021-08-25T15:13:16Z</time>
      </trkpt>
      <trkpt lat="42.245196" lon="1.716608">
        <ele>1669.517</ele>
        <time>2021-08-25T15:13:19Z</time>
      </trkpt>
      <trkpt lat="42.245252" lon="1.716685">
        <ele>1668.608</ele>
        <time>2021-08-25T15:13:21Z</time>
      </trkpt>
      <trkpt lat="42.245280" lon="1.716796">
        <ele>1667.721</ele>
        <time>2021-08-25T15:13:23Z</time>
      </trkpt>
      <trkpt lat="42.245289" lon="1.716901">
        <ele>1667.725</ele>
        <time>2021-08-25T15:13:25Z</time>
      </trkpt>
      <trkpt lat="42.245321" lon="1.716960">
        <ele>1668.883</ele>
        <time>2021-08-25T15:13:27Z</time>
      </trkpt>
      <trkpt lat="42.245367" lon="1.716984">
        <ele>1668.849</ele>
        <time>2021-08-25T15:13:29Z</time>
      </trkpt>
      <trkpt lat="42.245422" lon="1.717022">
        <ele>1668.784</ele>
        <time>2021-08-25T15:13:31Z</time>
      </trkpt>
      <trkpt lat="42.245480" lon="1.717081">
        <ele>1667.938</ele>
        <time>2021-08-25T15:13:33Z</time>
      </trkpt>
      <trkpt lat="42.245492" lon="1.717163">
        <ele>1664.995</ele>
        <time>2021-08-25T15:13:35Z</time>
      </trkpt>
      <trkpt lat="42.245480" lon="1.717239">
        <ele>1664.220</ele>
        <time>2021-08-25T15:13:37Z</time>
      </trkpt>
      <trkpt lat="42.245474" lon="1.717310">
        <ele>1663.319</ele>
        <time>2021-08-25T15:13:39Z</time>
      </trkpt>
      <trkpt lat="42.245472" lon="1.717375">
        <ele>1658.309</ele>
        <time>2021-08-25T15:13:41Z</time>
      </trkpt>
      <trkpt lat="42.245481" lon="1.717436">
        <ele>1657.219</ele>
        <time>2021-08-25T15:13:43Z</time>
      </trkpt>
      <trkpt lat="42.245499" lon="1.717526">
        <ele>1656.208</ele>
        <time>2021-08-25T15:13:46Z</time>
      </trkpt>
      <trkpt lat="42.245505" lon="1.717608">
        <ele>1656.269</ele>
        <time>2021-08-25T15:13:48Z</time>
      </trkpt>
      <trkpt lat="42.245512" lon="1.717685">
        <ele>1656.283</ele>
        <time>2021-08-25T15:13:50Z</time>
      </trkpt>
      <trkpt lat="42.245530" lon="1.717766">
        <ele>1656.091</ele>
        <time>2021-08-25T15:13:53Z</time>
      </trkpt>
      <trkpt lat="42.245531" lon="1.717846">
        <ele>1654.977</ele>
        <time>2021-08-25T15:13:56Z</time>
      </trkpt>
      <trkpt lat="42.245536" lon="1.717927">
        <ele>1653.542</ele>
        <time>2021-08-25T15:13:59Z</time>
      </trkpt>
      <trkpt lat="42.245551" lon="1.717999">
        <ele>1652.226</ele>
        <time>2021-08-25T15:14:02Z</time>
      </trkpt>
      <trkpt lat="42.245555" lon="1.718086">
        <ele>1651.853</ele>
        <time>2021-08-25T15:14:05Z</time>
      </trkpt>
      <trkpt lat="42.245573" lon="1.718149">
        <ele>1651.368</ele>
        <time>2021-08-25T15:14:07Z</time>
      </trkpt>
      <trkpt lat="42.245593" lon="1.718226">
        <ele>1648.247</ele>
        <time>2021-08-25T15:14:10Z</time>
      </trkpt>
      <trkpt lat="42.245589" lon="1.718301">
        <ele>1647.329</ele>
        <time>2021-08-25T15:14:13Z</time>
      </trkpt>
      <trkpt lat="42.245579" lon="1.718374">
        <ele>1644.121</ele>
        <time>2021-08-25T15:14:16Z</time>
      </trkpt>
      <trkpt lat="42.245590" lon="1.718439">
        <ele>1640.508</ele>
        <time>2021-08-25T15:14:18Z</time>
      </trkpt>
      <trkpt lat="42.245601" lon="1.718514">
        <ele>1636.942</ele>
        <time>2021-08-25T15:14:20Z</time>
      </trkpt>
      <trkpt lat="42.245613" lon="1.718573">
        <ele>1636.186</ele>
        <time>2021-08-25T15:14:22Z</time>
      </trkpt>
      <trkpt lat="42.245637" lon="1.718628">
        <ele>1635.844</ele>
        <time>2021-08-25T15:14:24Z</time>
      </trkpt>
      <trkpt lat="42.245663" lon="1.718679">
        <ele>1634.850</ele>
        <time>2021-08-25T15:14:27Z</time>
      </trkpt>
      <trkpt lat="42.245683" lon="1.718765">
        <ele>1633.855</ele>
        <time>2021-08-25T15:14:30Z</time>
      </trkpt>
      <trkpt lat="42.245718" lon="1.718866">
        <ele>1631.329</ele>
        <time>2021-08-25T15:14:32Z</time>
      </trkpt>
      <trkpt lat="42.245760" lon="1.718937">
        <ele>1627.196</ele>
        <time>2021-08-25T15:14:34Z</time>
      </trkpt>
      <trkpt lat="42.245780" lon="1.718991">
        <ele>1625.521</ele>
        <time>2021-08-25T15:14:37Z</time>
      </trkpt>
      <trkpt lat="42.245804" lon="1.719045">
        <ele>1624.397</ele>
        <time>2021-08-25T15:14:40Z</time>
      </trkpt>
      <trkpt lat="42.245840" lon="1.719095">
        <ele>1621.523</ele>
        <time>2021-08-25T15:14:44Z</time>
      </trkpt>
      <trkpt lat="42.245872" lon="1.719146">
        <ele>1619.025</ele>
        <time>2021-08-25T15:14:47Z</time>
      </trkpt>
      <trkpt lat="42.245914" lon="1.719192">
        <ele>1616.508</ele>
        <time>2021-08-25T15:14:50Z</time>
      </trkpt>
      <trkpt lat="42.245951" lon="1.719254">
        <ele>1615.957</ele>
        <time>2021-08-25T15:14:53Z</time>
      </trkpt>
      <trkpt lat="42.245951" lon="1.719328">
        <ele>1615.441</ele>
        <time>2021-08-25T15:14:55Z</time>
      </trkpt>
      <trkpt lat="42.245957" lon="1.719392">
        <ele>1615.349</ele>
        <time>2021-08-25T15:14:57Z</time>
      </trkpt>
      <trkpt lat="42.245995" lon="1.719469">
        <ele>1615.955</ele>
        <time>2021-08-25T15:15:00Z</time>
      </trkpt>
      <trkpt lat="42.246014" lon="1.719533">
        <ele>1616.160</ele>
        <time>2021-08-25T15:15:02Z</time>
      </trkpt>
      <trkpt lat="42.246047" lon="1.719600">
        <ele>1616.044</ele>
        <time>2021-08-25T15:15:05Z</time>
      </trkpt>
      <trkpt lat="42.246072" lon="1.719657">
        <ele>1615.881</ele>
        <time>2021-08-25T15:15:07Z</time>
      </trkpt>
      <trkpt lat="42.246082" lon="1.719727">
        <ele>1615.416</ele>
        <time>2021-08-25T15:15:09Z</time>
      </trkpt>
      <trkpt lat="42.246099" lon="1.719783">
        <ele>1614.388</ele>
        <time>2021-08-25T15:15:11Z</time>
      </trkpt>
      <trkpt lat="42.246083" lon="1.719723">
        <ele>1614.024</ele>
        <time>2021-08-25T15:15:24Z</time>
      </trkpt>
      <trkpt lat="42.246058" lon="1.719659">
        <ele>1614.326</ele>
        <time>2021-08-25T15:15:27Z</time>
      </trkpt>
      <trkpt lat="42.246028" lon="1.719612">
        <ele>1614.608</ele>
        <time>2021-08-25T15:15:29Z</time>
      </trkpt>
      <trkpt lat="42.245996" lon="1.719567">
        <ele>1615.286</ele>
        <time>2021-08-25T15:15:31Z</time>
      </trkpt>
      <trkpt lat="42.245957" lon="1.719500">
        <ele>1616.280</ele>
        <time>2021-08-25T15:15:34Z</time>
      </trkpt>
      <trkpt lat="42.245939" lon="1.719433">
        <ele>1619.358</ele>
        <time>2021-08-25T15:15:37Z</time>
      </trkpt>
      <trkpt lat="42.245949" lon="1.719370">
        <ele>1620.014</ele>
        <time>2021-08-25T15:15:40Z</time>
      </trkpt>
      <trkpt lat="42.245979" lon="1.719308">
        <ele>1620.069</ele>
        <time>2021-08-25T15:15:43Z</time>
      </trkpt>
      <trkpt lat="42.246027" lon="1.719264">
        <ele>1619.983</ele>
        <time>2021-08-25T15:15:46Z</time>
      </trkpt>
      <trkpt lat="42.246072" lon="1.719283">
        <ele>1619.620</ele>
        <time>2021-08-25T15:15:49Z</time>
      </trkpt>
      <trkpt lat="42.246128" lon="1.719292">
        <ele>1619.055</ele>
        <time>2021-08-25T15:15:53Z</time>
      </trkpt>
      <trkpt lat="42.246182" lon="1.719323">
        <ele>1617.543</ele>
        <time>2021-08-25T15:15:57Z</time>
      </trkpt>
      <trkpt lat="42.246230" lon="1.719339">
        <ele>1617.564</ele>
        <time>2021-08-25T15:16:00Z</time>
      </trkpt>
      <trkpt lat="42.246297" lon="1.719359">
        <ele>1617.510</ele>
        <time>2021-08-25T15:16:03Z</time>
      </trkpt>
      <trkpt lat="42.246368" lon="1.719372">
        <ele>1618.208</ele>
        <time>2021-08-25T15:16:06Z</time>
      </trkpt>
      <trkpt lat="42.246424" lon="1.719387">
        <ele>1618.662</ele>
        <time>2021-08-25T15:16:08Z</time>
      </trkpt>
      <trkpt lat="42.246482" lon="1.719401">
        <ele>1619.196</ele>
        <time>2021-08-25T15:16:10Z</time>
      </trkpt>
      <trkpt lat="42.246544" lon="1.719415">
        <ele>1620.654</ele>
        <time>2021-08-25T15:16:12Z</time>
      </trkpt>
      <trkpt lat="42.246593" lon="1.719421">
        <ele>1621.840</ele>
        <time>2021-08-25T15:16:14Z</time>
      </trkpt>
      <trkpt lat="42.246651" lon="1.719428">
        <ele>1622.115</ele>
        <time>2021-08-25T15:16:16Z</time>
      </trkpt>
      <trkpt lat="42.246705" lon="1.719443">
        <ele>1622.139</ele>
        <time>2021-08-25T15:16:18Z</time>
      </trkpt>
      <trkpt lat="42.246750" lon="1.719473">
        <ele>1622.166</ele>
        <time>2021-08-25T15:16:20Z</time>
      </trkpt>
      <trkpt lat="42.246806" lon="1.719514">
        <ele>1621.811</ele>
        <time>2021-08-25T15:16:22Z</time>
      </trkpt>
      <trkpt lat="42.246877" lon="1.719549">
        <ele>1621.861</ele>
        <time>2021-08-25T15:16:24Z</time>
      </trkpt>
      <trkpt lat="42.246940" lon="1.719584">
        <ele>1621.321</ele>
        <time>2021-08-25T15:16:27Z</time>
      </trkpt>
      <trkpt lat="42.246996" lon="1.719621">
        <ele>1621.713</ele>
        <time>2021-08-25T15:16:30Z</time>
      </trkpt>
      <trkpt lat="42.247051" lon="1.719662">
        <ele>1621.708</ele>
        <time>2021-08-25T15:16:33Z</time>
      </trkpt>
      <trkpt lat="42.247097" lon="1.719723">
        <ele>1621.264</ele>
        <time>2021-08-25T15:16:36Z</time>
      </trkpt>
      <trkpt lat="42.247117" lon="1.719791">
        <ele>1621.048</ele>
        <time>2021-08-25T15:16:39Z</time>
      </trkpt>
      <trkpt lat="42.247122" lon="1.719852">
        <ele>1620.616</ele>
        <time>2021-08-25T15:16:41Z</time>
      </trkpt>
      <trkpt lat="42.247091" lon="1.719927">
        <ele>1620.142</ele>
        <time>2021-08-25T15:16:44Z</time>
      </trkpt>
      <trkpt lat="42.247058" lon="1.719980">
        <ele>1619.487</ele>
        <time>2021-08-25T15:16:46Z</time>
      </trkpt>
      <trkpt lat="42.247033" lon="1.720049">
        <ele>1615.931</ele>
        <time>2021-08-25T15:16:50Z</time>
      </trkpt>
      <trkpt lat="42.247012" lon="1.720127">
        <ele>1614.558</ele>
        <time>2021-08-25T15:16:53Z</time>
      </trkpt>
      <trkpt lat="42.247006" lon="1.720206">
        <ele>1614.333</ele>
        <time>2021-08-25T15:16:56Z</time>
      </trkpt>
      <trkpt lat="42.246996" lon="1.720288">
        <ele>1613.994</ele>
        <time>2021-08-25T15:16:59Z</time>
      </trkpt>
      <trkpt lat="42.246970" lon="1.720354">
        <ele>1613.457</ele>
        <time>2021-08-25T15:17:01Z</time>
      </trkpt>
      <trkpt lat="42.246967" lon="1.720417">
        <ele>1612.822</ele>
        <time>2021-08-25T15:17:03Z</time>
      </trkpt>
      <trkpt lat="42.246975" lon="1.720497">
        <ele>1609.008</ele>
        <time>2021-08-25T15:17:07Z</time>
      </trkpt>
      <trkpt lat="42.246961" lon="1.720562">
        <ele>1608.317</ele>
        <time>2021-08-25T15:17:12Z</time>
      </trkpt>
      <trkpt lat="42.246945" lon="1.720638">
        <ele>1608.271</ele>
        <time>2021-08-25T15:17:15Z</time>
      </trkpt>
      <trkpt lat="42.246929" lon="1.720699">
        <ele>1608.179</ele>
        <time>2021-08-25T15:17:17Z</time>
      </trkpt>
      <trkpt lat="42.246916" lon="1.720768">
        <ele>1608.015</ele>
        <time>2021-08-25T15:17:19Z</time>
      </trkpt>
      <trkpt lat="42.246922" lon="1.720843">
        <ele>1607.640</ele>
        <time>2021-08-25T15:17:21Z</time>
      </trkpt>
      <trkpt lat="42.246931" lon="1.720915">
        <ele>1605.784</ele>
        <time>2021-08-25T15:17:24Z</time>
      </trkpt>
      <trkpt lat="42.246941" lon="1.720993">
        <ele>1605.131</ele>
        <time>2021-08-25T15:17:28Z</time>
      </trkpt>
      <trkpt lat="42.246973" lon="1.721057">
        <ele>1602.826</ele>
        <time>2021-08-25T15:17:33Z</time>
      </trkpt>
      <trkpt lat="42.246955" lon="1.721126">
        <ele>1601.678</ele>
        <time>2021-08-25T15:17:36Z</time>
      </trkpt>
      <trkpt lat="42.246925" lon="1.721197">
        <ele>1601.433</ele>
        <time>2021-08-25T15:17:39Z</time>
      </trkpt>
      <trkpt lat="42.246915" lon="1.721271">
        <ele>1601.026</ele>
        <time>2021-08-25T15:17:42Z</time>
      </trkpt>
      <trkpt lat="42.246930" lon="1.721338">
        <ele>1599.008</ele>
        <time>2021-08-25T15:17:46Z</time>
      </trkpt>
      <trkpt lat="42.246936" lon="1.721407">
        <ele>1597.535</ele>
        <time>2021-08-25T15:17:49Z</time>
      </trkpt>
      <trkpt lat="42.246935" lon="1.721486">
        <ele>1596.769</ele>
        <time>2021-08-25T15:17:52Z</time>
      </trkpt>
      <trkpt lat="42.246962" lon="1.721545">
        <ele>1596.367</ele>
        <time>2021-08-25T15:17:54Z</time>
      </trkpt>
      <trkpt lat="42.246996" lon="1.721605">
        <ele>1593.773</ele>
        <time>2021-08-25T15:17:56Z</time>
      </trkpt>
      <trkpt lat="42.247014" lon="1.721668">
        <ele>1592.418</ele>
        <time>2021-08-25T15:17:58Z</time>
      </trkpt>
      <trkpt lat="42.246985" lon="1.721729">
        <ele>1591.112</ele>
        <time>2021-08-25T15:18:01Z</time>
      </trkpt>
      <trkpt lat="42.246929" lon="1.721733">
        <ele>1589.659</ele>
        <time>2021-08-25T15:18:04Z</time>
      </trkpt>
      <trkpt lat="42.246877" lon="1.721763">
        <ele>1588.174</ele>
        <time>2021-08-25T15:18:07Z</time>
      </trkpt>
      <trkpt lat="42.246821" lon="1.721768">
        <ele>1585.617</ele>
        <time>2021-08-25T15:18:10Z</time>
      </trkpt>
      <trkpt lat="42.246773" lon="1.721751">
        <ele>1583.487</ele>
        <time>2021-08-25T15:18:12Z</time>
      </trkpt>
      <trkpt lat="42.246724" lon="1.721740">
        <ele>1581.215</ele>
        <time>2021-08-25T15:18:16Z</time>
      </trkpt>
      <trkpt lat="42.246671" lon="1.721751">
        <ele>1580.708</ele>
        <time>2021-08-25T15:18:21Z</time>
      </trkpt>
      <trkpt lat="42.246637" lon="1.721794">
        <ele>1580.439</ele>
        <time>2021-08-25T15:18:25Z</time>
      </trkpt>
      <trkpt lat="42.246601" lon="1.721842">
        <ele>1579.973</ele>
        <time>2021-08-25T15:18:29Z</time>
      </trkpt>
      <trkpt lat="42.246556" lon="1.721858">
        <ele>1579.361</ele>
        <time>2021-08-25T15:18:33Z</time>
      </trkpt>
      <trkpt lat="42.228590" lon="1.735557">
        <ele>1209.599</ele>
        <time>2020-08-11T06:05:47Z</time>
      </trkpt>
      <trkpt lat="42.228599" lon="1.735549">
        <ele>1209.707</ele>
        <time>2020-08-11T06:05:51Z</time>
      </trkpt>
      <trkpt lat="42.228615" lon="1.735531">
        <ele>1210.227</ele>
        <time>2020-08-11T06:05:54Z</time>
      </trkpt>
      <trkpt lat="42.228635" lon="1.735513">
        <ele>1210.508</ele>
        <time>2020-08-11T06:05:57Z</time>
      </trkpt>
      <trkpt lat="42.228655" lon="1.735486">
        <ele>1210.885</ele>
        <time>2020-08-11T06:06:00Z</time>
      </trkpt>
      <trkpt lat="42.228670" lon="1.735462">
        <ele>1211.022</ele>
        <time>2020-08-11T06:06:02Z</time>
      </trkpt>
      <trkpt lat="42.228683" lon="1.735441">
        <ele>1211.299</ele>
        <time>2020-08-11T06:06:04Z</time>
      </trkpt>
      <trkpt lat="42.228697" lon="1.735424">
        <ele>1211.495</ele>
        <time>2020-08-11T06:06:06Z</time>
      </trkpt>
      <trkpt lat="42.228712" lon="1.735408">
        <ele>1211.679</ele>
        <time>2020-08-11T06:06:08Z</time>
      </trkpt>
      <trkpt lat="42.228736" lon="1.735395">
        <ele>1211.840</ele>
        <time>2020-08-11T06:06:11Z</time>
      </trkpt>
      <trkpt lat="42.228758" lon="1.735397">
        <ele>1211.973</ele>
        <time>2020-08-11T06:06:13Z</time>
      </trkpt>
      <trkpt lat="42.228775" lon="1.735413">
        <ele>1211.962</ele>
        <time>2020-08-11T06:06:15Z</time>
      </trkpt>
      <trkpt lat="42.228794" lon="1.735434">
        <ele>1211.931</ele>
        <time>2020-08-11T06:06:17Z</time>
      </trkpt>
      <trkpt lat="42.228818" lon="1.735448">
        <ele>1212.061</ele>
        <time>2020-08-11T06:06:19Z</time>
      </trkpt>
      <trkpt lat="42.228841" lon="1.735472">
        <ele>1212.007</ele>
        <time>2020-08-11T06:06:21Z</time>
      </trkpt>
      <trkpt lat="42.228853" lon="1.735497">
        <ele>1212.008</ele>
        <time>2020-08-11T06:06:23Z</time>
      </trkpt>
      <trkpt lat="42.228875" lon="1.735509">
        <ele>1212.149</ele>
        <time>2020-08-11T06:06:26Z</time>
      </trkpt>
      <trkpt lat="42.228901" lon="1.735530">
        <ele>1212.376</ele>
        <time>2020-08-11T06:06:28Z</time>
      </trkpt>
      <trkpt lat="42.228914" lon="1.735556">
        <ele>1212.573</ele>
        <time>2020-08-11T06:06:30Z</time>
      </trkpt>
      <trkpt lat="42.228928" lon="1.735581">
        <ele>1212.619</ele>
        <time>2020-08-11T06:06:32Z</time>
      </trkpt>
      <trkpt lat="42.228947" lon="1.735598">
        <ele>1212.853</ele>
        <time>2020-08-11T06:06:34Z</time>
      </trkpt>
      <trkpt lat="42.228968" lon="1.735608">
        <ele>1213.114</ele>
        <time>2020-08-11T06:06:36Z</time>
      </trkpt>
      <trkpt lat="42.228989" lon="1.735619">
        <ele>1213.437</ele>
        <time>2020-08-11T06:06:38Z</time>
      </trkpt>
      <trkpt lat="42.229021" lon="1.735639">
        <ele>1213.876</ele>
        <time>2020-08-11T06:06:41Z</time>
      </trkpt>
      <trkpt lat="42.229045" lon="1.735656">
        <ele>1214.017</ele>
        <time>2020-08-11T06:06:44Z</time>
      </trkpt>
      <trkpt lat="42.229061" lon="1.735675">
        <ele>1214.187</ele>
        <time>2020-08-11T06:06:46Z</time>
      </trkpt>
      <trkpt lat="42.229083" lon="1.735724">
        <ele>1214.015</ele>
        <time>2020-08-11T06:06:50Z</time>
      </trkpt>
      <trkpt lat="42.229091" lon="1.735750">
        <ele>1213.908</ele>
        <time>2020-08-11T06:06:52Z</time>
      </trkpt>
      <trkpt lat="42.229101" lon="1.735773">
        <ele>1213.827</ele>
        <time>2020-08-11T06:06:54Z</time>
      </trkpt>
      <trkpt lat="42.229109" lon="1.735799">
        <ele>1213.714</ele>
        <time>2020-08-11T06:06:56Z</time>
      </trkpt>
      <trkpt lat="42.229119" lon="1.735822">
        <ele>1213.641</ele>
        <time>2020-08-11T06:06:58Z</time>
      </trkpt>
      <trkpt lat="42.229128" lon="1.735850">
        <ele>1213.547</ele>
        <time>2020-08-11T06:07:00Z</time>
      </trkpt>
      <trkpt lat="42.229141" lon="1.735878">
        <ele>1213.411</ele>
        <time>2020-08-11T06:07:02Z</time>
      </trkpt>
      <trkpt lat="42.229152" lon="1.735907">
        <ele>1213.342</ele>
        <time>2020-08-11T06:07:04Z</time>
      </trkpt>
      <trkpt lat="42.229168" lon="1.735934">
        <ele>1213.325</ele>
        <time>2020-08-11T06:07:06Z</time>
      </trkpt>
      <trkpt lat="42.229181" lon="1.735963">
        <ele>1213.444</ele>
        <time>2020-08-11T06:07:08Z</time>
      </trkpt>
      <trkpt lat="42.229188" lon="1.735987">
        <ele>1213.474</ele>
        <time>2020-08-11T06:07:10Z</time>
      </trkpt>
      <trkpt lat="42.229196" lon="1.736012">
        <ele>1213.456</ele>
        <time>2020-08-11T06:07:12Z</time>
      </trkpt>
      <trkpt lat="42.229200" lon="1.736041">
        <ele>1213.321</ele>
        <time>2020-08-11T06:07:14Z</time>
      </trkpt>
      <trkpt lat="42.229208" lon="1.736068">
        <ele>1213.208</ele>
        <time>2020-08-11T06:07:16Z</time>
      </trkpt>
      <trkpt lat="42.229211" lon="1.736095">
        <ele>1213.113</ele>
        <time>2020-08-11T06:07:18Z</time>
      </trkpt>
      <trkpt lat="42.229211" lon="1.736121">
        <ele>1212.940</ele>
        <time>2020-08-11T06:07:20Z</time>
      </trkpt>
      <trkpt lat="42.229214" lon="1.736156">
        <ele>1212.627</ele>
        <time>2020-08-11T06:07:22Z</time>
      </trkpt>
      <trkpt lat="42.229219" lon="1.736184">
        <ele>1212.593</ele>
        <time>2020-08-11T06:07:24Z</time>
      </trkpt>
      <trkpt lat="42.229223" lon="1.736215">
        <ele>1212.367</ele>
        <time>2020-08-11T06:07:26Z</time>
      </trkpt>
      <trkpt lat="42.229226" lon="1.736249">
        <ele>1212.168</ele>
        <time>2020-08-11T06:07:28Z</time>
      </trkpt>
      <trkpt lat="42.229225" lon="1.736283">
        <ele>1211.891</ele>
        <time>2020-08-11T06:07:30Z</time>
      </trkpt>
      <trkpt lat="42.229232" lon="1.736310">
        <ele>1211.610</ele>
        <time>2020-08-11T06:07:32Z</time>
      </trkpt>
      <trkpt lat="42.229247" lon="1.736338">
        <ele>1211.699</ele>
        <time>2020-08-11T06:07:34Z</time>
      </trkpt>
      <trkpt lat="42.229253" lon="1.736370">
        <ele>1211.407</ele>
        <time>2020-08-11T06:07:36Z</time>
      </trkpt>
      <trkpt lat="42.229262" lon="1.736395">
        <ele>1211.327</ele>
        <time>2020-08-11T06:07:38Z</time>
      </trkpt>
      <trkpt lat="42.229274" lon="1.736422">
        <ele>1211.208</ele>
        <time>2020-08-11T06:07:40Z</time>
      </trkpt>
      <trkpt lat="42.229279" lon="1.736470">
        <ele>1210.815</ele>
        <time>2020-08-11T06:07:43Z</time>
      </trkpt>
      <trkpt lat="42.229290" lon="1.736546">
        <ele>1210.112</ele>
        <time>2020-08-11T06:07:48Z</time>
      </trkpt>
      <trkpt lat="42.229326" lon="1.736661">
        <ele>1209.269</ele>
        <time>2020-08-11T06:07:56Z</time>
      </trkpt>
      <trkpt lat="42.229430" lon="1.736670">
        <ele>1209.825</ele>
        <time>2020-08-11T06:08:03Z</time>
      </trkpt>
      <trkpt lat="42.229448" lon="1.736660">
        <ele>1210.159</ele>
        <time>2020-08-11T06:08:05Z</time>
      </trkpt>
      <trkpt lat="42.229538" lon="1.736598">
        <ele>1212.280</ele>
        <time>2020-08-11T06:08:15Z</time>
      </trkpt>
      <trkpt lat="42.229618" lon="1.736509">
        <ele>1215.253</ele>
        <time>2020-08-11T06:08:22Z</time>
      </trkpt>
      <trkpt lat="42.229674" lon="1.736406">
        <ele>1218.692</ele>
        <time>2020-08-11T06:08:53Z</time>
      </trkpt>
      <trkpt lat="42.229756" lon="1.736351">
        <ele>1221.856</ele>
        <time>2020-08-11T06:09:07Z</time>
      </trkpt>
      <trkpt lat="42.229849" lon="1.736347">
        <ele>1224.659</ele>
        <time>2020-08-11T06:09:18Z</time>
      </trkpt>
      <trkpt lat="42.229945" lon="1.736362">
        <ele>1227.114</ele>
        <time>2020-08-11T06:09:30Z</time>
      </trkpt>
      <trkpt lat="42.230047" lon="1.736389">
        <ele>1230.008</ele>
        <time>2020-08-11T06:09:49Z</time>
      </trkpt>
      <trkpt lat="42.230137" lon="1.736420">
        <ele>1232.961</ele>
        <time>2020-08-11T06:10:06Z</time>
      </trkpt>
      <trkpt lat="42.230229" lon="1.736418">
        <ele>1236.968</ele>
        <time>2020-08-11T06:10:25Z</time>
      </trkpt>
      <trkpt lat="42.230320" lon="1.736391">
        <ele>1241.365</ele>
        <time>2020-08-11T06:10:45Z</time>
      </trkpt>
      <trkpt lat="42.230408" lon="1.736429">
        <ele>1242.811</ele>
        <time>2020-08-11T06:11:15Z</time>
      </trkpt>
      <trkpt lat="42.230509" lon="1.736401">
        <ele>1247.125</ele>
        <time>2020-08-11T06:11:33Z</time>
      </trkpt>
      <trkpt lat="42.230619" lon="1.736389">
        <ele>1252.286</ele>
        <time>2020-08-11T06:11:46Z</time>
      </trkpt>
      <trkpt lat="42.230707" lon="1.736438">
        <ele>1254.939</ele>
        <time>2020-08-11T06:12:01Z</time>
      </trkpt>
      <trkpt lat="42.230755" lon="1.736541">
        <ele>1253.758</ele>
        <time>2020-08-11T06:12:10Z</time>
      </trkpt>
      <trkpt lat="42.230794" lon="1.736658">
        <ele>1251.553</ele>
        <time>2020-08-11T06:12:20Z</time>
      </trkpt>
      <trkpt lat="42.230867" lon="1.736756">
        <ele>1252.004</ele>
        <time>2020-08-11T06:12:29Z</time>
      </trkpt>
      <trkpt lat="42.230949" lon="1.736827">
        <ele>1253.714</ele>
        <time>2020-08-11T06:12:39Z</time>
      </trkpt>
      <trkpt lat="42.231032" lon="1.736883">
        <ele>1255.708</ele>
        <time>2020-08-11T06:12:49Z</time>
      </trkpt>
      <trkpt lat="42.231121" lon="1.736945">
        <ele>1257.421</ele>
        <time>2020-08-11T06:12:59Z</time>
      </trkpt>
      <trkpt lat="42.231188" lon="1.737039">
        <ele>1257.328</ele>
        <time>2020-08-11T06:13:08Z</time>
      </trkpt>
      <trkpt lat="42.231244" lon="1.737145">
        <ele>1256.275</ele>
        <time>2020-08-11T06:13:16Z</time>
      </trkpt>
      <trkpt lat="42.231285" lon="1.737271">
        <ele>1253.821</ele>
        <time>2020-08-11T06:13:25Z</time>
      </trkpt>
      <trkpt lat="42.231356" lon="1.737358">
        <ele>1253.795</ele>
        <time>2020-08-11T06:13:35Z</time>
      </trkpt>
      <trkpt lat="42.231452" lon="1.737392">
        <ele>1256.196</ele>
        <time>2020-08-11T06:13:43Z</time>
      </trkpt>
      <trkpt lat="42.231543" lon="1.737433">
        <ele>1257.899</ele>
        <time>2020-08-11T06:13:52Z</time>
      </trkpt>
      <trkpt lat="42.231620" lon="1.737513">
        <ele>1257.968</ele>
        <time>2020-08-11T06:14:03Z</time>
      </trkpt>
      <trkpt lat="42.231696" lon="1.737601">
        <ele>1257.827</ele>
        <time>2020-08-11T06:14:12Z</time>
      </trkpt>
      <trkpt lat="42.231766" lon="1.737703">
        <ele>1257.368</ele>
        <time>2020-08-11T06:14:21Z</time>
      </trkpt>
      <trkpt lat="42.231840" lon="1.737802">
        <ele>1257.114</ele>
        <time>2020-08-11T06:14:30Z</time>
      </trkpt>
      <trkpt lat="42.231910" lon="1.737885">
        <ele>1257.208</ele>
        <time>2020-08-11T06:14:37Z</time>
      </trkpt>
      <trkpt lat="42.231986" lon="1.737970">
        <ele>1257.988</ele>
        <time>2020-08-11T06:14:45Z</time>
      </trkpt>
      <trkpt lat="42.232056" lon="1.738069">
        <ele>1258.765</ele>
        <time>2020-08-11T06:14:52Z</time>
      </trkpt>
      <trkpt lat="42.232107" lon="1.738171">
        <ele>1258.712</ele>
        <time>2020-08-11T06:15:02Z</time>
      </trkpt>
      <trkpt lat="42.232174" lon="1.738251">
        <ele>1260.378</ele>
        <time>2020-08-11T06:15:10Z</time>
      </trkpt>
      <trkpt lat="42.232222" lon="1.738356">
        <ele>1260.442</ele>
        <time>2020-08-11T06:15:20Z</time>
      </trkpt>
      <trkpt lat="42.232304" lon="1.738409">
        <ele>1262.833</ele>
        <time>2020-08-11T06:15:30Z</time>
      </trkpt>
      <trkpt lat="42.232375" lon="1.738484">
        <ele>1264.136</ele>
        <time>2020-08-11T06:15:39Z</time>
      </trkpt>
      <trkpt lat="42.232438" lon="1.738577">
        <ele>1264.375</ele>
        <time>2020-08-11T06:15:50Z</time>
      </trkpt>
      <trkpt lat="42.232528" lon="1.738596">
        <ele>1267.354</ele>
        <time>2020-08-11T06:15:59Z</time>
      </trkpt>
      <trkpt lat="42.232620" lon="1.738620">
        <ele>1269.156</ele>
        <time>2020-08-11T06:16:21Z</time>
      </trkpt>
      <trkpt lat="42.232712" lon="1.738652">
        <ele>1270.511</ele>
        <time>2020-08-11T06:16:31Z</time>
      </trkpt>
      <trkpt lat="42.232802" lon="1.738660">
        <ele>1273.208</ele>
        <time>2020-08-11T06:16:40Z</time>
      </trkpt>
      <trkpt lat="42.232875" lon="1.738751">
        <ele>1272.841</ele>
        <time>2020-08-11T06:16:48Z</time>
      </trkpt>
      <trkpt lat="42.232975" lon="1.738769">
        <ele>1276.638</ele>
        <time>2020-08-11T06:16:57Z</time>
      </trkpt>
      <trkpt lat="42.233042" lon="1.738857">
        <ele>1275.845</ele>
        <time>2020-08-11T06:17:05Z</time>
      </trkpt>
      <trkpt lat="42.233100" lon="1.738950">
        <ele>1274.861</ele>
        <time>2020-08-11T06:17:14Z</time>
      </trkpt>
      <trkpt lat="42.233171" lon="1.739042">
        <ele>1274.795</ele>
        <time>2020-08-11T06:17:25Z</time>
      </trkpt>
      <trkpt lat="42.233212" lon="1.739154">
        <ele>1272.276</ele>
        <time>2020-08-11T06:17:34Z</time>
      </trkpt>
      <trkpt lat="42.233269" lon="1.739255">
        <ele>1270.699</ele>
        <time>2020-08-11T06:17:44Z</time>
      </trkpt>
      <trkpt lat="42.233356" lon="1.739296">
        <ele>1272.348</ele>
        <time>2020-08-11T06:18:12Z</time>
      </trkpt>
      <trkpt lat="42.233448" lon="1.739293">
        <ele>1276.286</ele>
        <time>2020-08-11T06:19:01Z</time>
      </trkpt>
      <trkpt lat="42.233527" lon="1.739231">
        <ele>1281.760</ele>
        <time>2020-08-11T06:19:12Z</time>
      </trkpt>
      <trkpt lat="42.233619" lon="1.739230">
        <ele>1284.826</ele>
        <time>2020-08-11T06:19:28Z</time>
      </trkpt>
      <trkpt lat="42.233672" lon="1.739338">
        <ele>1281.008</ele>
        <time>2020-08-11T06:19:46Z</time>
      </trkpt>
      <trkpt lat="42.233754" lon="1.739289">
        <ele>1281.244</ele>
        <time>2020-08-11T06:20:02Z</time>
      </trkpt>
      <trkpt lat="42.233791" lon="1.739170">
        <ele>1281.891</ele>
        <time>2020-08-11T06:20:18Z</time>
      </trkpt>
      <trkpt lat="42.233777" lon="1.739043">
        <ele>1281.038</ele>
        <time>2020-08-11T06:20:31Z</time>
      </trkpt>
      <trkpt lat="42.233760" lon="1.738916">
        <ele>1280.444</ele>
        <time>2020-08-11T06:20:46Z</time>
      </trkpt>
      <trkpt lat="42.233785" lon="1.738798">
        <ele>1278.418</ele>
        <time>2020-08-11T06:21:05Z</time>
      </trkpt>
      <trkpt lat="42.233734" lon="1.738680">
        <ele>1279.179</ele>
        <time>2020-08-11T06:21:20Z</time>
      </trkpt>
      <trkpt lat="42.233721" lon="1.738526">
        <ele>1278.952</ele>
        <time>2020-08-11T06:21:28Z</time>
      </trkpt>
      <trkpt lat="42.233743" lon="1.738396">
        <ele>1278.871</ele>
        <time>2020-08-11T06:21:32Z</time>
      </trkpt>
      <trkpt lat="42.233770" lon="1.738258">
        <ele>1279.916</ele>
        <time>2020-08-11T06:21:41Z</time>
      </trkpt>
      <trkpt lat="42.233790" lon="1.738129">
        <ele>1281.676</ele>
        <time>2020-08-11T06:21:45Z</time>
      </trkpt>
      <trkpt lat="42.233857" lon="1.738047">
        <ele>1283.713</ele>
        <time>2020-08-11T06:22:13Z</time>
      </trkpt>
      <trkpt lat="42.233948" lon="1.738028">
        <ele>1285.008</ele>
        <time>2020-08-11T06:22:27Z</time>
      </trkpt>
      <trkpt lat="42.233882" lon="1.737932">
        <ele>1285.747</ele>
        <time>2020-08-11T06:22:41Z</time>
      </trkpt>
      <trkpt lat="42.233917" lon="1.737811">
        <ele>1287.754</ele>
        <time>2020-08-11T06:22:50Z</time>
      </trkpt>
      <trkpt lat="42.233909" lon="1.737681">
        <ele>1289.551</ele>
        <time>2020-08-11T06:23:05Z</time>
      </trkpt>
      <trkpt lat="42.233831" lon="1.737608">
        <ele>1290.047</ele>
        <time>2020-08-11T06:23:40Z</time>
      </trkpt>
      <trkpt lat="42.233850" lon="1.737484">
        <ele>1292.021</ele>
        <time>2020-08-11T06:23:52Z</time>
      </trkpt>
      <trkpt lat="42.233869" lon="1.737360">
        <ele>1293.532</ele>
        <time>2020-08-11T06:24:09Z</time>
      </trkpt>
      <trkpt lat="42.233903" lon="1.737242">
        <ele>1294.675</ele>
        <time>2020-08-11T06:24:15Z</time>
      </trkpt>
      <trkpt lat="42.233890" lon="1.737103">
        <ele>1296.714</ele>
        <time>2020-08-11T06:24:25Z</time>
      </trkpt>
      <trkpt lat="42.233860" lon="1.736986">
        <ele>1298.477</ele>
        <time>2020-08-11T06:24:42Z</time>
      </trkpt>
      <trkpt lat="42.233884" lon="1.736863">
        <ele>1299.961</ele>
        <time>2020-08-11T06:24:55Z</time>
      </trkpt>
      <trkpt lat="42.233966" lon="1.736805">
        <ele>1298.627</ele>
        <time>2020-08-11T06:25:10Z</time>
      </trkpt>
      <trkpt lat="42.234032" lon="1.736722">
        <ele>1297.508</ele>
        <time>2020-08-11T06:25:23Z</time>
      </trkpt>
      <trkpt lat="42.234095" lon="1.736628">
        <ele>1296.483</ele>
        <time>2020-08-11T06:25:47Z</time>
      </trkpt>
      <trkpt lat="42.234145" lon="1.736520">
        <ele>1295.760</ele>
        <time>2020-08-11T06:25:57Z</time>
      </trkpt>
      <trkpt lat="42.234176" lon="1.736399">
        <ele>1295.517</ele>
        <time>2020-08-11T06:26:10Z</time>
      </trkpt>
      <trkpt lat="42.234232" lon="1.736295">
        <ele>1294.343</ele>
        <time>2020-08-11T06:26:21Z</time>
      </trkpt>
      <trkpt lat="42.234292" lon="1.736200">
        <ele>1292.887</ele>
        <time>2020-08-11T06:26:30Z</time>
      </trkpt>
      <trkpt lat="42.234357" lon="1.736116">
        <ele>1290.618</ele>
        <time>2020-08-11T06:26:41Z</time>
      </trkpt>
      <trkpt lat="42.234372" lon="1.735987">
        <ele>1291.841</ele>
        <time>2020-08-11T06:26:50Z</time>
      </trkpt>
      <trkpt lat="42.234420" lon="1.735866">
        <ele>1290.910</ele>
        <time>2020-08-11T06:26:58Z</time>
      </trkpt>
      <trkpt lat="42.234485" lon="1.735744">
        <ele>1290.145</ele>
        <time>2020-08-11T06:27:08Z</time>
      </trkpt>
      <trkpt lat="42.234510" lon="1.735622">
        <ele>1292.047</ele>
        <time>2020-08-11T06:27:21Z</time>
      </trkpt>
      <trkpt lat="42.234579" lon="1.735533">
        <ele>1292.011</ele>
        <time>2020-08-11T06:27:37Z</time>
      </trkpt>
      <trkpt lat="42.234673" lon="1.735494">
        <ele>1290.308</ele>
        <time>2020-08-11T06:27:48Z</time>
      </trkpt>
      <trkpt lat="42.234772" lon="1.735434">
        <ele>1289.880</ele>
        <time>2020-08-11T06:27:53Z</time>
      </trkpt>
      <trkpt lat="42.234846" lon="1.735351">
        <ele>1291.317</ele>
        <time>2020-08-11T06:28:00Z</time>
      </trkpt>
      <trkpt lat="42.234942" lon="1.735292">
        <ele>1291.184</ele>
        <time>2020-08-11T06:28:07Z</time>
      </trkpt>
      <trkpt lat="42.235021" lon="1.735209">
        <ele>1292.330</ele>
        <time>2020-08-11T06:28:15Z</time>
      </trkpt>
      <trkpt lat="42.235107" lon="1.735162">
        <ele>1291.434</ele>
        <time>2020-08-11T06:28:24Z</time>
      </trkpt>
      <trkpt lat="42.235185" lon="1.735078">
        <ele>1291.955</ele>
        <time>2020-08-11T06:28:33Z</time>
      </trkpt>
      <trkpt lat="42.235279" lon="1.735015">
        <ele>1290.598</ele>
        <time>2020-08-11T06:28:43Z</time>
      </trkpt>
      <trkpt lat="42.235373" lon="1.734941">
        <ele>1288.657</ele>
        <time>2020-08-11T06:28:52Z</time>
      </trkpt>
      <trkpt lat="42.235436" lon="1.734843">
        <ele>1288.053</ele>
        <time>2020-08-11T06:29:02Z</time>
      </trkpt>
      <trkpt lat="42.235491" lon="1.734727">
        <ele>1287.904</ele>
        <time>2020-08-11T06:29:13Z</time>
      </trkpt>
      <trkpt lat="42.235553" lon="1.734634">
        <ele>1286.414</ele>
        <time>2020-08-11T06:29:18Z</time>
      </trkpt>
      <trkpt lat="42.235601" lon="1.734528">
        <ele>1285.908</ele>
        <time>2020-08-11T06:29:26Z</time>
      </trkpt>
      <trkpt lat="42.235669" lon="1.734446">
        <ele>1284.131</ele>
        <time>2020-08-11T06:29:32Z</time>
      </trkpt>
      <trkpt lat="42.235744" lon="1.734354">
        <ele>1281.948</ele>
        <time>2020-08-11T06:29:41Z</time>
      </trkpt>
      <trkpt lat="42.235810" lon="1.734262">
        <ele>1280.045</ele>
        <time>2020-08-11T06:29:48Z</time>
      </trkpt>
      <trkpt lat="42.235878" lon="1.734156">
        <ele>1278.041</ele>
        <time>2020-08-11T06:29:55Z</time>
      </trkpt>
      <trkpt lat="42.235932" lon="1.734037">
        <ele>1276.845</ele>
        <time>2020-08-11T06:30:05Z</time>
      </trkpt>
      <trkpt lat="42.235964" lon="1.733914">
        <ele>1276.686</ele>
        <time>2020-08-11T06:30:12Z</time>
      </trkpt>
      <trkpt lat="42.236001" lon="1.733798">
        <ele>1276.159</ele>
        <time>2020-08-11T06:30:20Z</time>
      </trkpt>
      <trkpt lat="42.236016" lon="1.733670">
        <ele>1276.828</ele>
        <time>2020-08-11T06:30:28Z</time>
      </trkpt>
      <trkpt lat="42.236048" lon="1.733546">
        <ele>1276.524</ele>
        <time>2020-08-11T06:30:35Z</time>
      </trkpt>
      <trkpt lat="42.236068" lon="1.733424">
        <ele>1276.504</ele>
        <time>2020-08-11T06:30:47Z</time>
      </trkpt>
      <trkpt lat="42.236098" lon="1.733301">
        <ele>1276.014</ele>
        <time>2020-08-11T06:30:54Z</time>
      </trkpt>
      <trkpt lat="42.236138" lon="1.733179">
        <ele>1275.308</ele>
        <time>2020-08-11T06:31:02Z</time>
      </trkpt>
      <trkpt lat="42.236178" lon="1.733057">
        <ele>1274.488</ele>
        <time>2020-08-11T06:31:09Z</time>
      </trkpt>
      <trkpt lat="42.236198" lon="1.732928">
        <ele>1274.835</ele>
        <time>2020-08-11T06:31:17Z</time>
      </trkpt>
      <trkpt lat="42.236240" lon="1.732812">
        <ele>1274.162</ele>
        <time>2020-08-11T06:31:25Z</time>
      </trkpt>
      <trkpt lat="42.236286" lon="1.732702">
        <ele>1273.138</ele>
        <time>2020-08-11T06:31:32Z</time>
      </trkpt>
      <trkpt lat="42.236336" lon="1.732597">
        <ele>1271.712</ele>
        <time>2020-08-11T06:31:40Z</time>
      </trkpt>
      <trkpt lat="42.236382" lon="1.732490">
        <ele>1270.463</ele>
        <time>2020-08-11T06:31:50Z</time>
      </trkpt>
      <trkpt lat="42.236403" lon="1.732364">
        <ele>1269.356</ele>
        <time>2020-08-11T06:31:58Z</time>
      </trkpt>
      <trkpt lat="42.236408" lon="1.732239">
        <ele>1269.115</ele>
        <time>2020-08-11T06:32:08Z</time>
      </trkpt>
      <trkpt lat="42.236387" lon="1.732102">
        <ele>1272.326</ele>
        <time>2020-08-11T06:32:20Z</time>
      </trkpt>
      <trkpt lat="42.236421" lon="1.731983">
        <ele>1273.347</ele>
        <time>2020-08-11T06:32:29Z</time>
      </trkpt>
      <trkpt lat="42.236503" lon="1.731934">
        <ele>1272.111</ele>
        <time>2020-08-11T06:32:39Z</time>
      </trkpt>
      <trkpt lat="42.236601" lon="1.731913">
        <ele>1269.808</ele>
        <time>2020-08-11T06:32:45Z</time>
      </trkpt>
      <trkpt lat="42.236686" lon="1.731863">
        <ele>1268.288</ele>
        <time>2020-08-11T06:32:53Z</time>
      </trkpt>
      <trkpt lat="42.236747" lon="1.731765">
        <ele>1267.745</ele>
        <time>2020-08-11T06:33:01Z</time>
      </trkpt>
      <trkpt lat="42.236823" lon="1.731691">
        <ele>1265.652</ele>
        <time>2020-08-11T06:33:10Z</time>
      </trkpt>
      <trkpt lat="42.236904" lon="1.731627">
        <ele>1262.648</ele>
        <time>2020-08-11T06:33:18Z</time>
      </trkpt>
      <trkpt lat="42.236964" lon="1.731532">
        <ele>1261.272</ele>
        <time>2020-08-11T06:33:27Z</time>
      </trkpt>
      <trkpt lat="42.236990" lon="1.731405">
        <ele>1262.343</ele>
        <time>2020-08-11T06:33:37Z</time>
      </trkpt>
      <trkpt lat="42.237024" lon="1.731281">
        <ele>1263.526</ele>
        <time>2020-08-11T06:33:48Z</time>
      </trkpt>
      <trkpt lat="42.237123" lon="1.731230">
        <ele>1262.335</ele>
        <time>2020-08-11T06:33:54Z</time>
      </trkpt>
      <trkpt lat="42.237234" lon="1.731232">
        <ele>1260.128</ele>
        <time>2020-08-11T06:34:01Z</time>
      </trkpt>
      <trkpt lat="42.237317" lon="1.731182">
        <ele>1261.689</ele>
        <time>2020-08-11T06:34:10Z</time>
      </trkpt>
      <trkpt lat="42.237425" lon="1.731168">
        <ele>1261.917</ele>
        <time>2020-08-11T06:34:20Z</time>
      </trkpt>
      <trkpt lat="42.237505" lon="1.731101">
        <ele>1263.508</ele>
        <time>2020-08-11T06:34:29Z</time>
      </trkpt>
      <trkpt lat="42.237601" lon="1.731125">
        <ele>1267.868</ele>
        <time>2020-08-11T06:34:37Z</time>
      </trkpt>
      <trkpt lat="42.237652" lon="1.731233">
        <ele>1268.355</ele>
        <time>2020-08-11T06:34:44Z</time>
      </trkpt>
      <trkpt lat="42.237666" lon="1.731368">
        <ele>1266.452</ele>
        <time>2020-08-11T06:34:50Z</time>
      </trkpt>
      <trkpt lat="42.237644" lon="1.731490">
        <ele>1262.858</ele>
        <time>2020-08-11T06:34:58Z</time>
      </trkpt>
      <trkpt lat="42.237677" lon="1.731606">
        <ele>1262.212</ele>
        <time>2020-08-11T06:35:10Z</time>
      </trkpt>
      <trkpt lat="42.237757" lon="1.731687">
        <ele>1264.593</ele>
        <time>2020-08-11T06:35:18Z</time>
      </trkpt>
      <trkpt lat="42.237807" lon="1.731802">
        <ele>1265.116</ele>
        <time>2020-08-11T06:35:26Z</time>
      </trkpt>
      <trkpt lat="42.237805" lon="1.731940">
        <ele>1262.055</ele>
        <time>2020-08-11T06:35:34Z</time>
      </trkpt>
      <trkpt lat="42.237846" lon="1.732053">
        <ele>1262.786</ele>
        <time>2020-08-11T06:35:42Z</time>
      </trkpt>
      <trkpt lat="42.237880" lon="1.732169">
        <ele>1263.060</ele>
        <time>2020-08-11T06:35:52Z</time>
      </trkpt>
      <trkpt lat="42.237932" lon="1.732270">
        <ele>1264.826</ele>
        <time>2020-08-11T06:36:02Z</time>
      </trkpt>
      <trkpt lat="42.237972" lon="1.732386">
        <ele>1265.708</ele>
        <time>2020-08-11T06:36:11Z</time>
      </trkpt>
      <trkpt lat="42.238020" lon="1.732493">
        <ele>1266.944</ele>
        <time>2020-08-11T06:36:21Z</time>
      </trkpt>
      <trkpt lat="42.238091" lon="1.732573">
        <ele>1268.491</ele>
        <time>2020-08-11T06:36:31Z</time>
      </trkpt>
      <trkpt lat="42.238168" lon="1.732639">
        <ele>1269.458</ele>
        <time>2020-08-11T06:36:38Z</time>
      </trkpt>
      <trkpt lat="42.238254" lon="1.732677">
        <ele>1271.474</ele>
        <time>2020-08-11T06:36:53Z</time>
      </trkpt>
      <trkpt lat="42.238351" lon="1.732662">
        <ele>1274.748</ele>
        <time>2020-08-11T06:37:09Z</time>
      </trkpt>
      <trkpt lat="42.238444" lon="1.732634">
        <ele>1274.679</ele>
        <time>2020-08-11T06:37:21Z</time>
      </trkpt>
      <trkpt lat="42.238537" lon="1.732611">
        <ele>1274.662</ele>
        <time>2020-08-11T06:37:31Z</time>
      </trkpt>
      <trkpt lat="42.238649" lon="1.732509">
        <ele>1278.651</ele>
        <time>2020-08-11T06:37:47Z</time>
      </trkpt>
      <trkpt lat="42.238735" lon="1.732469">
        <ele>1278.142</ele>
        <time>2020-08-11T06:37:52Z</time>
      </trkpt>
      <trkpt lat="42.238798" lon="1.732368">
        <ele>1280.222</ele>
        <time>2020-08-11T06:38:02Z</time>
      </trkpt>
      <trkpt lat="42.238834" lon="1.732256">
        <ele>1283.014</ele>
        <time>2020-08-11T06:39:03Z</time>
      </trkpt>
      <trkpt lat="42.238879" lon="1.732146">
        <ele>1285.108</ele>
        <time>2020-08-11T06:39:22Z</time>
      </trkpt>
      <trkpt lat="42.238951" lon="1.732064">
        <ele>1287.770</ele>
        <time>2020-08-11T06:39:31Z</time>
      </trkpt>
      <trkpt lat="42.239041" lon="1.732027">
        <ele>1288.357</ele>
        <time>2020-08-11T06:39:38Z</time>
      </trkpt>
      <trkpt lat="42.239130" lon="1.731963">
        <ele>1288.464</ele>
        <time>2020-08-11T06:40:06Z</time>
      </trkpt>
      <trkpt lat="42.239198" lon="1.731848">
        <ele>1286.260</ele>
        <time>2020-08-11T06:40:17Z</time>
      </trkpt>
      <trkpt lat="42.239256" lon="1.731749">
        <ele>1282.844</ele>
        <time>2020-08-11T06:40:28Z</time>
      </trkpt>
      <trkpt lat="42.239300" lon="1.731640">
        <ele>1279.755</ele>
        <time>2020-08-11T06:40:37Z</time>
      </trkpt>
      <trkpt lat="42.239393" lon="1.731653">
        <ele>1274.788</ele>
        <time>2020-08-11T06:41:10Z</time>
      </trkpt>
      <trkpt lat="42.239335" lon="1.731548">
        <ele>1277.117</ele>
        <time>2020-08-11T06:41:47Z</time>
      </trkpt>
      <trkpt lat="42.239316" lon="1.731426">
        <ele>1277.549</ele>
        <time>2020-08-11T06:42:02Z</time>
      </trkpt>
      <trkpt lat="42.239366" lon="1.731318">
        <ele>1274.702</ele>
        <time>2020-08-11T06:42:10Z</time>
      </trkpt>
      <trkpt lat="42.239420" lon="1.731220">
        <ele>1271.922</ele>
        <time>2020-08-11T06:42:17Z</time>
      </trkpt>
      <trkpt lat="42.239488" lon="1.731058">
        <ele>1268.808</ele>
        <time>2020-08-11T06:42:28Z</time>
      </trkpt>
      <trkpt lat="42.239514" lon="1.730939">
        <ele>1269.690</ele>
        <time>2020-08-11T06:42:32Z</time>
      </trkpt>
      <trkpt lat="42.239434" lon="1.730850">
        <ele>1274.527</ele>
        <time>2020-08-11T06:42:39Z</time>
      </trkpt>
      <trkpt lat="42.239465" lon="1.730715">
        <ele>1279.794</ele>
        <time>2020-08-11T06:42:52Z</time>
      </trkpt>
      <trkpt lat="42.239569" lon="1.730717">
        <ele>1275.960</ele>
        <time>2020-08-11T06:43:05Z</time>
      </trkpt>
      <trkpt lat="42.239648" lon="1.730652">
        <ele>1276.274</ele>
        <time>2020-08-11T06:43:16Z</time>
      </trkpt>
      <trkpt lat="42.239757" lon="1.730602">
        <ele>1273.795</ele>
        <time>2020-08-11T06:43:24Z</time>
      </trkpt>
      <trkpt lat="42.239842" lon="1.730555">
        <ele>1270.228</ele>
        <time>2020-08-11T06:43:27Z</time>
      </trkpt>
      <trkpt lat="42.239910" lon="1.730447">
        <ele>1265.787</ele>
        <time>2020-08-11T06:43:38Z</time>
      </trkpt>
      <trkpt lat="42.239961" lon="1.730342">
        <ele>1261.192</ele>
        <time>2020-08-11T06:43:49Z</time>
      </trkpt>
      <trkpt lat="42.239929" lon="1.730225">
        <ele>1263.673</ele>
        <time>2020-08-11T06:44:01Z</time>
      </trkpt>
      <trkpt lat="42.239919" lon="1.730104">
        <ele>1264.320</ele>
        <time>2020-08-11T06:44:13Z</time>
      </trkpt>
      <trkpt lat="42.239923" lon="1.729978">
        <ele>1264.708</ele>
        <time>2020-08-11T06:44:28Z</time>
      </trkpt>
      <trkpt lat="42.240024" lon="1.729961">
        <ele>1259.935</ele>
        <time>2020-08-11T06:44:41Z</time>
      </trkpt>
      <trkpt lat="42.240117" lon="1.729945">
        <ele>1259.832</ele>
        <time>2020-08-11T06:44:53Z</time>
      </trkpt>
      <trkpt lat="42.240192" lon="1.729858">
        <ele>1264.879</ele>
        <time>2020-08-11T06:45:03Z</time>
      </trkpt>
      <trkpt lat="42.240287" lon="1.729860">
        <ele>1264.035</ele>
        <time>2020-08-11T06:45:14Z</time>
      </trkpt>
      <trkpt lat="42.240417" lon="1.729834">
        <ele>1264.139</ele>
        <time>2020-08-11T06:45:20Z</time>
      </trkpt>
      <trkpt lat="42.240528" lon="1.729858">
        <ele>1261.410</ele>
        <time>2020-08-11T06:45:27Z</time>
      </trkpt>
      <trkpt lat="42.240628" lon="1.729904">
        <ele>1256.413</ele>
        <time>2020-08-11T06:45:31Z</time>
      </trkpt>
      <trkpt lat="42.240657" lon="1.729777">
        <ele>1260.422</ele>
        <time>2020-08-11T06:45:40Z</time>
      </trkpt>
      <trkpt lat="42.240679" lon="1.729654">
        <ele>1264.319</ele>
        <time>2020-08-11T06:45:47Z</time>
      </trkpt>
      <trkpt lat="42.240699" lon="1.729532">
        <ele>1268.009</ele>
        <time>2020-08-11T06:45:55Z</time>
      </trkpt>
      <trkpt lat="42.240738" lon="1.729388">
        <ele>1271.419</ele>
        <time>2020-08-11T06:46:06Z</time>
      </trkpt>
      <trkpt lat="42.240826" lon="1.729298">
        <ele>1270.208</ele>
        <time>2020-08-11T06:46:15Z</time>
      </trkpt>
      <trkpt lat="42.240900" lon="1.729179">
        <ele>1271.627</ele>
        <time>2020-08-11T06:46:26Z</time>
      </trkpt>
      <trkpt lat="42.241018" lon="1.729067">
        <ele>1271.654</ele>
        <time>2020-08-11T06:46:40Z</time>
      </trkpt>
      <trkpt lat="42.241113" lon="1.729031">
        <ele>1269.361</ele>
        <time>2020-08-11T06:46:47Z</time>
      </trkpt>
      <trkpt lat="42.241204" lon="1.728977">
        <ele>1269.477</ele>
        <time>2020-08-11T06:46:54Z</time>
      </trkpt>
      <trkpt lat="42.241275" lon="1.728883">
        <ele>1271.521</ele>
        <time>2020-08-11T06:47:04Z</time>
      </trkpt>
      <trkpt lat="42.241329" lon="1.728779">
        <ele>1274.262</ele>
        <time>2020-08-11T06:47:15Z</time>
      </trkpt>
      <trkpt lat="42.241438" lon="1.728813">
        <ele>1270.825</ele>
        <time>2020-08-11T06:47:23Z</time>
      </trkpt>
      <trkpt lat="42.241546" lon="1.728862">
        <ele>1268.884</ele>
        <time>2020-08-11T06:47:30Z</time>
      </trkpt>
      <trkpt lat="42.241631" lon="1.728907">
        <ele>1267.484</ele>
        <time>2020-08-11T06:47:41Z</time>
      </trkpt>
      <trkpt lat="42.241726" lon="1.728858">
        <ele>1266.107</ele>
        <time>2020-08-11T06:47:45Z</time>
      </trkpt>
      <trkpt lat="42.241794" lon="1.728735">
        <ele>1265.817</ele>
        <time>2020-08-11T06:48:00Z</time>
      </trkpt>
      <trkpt lat="42.241799" lon="1.728602">
        <ele>1268.508</ele>
        <time>2020-08-11T06:48:08Z</time>
      </trkpt>
      <trkpt lat="42.241875" lon="1.728506">
        <ele>1268.254</ele>
        <time>2020-08-11T06:48:14Z</time>
      </trkpt>
      <trkpt lat="42.241960" lon="1.728448">
        <ele>1267.561</ele>
        <time>2020-08-11T06:48:21Z</time>
      </trkpt>
      <trkpt lat="42.242050" lon="1.728488">
        <ele>1267.058</ele>
        <time>2020-08-11T06:48:33Z</time>
      </trkpt>
      <trkpt lat="42.242149" lon="1.728500">
        <ele>1267.574</ele>
        <time>2020-08-11T06:48:52Z</time>
      </trkpt>
      <trkpt lat="42.242241" lon="1.728470">
        <ele>1269.168</ele>
        <time>2020-08-11T06:49:00Z</time>
      </trkpt>
      <trkpt lat="42.242332" lon="1.728430">
        <ele>1268.619</ele>
        <time>2020-08-11T06:49:09Z</time>
      </trkpt>
      <trkpt lat="42.242416" lon="1.728386">
        <ele>1268.282</ele>
        <time>2020-08-11T06:49:17Z</time>
      </trkpt>
      <trkpt lat="42.242504" lon="1.728327">
        <ele>1268.111</ele>
        <time>2020-08-11T06:49:25Z</time>
      </trkpt>
      <trkpt lat="42.242565" lon="1.728213">
        <ele>1269.668</ele>
        <time>2020-08-11T06:49:34Z</time>
      </trkpt>
      <trkpt lat="42.242609" lon="1.728101">
        <ele>1271.642</ele>
        <time>2020-08-11T06:49:44Z</time>
      </trkpt>
      <trkpt lat="42.242633" lon="1.727982">
        <ele>1274.926</ele>
        <time>2020-08-11T06:49:58Z</time>
      </trkpt>
      <trkpt lat="42.242729" lon="1.727965">
        <ele>1272.008</ele>
        <time>2020-08-11T06:50:11Z</time>
      </trkpt>
      <trkpt lat="42.242843" lon="1.727920">
        <ele>1272.262</ele>
        <time>2020-08-11T06:50:17Z</time>
      </trkpt>
      <trkpt lat="42.242956" lon="1.727897">
        <ele>1273.489</ele>
        <time>2020-08-11T06:50:20Z</time>
      </trkpt>
      <trkpt lat="42.243046" lon="1.727932">
        <ele>1273.216</ele>
        <time>2020-08-11T06:50:29Z</time>
      </trkpt>
      <trkpt lat="42.243134" lon="1.727986">
        <ele>1277.612</ele>
        <time>2020-08-11T06:50:34Z</time>
      </trkpt>
      <trkpt lat="42.243155" lon="1.728105">
        <ele>1276.816</ele>
        <time>2020-08-11T06:50:42Z</time>
      </trkpt>
      <trkpt lat="42.243244" lon="1.728180">
        <ele>1281.587</ele>
        <time>2020-08-11T06:50:46Z</time>
      </trkpt>
      <trkpt lat="42.243263" lon="1.728307">
        <ele>1280.460</ele>
        <time>2020-08-11T06:50:56Z</time>
      </trkpt>
      <trkpt lat="42.243248" lon="1.728435">
        <ele>1277.159</ele>
        <time>2020-08-11T06:51:05Z</time>
      </trkpt>
      <trkpt lat="42.243255" lon="1.728571">
        <ele>1275.388</ele>
        <time>2020-08-11T06:51:19Z</time>
      </trkpt>
      <trkpt lat="42.243337" lon="1.728624">
        <ele>1280.024</ele>
        <time>2020-08-11T06:51:29Z</time>
      </trkpt>
      <trkpt lat="42.243436" lon="1.728660">
        <ele>1285.626</ele>
        <time>2020-08-11T06:51:37Z</time>
      </trkpt>
      <trkpt lat="42.243481" lon="1.728774">
        <ele>1286.008</ele>
        <time>2020-08-11T06:51:47Z</time>
      </trkpt>
      <trkpt lat="42.243544" lon="1.728891">
        <ele>1287.664</ele>
        <time>2020-08-11T06:51:59Z</time>
      </trkpt>
      <trkpt lat="42.243584" lon="1.729000">
        <ele>1287.941</ele>
        <time>2020-08-11T06:52:09Z</time>
      </trkpt>
      <trkpt lat="42.243626" lon="1.729125">
        <ele>1288.068</ele>
        <time>2020-08-11T06:52:16Z</time>
      </trkpt>
      <trkpt lat="42.243658" lon="1.729241">
        <ele>1288.324</ele>
        <time>2020-08-11T06:52:24Z</time>
      </trkpt>
      <trkpt lat="42.243685" lon="1.729384">
        <ele>1288.018</ele>
        <time>2020-08-11T06:52:34Z</time>
      </trkpt>
      <trkpt lat="42.243752" lon="1.729526">
        <ele>1290.039</ele>
        <time>2020-08-11T06:52:43Z</time>
      </trkpt>
      <trkpt lat="42.243774" lon="1.729652">
        <ele>1289.122</ele>
        <time>2020-08-11T06:52:53Z</time>
      </trkpt>
      <trkpt lat="42.243830" lon="1.729757">
        <ele>1291.051</ele>
        <time>2020-08-11T06:53:00Z</time>
      </trkpt>
      <trkpt lat="42.243877" lon="1.729864">
        <ele>1292.125</ele>
        <time>2020-08-11T06:53:12Z</time>
      </trkpt>
      <trkpt lat="42.243929" lon="1.729982">
        <ele>1292.926</ele>
        <time>2020-08-11T06:53:26Z</time>
      </trkpt>
      <trkpt lat="42.243952" lon="1.730105">
        <ele>1292.008</ele>
        <time>2020-08-11T06:53:48Z</time>
      </trkpt>
      <trkpt lat="42.244028" lon="1.730173">
        <ele>1295.408</ele>
        <time>2020-08-11T06:54:26Z</time>
      </trkpt>
      <trkpt lat="42.244101" lon="1.730249">
        <ele>1298.588</ele>
        <time>2020-08-11T06:54:35Z</time>
      </trkpt>
      <trkpt lat="42.244166" lon="1.730345">
        <ele>1300.835</ele>
        <time>2020-08-11T06:54:43Z</time>
      </trkpt>
      <trkpt lat="42.244218" lon="1.730448">
        <ele>1300.362</ele>
        <time>2020-08-11T06:54:50Z</time>
      </trkpt>
      <trkpt lat="42.244249" lon="1.730563">
        <ele>1298.748</ele>
        <time>2020-08-11T06:55:00Z</time>
      </trkpt>
      <trkpt lat="42.244291" lon="1.730687">
        <ele>1297.952</ele>
        <time>2020-08-11T06:55:10Z</time>
      </trkpt>
      <trkpt lat="42.244330" lon="1.730574">
        <ele>1300.243</ele>
        <time>2020-08-11T06:55:38Z</time>
      </trkpt>
      <trkpt lat="42.244358" lon="1.730448">
        <ele>1303.986</ele>
        <time>2020-08-11T06:55:50Z</time>
      </trkpt>
      <trkpt lat="42.244398" lon="1.730333">
        <ele>1308.095</ele>
        <time>2020-08-11T06:56:00Z</time>
      </trkpt>
      <trkpt lat="42.244499" lon="1.730293">
        <ele>1310.221</ele>
        <time>2020-08-11T06:56:15Z</time>
      </trkpt>
      <trkpt lat="42.244574" lon="1.730216">
        <ele>1312.041</ele>
        <time>2020-08-11T06:56:30Z</time>
      </trkpt>
      <trkpt lat="42.244657" lon="1.730160">
        <ele>1313.005</ele>
        <time>2020-08-11T06:56:53Z</time>
      </trkpt>
      <trkpt lat="42.244744" lon="1.730097">
        <ele>1313.108</ele>
        <time>2020-08-11T06:57:04Z</time>
      </trkpt>
      <trkpt lat="42.244742" lon="1.729971">
        <ele>1316.438</ele>
        <time>2020-08-11T06:57:19Z</time>
      </trkpt>
      <trkpt lat="42.244770" lon="1.729855">
        <ele>1316.875</ele>
        <time>2020-08-11T06:57:27Z</time>
      </trkpt>
      <trkpt lat="42.244756" lon="1.729727">
        <ele>1319.752</ele>
        <time>2020-08-11T06:57:38Z</time>
      </trkpt>
      <trkpt lat="42.244762" lon="1.729604">
        <ele>1322.098</ele>
        <time>2020-08-11T06:57:49Z</time>
      </trkpt>
      <trkpt lat="42.244775" lon="1.729459">
        <ele>1324.392</ele>
        <time>2020-08-11T06:58:03Z</time>
      </trkpt>
      <trkpt lat="42.244826" lon="1.729357">
        <ele>1324.213</ele>
        <time>2020-08-11T06:58:10Z</time>
      </trkpt>
      <trkpt lat="42.244854" lon="1.729230">
        <ele>1326.876</ele>
        <time>2020-08-11T06:58:22Z</time>
      </trkpt>
      <trkpt lat="42.244868" lon="1.729104">
        <ele>1330.265</ele>
        <time>2020-08-11T06:58:34Z</time>
      </trkpt>
      <trkpt lat="42.244936" lon="1.729017">
        <ele>1328.958</ele>
        <time>2020-08-11T06:58:44Z</time>
      </trkpt>
      <trkpt lat="42.244895" lon="1.728896">
        <ele>1335.652</ele>
        <time>2020-08-11T06:59:02Z</time>
      </trkpt>
      <trkpt lat="42.244981" lon="1.728792">
        <ele>1331.017</ele>
        <time>2020-08-11T06:59:12Z</time>
      </trkpt>
      <trkpt lat="42.244995" lon="1.728618">
        <ele>1331.308</ele>
        <time>2020-08-11T06:59:24Z</time>
      </trkpt>
      <trkpt lat="42.244984" lon="1.728495">
        <ele>1334.621</ele>
        <time>2020-08-11T06:59:32Z</time>
      </trkpt>
      <trkpt lat="42.244969" lon="1.728357">
        <ele>1338.458</ele>
        <time>2020-08-11T06:59:40Z</time>
      </trkpt>
      <trkpt lat="42.244975" lon="1.728224">
        <ele>1341.295</ele>
        <time>2020-08-11T06:59:49Z</time>
      </trkpt>
      <trkpt lat="42.245010" lon="1.728107">
        <ele>1341.911</ele>
        <time>2020-08-11T06:59:56Z</time>
      </trkpt>
      <trkpt lat="42.245102" lon="1.728075">
        <ele>1335.735</ele>
        <time>2020-08-11T07:00:01Z</time>
      </trkpt>
      <trkpt lat="42.245167" lon="1.727990">
        <ele>1332.746</ele>
        <time>2020-08-11T07:00:09Z</time>
      </trkpt>
      <trkpt lat="42.245195" lon="1.727864">
        <ele>1333.569</ele>
        <time>2020-08-11T07:00:17Z</time>
      </trkpt>
      <trkpt lat="42.245236" lon="1.727753">
        <ele>1334.748</ele>
        <time>2020-08-11T07:00:35Z</time>
      </trkpt>
      <trkpt lat="42.245249" lon="1.727624">
        <ele>1341.955</ele>
        <time>2020-08-11T07:00:58Z</time>
      </trkpt>
      <trkpt lat="42.245347" lon="1.727644">
        <ele>1337.707</ele>
        <time>2020-08-11T07:01:10Z</time>
      </trkpt>
      <trkpt lat="42.245462" lon="1.727753">
        <ele>1329.517</ele>
        <time>2020-08-11T07:01:31Z</time>
      </trkpt>
      <trkpt lat="42.245540" lon="1.727815">
        <ele>1326.308</ele>
        <time>2020-08-11T07:01:34Z</time>
      </trkpt>
      <trkpt lat="42.245609" lon="1.727959">
        <ele>1325.961</ele>
        <time>2020-08-11T07:01:44Z</time>
      </trkpt>
      <trkpt lat="42.245648" lon="1.728076">
        <ele>1324.948</ele>
        <time>2020-08-11T07:01:51Z</time>
      </trkpt>
      <trkpt lat="42.245733" lon="1.728121">
        <ele>1328.575</ele>
        <time>2020-08-11T07:02:01Z</time>
      </trkpt>
      <trkpt lat="42.245813" lon="1.728192">
        <ele>1330.871</ele>
        <time>2020-08-11T07:02:09Z</time>
      </trkpt>
      <trkpt lat="42.245880" lon="1.728280">
        <ele>1330.455</ele>
        <time>2020-08-11T07:02:20Z</time>
      </trkpt>
      <trkpt lat="42.245965" lon="1.728339">
        <ele>1330.576</ele>
        <time>2020-08-11T07:02:31Z</time>
      </trkpt>
      <trkpt lat="42.246045" lon="1.728409">
        <ele>1329.559</ele>
        <time>2020-08-11T07:03:00Z</time>
      </trkpt>
      <trkpt lat="42.246105" lon="1.728308">
        <ele>1336.158</ele>
        <time>2020-08-11T07:03:16Z</time>
      </trkpt>
      <trkpt lat="42.246174" lon="1.728214">
        <ele>1340.984</ele>
        <time>2020-08-11T07:03:27Z</time>
      </trkpt>
      <trkpt lat="42.246267" lon="1.728191">
        <ele>1342.207</ele>
        <time>2020-08-11T07:03:38Z</time>
      </trkpt>
      <trkpt lat="42.246356" lon="1.728231">
        <ele>1339.217</ele>
        <time>2020-08-11T07:03:48Z</time>
      </trkpt>
      <trkpt lat="42.246447" lon="1.728266">
        <ele>1337.508</ele>
        <time>2020-08-11T07:03:58Z</time>
      </trkpt>
      <trkpt lat="42.246530" lon="1.728322">
        <ele>1335.344</ele>
        <time>2020-08-11T07:04:05Z</time>
      </trkpt>
      <trkpt lat="42.246618" lon="1.728369">
        <ele>1334.891</ele>
        <time>2020-08-11T07:04:13Z</time>
      </trkpt>
      <trkpt lat="42.246699" lon="1.728425">
        <ele>1333.328</ele>
        <time>2020-08-11T07:04:27Z</time>
      </trkpt>
      <trkpt lat="42.246792" lon="1.728442">
        <ele>1333.064</ele>
        <time>2020-08-11T07:04:36Z</time>
      </trkpt>
      <trkpt lat="42.246894" lon="1.728451">
        <ele>1333.318</ele>
        <time>2020-08-11T07:04:44Z</time>
      </trkpt>
      <trkpt lat="42.246988" lon="1.728486">
        <ele>1331.239</ele>
        <time>2020-08-11T07:04:53Z</time>
      </trkpt>
      <trkpt lat="42.247078" lon="1.728457">
        <ele>1331.662</ele>
        <time>2020-08-11T07:05:04Z</time>
      </trkpt>
      <trkpt lat="42.247177" lon="1.728414">
        <ele>1332.281</ele>
        <time>2020-08-11T07:05:11Z</time>
      </trkpt>
      <trkpt lat="42.247261" lon="1.728357">
        <ele>1332.594</ele>
        <time>2020-08-11T07:05:22Z</time>
      </trkpt>
      <trkpt lat="42.247366" lon="1.728341">
        <ele>1329.057</ele>
        <time>2020-08-11T07:05:41Z</time>
      </trkpt>
      <trkpt lat="42.247446" lon="1.728282">
        <ele>1326.922</ele>
        <time>2020-08-11T07:07:36Z</time>
      </trkpt>
      <trkpt lat="42.247481" lon="1.728148">
        <ele>1326.108</ele>
        <time>2020-08-11T07:08:01Z</time>
      </trkpt>
      <trkpt lat="42.247512" lon="1.728030">
        <ele>1324.125</ele>
        <time>2020-08-11T07:08:12Z</time>
      </trkpt>
      <trkpt lat="42.247444" lon="1.727942">
        <ele>1332.852</ele>
        <time>2020-08-11T07:08:20Z</time>
      </trkpt>
      <trkpt lat="42.247473" lon="1.727824">
        <ele>1331.319</ele>
        <time>2020-08-11T07:08:31Z</time>
      </trkpt>
      <trkpt lat="42.247509" lon="1.727709">
        <ele>1328.995</ele>
        <time>2020-08-11T07:08:38Z</time>
      </trkpt>
      <trkpt lat="42.247538" lon="1.727586">
        <ele>1329.559</ele>
        <time>2020-08-11T07:08:48Z</time>
      </trkpt>
      <trkpt lat="42.247538" lon="1.727464">
        <ele>1332.730</ele>
        <time>2020-08-11T07:08:59Z</time>
      </trkpt>
      <trkpt lat="42.247576" lon="1.727344">
        <ele>1333.273</ele>
        <time>2020-08-11T07:09:09Z</time>
      </trkpt>
      <trkpt lat="42.247632" lon="1.727222">
        <ele>1332.182</ele>
        <time>2020-08-11T07:09:20Z</time>
      </trkpt>
      <trkpt lat="42.247674" lon="1.727114">
        <ele>1331.034</ele>
        <time>2020-08-11T07:09:28Z</time>
      </trkpt>
      <trkpt lat="42.247774" lon="1.727033">
        <ele>1324.855</ele>
        <time>2020-08-11T07:09:34Z</time>
      </trkpt>
      <trkpt lat="42.247768" lon="1.726905">
        <ele>1328.810</ele>
        <time>2020-08-11T07:09:43Z</time>
      </trkpt>
      <trkpt lat="42.247766" lon="1.726777">
        <ele>1332.208</ele>
        <time>2020-08-11T07:09:53Z</time>
      </trkpt>
      <trkpt lat="42.247846" lon="1.726682">
        <ele>1329.289</ele>
        <time>2020-08-11T07:10:02Z</time>
      </trkpt>
      <trkpt lat="42.247911" lon="1.726584">
        <ele>1328.626</ele>
        <time>2020-08-11T07:10:14Z</time>
      </trkpt>
      <trkpt lat="42.247979" lon="1.726490">
        <ele>1328.043</ele>
        <time>2020-08-11T07:10:24Z</time>
      </trkpt>
      <trkpt lat="42.248061" lon="1.726414">
        <ele>1325.629</ele>
        <time>2020-08-11T07:10:29Z</time>
      </trkpt>
      <trkpt lat="42.248152" lon="1.726350">
        <ele>1321.493</ele>
        <time>2020-08-11T07:10:36Z</time>
      </trkpt>
      <trkpt lat="42.248201" lon="1.726228">
        <ele>1321.114</ele>
        <time>2020-08-11T07:10:46Z</time>
      </trkpt>
      <trkpt lat="42.248292" lon="1.726085">
        <ele>1318.867</ele>
        <time>2020-08-11T07:11:00Z</time>
      </trkpt>
      <trkpt lat="42.248317" lon="1.725964">
        <ele>1321.466</ele>
        <time>2020-08-11T07:11:13Z</time>
      </trkpt>
      <trkpt lat="42.248374" lon="1.725864">
        <ele>1321.453</ele>
        <time>2020-08-11T07:11:24Z</time>
      </trkpt>
      <trkpt lat="42.248453" lon="1.725764">
        <ele>1320.204</ele>
        <time>2020-08-11T07:11:32Z</time>
      </trkpt>
      <trkpt lat="42.248541" lon="1.725712">
        <ele>1317.214</ele>
        <time>2020-08-11T07:11:40Z</time>
      </trkpt>
      <trkpt lat="42.248639" lon="1.725689">
        <ele>1313.208</ele>
        <time>2020-08-11T07:11:48Z</time>
      </trkpt>
      <trkpt lat="42.248719" lon="1.725632">
        <ele>1312.851</ele>
        <time>2020-08-11T07:11:57Z</time>
      </trkpt>
      <trkpt lat="42.248806" lon="1.725578">
        <ele>1312.038</ele>
        <time>2020-08-11T07:12:05Z</time>
      </trkpt>
      <trkpt lat="42.248868" lon="1.725469">
        <ele>1313.115</ele>
        <time>2020-08-11T07:12:17Z</time>
      </trkpt>
      <trkpt lat="42.248924" lon="1.725363">
        <ele>1312.341</ele>
        <time>2020-08-11T07:12:25Z</time>
      </trkpt>
      <trkpt lat="42.248990" lon="1.725258">
        <ele>1309.825</ele>
        <time>2020-08-11T07:12:35Z</time>
      </trkpt>
      <trkpt lat="42.249029" lon="1.725148">
        <ele>1309.296</ele>
        <time>2020-08-11T07:12:51Z</time>
      </trkpt>
      <trkpt lat="42.249064" lon="1.725017">
        <ele>1309.259</ele>
        <time>2020-08-11T07:13:07Z</time>
      </trkpt>
      <trkpt lat="42.249197" lon="1.724950">
        <ele>1298.338</ele>
        <time>2020-08-11T07:13:15Z</time>
      </trkpt>
      <trkpt lat="42.249288" lon="1.724922">
        <ele>1290.672</ele>
        <time>2020-08-11T07:13:23Z</time>
      </trkpt>
      <trkpt lat="42.249216" lon="1.724844">
        <ele>1297.013</ele>
        <time>2020-08-11T07:13:36Z</time>
      </trkpt>
      <trkpt lat="42.249165" lon="1.724730">
        <ele>1301.114</ele>
        <time>2020-08-11T07:13:46Z</time>
      </trkpt>
      <trkpt lat="42.249172" lon="1.724572">
        <ele>1303.908</ele>
        <time>2020-08-11T07:14:02Z</time>
      </trkpt>
      <trkpt lat="42.249175" lon="1.724446">
        <ele>1306.453</ele>
        <time>2020-08-11T07:14:12Z</time>
      </trkpt>
      <trkpt lat="42.249197" lon="1.724321">
        <ele>1308.550</ele>
        <time>2020-08-11T07:14:23Z</time>
      </trkpt>
      <trkpt lat="42.249266" lon="1.724213">
        <ele>1306.987</ele>
        <time>2020-08-11T07:14:33Z</time>
      </trkpt>
      <trkpt lat="42.249256" lon="1.724089">
        <ele>1311.073</ele>
        <time>2020-08-11T07:14:47Z</time>
      </trkpt>
      <trkpt lat="42.249283" lon="1.723972">
        <ele>1312.457</ele>
        <time>2020-08-11T07:14:58Z</time>
      </trkpt>
      <trkpt lat="42.249373" lon="1.723954">
        <ele>1306.458</ele>
        <time>2020-08-11T07:15:02Z</time>
      </trkpt>
      <trkpt lat="42.249405" lon="1.723827">
        <ele>1307.231</ele>
        <time>2020-08-11T07:15:15Z</time>
      </trkpt>
      <trkpt lat="42.249410" lon="1.723697">
        <ele>1309.610</ele>
        <time>2020-08-11T07:15:29Z</time>
      </trkpt>
      <trkpt lat="42.249410" lon="1.723576">
        <ele>1312.055</ele>
        <time>2020-08-11T07:15:39Z</time>
      </trkpt>
      <trkpt lat="42.249585" lon="1.723513">
        <ele>1300.507</ele>
        <time>2020-08-11T07:15:47Z</time>
      </trkpt>
      <trkpt lat="42.249682" lon="1.723512">
        <ele>1293.617</ele>
        <time>2020-08-11T07:15:49Z</time>
      </trkpt>
      <trkpt lat="42.249804" lon="1.723519">
        <ele>1285.108</ele>
        <time>2020-08-11T07:15:51Z</time>
      </trkpt>
      <trkpt lat="42.250617" lon="1.721975">
        <ele>1274.451</ele>
        <time>2020-08-11T07:18:40Z</time>
      </trkpt>
      <trkpt lat="42.250704" lon="1.721882">
        <ele>1270.868</ele>
        <time>2020-08-11T07:18:52Z</time>
      </trkpt>
      <trkpt lat="42.250798" lon="1.721868">
        <ele>1264.265</ele>
        <time>2020-08-11T07:18:56Z</time>
      </trkpt>
      <trkpt lat="42.250759" lon="1.721709">
        <ele>1270.771</ele>
        <time>2020-08-11T07:19:10Z</time>
      </trkpt>
      <trkpt lat="42.250766" lon="1.721582">
        <ele>1268.925</ele>
        <time>2020-08-11T07:19:17Z</time>
      </trkpt>
      <trkpt lat="42.250853" lon="1.721528">
        <ele>1261.446</ele>
        <time>2020-08-11T07:19:21Z</time>
      </trkpt>
      <trkpt lat="42.250802" lon="1.721426">
        <ele>1262.729</ele>
        <time>2020-08-11T07:19:28Z</time>
      </trkpt>
      <trkpt lat="42.250795" lon="1.721302">
        <ele>1263.148</ele>
        <time>2020-08-11T07:19:46Z</time>
      </trkpt>
      <trkpt lat="42.250877" lon="1.721199">
        <ele>1259.899</ele>
        <time>2020-08-11T07:20:06Z</time>
      </trkpt>
      <trkpt lat="42.250965" lon="1.721130">
        <ele>1257.607</ele>
        <time>2020-08-11T07:20:26Z</time>
      </trkpt>
      <trkpt lat="42.251008" lon="1.721020">
        <ele>1261.927</ele>
        <time>2020-08-11T07:20:40Z</time>
      </trkpt>
      <trkpt lat="42.251092" lon="1.720938">
        <ele>1262.608</ele>
        <time>2020-08-11T07:20:50Z</time>
      </trkpt>
      <trkpt lat="42.251164" lon="1.720846">
        <ele>1263.545</ele>
        <time>2020-08-11T07:21:00Z</time>
      </trkpt>
      <trkpt lat="42.251252" lon="1.720780">
        <ele>1261.012</ele>
        <time>2020-08-11T07:21:08Z</time>
      </trkpt>
      <trkpt lat="42.251322" lon="1.720690">
        <ele>1259.979</ele>
        <time>2020-08-11T07:21:17Z</time>
      </trkpt>
      <trkpt lat="42.251376" lon="1.720580">
        <ele>1260.095</ele>
        <time>2020-08-11T07:21:27Z</time>
      </trkpt>
      <trkpt lat="42.251440" lon="1.720482">
        <ele>1258.349</ele>
        <time>2020-08-11T07:21:34Z</time>
      </trkpt>
      <trkpt lat="42.251492" lon="1.720378">
        <ele>1257.070</ele>
        <time>2020-08-11T07:21:43Z</time>
      </trkpt>
      <trkpt lat="42.251546" lon="1.720270">
        <ele>1255.383</ele>
        <time>2020-08-11T07:21:54Z</time>
      </trkpt>
      <trkpt lat="42.251567" lon="1.720138">
        <ele>1253.122</ele>
        <time>2020-08-11T07:22:04Z</time>
      </trkpt>
      <trkpt lat="42.251591" lon="1.720006">
        <ele>1250.777</ele>
        <time>2020-08-11T07:22:15Z</time>
      </trkpt>
      <trkpt lat="42.251587" lon="1.719883">
        <ele>1253.061</ele>
        <time>2020-08-11T07:22:22Z</time>
      </trkpt>
      <trkpt lat="42.251680" lon="1.719860">
        <ele>1248.327</ele>
        <time>2020-08-11T07:22:30Z</time>
      </trkpt>
      <trkpt lat="42.251744" lon="1.719764">
        <ele>1247.208</ele>
        <time>2020-08-11T07:22:37Z</time>
      </trkpt>
      <trkpt lat="42.251808" lon="1.719653">
        <ele>1246.933</ele>
        <time>2020-08-11T07:22:44Z</time>
      </trkpt>
      <trkpt lat="42.251870" lon="1.719558">
        <ele>1246.250</ele>
        <time>2020-08-11T07:22:53Z</time>
      </trkpt>
      <trkpt lat="42.251975" lon="1.719510">
        <ele>1241.587</ele>
        <time>2020-08-11T07:23:01Z</time>
      </trkpt>
      <trkpt lat="42.251976" lon="1.719371">
        <ele>1244.273</ele>
        <time>2020-08-11T07:23:15Z</time>
      </trkpt>
      <trkpt lat="42.251932" lon="1.719257">
        <ele>1248.557</ele>
        <time>2020-08-11T07:23:20Z</time>
      </trkpt>
      <trkpt lat="42.252030" lon="1.719222">
        <ele>1243.238</ele>
        <time>2020-08-11T07:23:33Z</time>
      </trkpt>
      <trkpt lat="42.252125" lon="1.719174">
        <ele>1238.561</ele>
        <time>2020-08-11T07:23:41Z</time>
      </trkpt>
      <trkpt lat="42.252237" lon="1.719162">
        <ele>1232.060</ele>
        <time>2020-08-11T07:23:48Z</time>
      </trkpt>
      <trkpt lat="42.252359" lon="1.719076">
        <ele>1224.918</ele>
        <time>2020-08-11T07:24:03Z</time>
      </trkpt>
      <trkpt lat="42.252285" lon="1.718968">
        <ele>1231.298</ele>
        <time>2020-08-11T07:24:13Z</time>
      </trkpt>
      <trkpt lat="42.252260" lon="1.718843">
        <ele>1234.317</ele>
        <time>2020-08-11T07:24:20Z</time>
      </trkpt>
      <trkpt lat="42.252355" lon="1.718834">
        <ele>1228.508</ele>
        <time>2020-08-11T07:24:24Z</time>
      </trkpt>
      <trkpt lat="42.252405" lon="1.718701">
        <ele>1226.617</ele>
        <time>2020-08-11T07:24:31Z</time>
      </trkpt>
      <trkpt lat="42.252510" lon="1.718684">
        <ele>1220.274</ele>
        <time>2020-08-11T07:24:35Z</time>
      </trkpt>
      <trkpt lat="42.252642" lon="1.718675">
        <ele>1216.191</ele>
        <time>2020-08-11T07:24:37Z</time>
      </trkpt>
      <trkpt lat="42.252607" lon="1.718562">
        <ele>1218.447</ele>
        <time>2020-08-11T07:24:57Z</time>
      </trkpt>
      <trkpt lat="42.252480" lon="1.718564">
        <ele>1222.621</ele>
        <time>2020-08-11T07:25:03Z</time>
      </trkpt>
      <trkpt lat="42.252385" lon="1.718532">
        <ele>1229.442</ele>
        <time>2020-08-11T07:25:06Z</time>
      </trkpt>
      <trkpt lat="42.252382" lon="1.718406">
        <ele>1230.435</ele>
        <time>2020-08-11T07:25:20Z</time>
      </trkpt>
      <trkpt lat="42.252436" lon="1.718299">
        <ele>1227.124</ele>
        <time>2020-08-11T07:25:41Z</time>
      </trkpt>
      <trkpt lat="42.252331" lon="1.718291">
        <ele>1235.218</ele>
        <time>2020-08-11T07:25:47Z</time>
      </trkpt>
      <trkpt lat="42.252239" lon="1.718288">
        <ele>1242.298</ele>
        <time>2020-08-11T07:25:53Z</time>
      </trkpt>
      <trkpt lat="42.252154" lon="1.718232">
        <ele>1249.017</ele>
        <time>2020-08-11T07:26:12Z</time>
      </trkpt>
      <trkpt lat="42.252084" lon="1.718155">
        <ele>1254.908</ele>
        <time>2020-08-11T07:26:23Z</time>
      </trkpt>
      <trkpt lat="42.252158" lon="1.718063">
        <ele>1250.577</ele>
        <time>2020-08-11T07:26:33Z</time>
      </trkpt>
      <trkpt lat="42.252257" lon="1.718049">
        <ele>1243.234</ele>
        <time>2020-08-11T07:26:36Z</time>
      </trkpt>
      <trkpt lat="42.252345" lon="1.718071">
        <ele>1236.181</ele>
        <time>2020-08-11T07:26:39Z</time>
      </trkpt>
      <trkpt lat="42.252453" lon="1.718068">
        <ele>1227.657</ele>
        <time>2020-08-11T07:26:43Z</time>
      </trkpt>
      <trkpt lat="42.252550" lon="1.718044">
        <ele>1225.941</ele>
        <time>2020-08-11T07:26:48Z</time>
      </trkpt>
      <trkpt lat="42.252641" lon="1.718029">
        <ele>1229.482</ele>
        <time>2020-08-11T07:26:54Z</time>
      </trkpt>
      <trkpt lat="42.252732" lon="1.718096">
        <ele>1230.335</ele>
        <time>2020-08-11T07:27:02Z</time>
      </trkpt>
      <trkpt lat="42.252832" lon="1.718123">
        <ele>1233.774</ele>
        <time>2020-08-11T07:27:04Z</time>
      </trkpt>
      <trkpt lat="42.252918" lon="1.718167">
        <ele>1237.117</ele>
        <time>2020-08-11T07:27:12Z</time>
      </trkpt>
      <trkpt lat="42.252971" lon="1.718270">
        <ele>1236.487</ele>
        <time>2020-08-11T07:27:23Z</time>
      </trkpt>
      <trkpt lat="42.253050" lon="1.718375">
        <ele>1237.315</ele>
        <time>2020-08-11T07:27:38Z</time>
      </trkpt>
      <trkpt lat="42.253104" lon="1.718476">
        <ele>1237.608</ele>
        <time>2020-08-11T07:27:50Z</time>
      </trkpt>
      <trkpt lat="42.253178" lon="1.718561">
        <ele>1239.947</ele>
        <time>2020-08-11T07:27:58Z</time>
      </trkpt>
      <trkpt lat="42.253207" lon="1.718676">
        <ele>1238.324</ele>
        <time>2020-08-11T07:28:09Z</time>
      </trkpt>
      <trkpt lat="42.253299" lon="1.718728">
        <ele>1243.881</ele>
        <time>2020-08-11T07:28:21Z</time>
      </trkpt>
      <trkpt lat="42.253342" lon="1.718837">
        <ele>1244.647</ele>
        <time>2020-08-11T07:28:32Z</time>
      </trkpt>
      <trkpt lat="42.253390" lon="1.718944">
        <ele>1244.711</ele>
        <time>2020-08-11T07:28:41Z</time>
      </trkpt>
      <trkpt lat="42.253398" lon="1.719075">
        <ele>1242.012</ele>
        <time>2020-08-11T07:28:51Z</time>
      </trkpt>
      <trkpt lat="42.253451" lon="1.719178">
        <ele>1242.525</ele>
        <time>2020-08-11T07:29:00Z</time>
      </trkpt>
      <trkpt lat="42.253499" lon="1.719294">
        <ele>1242.864</ele>
        <time>2020-08-11T07:29:11Z</time>
      </trkpt>
      <trkpt lat="42.253557" lon="1.719403">
        <ele>1243.897</ele>
        <time>2020-08-11T07:29:19Z</time>
      </trkpt>
      <trkpt lat="42.253653" lon="1.719426">
        <ele>1245.223</ele>
        <time>2020-08-11T07:29:29Z</time>
      </trkpt>
      <trkpt lat="42.253743" lon="1.719408">
        <ele>1243.325</ele>
        <time>2020-08-11T07:29:37Z</time>
      </trkpt>
      <trkpt lat="42.253809" lon="1.719311">
        <ele>1244.908</ele>
        <time>2020-08-11T07:29:50Z</time>
      </trkpt>
      <trkpt lat="42.253889" lon="1.719247">
        <ele>1245.855</ele>
        <time>2020-08-11T07:30:02Z</time>
      </trkpt>
      <trkpt lat="42.253970" lon="1.719189">
        <ele>1243.212</ele>
        <time>2020-08-11T07:30:08Z</time>
      </trkpt>
      <trkpt lat="42.254039" lon="1.719105">
        <ele>1240.319</ele>
        <time>2020-08-11T07:30:15Z</time>
      </trkpt>
      <trkpt lat="42.254116" lon="1.719024">
        <ele>1236.115</ele>
        <time>2020-08-11T07:30:25Z</time>
      </trkpt>
      <trkpt lat="42.254195" lon="1.718936">
        <ele>1233.869</ele>
        <time>2020-08-11T07:30:38Z</time>
      </trkpt>
      <trkpt lat="42.254237" lon="1.718826">
        <ele>1235.110</ele>
        <time>2020-08-11T07:30:46Z</time>
      </trkpt>
      <trkpt lat="42.254331" lon="1.718848">
        <ele>1235.983</ele>
        <time>2020-08-11T07:31:14Z</time>
      </trkpt>
      <trkpt lat="42.254400" lon="1.718943">
        <ele>1234.582</ele>
        <time>2020-08-11T07:31:24Z</time>
      </trkpt>
      <trkpt lat="42.254459" lon="1.719045">
        <ele>1233.257</ele>
        <time>2020-08-11T07:31:34Z</time>
      </trkpt>
      <trkpt lat="42.254479" lon="1.719169">
        <ele>1231.900</ele>
        <time>2020-08-11T07:31:45Z</time>
      </trkpt>
      <trkpt lat="42.254498" lon="1.719293">
        <ele>1233.720</ele>
        <time>2020-08-11T07:31:55Z</time>
      </trkpt>
      <trkpt lat="42.254481" lon="1.719423">
        <ele>1232.708</ele>
        <time>2020-08-11T07:32:05Z</time>
      </trkpt>
      <trkpt lat="42.254487" lon="1.719577">
        <ele>1236.141</ele>
        <time>2020-08-11T07:32:19Z</time>
      </trkpt>
      <trkpt lat="42.254449" lon="1.719713">
        <ele>1236.188</ele>
        <time>2020-08-11T07:32:27Z</time>
      </trkpt>
      <trkpt lat="42.254411" lon="1.719835">
        <ele>1236.565</ele>
        <time>2020-08-11T07:32:34Z</time>
      </trkpt>
      <trkpt lat="42.254390" lon="1.719977">
        <ele>1238.421</ele>
        <time>2020-08-11T07:32:46Z</time>
      </trkpt>
      <trkpt lat="42.254365" lon="1.720103">
        <ele>1239.395</ele>
        <time>2020-08-11T07:32:55Z</time>
      </trkpt>
      <trkpt lat="42.254326" lon="1.720223">
        <ele>1239.286</ele>
        <time>2020-08-11T07:33:03Z</time>
      </trkpt>
      <trkpt lat="42.254349" lon="1.720342">
        <ele>1243.019</ele>
        <time>2020-08-11T07:33:15Z</time>
      </trkpt>
      <trkpt lat="42.254328" lon="1.720486">
        <ele>1243.448</ele>
        <time>2020-08-11T07:33:28Z</time>
      </trkpt>
      <trkpt lat="42.254350" lon="1.720635">
        <ele>1246.819</ele>
        <time>2020-08-11T07:33:39Z</time>
      </trkpt>
      <trkpt lat="42.254351" lon="1.720769">
        <ele>1248.109</ele>
        <time>2020-08-11T07:33:51Z</time>
      </trkpt>
      <trkpt lat="42.254350" lon="1.720898">
        <ele>1250.019</ele>
        <time>2020-08-11T07:34:02Z</time>
      </trkpt>
      <trkpt lat="42.254285" lon="1.720995">
        <ele>1247.208</ele>
        <time>2020-08-11T07:34:09Z</time>
      </trkpt>
      <trkpt lat="42.254246" lon="1.721116">
        <ele>1247.167</ele>
        <time>2020-08-11T07:34:21Z</time>
      </trkpt>
      <trkpt lat="42.254228" lon="1.721241">
        <ele>1249.414</ele>
        <time>2020-08-11T07:34:30Z</time>
      </trkpt>
      <trkpt lat="42.254197" lon="1.721378">
        <ele>1251.061</ele>
        <time>2020-08-11T07:34:42Z</time>
      </trkpt>
      <trkpt lat="42.254142" lon="1.721476">
        <ele>1249.947</ele>
        <time>2020-08-11T07:34:49Z</time>
      </trkpt>
      <trkpt lat="42.254120" lon="1.721594">
        <ele>1252.031</ele>
        <time>2020-08-11T07:35:03Z</time>
      </trkpt>
      <trkpt lat="42.254108" lon="1.721718">
        <ele>1254.592</ele>
        <time>2020-08-11T07:35:12Z</time>
      </trkpt>
      <trkpt lat="42.254084" lon="1.721838">
        <ele>1255.575</ele>
        <time>2020-08-11T07:35:22Z</time>
      </trkpt>
      <trkpt lat="42.254070" lon="1.721966">
        <ele>1257.684</ele>
        <time>2020-08-11T07:35:30Z</time>
      </trkpt>
      <trkpt lat="42.254028" lon="1.722075">
        <ele>1257.539</ele>
        <time>2020-08-11T07:35:38Z</time>
      </trkpt>
      <trkpt lat="42.254004" lon="1.722194">
        <ele>1259.101</ele>
        <time>2020-08-11T07:35:51Z</time>
      </trkpt>
      <trkpt lat="42.253963" lon="1.722315">
        <ele>1258.721</ele>
        <time>2020-08-11T07:36:03Z</time>
      </trkpt>
      <trkpt lat="42.253913" lon="1.722419">
        <ele>1257.708</ele>
        <time>2020-08-11T07:36:10Z</time>
      </trkpt>
      <trkpt lat="42.253933" lon="1.722544">
        <ele>1258.559</ele>
        <time>2020-08-11T07:36:25Z</time>
      </trkpt>
      <trkpt lat="42.254002" lon="1.722628">
        <ele>1258.446</ele>
        <time>2020-08-11T07:36:36Z</time>
      </trkpt>
      <trkpt lat="42.254054" lon="1.722732">
        <ele>1256.483</ele>
        <time>2020-08-11T07:36:44Z</time>
      </trkpt>
      <trkpt lat="42.254150" lon="1.722798">
        <ele>1257.959</ele>
        <time>2020-08-11T07:36:51Z</time>
      </trkpt>
      <trkpt lat="42.254241" lon="1.722846">
        <ele>1257.663</ele>
        <time>2020-08-11T07:36:57Z</time>
      </trkpt>
      <trkpt lat="42.254328" lon="1.722902">
        <ele>1256.174</ele>
        <time>2020-08-11T07:37:10Z</time>
      </trkpt>
      <trkpt lat="42.254414" lon="1.722948">
        <ele>1255.057</ele>
        <time>2020-08-11T07:37:20Z</time>
      </trkpt>
      <trkpt lat="42.254515" lon="1.722939">
        <ele>1257.196</ele>
        <time>2020-08-11T07:37:44Z</time>
      </trkpt>
      <trkpt lat="42.254428" lon="1.722984">
        <ele>1252.824</ele>
        <time>2020-08-11T07:39:58Z</time>
      </trkpt>
      <trkpt lat="42.254505" lon="1.722901">
        <ele>1259.604</ele>
        <time>2020-08-11T07:40:24Z</time>
      </trkpt>
      <trkpt lat="42.254589" lon="1.722955">
        <ele>1256.814</ele>
        <time>2020-08-11T07:43:03Z</time>
      </trkpt>
      <trkpt lat="42.254672" lon="1.723038">
        <ele>1252.408</ele>
        <time>2020-08-11T07:43:20Z</time>
      </trkpt>
      <trkpt lat="42.254751" lon="1.723110">
        <ele>1249.198</ele>
        <time>2020-08-11T07:43:28Z</time>
      </trkpt>
      <trkpt lat="42.254838" lon="1.723158">
        <ele>1246.555</ele>
        <time>2020-08-11T07:43:40Z</time>
      </trkpt>
      <trkpt lat="42.254925" lon="1.723256">
        <ele>1242.052</ele>
        <time>2020-08-11T07:43:48Z</time>
      </trkpt>
      <trkpt lat="42.255012" lon="1.723188">
        <ele>1243.878</ele>
        <time>2020-08-11T07:44:05Z</time>
      </trkpt>
      <trkpt lat="42.255107" lon="1.723214">
        <ele>1234.722</ele>
        <time>2020-08-11T07:44:33Z</time>
      </trkpt>
      <trkpt lat="42.255159" lon="1.723111">
        <ele>1237.593</ele>
        <time>2020-08-11T07:45:07Z</time>
      </trkpt>
      <trkpt lat="42.255241" lon="1.723176">
        <ele>1226.666</ele>
        <time>2020-08-11T07:45:41Z</time>
      </trkpt>
      <trkpt lat="42.255327" lon="1.723133">
        <ele>1226.735</ele>
        <time>2020-08-11T07:45:55Z</time>
      </trkpt>
      <trkpt lat="42.255411" lon="1.723082">
        <ele>1229.149</ele>
        <time>2020-08-11T07:46:08Z</time>
      </trkpt>
      <trkpt lat="42.255504" lon="1.723073">
        <ele>1227.302</ele>
        <time>2020-08-11T07:46:20Z</time>
      </trkpt>
      <trkpt lat="42.255596" lon="1.723052">
        <ele>1227.622</ele>
        <time>2020-08-11T07:46:27Z</time>
      </trkpt>
      <trkpt lat="42.255686" lon="1.723028">
        <ele>1230.508</ele>
        <time>2020-08-11T07:46:35Z</time>
      </trkpt>
      <trkpt lat="42.255779" lon="1.723054">
        <ele>1227.910</ele>
        <time>2020-08-11T07:46:47Z</time>
      </trkpt>
      <trkpt lat="42.255876" lon="1.723023">
        <ele>1230.097</ele>
        <time>2020-08-11T07:46:55Z</time>
      </trkpt>
      <trkpt lat="42.255966" lon="1.723027">
        <ele>1229.754</ele>
        <time>2020-08-11T07:47:04Z</time>
      </trkpt>
      <trkpt lat="42.256070" lon="1.723025">
        <ele>1229.830</ele>
        <time>2020-08-11T07:47:13Z</time>
      </trkpt>
      <trkpt lat="42.256170" lon="1.723030">
        <ele>1230.554</ele>
        <time>2020-08-11T07:47:22Z</time>
      </trkpt>
      <trkpt lat="42.256249" lon="1.723099">
        <ele>1228.135</ele>
        <time>2020-08-11T07:47:32Z</time>
      </trkpt>
      <trkpt lat="42.256333" lon="1.723158">
        <ele>1226.228</ele>
        <time>2020-08-11T07:47:41Z</time>
      </trkpt>
      <trkpt lat="42.256400" lon="1.723247">
        <ele>1222.497</ele>
        <time>2020-08-11T07:47:49Z</time>
      </trkpt>
      <trkpt lat="42.256489" lon="1.723324">
        <ele>1221.247</ele>
        <time>2020-08-11T07:47:57Z</time>
      </trkpt>
      <trkpt lat="42.256574" lon="1.723382">
        <ele>1221.429</ele>
        <time>2020-08-11T07:48:04Z</time>
      </trkpt>
      <trkpt lat="42.256694" lon="1.723397">
        <ele>1222.321</ele>
        <time>2020-08-11T07:48:14Z</time>
      </trkpt>
      <trkpt lat="42.256780" lon="1.723353">
        <ele>1219.308</ele>
        <time>2020-08-11T07:48:21Z</time>
      </trkpt>
      <trkpt lat="42.256836" lon="1.723251">
        <ele>1222.510</ele>
        <time>2020-08-11T07:48:33Z</time>
      </trkpt>
      <trkpt lat="42.256908" lon="1.723164">
        <ele>1224.077</ele>
        <time>2020-08-11T07:48:38Z</time>
      </trkpt>
      <trkpt lat="42.256992" lon="1.723101">
        <ele>1223.474</ele>
        <time>2020-08-11T07:48:43Z</time>
      </trkpt>
      <trkpt lat="42.257066" lon="1.723029">
        <ele>1224.470</ele>
        <time>2020-08-11T07:48:52Z</time>
      </trkpt>
      <trkpt lat="42.257147" lon="1.722969">
        <ele>1224.074</ele>
        <time>2020-08-11T07:49:03Z</time>
      </trkpt>
      <trkpt lat="42.257239" lon="1.722955">
        <ele>1219.065</ele>
        <time>2020-08-11T07:49:09Z</time>
      </trkpt>
      <trkpt lat="42.257355" lon="1.722900">
        <ele>1218.728</ele>
        <time>2020-08-11T07:49:19Z</time>
      </trkpt>
      <trkpt lat="42.257446" lon="1.722909">
        <ele>1215.257</ele>
        <time>2020-08-11T07:49:27Z</time>
      </trkpt>
      <trkpt lat="42.257531" lon="1.722859">
        <ele>1215.363</ele>
        <time>2020-08-11T07:49:47Z</time>
      </trkpt>
      <trkpt lat="42.257638" lon="1.722797">
        <ele>1214.344</ele>
        <time>2020-08-11T07:49:55Z</time>
      </trkpt>
      <trkpt lat="42.257727" lon="1.722759">
        <ele>1211.918</ele>
        <time>2020-08-11T07:50:06Z</time>
      </trkpt>
      <trkpt lat="42.257794" lon="1.722656">
        <ele>1213.408</ele>
        <time>2020-08-11T07:50:14Z</time>
      </trkpt>
      <trkpt lat="42.257878" lon="1.722594">
        <ele>1213.462</ele>
        <time>2020-08-11T07:50:23Z</time>
      </trkpt>
      <trkpt lat="42.257971" lon="1.722561">
        <ele>1211.539</ele>
        <time>2020-08-11T07:50:29Z</time>
      </trkpt>
      <trkpt lat="42.258037" lon="1.722668">
        <ele>1207.426</ele>
        <time>2020-08-11T07:50:37Z</time>
      </trkpt>
      <trkpt lat="42.258089" lon="1.722778">
        <ele>1205.412</ele>
        <time>2020-08-11T07:51:02Z</time>
      </trkpt>
      <trkpt lat="42.258034" lon="1.722877">
        <ele>1206.846</ele>
        <time>2020-08-11T07:51:17Z</time>
      </trkpt>
      <trkpt lat="42.258136" lon="1.722851">
        <ele>1207.187</ele>
        <time>2020-08-11T07:51:35Z</time>
      </trkpt>
      <trkpt lat="42.258229" lon="1.722849">
        <ele>1208.040</ele>
        <time>2020-08-11T07:51:43Z</time>
      </trkpt>
      <trkpt lat="42.258327" lon="1.722869">
        <ele>1209.379</ele>
        <time>2020-08-11T07:51:49Z</time>
      </trkpt>
      <trkpt lat="42.258419" lon="1.722899">
        <ele>1210.729</ele>
        <time>2020-08-11T07:51:56Z</time>
      </trkpt>
      <trkpt lat="42.258504" lon="1.722964">
        <ele>1212.300</ele>
        <time>2020-08-11T07:52:06Z</time>
      </trkpt>
      <trkpt lat="42.258590" lon="1.723002">
        <ele>1213.420</ele>
        <time>2020-08-11T07:52:14Z</time>
      </trkpt>
      <trkpt lat="42.258672" lon="1.723109">
        <ele>1215.208</ele>
        <time>2020-08-11T07:52:26Z</time>
      </trkpt>
      <trkpt lat="42.258771" lon="1.723147">
        <ele>1216.558</ele>
        <time>2020-08-11T07:52:38Z</time>
      </trkpt>
      <trkpt lat="42.258856" lon="1.723199">
        <ele>1217.745</ele>
        <time>2020-08-11T07:52:46Z</time>
      </trkpt>
      <trkpt lat="42.258940" lon="1.723255">
        <ele>1219.052</ele>
        <time>2020-08-11T07:52:57Z</time>
      </trkpt>
      <trkpt lat="42.259045" lon="1.723232">
        <ele>1220.258</ele>
        <time>2020-08-11T07:53:09Z</time>
      </trkpt>
      <trkpt lat="42.259123" lon="1.723164">
        <ele>1220.852</ele>
        <time>2020-08-11T07:53:19Z</time>
      </trkpt>
      <trkpt lat="42.259214" lon="1.723109">
        <ele>1222.613</ele>
        <time>2020-08-11T07:53:27Z</time>
      </trkpt>
      <trkpt lat="42.259315" lon="1.723107">
        <ele>1225.576</ele>
        <time>2020-08-11T07:53:38Z</time>
      </trkpt>
      <trkpt lat="42.259402" lon="1.723186">
        <ele>1227.165</ele>
        <time>2020-08-11T07:53:44Z</time>
      </trkpt>
      <trkpt lat="42.259479" lon="1.723271">
        <ele>1227.821</ele>
        <time>2020-08-11T07:53:52Z</time>
      </trkpt>
      <trkpt lat="42.259543" lon="1.723366">
        <ele>1228.341</ele>
        <time>2020-08-11T07:53:59Z</time>
      </trkpt>
      <trkpt lat="42.259632" lon="1.723395">
        <ele>1230.005</ele>
        <time>2020-08-11T07:54:08Z</time>
      </trkpt>
      <trkpt lat="42.259716" lon="1.723456">
        <ele>1231.008</ele>
        <time>2020-08-11T07:54:17Z</time>
      </trkpt>
      <trkpt lat="42.259792" lon="1.723528">
        <ele>1232.578</ele>
        <time>2020-08-11T07:54:24Z</time>
      </trkpt>
      <trkpt lat="42.259832" lon="1.723656">
        <ele>1232.845</ele>
        <time>2020-08-11T07:54:35Z</time>
      </trkpt>
      <trkpt lat="42.259891" lon="1.723753">
        <ele>1234.322</ele>
        <time>2020-08-11T07:54:44Z</time>
      </trkpt>
      <trkpt lat="42.259972" lon="1.723815">
        <ele>1235.178</ele>
        <time>2020-08-11T07:54:56Z</time>
      </trkpt>
      <trkpt lat="42.260060" lon="1.723885">
        <ele>1235.562</ele>
        <time>2020-08-11T07:55:06Z</time>
      </trkpt>
      <trkpt lat="42.260147" lon="1.723931">
        <ele>1236.523</ele>
        <time>2020-08-11T07:55:15Z</time>
      </trkpt>
      <trkpt lat="42.260190" lon="1.724040">
        <ele>1237.886</ele>
        <time>2020-08-11T07:55:24Z</time>
      </trkpt>
      <trkpt lat="42.260211" lon="1.724160">
        <ele>1238.925</ele>
        <time>2020-08-11T07:55:33Z</time>
      </trkpt>
      <trkpt lat="42.260270" lon="1.724259">
        <ele>1240.034</ele>
        <time>2020-08-11T07:55:45Z</time>
      </trkpt>
      <trkpt lat="42.260358" lon="1.724316">
        <ele>1241.555</ele>
        <time>2020-08-11T07:55:53Z</time>
      </trkpt>
      <trkpt lat="42.260455" lon="1.724377">
        <ele>1243.210</ele>
        <time>2020-08-11T07:56:05Z</time>
      </trkpt>
      <trkpt lat="42.260543" lon="1.724456">
        <ele>1245.008</ele>
        <time>2020-08-11T07:56:19Z</time>
      </trkpt>
      <trkpt lat="42.260639" lon="1.724516">
        <ele>1246.639</ele>
        <time>2020-08-11T07:56:26Z</time>
      </trkpt>
      <trkpt lat="42.260672" lon="1.724629">
        <ele>1248.096</ele>
        <time>2020-08-11T07:56:37Z</time>
      </trkpt>
      <trkpt lat="42.260740" lon="1.724713">
        <ele>1249.243</ele>
        <time>2020-08-11T07:56:49Z</time>
      </trkpt>
      <trkpt lat="42.260789" lon="1.724852">
        <ele>1251.599</ele>
        <time>2020-08-11T07:56:59Z</time>
      </trkpt>
      <trkpt lat="42.260842" lon="1.724959">
        <ele>1252.763</ele>
        <time>2020-08-11T07:57:12Z</time>
      </trkpt>
      <trkpt lat="42.260935" lon="1.724973">
        <ele>1254.644</ele>
        <time>2020-08-11T07:57:23Z</time>
      </trkpt>
      <trkpt lat="42.261020" lon="1.725026">
        <ele>1256.657</ele>
        <time>2020-08-11T07:57:33Z</time>
      </trkpt>
      <trkpt lat="42.261072" lon="1.725131">
        <ele>1257.876</ele>
        <time>2020-08-11T07:57:43Z</time>
      </trkpt>
      <trkpt lat="42.261134" lon="1.725220">
        <ele>1259.333</ele>
        <time>2020-08-11T07:57:57Z</time>
      </trkpt>
      <trkpt lat="42.261183" lon="1.725328">
        <ele>1262.123</ele>
        <time>2020-08-11T07:58:09Z</time>
      </trkpt>
      <trkpt lat="42.261260" lon="1.725397">
        <ele>1265.715</ele>
        <time>2020-08-11T07:58:20Z</time>
      </trkpt>
      <trkpt lat="42.261307" lon="1.725512">
        <ele>1266.908</ele>
        <time>2020-08-11T07:58:34Z</time>
      </trkpt>
      <trkpt lat="42.261321" lon="1.725638">
        <ele>1267.649</ele>
        <time>2020-08-11T07:58:44Z</time>
      </trkpt>
      <trkpt lat="42.261374" lon="1.725751">
        <ele>1268.956</ele>
        <time>2020-08-11T07:59:02Z</time>
      </trkpt>
      <trkpt lat="42.261435" lon="1.725842">
        <ele>1271.443</ele>
        <time>2020-08-11T07:59:18Z</time>
      </trkpt>
      <trkpt lat="42.261477" lon="1.725958">
        <ele>1274.379</ele>
        <time>2020-08-11T07:59:31Z</time>
      </trkpt>
      <trkpt lat="42.261492" lon="1.726086">
        <ele>1276.093</ele>
        <time>2020-08-11T07:59:51Z</time>
      </trkpt>
      <trkpt lat="42.261503" lon="1.726211">
        <ele>1277.774</ele>
        <time>2020-08-11T08:00:07Z</time>
      </trkpt>
      <trkpt lat="42.261570" lon="1.726303">
        <ele>1281.877</ele>
        <time>2020-08-11T08:00:23Z</time>
      </trkpt>
      <trkpt lat="42.261581" lon="1.726447">
        <ele>1283.376</ele>
        <time>2020-08-11T08:00:43Z</time>
      </trkpt>
      <trkpt lat="42.261624" lon="1.726565">
        <ele>1285.572</ele>
        <time>2020-08-11T08:00:53Z</time>
      </trkpt>
      <trkpt lat="42.261617" lon="1.726700">
        <ele>1286.013</ele>
        <time>2020-08-11T08:01:02Z</time>
      </trkpt>
      <trkpt lat="42.261654" lon="1.726818">
        <ele>1288.314</ele>
        <time>2020-08-11T08:01:20Z</time>
      </trkpt>
      <trkpt lat="42.261677" lon="1.726946">
        <ele>1290.808</ele>
        <time>2020-08-11T08:01:34Z</time>
      </trkpt>
      <trkpt lat="42.261691" lon="1.727076">
        <ele>1293.723</ele>
        <time>2020-08-11T08:01:48Z</time>
      </trkpt>
      <trkpt lat="42.261674" lon="1.727206">
        <ele>1294.340</ele>
        <time>2020-08-11T08:01:58Z</time>
      </trkpt>
      <trkpt lat="42.261699" lon="1.727323">
        <ele>1297.357</ele>
        <time>2020-08-11T08:02:16Z</time>
      </trkpt>
      <trkpt lat="42.261688" lon="1.727460">
        <ele>1298.023</ele>
        <time>2020-08-11T08:02:28Z</time>
      </trkpt>
      <trkpt lat="42.261702" lon="1.727588">
        <ele>1300.297</ele>
        <time>2020-08-11T08:02:36Z</time>
      </trkpt>
      <trkpt lat="42.261712" lon="1.727715">
        <ele>1301.898</ele>
        <time>2020-08-11T08:02:56Z</time>
      </trkpt>
      <trkpt lat="42.261747" lon="1.727855">
        <ele>1305.071</ele>
        <time>2020-08-11T08:03:07Z</time>
      </trkpt>
      <trkpt lat="42.261765" lon="1.727979">
        <ele>1307.070</ele>
        <time>2020-08-11T08:03:24Z</time>
      </trkpt>
      <trkpt lat="42.261828" lon="1.728073">
        <ele>1309.988</ele>
        <time>2020-08-11T08:03:36Z</time>
      </trkpt>
      <trkpt lat="42.261878" lon="1.728176">
        <ele>1312.924</ele>
        <time>2020-08-11T08:03:51Z</time>
      </trkpt>
      <trkpt lat="42.261866" lon="1.728300">
        <ele>1314.526</ele>
        <time>2020-08-11T08:04:08Z</time>
      </trkpt>
      <trkpt lat="42.261897" lon="1.728416">
        <ele>1316.708</ele>
        <time>2020-08-11T08:04:20Z</time>
      </trkpt>
      <trkpt lat="42.261969" lon="1.728514">
        <ele>1319.234</ele>
        <time>2020-08-11T08:04:35Z</time>
      </trkpt>
      <trkpt lat="42.262023" lon="1.728637">
        <ele>1322.321</ele>
        <time>2020-08-11T08:04:46Z</time>
      </trkpt>
      <trkpt lat="42.262089" lon="1.728744">
        <ele>1325.718</ele>
        <time>2020-08-11T08:04:59Z</time>
      </trkpt>
      <trkpt lat="42.262174" lon="1.728786">
        <ele>1328.914</ele>
        <time>2020-08-11T08:05:13Z</time>
      </trkpt>
      <trkpt lat="42.262228" lon="1.728885">
        <ele>1331.388</ele>
        <time>2020-08-11T08:05:30Z</time>
      </trkpt>
      <trkpt lat="42.262249" lon="1.729010">
        <ele>1331.369</ele>
        <time>2020-08-11T08:05:41Z</time>
      </trkpt>
      <trkpt lat="42.262272" lon="1.729150">
        <ele>1331.252</ele>
        <time>2020-08-11T08:06:00Z</time>
      </trkpt>
      <trkpt lat="42.262318" lon="1.729260">
        <ele>1335.571</ele>
        <time>2020-08-11T08:06:15Z</time>
      </trkpt>
      <trkpt lat="42.262395" lon="1.729334">
        <ele>1340.019</ele>
        <time>2020-08-11T08:06:34Z</time>
      </trkpt>
      <trkpt lat="42.262403" lon="1.729457">
        <ele>1341.409</ele>
        <time>2020-08-11T08:06:56Z</time>
      </trkpt>
      <trkpt lat="42.262452" lon="1.729567">
        <ele>1343.819</ele>
        <time>2020-08-11T08:07:25Z</time>
      </trkpt>
      <trkpt lat="42.262519" lon="1.729649">
        <ele>1346.008</ele>
        <time>2020-08-11T08:07:47Z</time>
      </trkpt>
      <trkpt lat="42.262536" lon="1.729770">
        <ele>1347.887</ele>
        <time>2020-08-11T08:07:58Z</time>
      </trkpt>
      <trkpt lat="42.262589" lon="1.729887">
        <ele>1351.644</ele>
        <time>2020-08-11T08:08:13Z</time>
      </trkpt>
      <trkpt lat="42.262656" lon="1.729980">
        <ele>1354.771</ele>
        <time>2020-08-11T08:08:26Z</time>
      </trkpt>
      <trkpt lat="42.262726" lon="1.730078">
        <ele>1356.657</ele>
        <time>2020-08-11T08:08:54Z</time>
      </trkpt>
      <trkpt lat="42.262813" lon="1.730134">
        <ele>1358.011</ele>
        <time>2020-08-11T08:09:08Z</time>
      </trkpt>
      <trkpt lat="42.262904" lon="1.730183">
        <ele>1360.332</ele>
        <time>2020-08-11T08:09:17Z</time>
      </trkpt>
      <trkpt lat="42.262997" lon="1.730217">
        <ele>1362.455</ele>
        <time>2020-08-11T08:09:39Z</time>
      </trkpt>
      <trkpt lat="42.263081" lon="1.730264">
        <ele>1363.754</ele>
        <time>2020-08-11T08:09:47Z</time>
      </trkpt>
      <trkpt lat="42.263169" lon="1.730292">
        <ele>1367.281</ele>
        <time>2020-08-11T08:09:59Z</time>
      </trkpt>
      <trkpt lat="42.263233" lon="1.730389">
        <ele>1368.961</ele>
        <time>2020-08-11T08:10:07Z</time>
      </trkpt>
      <trkpt lat="42.263285" lon="1.730494">
        <ele>1369.417</ele>
        <time>2020-08-11T08:10:23Z</time>
      </trkpt>
      <trkpt lat="42.263312" lon="1.730621">
        <ele>1369.708</ele>
        <time>2020-08-11T08:10:35Z</time>
      </trkpt>
      <trkpt lat="42.263385" lon="1.730706">
        <ele>1374.844</ele>
        <time>2020-08-11T08:10:50Z</time>
      </trkpt>
      <trkpt lat="42.263382" lon="1.730828">
        <ele>1374.831</ele>
        <time>2020-08-11T08:11:04Z</time>
      </trkpt>
      <trkpt lat="42.263407" lon="1.730946">
        <ele>1378.188</ele>
        <time>2020-08-11T08:11:16Z</time>
      </trkpt>
      <trkpt lat="42.263463" lon="1.731042">
        <ele>1383.224</ele>
        <time>2020-08-11T08:11:27Z</time>
      </trkpt>
      <trkpt lat="42.263478" lon="1.731162">
        <ele>1385.378</ele>
        <time>2020-08-11T08:11:40Z</time>
      </trkpt>
      <trkpt lat="42.263533" lon="1.731261">
        <ele>1389.449</ele>
        <time>2020-08-11T08:12:03Z</time>
      </trkpt>
      <trkpt lat="42.263515" lon="1.731395">
        <ele>1389.252</ele>
        <time>2020-08-11T08:12:19Z</time>
      </trkpt>
      <trkpt lat="42.263574" lon="1.731496">
        <ele>1392.111</ele>
        <time>2020-08-11T08:12:35Z</time>
      </trkpt>
      <trkpt lat="42.263602" lon="1.731615">
        <ele>1392.989</ele>
        <time>2020-08-11T08:12:51Z</time>
      </trkpt>
      <trkpt lat="42.263620" lon="1.731736">
        <ele>1394.306</ele>
        <time>2020-08-11T08:13:06Z</time>
      </trkpt>
      <trkpt lat="42.263595" lon="1.731859">
        <ele>1394.226</ele>
        <time>2020-08-11T08:13:24Z</time>
      </trkpt>
      <trkpt lat="42.263642" lon="1.731971">
        <ele>1397.608</ele>
        <time>2020-08-11T08:13:36Z</time>
      </trkpt>
      <trkpt lat="42.263643" lon="1.732094">
        <ele>1398.524</ele>
        <time>2020-08-11T08:13:55Z</time>
      </trkpt>
      <trkpt lat="42.263726" lon="1.732169">
        <ele>1405.431</ele>
        <time>2020-08-11T08:14:01Z</time>
      </trkpt>
      <trkpt lat="42.263770" lon="1.732287">
        <ele>1408.918</ele>
        <time>2020-08-11T08:14:12Z</time>
      </trkpt>
      <trkpt lat="42.263718" lon="1.732401">
        <ele>1405.424</ele>
        <time>2020-08-11T08:14:35Z</time>
      </trkpt>
      <trkpt lat="42.263752" lon="1.732524">
        <ele>1407.788</ele>
        <time>2020-08-11T08:14:46Z</time>
      </trkpt>
      <trkpt lat="42.263784" lon="1.732646">
        <ele>1409.389</ele>
        <time>2020-08-11T08:14:57Z</time>
      </trkpt>
      <trkpt lat="42.263865" lon="1.732710">
        <ele>1412.142</ele>
        <time>2020-08-11T08:15:13Z</time>
      </trkpt>
      <trkpt lat="42.263917" lon="1.732828">
        <ele>1413.911</ele>
        <time>2020-08-11T08:15:28Z</time>
      </trkpt>
      <trkpt lat="42.263983" lon="1.732926">
        <ele>1417.753</ele>
        <time>2020-08-11T08:15:43Z</time>
      </trkpt>
      <trkpt lat="42.264007" lon="1.733050">
        <ele>1417.904</ele>
        <time>2020-08-11T08:15:57Z</time>
      </trkpt>
      <trkpt lat="42.264041" lon="1.733163">
        <ele>1421.314</ele>
        <time>2020-08-11T08:16:13Z</time>
      </trkpt>
      <trkpt lat="42.264067" lon="1.733284">
        <ele>1424.508</ele>
        <time>2020-08-11T08:16:40Z</time>
      </trkpt>
      <trkpt lat="42.264122" lon="1.733384">
        <ele>1429.081</ele>
        <time>2020-08-11T08:16:55Z</time>
      </trkpt>
      <trkpt lat="42.264106" lon="1.733506">
        <ele>1429.578</ele>
        <time>2020-08-11T08:17:06Z</time>
      </trkpt>
      <trkpt lat="42.264086" lon="1.733633">
        <ele>1429.975</ele>
        <time>2020-08-11T08:17:18Z</time>
      </trkpt>
      <trkpt lat="42.264076" lon="1.733761">
        <ele>1430.721</ele>
        <time>2020-08-11T08:17:40Z</time>
      </trkpt>
      <trkpt lat="42.264126" lon="1.733872">
        <ele>1434.135</ele>
        <time>2020-08-11T08:17:53Z</time>
      </trkpt>
      <trkpt lat="42.264141" lon="1.733993">
        <ele>1435.466</ele>
        <time>2020-08-11T08:18:04Z</time>
      </trkpt>
      <trkpt lat="42.264177" lon="1.734114">
        <ele>1437.489</ele>
        <time>2020-08-11T08:18:17Z</time>
      </trkpt>
      <trkpt lat="42.264167" lon="1.734237">
        <ele>1437.518</ele>
        <time>2020-08-11T08:18:28Z</time>
      </trkpt>
      <trkpt lat="42.264214" lon="1.734361">
        <ele>1440.833</ele>
        <time>2020-08-11T08:18:40Z</time>
      </trkpt>
      <trkpt lat="42.264264" lon="1.734468">
        <ele>1443.523</ele>
        <time>2020-08-11T08:18:47Z</time>
      </trkpt>
      <trkpt lat="42.264315" lon="1.734583">
        <ele>1444.815</ele>
        <time>2020-08-11T08:19:04Z</time>
      </trkpt>
      <trkpt lat="42.264255" lon="1.734716">
        <ele>1442.208</ele>
        <time>2020-08-11T08:19:15Z</time>
      </trkpt>
      <trkpt lat="42.264274" lon="1.734844">
        <ele>1445.479</ele>
        <time>2020-08-11T08:19:21Z</time>
      </trkpt>
      <trkpt lat="42.264296" lon="1.734970">
        <ele>1448.786</ele>
        <time>2020-08-11T08:19:37Z</time>
      </trkpt>
      <trkpt lat="42.264389" lon="1.734964">
        <ele>1450.353</ele>
        <time>2020-08-11T08:19:54Z</time>
      </trkpt>
      <trkpt lat="42.264347" lon="1.735076">
        <ele>1452.469</ele>
        <time>2020-08-11T08:20:06Z</time>
      </trkpt>
      <trkpt lat="42.264369" lon="1.735203">
        <ele>1456.463</ele>
        <time>2020-08-11T08:20:30Z</time>
      </trkpt>
      <trkpt lat="42.264381" lon="1.735332">
        <ele>1459.964</ele>
        <time>2020-08-11T08:20:54Z</time>
      </trkpt>
      <trkpt lat="42.264388" lon="1.735462">
        <ele>1463.277</ele>
        <time>2020-08-11T08:21:14Z</time>
      </trkpt>
      <trkpt lat="42.264370" lon="1.735584">
        <ele>1466.126</ele>
        <time>2020-08-11T08:21:35Z</time>
      </trkpt>
      <trkpt lat="42.264369" lon="1.735712">
        <ele>1468.978</ele>
        <time>2020-08-11T08:21:48Z</time>
      </trkpt>
      <trkpt lat="42.264379" lon="1.735851">
        <ele>1471.833</ele>
        <time>2020-08-11T08:22:07Z</time>
      </trkpt>
      <trkpt lat="42.264449" lon="1.735930">
        <ele>1473.126</ele>
        <time>2020-08-11T08:22:35Z</time>
      </trkpt>
      <trkpt lat="42.264452" lon="1.736075">
        <ele>1475.908</ele>
        <time>2020-08-11T08:22:48Z</time>
      </trkpt>
      <trkpt lat="42.264495" lon="1.736191">
        <ele>1480.683</ele>
        <time>2020-08-11T08:23:03Z</time>
      </trkpt>
      <trkpt lat="42.264445" lon="1.736302">
        <ele>1478.850</ele>
        <time>2020-08-11T08:23:23Z</time>
      </trkpt>
      <trkpt lat="42.264444" lon="1.736426">
        <ele>1481.017</ele>
        <time>2020-08-11T08:23:37Z</time>
      </trkpt>
      <trkpt lat="42.264493" lon="1.736528">
        <ele>1486.253</ele>
        <time>2020-08-11T08:23:57Z</time>
      </trkpt>
      <trkpt lat="42.264453" lon="1.736645">
        <ele>1486.937</ele>
        <time>2020-08-11T08:24:18Z</time>
      </trkpt>
      <trkpt lat="42.264374" lon="1.736704">
        <ele>1490.088</ele>
        <time>2020-08-11T08:24:38Z</time>
      </trkpt>
      <trkpt lat="42.264407" lon="1.736830">
        <ele>1491.251</ele>
        <time>2020-08-11T08:24:53Z</time>
      </trkpt>
      <trkpt lat="42.264446" lon="1.736957">
        <ele>1492.460</ele>
        <time>2020-08-11T08:25:17Z</time>
      </trkpt>
      <trkpt lat="42.264433" lon="1.737082">
        <ele>1495.958</ele>
        <time>2020-08-11T08:25:36Z</time>
      </trkpt>
      <trkpt lat="42.264415" lon="1.737210">
        <ele>1499.752</ele>
        <time>2020-08-11T08:25:58Z</time>
      </trkpt>
      <trkpt lat="42.264458" lon="1.737328">
        <ele>1501.317</ele>
        <time>2020-08-11T08:26:04Z</time>
      </trkpt>
      <trkpt lat="42.264405" lon="1.737428">
        <ele>1504.108</ele>
        <time>2020-08-11T08:26:19Z</time>
      </trkpt>
      <trkpt lat="42.264456" lon="1.737534">
        <ele>1505.121</ele>
        <time>2020-08-11T08:26:30Z</time>
      </trkpt>
      <trkpt lat="42.264424" lon="1.737658">
        <ele>1508.168</ele>
        <time>2020-08-11T08:26:51Z</time>
      </trkpt>
      <trkpt lat="42.264414" lon="1.737780">
        <ele>1511.015</ele>
        <time>2020-08-11T08:27:19Z</time>
      </trkpt>
      <trkpt lat="42.264419" lon="1.737907">
        <ele>1513.251</ele>
        <time>2020-08-11T08:27:34Z</time>
      </trkpt>
      <trkpt lat="42.264410" lon="1.738040">
        <ele>1516.045</ele>
        <time>2020-08-11T08:27:52Z</time>
      </trkpt>
      <trkpt lat="42.264401" lon="1.738185">
        <ele>1519.496</ele>
        <time>2020-08-11T08:28:14Z</time>
      </trkpt>
      <trkpt lat="42.264438" lon="1.738300">
        <ele>1520.589</ele>
        <time>2020-08-11T08:28:32Z</time>
      </trkpt>
      <trkpt lat="42.264406" lon="1.738415">
        <ele>1524.178</ele>
        <time>2020-08-11T08:28:46Z</time>
      </trkpt>
      <trkpt lat="42.264366" lon="1.738531">
        <ele>1527.917</ele>
        <time>2020-08-11T08:29:06Z</time>
      </trkpt>
      <trkpt lat="42.264405" lon="1.738645">
        <ele>1528.987</ele>
        <time>2020-08-11T08:29:20Z</time>
      </trkpt>
      <trkpt lat="42.264440" lon="1.738771">
        <ele>1530.015</ele>
        <time>2020-08-11T08:29:40Z</time>
      </trkpt>
      <trkpt lat="42.264411" lon="1.738890">
        <ele>1533.108</ele>
        <time>2020-08-11T08:29:55Z</time>
      </trkpt>
      <trkpt lat="42.264374" lon="1.739007">
        <ele>1536.597</ele>
        <time>2020-08-11T08:30:10Z</time>
      </trkpt>
      <trkpt lat="42.264386" lon="1.739133">
        <ele>1538.564</ele>
        <time>2020-08-11T08:30:31Z</time>
      </trkpt>
      <trkpt lat="42.264343" lon="1.739256">
        <ele>1542.131</ele>
        <time>2020-08-11T08:30:42Z</time>
      </trkpt>
      <trkpt lat="42.264404" lon="1.739350">
        <ele>1541.747</ele>
        <time>2020-08-11T08:30:56Z</time>
      </trkpt>
      <trkpt lat="42.264368" lon="1.739464">
        <ele>1544.961</ele>
        <time>2020-08-11T08:31:16Z</time>
      </trkpt>
      <trkpt lat="42.264416" lon="1.739585">
        <ele>1546.032</ele>
        <time>2020-08-11T08:31:26Z</time>
      </trkpt>
      <trkpt lat="42.264405" lon="1.739714">
        <ele>1549.115</ele>
        <time>2020-08-11T08:31:43Z</time>
      </trkpt>
      <trkpt lat="42.264413" lon="1.739839">
        <ele>1551.574</ele>
        <time>2020-08-11T08:31:57Z</time>
      </trkpt>
      <trkpt lat="42.264434" lon="1.739961">
        <ele>1553.535</ele>
        <time>2020-08-11T08:32:19Z</time>
      </trkpt>
      <trkpt lat="42.264434" lon="1.740084">
        <ele>1556.186</ele>
        <time>2020-08-11T08:32:36Z</time>
      </trkpt>
      <trkpt lat="42.264389" lon="1.740191">
        <ele>1559.614</ele>
        <time>2020-08-11T08:32:54Z</time>
      </trkpt>
      <trkpt lat="42.264410" lon="1.740309">
        <ele>1561.408</ele>
        <time>2020-08-11T08:33:18Z</time>
      </trkpt>
      <trkpt lat="42.264383" lon="1.740432">
        <ele>1564.479</ele>
        <time>2020-08-11T08:33:30Z</time>
      </trkpt>
      <trkpt lat="42.264371" lon="1.740560">
        <ele>1567.276</ele>
        <time>2020-08-11T08:33:41Z</time>
      </trkpt>
      <trkpt lat="42.264379" lon="1.740682">
        <ele>1569.353</ele>
        <time>2020-08-11T08:33:59Z</time>
      </trkpt>
      <trkpt lat="42.264377" lon="1.740808">
        <ele>1571.749</ele>
        <time>2020-08-11T08:34:10Z</time>
      </trkpt>
      <trkpt lat="42.264427" lon="1.740922">
        <ele>1571.833</ele>
        <time>2020-08-11T08:34:22Z</time>
      </trkpt>
      <trkpt lat="42.264495" lon="1.741031">
        <ele>1573.394</ele>
        <time>2020-08-11T08:34:28Z</time>
      </trkpt>
      <trkpt lat="42.264535" lon="1.741159">
        <ele>1574.597</ele>
        <time>2020-08-11T08:34:35Z</time>
      </trkpt>
      <trkpt lat="42.264600" lon="1.741245">
        <ele>1574.396</ele>
        <time>2020-08-11T08:34:40Z</time>
      </trkpt>
      <trkpt lat="42.264590" lon="1.741367">
        <ele>1573.659</ele>
        <time>2020-08-11T08:35:09Z</time>
      </trkpt>
      <trkpt lat="42.264662" lon="1.741294">
        <ele>1574.003</ele>
        <time>2020-08-11T08:37:10Z</time>
      </trkpt>
      <trkpt lat="42.264751" lon="1.741308">
        <ele>1574.523</ele>
        <time>2020-08-11T08:39:12Z</time>
      </trkpt>
      <trkpt lat="42.264838" lon="1.741344">
        <ele>1575.708</ele>
        <time>2020-08-11T08:39:19Z</time>
      </trkpt>
      <trkpt lat="42.264937" lon="1.741386">
        <ele>1576.921</ele>
        <time>2020-08-11T08:39:30Z</time>
      </trkpt>
      <trkpt lat="42.265012" lon="1.741465">
        <ele>1576.888</ele>
        <time>2020-08-11T08:39:36Z</time>
      </trkpt>
      <trkpt lat="42.265092" lon="1.741544">
        <ele>1578.085</ele>
        <time>2020-08-11T08:39:44Z</time>
      </trkpt>
      <trkpt lat="42.265166" lon="1.741627">
        <ele>1578.821</ele>
        <time>2020-08-11T08:39:53Z</time>
      </trkpt>
      <trkpt lat="42.265239" lon="1.741725">
        <ele>1579.625</ele>
        <time>2020-08-11T08:40:03Z</time>
      </trkpt>
      <trkpt lat="42.265313" lon="1.741801">
        <ele>1581.166</ele>
        <time>2020-08-11T08:40:12Z</time>
      </trkpt>
      <trkpt lat="42.265393" lon="1.741880">
        <ele>1583.129</ele>
        <time>2020-08-11T08:40:22Z</time>
      </trkpt>
      <trkpt lat="42.265453" lon="1.741976">
        <ele>1583.818</ele>
        <time>2020-08-11T08:40:29Z</time>
      </trkpt>
      <trkpt lat="42.265532" lon="1.742068">
        <ele>1584.989</ele>
        <time>2020-08-11T08:40:39Z</time>
      </trkpt>
      <trkpt lat="42.265610" lon="1.742159">
        <ele>1585.606</ele>
        <time>2020-08-11T08:40:48Z</time>
      </trkpt>
      <trkpt lat="42.265689" lon="1.742245">
        <ele>1586.126</ele>
        <time>2020-08-11T08:40:57Z</time>
      </trkpt>
      <trkpt lat="42.265769" lon="1.742318">
        <ele>1586.908</ele>
        <time>2020-08-11T08:41:08Z</time>
      </trkpt>
      <trkpt lat="42.265848" lon="1.742377">
        <ele>1588.084</ele>
        <time>2020-08-11T08:41:16Z</time>
      </trkpt>
      <trkpt lat="42.265935" lon="1.742421">
        <ele>1589.021</ele>
        <time>2020-08-11T08:41:24Z</time>
      </trkpt>
      <trkpt lat="42.266053" lon="1.742466">
        <ele>1590.738</ele>
        <time>2020-08-11T08:41:36Z</time>
      </trkpt>
      <trkpt lat="42.266141" lon="1.742523">
        <ele>1591.884</ele>
        <time>2020-08-11T08:41:45Z</time>
      </trkpt>
      <trkpt lat="42.266207" lon="1.742609">
        <ele>1592.648</ele>
        <time>2020-08-11T08:41:53Z</time>
      </trkpt>
      <trkpt lat="42.266277" lon="1.742697">
        <ele>1593.989</ele>
        <time>2020-08-11T08:42:01Z</time>
      </trkpt>
      <trkpt lat="42.266316" lon="1.742816">
        <ele>1593.552</ele>
        <time>2020-08-11T08:42:07Z</time>
      </trkpt>
      <trkpt lat="42.266386" lon="1.742934">
        <ele>1595.661</ele>
        <time>2020-08-11T08:42:20Z</time>
      </trkpt>
      <trkpt lat="42.266436" lon="1.743035">
        <ele>1596.372</ele>
        <time>2020-08-11T08:42:27Z</time>
      </trkpt>
      <trkpt lat="42.266492" lon="1.743139">
        <ele>1597.013</ele>
        <time>2020-08-11T08:42:33Z</time>
      </trkpt>
      <trkpt lat="42.266545" lon="1.743251">
        <ele>1597.214</ele>
        <time>2020-08-11T08:42:45Z</time>
      </trkpt>
      <trkpt lat="42.266616" lon="1.743337">
        <ele>1598.708</ele>
        <time>2020-08-11T08:42:54Z</time>
      </trkpt>
      <trkpt lat="42.266696" lon="1.743407">
        <ele>1599.023</ele>
        <time>2020-08-11T08:43:06Z</time>
      </trkpt>
      <trkpt lat="42.266787" lon="1.743392">
        <ele>1601.790</ele>
        <time>2020-08-11T08:43:14Z</time>
      </trkpt>
      <trkpt lat="42.266894" lon="1.743393">
        <ele>1604.167</ele>
        <time>2020-08-11T08:43:25Z</time>
      </trkpt>
      <trkpt lat="42.266985" lon="1.743443">
        <ele>1605.193</ele>
        <time>2020-08-11T08:43:32Z</time>
      </trkpt>
      <trkpt lat="42.267075" lon="1.743511">
        <ele>1606.417</ele>
        <time>2020-08-11T08:43:40Z</time>
      </trkpt>
      <trkpt lat="42.267113" lon="1.743626">
        <ele>1605.588</ele>
        <time>2020-08-11T08:43:47Z</time>
      </trkpt>
      <trkpt lat="42.267168" lon="1.743724">
        <ele>1606.441</ele>
        <time>2020-08-11T08:43:56Z</time>
      </trkpt>
      <trkpt lat="42.267268" lon="1.743765">
        <ele>1608.840</ele>
        <time>2020-08-11T08:44:06Z</time>
      </trkpt>
      <trkpt lat="42.267341" lon="1.743841">
        <ele>1609.335</ele>
        <time>2020-08-11T08:44:14Z</time>
      </trkpt>
      <trkpt lat="42.267429" lon="1.743908">
        <ele>1610.186</ele>
        <time>2020-08-11T08:44:24Z</time>
      </trkpt>
      <trkpt lat="42.267509" lon="1.743981">
        <ele>1610.214</ele>
        <time>2020-08-11T08:44:32Z</time>
      </trkpt>
      <trkpt lat="42.267589" lon="1.744064">
        <ele>1610.008</ele>
        <time>2020-08-11T08:44:39Z</time>
      </trkpt>
      <trkpt lat="42.267677" lon="1.744105">
        <ele>1611.099</ele>
        <time>2020-08-11T08:44:49Z</time>
      </trkpt>
      <trkpt lat="42.267770" lon="1.744107">
        <ele>1612.986</ele>
        <time>2020-08-11T08:45:05Z</time>
      </trkpt>
      <trkpt lat="42.267757" lon="1.743982">
        <ele>1614.963</ele>
        <time>2020-08-11T08:49:13Z</time>
      </trkpt>
      <trkpt lat="42.267794" lon="1.743870">
        <ele>1617.839</ele>
        <time>2020-08-11T08:49:30Z</time>
      </trkpt>
      <trkpt lat="42.267754" lon="1.743980">
        <ele>1614.943</ele>
        <time>2020-08-11T08:49:46Z</time>
      </trkpt>
      <trkpt lat="42.267790" lon="1.744098">
        <ele>1613.534</ele>
        <time>2020-08-11T08:50:16Z</time>
      </trkpt>
      <trkpt lat="42.267882" lon="1.744151">
        <ele>1614.677</ele>
        <time>2020-08-11T08:52:34Z</time>
      </trkpt>
      <trkpt lat="42.267955" lon="1.744225">
        <ele>1614.656</ele>
        <time>2020-08-11T08:52:40Z</time>
      </trkpt>
      <trkpt lat="42.268032" lon="1.744288">
        <ele>1614.912</ele>
        <time>2020-08-11T08:52:46Z</time>
      </trkpt>
      <trkpt lat="42.268111" lon="1.744349">
        <ele>1615.332</ele>
        <time>2020-08-11T08:52:54Z</time>
      </trkpt>
      <trkpt lat="42.268188" lon="1.744420">
        <ele>1615.405</ele>
        <time>2020-08-11T08:53:01Z</time>
      </trkpt>
      <trkpt lat="42.268267" lon="1.744478">
        <ele>1615.708</ele>
        <time>2020-08-11T08:53:09Z</time>
      </trkpt>
      <trkpt lat="42.268348" lon="1.744561">
        <ele>1615.687</ele>
        <time>2020-08-11T08:53:20Z</time>
      </trkpt>
      <trkpt lat="42.268412" lon="1.744656">
        <ele>1615.674</ele>
        <time>2020-08-11T08:53:28Z</time>
      </trkpt>
      <trkpt lat="42.268485" lon="1.744732">
        <ele>1616.921</ele>
        <time>2020-08-11T08:53:35Z</time>
      </trkpt>
      <trkpt lat="42.268541" lon="1.744841">
        <ele>1617.827</ele>
        <time>2020-08-11T08:53:43Z</time>
      </trkpt>
      <trkpt lat="42.268605" lon="1.744942">
        <ele>1619.471</ele>
        <time>2020-08-11T08:53:55Z</time>
      </trkpt>
      <trkpt lat="42.268677" lon="1.745041">
        <ele>1621.822</ele>
        <time>2020-08-11T08:54:05Z</time>
      </trkpt>
      <trkpt lat="42.268745" lon="1.745133">
        <ele>1624.365</ele>
        <time>2020-08-11T08:54:15Z</time>
      </trkpt>
      <trkpt lat="42.268776" lon="1.745252">
        <ele>1624.874</ele>
        <time>2020-08-11T08:54:24Z</time>
      </trkpt>
      <trkpt lat="42.268813" lon="1.745368">
        <ele>1626.084</ele>
        <time>2020-08-11T08:54:33Z</time>
      </trkpt>
      <trkpt lat="42.268846" lon="1.745492">
        <ele>1627.007</ele>
        <time>2020-08-11T08:54:42Z</time>
      </trkpt>
      <trkpt lat="42.268858" lon="1.745616">
        <ele>1626.717</ele>
        <time>2020-08-11T08:54:53Z</time>
      </trkpt>
      <trkpt lat="42.268892" lon="1.745739">
        <ele>1627.808</ele>
        <time>2020-08-11T08:55:01Z</time>
      </trkpt>
      <trkpt lat="42.268924" lon="1.745857">
        <ele>1628.964</ele>
        <time>2020-08-11T08:55:13Z</time>
      </trkpt>
      <trkpt lat="42.268934" lon="1.745992">
        <ele>1629.271</ele>
        <time>2020-08-11T08:55:22Z</time>
      </trkpt>
      <trkpt lat="42.269009" lon="1.746066">
        <ele>1632.818</ele>
        <time>2020-08-11T08:55:41Z</time>
      </trkpt>
      <trkpt lat="42.269047" lon="1.746179">
        <ele>1634.034</ele>
        <time>2020-08-11T08:55:51Z</time>
      </trkpt>
      <trkpt lat="42.269094" lon="1.746308">
        <ele>1635.448</ele>
        <time>2020-08-11T08:56:01Z</time>
      </trkpt>
      <trkpt lat="42.269148" lon="1.746419">
        <ele>1637.069</ele>
        <time>2020-08-11T08:56:15Z</time>
      </trkpt>
      <trkpt lat="42.269220" lon="1.746497">
        <ele>1639.872</ele>
        <time>2020-08-11T08:56:34Z</time>
      </trkpt>
      <trkpt lat="42.269304" lon="1.746543">
        <ele>1643.541</ele>
        <time>2020-08-11T08:56:53Z</time>
      </trkpt>
      <trkpt lat="42.269370" lon="1.746638">
        <ele>1645.858</ele>
        <time>2020-08-11T08:57:12Z</time>
      </trkpt>
      <trkpt lat="42.269457" lon="1.746689">
        <ele>1649.352</ele>
        <time>2020-08-11T08:57:33Z</time>
      </trkpt>
      <trkpt lat="42.269548" lon="1.746705">
        <ele>1653.417</ele>
        <time>2020-08-11T08:57:54Z</time>
      </trkpt>
      <trkpt lat="42.269622" lon="1.746777">
        <ele>1656.108</ele>
        <time>2020-08-11T08:58:08Z</time>
      </trkpt>
      <trkpt lat="42.269702" lon="1.746848">
        <ele>1659.131</ele>
        <time>2020-08-11T08:58:26Z</time>
      </trkpt>
      <trkpt lat="42.269773" lon="1.746940">
        <ele>1661.498</ele>
        <time>2020-08-11T08:58:49Z</time>
      </trkpt>
      <trkpt lat="42.269797" lon="1.747058">
        <ele>1662.835</ele>
        <time>2020-08-11T08:59:02Z</time>
      </trkpt>
      <trkpt lat="42.269859" lon="1.747150">
        <ele>1665.861</ele>
        <time>2020-08-11T08:59:14Z</time>
      </trkpt>
      <trkpt lat="42.269919" lon="1.747242">
        <ele>1668.535</ele>
        <time>2020-08-11T08:59:22Z</time>
      </trkpt>
      <trkpt lat="42.269981" lon="1.747358">
        <ele>1671.286</ele>
        <time>2020-08-11T08:59:36Z</time>
      </trkpt>
      <trkpt lat="42.270006" lon="1.747480">
        <ele>1672.319</ele>
        <time>2020-08-11T08:59:50Z</time>
      </trkpt>
      <trkpt lat="42.270090" lon="1.747426">
        <ele>1675.938</ele>
        <time>2020-08-11T09:00:15Z</time>
      </trkpt>
      <trkpt lat="42.270109" lon="1.747304">
        <ele>1676.767</ele>
        <time>2020-08-11T09:00:35Z</time>
      </trkpt>
      <trkpt lat="42.270184" lon="1.747220">
        <ele>1680.081</ele>
        <time>2020-08-11T09:00:51Z</time>
      </trkpt>
      <trkpt lat="42.270258" lon="1.747119">
        <ele>1683.819</ele>
        <time>2020-08-11T09:01:09Z</time>
      </trkpt>
      <trkpt lat="42.270287" lon="1.746990">
        <ele>1686.108</ele>
        <time>2020-08-11T09:01:33Z</time>
      </trkpt>
      <trkpt lat="42.270315" lon="1.746874">
        <ele>1688.512</ele>
        <time>2020-08-11T09:01:52Z</time>
      </trkpt>
      <trkpt lat="42.270329" lon="1.746751">
        <ele>1690.599</ele>
        <time>2020-08-11T09:02:15Z</time>
      </trkpt>
      <trkpt lat="42.270405" lon="1.746684">
        <ele>1694.836</ele>
        <time>2020-08-11T09:02:31Z</time>
      </trkpt>
      <trkpt lat="42.270493" lon="1.746726">
        <ele>1698.412</ele>
        <time>2020-08-11T09:02:48Z</time>
      </trkpt>
      <trkpt lat="42.270558" lon="1.746810">
        <ele>1700.636</ele>
        <time>2020-08-11T09:03:04Z</time>
      </trkpt>
      <trkpt lat="42.270566" lon="1.746686">
        <ele>1702.427</ele>
        <time>2020-08-11T09:03:40Z</time>
      </trkpt>
      <trkpt lat="42.270577" lon="1.746558">
        <ele>1705.570</ele>
        <time>2020-08-11T09:03:59Z</time>
      </trkpt>
      <trkpt lat="42.270654" lon="1.746494">
        <ele>1710.829</ele>
        <time>2020-08-11T09:04:14Z</time>
      </trkpt>
      <trkpt lat="42.270746" lon="1.746462">
        <ele>1716.236</ele>
        <time>2020-08-11T09:04:37Z</time>
      </trkpt>
      <trkpt lat="42.270817" lon="1.746536">
        <ele>1718.517</ele>
        <time>2020-08-11T09:05:11Z</time>
      </trkpt>
      <trkpt lat="42.270902" lon="1.746580">
        <ele>1722.318</ele>
        <time>2020-08-11T09:05:25Z</time>
      </trkpt>
      <trkpt lat="42.270993" lon="1.746586">
        <ele>1727.108</ele>
        <time>2020-08-11T09:05:38Z</time>
      </trkpt>
      <trkpt lat="42.271078" lon="1.746638">
        <ele>1730.799</ele>
        <time>2020-08-11T09:06:29Z</time>
      </trkpt>
      <trkpt lat="42.271173" lon="1.746618">
        <ele>1735.886</ele>
        <time>2020-08-11T09:06:58Z</time>
      </trkpt>
      <trkpt lat="42.271250" lon="1.746699">
        <ele>1738.323</ele>
        <time>2020-08-11T09:07:18Z</time>
      </trkpt>
      <trkpt lat="42.271349" lon="1.746731">
        <ele>1742.759</ele>
        <time>2020-08-11T09:07:51Z</time>
      </trkpt>
      <trkpt lat="42.271429" lon="1.746795">
        <ele>1746.093</ele>
        <time>2020-08-11T09:08:18Z</time>
      </trkpt>
      <trkpt lat="42.271496" lon="1.746896">
        <ele>1748.794</ele>
        <time>2020-08-11T09:08:38Z</time>
      </trkpt>
      <trkpt lat="42.271572" lon="1.746973">
        <ele>1752.017</ele>
        <time>2020-08-11T09:09:13Z</time>
      </trkpt>
      <trkpt lat="42.271650" lon="1.747038">
        <ele>1755.286</ele>
        <time>2020-08-11T09:09:29Z</time>
      </trkpt>
      <trkpt lat="42.271739" lon="1.747013">
        <ele>1759.439</ele>
        <time>2020-08-11T09:09:50Z</time>
      </trkpt>
      <trkpt lat="42.271810" lon="1.746929">
        <ele>1763.301</ele>
        <time>2020-08-11T09:10:40Z</time>
      </trkpt>
      <trkpt lat="42.271716" lon="1.746963">
        <ele>1758.921</ele>
        <time>2020-08-11T09:11:45Z</time>
      </trkpt>
      <trkpt lat="42.271798" lon="1.746908">
        <ele>1762.908</ele>
        <time>2020-08-11T09:12:12Z</time>
      </trkpt>
      <trkpt lat="42.271709" lon="1.746983">
        <ele>1758.429</ele>
        <time>2020-08-11T09:12:23Z</time>
      </trkpt>
      <trkpt lat="42.271787" lon="1.746898">
        <ele>1762.556</ele>
        <time>2020-08-11T09:13:26Z</time>
      </trkpt>
      <trkpt lat="42.271876" lon="1.746932">
        <ele>1766.273</ele>
        <time>2020-08-11T09:15:20Z</time>
      </trkpt>
      <trkpt lat="42.271966" lon="1.746980">
        <ele>1769.659</ele>
        <time>2020-08-11T09:15:34Z</time>
      </trkpt>
      <trkpt lat="42.272050" lon="1.747030">
        <ele>1772.943</ele>
        <time>2020-08-11T09:15:53Z</time>
      </trkpt>
      <trkpt lat="42.272148" lon="1.747045">
        <ele>1777.234</ele>
        <time>2020-08-11T09:16:27Z</time>
      </trkpt>
      <trkpt lat="42.272250" lon="1.747030">
        <ele>1782.047</ele>
        <time>2020-08-11T09:16:49Z</time>
      </trkpt>
      <trkpt lat="42.272307" lon="1.747133">
        <ele>1783.086</ele>
        <time>2020-08-11T09:17:11Z</time>
      </trkpt>
      <trkpt lat="42.272381" lon="1.747206">
        <ele>1785.175</ele>
        <time>2020-08-11T09:17:26Z</time>
      </trkpt>
      <trkpt lat="42.272471" lon="1.747224">
        <ele>1788.728</ele>
        <time>2020-08-11T09:17:47Z</time>
      </trkpt>
      <trkpt lat="42.272563" lon="1.747197">
        <ele>1793.020</ele>
        <time>2020-08-11T09:18:07Z</time>
      </trkpt>
      <trkpt lat="42.272649" lon="1.747240">
        <ele>1795.708</ele>
        <time>2020-08-11T09:18:25Z</time>
      </trkpt>
      <trkpt lat="42.272721" lon="1.747167">
        <ele>1799.963</ele>
        <time>2020-08-11T09:18:59Z</time>
      </trkpt>
      <trkpt lat="42.272806" lon="1.747092">
        <ele>1805.030</ele>
        <time>2020-08-11T09:19:10Z</time>
      </trkpt>
      <trkpt lat="42.272904" lon="1.747107">
        <ele>1808.837</ele>
        <time>2020-08-11T09:19:56Z</time>
      </trkpt>
      <trkpt lat="42.272988" lon="1.747052">
        <ele>1813.363</ele>
        <time>2020-08-11T09:20:26Z</time>
      </trkpt>
      <trkpt lat="42.273045" lon="1.746954">
        <ele>1817.427</ele>
        <time>2020-08-11T09:20:37Z</time>
      </trkpt>
      <trkpt lat="42.273148" lon="1.746932">
        <ele>1822.318</ele>
        <time>2020-08-11T09:21:10Z</time>
      </trkpt>
      <trkpt lat="42.273241" lon="1.746946">
        <ele>1826.021</ele>
        <time>2020-08-11T09:21:28Z</time>
      </trkpt>
      <trkpt lat="42.273333" lon="1.746870">
        <ele>1831.680</ele>
        <time>2020-08-11T09:22:15Z</time>
      </trkpt>
      <trkpt lat="42.273419" lon="1.746912">
        <ele>1834.498</ele>
        <time>2020-08-11T09:22:37Z</time>
      </trkpt>
      <trkpt lat="42.273517" lon="1.746899">
        <ele>1838.915</ele>
        <time>2020-08-11T09:23:00Z</time>
      </trkpt>
      <trkpt lat="42.273603" lon="1.746945">
        <ele>1841.626</ele>
        <time>2020-08-11T09:23:34Z</time>
      </trkpt>
      <trkpt lat="42.273678" lon="1.747024">
        <ele>1844.308</ele>
        <time>2020-08-11T09:23:52Z</time>
      </trkpt>
      <trkpt lat="42.273769" lon="1.747071">
        <ele>1848.095</ele>
        <time>2020-08-11T09:24:07Z</time>
      </trkpt>
      <trkpt lat="42.273834" lon="1.747162">
        <ele>1850.172</ele>
        <time>2020-08-11T09:24:19Z</time>
      </trkpt>
      <trkpt lat="42.273899" lon="1.747257">
        <ele>1852.479</ele>
        <time>2020-08-11T09:24:37Z</time>
      </trkpt>
      <trkpt lat="42.273971" lon="1.747331">
        <ele>1855.935</ele>
        <time>2020-08-11T09:24:49Z</time>
      </trkpt>
      <trkpt lat="42.274020" lon="1.747441">
        <ele>1858.289</ele>
        <time>2020-08-11T09:25:01Z</time>
      </trkpt>
      <trkpt lat="42.274044" lon="1.747565">
        <ele>1859.680</ele>
        <time>2020-08-11T09:25:19Z</time>
      </trkpt>
      <trkpt lat="42.274080" lon="1.747678">
        <ele>1862.093</ele>
        <time>2020-08-11T09:25:39Z</time>
      </trkpt>
      <trkpt lat="42.274082" lon="1.747808">
        <ele>1861.892</ele>
        <time>2020-08-11T09:25:54Z</time>
      </trkpt>
      <trkpt lat="42.274091" lon="1.747931">
        <ele>1859.915</ele>
        <time>2020-08-11T09:26:58Z</time>
      </trkpt>
      <trkpt lat="42.274181" lon="1.747965">
        <ele>1863.765</ele>
        <time>2020-08-11T09:27:52Z</time>
      </trkpt>
      <trkpt lat="42.274271" lon="1.748008">
        <ele>1867.011</ele>
        <time>2020-08-11T09:28:12Z</time>
      </trkpt>
      <trkpt lat="42.274348" lon="1.748078">
        <ele>1868.708</ele>
        <time>2020-08-11T09:28:27Z</time>
      </trkpt>
      <trkpt lat="42.274445" lon="1.748121">
        <ele>1871.787</ele>
        <time>2020-08-11T09:28:40Z</time>
      </trkpt>
      <trkpt lat="42.274542" lon="1.748096">
        <ele>1876.914</ele>
        <time>2020-08-11T09:29:03Z</time>
      </trkpt>
      <trkpt lat="42.274634" lon="1.748145">
        <ele>1879.471</ele>
        <time>2020-08-11T09:29:26Z</time>
      </trkpt>
      <trkpt lat="42.274732" lon="1.748164">
        <ele>1883.447</ele>
        <time>2020-08-11T09:29:46Z</time>
      </trkpt>
      <trkpt lat="42.274813" lon="1.748233">
        <ele>1885.811</ele>
        <time>2020-08-11T09:30:00Z</time>
      </trkpt>
      <trkpt lat="42.274868" lon="1.748336">
        <ele>1886.492</ele>
        <time>2020-08-11T09:30:15Z</time>
      </trkpt>
      <trkpt lat="42.274905" lon="1.748450">
        <ele>1888.555</ele>
        <time>2020-08-11T09:30:25Z</time>
      </trkpt>
      <trkpt lat="42.274896" lon="1.748572">
        <ele>1887.974</ele>
        <time>2020-08-11T09:30:49Z</time>
      </trkpt>
      <trkpt lat="42.274908" lon="1.748698">
        <ele>1889.454</ele>
        <time>2020-08-11T09:30:57Z</time>
      </trkpt>
      <trkpt lat="42.274973" lon="1.748784">
        <ele>1894.556</ele>
        <time>2020-08-11T09:31:32Z</time>
      </trkpt>
      <trkpt lat="42.274990" lon="1.748920">
        <ele>1896.611</ele>
        <time>2020-08-11T09:31:46Z</time>
      </trkpt>
      <trkpt lat="42.275000" lon="1.749044">
        <ele>1898.108</ele>
        <time>2020-08-11T09:31:57Z</time>
      </trkpt>
      <trkpt lat="42.274987" lon="1.749170">
        <ele>1898.111</ele>
        <time>2020-08-11T09:32:13Z</time>
      </trkpt>
      <trkpt lat="42.275027" lon="1.749281">
        <ele>1901.538</ele>
        <time>2020-08-11T09:32:27Z</time>
      </trkpt>
      <trkpt lat="42.275070" lon="1.749399">
        <ele>1905.045</ele>
        <time>2020-08-11T09:32:43Z</time>
      </trkpt>
      <trkpt lat="42.275113" lon="1.749520">
        <ele>1908.261</ele>
        <time>2020-08-11T09:32:56Z</time>
      </trkpt>
      <trkpt lat="42.275088" lon="1.749649">
        <ele>1907.155</ele>
        <time>2020-08-11T09:33:05Z</time>
      </trkpt>
      <trkpt lat="42.275127" lon="1.749761">
        <ele>1909.786</ele>
        <time>2020-08-11T09:33:19Z</time>
      </trkpt>
      <trkpt lat="42.275153" lon="1.749888">
        <ele>1911.039</ele>
        <time>2020-08-11T09:33:35Z</time>
      </trkpt>
      <trkpt lat="42.275184" lon="1.750021">
        <ele>1912.428</ele>
        <time>2020-08-11T09:33:52Z</time>
      </trkpt>
      <trkpt lat="42.275229" lon="1.750127">
        <ele>1914.326</ele>
        <time>2020-08-11T09:34:05Z</time>
      </trkpt>
      <trkpt lat="42.275258" lon="1.750243">
        <ele>1915.147</ele>
        <time>2020-08-11T09:34:34Z</time>
      </trkpt>
      <trkpt lat="42.275332" lon="1.750315">
        <ele>1918.511</ele>
        <time>2020-08-11T09:34:47Z</time>
      </trkpt>
      <trkpt lat="42.275403" lon="1.750406">
        <ele>1920.908</ele>
        <time>2020-08-11T09:35:01Z</time>
      </trkpt>
      <trkpt lat="42.275419" lon="1.750527">
        <ele>1919.698</ele>
        <time>2020-08-11T09:35:51Z</time>
      </trkpt>
      <trkpt lat="42.275490" lon="1.750609">
        <ele>1921.855</ele>
        <time>2020-08-11T09:38:11Z</time>
      </trkpt>
      <trkpt lat="42.275550" lon="1.750706">
        <ele>1922.912</ele>
        <time>2020-08-11T09:38:23Z</time>
      </trkpt>
      <trkpt lat="42.275617" lon="1.750798">
        <ele>1924.248</ele>
        <time>2020-08-11T09:38:33Z</time>
      </trkpt>
      <trkpt lat="42.275664" lon="1.750904">
        <ele>1924.242</ele>
        <time>2020-08-11T09:38:41Z</time>
      </trkpt>
      <trkpt lat="42.275718" lon="1.751022">
        <ele>1924.443</ele>
        <time>2020-08-11T09:38:54Z</time>
      </trkpt>
      <trkpt lat="42.275768" lon="1.751137">
        <ele>1924.846</ele>
        <time>2020-08-11T09:39:02Z</time>
      </trkpt>
      <trkpt lat="42.275834" lon="1.751234">
        <ele>1926.895</ele>
        <time>2020-08-11T09:39:11Z</time>
      </trkpt>
      <trkpt lat="42.275872" lon="1.751350">
        <ele>1926.766</ele>
        <time>2020-08-11T09:39:21Z</time>
      </trkpt>
      <trkpt lat="42.275949" lon="1.751415">
        <ele>1929.429</ele>
        <time>2020-08-11T09:39:31Z</time>
      </trkpt>
      <trkpt lat="42.276026" lon="1.751532">
        <ele>1931.521</ele>
        <time>2020-08-11T09:39:43Z</time>
      </trkpt>
      <trkpt lat="42.276094" lon="1.751630">
        <ele>1933.608</ele>
        <time>2020-08-11T09:39:58Z</time>
      </trkpt>
      <trkpt lat="42.276140" lon="1.751741">
        <ele>1935.122</ele>
        <time>2020-08-11T09:40:15Z</time>
      </trkpt>
      <trkpt lat="42.276210" lon="1.751836">
        <ele>1938.059</ele>
        <time>2020-08-11T09:40:30Z</time>
      </trkpt>
      <trkpt lat="42.276296" lon="1.751901">
        <ele>1941.816</ele>
        <time>2020-08-11T09:40:52Z</time>
      </trkpt>
      <trkpt lat="42.276353" lon="1.752004">
        <ele>1944.662</ele>
        <time>2020-08-11T09:41:07Z</time>
      </trkpt>
      <trkpt lat="42.276350" lon="1.752134">
        <ele>1945.026</ele>
        <time>2020-08-11T09:41:17Z</time>
      </trkpt>
      <trkpt lat="42.276404" lon="1.752232">
        <ele>1947.817</ele>
        <time>2020-08-11T09:41:39Z</time>
      </trkpt>
      <trkpt lat="42.276468" lon="1.752332">
        <ele>1950.950</ele>
        <time>2020-08-11T09:41:55Z</time>
      </trkpt>
      <trkpt lat="42.276541" lon="1.752411">
        <ele>1953.999</ele>
        <time>2020-08-11T09:42:15Z</time>
      </trkpt>
      <trkpt lat="42.276627" lon="1.752460">
        <ele>1956.922</ele>
        <time>2020-08-11T09:45:11Z</time>
      </trkpt>
      <trkpt lat="42.276711" lon="1.752395">
        <ele>1960.462</ele>
        <time>2020-08-11T09:45:24Z</time>
      </trkpt>
      <trkpt lat="42.276786" lon="1.752321">
        <ele>1963.508</ele>
        <time>2020-08-11T09:45:41Z</time>
      </trkpt>
      <trkpt lat="42.276862" lon="1.752250">
        <ele>1966.908</ele>
        <time>2020-08-11T09:45:57Z</time>
      </trkpt>
      <trkpt lat="42.276914" lon="1.752142">
        <ele>1970.018</ele>
        <time>2020-08-11T09:46:21Z</time>
      </trkpt>
      <trkpt lat="42.276938" lon="1.752023">
        <ele>1972.635</ele>
        <time>2020-08-11T09:46:38Z</time>
      </trkpt>
      <trkpt lat="42.276982" lon="1.751916">
        <ele>1975.672</ele>
        <time>2020-08-11T09:47:01Z</time>
      </trkpt>
      <trkpt lat="42.277019" lon="1.751799">
        <ele>1978.048</ele>
        <time>2020-08-11T09:47:17Z</time>
      </trkpt>
      <trkpt lat="42.277006" lon="1.751672">
        <ele>1978.662</ele>
        <time>2020-08-11T09:47:30Z</time>
      </trkpt>
      <trkpt lat="42.276995" lon="1.751550">
        <ele>1979.593</ele>
        <time>2020-08-11T09:47:43Z</time>
      </trkpt>
      <trkpt lat="42.276970" lon="1.751419">
        <ele>1979.956</ele>
        <time>2020-08-11T09:48:12Z</time>
      </trkpt>
      <trkpt lat="42.276928" lon="1.751299">
        <ele>1980.125</ele>
        <time>2020-08-11T09:48:22Z</time>
      </trkpt>
      <trkpt lat="42.276912" lon="1.751179">
        <ele>1982.096</ele>
        <time>2020-08-11T09:48:34Z</time>
      </trkpt>
      <trkpt lat="42.276923" lon="1.751053">
        <ele>1985.131</ele>
        <time>2020-08-11T09:48:47Z</time>
      </trkpt>
      <trkpt lat="42.276947" lon="1.750935">
        <ele>1988.324</ele>
        <time>2020-08-11T09:49:02Z</time>
      </trkpt>
      <trkpt lat="42.276953" lon="1.750809">
        <ele>1990.908</ele>
        <time>2020-08-11T09:49:24Z</time>
      </trkpt>
      <trkpt lat="42.277018" lon="1.750721">
        <ele>1995.995</ele>
        <time>2020-08-11T09:49:49Z</time>
      </trkpt>
      <trkpt lat="42.277006" lon="1.750592">
        <ele>1998.112</ele>
        <time>2020-08-11T09:50:06Z</time>
      </trkpt>
      <trkpt lat="42.277006" lon="1.750464">
        <ele>2001.119</ele>
        <time>2020-08-11T09:50:24Z</time>
      </trkpt>
      <trkpt lat="42.277021" lon="1.750335">
        <ele>2004.945</ele>
        <time>2020-08-11T09:50:41Z</time>
      </trkpt>
      <trkpt lat="42.276981" lon="1.750221">
        <ele>2005.629</ele>
        <time>2020-08-11T09:51:49Z</time>
      </trkpt>
      <trkpt lat="42.276973" lon="1.750098">
        <ele>2007.480</ele>
        <time>2020-08-11T09:52:00Z</time>
      </trkpt>
      <trkpt lat="42.276978" lon="1.749971">
        <ele>2010.093</ele>
        <time>2020-08-11T09:52:19Z</time>
      </trkpt>
      <trkpt lat="42.276989" lon="1.749846">
        <ele>2013.132</ele>
        <time>2020-08-11T09:52:32Z</time>
      </trkpt>
      <trkpt lat="42.277008" lon="1.749725">
        <ele>2016.561</ele>
        <time>2020-08-11T09:52:47Z</time>
      </trkpt>
      <trkpt lat="42.277021" lon="1.749602">
        <ele>2018.121</ele>
        <time>2020-08-11T09:53:02Z</time>
      </trkpt>
      <trkpt lat="42.277030" lon="1.749481">
        <ele>2019.713</ele>
        <time>2020-08-11T09:53:24Z</time>
      </trkpt>
      <trkpt lat="42.277122" lon="1.749445">
        <ele>2024.308</ele>
        <time>2020-08-11T09:53:51Z</time>
      </trkpt>
      <trkpt lat="42.277211" lon="1.749476">
        <ele>2028.052</ele>
        <time>2020-08-11T09:54:13Z</time>
      </trkpt>
      <trkpt lat="42.277286" lon="1.749547">
        <ele>2030.429</ele>
        <time>2020-08-11T09:54:23Z</time>
      </trkpt>
      <trkpt lat="42.277361" lon="1.749630">
        <ele>2032.736</ele>
        <time>2020-08-11T09:54:36Z</time>
      </trkpt>
      <trkpt lat="42.277372" lon="1.749500">
        <ele>2034.832</ele>
        <time>2020-08-11T09:54:51Z</time>
      </trkpt>
      <trkpt lat="42.277434" lon="1.749401">
        <ele>2038.796</ele>
        <time>2020-08-11T09:55:11Z</time>
      </trkpt>
      <trkpt lat="42.277527" lon="1.749406">
        <ele>2042.997</ele>
        <time>2020-08-11T09:55:55Z</time>
      </trkpt>
      <trkpt lat="42.277620" lon="1.749381">
        <ele>2048.120</ele>
        <time>2020-08-11T09:56:34Z</time>
      </trkpt>
      <trkpt lat="42.277704" lon="1.749430">
        <ele>2051.559</ele>
        <time>2020-08-11T09:56:49Z</time>
      </trkpt>
      <trkpt lat="42.277795" lon="1.749448">
        <ele>2055.645</ele>
        <time>2020-08-11T09:57:31Z</time>
      </trkpt>
      <trkpt lat="42.277851" lon="1.749346">
        <ele>2059.747</ele>
        <time>2020-08-11T09:58:58Z</time>
      </trkpt>
      <trkpt lat="42.277878" lon="1.749230">
        <ele>2062.811</ele>
        <time>2020-08-11T09:59:14Z</time>
      </trkpt>
      <trkpt lat="42.277955" lon="1.749161">
        <ele>2067.108</ele>
        <time>2020-08-11T09:59:41Z</time>
      </trkpt>
      <trkpt lat="42.278049" lon="1.749145">
        <ele>2071.080</ele>
        <time>2020-08-11T10:00:08Z</time>
      </trkpt>
      <trkpt lat="42.278135" lon="1.749093">
        <ele>2075.447</ele>
        <time>2020-08-11T10:00:53Z</time>
      </trkpt>
      <trkpt lat="42.278146" lon="1.748966">
        <ele>2077.594</ele>
        <time>2020-08-11T10:01:10Z</time>
      </trkpt>
      <trkpt lat="42.278120" lon="1.748848">
        <ele>2077.670</ele>
        <time>2020-08-11T10:01:23Z</time>
      </trkpt>
      <trkpt lat="42.278139" lon="1.748728">
        <ele>2079.734</ele>
        <time>2020-08-11T10:01:38Z</time>
      </trkpt>
      <trkpt lat="42.278155" lon="1.748608">
        <ele>2081.825</ele>
        <time>2020-08-11T10:01:58Z</time>
      </trkpt>
      <trkpt lat="42.278193" lon="1.748496">
        <ele>2084.738</ele>
        <time>2020-08-11T10:02:20Z</time>
      </trkpt>
      <trkpt lat="42.278249" lon="1.748390">
        <ele>2088.747</ele>
        <time>2020-08-11T10:02:40Z</time>
      </trkpt>
      <trkpt lat="42.278294" lon="1.748281">
        <ele>2091.981</ele>
        <time>2020-08-11T10:02:57Z</time>
      </trkpt>
      <trkpt lat="42.278338" lon="1.748170">
        <ele>2094.961</ele>
        <time>2020-08-11T10:03:27Z</time>
      </trkpt>
      <trkpt lat="42.278408" lon="1.748092">
        <ele>2099.217</ele>
        <time>2020-08-11T10:03:56Z</time>
      </trkpt>
      <trkpt lat="42.278477" lon="1.748004">
        <ele>2103.708</ele>
        <time>2020-08-11T10:04:15Z</time>
      </trkpt>
      <trkpt lat="42.278567" lon="1.747967">
        <ele>2109.434</ele>
        <time>2020-08-11T10:05:23Z</time>
      </trkpt>
      <trkpt lat="42.278644" lon="1.748032">
        <ele>2113.151</ele>
        <time>2020-08-11T10:05:49Z</time>
      </trkpt>
      <trkpt lat="42.278684" lon="1.748142">
        <ele>2114.998</ele>
        <time>2020-08-11T10:06:04Z</time>
      </trkpt>
      <trkpt lat="42.278760" lon="1.748211">
        <ele>2119.084</ele>
        <time>2020-08-11T10:06:43Z</time>
      </trkpt>
      <trkpt lat="42.278824" lon="1.748118">
        <ele>2123.038</ele>
        <time>2020-08-11T10:07:36Z</time>
      </trkpt>
      <trkpt lat="42.278895" lon="1.748040">
        <ele>2127.459</ele>
        <time>2020-08-11T10:07:56Z</time>
      </trkpt>
      <trkpt lat="42.278985" lon="1.748060">
        <ele>2131.472</ele>
        <time>2020-08-11T10:08:51Z</time>
      </trkpt>
      <trkpt lat="42.279036" lon="1.748171">
        <ele>2131.981</ele>
        <time>2020-08-11T10:09:09Z</time>
      </trkpt>
      <trkpt lat="42.279093" lon="1.748278">
        <ele>2131.677</ele>
        <time>2020-08-11T10:10:25Z</time>
      </trkpt>
      <trkpt lat="42.279138" lon="1.748383">
        <ele>2130.661</ele>
        <time>2020-08-11T10:10:38Z</time>
      </trkpt>
      <trkpt lat="42.279144" lon="1.748259">
        <ele>2133.527</ele>
        <time>2020-08-11T10:11:10Z</time>
      </trkpt>
      <trkpt lat="42.279163" lon="1.748132">
        <ele>2137.708</ele>
        <time>2020-08-11T10:11:24Z</time>
      </trkpt>
      <trkpt lat="42.279190" lon="1.748007">
        <ele>2138.443</ele>
        <time>2020-08-11T10:11:41Z</time>
      </trkpt>
      <trkpt lat="42.279220" lon="1.747892">
        <ele>2137.450</ele>
        <time>2020-08-11T10:11:57Z</time>
      </trkpt>
      <trkpt lat="42.279232" lon="1.747766">
        <ele>2138.527</ele>
        <time>2020-08-11T10:12:29Z</time>
      </trkpt>
      <trkpt lat="42.279222" lon="1.747640">
        <ele>2140.723</ele>
        <time>2020-08-11T10:12:44Z</time>
      </trkpt>
      <trkpt lat="42.279215" lon="1.747510">
        <ele>2142.637</ele>
        <time>2020-08-11T10:12:58Z</time>
      </trkpt>
      <trkpt lat="42.279180" lon="1.747391">
        <ele>2146.278</ele>
        <time>2020-08-11T10:13:09Z</time>
      </trkpt>
      <trkpt lat="42.279135" lon="1.747283">
        <ele>2146.561</ele>
        <time>2020-08-11T10:13:21Z</time>
      </trkpt>
      <trkpt lat="42.279066" lon="1.747177">
        <ele>2143.980</ele>
        <time>2020-08-11T10:13:35Z</time>
      </trkpt>
      <trkpt lat="42.279044" lon="1.747051">
        <ele>2143.747</ele>
        <time>2020-08-11T10:13:47Z</time>
      </trkpt>
      <trkpt lat="42.279017" lon="1.746928">
        <ele>2143.029</ele>
        <time>2020-08-11T10:13:57Z</time>
      </trkpt>
      <trkpt lat="42.278990" lon="1.746800">
        <ele>2142.621</ele>
        <time>2020-08-11T10:14:10Z</time>
      </trkpt>
      <trkpt lat="42.278938" lon="1.746695">
        <ele>2140.508</ele>
        <time>2020-08-11T10:14:18Z</time>
      </trkpt>
      <trkpt lat="42.278917" lon="1.746566">
        <ele>2141.430</ele>
        <time>2020-08-11T10:14:40Z</time>
      </trkpt>
      <trkpt lat="42.278874" lon="1.746448">
        <ele>2141.217</ele>
        <time>2020-08-11T10:14:55Z</time>
      </trkpt>
      <trkpt lat="42.278811" lon="1.746354">
        <ele>2139.984</ele>
        <time>2020-08-11T10:15:18Z</time>
      </trkpt>
      <trkpt lat="42.278729" lon="1.746294">
        <ele>2137.450</ele>
        <time>2020-08-11T10:15:49Z</time>
      </trkpt>
      <trkpt lat="42.278678" lon="1.746185">
        <ele>2137.994</ele>
        <time>2020-08-11T10:16:03Z</time>
      </trkpt>
      <trkpt lat="42.278645" lon="1.746062">
        <ele>2139.745</ele>
        <time>2020-08-11T10:16:18Z</time>
      </trkpt>
      <trkpt lat="42.278648" lon="1.745939">
        <ele>2143.018</ele>
        <time>2020-08-11T10:16:33Z</time>
      </trkpt>
      <trkpt lat="42.278652" lon="1.745815">
        <ele>2146.247</ele>
        <time>2020-08-11T10:16:43Z</time>
      </trkpt>
      <trkpt lat="42.278638" lon="1.745691">
        <ele>2147.477</ele>
        <time>2020-08-11T10:16:53Z</time>
      </trkpt>
      <trkpt lat="42.278626" lon="1.745570">
        <ele>2148.661</ele>
        <time>2020-08-11T10:17:08Z</time>
      </trkpt>
      <trkpt lat="42.278632" lon="1.745444">
        <ele>2150.527</ele>
        <time>2020-08-11T10:17:23Z</time>
      </trkpt>
      <trkpt lat="42.278635" lon="1.745306">
        <ele>2152.308</ele>
        <time>2020-08-11T10:17:38Z</time>
      </trkpt>
      <trkpt lat="42.278637" lon="1.745182">
        <ele>2153.893</ele>
        <time>2020-08-11T10:17:49Z</time>
      </trkpt>
      <trkpt lat="42.278647" lon="1.745054">
        <ele>2155.930</ele>
        <time>2020-08-11T10:18:03Z</time>
      </trkpt>
      <trkpt lat="42.278645" lon="1.744928">
        <ele>2157.667</ele>
        <time>2020-08-11T10:18:16Z</time>
      </trkpt>
      <trkpt lat="42.278627" lon="1.744802">
        <ele>2158.673</ele>
        <time>2020-08-11T10:18:29Z</time>
      </trkpt>
      <trkpt lat="42.278651" lon="1.744678">
        <ele>2162.117</ele>
        <time>2020-08-11T10:18:48Z</time>
      </trkpt>
      <trkpt lat="42.278690" lon="1.744568">
        <ele>2166.258</ele>
        <time>2020-08-11T10:19:29Z</time>
      </trkpt>
      <trkpt lat="42.278740" lon="1.744467">
        <ele>2171.021</ele>
        <time>2020-08-11T10:19:53Z</time>
      </trkpt>
      <trkpt lat="42.278764" lon="1.744348">
        <ele>2174.570</ele>
        <time>2020-08-11T10:20:40Z</time>
      </trkpt>
      <trkpt lat="42.278791" lon="1.744227">
        <ele>2178.118</ele>
        <time>2020-08-11T10:21:05Z</time>
      </trkpt>
      <trkpt lat="42.278850" lon="1.744132">
        <ele>2183.398</ele>
        <time>2020-08-11T10:22:10Z</time>
      </trkpt>
      <trkpt lat="42.278863" lon="1.744008">
        <ele>2186.317</ele>
        <time>2020-08-11T10:22:30Z</time>
      </trkpt>
      <trkpt lat="42.278870" lon="1.743878">
        <ele>2189.208</ele>
        <time>2020-08-11T10:22:56Z</time>
      </trkpt>
      <trkpt lat="42.278887" lon="1.743749">
        <ele>2193.417</ele>
        <time>2020-08-11T10:23:12Z</time>
      </trkpt>
      <trkpt lat="42.278889" lon="1.743625">
        <ele>2196.734</ele>
        <time>2020-08-11T10:24:06Z</time>
      </trkpt>
      <trkpt lat="42.278940" lon="1.743525">
        <ele>2202.361</ele>
        <time>2020-08-11T10:25:05Z</time>
      </trkpt>
      <trkpt lat="42.278891" lon="1.743420">
        <ele>2202.677</ele>
        <time>2020-08-11T10:25:21Z</time>
      </trkpt>
      <trkpt lat="42.278886" lon="1.743298">
        <ele>2205.971</ele>
        <time>2020-08-11T10:25:36Z</time>
      </trkpt>
      <trkpt lat="42.278899" lon="1.743163">
        <ele>2210.492</ele>
        <time>2020-08-11T10:26:09Z</time>
      </trkpt>
      <trkpt lat="42.278955" lon="1.743067">
        <ele>2215.855</ele>
        <time>2020-08-11T10:26:39Z</time>
      </trkpt>
      <trkpt lat="42.278951" lon="1.742943">
        <ele>2218.634</ele>
        <time>2020-08-11T10:27:14Z</time>
      </trkpt>
      <trkpt lat="42.278917" lon="1.742824">
        <ele>2220.016</ele>
        <time>2020-08-11T10:27:28Z</time>
      </trkpt>
      <trkpt lat="42.278886" lon="1.742704">
        <ele>2221.276</ele>
        <time>2020-08-11T10:27:39Z</time>
      </trkpt>
      <trkpt lat="42.278851" lon="1.742588">
        <ele>2222.413</ele>
        <time>2020-08-11T10:28:22Z</time>
      </trkpt>
      <trkpt lat="42.278810" lon="1.742480">
        <ele>2223.908</ele>
        <time>2020-08-11T10:28:39Z</time>
      </trkpt>
      <trkpt lat="42.278727" lon="1.742419">
        <ele>2223.867</ele>
        <time>2020-08-11T10:28:50Z</time>
      </trkpt>
      <trkpt lat="42.278726" lon="1.742297">
        <ele>2227.384</ele>
        <time>2020-08-11T10:29:21Z</time>
      </trkpt>
      <trkpt lat="42.278647" lon="1.742237">
        <ele>2227.351</ele>
        <time>2020-08-11T10:29:39Z</time>
      </trkpt>
      <trkpt lat="42.278562" lon="1.742194">
        <ele>2226.717</ele>
        <time>2020-08-11T10:29:51Z</time>
      </trkpt>
      <trkpt lat="42.278471" lon="1.742153">
        <ele>2225.811</ele>
        <time>2020-08-11T10:30:04Z</time>
      </trkpt>
      <trkpt lat="42.278384" lon="1.742118">
        <ele>2225.092</ele>
        <time>2020-08-11T10:30:17Z</time>
      </trkpt>
      <trkpt lat="42.278295" lon="1.742076">
        <ele>2223.555</ele>
        <time>2020-08-11T10:31:05Z</time>
      </trkpt>
      <trkpt lat="42.278257" lon="1.741962">
        <ele>2225.844</ele>
        <time>2020-08-11T10:39:48Z</time>
      </trkpt>
      <trkpt lat="42.278292" lon="1.741846">
        <ele>2231.967</ele>
        <time>2020-08-11T10:40:56Z</time>
      </trkpt>
      <trkpt lat="42.278270" lon="1.741720">
        <ele>2235.681</ele>
        <time>2020-08-11T10:41:26Z</time>
      </trkpt>
      <trkpt lat="42.278240" lon="1.741601">
        <ele>2238.019</ele>
        <time>2020-08-11T10:41:51Z</time>
      </trkpt>
      <trkpt lat="42.278198" lon="1.741490">
        <ele>2239.108</ele>
        <time>2020-08-11T10:42:01Z</time>
      </trkpt>
      <trkpt lat="42.278150" lon="1.741386">
        <ele>2239.562</ele>
        <time>2020-08-11T10:42:13Z</time>
      </trkpt>
      <trkpt lat="42.278101" lon="1.741278">
        <ele>2240.289</ele>
        <time>2020-08-11T10:42:41Z</time>
      </trkpt>
      <trkpt lat="42.278051" lon="1.741177">
        <ele>2240.666</ele>
        <time>2020-08-11T10:43:20Z</time>
      </trkpt>
      <trkpt lat="42.278025" lon="1.741059">
        <ele>2241.652</ele>
        <time>2020-08-11T10:43:32Z</time>
      </trkpt>
      <trkpt lat="42.277989" lon="1.740942">
        <ele>2240.766</ele>
        <time>2020-08-11T10:43:55Z</time>
      </trkpt>
      <trkpt lat="42.277922" lon="1.740855">
        <ele>2237.187</ele>
        <time>2020-08-11T10:44:19Z</time>
      </trkpt>
      <trkpt lat="42.277895" lon="1.740731">
        <ele>2236.270</ele>
        <time>2020-08-11T10:44:31Z</time>
      </trkpt>
      <trkpt lat="42.277918" lon="1.740588">
        <ele>2238.919</ele>
        <time>2020-08-11T10:44:48Z</time>
      </trkpt>
      <trkpt lat="42.277948" lon="1.740473">
        <ele>2241.537</ele>
        <time>2020-08-11T10:44:59Z</time>
      </trkpt>
      <trkpt lat="42.277936" lon="1.740340">
        <ele>2241.149</ele>
        <time>2020-08-11T10:45:10Z</time>
      </trkpt>
      <trkpt lat="42.277929" lon="1.740211">
        <ele>2240.813</ele>
        <time>2020-08-11T10:45:21Z</time>
      </trkpt>
      <trkpt lat="42.277914" lon="1.740080">
        <ele>2239.808</ele>
        <time>2020-08-11T10:45:31Z</time>
      </trkpt>
      <trkpt lat="42.277898" lon="1.739949">
        <ele>2238.429</ele>
        <time>2020-08-11T10:45:40Z</time>
      </trkpt>
      <trkpt lat="42.277893" lon="1.739814">
        <ele>2237.196</ele>
        <time>2020-08-11T10:45:50Z</time>
      </trkpt>
      <trkpt lat="42.277902" lon="1.739685">
        <ele>2236.693</ele>
        <time>2020-08-11T10:45:59Z</time>
      </trkpt>
      <trkpt lat="42.277939" lon="1.739568">
        <ele>2237.839</ele>
        <time>2020-08-11T10:46:10Z</time>
      </trkpt>
      <trkpt lat="42.277984" lon="1.739449">
        <ele>2239.423</ele>
        <time>2020-08-11T10:46:25Z</time>
      </trkpt>
      <trkpt lat="42.278020" lon="1.739336">
        <ele>2240.164</ele>
        <time>2020-08-11T10:46:35Z</time>
      </trkpt>
      <trkpt lat="42.278108" lon="1.739309">
        <ele>2245.457</ele>
        <time>2020-08-11T10:46:47Z</time>
      </trkpt>
      <trkpt lat="42.278170" lon="1.739219">
        <ele>2248.186</ele>
        <time>2020-08-11T10:47:04Z</time>
      </trkpt>
      <trkpt lat="42.278256" lon="1.739178">
        <ele>2253.151</ele>
        <time>2020-08-11T10:47:59Z</time>
      </trkpt>
      <trkpt lat="42.278293" lon="1.739064">
        <ele>2254.601</ele>
        <time>2020-08-11T10:48:10Z</time>
      </trkpt>
      <trkpt lat="42.278327" lon="1.738941">
        <ele>2256.011</ele>
        <time>2020-08-11T10:48:24Z</time>
      </trkpt>
      <trkpt lat="42.278420" lon="1.738910">
        <ele>2260.608</ele>
        <time>2020-08-11T10:48:39Z</time>
      </trkpt>
      <trkpt lat="42.278473" lon="1.738804">
        <ele>2262.621</ele>
        <time>2020-08-11T10:49:21Z</time>
      </trkpt>
      <trkpt lat="42.278505" lon="1.738683">
        <ele>2263.638</ele>
        <time>2020-08-11T10:50:30Z</time>
      </trkpt>
      <trkpt lat="42.278521" lon="1.738562">
        <ele>2263.495</ele>
        <time>2020-08-11T10:50:42Z</time>
      </trkpt>
      <trkpt lat="42.278603" lon="1.738502">
        <ele>2267.081</ele>
        <time>2020-08-11T10:51:09Z</time>
      </trkpt>
      <trkpt lat="42.278690" lon="1.738432">
        <ele>2270.275</ele>
        <time>2020-08-11T10:51:21Z</time>
      </trkpt>
      <trkpt lat="42.278779" lon="1.738382">
        <ele>2274.086</ele>
        <time>2020-08-11T10:51:39Z</time>
      </trkpt>
      <trkpt lat="42.278836" lon="1.738286">
        <ele>2275.459</ele>
        <time>2020-08-11T10:52:00Z</time>
      </trkpt>
      <trkpt lat="42.278922" lon="1.738249">
        <ele>2279.258</ele>
        <time>2020-08-11T10:52:36Z</time>
      </trkpt>
      <trkpt lat="42.279004" lon="1.738196">
        <ele>2282.729</ele>
        <time>2020-08-11T10:52:59Z</time>
      </trkpt>
      <trkpt lat="42.279068" lon="1.738104">
        <ele>2285.000</ele>
        <time>2020-08-11T10:53:14Z</time>
      </trkpt>
      <trkpt lat="42.279141" lon="1.738032">
        <ele>2288.220</ele>
        <time>2020-08-11T10:53:32Z</time>
      </trkpt>
      <trkpt lat="42.279211" lon="1.737955">
        <ele>2291.008</ele>
        <time>2020-08-11T10:53:49Z</time>
      </trkpt>
      <trkpt lat="42.279301" lon="1.737927">
        <ele>2295.718</ele>
        <time>2020-08-11T10:54:04Z</time>
      </trkpt>
      <trkpt lat="42.279340" lon="1.737814">
        <ele>2296.025</ele>
        <time>2020-08-11T10:55:05Z</time>
      </trkpt>
      <trkpt lat="42.279381" lon="1.737703">
        <ele>2296.462</ele>
        <time>2020-08-11T10:55:34Z</time>
      </trkpt>
      <trkpt lat="42.279439" lon="1.737610">
        <ele>2298.358</ele>
        <time>2020-08-11T10:55:47Z</time>
      </trkpt>
      <trkpt lat="42.279495" lon="1.737514">
        <ele>2299.962</ele>
        <time>2020-08-11T10:56:20Z</time>
      </trkpt>
      <trkpt lat="42.279555" lon="1.737421">
        <ele>2301.383</ele>
        <time>2020-08-11T10:56:34Z</time>
      </trkpt>
      <trkpt lat="42.279569" lon="1.737297">
        <ele>2299.366</ele>
        <time>2020-08-11T10:56:46Z</time>
      </trkpt>
      <trkpt lat="42.279661" lon="1.737289">
        <ele>2304.145</ele>
        <time>2020-08-11T10:58:01Z</time>
      </trkpt>
      <trkpt lat="42.279723" lon="1.737188">
        <ele>2305.223</ele>
        <time>2020-08-11T10:58:20Z</time>
      </trkpt>
      <trkpt lat="42.279801" lon="1.737113">
        <ele>2307.283</ele>
        <time>2020-08-11T10:58:46Z</time>
      </trkpt>
      <trkpt lat="42.279870" lon="1.737027">
        <ele>2308.511</ele>
        <time>2020-08-11T10:59:14Z</time>
      </trkpt>
      <trkpt lat="42.279955" lon="1.736974">
        <ele>2311.508</ele>
        <time>2020-08-11T10:59:41Z</time>
      </trkpt>
      <trkpt lat="42.280053" lon="1.736949">
        <ele>2316.038</ele>
        <time>2020-08-11T11:00:01Z</time>
      </trkpt>
      <trkpt lat="42.280134" lon="1.736890">
        <ele>2318.975</ele>
        <time>2020-08-11T11:01:42Z</time>
      </trkpt>
      <trkpt lat="42.280206" lon="1.736812">
        <ele>2320.892</ele>
        <time>2020-08-11T11:01:59Z</time>
      </trkpt>
      <trkpt lat="42.280278" lon="1.736730">
        <ele>2322.618</ele>
        <time>2020-08-11T11:02:17Z</time>
      </trkpt>
      <trkpt lat="42.280338" lon="1.736637">
        <ele>2322.952</ele>
        <time>2020-08-11T11:02:32Z</time>
      </trkpt>
      <trkpt lat="42.280425" lon="1.736597">
        <ele>2325.853</ele>
        <time>2020-08-11T11:03:04Z</time>
      </trkpt>
      <trkpt lat="42.280469" lon="1.736483">
        <ele>2324.596</ele>
        <time>2020-08-11T11:03:56Z</time>
      </trkpt>
      <trkpt lat="42.280552" lon="1.736434">
        <ele>2327.155</ele>
        <time>2020-08-11T11:04:21Z</time>
      </trkpt>
      <trkpt lat="42.280645" lon="1.736406">
        <ele>2331.014</ele>
        <time>2020-08-11T11:04:40Z</time>
      </trkpt>
      <trkpt lat="42.280726" lon="1.736345">
        <ele>2333.054</ele>
        <time>2020-08-11T11:05:04Z</time>
      </trkpt>
      <trkpt lat="42.280819" lon="1.736307">
        <ele>2336.309</ele>
        <time>2020-08-11T11:05:27Z</time>
      </trkpt>
      <trkpt lat="42.280903" lon="1.736245">
        <ele>2338.208</ele>
        <time>2020-08-11T11:05:44Z</time>
      </trkpt>
      <trkpt lat="42.280975" lon="1.736157">
        <ele>2338.717</ele>
        <time>2020-08-11T11:06:01Z</time>
      </trkpt>
      <trkpt lat="42.281052" lon="1.736080">
        <ele>2339.884</ele>
        <time>2020-08-11T11:06:19Z</time>
      </trkpt>
      <trkpt lat="42.281106" lon="1.735980">
        <ele>2338.651</ele>
        <time>2020-08-11T11:06:37Z</time>
      </trkpt>
      <trkpt lat="42.281167" lon="1.735882">
        <ele>2337.247</ele>
        <time>2020-08-11T11:06:52Z</time>
      </trkpt>
      <trkpt lat="42.281244" lon="1.735820">
        <ele>2337.231</ele>
        <time>2020-08-11T11:07:10Z</time>
      </trkpt>
      <trkpt lat="42.281337" lon="1.735801">
        <ele>2339.342</ele>
        <time>2020-08-11T11:07:37Z</time>
      </trkpt>
      <trkpt lat="42.281415" lon="1.735872">
        <ele>2346.395</ele>
        <time>2020-08-11T11:08:11Z</time>
      </trkpt>
      <trkpt lat="42.281504" lon="1.735839">
        <ele>2346.824</ele>
        <time>2020-08-11T11:08:50Z</time>
      </trkpt>
      <trkpt lat="42.281601" lon="1.735873">
        <ele>2350.776</ele>
        <time>2020-08-11T11:09:19Z</time>
      </trkpt>
      <trkpt lat="42.281687" lon="1.735915">
        <ele>2355.490</ele>
        <time>2020-08-11T11:09:33Z</time>
      </trkpt>
      <trkpt lat="42.281777" lon="1.735968">
        <ele>2361.519</ele>
        <time>2020-08-11T11:09:51Z</time>
      </trkpt>
      <trkpt lat="42.281863" lon="1.735920">
        <ele>2361.808</ele>
        <time>2020-08-11T11:10:14Z</time>
      </trkpt>
      <trkpt lat="42.281964" lon="1.735880">
        <ele>2363.343</ele>
        <time>2020-08-11T11:11:54Z</time>
      </trkpt>
      <trkpt lat="42.282050" lon="1.735923">
        <ele>2368.830</ele>
        <time>2020-08-11T11:12:38Z</time>
      </trkpt>
      <trkpt lat="42.282137" lon="1.735882">
        <ele>2370.027</ele>
        <time>2020-08-11T11:13:17Z</time>
      </trkpt>
      <trkpt lat="42.282227" lon="1.735910">
        <ele>2374.843</ele>
        <time>2020-08-11T11:13:40Z</time>
      </trkpt>
      <trkpt lat="42.282323" lon="1.735892">
        <ele>2377.277</ele>
        <time>2020-08-11T11:14:31Z</time>
      </trkpt>
      <trkpt lat="42.282413" lon="1.735942">
        <ele>2382.488</ele>
        <time>2020-08-11T11:14:49Z</time>
      </trkpt>
      <trkpt lat="42.282503" lon="1.735914">
        <ele>2384.391</ele>
        <time>2020-08-11T11:15:06Z</time>
      </trkpt>
      <trkpt lat="42.282592" lon="1.735893">
        <ele>2385.960</ele>
        <time>2020-08-11T11:15:22Z</time>
      </trkpt>
      <trkpt lat="42.282673" lon="1.735828">
        <ele>2385.834</ele>
        <time>2020-08-11T11:15:36Z</time>
      </trkpt>
      <trkpt lat="42.282738" lon="1.735735">
        <ele>2384.255</ele>
        <time>2020-08-11T11:15:47Z</time>
      </trkpt>
      <trkpt lat="42.282825" lon="1.735684">
        <ele>2384.810</ele>
        <time>2020-08-11T11:15:58Z</time>
      </trkpt>
      <trkpt lat="42.282897" lon="1.735609">
        <ele>2384.208</ele>
        <time>2020-08-11T11:16:07Z</time>
      </trkpt>
      <trkpt lat="42.282984" lon="1.735545">
        <ele>2384.659</ele>
        <time>2020-08-11T11:16:20Z</time>
      </trkpt>
      <trkpt lat="42.283059" lon="1.735478">
        <ele>2385.146</ele>
        <time>2020-08-11T11:16:35Z</time>
      </trkpt>
      <trkpt lat="42.283150" lon="1.735467">
        <ele>2386.863</ele>
        <time>2020-08-11T11:17:26Z</time>
      </trkpt>
      <trkpt lat="42.283214" lon="1.735377">
        <ele>2386.519</ele>
        <time>2020-08-11T11:17:44Z</time>
      </trkpt>
      <trkpt lat="42.283292" lon="1.735301">
        <ele>2387.263</ele>
        <time>2020-08-11T11:17:56Z</time>
      </trkpt>
      <trkpt lat="42.283321" lon="1.735172">
        <ele>2386.454</ele>
        <time>2020-08-11T11:18:05Z</time>
      </trkpt>
      <trkpt lat="42.283359" lon="1.735061">
        <ele>2386.567</ele>
        <time>2020-08-11T11:18:15Z</time>
      </trkpt>
      <trkpt lat="42.283394" lon="1.734934">
        <ele>2386.376</ele>
        <time>2020-08-11T11:18:26Z</time>
      </trkpt>
      <trkpt lat="42.283405" lon="1.734810">
        <ele>2385.454</ele>
        <time>2020-08-11T11:18:36Z</time>
      </trkpt>
      <trkpt lat="42.283440" lon="1.734688">
        <ele>2386.156</ele>
        <time>2020-08-11T11:18:49Z</time>
      </trkpt>
      <trkpt lat="42.283444" lon="1.734567">
        <ele>2387.311</ele>
        <time>2020-08-11T11:19:14Z</time>
      </trkpt>
      <trkpt lat="42.283408" lon="1.734450">
        <ele>2386.908</ele>
        <time>2020-08-11T11:19:24Z</time>
      </trkpt>
      <trkpt lat="42.283408" lon="1.734314">
        <ele>2385.651</ele>
        <time>2020-08-11T11:19:35Z</time>
      </trkpt>
      <trkpt lat="42.283446" lon="1.734198">
        <ele>2386.958</ele>
        <time>2020-08-11T11:19:46Z</time>
      </trkpt>
      <trkpt lat="42.283458" lon="1.734072">
        <ele>2386.565</ele>
        <time>2020-08-11T11:19:56Z</time>
      </trkpt>
      <trkpt lat="42.283490" lon="1.733950">
        <ele>2387.421</ele>
        <time>2020-08-11T11:20:09Z</time>
      </trkpt>
      <trkpt lat="42.283535" lon="1.733838">
        <ele>2389.845</ele>
        <time>2020-08-11T11:20:25Z</time>
      </trkpt>
      <trkpt lat="42.283569" lon="1.733723">
        <ele>2391.826</ele>
        <time>2020-08-11T11:20:39Z</time>
      </trkpt>
      <trkpt lat="42.283614" lon="1.733608">
        <ele>2394.219</ele>
        <time>2020-08-11T11:20:59Z</time>
      </trkpt>
      <trkpt lat="42.283629" lon="1.733483">
        <ele>2395.588</ele>
        <time>2020-08-11T11:21:16Z</time>
      </trkpt>
      <trkpt lat="42.283622" lon="1.733360">
        <ele>2395.586</ele>
        <time>2020-08-11T11:21:28Z</time>
      </trkpt>
      <trkpt lat="42.283635" lon="1.733234">
        <ele>2397.660</ele>
        <time>2020-08-11T11:21:41Z</time>
      </trkpt>
      <trkpt lat="42.283681" lon="1.733123">
        <ele>2400.826</ele>
        <time>2020-08-11T11:21:54Z</time>
      </trkpt>
      <trkpt lat="42.283712" lon="1.733008">
        <ele>2403.608</ele>
        <time>2020-08-11T11:22:26Z</time>
      </trkpt>
      <trkpt lat="42.283717" lon="1.732885">
        <ele>2406.214</ele>
        <time>2020-08-11T11:22:45Z</time>
      </trkpt>
      <trkpt lat="42.283757" lon="1.732768">
        <ele>2409.381</ele>
        <time>2020-08-11T11:23:10Z</time>
      </trkpt>
      <trkpt lat="42.283811" lon="1.732869">
        <ele>2409.068</ele>
        <time>2020-08-11T11:23:20Z</time>
      </trkpt>
      <trkpt lat="42.283864" lon="1.732969">
        <ele>2409.244</ele>
        <time>2020-08-11T11:23:31Z</time>
      </trkpt>
      <trkpt lat="42.283898" lon="1.733082">
        <ele>2408.748</ele>
        <time>2020-08-11T11:23:44Z</time>
      </trkpt>
      <trkpt lat="42.283931" lon="1.733206">
        <ele>2407.449</ele>
        <time>2020-08-11T11:23:54Z</time>
      </trkpt>
      <trkpt lat="42.283877" lon="1.733096">
        <ele>2408.742</ele>
        <time>2020-08-11T11:30:30Z</time>
      </trkpt>
      <trkpt lat="42.283834" lon="1.732985">
        <ele>2408.091</ele>
        <time>2020-08-11T11:30:42Z</time>
      </trkpt>
      <trkpt lat="42.283795" lon="1.732867">
        <ele>2408.621</ele>
        <time>2020-08-11T11:31:15Z</time>
      </trkpt>
      <trkpt lat="42.283759" lon="1.732743">
        <ele>2409.941</ele>
        <time>2020-08-11T11:31:25Z</time>
      </trkpt>
      <trkpt lat="42.283708" lon="1.732631">
        <ele>2411.405</ele>
        <time>2020-08-11T11:31:40Z</time>
      </trkpt>
      <trkpt lat="42.283677" lon="1.732512">
        <ele>2413.908</ele>
        <time>2020-08-11T11:31:56Z</time>
      </trkpt>
      <trkpt lat="42.283648" lon="1.732385">
        <ele>2417.248</ele>
        <time>2020-08-11T11:32:20Z</time>
      </trkpt>
      <trkpt lat="42.283587" lon="1.732294">
        <ele>2420.465</ele>
        <time>2020-08-11T11:32:36Z</time>
      </trkpt>
      <trkpt lat="42.283600" lon="1.732170">
        <ele>2423.482</ele>
        <time>2020-08-11T11:32:58Z</time>
      </trkpt>
      <trkpt lat="42.283542" lon="1.732074">
        <ele>2426.798</ele>
        <time>2020-08-11T11:33:25Z</time>
      </trkpt>
      <trkpt lat="42.283447" lon="1.732056">
        <ele>2429.152</ele>
        <time>2020-08-11T11:33:50Z</time>
      </trkpt>
      <trkpt lat="42.283379" lon="1.731976">
        <ele>2432.343</ele>
        <time>2020-08-11T11:34:06Z</time>
      </trkpt>
      <trkpt lat="42.283291" lon="1.731938">
        <ele>2434.376</ele>
        <time>2020-08-11T11:34:18Z</time>
      </trkpt>
      <trkpt lat="42.283197" lon="1.731920">
        <ele>2435.155</ele>
        <time>2020-08-11T11:34:36Z</time>
      </trkpt>
      <trkpt lat="42.283140" lon="1.731824">
        <ele>2437.337</ele>
        <time>2020-08-11T11:34:59Z</time>
      </trkpt>
      <trkpt lat="42.283063" lon="1.731755">
        <ele>2438.449</ele>
        <time>2020-08-11T11:35:26Z</time>
      </trkpt>
      <trkpt lat="42.282987" lon="1.731681">
        <ele>2438.513</ele>
        <time>2020-08-11T11:35:40Z</time>
      </trkpt>
      <trkpt lat="42.282923" lon="1.731592">
        <ele>2439.108</ele>
        <time>2020-08-11T11:35:51Z</time>
      </trkpt>
      <trkpt lat="42.282871" lon="1.731486">
        <ele>2440.179</ele>
        <time>2020-08-11T11:36:01Z</time>
      </trkpt>
      <trkpt lat="42.282802" lon="1.731403">
        <ele>2440.336</ele>
        <time>2020-08-11T11:36:25Z</time>
      </trkpt>
      <trkpt lat="42.282722" lon="1.731341">
        <ele>2439.533</ele>
        <time>2020-08-11T11:36:49Z</time>
      </trkpt>
      <trkpt lat="42.282639" lon="1.731290">
        <ele>2439.069</ele>
        <time>2020-08-11T11:37:04Z</time>
      </trkpt>
      <trkpt lat="42.282555" lon="1.731221">
        <ele>2440.093</ele>
        <time>2020-08-11T11:37:12Z</time>
      </trkpt>
      <trkpt lat="42.282483" lon="1.731144">
        <ele>2442.514</ele>
        <time>2020-08-11T11:37:24Z</time>
      </trkpt>
      <trkpt lat="42.282408" lon="1.731073">
        <ele>2445.967</ele>
        <time>2020-08-11T11:37:35Z</time>
      </trkpt>
      <trkpt lat="42.282319" lon="1.731053">
        <ele>2446.686</ele>
        <time>2020-08-11T11:38:02Z</time>
      </trkpt>
      <trkpt lat="42.282247" lon="1.730974">
        <ele>2450.687</ele>
        <time>2020-08-11T11:38:29Z</time>
      </trkpt>
      <trkpt lat="42.282174" lon="1.730893">
        <ele>2453.942</ele>
        <time>2020-08-11T11:39:14Z</time>
      </trkpt>
      <trkpt lat="42.282091" lon="1.730845">
        <ele>2455.026</ele>
        <time>2020-08-11T11:39:55Z</time>
      </trkpt>
      <trkpt lat="42.282027" lon="1.730757">
        <ele>2457.308</ele>
        <time>2020-08-11T11:40:09Z</time>
      </trkpt>
      <trkpt lat="42.281951" lon="1.730689">
        <ele>2458.354</ele>
        <time>2020-08-11T11:40:19Z</time>
      </trkpt>
      <trkpt lat="42.281866" lon="1.730622">
        <ele>2458.961</ele>
        <time>2020-08-11T11:40:34Z</time>
      </trkpt>
      <trkpt lat="42.281787" lon="1.730555">
        <ele>2459.638</ele>
        <time>2020-08-11T11:40:44Z</time>
      </trkpt>
      <trkpt lat="42.281715" lon="1.730476">
        <ele>2460.654</ele>
        <time>2020-08-11T11:40:55Z</time>
      </trkpt>
      <trkpt lat="42.281637" lon="1.730416">
        <ele>2460.838</ele>
        <time>2020-08-11T11:41:06Z</time>
      </trkpt>
      <trkpt lat="42.281558" lon="1.730353">
        <ele>2460.829</ele>
        <time>2020-08-11T11:41:22Z</time>
      </trkpt>
      <trkpt lat="42.281484" lon="1.730272">
        <ele>2461.622</ele>
        <time>2020-08-11T11:41:41Z</time>
      </trkpt>
      <trkpt lat="42.281404" lon="1.730188">
        <ele>2462.021</ele>
        <time>2020-08-11T11:41:55Z</time>
      </trkpt>
      <trkpt lat="42.281318" lon="1.730151">
        <ele>2460.785</ele>
        <time>2020-08-11T11:42:10Z</time>
      </trkpt>
      <trkpt lat="42.281248" lon="1.730066">
        <ele>2461.489</ele>
        <time>2020-08-11T11:42:23Z</time>
      </trkpt>
      <trkpt lat="42.281178" lon="1.729981">
        <ele>2462.317</ele>
        <time>2020-08-11T11:42:32Z</time>
      </trkpt>
      <trkpt lat="42.281096" lon="1.729904">
        <ele>2462.708</ele>
        <time>2020-08-11T11:42:43Z</time>
      </trkpt>
      <trkpt lat="42.281018" lon="1.729838">
        <ele>2462.424</ele>
        <time>2020-08-11T11:42:52Z</time>
      </trkpt>
      <trkpt lat="42.280932" lon="1.729761">
        <ele>2462.041</ele>
        <time>2020-08-11T11:43:04Z</time>
      </trkpt>
      <trkpt lat="42.280863" lon="1.729670">
        <ele>2462.548</ele>
        <time>2020-08-11T11:43:23Z</time>
      </trkpt>
      <trkpt lat="42.280837" lon="1.729540">
        <ele>2465.454</ele>
        <time>2020-08-11T11:44:05Z</time>
      </trkpt>
      <trkpt lat="42.280757" lon="1.729465">
        <ele>2464.138</ele>
        <time>2020-08-11T11:44:15Z</time>
      </trkpt>
      <trkpt lat="42.280705" lon="1.729361">
        <ele>2464.319</ele>
        <time>2020-08-11T11:44:25Z</time>
      </trkpt>
      <trkpt lat="42.280660" lon="1.729254">
        <ele>2464.562</ele>
        <time>2020-08-11T11:44:37Z</time>
      </trkpt>
      <trkpt lat="42.280640" lon="1.729126">
        <ele>2465.811</ele>
        <time>2020-08-11T11:45:16Z</time>
      </trkpt>
      <trkpt lat="42.280614" lon="1.728999">
        <ele>2466.479</ele>
        <time>2020-08-11T11:45:26Z</time>
      </trkpt>
      <trkpt lat="42.280570" lon="1.728876">
        <ele>2465.905</ele>
        <time>2020-08-11T11:45:36Z</time>
      </trkpt>
      <trkpt lat="42.280545" lon="1.728753">
        <ele>2466.425</ele>
        <time>2020-08-11T11:45:44Z</time>
      </trkpt>
      <trkpt lat="42.280539" lon="1.728627">
        <ele>2467.908</ele>
        <time>2020-08-11T11:45:54Z</time>
      </trkpt>
      <trkpt lat="42.280547" lon="1.728494">
        <ele>2469.053</ele>
        <time>2020-08-11T11:46:07Z</time>
      </trkpt>
      <trkpt lat="42.280517" lon="1.728364">
        <ele>2467.990</ele>
        <time>2020-08-11T11:46:15Z</time>
      </trkpt>
      <trkpt lat="42.280501" lon="1.728228">
        <ele>2467.257</ele>
        <time>2020-08-11T11:46:29Z</time>
      </trkpt>
      <trkpt lat="42.280483" lon="1.728108">
        <ele>2466.353</ele>
        <time>2020-08-11T11:46:46Z</time>
      </trkpt>
      <trkpt lat="42.280482" lon="1.727985">
        <ele>2466.087</ele>
        <time>2020-08-11T11:47:56Z</time>
      </trkpt>
      <trkpt lat="42.280482" lon="1.727864">
        <ele>2465.688</ele>
        <time>2020-08-11T11:48:18Z</time>
      </trkpt>
      <trkpt lat="42.280486" lon="1.727732">
        <ele>2465.451</ele>
        <time>2020-08-11T11:48:28Z</time>
      </trkpt>
      <trkpt lat="42.280498" lon="1.727609">
        <ele>2465.620</ele>
        <time>2020-08-11T11:48:38Z</time>
      </trkpt>
      <trkpt lat="42.280527" lon="1.727492">
        <ele>2466.611</ele>
        <time>2020-08-11T11:48:51Z</time>
      </trkpt>
      <trkpt lat="42.280517" lon="1.727369">
        <ele>2465.821</ele>
        <time>2020-08-11T11:49:06Z</time>
      </trkpt>
      <trkpt lat="42.280543" lon="1.727248">
        <ele>2466.503</ele>
        <time>2020-08-11T11:49:18Z</time>
      </trkpt>
      <trkpt lat="42.280531" lon="1.727124">
        <ele>2465.608</ele>
        <time>2020-08-11T11:49:27Z</time>
      </trkpt>
      <trkpt lat="42.280513" lon="1.726991">
        <ele>2464.627</ele>
        <time>2020-08-11T11:49:38Z</time>
      </trkpt>
      <trkpt lat="42.280525" lon="1.726855">
        <ele>2464.944</ele>
        <time>2020-08-11T11:49:50Z</time>
      </trkpt>
      <trkpt lat="42.280578" lon="1.726750">
        <ele>2466.741</ele>
        <time>2020-08-11T11:50:00Z</time>
      </trkpt>
      <trkpt lat="42.280623" lon="1.726637">
        <ele>2467.867</ele>
        <time>2020-08-11T11:50:13Z</time>
      </trkpt>
      <trkpt lat="42.280694" lon="1.726551">
        <ele>2468.931</ele>
        <time>2020-08-11T11:50:40Z</time>
      </trkpt>
      <trkpt lat="42.280788" lon="1.726545">
        <ele>2471.222</ele>
        <time>2020-08-11T11:50:55Z</time>
      </trkpt>
      <trkpt lat="42.280882" lon="1.726552">
        <ele>2473.225</ele>
        <time>2020-08-11T11:51:15Z</time>
      </trkpt>
      <trkpt lat="42.280958" lon="1.726621">
        <ele>2475.614</ele>
        <time>2020-08-11T11:51:25Z</time>
      </trkpt>
      <trkpt lat="42.281028" lon="1.726703">
        <ele>2477.963</ele>
        <time>2020-08-11T11:51:40Z</time>
      </trkpt>
      <trkpt lat="42.281100" lon="1.726781">
        <ele>2480.044</ele>
        <time>2020-08-11T11:51:55Z</time>
      </trkpt>
      <trkpt lat="42.281173" lon="1.726857">
        <ele>2482.418</ele>
        <time>2020-08-11T11:52:10Z</time>
      </trkpt>
      <trkpt lat="42.281242" lon="1.726946">
        <ele>2484.808</ele>
        <time>2020-08-11T11:52:31Z</time>
      </trkpt>
      <trkpt lat="42.281305" lon="1.727041">
        <ele>2487.652</ele>
        <time>2020-08-11T11:53:10Z</time>
      </trkpt>
      <trkpt lat="42.281394" lon="1.727074">
        <ele>2490.059</ele>
        <time>2020-08-11T11:53:22Z</time>
      </trkpt>
      <trkpt lat="42.281472" lon="1.727149">
        <ele>2492.516</ele>
        <time>2020-08-11T11:54:15Z</time>
      </trkpt>
      <trkpt lat="42.281541" lon="1.727230">
        <ele>2494.822</ele>
        <time>2020-08-11T11:54:28Z</time>
      </trkpt>
      <trkpt lat="42.281603" lon="1.727332">
        <ele>2497.466</ele>
        <time>2020-08-11T11:54:45Z</time>
      </trkpt>
      <trkpt lat="42.281680" lon="1.727396">
        <ele>2499.887</ele>
        <time>2020-08-11T11:55:02Z</time>
      </trkpt>
      <trkpt lat="42.281762" lon="1.727463">
        <ele>2502.630</ele>
        <time>2020-08-11T11:55:33Z</time>
      </trkpt>
      <trkpt lat="42.281854" lon="1.727485">
        <ele>2504.929</ele>
        <time>2020-08-11T11:55:58Z</time>
      </trkpt>
      <trkpt lat="42.281945" lon="1.727503">
        <ele>2507.044</ele>
        <time>2020-08-11T11:56:19Z</time>
      </trkpt>
      <trkpt lat="42.282036" lon="1.727505">
        <ele>2509.305</ele>
        <time>2020-08-11T11:56:34Z</time>
      </trkpt>
      <trkpt lat="42.282128" lon="1.727495">
        <ele>2511.615</ele>
        <time>2020-08-11T11:56:47Z</time>
      </trkpt>
      <trkpt lat="42.282225" lon="1.727492">
        <ele>2514.008</ele>
        <time>2020-08-11T11:57:45Z</time>
      </trkpt>
      <trkpt lat="42.282320" lon="1.727476">
        <ele>2516.320</ele>
        <time>2020-08-11T11:58:05Z</time>
      </trkpt>
      <trkpt lat="42.282411" lon="1.727467">
        <ele>2518.647</ele>
        <time>2020-08-11T11:58:16Z</time>
      </trkpt>
      <trkpt lat="42.282500" lon="1.727432">
        <ele>2520.844</ele>
        <time>2020-08-11T11:58:32Z</time>
      </trkpt>
      <trkpt lat="42.282590" lon="1.727434">
        <ele>2523.170</ele>
        <time>2020-08-11T11:58:50Z</time>
      </trkpt>
      <trkpt lat="42.282683" lon="1.727450">
        <ele>2525.644</ele>
        <time>2020-08-11T11:59:11Z</time>
      </trkpt>
      <trkpt lat="42.282774" lon="1.727447">
        <ele>2527.985</ele>
        <time>2020-08-11T11:59:35Z</time>
      </trkpt>
      <trkpt lat="42.282865" lon="1.727423">
        <ele>2529.748</ele>
        <time>2020-08-11T11:59:50Z</time>
      </trkpt>
      <trkpt lat="42.282955" lon="1.727425">
        <ele>2531.457</ele>
        <time>2020-08-11T12:00:08Z</time>
      </trkpt>
      <trkpt lat="42.283044" lon="1.727378">
        <ele>2533.267</ele>
        <time>2020-08-11T12:00:25Z</time>
      </trkpt>
      <trkpt lat="42.283131" lon="1.727329">
        <ele>2534.581</ele>
        <time>2020-08-11T12:00:32Z</time>
      </trkpt>
      <trkpt lat="42.283224" lon="1.727311">
        <ele>2535.719</ele>
        <time>2020-08-11T12:00:48Z</time>
      </trkpt>
      <trkpt lat="42.283311" lon="1.727276">
        <ele>2536.708</ele>
        <time>2020-08-11T12:01:02Z</time>
      </trkpt>
      <trkpt lat="42.283397" lon="1.727231">
        <ele>2538.672</ele>
        <time>2020-08-11T12:01:33Z</time>
      </trkpt>
      <trkpt lat="42.283485" lon="1.727199">
        <ele>2540.919</ele>
        <time>2020-08-11T12:01:46Z</time>
      </trkpt>
      <trkpt lat="42.283573" lon="1.727154">
        <ele>2543.186</ele>
        <time>2020-08-11T12:02:00Z</time>
      </trkpt>
      <trkpt lat="42.283663" lon="1.727136">
        <ele>2541.192</ele>
        <time>2020-08-11T12:02:20Z</time>
      </trkpt>
      <trkpt lat="42.283731" lon="1.727051">
        <ele>2537.396</ele>
        <time>2020-08-11T12:03:52Z</time>
      </trkpt>
      <trkpt lat="42.283756" lon="1.727171">
        <ele>2536.197</ele>
        <time>2020-08-11T12:05:38Z</time>
      </trkpt>
      <trkpt lat="42.283709" lon="1.727062">
        <ele>2538.590</ele>
        <time>2020-08-11T12:07:54Z</time>
      </trkpt>
      <trkpt lat="42.283674" lon="1.726944">
        <ele>2540.449</ele>
        <time>2020-08-11T12:08:05Z</time>
      </trkpt>
      <trkpt lat="42.283649" lon="1.726819">
        <ele>2541.994</ele>
        <time>2020-08-11T12:08:12Z</time>
      </trkpt>
      <trkpt lat="42.283653" lon="1.726690">
        <ele>2541.757</ele>
        <time>2020-08-11T12:08:21Z</time>
      </trkpt>
      <trkpt lat="42.283638" lon="1.726565">
        <ele>2543.322</ele>
        <time>2020-08-11T12:08:30Z</time>
      </trkpt>
      <trkpt lat="42.283664" lon="1.726444">
        <ele>2542.708</ele>
        <time>2020-08-11T12:08:38Z</time>
      </trkpt>
      <trkpt lat="42.283669" lon="1.726320">
        <ele>2541.825</ele>
        <time>2020-08-11T12:08:47Z</time>
      </trkpt>
      <trkpt lat="42.283585" lon="1.726278">
        <ele>2544.432</ele>
        <time>2020-08-11T12:31:44Z</time>
      </trkpt>
      <trkpt lat="42.283494" lon="1.726237">
        <ele>2542.579</ele>
        <time>2020-08-11T12:31:55Z</time>
      </trkpt>
      <trkpt lat="42.283404" lon="1.726216">
        <ele>2541.115</ele>
        <time>2020-08-11T12:32:07Z</time>
      </trkpt>
      <trkpt lat="42.283308" lon="1.726181">
        <ele>2539.549</ele>
        <time>2020-08-11T12:32:17Z</time>
      </trkpt>
      <trkpt lat="42.283226" lon="1.726130">
        <ele>2538.190</ele>
        <time>2020-08-11T12:32:26Z</time>
      </trkpt>
      <trkpt lat="42.283148" lon="1.726054">
        <ele>2536.853</ele>
        <time>2020-08-11T12:32:37Z</time>
      </trkpt>
      <trkpt lat="42.283158" lon="1.725932">
        <ele>2537.362</ele>
        <time>2020-08-11T12:32:49Z</time>
      </trkpt>
      <trkpt lat="42.283178" lon="1.725805">
        <ele>2537.354</ele>
        <time>2020-08-11T12:32:56Z</time>
      </trkpt>
      <trkpt lat="42.283165" lon="1.725673">
        <ele>2535.356</ele>
        <time>2020-08-11T12:33:06Z</time>
      </trkpt>
      <trkpt lat="42.283170" lon="1.725543">
        <ele>2533.111</ele>
        <time>2020-08-11T12:33:18Z</time>
      </trkpt>
      <trkpt lat="42.283130" lon="1.725433">
        <ele>2531.608</ele>
        <time>2020-08-11T12:33:29Z</time>
      </trkpt>
      <trkpt lat="42.283127" lon="1.725303">
        <ele>2528.981</ele>
        <time>2020-08-11T12:33:40Z</time>
      </trkpt>
      <trkpt lat="42.283122" lon="1.725175">
        <ele>2527.638</ele>
        <time>2020-08-11T12:33:49Z</time>
      </trkpt>
      <trkpt lat="42.283131" lon="1.725051">
        <ele>2525.375</ele>
        <time>2020-08-11T12:33:59Z</time>
      </trkpt>
      <trkpt lat="42.283147" lon="1.724926">
        <ele>2522.881</ele>
        <time>2020-08-11T12:34:09Z</time>
      </trkpt>
      <trkpt lat="42.283152" lon="1.724799">
        <ele>2521.925</ele>
        <time>2020-08-11T12:34:19Z</time>
      </trkpt>
      <trkpt lat="42.283140" lon="1.724677">
        <ele>2522.176</ele>
        <time>2020-08-11T12:35:11Z</time>
      </trkpt>
      <trkpt lat="42.283105" lon="1.724552">
        <ele>2523.419</ele>
        <time>2020-08-11T12:35:24Z</time>
      </trkpt>
      <trkpt lat="42.283091" lon="1.724421">
        <ele>2522.788</ele>
        <time>2020-08-11T12:35:34Z</time>
      </trkpt>
      <trkpt lat="42.283080" lon="1.724297">
        <ele>2521.764</ele>
        <time>2020-08-11T12:35:45Z</time>
      </trkpt>
      <trkpt lat="42.283067" lon="1.724168">
        <ele>2520.906</ele>
        <time>2020-08-11T12:35:56Z</time>
      </trkpt>
      <trkpt lat="42.283039" lon="1.724045">
        <ele>2518.716</ele>
        <time>2020-08-11T12:36:09Z</time>
      </trkpt>
      <trkpt lat="42.283020" lon="1.723914">
        <ele>2515.208</ele>
        <time>2020-08-11T12:36:21Z</time>
      </trkpt>
      <trkpt lat="42.283016" lon="1.723786">
        <ele>2512.492</ele>
        <time>2020-08-11T12:36:35Z</time>
      </trkpt>
      <trkpt lat="42.283013" lon="1.723663">
        <ele>2509.889</ele>
        <time>2020-08-11T12:36:51Z</time>
      </trkpt>
      <trkpt lat="42.283018" lon="1.723533">
        <ele>2507.536</ele>
        <time>2020-08-11T12:37:02Z</time>
      </trkpt>
      <trkpt lat="42.283026" lon="1.723409">
        <ele>2505.692</ele>
        <time>2020-08-11T12:37:12Z</time>
      </trkpt>
      <trkpt lat="42.283052" lon="1.723291">
        <ele>2504.346</ele>
        <time>2020-08-11T12:37:21Z</time>
      </trkpt>
      <trkpt lat="42.283102" lon="1.723191">
        <ele>2501.147</ele>
        <time>2020-08-11T12:37:29Z</time>
      </trkpt>
      <trkpt lat="42.283151" lon="1.723085">
        <ele>2499.390</ele>
        <time>2020-08-11T12:37:38Z</time>
      </trkpt>
      <trkpt lat="42.283210" lon="1.722976">
        <ele>2497.999</ele>
        <time>2020-08-11T12:37:47Z</time>
      </trkpt>
      <trkpt lat="42.283246" lon="1.722851">
        <ele>2497.499</ele>
        <time>2020-08-11T12:37:56Z</time>
      </trkpt>
      <trkpt lat="42.283277" lon="1.722722">
        <ele>2496.907</ele>
        <time>2020-08-11T12:38:06Z</time>
      </trkpt>
      <trkpt lat="42.283334" lon="1.722614">
        <ele>2496.227</ele>
        <time>2020-08-11T12:38:15Z</time>
      </trkpt>
      <trkpt lat="42.283398" lon="1.722516">
        <ele>2491.008</ele>
        <time>2020-08-11T12:38:24Z</time>
      </trkpt>
      <trkpt lat="42.283445" lon="1.722413">
        <ele>2489.275</ele>
        <time>2020-08-11T12:38:37Z</time>
      </trkpt>
      <trkpt lat="42.283489" lon="1.722292">
        <ele>2490.012</ele>
        <time>2020-08-11T12:38:48Z</time>
      </trkpt>
      <trkpt lat="42.283507" lon="1.722161">
        <ele>2491.349</ele>
        <time>2020-08-11T12:39:01Z</time>
      </trkpt>
      <trkpt lat="42.283540" lon="1.722038">
        <ele>2490.615</ele>
        <time>2020-08-11T12:39:10Z</time>
      </trkpt>
      <trkpt lat="42.283569" lon="1.721921">
        <ele>2490.639</ele>
        <time>2020-08-11T12:39:45Z</time>
      </trkpt>
      <trkpt lat="42.283605" lon="1.721807">
        <ele>2493.990</ele>
        <time>2020-08-11T12:40:06Z</time>
      </trkpt>
      <trkpt lat="42.283613" lon="1.721680">
        <ele>2497.563</ele>
        <time>2020-08-11T12:40:20Z</time>
      </trkpt>
      <trkpt lat="42.283592" lon="1.721554">
        <ele>2498.992</ele>
        <time>2020-08-11T12:40:31Z</time>
      </trkpt>
      <trkpt lat="42.283556" lon="1.721443">
        <ele>2499.795</ele>
        <time>2020-08-11T12:40:40Z</time>
      </trkpt>
      <trkpt lat="42.283569" lon="1.721319">
        <ele>2500.949</ele>
        <time>2020-08-11T12:41:04Z</time>
      </trkpt>
      <trkpt lat="42.283538" lon="1.721192">
        <ele>2501.523</ele>
        <time>2020-08-11T12:41:15Z</time>
      </trkpt>
      <trkpt lat="42.283514" lon="1.721062">
        <ele>2502.408</ele>
        <time>2020-08-11T12:41:30Z</time>
      </trkpt>
      <trkpt lat="42.283512" lon="1.720933">
        <ele>2503.695</ele>
        <time>2020-08-11T12:41:41Z</time>
      </trkpt>
      <trkpt lat="42.283484" lon="1.720814">
        <ele>2504.922</ele>
        <time>2020-08-11T12:42:12Z</time>
      </trkpt>
      <trkpt lat="42.283462" lon="1.720693">
        <ele>2505.829</ele>
        <time>2020-08-11T12:42:25Z</time>
      </trkpt>
      <trkpt lat="42.283432" lon="1.720566">
        <ele>2507.475</ele>
        <time>2020-08-11T12:42:38Z</time>
      </trkpt>
      <trkpt lat="42.283410" lon="1.720446">
        <ele>2508.599</ele>
        <time>2020-08-11T12:42:49Z</time>
      </trkpt>
      <trkpt lat="42.283387" lon="1.720327">
        <ele>2509.980</ele>
        <time>2020-08-11T12:43:00Z</time>
      </trkpt>
      <trkpt lat="42.283340" lon="1.720220">
        <ele>2513.023</ele>
        <time>2020-08-11T12:43:14Z</time>
      </trkpt>
      <trkpt lat="42.283334" lon="1.720093">
        <ele>2514.342</ele>
        <time>2020-08-11T12:43:24Z</time>
      </trkpt>
      <trkpt lat="42.283318" lon="1.719973">
        <ele>2515.198</ele>
        <time>2020-08-11T12:43:35Z</time>
      </trkpt>
      <trkpt lat="42.283276" lon="1.719852">
        <ele>2515.515</ele>
        <time>2020-08-11T12:43:47Z</time>
      </trkpt>
      <trkpt lat="42.283272" lon="1.719731">
        <ele>2516.226</ele>
        <time>2020-08-11T12:43:59Z</time>
      </trkpt>
      <trkpt lat="42.283265" lon="1.719602">
        <ele>2516.008</ele>
        <time>2020-08-11T12:44:10Z</time>
      </trkpt>
      <trkpt lat="42.283225" lon="1.719486">
        <ele>2516.245</ele>
        <time>2020-08-11T12:45:48Z</time>
      </trkpt>
      <trkpt lat="42.283190" lon="1.719374">
        <ele>2516.112</ele>
        <time>2020-08-11T12:45:59Z</time>
      </trkpt>
      <trkpt lat="42.283177" lon="1.719252">
        <ele>2515.529</ele>
        <time>2020-08-11T12:46:11Z</time>
      </trkpt>
      <trkpt lat="42.283189" lon="1.719125">
        <ele>2514.665</ele>
        <time>2020-08-11T12:46:30Z</time>
      </trkpt>
      <trkpt lat="42.283216" lon="1.719002">
        <ele>2513.889</ele>
        <time>2020-08-11T12:46:44Z</time>
      </trkpt>
      <trkpt lat="42.283286" lon="1.718902">
        <ele>2512.720</ele>
        <time>2020-08-11T12:46:54Z</time>
      </trkpt>
      <trkpt lat="42.283300" lon="1.718771">
        <ele>2512.413</ele>
        <time>2020-08-11T12:47:02Z</time>
      </trkpt>
      <trkpt lat="42.283317" lon="1.718641">
        <ele>2512.232</ele>
        <time>2020-08-11T12:47:12Z</time>
      </trkpt>
      <trkpt lat="42.283332" lon="1.718507">
        <ele>2511.657</ele>
        <time>2020-08-11T12:47:24Z</time>
      </trkpt>
      <trkpt lat="42.283354" lon="1.718382">
        <ele>2510.500</ele>
        <time>2020-08-11T12:47:32Z</time>
      </trkpt>
      <trkpt lat="42.283394" lon="1.718263">
        <ele>2509.020</ele>
        <time>2020-08-11T12:47:42Z</time>
      </trkpt>
      <trkpt lat="42.283440" lon="1.718158">
        <ele>2507.308</ele>
        <time>2020-08-11T12:48:04Z</time>
      </trkpt>
      <trkpt lat="42.283509" lon="1.718060">
        <ele>2505.081</ele>
        <time>2020-08-11T12:48:14Z</time>
      </trkpt>
      <trkpt lat="42.283533" lon="1.717926">
        <ele>2503.838</ele>
        <time>2020-08-11T12:48:24Z</time>
      </trkpt>
      <trkpt lat="42.283582" lon="1.717816">
        <ele>2502.095</ele>
        <time>2020-08-11T12:48:32Z</time>
      </trkpt>
      <trkpt lat="42.283640" lon="1.717723">
        <ele>2500.181</ele>
        <time>2020-08-11T12:48:40Z</time>
      </trkpt>
      <trkpt lat="42.283720" lon="1.717668">
        <ele>2498.225</ele>
        <time>2020-08-11T12:48:54Z</time>
      </trkpt>
      <trkpt lat="42.283800" lon="1.717605">
        <ele>2496.466</ele>
        <time>2020-08-11T12:49:05Z</time>
      </trkpt>
      <trkpt lat="42.283871" lon="1.717529">
        <ele>2494.529</ele>
        <time>2020-08-11T12:49:14Z</time>
      </trkpt>
      <trkpt lat="42.283947" lon="1.717455">
        <ele>2493.538</ele>
        <time>2020-08-11T12:49:24Z</time>
      </trkpt>
      <trkpt lat="42.284021" lon="1.717371">
        <ele>2492.677</ele>
        <time>2020-08-11T12:49:30Z</time>
      </trkpt>
      <trkpt lat="42.284094" lon="1.717293">
        <ele>2491.861</ele>
        <time>2020-08-11T12:49:37Z</time>
      </trkpt>
      <trkpt lat="42.284154" lon="1.717195">
        <ele>2490.827</ele>
        <time>2020-08-11T12:49:45Z</time>
      </trkpt>
      <trkpt lat="42.284213" lon="1.717093">
        <ele>2489.708</ele>
        <time>2020-08-11T12:49:52Z</time>
      </trkpt>
      <trkpt lat="42.284283" lon="1.717011">
        <ele>2489.063</ele>
        <time>2020-08-11T12:49:59Z</time>
      </trkpt>
      <trkpt lat="42.284341" lon="1.716908">
        <ele>2488.350</ele>
        <time>2020-08-11T12:50:09Z</time>
      </trkpt>
      <trkpt lat="42.284437" lon="1.716920">
        <ele>2488.897</ele>
        <time>2020-08-11T12:50:46Z</time>
      </trkpt>
      <trkpt lat="42.284525" lon="1.716844">
        <ele>2486.863</ele>
        <time>2020-08-11T12:50:58Z</time>
      </trkpt>
      <trkpt lat="42.284577" lon="1.716739">
        <ele>2485.187</ele>
        <time>2020-08-11T12:51:07Z</time>
      </trkpt>
      <trkpt lat="42.284627" lon="1.716633">
        <ele>2483.318</ele>
        <time>2020-08-11T12:51:15Z</time>
      </trkpt>
      <trkpt lat="42.284649" lon="1.716509">
        <ele>2481.561</ele>
        <time>2020-08-11T12:51:28Z</time>
      </trkpt>
      <trkpt lat="42.284716" lon="1.716592">
        <ele>2481.390</ele>
        <time>2020-08-11T12:52:14Z</time>
      </trkpt>
      <trkpt lat="42.284780" lon="1.716481">
        <ele>2479.612</ele>
        <time>2020-08-11T12:52:37Z</time>
      </trkpt>
      <trkpt lat="42.284843" lon="1.716381">
        <ele>2478.032</ele>
        <time>2020-08-11T12:52:44Z</time>
      </trkpt>
      <trkpt lat="42.284847" lon="1.716256">
        <ele>2476.405</ele>
        <time>2020-08-11T12:52:52Z</time>
      </trkpt>
      <trkpt lat="42.284866" lon="1.716128">
        <ele>2474.708</ele>
        <time>2020-08-11T12:52:59Z</time>
      </trkpt>
      <trkpt lat="42.284916" lon="1.716026">
        <ele>2473.667</ele>
        <time>2020-08-11T12:53:06Z</time>
      </trkpt>
      <trkpt lat="42.284972" lon="1.715917">
        <ele>2472.654</ele>
        <time>2020-08-11T12:53:14Z</time>
      </trkpt>
      <trkpt lat="42.285022" lon="1.715789">
        <ele>2471.541</ele>
        <time>2020-08-11T12:53:22Z</time>
      </trkpt>
      <trkpt lat="42.285055" lon="1.715675">
        <ele>2470.247</ele>
        <time>2020-08-11T12:53:29Z</time>
      </trkpt>
      <trkpt lat="42.285084" lon="1.715554">
        <ele>2468.721</ele>
        <time>2020-08-11T12:53:37Z</time>
      </trkpt>
      <trkpt lat="42.285100" lon="1.715434">
        <ele>2467.322</ele>
        <time>2020-08-11T12:53:46Z</time>
      </trkpt>
      <trkpt lat="42.285159" lon="1.715324">
        <ele>2465.955</ele>
        <time>2020-08-11T12:53:54Z</time>
      </trkpt>
      <trkpt lat="42.285231" lon="1.715250">
        <ele>2464.864</ele>
        <time>2020-08-11T12:54:02Z</time>
      </trkpt>
      <trkpt lat="42.285321" lon="1.715190">
        <ele>2463.664</ele>
        <time>2020-08-11T12:54:12Z</time>
      </trkpt>
      <trkpt lat="42.285418" lon="1.715174">
        <ele>2463.006</ele>
        <time>2020-08-11T12:54:19Z</time>
      </trkpt>
      <trkpt lat="42.285508" lon="1.715129">
        <ele>2462.016</ele>
        <time>2020-08-11T12:54:45Z</time>
      </trkpt>
      <trkpt lat="42.285596" lon="1.715095">
        <ele>2461.608</ele>
        <time>2020-08-11T12:54:55Z</time>
      </trkpt>
      <trkpt lat="42.285667" lon="1.714989">
        <ele>2460.212</ele>
        <time>2020-08-11T12:55:05Z</time>
      </trkpt>
      <trkpt lat="42.285722" lon="1.714884">
        <ele>2458.829</ele>
        <time>2020-08-11T12:55:16Z</time>
      </trkpt>
      <trkpt lat="42.285780" lon="1.714789">
        <ele>2457.666</ele>
        <time>2020-08-11T12:55:25Z</time>
      </trkpt>
      <trkpt lat="42.285834" lon="1.714691">
        <ele>2456.792</ele>
        <time>2020-08-11T12:55:35Z</time>
      </trkpt>
      <trkpt lat="42.285885" lon="1.714588">
        <ele>2455.566</ele>
        <time>2020-08-11T12:55:44Z</time>
      </trkpt>
      <trkpt lat="42.285943" lon="1.714485">
        <ele>2454.127</ele>
        <time>2020-08-11T12:55:54Z</time>
      </trkpt>
      <trkpt lat="42.286001" lon="1.714378">
        <ele>2452.560</ele>
        <time>2020-08-11T12:56:01Z</time>
      </trkpt>
      <trkpt lat="42.286053" lon="1.714275">
        <ele>2450.979</ele>
        <time>2020-08-11T12:56:09Z</time>
      </trkpt>
      <trkpt lat="42.286114" lon="1.714185">
        <ele>2449.382</ele>
        <time>2020-08-11T12:56:17Z</time>
      </trkpt>
      <trkpt lat="42.286167" lon="1.714086">
        <ele>2447.643</ele>
        <time>2020-08-11T12:56:26Z</time>
      </trkpt>
      <trkpt lat="42.286226" lon="1.713983">
        <ele>2445.917</ele>
        <time>2020-08-11T12:56:36Z</time>
      </trkpt>
      <trkpt lat="42.286281" lon="1.713876">
        <ele>2444.208</ele>
        <time>2020-08-11T12:56:47Z</time>
      </trkpt>
      <trkpt lat="42.286348" lon="1.713787">
        <ele>2442.654</ele>
        <time>2020-08-11T12:56:56Z</time>
      </trkpt>
      <trkpt lat="42.286381" lon="1.713670">
        <ele>2440.991</ele>
        <time>2020-08-11T12:57:05Z</time>
      </trkpt>
      <trkpt lat="42.286427" lon="1.713562">
        <ele>2439.558</ele>
        <time>2020-08-11T12:57:12Z</time>
      </trkpt>
      <trkpt lat="42.286463" lon="1.713445">
        <ele>2438.294</ele>
        <time>2020-08-11T12:57:21Z</time>
      </trkpt>
      <trkpt lat="42.286522" lon="1.713347">
        <ele>2437.198</ele>
        <time>2020-08-11T12:57:29Z</time>
      </trkpt>
      <trkpt lat="42.286584" lon="1.713257">
        <ele>2436.039</ele>
        <time>2020-08-11T12:57:39Z</time>
      </trkpt>
      <trkpt lat="42.286629" lon="1.713147">
        <ele>2434.822</ele>
        <time>2020-08-11T12:57:46Z</time>
      </trkpt>
      <trkpt lat="42.286683" lon="1.713038">
        <ele>2434.421</ele>
        <time>2020-08-11T12:58:22Z</time>
      </trkpt>
      <trkpt lat="42.286712" lon="1.712918">
        <ele>2434.596</ele>
        <time>2020-08-11T12:58:30Z</time>
      </trkpt>
      <trkpt lat="42.286695" lon="1.712792">
        <ele>2433.031</ele>
        <time>2020-08-11T12:58:39Z</time>
      </trkpt>
      <trkpt lat="42.286734" lon="1.712674">
        <ele>2433.424</ele>
        <time>2020-08-11T12:58:49Z</time>
      </trkpt>
      <trkpt lat="42.286750" lon="1.712551">
        <ele>2433.108</ele>
        <time>2020-08-11T12:59:06Z</time>
      </trkpt>
      <trkpt lat="42.286732" lon="1.712429">
        <ele>2431.615</ele>
        <time>2020-08-11T12:59:17Z</time>
      </trkpt>
      <trkpt lat="42.286729" lon="1.712295">
        <ele>2430.562</ele>
        <time>2020-08-11T12:59:31Z</time>
      </trkpt>
      <trkpt lat="42.286734" lon="1.712171">
        <ele>2430.019</ele>
        <time>2020-08-11T12:59:42Z</time>
      </trkpt>
      <trkpt lat="42.286739" lon="1.712046">
        <ele>2429.525</ele>
        <time>2020-08-11T13:00:02Z</time>
      </trkpt>
      <trkpt lat="42.286748" lon="1.711916">
        <ele>2429.189</ele>
        <time>2020-08-11T13:00:19Z</time>
      </trkpt>
      <trkpt lat="42.286770" lon="1.711787">
        <ele>2428.480</ele>
        <time>2020-08-11T13:00:31Z</time>
      </trkpt>
      <trkpt lat="42.286801" lon="1.711667">
        <ele>2427.593</ele>
        <time>2020-08-11T13:00:41Z</time>
      </trkpt>
      <trkpt lat="42.286810" lon="1.711542">
        <ele>2426.432</ele>
        <time>2020-08-11T13:01:46Z</time>
      </trkpt>
      <trkpt lat="42.286810" lon="1.711417">
        <ele>2425.284</ele>
        <time>2020-08-11T13:02:20Z</time>
      </trkpt>
      <trkpt lat="42.286770" lon="1.711305">
        <ele>2424.207</ele>
        <time>2020-08-11T13:02:56Z</time>
      </trkpt>
      <trkpt lat="42.286681" lon="1.711269">
        <ele>2425.817</ele>
        <time>2020-08-11T13:05:06Z</time>
      </trkpt>
      <trkpt lat="42.286588" lon="1.711268">
        <ele>2423.508</ele>
        <time>2020-08-11T13:05:22Z</time>
      </trkpt>
      <trkpt lat="42.286495" lon="1.711303">
        <ele>2420.314</ele>
        <time>2020-08-11T13:05:36Z</time>
      </trkpt>
      <trkpt lat="42.286415" lon="1.711238">
        <ele>2417.991</ele>
        <time>2020-08-11T13:05:46Z</time>
      </trkpt>
      <trkpt lat="42.286330" lon="1.711182">
        <ele>2416.038</ele>
        <time>2020-08-11T13:05:55Z</time>
      </trkpt>
      <trkpt lat="42.286252" lon="1.711103">
        <ele>2414.194</ele>
        <time>2020-08-11T13:06:06Z</time>
      </trkpt>
      <trkpt lat="42.286176" lon="1.711030">
        <ele>2412.558</ele>
        <time>2020-08-11T13:06:16Z</time>
      </trkpt>
      <trkpt lat="42.286093" lon="1.710963">
        <ele>2410.719</ele>
        <time>2020-08-11T13:06:34Z</time>
      </trkpt>
      <trkpt lat="42.286001" lon="1.710926">
        <ele>2408.712</ele>
        <time>2020-08-11T13:06:44Z</time>
      </trkpt>
      <trkpt lat="42.285908" lon="1.710911">
        <ele>2406.491</ele>
        <time>2020-08-11T13:06:52Z</time>
      </trkpt>
      <trkpt lat="42.285814" lon="1.710916">
        <ele>2404.312</ele>
        <time>2020-08-11T13:07:06Z</time>
      </trkpt>
      <trkpt lat="42.285725" lon="1.710940">
        <ele>2403.132</ele>
        <time>2020-08-11T13:07:15Z</time>
      </trkpt>
      <trkpt lat="42.285627" lon="1.710914">
        <ele>2401.405</ele>
        <time>2020-08-11T13:07:24Z</time>
      </trkpt>
      <trkpt lat="42.285535" lon="1.710926">
        <ele>2399.908</ele>
        <time>2020-08-11T13:07:34Z</time>
      </trkpt>
      <trkpt lat="42.285441" lon="1.710912">
        <ele>2397.937</ele>
        <time>2020-08-11T13:07:42Z</time>
      </trkpt>
      <trkpt lat="42.285354" lon="1.710876">
        <ele>2395.994</ele>
        <time>2020-08-11T13:07:59Z</time>
      </trkpt>
      <trkpt lat="42.285264" lon="1.710886">
        <ele>2394.581</ele>
        <time>2020-08-11T13:08:09Z</time>
      </trkpt>
      <trkpt lat="42.285278" lon="1.711012">
        <ele>2395.397</ele>
        <time>2020-08-11T13:08:27Z</time>
      </trkpt>
      <trkpt lat="42.285237" lon="1.710893">
        <ele>2394.951</ele>
        <time>2020-08-11T13:08:39Z</time>
      </trkpt>
      <trkpt lat="42.285145" lon="1.710828">
        <ele>2395.442</ele>
        <time>2020-08-11T13:08:50Z</time>
      </trkpt>
      <trkpt lat="42.285055" lon="1.710758">
        <ele>2395.735</ele>
        <time>2020-08-11T13:08:59Z</time>
      </trkpt>
      <trkpt lat="42.284971" lon="1.710668">
        <ele>2395.894</ele>
        <time>2020-08-11T13:09:08Z</time>
      </trkpt>
      <trkpt lat="42.284892" lon="1.710585">
        <ele>2396.372</ele>
        <time>2020-08-11T13:09:16Z</time>
      </trkpt>
      <trkpt lat="42.284803" lon="1.710519">
        <ele>2397.113</ele>
        <time>2020-08-11T13:09:25Z</time>
      </trkpt>
      <trkpt lat="42.284727" lon="1.710434">
        <ele>2397.214</ele>
        <time>2020-08-11T13:09:34Z</time>
      </trkpt>
      <trkpt lat="42.284660" lon="1.710352">
        <ele>2397.208</ele>
        <time>2020-08-11T13:09:41Z</time>
      </trkpt>
      <trkpt lat="42.284579" lon="1.710279">
        <ele>2397.673</ele>
        <time>2020-08-11T13:09:50Z</time>
      </trkpt>
      <trkpt lat="42.284497" lon="1.710201">
        <ele>2397.720</ele>
        <time>2020-08-11T13:09:59Z</time>
      </trkpt>
      <trkpt lat="42.284407" lon="1.710192">
        <ele>2399.057</ele>
        <time>2020-08-11T13:10:10Z</time>
      </trkpt>
      <trkpt lat="42.284307" lon="1.710190">
        <ele>2400.263</ele>
        <time>2020-08-11T13:10:24Z</time>
      </trkpt>
      <trkpt lat="42.284221" lon="1.710146">
        <ele>2400.567</ele>
        <time>2020-08-11T13:10:31Z</time>
      </trkpt>
      <trkpt lat="42.284126" lon="1.710106">
        <ele>2400.338</ele>
        <time>2020-08-11T13:10:41Z</time>
      </trkpt>
      <trkpt lat="42.284031" lon="1.710085">
        <ele>2400.041</ele>
        <time>2020-08-11T13:10:53Z</time>
      </trkpt>
      <trkpt lat="42.283941" lon="1.710106">
        <ele>2400.510</ele>
        <time>2020-08-11T13:11:01Z</time>
      </trkpt>
      <trkpt lat="42.283845" lon="1.710134">
        <ele>2400.874</ele>
        <time>2020-08-11T13:11:11Z</time>
      </trkpt>
      <trkpt lat="42.283755" lon="1.710148">
        <ele>2400.656</ele>
        <time>2020-08-11T13:11:20Z</time>
      </trkpt>
      <trkpt lat="42.283668" lon="1.710109">
        <ele>2399.821</ele>
        <time>2020-08-11T13:11:28Z</time>
      </trkpt>
      <trkpt lat="42.283579" lon="1.710086">
        <ele>2399.408</ele>
        <time>2020-08-11T13:11:35Z</time>
      </trkpt>
      <trkpt lat="42.283486" lon="1.710067">
        <ele>2399.593</ele>
        <time>2020-08-11T13:11:44Z</time>
      </trkpt>
      <trkpt lat="42.283395" lon="1.710087">
        <ele>2400.390</ele>
        <time>2020-08-11T13:11:51Z</time>
      </trkpt>
      <trkpt lat="42.283299" lon="1.710093">
        <ele>2401.257</ele>
        <time>2020-08-11T13:11:59Z</time>
      </trkpt>
      <trkpt lat="42.283214" lon="1.710047">
        <ele>2401.663</ele>
        <time>2020-08-11T13:12:08Z</time>
      </trkpt>
      <trkpt lat="42.283128" lon="1.710010">
        <ele>2402.217</ele>
        <time>2020-08-11T13:12:16Z</time>
      </trkpt>
      <trkpt lat="42.283036" lon="1.709951">
        <ele>2402.278</ele>
        <time>2020-08-11T13:12:28Z</time>
      </trkpt>
      <trkpt lat="42.282950" lon="1.709899">
        <ele>2402.141</ele>
        <time>2020-08-11T13:12:38Z</time>
      </trkpt>
      <trkpt lat="42.282860" lon="1.709910">
        <ele>2403.490</ele>
        <time>2020-08-11T13:12:48Z</time>
      </trkpt>
      <trkpt lat="42.282774" lon="1.709865">
        <ele>2403.666</ele>
        <time>2020-08-11T13:12:54Z</time>
      </trkpt>
      <trkpt lat="42.282694" lon="1.709810">
        <ele>2403.629</ele>
        <time>2020-08-11T13:13:01Z</time>
      </trkpt>
      <trkpt lat="42.282605" lon="1.709776">
        <ele>2404.021</ele>
        <time>2020-08-11T13:13:09Z</time>
      </trkpt>
      <trkpt lat="42.282518" lon="1.709739">
        <ele>2404.208</ele>
        <time>2020-08-11T13:13:16Z</time>
      </trkpt>
      <trkpt lat="42.282428" lon="1.709698">
        <ele>2404.252</ele>
        <time>2020-08-11T13:13:25Z</time>
      </trkpt>
      <trkpt lat="42.282337" lon="1.709668">
        <ele>2404.639</ele>
        <time>2020-08-11T13:13:35Z</time>
      </trkpt>
      <trkpt lat="42.282244" lon="1.709644">
        <ele>2405.366</ele>
        <time>2020-08-11T13:13:43Z</time>
      </trkpt>
      <trkpt lat="42.282154" lon="1.709659">
        <ele>2405.812</ele>
        <time>2020-08-11T13:13:53Z</time>
      </trkpt>
      <trkpt lat="42.282066" lon="1.709611">
        <ele>2405.156</ele>
        <time>2020-08-11T13:14:00Z</time>
      </trkpt>
      <trkpt lat="42.281979" lon="1.709660">
        <ele>2405.647</ele>
        <time>2020-08-11T13:14:09Z</time>
      </trkpt>
      <trkpt lat="42.281913" lon="1.709745">
        <ele>2405.770</ele>
        <time>2020-08-11T13:14:18Z</time>
      </trkpt>
      <trkpt lat="42.281840" lon="1.709821">
        <ele>2405.259</ele>
        <time>2020-08-11T13:14:28Z</time>
      </trkpt>
      <trkpt lat="42.281759" lon="1.709903">
        <ele>2404.654</ele>
        <time>2020-08-11T13:14:38Z</time>
      </trkpt>
      <trkpt lat="42.281689" lon="1.709984">
        <ele>2404.256</ele>
        <time>2020-08-11T13:14:44Z</time>
      </trkpt>
      <trkpt lat="42.281600" lon="1.710040">
        <ele>2403.611</ele>
        <time>2020-08-11T13:14:53Z</time>
      </trkpt>
      <trkpt lat="42.281504" lon="1.710072">
        <ele>2402.808</ele>
        <time>2020-08-11T13:15:01Z</time>
      </trkpt>
      <trkpt lat="42.281401" lon="1.710095">
        <ele>2401.811</ele>
        <time>2020-08-11T13:15:08Z</time>
      </trkpt>
      <trkpt lat="42.281303" lon="1.710097">
        <ele>2401.158</ele>
        <time>2020-08-11T13:15:16Z</time>
      </trkpt>
      <trkpt lat="42.281211" lon="1.710101">
        <ele>2400.435</ele>
        <time>2020-08-11T13:15:22Z</time>
      </trkpt>
      <trkpt lat="42.281109" lon="1.710113">
        <ele>2399.871</ele>
        <time>2020-08-11T13:15:29Z</time>
      </trkpt>
      <trkpt lat="42.281015" lon="1.710128">
        <ele>2399.235</ele>
        <time>2020-08-11T13:15:36Z</time>
      </trkpt>
      <trkpt lat="42.280920" lon="1.710174">
        <ele>2398.966</ele>
        <time>2020-08-11T13:15:44Z</time>
      </trkpt>
      <trkpt lat="42.280831" lon="1.710149">
        <ele>2398.169</ele>
        <time>2020-08-11T13:15:51Z</time>
      </trkpt>
      <trkpt lat="42.280740" lon="1.710120">
        <ele>2397.268</ele>
        <time>2020-08-11T13:15:59Z</time>
      </trkpt>
      <trkpt lat="42.280644" lon="1.710124">
        <ele>2396.575</ele>
        <time>2020-08-11T13:16:06Z</time>
      </trkpt>
      <trkpt lat="42.280547" lon="1.710149">
        <ele>2396.028</ele>
        <time>2020-08-11T13:16:14Z</time>
      </trkpt>
      <trkpt lat="42.280455" lon="1.710174">
        <ele>2395.520</ele>
        <time>2020-08-11T13:16:21Z</time>
      </trkpt>
      <trkpt lat="42.280357" lon="1.710180">
        <ele>2394.908</ele>
        <time>2020-08-11T13:16:31Z</time>
      </trkpt>
      <trkpt lat="42.280262" lon="1.710194">
        <ele>2394.323</ele>
        <time>2020-08-11T13:16:39Z</time>
      </trkpt>
      <trkpt lat="42.280162" lon="1.710198">
        <ele>2393.670</ele>
        <time>2020-08-11T13:16:48Z</time>
      </trkpt>
      <trkpt lat="42.280068" lon="1.710204">
        <ele>2393.047</ele>
        <time>2020-08-11T13:16:54Z</time>
      </trkpt>
      <trkpt lat="42.279995" lon="1.710123">
        <ele>2391.913</ele>
        <time>2020-08-11T13:17:02Z</time>
      </trkpt>
      <trkpt lat="42.279914" lon="1.710050">
        <ele>2391.877</ele>
        <time>2020-08-11T13:17:09Z</time>
      </trkpt>
      <trkpt lat="42.279858" lon="1.709955">
        <ele>2392.218</ele>
        <time>2020-08-11T13:17:24Z</time>
      </trkpt>
      <trkpt lat="42.279801" lon="1.709851">
        <ele>2393.471</ele>
        <time>2020-08-11T13:17:35Z</time>
      </trkpt>
      <trkpt lat="42.279764" lon="1.709724">
        <ele>2395.110</ele>
        <time>2020-08-11T13:17:46Z</time>
      </trkpt>
      <trkpt lat="42.279708" lon="1.709624">
        <ele>2396.555</ele>
        <time>2020-08-11T13:17:56Z</time>
      </trkpt>
      <trkpt lat="42.279654" lon="1.709523">
        <ele>2397.407</ele>
        <time>2020-08-11T13:18:04Z</time>
      </trkpt>
      <trkpt lat="42.279631" lon="1.709401">
        <ele>2398.017</ele>
        <time>2020-08-11T13:18:12Z</time>
      </trkpt>
      <trkpt lat="42.279615" lon="1.709276">
        <ele>2398.208</ele>
        <time>2020-08-11T13:18:21Z</time>
      </trkpt>
      <trkpt lat="42.279608" lon="1.709149">
        <ele>2398.291</ele>
        <time>2020-08-11T13:18:29Z</time>
      </trkpt>
      <trkpt lat="42.279575" lon="1.709025">
        <ele>2398.128</ele>
        <time>2020-08-11T13:18:39Z</time>
      </trkpt>
      <trkpt lat="42.279544" lon="1.708907">
        <ele>2398.035</ele>
        <time>2020-08-11T13:18:46Z</time>
      </trkpt>
      <trkpt lat="42.279514" lon="1.708783">
        <ele>2397.671</ele>
        <time>2020-08-11T13:18:54Z</time>
      </trkpt>
      <trkpt lat="42.279500" lon="1.708661">
        <ele>2396.955</ele>
        <time>2020-08-11T13:19:02Z</time>
      </trkpt>
      <trkpt lat="42.279482" lon="1.708536">
        <ele>2396.796</ele>
        <time>2020-08-11T13:19:10Z</time>
      </trkpt>
      <trkpt lat="42.279471" lon="1.708394">
        <ele>2396.719</ele>
        <time>2020-08-11T13:19:19Z</time>
      </trkpt>
      <trkpt lat="42.279493" lon="1.708269">
        <ele>2396.698</ele>
        <time>2020-08-11T13:19:27Z</time>
      </trkpt>
      <trkpt lat="42.279504" lon="1.708138">
        <ele>2397.198</ele>
        <time>2020-08-11T13:19:35Z</time>
      </trkpt>
      <trkpt lat="42.279484" lon="1.708011">
        <ele>2398.215</ele>
        <time>2020-08-11T13:19:44Z</time>
      </trkpt>
      <trkpt lat="42.279475" lon="1.707880">
        <ele>2398.926</ele>
        <time>2020-08-11T13:19:54Z</time>
      </trkpt>
      <trkpt lat="42.279465" lon="1.707757">
        <ele>2399.608</ele>
        <time>2020-08-11T13:20:01Z</time>
      </trkpt>
      <trkpt lat="42.279460" lon="1.707618">
        <ele>2400.235</ele>
        <time>2020-08-11T13:20:10Z</time>
      </trkpt>
      <trkpt lat="42.279457" lon="1.707481">
        <ele>2400.792</ele>
        <time>2020-08-11T13:20:19Z</time>
      </trkpt>
      <trkpt lat="42.279449" lon="1.707358">
        <ele>2400.959</ele>
        <time>2020-08-11T13:20:27Z</time>
      </trkpt>
      <trkpt lat="42.279438" lon="1.707222">
        <ele>2401.255</ele>
        <time>2020-08-11T13:20:35Z</time>
      </trkpt>
      <trkpt lat="42.279401" lon="1.707097">
        <ele>2401.639</ele>
        <time>2020-08-11T13:20:44Z</time>
      </trkpt>
      <trkpt lat="42.279394" lon="1.706955">
        <ele>2401.330</ele>
        <time>2020-08-11T13:20:54Z</time>
      </trkpt>
      <trkpt lat="42.279361" lon="1.706831">
        <ele>2401.633</ele>
        <time>2020-08-11T13:21:01Z</time>
      </trkpt>
      <trkpt lat="42.279313" lon="1.706714">
        <ele>2402.162</ele>
        <time>2020-08-11T13:21:09Z</time>
      </trkpt>
      <trkpt lat="42.279274" lon="1.706601">
        <ele>2402.428</ele>
        <time>2020-08-11T13:21:16Z</time>
      </trkpt>
      <trkpt lat="42.279229" lon="1.706493">
        <ele>2402.989</ele>
        <time>2020-08-11T13:21:24Z</time>
      </trkpt>
      <trkpt lat="42.279184" lon="1.706375">
        <ele>2403.517</ele>
        <time>2020-08-11T13:21:32Z</time>
      </trkpt>
      <trkpt lat="42.279176" lon="1.706249">
        <ele>2403.308</ele>
        <time>2020-08-11T13:21:39Z</time>
      </trkpt>
      <trkpt lat="42.279154" lon="1.706121">
        <ele>2403.478</ele>
        <time>2020-08-11T13:21:49Z</time>
      </trkpt>
      <trkpt lat="42.279132" lon="1.705993">
        <ele>2403.495</ele>
        <time>2020-08-11T13:21:56Z</time>
      </trkpt>
      <trkpt lat="42.279116" lon="1.705866">
        <ele>2403.482</ele>
        <time>2020-08-11T13:22:04Z</time>
      </trkpt>
      <trkpt lat="42.279087" lon="1.705737">
        <ele>2404.098</ele>
        <time>2020-08-11T13:22:14Z</time>
      </trkpt>
      <trkpt lat="42.279064" lon="1.705612">
        <ele>2404.652</ele>
        <time>2020-08-11T13:22:21Z</time>
      </trkpt>
      <trkpt lat="42.279045" lon="1.705490">
        <ele>2405.073</ele>
        <time>2020-08-11T13:22:29Z</time>
      </trkpt>
      <trkpt lat="42.279023" lon="1.705352">
        <ele>2405.626</ele>
        <time>2020-08-11T13:22:39Z</time>
      </trkpt>
      <trkpt lat="42.279000" lon="1.705227">
        <ele>2406.285</ele>
        <time>2020-08-11T13:22:46Z</time>
      </trkpt>
      <trkpt lat="42.278987" lon="1.705101">
        <ele>2406.263</ele>
        <time>2020-08-11T13:22:54Z</time>
      </trkpt>
      <trkpt lat="42.278970" lon="1.704974">
        <ele>2406.444</ele>
        <time>2020-08-11T13:23:04Z</time>
      </trkpt>
      <trkpt lat="42.278940" lon="1.704857">
        <ele>2407.818</ele>
        <time>2020-08-11T13:23:22Z</time>
      </trkpt>
      <trkpt lat="42.278914" lon="1.704728">
        <ele>2409.108</ele>
        <time>2020-08-11T13:23:31Z</time>
      </trkpt>
      <trkpt lat="42.278896" lon="1.704598">
        <ele>2409.332</ele>
        <time>2020-08-11T13:23:41Z</time>
      </trkpt>
      <trkpt lat="42.278843" lon="1.704500">
        <ele>2411.019</ele>
        <time>2020-08-11T13:24:05Z</time>
      </trkpt>
      <trkpt lat="42.278797" lon="1.704392">
        <ele>2412.376</ele>
        <time>2020-08-11T13:24:16Z</time>
      </trkpt>
      <trkpt lat="42.278779" lon="1.704270">
        <ele>2412.152</ele>
        <time>2020-08-11T13:24:26Z</time>
      </trkpt>
      <trkpt lat="42.278741" lon="1.704157">
        <ele>2412.726</ele>
        <time>2020-08-11T13:24:39Z</time>
      </trkpt>
      <trkpt lat="42.278680" lon="1.704060">
        <ele>2413.917</ele>
        <time>2020-08-11T13:24:50Z</time>
      </trkpt>
      <trkpt lat="42.278635" lon="1.703953">
        <ele>2414.680</ele>
        <time>2020-08-11T13:25:00Z</time>
      </trkpt>
      <trkpt lat="42.278600" lon="1.703841">
        <ele>2414.849</ele>
        <time>2020-08-11T13:25:09Z</time>
      </trkpt>
      <trkpt lat="42.278545" lon="1.703738">
        <ele>2415.815</ele>
        <time>2020-08-11T13:25:19Z</time>
      </trkpt>
      <trkpt lat="42.278486" lon="1.703632">
        <ele>2417.165</ele>
        <time>2020-08-11T13:25:29Z</time>
      </trkpt>
      <trkpt lat="42.278464" lon="1.703504">
        <ele>2416.311</ele>
        <time>2020-08-11T13:25:41Z</time>
      </trkpt>
      <trkpt lat="42.278416" lon="1.703397">
        <ele>2417.008</ele>
        <time>2020-08-11T13:25:50Z</time>
      </trkpt>
      <trkpt lat="42.278360" lon="1.703292">
        <ele>2418.057</ele>
        <time>2020-08-11T13:25:59Z</time>
      </trkpt>
      <trkpt lat="42.278301" lon="1.703197">
        <ele>2419.154</ele>
        <time>2020-08-11T13:27:19Z</time>
      </trkpt>
      <trkpt lat="42.278252" lon="1.703075">
        <ele>2419.291</ele>
        <time>2020-08-11T13:27:29Z</time>
      </trkpt>
      <trkpt lat="42.278202" lon="1.702974">
        <ele>2419.427</ele>
        <time>2020-08-11T13:27:37Z</time>
      </trkpt>
      <trkpt lat="42.278163" lon="1.702864">
        <ele>2418.851</ele>
        <time>2020-08-11T13:27:46Z</time>
      </trkpt>
      <trkpt lat="42.278112" lon="1.702761">
        <ele>2419.152</ele>
        <time>2020-08-11T13:27:54Z</time>
      </trkpt>
      <trkpt lat="42.278063" lon="1.702654">
        <ele>2419.845</ele>
        <time>2020-08-11T13:28:21Z</time>
      </trkpt>
      <trkpt lat="42.278004" lon="1.702544">
        <ele>2420.584</ele>
        <time>2020-08-11T13:28:32Z</time>
      </trkpt>
      <trkpt lat="42.277949" lon="1.702443">
        <ele>2421.527</ele>
        <time>2020-08-11T13:28:41Z</time>
      </trkpt>
      <trkpt lat="42.277929" lon="1.702322">
        <ele>2421.668</ele>
        <time>2020-08-11T13:28:50Z</time>
      </trkpt>
      <trkpt lat="42.277893" lon="1.702205">
        <ele>2422.414</ele>
        <time>2020-08-11T13:28:59Z</time>
      </trkpt>
      <trkpt lat="42.277881" lon="1.702075">
        <ele>2422.708</ele>
        <time>2020-08-11T13:29:09Z</time>
      </trkpt>
      <trkpt lat="42.277866" lon="1.701942">
        <ele>2423.258</ele>
        <time>2020-08-11T13:29:19Z</time>
      </trkpt>
      <trkpt lat="42.277820" lon="1.701823">
        <ele>2424.045</ele>
        <time>2020-08-11T13:29:27Z</time>
      </trkpt>
      <trkpt lat="42.277798" lon="1.701705">
        <ele>2423.732</ele>
        <time>2020-08-11T13:29:36Z</time>
      </trkpt>
      <trkpt lat="42.277770" lon="1.701579">
        <ele>2423.618</ele>
        <time>2020-08-11T13:29:45Z</time>
      </trkpt>
      <trkpt lat="42.277723" lon="1.701472">
        <ele>2424.582</ele>
        <time>2020-08-11T13:29:52Z</time>
      </trkpt>
      <trkpt lat="42.277690" lon="1.701353">
        <ele>2424.833</ele>
        <time>2020-08-11T13:30:01Z</time>
      </trkpt>
      <trkpt lat="42.277692" lon="1.701229">
        <ele>2423.556</ele>
        <time>2020-08-11T13:30:12Z</time>
      </trkpt>
      <trkpt lat="42.277674" lon="1.701104">
        <ele>2423.085</ele>
        <time>2020-08-11T13:30:21Z</time>
      </trkpt>
      <trkpt lat="42.277638" lon="1.700991">
        <ele>2423.066</ele>
        <time>2020-08-11T13:30:30Z</time>
      </trkpt>
      <trkpt lat="42.277606" lon="1.700871">
        <ele>2423.129</ele>
        <time>2020-08-11T13:30:41Z</time>
      </trkpt>
      <trkpt lat="42.277546" lon="1.700780">
        <ele>2424.921</ele>
        <time>2020-08-11T13:30:59Z</time>
      </trkpt>
      <trkpt lat="42.277518" lon="1.700644">
        <ele>2424.408</ele>
        <time>2020-08-11T13:31:09Z</time>
      </trkpt>
      <trkpt lat="42.277492" lon="1.700524">
        <ele>2423.712</ele>
        <time>2020-08-11T13:31:17Z</time>
      </trkpt>
      <trkpt lat="42.277452" lon="1.700408">
        <ele>2423.239</ele>
        <time>2020-08-11T13:31:27Z</time>
      </trkpt>
      <trkpt lat="42.277414" lon="1.700297">
        <ele>2422.886</ele>
        <time>2020-08-11T13:31:36Z</time>
      </trkpt>
      <trkpt lat="42.277400" lon="1.700176">
        <ele>2421.652</ele>
        <time>2020-08-11T13:31:44Z</time>
      </trkpt>
      <trkpt lat="42.277352" lon="1.700060">
        <ele>2422.116</ele>
        <time>2020-08-11T13:31:54Z</time>
      </trkpt>
      <trkpt lat="42.277320" lon="1.699946">
        <ele>2422.257</ele>
        <time>2020-08-11T13:32:04Z</time>
      </trkpt>
      <trkpt lat="42.277292" lon="1.699827">
        <ele>2422.160</ele>
        <time>2020-08-11T13:32:14Z</time>
      </trkpt>
      <trkpt lat="42.277281" lon="1.699692">
        <ele>2421.449</ele>
        <time>2020-08-11T13:32:24Z</time>
      </trkpt>
      <trkpt lat="42.277272" lon="1.699566">
        <ele>2421.485</ele>
        <time>2020-08-11T13:32:31Z</time>
      </trkpt>
      <trkpt lat="42.277280" lon="1.699440">
        <ele>2420.689</ele>
        <time>2020-08-11T13:32:40Z</time>
      </trkpt>
      <trkpt lat="42.277272" lon="1.699313">
        <ele>2419.717</ele>
        <time>2020-08-11T13:32:49Z</time>
      </trkpt>
      <trkpt lat="42.277256" lon="1.699187">
        <ele>2419.308</ele>
        <time>2020-08-11T13:33:19Z</time>
      </trkpt>
      <trkpt lat="42.277231" lon="1.699066">
        <ele>2419.744</ele>
        <time>2020-08-11T13:33:29Z</time>
      </trkpt>
      <trkpt lat="42.277209" lon="1.698946">
        <ele>2419.951</ele>
        <time>2020-08-11T13:33:39Z</time>
      </trkpt>
      <trkpt lat="42.277183" lon="1.698824">
        <ele>2419.858</ele>
        <time>2020-08-11T13:33:51Z</time>
      </trkpt>
      <trkpt lat="42.277137" lon="1.698710">
        <ele>2420.294</ele>
        <time>2020-08-11T13:34:02Z</time>
      </trkpt>
      <trkpt lat="42.277086" lon="1.698609">
        <ele>2420.928</ele>
        <time>2020-08-11T13:34:15Z</time>
      </trkpt>
      <trkpt lat="42.277076" lon="1.698478">
        <ele>2420.189</ele>
        <time>2020-08-11T13:34:26Z</time>
      </trkpt>
      <trkpt lat="42.277085" lon="1.698348">
        <ele>2418.672</ele>
        <time>2020-08-11T13:34:37Z</time>
      </trkpt>
      <trkpt lat="42.277098" lon="1.698221">
        <ele>2416.971</ele>
        <time>2020-08-11T13:34:49Z</time>
      </trkpt>
      <trkpt lat="42.277101" lon="1.698086">
        <ele>2415.634</ele>
        <time>2020-08-11T13:34:59Z</time>
      </trkpt>
      <trkpt lat="42.277096" lon="1.697956">
        <ele>2414.755</ele>
        <time>2020-08-11T13:35:06Z</time>
      </trkpt>
      <trkpt lat="42.277070" lon="1.697826">
        <ele>2414.410</ele>
        <time>2020-08-11T13:35:15Z</time>
      </trkpt>
      <trkpt lat="42.277025" lon="1.697705">
        <ele>2415.008</ele>
        <time>2020-08-11T13:35:24Z</time>
      </trkpt>
      <trkpt lat="42.276940" lon="1.697654">
        <ele>2417.479</ele>
        <time>2020-08-11T13:35:36Z</time>
      </trkpt>
      <trkpt lat="42.276856" lon="1.697715">
        <ele>2414.616</ele>
        <time>2020-08-11T13:35:54Z</time>
      </trkpt>
      <trkpt lat="42.276780" lon="1.697787">
        <ele>2412.273</ele>
        <time>2020-08-11T13:36:50Z</time>
      </trkpt>
      <trkpt lat="42.276724" lon="1.697684">
        <ele>2409.759</ele>
        <time>2020-08-11T13:37:04Z</time>
      </trkpt>
      <trkpt lat="42.276653" lon="1.697600">
        <ele>2406.663</ele>
        <time>2020-08-11T13:37:19Z</time>
      </trkpt>
      <trkpt lat="42.276599" lon="1.697498">
        <ele>2403.174</ele>
        <time>2020-08-11T13:37:40Z</time>
      </trkpt>
      <trkpt lat="42.276549" lon="1.697388">
        <ele>2400.027</ele>
        <time>2020-08-11T13:37:56Z</time>
      </trkpt>
      <trkpt lat="42.276479" lon="1.697304">
        <ele>2396.016</ele>
        <time>2020-08-11T13:38:09Z</time>
      </trkpt>
      <trkpt lat="42.276432" lon="1.697186">
        <ele>2393.256</ele>
        <time>2020-08-11T13:38:19Z</time>
      </trkpt>
      <trkpt lat="42.276390" lon="1.697072">
        <ele>2390.559</ele>
        <time>2020-08-11T13:38:27Z</time>
      </trkpt>
      <trkpt lat="42.276340" lon="1.696958">
        <ele>2387.414</ele>
        <time>2020-08-11T13:38:35Z</time>
      </trkpt>
      <trkpt lat="42.276283" lon="1.696855">
        <ele>2383.808</ele>
        <time>2020-08-11T13:38:42Z</time>
      </trkpt>
      <trkpt lat="42.276247" lon="1.696725">
        <ele>2381.241</ele>
        <time>2020-08-11T13:38:50Z</time>
      </trkpt>
      <trkpt lat="42.276208" lon="1.696601">
        <ele>2378.658</ele>
        <time>2020-08-11T13:38:58Z</time>
      </trkpt>
      <trkpt lat="42.276161" lon="1.696483">
        <ele>2375.945</ele>
        <time>2020-08-11T13:39:06Z</time>
      </trkpt>
      <trkpt lat="42.276115" lon="1.696377">
        <ele>2373.271</ele>
        <time>2020-08-11T13:39:14Z</time>
      </trkpt>
      <trkpt lat="42.276068" lon="1.696252">
        <ele>2370.365</ele>
        <time>2020-08-11T13:39:20Z</time>
      </trkpt>
      <trkpt lat="42.276018" lon="1.696145">
        <ele>2367.476</ele>
        <time>2020-08-11T13:39:27Z</time>
      </trkpt>
      <trkpt lat="42.275971" lon="1.696040">
        <ele>2364.419</ele>
        <time>2020-08-11T13:39:34Z</time>
      </trkpt>
      <trkpt lat="42.275952" lon="1.695898">
        <ele>2362.468</ele>
        <time>2020-08-11T13:39:39Z</time>
      </trkpt>
      <trkpt lat="42.275958" lon="1.695763">
        <ele>2361.915</ele>
        <time>2020-08-11T13:39:45Z</time>
      </trkpt>
      <trkpt lat="42.275916" lon="1.695655">
        <ele>2359.365</ele>
        <time>2020-08-11T13:39:52Z</time>
      </trkpt>
      <trkpt lat="42.275896" lon="1.695526">
        <ele>2357.711</ele>
        <time>2020-08-11T13:39:59Z</time>
      </trkpt>
      <trkpt lat="42.275835" lon="1.695413">
        <ele>2354.108</ele>
        <time>2020-08-11T13:40:10Z</time>
      </trkpt>
      <trkpt lat="42.275807" lon="1.695288">
        <ele>2352.087</ele>
        <time>2020-08-11T13:40:19Z</time>
      </trkpt>
      <trkpt lat="42.275778" lon="1.695159">
        <ele>2350.034</ele>
        <time>2020-08-11T13:40:29Z</time>
      </trkpt>
      <trkpt lat="42.275728" lon="1.695040">
        <ele>2347.461</ele>
        <time>2020-08-11T13:40:37Z</time>
      </trkpt>
      <trkpt lat="42.275706" lon="1.694917">
        <ele>2345.897</ele>
        <time>2020-08-11T13:40:44Z</time>
      </trkpt>
      <trkpt lat="42.275677" lon="1.694797">
        <ele>2343.921</ele>
        <time>2020-08-11T13:40:54Z</time>
      </trkpt>
      <trkpt lat="42.275667" lon="1.694669">
        <ele>2342.642</ele>
        <time>2020-08-11T13:41:00Z</time>
      </trkpt>
      <trkpt lat="42.275648" lon="1.694546">
        <ele>2340.845</ele>
        <time>2020-08-11T13:41:09Z</time>
      </trkpt>
      <trkpt lat="42.275657" lon="1.694402">
        <ele>2340.174</ele>
        <time>2020-08-11T13:41:14Z</time>
      </trkpt>
      <trkpt lat="42.275635" lon="1.694277">
        <ele>2338.833</ele>
        <time>2020-08-11T13:41:24Z</time>
      </trkpt>
      <trkpt lat="42.275602" lon="1.694160">
        <ele>2337.323</ele>
        <time>2020-08-11T13:41:29Z</time>
      </trkpt>
      <trkpt lat="42.275592" lon="1.694024">
        <ele>2336.015</ele>
        <time>2020-08-11T13:41:37Z</time>
      </trkpt>
      <trkpt lat="42.275590" lon="1.693901">
        <ele>2335.008</ele>
        <time>2020-08-11T13:41:45Z</time>
      </trkpt>
      <trkpt lat="42.275588" lon="1.693780">
        <ele>2334.089</ele>
        <time>2020-08-11T13:41:54Z</time>
      </trkpt>
      <trkpt lat="42.275584" lon="1.693644">
        <ele>2333.066</ele>
        <time>2020-08-11T13:42:00Z</time>
      </trkpt>
      <trkpt lat="42.275536" lon="1.693527">
        <ele>2331.053</ele>
        <time>2020-08-11T13:42:09Z</time>
      </trkpt>
      <trkpt lat="42.275508" lon="1.693410">
        <ele>2329.789</ele>
        <time>2020-08-11T13:42:18Z</time>
      </trkpt>
      <trkpt lat="42.275518" lon="1.693274">
        <ele>2328.763</ele>
        <time>2020-08-11T13:42:26Z</time>
      </trkpt>
      <trkpt lat="42.275524" lon="1.693148">
        <ele>2327.594</ele>
        <time>2020-08-11T13:42:34Z</time>
      </trkpt>
      <trkpt lat="42.275518" lon="1.693013">
        <ele>2326.297</ele>
        <time>2020-08-11T13:42:42Z</time>
      </trkpt>
      <trkpt lat="42.275496" lon="1.692884">
        <ele>2325.076</ele>
        <time>2020-08-11T13:42:54Z</time>
      </trkpt>
      <trkpt lat="42.275456" lon="1.692773">
        <ele>2323.997</ele>
        <time>2020-08-11T13:43:00Z</time>
      </trkpt>
      <trkpt lat="42.275447" lon="1.692649">
        <ele>2323.223</ele>
        <time>2020-08-11T13:43:09Z</time>
      </trkpt>
      <trkpt lat="42.275440" lon="1.692524">
        <ele>2322.525</ele>
        <time>2020-08-11T13:43:19Z</time>
      </trkpt>
      <trkpt lat="42.275453" lon="1.692391">
        <ele>2321.308</ele>
        <time>2020-08-11T13:43:27Z</time>
      </trkpt>
      <trkpt lat="42.275456" lon="1.692260">
        <ele>2320.095</ele>
        <time>2020-08-11T13:43:34Z</time>
      </trkpt>
      <trkpt lat="42.275453" lon="1.692133">
        <ele>2318.982</ele>
        <time>2020-08-11T13:43:40Z</time>
      </trkpt>
      <trkpt lat="42.275449" lon="1.692002">
        <ele>2317.939</ele>
        <time>2020-08-11T13:43:49Z</time>
      </trkpt>
      <trkpt lat="42.275437" lon="1.691881">
        <ele>2316.935</ele>
        <time>2020-08-11T13:43:56Z</time>
      </trkpt>
      <trkpt lat="42.275439" lon="1.691754">
        <ele>2316.219</ele>
        <time>2020-08-11T13:44:01Z</time>
      </trkpt>
      <trkpt lat="42.275432" lon="1.691606">
        <ele>2315.220</ele>
        <time>2020-08-11T13:44:10Z</time>
      </trkpt>
      <trkpt lat="42.275405" lon="1.691475">
        <ele>2314.073</ele>
        <time>2020-08-11T13:44:19Z</time>
      </trkpt>
      <trkpt lat="42.275371" lon="1.691352">
        <ele>2312.732</ele>
        <time>2020-08-11T13:44:26Z</time>
      </trkpt>
      <trkpt lat="42.275346" lon="1.691227">
        <ele>2311.648</ele>
        <time>2020-08-11T13:44:32Z</time>
      </trkpt>
      <trkpt lat="42.275305" lon="1.691091">
        <ele>2310.161</ele>
        <time>2020-08-11T13:44:41Z</time>
      </trkpt>
      <trkpt lat="42.275292" lon="1.690945">
        <ele>2308.417</ele>
        <time>2020-08-11T13:44:51Z</time>
      </trkpt>
      <trkpt lat="42.275272" lon="1.690810">
        <ele>2306.808</ele>
        <time>2020-08-11T13:45:00Z</time>
      </trkpt>
      <trkpt lat="42.275246" lon="1.690685">
        <ele>2305.720</ele>
        <time>2020-08-11T13:45:09Z</time>
      </trkpt>
      <trkpt lat="42.275251" lon="1.690560">
        <ele>2304.867</ele>
        <time>2020-08-11T13:45:14Z</time>
      </trkpt>
      <trkpt lat="42.275252" lon="1.690420">
        <ele>2302.914</ele>
        <time>2020-08-11T13:45:22Z</time>
      </trkpt>
      <trkpt lat="42.275244" lon="1.690298">
        <ele>2301.210</ele>
        <time>2020-08-11T13:45:29Z</time>
      </trkpt>
      <trkpt lat="42.275236" lon="1.690175">
        <ele>2300.154</ele>
        <time>2020-08-11T13:45:39Z</time>
      </trkpt>
      <trkpt lat="42.275211" lon="1.690046">
        <ele>2298.965</ele>
        <time>2020-08-11T13:45:46Z</time>
      </trkpt>
      <trkpt lat="42.275212" lon="1.689912">
        <ele>2298.298</ele>
        <time>2020-08-11T13:45:52Z</time>
      </trkpt>
      <trkpt lat="42.275207" lon="1.689777">
        <ele>2297.787</ele>
        <time>2020-08-11T13:45:59Z</time>
      </trkpt>
      <trkpt lat="42.275205" lon="1.689642">
        <ele>2297.238</ele>
        <time>2020-08-11T13:46:07Z</time>
      </trkpt>
      <trkpt lat="42.275174" lon="1.689517">
        <ele>2296.570</ele>
        <time>2020-08-11T13:46:24Z</time>
      </trkpt>
      <trkpt lat="42.275143" lon="1.689390">
        <ele>2295.617</ele>
        <time>2020-08-11T13:46:39Z</time>
      </trkpt>
      <trkpt lat="42.275118" lon="1.689254">
        <ele>2294.508</ele>
        <time>2020-08-11T13:46:46Z</time>
      </trkpt>
      <trkpt lat="42.275105" lon="1.689125">
        <ele>2293.589</ele>
        <time>2020-08-11T13:46:52Z</time>
      </trkpt>
      <trkpt lat="42.275105" lon="1.688980">
        <ele>2292.426</ele>
        <time>2020-08-11T13:46:59Z</time>
      </trkpt>
      <trkpt lat="42.275120" lon="1.688858">
        <ele>2291.623</ele>
        <time>2020-08-11T13:47:07Z</time>
      </trkpt>
      <trkpt lat="42.275121" lon="1.688728">
        <ele>2290.429</ele>
        <time>2020-08-11T13:47:16Z</time>
      </trkpt>
      <trkpt lat="42.275136" lon="1.688594">
        <ele>2289.383</ele>
        <time>2020-08-11T13:47:24Z</time>
      </trkpt>
      <trkpt lat="42.275132" lon="1.688454">
        <ele>2288.364</ele>
        <time>2020-08-11T13:47:31Z</time>
      </trkpt>
      <trkpt lat="42.275135" lon="1.688315">
        <ele>2287.327</ele>
        <time>2020-08-11T13:47:40Z</time>
      </trkpt>
      <trkpt lat="42.275138" lon="1.688187">
        <ele>2285.946</ele>
        <time>2020-08-11T13:47:49Z</time>
      </trkpt>
      <trkpt lat="42.275129" lon="1.688057">
        <ele>2284.427</ele>
        <time>2020-08-11T13:47:57Z</time>
      </trkpt>
      <trkpt lat="42.275147" lon="1.687932">
        <ele>2283.368</ele>
        <time>2020-08-11T13:48:04Z</time>
      </trkpt>
      <trkpt lat="42.275127" lon="1.687803">
        <ele>2281.614</ele>
        <time>2020-08-11T13:48:12Z</time>
      </trkpt>
      <trkpt lat="42.275108" lon="1.687680">
        <ele>2280.508</ele>
        <time>2020-08-11T13:48:17Z</time>
      </trkpt>
      <trkpt lat="42.275063" lon="1.687550">
        <ele>2279.088</ele>
        <time>2020-08-11T13:48:26Z</time>
      </trkpt>
      <trkpt lat="42.275015" lon="1.687422">
        <ele>2277.695</ele>
        <time>2020-08-11T13:48:35Z</time>
      </trkpt>
      <trkpt lat="42.274949" lon="1.687304">
        <ele>2276.152</ele>
        <time>2020-08-11T13:48:44Z</time>
      </trkpt>
      <trkpt lat="42.274884" lon="1.687213">
        <ele>2274.728</ele>
        <time>2020-08-11T13:48:52Z</time>
      </trkpt>
      <trkpt lat="42.274844" lon="1.687102">
        <ele>2273.272</ele>
        <time>2020-08-11T13:48:59Z</time>
      </trkpt>
      <trkpt lat="42.274803" lon="1.686990">
        <ele>2271.633</ele>
        <time>2020-08-11T13:49:07Z</time>
      </trkpt>
      <trkpt lat="42.274755" lon="1.686880">
        <ele>2269.856</ele>
        <time>2020-08-11T13:49:15Z</time>
      </trkpt>
      <trkpt lat="42.274669" lon="1.686833">
        <ele>2267.815</ele>
        <time>2020-08-11T13:49:24Z</time>
      </trkpt>
      <trkpt lat="42.274572" lon="1.686811">
        <ele>2265.964</ele>
        <time>2020-08-11T13:49:34Z</time>
      </trkpt>
      <trkpt lat="42.274489" lon="1.686755">
        <ele>2263.806</ele>
        <time>2020-08-11T13:49:39Z</time>
      </trkpt>
      <trkpt lat="42.274406" lon="1.686708">
        <ele>2262.216</ele>
        <time>2020-08-11T13:49:44Z</time>
      </trkpt>
      <trkpt lat="42.274326" lon="1.686642">
        <ele>2260.908</ele>
        <time>2020-08-11T13:49:54Z</time>
      </trkpt>
      <trkpt lat="42.274271" lon="1.686538">
        <ele>2259.412</ele>
        <time>2020-08-11T13:49:59Z</time>
      </trkpt>
      <trkpt lat="42.274210" lon="1.686442">
        <ele>2257.559</ele>
        <time>2020-08-11T13:50:09Z</time>
      </trkpt>
      <trkpt lat="42.274135" lon="1.686360">
        <ele>2255.526</ele>
        <time>2020-08-11T13:50:17Z</time>
      </trkpt>
      <trkpt lat="42.274046" lon="1.686334">
        <ele>2253.482</ele>
        <time>2020-08-11T13:50:29Z</time>
      </trkpt>
      <trkpt lat="42.273956" lon="1.686294">
        <ele>2251.166</ele>
        <time>2020-08-11T13:50:44Z</time>
      </trkpt>
      <trkpt lat="42.273861" lon="1.686279">
        <ele>2248.667</ele>
        <time>2020-08-11T13:50:55Z</time>
      </trkpt>
      <trkpt lat="42.273770" lon="1.686231">
        <ele>2245.930</ele>
        <time>2020-08-11T13:51:09Z</time>
      </trkpt>
      <trkpt lat="42.273712" lon="1.686132">
        <ele>2242.779</ele>
        <time>2020-08-11T13:51:19Z</time>
      </trkpt>
      <trkpt lat="42.273642" lon="1.686054">
        <ele>2239.238</ele>
        <time>2020-08-11T13:51:34Z</time>
      </trkpt>
      <trkpt lat="42.273588" lon="1.685955">
        <ele>2236.270</ele>
        <time>2020-08-11T13:51:46Z</time>
      </trkpt>
      <trkpt lat="42.273490" lon="1.685945">
        <ele>2233.617</ele>
        <time>2020-08-11T13:51:59Z</time>
      </trkpt>
      <trkpt lat="42.273421" lon="1.685866">
        <ele>2230.208</ele>
        <time>2020-08-11T13:52:12Z</time>
      </trkpt>
      <trkpt lat="42.273365" lon="1.685770">
        <ele>2227.149</ele>
        <time>2020-08-11T13:52:26Z</time>
      </trkpt>
      <trkpt lat="42.273304" lon="1.685667">
        <ele>2223.936</ele>
        <time>2020-08-11T13:52:37Z</time>
      </trkpt>
      <trkpt lat="42.273232" lon="1.685592">
        <ele>2220.873</ele>
        <time>2020-08-11T13:52:46Z</time>
      </trkpt>
      <trkpt lat="42.273145" lon="1.685560">
        <ele>2217.729</ele>
        <time>2020-08-11T13:52:58Z</time>
      </trkpt>
      <trkpt lat="42.273074" lon="1.685480">
        <ele>2214.783</ele>
        <time>2020-08-11T13:53:09Z</time>
      </trkpt>
      <trkpt lat="42.272980" lon="1.685463">
        <ele>2212.124</ele>
        <time>2020-08-11T13:53:18Z</time>
      </trkpt>
      <trkpt lat="42.272913" lon="1.685371">
        <ele>2208.927</ele>
        <time>2020-08-11T13:53:28Z</time>
      </trkpt>
      <trkpt lat="42.272819" lon="1.685325">
        <ele>2205.376</ele>
        <time>2020-08-11T13:53:46Z</time>
      </trkpt>
      <trkpt lat="42.272732" lon="1.685292">
        <ele>2202.039</ele>
        <time>2020-08-11T13:53:57Z</time>
      </trkpt>
      <trkpt lat="42.272654" lon="1.685220">
        <ele>2198.501</ele>
        <time>2020-08-11T13:54:06Z</time>
      </trkpt>
      <trkpt lat="42.272598" lon="1.685123">
        <ele>2195.121</ele>
        <time>2020-08-11T13:54:19Z</time>
      </trkpt>
      <trkpt lat="42.272554" lon="1.685004">
        <ele>2191.208</ele>
        <time>2020-08-11T13:54:34Z</time>
      </trkpt>
      <trkpt lat="42.272462" lon="1.684953">
        <ele>2187.699</ele>
        <time>2020-08-11T13:54:46Z</time>
      </trkpt>
      <trkpt lat="42.272369" lon="1.684895">
        <ele>2184.126</ele>
        <time>2020-08-11T13:55:01Z</time>
      </trkpt>
      <trkpt lat="42.272274" lon="1.684880">
        <ele>2180.783</ele>
        <time>2020-08-11T13:55:08Z</time>
      </trkpt>
      <trkpt lat="42.272212" lon="1.684777">
        <ele>2176.629</ele>
        <time>2020-08-11T13:55:20Z</time>
      </trkpt>
      <trkpt lat="42.272155" lon="1.684683">
        <ele>2173.733</ele>
        <time>2020-08-11T13:56:34Z</time>
      </trkpt>
      <trkpt lat="42.272067" lon="1.684720">
        <ele>2170.494</ele>
        <time>2020-08-11T13:56:48Z</time>
      </trkpt>
      <trkpt lat="42.271974" lon="1.684754">
        <ele>2167.667</ele>
        <time>2020-08-11T13:57:00Z</time>
      </trkpt>
      <trkpt lat="42.271881" lon="1.684730">
        <ele>2163.986</ele>
        <time>2020-08-11T13:57:10Z</time>
      </trkpt>
      <trkpt lat="42.271790" lon="1.684742">
        <ele>2160.812</ele>
        <time>2020-08-11T13:57:24Z</time>
      </trkpt>
      <trkpt lat="42.271698" lon="1.684698">
        <ele>2157.032</ele>
        <time>2020-08-11T13:58:10Z</time>
      </trkpt>
      <trkpt lat="42.271612" lon="1.684650">
        <ele>2153.805</ele>
        <time>2020-08-11T13:58:21Z</time>
      </trkpt>
      <trkpt lat="42.271518" lon="1.684665">
        <ele>2151.108</ele>
        <time>2020-08-11T13:58:30Z</time>
      </trkpt>
      <trkpt lat="42.271429" lon="1.684686">
        <ele>2148.797</ele>
        <time>2020-08-11T13:58:37Z</time>
      </trkpt>
      <trkpt lat="42.271334" lon="1.684696">
        <ele>2145.824</ele>
        <time>2020-08-11T13:58:47Z</time>
      </trkpt>
      <trkpt lat="42.271240" lon="1.684691">
        <ele>2142.751</ele>
        <time>2020-08-11T13:58:54Z</time>
      </trkpt>
      <trkpt lat="42.271166" lon="1.684784">
        <ele>2141.437</ele>
        <time>2020-08-11T13:59:01Z</time>
      </trkpt>
      <trkpt lat="42.271075" lon="1.684813">
        <ele>2138.851</ele>
        <time>2020-08-11T13:59:09Z</time>
      </trkpt>
      <trkpt lat="42.270984" lon="1.684851">
        <ele>2136.192</ele>
        <time>2020-08-11T13:59:19Z</time>
      </trkpt>
      <trkpt lat="42.270909" lon="1.684957">
        <ele>2134.425</ele>
        <time>2020-08-11T13:59:29Z</time>
      </trkpt>
      <trkpt lat="42.270826" lon="1.685028">
        <ele>2131.694</ele>
        <time>2020-08-11T13:59:39Z</time>
      </trkpt>
      <trkpt lat="42.270746" lon="1.685085">
        <ele>2128.657</ele>
        <time>2020-08-11T13:59:49Z</time>
      </trkpt>
      <trkpt lat="42.270682" lon="1.685184">
        <ele>2125.900</ele>
        <time>2020-08-11T13:59:59Z</time>
      </trkpt>
      <trkpt lat="42.270596" lon="1.685241">
        <ele>2122.620</ele>
        <time>2020-08-11T14:00:10Z</time>
      </trkpt>
      <trkpt lat="42.270508" lon="1.685206">
        <ele>2119.508</ele>
        <time>2020-08-11T14:00:20Z</time>
      </trkpt>
      <trkpt lat="42.270417" lon="1.685214">
        <ele>2116.281</ele>
        <time>2020-08-11T14:00:32Z</time>
      </trkpt>
      <trkpt lat="42.270333" lon="1.685292">
        <ele>2112.888</ele>
        <time>2020-08-11T14:00:44Z</time>
      </trkpt>
      <trkpt lat="42.270240" lon="1.685308">
        <ele>2109.295</ele>
        <time>2020-08-11T14:00:54Z</time>
      </trkpt>
      <trkpt lat="42.270145" lon="1.685311">
        <ele>2105.781</ele>
        <time>2020-08-11T14:01:09Z</time>
      </trkpt>
      <trkpt lat="42.270149" lon="1.685439">
        <ele>2104.065</ele>
        <time>2020-08-11T14:01:19Z</time>
      </trkpt>
      <trkpt lat="42.270194" lon="1.685548">
        <ele>2104.116</ele>
        <time>2020-08-11T14:01:26Z</time>
      </trkpt>
      <trkpt lat="42.270216" lon="1.685668">
        <ele>2103.699</ele>
        <time>2020-08-11T14:01:32Z</time>
      </trkpt>
      <trkpt lat="42.270214" lon="1.685804">
        <ele>2102.098</ele>
        <time>2020-08-11T14:01:42Z</time>
      </trkpt>
      <trkpt lat="42.270169" lon="1.685912">
        <ele>2099.861</ele>
        <time>2020-08-11T14:01:50Z</time>
      </trkpt>
      <trkpt lat="42.270130" lon="1.686028">
        <ele>2098.021</ele>
        <time>2020-08-11T14:01:58Z</time>
      </trkpt>
      <trkpt lat="42.270097" lon="1.686147">
        <ele>2096.413</ele>
        <time>2020-08-11T14:02:11Z</time>
      </trkpt>
      <trkpt lat="42.270027" lon="1.686286">
        <ele>2093.408</ele>
        <time>2020-08-11T14:02:23Z</time>
      </trkpt>
      <trkpt lat="42.270000" lon="1.686402">
        <ele>2091.952</ele>
        <time>2020-08-11T14:02:32Z</time>
      </trkpt>
      <trkpt lat="42.269966" lon="1.686539">
        <ele>2089.789</ele>
        <time>2020-08-11T14:02:37Z</time>
      </trkpt>
      <trkpt lat="42.269978" lon="1.686663">
        <ele>2089.376</ele>
        <time>2020-08-11T14:02:47Z</time>
      </trkpt>
      <trkpt lat="42.269956" lon="1.686791">
        <ele>2088.552</ele>
        <time>2020-08-11T14:02:52Z</time>
      </trkpt>
      <trkpt lat="42.269949" lon="1.686930">
        <ele>2088.216</ele>
        <time>2020-08-11T14:03:07Z</time>
      </trkpt>
      <trkpt lat="42.269894" lon="1.687044">
        <ele>2086.477</ele>
        <time>2020-08-11T14:03:15Z</time>
      </trkpt>
      <trkpt lat="42.269836" lon="1.687148">
        <ele>2084.480</ele>
        <time>2020-08-11T14:03:22Z</time>
      </trkpt>
      <trkpt lat="42.269796" lon="1.687260">
        <ele>2082.869</ele>
        <time>2020-08-11T14:03:30Z</time>
      </trkpt>
      <trkpt lat="42.269783" lon="1.687387">
        <ele>2081.968</ele>
        <time>2020-08-11T14:03:38Z</time>
      </trkpt>
      <trkpt lat="42.269723" lon="1.687484">
        <ele>2079.142</ele>
        <time>2020-08-11T14:03:46Z</time>
      </trkpt>
      <trkpt lat="42.269674" lon="1.687604">
        <ele>2078.226</ele>
        <time>2020-08-11T14:03:55Z</time>
      </trkpt>
      <trkpt lat="42.269645" lon="1.687733">
        <ele>2077.908</ele>
        <time>2020-08-11T14:04:01Z</time>
      </trkpt>
      <trkpt lat="42.269585" lon="1.687836">
        <ele>2076.682</ele>
        <time>2020-08-11T14:04:10Z</time>
      </trkpt>
      <trkpt lat="42.269510" lon="1.687908">
        <ele>2074.889</ele>
        <time>2020-08-11T14:04:15Z</time>
      </trkpt>
      <trkpt lat="42.269410" lon="1.687913">
        <ele>2072.676</ele>
        <time>2020-08-11T14:04:22Z</time>
      </trkpt>
      <trkpt lat="42.269328" lon="1.687834">
        <ele>2071.712</ele>
        <time>2020-08-11T14:04:28Z</time>
      </trkpt>
      <trkpt lat="42.269246" lon="1.687769">
        <ele>2070.886</ele>
        <time>2020-08-11T14:04:35Z</time>
      </trkpt>
      <trkpt lat="42.269192" lon="1.687667">
        <ele>2069.597</ele>
        <time>2020-08-11T14:04:42Z</time>
      </trkpt>
      <trkpt lat="42.269154" lon="1.687553">
        <ele>2068.290</ele>
        <time>2020-08-11T14:04:48Z</time>
      </trkpt>
      <trkpt lat="42.269142" lon="1.687420">
        <ele>2066.919</ele>
        <time>2020-08-11T14:04:56Z</time>
      </trkpt>
      <trkpt lat="42.269165" lon="1.687301">
        <ele>2065.889</ele>
        <time>2020-08-11T14:05:05Z</time>
      </trkpt>
      <trkpt lat="42.269203" lon="1.687191">
        <ele>2065.406</ele>
        <time>2020-08-11T14:05:10Z</time>
      </trkpt>
      <trkpt lat="42.269205" lon="1.687064">
        <ele>2063.826</ele>
        <time>2020-08-11T14:05:20Z</time>
      </trkpt>
      <trkpt lat="42.269187" lon="1.686926">
        <ele>2061.508</ele>
        <time>2020-08-11T14:05:28Z</time>
      </trkpt>
      <trkpt lat="42.269175" lon="1.686804">
        <ele>2060.334</ele>
        <time>2020-08-11T14:05:33Z</time>
      </trkpt>
      <trkpt lat="42.269173" lon="1.686678">
        <ele>2059.321</ele>
        <time>2020-08-11T14:05:41Z</time>
      </trkpt>
      <trkpt lat="42.269149" lon="1.686555">
        <ele>2057.588</ele>
        <time>2020-08-11T14:05:50Z</time>
      </trkpt>
      <trkpt lat="42.269146" lon="1.686428">
        <ele>2056.444</ele>
        <time>2020-08-11T14:05:58Z</time>
      </trkpt>
      <trkpt lat="42.269135" lon="1.686289">
        <ele>2054.918</ele>
        <time>2020-08-11T14:06:08Z</time>
      </trkpt>
      <trkpt lat="42.269123" lon="1.686165">
        <ele>2053.529</ele>
        <time>2020-08-11T14:06:15Z</time>
      </trkpt>
      <trkpt lat="42.269077" lon="1.686060">
        <ele>2050.942</ele>
        <time>2020-08-11T14:06:25Z</time>
      </trkpt>
      <trkpt lat="42.269008" lon="1.686143">
        <ele>2048.431</ele>
        <time>2020-08-11T14:07:00Z</time>
      </trkpt>
      <trkpt lat="42.268947" lon="1.686247">
        <ele>2046.547</ele>
        <time>2020-08-11T14:07:26Z</time>
      </trkpt>
      <trkpt lat="42.268906" lon="1.686363">
        <ele>2045.629</ele>
        <time>2020-08-11T14:07:36Z</time>
      </trkpt>
      <trkpt lat="42.268839" lon="1.686456">
        <ele>2045.321</ele>
        <time>2020-08-11T14:07:45Z</time>
      </trkpt>
      <trkpt lat="42.268740" lon="1.686486">
        <ele>2044.108</ele>
        <time>2020-08-11T14:07:53Z</time>
      </trkpt>
      <trkpt lat="42.268643" lon="1.686490">
        <ele>2042.410</ele>
        <time>2020-08-11T14:08:02Z</time>
      </trkpt>
      <trkpt lat="42.268551" lon="1.686470">
        <ele>2039.337</ele>
        <time>2020-08-11T14:08:11Z</time>
      </trkpt>
      <trkpt lat="42.268470" lon="1.686412">
        <ele>2035.764</ele>
        <time>2020-08-11T14:08:19Z</time>
      </trkpt>
      <trkpt lat="42.268424" lon="1.686306">
        <ele>2033.010</ele>
        <time>2020-08-11T14:08:27Z</time>
      </trkpt>
      <trkpt lat="42.268409" lon="1.686183">
        <ele>2031.434</ele>
        <time>2020-08-11T14:08:35Z</time>
      </trkpt>
      <trkpt lat="42.268381" lon="1.686063">
        <ele>2029.555</ele>
        <time>2020-08-11T14:09:00Z</time>
      </trkpt>
      <trkpt lat="42.268398" lon="1.685941">
        <ele>2028.698</ele>
        <time>2020-08-11T14:09:10Z</time>
      </trkpt>
      <trkpt lat="42.268320" lon="1.685876">
        <ele>2026.037</ele>
        <time>2020-08-11T14:09:35Z</time>
      </trkpt>
      <trkpt lat="42.268230" lon="1.685908">
        <ele>2023.513</ele>
        <time>2020-08-11T14:09:51Z</time>
      </trkpt>
      <trkpt lat="42.268137" lon="1.685882">
        <ele>2020.243</ele>
        <time>2020-08-11T14:10:02Z</time>
      </trkpt>
      <trkpt lat="42.268046" lon="1.685849">
        <ele>2016.907</ele>
        <time>2020-08-11T14:10:12Z</time>
      </trkpt>
      <trkpt lat="42.267952" lon="1.685835">
        <ele>2014.408</ele>
        <time>2020-08-11T14:10:23Z</time>
      </trkpt>
      <trkpt lat="42.267855" lon="1.685811">
        <ele>2011.737</ele>
        <time>2020-08-11T14:10:32Z</time>
      </trkpt>
      <trkpt lat="42.267762" lon="1.685826">
        <ele>2009.674</ele>
        <time>2020-08-11T14:10:50Z</time>
      </trkpt>
      <trkpt lat="42.267682" lon="1.685906">
        <ele>2008.221</ele>
        <time>2020-08-11T14:11:00Z</time>
      </trkpt>
      <trkpt lat="42.267639" lon="1.686039">
        <ele>2007.797</ele>
        <time>2020-08-11T14:11:08Z</time>
      </trkpt>
      <trkpt lat="42.267587" lon="1.686154">
        <ele>2006.551</ele>
        <time>2020-08-11T14:11:15Z</time>
      </trkpt>
      <trkpt lat="42.267586" lon="1.686287">
        <ele>2005.372</ele>
        <time>2020-08-11T14:11:25Z</time>
      </trkpt>
      <trkpt lat="42.267563" lon="1.686413">
        <ele>2003.695</ele>
        <time>2020-08-11T14:11:32Z</time>
      </trkpt>
      <trkpt lat="42.267547" lon="1.686537">
        <ele>2002.344</ele>
        <time>2020-08-11T14:11:40Z</time>
      </trkpt>
      <trkpt lat="42.267539" lon="1.686660">
        <ele>2001.238</ele>
        <time>2020-08-11T14:11:46Z</time>
      </trkpt>
      <trkpt lat="42.267549" lon="1.686794">
        <ele>2000.270</ele>
        <time>2020-08-11T14:11:56Z</time>
      </trkpt>
      <trkpt lat="42.267552" lon="1.686922">
        <ele>1999.117</ele>
        <time>2020-08-11T14:12:05Z</time>
      </trkpt>
      <trkpt lat="42.267477" lon="1.687011">
        <ele>1995.808</ele>
        <time>2020-08-11T14:12:28Z</time>
      </trkpt>
      <trkpt lat="42.267396" lon="1.687064">
        <ele>1993.359</ele>
        <time>2020-08-11T14:12:38Z</time>
      </trkpt>
      <trkpt lat="42.267312" lon="1.687113">
        <ele>1990.766</ele>
        <time>2020-08-11T14:12:43Z</time>
      </trkpt>
      <trkpt lat="42.267241" lon="1.687188">
        <ele>1988.093</ele>
        <time>2020-08-11T14:12:48Z</time>
      </trkpt>
      <trkpt lat="42.267173" lon="1.687275">
        <ele>1985.469</ele>
        <time>2020-08-11T14:12:53Z</time>
      </trkpt>
      <trkpt lat="42.267119" lon="1.687385">
        <ele>1982.783</ele>
        <time>2020-08-11T14:13:00Z</time>
      </trkpt>
      <trkpt lat="42.267072" lon="1.687504">
        <ele>1979.684</ele>
        <time>2020-08-11T14:13:05Z</time>
      </trkpt>
      <trkpt lat="42.267015" lon="1.687624">
        <ele>1976.437</ele>
        <time>2020-08-11T14:13:11Z</time>
      </trkpt>
      <trkpt lat="42.266950" lon="1.687719">
        <ele>1973.026</ele>
        <time>2020-08-11T14:13:20Z</time>
      </trkpt>
      <trkpt lat="42.266879" lon="1.687800">
        <ele>1970.353</ele>
        <time>2020-08-11T14:13:40Z</time>
      </trkpt>
      <trkpt lat="42.266814" lon="1.687903">
        <ele>1967.404</ele>
        <time>2020-08-11T14:13:55Z</time>
      </trkpt>
      <trkpt lat="42.266734" lon="1.687986">
        <ele>1964.114</ele>
        <time>2020-08-11T14:14:00Z</time>
      </trkpt>
      <trkpt lat="42.266637" lon="1.687998">
        <ele>1961.308</ele>
        <time>2020-08-11T14:14:05Z</time>
      </trkpt>
      <trkpt lat="42.266527" lon="1.688017">
        <ele>1958.211</ele>
        <time>2020-08-11T14:14:10Z</time>
      </trkpt>
      <trkpt lat="42.266427" lon="1.688070">
        <ele>1954.758</ele>
        <time>2020-08-11T14:14:15Z</time>
      </trkpt>
      <trkpt lat="42.266334" lon="1.688148">
        <ele>1951.615</ele>
        <time>2020-08-11T14:14:18Z</time>
      </trkpt>
      <trkpt lat="42.266255" lon="1.688225">
        <ele>1949.341</ele>
        <time>2020-08-11T14:14:22Z</time>
      </trkpt>
      <trkpt lat="42.266170" lon="1.688298">
        <ele>1947.225</ele>
        <time>2020-08-11T14:14:26Z</time>
      </trkpt>
      <trkpt lat="42.266095" lon="1.688372">
        <ele>1945.096</ele>
        <time>2020-08-11T14:14:30Z</time>
      </trkpt>
      <trkpt lat="42.266009" lon="1.688313">
        <ele>1944.599</ele>
        <time>2020-08-11T14:14:35Z</time>
      </trkpt>
      <trkpt lat="42.265901" lon="1.688325">
        <ele>1942.398</ele>
        <time>2020-08-11T14:14:40Z</time>
      </trkpt>
      <trkpt lat="42.265819" lon="1.688400">
        <ele>1940.287</ele>
        <time>2020-08-11T14:14:45Z</time>
      </trkpt>
      <trkpt lat="42.265764" lon="1.688500">
        <ele>1939.042</ele>
        <time>2020-08-11T14:14:47Z</time>
      </trkpt>
      <trkpt lat="42.265724" lon="1.688630">
        <ele>1937.326</ele>
        <time>2020-08-11T14:14:51Z</time>
      </trkpt>
      <trkpt lat="42.265673" lon="1.688746">
        <ele>1935.508</ele>
        <time>2020-08-11T14:14:56Z</time>
      </trkpt>
      <trkpt lat="42.265653" lon="1.688870">
        <ele>1933.634</ele>
        <time>2020-08-11T14:15:03Z</time>
      </trkpt>
      <trkpt lat="42.265599" lon="1.689003">
        <ele>1931.611</ele>
        <time>2020-08-11T14:15:12Z</time>
      </trkpt>
      <trkpt lat="42.265532" lon="1.689122">
        <ele>1929.398</ele>
        <time>2020-08-11T14:15:17Z</time>
      </trkpt>
      <trkpt lat="42.265432" lon="1.689154">
        <ele>1927.424</ele>
        <time>2020-08-11T14:15:22Z</time>
      </trkpt>
      <trkpt lat="42.265325" lon="1.689173">
        <ele>1925.748</ele>
        <time>2020-08-11T14:15:28Z</time>
      </trkpt>
      <trkpt lat="42.265217" lon="1.689169">
        <ele>1924.019</ele>
        <time>2020-08-11T14:15:32Z</time>
      </trkpt>
      <trkpt lat="42.265120" lon="1.689175">
        <ele>1922.442</ele>
        <time>2020-08-11T14:15:36Z</time>
      </trkpt>
      <trkpt lat="42.265028" lon="1.689163">
        <ele>1920.651</ele>
        <time>2020-08-11T14:15:40Z</time>
      </trkpt>
      <trkpt lat="42.264932" lon="1.689122">
        <ele>1918.831</ele>
        <time>2020-08-11T14:15:45Z</time>
      </trkpt>
      <trkpt lat="42.264840" lon="1.689070">
        <ele>1916.661</ele>
        <time>2020-08-11T14:15:51Z</time>
      </trkpt>
      <trkpt lat="42.264749" lon="1.689034">
        <ele>1913.907</ele>
        <time>2020-08-11T14:15:56Z</time>
      </trkpt>
      <trkpt lat="42.264655" lon="1.689037">
        <ele>1909.808</ele>
        <time>2020-08-11T14:16:05Z</time>
      </trkpt>
      <trkpt lat="42.264564" lon="1.689014">
        <ele>1905.259</ele>
        <time>2020-08-11T14:16:16Z</time>
      </trkpt>
      <trkpt lat="42.264481" lon="1.688966">
        <ele>1900.736</ele>
        <time>2020-08-11T14:16:22Z</time>
      </trkpt>
      <trkpt lat="42.264382" lon="1.688970">
        <ele>1896.653</ele>
        <time>2020-08-11T14:16:31Z</time>
      </trkpt>
      <trkpt lat="42.264285" lon="1.689024">
        <ele>1893.729</ele>
        <time>2020-08-11T14:16:37Z</time>
      </trkpt>
      <trkpt lat="42.264202" lon="1.689083">
        <ele>1891.413</ele>
        <time>2020-08-11T14:16:45Z</time>
      </trkpt>
      <trkpt lat="42.264113" lon="1.689135">
        <ele>1888.164</ele>
        <time>2020-08-11T14:16:51Z</time>
      </trkpt>
      <trkpt lat="42.264062" lon="1.689239">
        <ele>1886.917</ele>
        <time>2020-08-11T14:17:02Z</time>
      </trkpt>
      <trkpt lat="42.264002" lon="1.689355">
        <ele>1885.996</ele>
        <time>2020-08-11T14:17:20Z</time>
      </trkpt>
      <trkpt lat="42.263953" lon="1.689458">
        <ele>1885.545</ele>
        <time>2020-08-11T14:17:27Z</time>
      </trkpt>
      <trkpt lat="42.263864" lon="1.689524">
        <ele>1883.447</ele>
        <time>2020-08-11T14:17:37Z</time>
      </trkpt>
      <trkpt lat="42.263779" lon="1.689574">
        <ele>1881.711</ele>
        <time>2020-08-11T14:17:45Z</time>
      </trkpt>
      <trkpt lat="42.263685" lon="1.689627">
        <ele>1879.808</ele>
        <time>2020-08-11T14:17:51Z</time>
      </trkpt>
      <trkpt lat="42.263628" lon="1.689725">
        <ele>1879.580</ele>
        <time>2020-08-11T14:18:01Z</time>
      </trkpt>
      <trkpt lat="42.263588" lon="1.689844">
        <ele>1878.317</ele>
        <time>2020-08-11T14:18:12Z</time>
      </trkpt>
      <trkpt lat="42.263526" lon="1.689950">
        <ele>1876.754</ele>
        <time>2020-08-11T14:18:19Z</time>
      </trkpt>
      <trkpt lat="42.263462" lon="1.690043">
        <ele>1875.520</ele>
        <time>2020-08-11T14:18:28Z</time>
      </trkpt>
      <trkpt lat="42.263382" lon="1.690127">
        <ele>1874.124</ele>
        <time>2020-08-11T14:18:37Z</time>
      </trkpt>
      <trkpt lat="42.263290" lon="1.690141">
        <ele>1872.835</ele>
        <time>2020-08-11T14:18:41Z</time>
      </trkpt>
      <trkpt lat="42.263203" lon="1.690180">
        <ele>1872.588</ele>
        <time>2020-08-11T14:18:52Z</time>
      </trkpt>
      <trkpt lat="42.263108" lon="1.690192">
        <ele>1872.077</ele>
        <time>2020-08-11T14:19:56Z</time>
      </trkpt>
      <trkpt lat="42.263040" lon="1.690109">
        <ele>1871.615</ele>
        <time>2020-08-11T14:21:08Z</time>
      </trkpt>
      <trkpt lat="42.263029" lon="1.689986">
        <ele>1871.265</ele>
        <time>2020-08-11T14:21:15Z</time>
      </trkpt>
      <trkpt lat="42.263007" lon="1.689868">
        <ele>1870.411</ele>
        <time>2020-08-11T14:21:22Z</time>
      </trkpt>
      <trkpt lat="42.262971" lon="1.689744">
        <ele>1869.708</ele>
        <time>2020-08-11T14:21:30Z</time>
      </trkpt>
      <trkpt lat="42.262933" lon="1.689619">
        <ele>1868.927</ele>
        <time>2020-08-11T14:21:39Z</time>
      </trkpt>
      <trkpt lat="42.262878" lon="1.689512">
        <ele>1868.794</ele>
        <time>2020-08-11T14:21:47Z</time>
      </trkpt>
      <trkpt lat="42.262836" lon="1.689400">
        <ele>1867.951</ele>
        <time>2020-08-11T14:21:57Z</time>
      </trkpt>
      <trkpt lat="42.262773" lon="1.689308">
        <ele>1867.777</ele>
        <time>2020-08-11T14:22:04Z</time>
      </trkpt>
      <trkpt lat="42.262723" lon="1.689194">
        <ele>1866.971</ele>
        <time>2020-08-11T14:22:12Z</time>
      </trkpt>
      <trkpt lat="42.262683" lon="1.689084">
        <ele>1865.992</ele>
        <time>2020-08-11T14:22:25Z</time>
      </trkpt>
      <trkpt lat="42.262658" lon="1.688962">
        <ele>1864.325</ele>
        <time>2020-08-11T14:22:30Z</time>
      </trkpt>
      <trkpt lat="42.262605" lon="1.688844">
        <ele>1863.514</ele>
        <time>2020-08-11T14:22:37Z</time>
      </trkpt>
      <trkpt lat="42.262558" lon="1.688736">
        <ele>1862.729</ele>
        <time>2020-08-11T14:22:44Z</time>
      </trkpt>
      <trkpt lat="42.262485" lon="1.688637">
        <ele>1863.000</ele>
        <time>2020-08-11T14:22:52Z</time>
      </trkpt>
      <trkpt lat="42.262420" lon="1.688534">
        <ele>1862.820</ele>
        <time>2020-08-11T14:23:02Z</time>
      </trkpt>
      <trkpt lat="42.262368" lon="1.688418">
        <ele>1861.808</ele>
        <time>2020-08-11T14:23:09Z</time>
      </trkpt>
      <trkpt lat="42.262331" lon="1.688303">
        <ele>1860.348</ele>
        <time>2020-08-11T14:23:17Z</time>
      </trkpt>
      <trkpt lat="42.262277" lon="1.688196">
        <ele>1859.665</ele>
        <time>2020-08-11T14:23:23Z</time>
      </trkpt>
      <trkpt lat="42.262218" lon="1.688084">
        <ele>1858.772</ele>
        <time>2020-08-11T14:23:30Z</time>
      </trkpt>
      <trkpt lat="42.262144" lon="1.688002">
        <ele>1859.398</ele>
        <time>2020-08-11T14:23:37Z</time>
      </trkpt>
      <trkpt lat="42.262088" lon="1.687905">
        <ele>1859.222</ele>
        <time>2020-08-11T14:23:44Z</time>
      </trkpt>
      <trkpt lat="42.262043" lon="1.687787">
        <ele>1858.323</ele>
        <time>2020-08-11T14:23:53Z</time>
      </trkpt>
      <trkpt lat="42.261985" lon="1.687680">
        <ele>1858.196</ele>
        <time>2020-08-11T14:24:05Z</time>
      </trkpt>
      <trkpt lat="42.261957" lon="1.687554">
        <ele>1856.675</ele>
        <time>2020-08-11T14:24:13Z</time>
      </trkpt>
      <trkpt lat="42.261896" lon="1.687452">
        <ele>1856.586</ele>
        <time>2020-08-11T14:24:19Z</time>
      </trkpt>
      <trkpt lat="42.261842" lon="1.687345">
        <ele>1856.060</ele>
        <time>2020-08-11T14:24:27Z</time>
      </trkpt>
      <trkpt lat="42.261776" lon="1.687242">
        <ele>1855.626</ele>
        <time>2020-08-11T14:24:35Z</time>
      </trkpt>
      <trkpt lat="42.261711" lon="1.687139">
        <ele>1855.108</ele>
        <time>2020-08-11T14:24:43Z</time>
      </trkpt>
      <trkpt lat="42.261632" lon="1.687039">
        <ele>1855.034</ele>
        <time>2020-08-11T14:24:52Z</time>
      </trkpt>
      <trkpt lat="42.261582" lon="1.686914">
        <ele>1853.621</ele>
        <time>2020-08-11T14:25:02Z</time>
      </trkpt>
      <trkpt lat="42.261526" lon="1.686800">
        <ele>1852.798</ele>
        <time>2020-08-11T14:25:10Z</time>
      </trkpt>
      <trkpt lat="42.261465" lon="1.686710">
        <ele>1852.234</ele>
        <time>2020-08-11T14:25:18Z</time>
      </trkpt>
      <trkpt lat="42.261401" lon="1.686600">
        <ele>1851.128</ele>
        <time>2020-08-11T14:25:27Z</time>
      </trkpt>
      <trkpt lat="42.261327" lon="1.686502">
        <ele>1850.579</ele>
        <time>2020-08-11T14:25:35Z</time>
      </trkpt>
      <trkpt lat="42.261261" lon="1.686410">
        <ele>1849.432</ele>
        <time>2020-08-11T14:25:42Z</time>
      </trkpt>
      <trkpt lat="42.261181" lon="1.686329">
        <ele>1849.091</ele>
        <time>2020-08-11T14:25:52Z</time>
      </trkpt>
      <trkpt lat="42.261100" lon="1.686254">
        <ele>1848.744</ele>
        <time>2020-08-11T14:25:57Z</time>
      </trkpt>
      <trkpt lat="42.261035" lon="1.686158">
        <ele>1847.205</ele>
        <time>2020-08-11T14:26:05Z</time>
      </trkpt>
      <trkpt lat="42.260957" lon="1.686074">
        <ele>1846.615</ele>
        <time>2020-08-11T14:26:13Z</time>
      </trkpt>
      <trkpt lat="42.260881" lon="1.685990">
        <ele>1846.108</ele>
        <time>2020-08-11T14:26:24Z</time>
      </trkpt>
      <trkpt lat="42.260810" lon="1.685897">
        <ele>1845.250</ele>
        <time>2020-08-11T14:26:33Z</time>
      </trkpt>
      <trkpt lat="42.260734" lon="1.685808">
        <ele>1844.077</ele>
        <time>2020-08-11T14:26:42Z</time>
      </trkpt>
      <trkpt lat="42.260649" lon="1.685736">
        <ele>1843.484</ele>
        <time>2020-08-11T14:26:50Z</time>
      </trkpt>
      <trkpt lat="42.260562" lon="1.685659">
        <ele>1843.190</ele>
        <time>2020-08-11T14:26:58Z</time>
      </trkpt>
      <trkpt lat="42.260467" lon="1.685607">
        <ele>1841.894</ele>
        <time>2020-08-11T14:27:07Z</time>
      </trkpt>
      <trkpt lat="42.260370" lon="1.685601">
        <ele>1840.975</ele>
        <time>2020-08-11T14:27:14Z</time>
      </trkpt>
      <trkpt lat="42.260282" lon="1.685550">
        <ele>1841.128</ele>
        <time>2020-08-11T14:27:25Z</time>
      </trkpt>
      <trkpt lat="42.260193" lon="1.685519">
        <ele>1841.097</ele>
        <time>2020-08-11T14:27:46Z</time>
      </trkpt>
      <trkpt lat="42.260098" lon="1.685462">
        <ele>1841.748</ele>
        <time>2020-08-11T14:27:55Z</time>
      </trkpt>
      <trkpt lat="42.259999" lon="1.685477">
        <ele>1840.661</ele>
        <time>2020-08-11T14:28:00Z</time>
      </trkpt>
      <trkpt lat="42.259928" lon="1.685578">
        <ele>1840.017</ele>
        <time>2020-08-11T14:28:08Z</time>
      </trkpt>
      <trkpt lat="42.259871" lon="1.685680">
        <ele>1838.008</ele>
        <time>2020-08-11T14:28:16Z</time>
      </trkpt>
      <trkpt lat="42.259817" lon="1.685787">
        <ele>1835.350</ele>
        <time>2020-08-11T14:28:25Z</time>
      </trkpt>
      <trkpt lat="42.259759" lon="1.685880">
        <ele>1833.047</ele>
        <time>2020-08-11T14:28:32Z</time>
      </trkpt>
      <trkpt lat="42.259669" lon="1.685912">
        <ele>1832.784</ele>
        <time>2020-08-11T14:28:41Z</time>
      </trkpt>
      <trkpt lat="42.259573" lon="1.685924">
        <ele>1832.390</ele>
        <time>2020-08-11T14:28:50Z</time>
      </trkpt>
      <trkpt lat="42.259483" lon="1.685892">
        <ele>1833.664</ele>
        <time>2020-08-11T14:28:57Z</time>
      </trkpt>
      <trkpt lat="42.259394" lon="1.685934">
        <ele>1834.265</ele>
        <time>2020-08-11T14:29:06Z</time>
      </trkpt>
      <trkpt lat="42.259362" lon="1.686052">
        <ele>1831.568</ele>
        <time>2020-08-11T14:29:15Z</time>
      </trkpt>
      <trkpt lat="42.259337" lon="1.686172">
        <ele>1829.177</ele>
        <time>2020-08-11T14:29:20Z</time>
      </trkpt>
      <trkpt lat="42.259307" lon="1.686292">
        <ele>1827.213</ele>
        <time>2020-08-11T14:29:26Z</time>
      </trkpt>
      <trkpt lat="42.259240" lon="1.686378">
        <ele>1827.943</ele>
        <time>2020-08-11T14:29:32Z</time>
      </trkpt>
      <trkpt lat="42.259152" lon="1.686439">
        <ele>1829.207</ele>
        <time>2020-08-11T14:29:40Z</time>
      </trkpt>
      <trkpt lat="42.259070" lon="1.686507">
        <ele>1827.508</ele>
        <time>2020-08-11T14:29:51Z</time>
      </trkpt>
      <trkpt lat="42.258971" lon="1.686538">
        <ele>1827.157</ele>
        <time>2020-08-11T14:30:00Z</time>
      </trkpt>
      <trkpt lat="42.258866" lon="1.686521">
        <ele>1828.914</ele>
        <time>2020-08-11T14:30:07Z</time>
      </trkpt>
      <trkpt lat="42.258766" lon="1.686511">
        <ele>1829.581</ele>
        <time>2020-08-11T14:30:15Z</time>
      </trkpt>
      <trkpt lat="42.258671" lon="1.686490">
        <ele>1830.667</ele>
        <time>2020-08-11T14:30:22Z</time>
      </trkpt>
      <trkpt lat="42.258589" lon="1.686550">
        <ele>1829.671</ele>
        <time>2020-08-11T14:30:30Z</time>
      </trkpt>
      <trkpt lat="42.258544" lon="1.686665">
        <ele>1827.982</ele>
        <time>2020-08-11T14:30:37Z</time>
      </trkpt>
      <trkpt lat="42.258518" lon="1.686783">
        <ele>1825.835</ele>
        <time>2020-08-11T14:30:45Z</time>
      </trkpt>
      <trkpt lat="42.258477" lon="1.686898">
        <ele>1824.484</ele>
        <time>2020-08-11T14:30:53Z</time>
      </trkpt>
      <trkpt lat="42.258439" lon="1.687015">
        <ele>1822.124</ele>
        <time>2020-08-11T14:31:01Z</time>
      </trkpt>
      <trkpt lat="42.258360" lon="1.687090">
        <ele>1822.904</ele>
        <time>2020-08-11T14:31:08Z</time>
      </trkpt>
      <trkpt lat="42.258269" lon="1.687148">
        <ele>1822.014</ele>
        <time>2020-08-11T14:31:16Z</time>
      </trkpt>
      <trkpt lat="42.258181" lon="1.687210">
        <ele>1819.208</ele>
        <time>2020-08-11T14:31:38Z</time>
      </trkpt>
      <trkpt lat="42.258077" lon="1.687206">
        <ele>1819.938</ele>
        <time>2020-08-11T14:31:47Z</time>
      </trkpt>
      <trkpt lat="42.257986" lon="1.687211">
        <ele>1819.015</ele>
        <time>2020-08-11T14:31:55Z</time>
      </trkpt>
      <trkpt lat="42.257889" lon="1.687186">
        <ele>1820.222</ele>
        <time>2020-08-11T14:32:06Z</time>
      </trkpt>
      <trkpt lat="42.257828" lon="1.687290">
        <ele>1813.738</ele>
        <time>2020-08-11T14:32:17Z</time>
      </trkpt>
      <trkpt lat="42.257774" lon="1.687387">
        <ele>1810.842</ele>
        <time>2020-08-11T14:32:26Z</time>
      </trkpt>
      <trkpt lat="42.257736" lon="1.687503">
        <ele>1815.023</ele>
        <time>2020-08-11T14:32:35Z</time>
      </trkpt>
      <trkpt lat="42.257714" lon="1.687640">
        <ele>1817.726</ele>
        <time>2020-08-11T14:32:42Z</time>
      </trkpt>
      <trkpt lat="42.257714" lon="1.687783">
        <ele>1815.715</ele>
        <time>2020-08-11T14:32:50Z</time>
      </trkpt>
      <trkpt lat="42.257716" lon="1.687911">
        <ele>1816.162</ele>
        <time>2020-08-11T14:33:00Z</time>
      </trkpt>
      <trkpt lat="42.257721" lon="1.688042">
        <ele>1816.483</ele>
        <time>2020-08-11T14:33:08Z</time>
      </trkpt>
      <trkpt lat="42.257704" lon="1.688175">
        <ele>1814.611</ele>
        <time>2020-08-11T14:33:16Z</time>
      </trkpt>
      <trkpt lat="42.257658" lon="1.688282">
        <ele>1814.608</ele>
        <time>2020-08-11T14:33:21Z</time>
      </trkpt>
      <trkpt lat="42.257619" lon="1.688399">
        <ele>1812.982</ele>
        <time>2020-08-11T14:33:28Z</time>
      </trkpt>
      <trkpt lat="42.257565" lon="1.688522">
        <ele>1811.379</ele>
        <time>2020-08-11T14:33:37Z</time>
      </trkpt>
      <trkpt lat="42.257494" lon="1.688610">
        <ele>1811.466</ele>
        <time>2020-08-11T14:33:46Z</time>
      </trkpt>
      <trkpt lat="42.257426" lon="1.688696">
        <ele>1811.292</ele>
        <time>2020-08-11T14:33:52Z</time>
      </trkpt>
      <trkpt lat="42.257365" lon="1.688794">
        <ele>1810.016</ele>
        <time>2020-08-11T14:34:00Z</time>
      </trkpt>
      <trkpt lat="42.257304" lon="1.688910">
        <ele>1808.237</ele>
        <time>2020-08-11T14:34:07Z</time>
      </trkpt>
      <trkpt lat="42.257244" lon="1.689021">
        <ele>1807.960</ele>
        <time>2020-08-11T14:34:15Z</time>
      </trkpt>
      <trkpt lat="42.257183" lon="1.689123">
        <ele>1807.969</ele>
        <time>2020-08-11T14:34:23Z</time>
      </trkpt>
      <trkpt lat="42.257094" lon="1.689213">
        <ele>1808.992</ele>
        <time>2020-08-11T14:34:28Z</time>
      </trkpt>
      <trkpt lat="42.257019" lon="1.689302">
        <ele>1808.373</ele>
        <time>2020-08-11T14:34:37Z</time>
      </trkpt>
      <trkpt lat="42.256940" lon="1.689383">
        <ele>1807.520</ele>
        <time>2020-08-11T14:34:46Z</time>
      </trkpt>
      <trkpt lat="42.256885" lon="1.689482">
        <ele>1806.008</ele>
        <time>2020-08-11T14:34:52Z</time>
      </trkpt>
      <trkpt lat="42.256833" lon="1.689599">
        <ele>1805.275</ele>
        <time>2020-08-11T14:35:01Z</time>
      </trkpt>
      <trkpt lat="42.256783" lon="1.689701">
        <ele>1804.912</ele>
        <time>2020-08-11T14:35:10Z</time>
      </trkpt>
      <trkpt lat="42.256738" lon="1.689818">
        <ele>1804.539</ele>
        <time>2020-08-11T14:35:16Z</time>
      </trkpt>
      <trkpt lat="42.256695" lon="1.689924">
        <ele>1804.385</ele>
        <time>2020-08-11T14:35:23Z</time>
      </trkpt>
      <trkpt lat="42.256644" lon="1.690032">
        <ele>1804.039</ele>
        <time>2020-08-11T14:35:32Z</time>
      </trkpt>
      <trkpt lat="42.256574" lon="1.690121">
        <ele>1803.880</ele>
        <time>2020-08-11T14:35:39Z</time>
      </trkpt>
      <trkpt lat="42.256499" lon="1.690226">
        <ele>1802.693</ele>
        <time>2020-08-11T14:35:44Z</time>
      </trkpt>
      <trkpt lat="42.256414" lon="1.690285">
        <ele>1802.832</ele>
        <time>2020-08-11T14:35:52Z</time>
      </trkpt>
      <trkpt lat="42.256322" lon="1.690345">
        <ele>1802.442</ele>
        <time>2020-08-11T14:36:00Z</time>
      </trkpt>
      <trkpt lat="42.256223" lon="1.690371">
        <ele>1804.222</ele>
        <time>2020-08-11T14:36:08Z</time>
      </trkpt>
      <trkpt lat="42.256133" lon="1.690400">
        <ele>1805.714</ele>
        <time>2020-08-11T14:36:18Z</time>
      </trkpt>
      <trkpt lat="42.256053" lon="1.690460">
        <ele>1805.608</ele>
        <time>2020-08-11T14:36:29Z</time>
      </trkpt>
      <trkpt lat="42.255985" lon="1.690564">
        <ele>1804.120</ele>
        <time>2020-08-11T14:36:37Z</time>
      </trkpt>
      <trkpt lat="42.255925" lon="1.690664">
        <ele>1804.897</ele>
        <time>2020-08-11T14:36:43Z</time>
      </trkpt>
      <trkpt lat="42.255883" lon="1.690784">
        <ele>1804.714</ele>
        <time>2020-08-11T14:36:52Z</time>
      </trkpt>
      <trkpt lat="42.255854" lon="1.690905">
        <ele>1803.030</ele>
        <time>2020-08-11T14:36:58Z</time>
      </trkpt>
      <trkpt lat="42.255818" lon="1.691031">
        <ele>1800.544</ele>
        <time>2020-08-11T14:37:07Z</time>
      </trkpt>
      <trkpt lat="42.255735" lon="1.691091">
        <ele>1801.135</ele>
        <time>2020-08-11T14:37:15Z</time>
      </trkpt>
      <trkpt lat="42.255638" lon="1.691137">
        <ele>1801.928</ele>
        <time>2020-08-11T14:37:24Z</time>
      </trkpt>
      <trkpt lat="42.255547" lon="1.691187">
        <ele>1802.067</ele>
        <time>2020-08-11T14:37:32Z</time>
      </trkpt>
      <trkpt lat="42.255460" lon="1.691236">
        <ele>1803.123</ele>
        <time>2020-08-11T14:37:42Z</time>
      </trkpt>
      <trkpt lat="42.255379" lon="1.691297">
        <ele>1803.383</ele>
        <time>2020-08-11T14:37:46Z</time>
      </trkpt>
      <trkpt lat="42.255313" lon="1.691395">
        <ele>1801.211</ele>
        <time>2020-08-11T14:37:55Z</time>
      </trkpt>
      <trkpt lat="42.255262" lon="1.691539">
        <ele>1801.508</ele>
        <time>2020-08-11T14:38:03Z</time>
      </trkpt>
      <trkpt lat="42.255259" lon="1.691686">
        <ele>1799.818</ele>
        <time>2020-08-11T14:38:12Z</time>
      </trkpt>
      <trkpt lat="42.255261" lon="1.691809">
        <ele>1800.415</ele>
        <time>2020-08-11T14:38:18Z</time>
      </trkpt>
      <trkpt lat="42.255290" lon="1.691938">
        <ele>1798.992</ele>
        <time>2020-08-11T14:38:27Z</time>
      </trkpt>
      <trkpt lat="42.255306" lon="1.692083">
        <ele>1796.548</ele>
        <time>2020-08-11T14:38:34Z</time>
      </trkpt>
      <trkpt lat="42.255322" lon="1.692203">
        <ele>1794.372</ele>
        <time>2020-08-11T14:38:42Z</time>
      </trkpt>
      <trkpt lat="42.255329" lon="1.692327">
        <ele>1793.033</ele>
        <time>2020-08-11T14:38:50Z</time>
      </trkpt>
      <trkpt lat="42.255320" lon="1.692458">
        <ele>1792.986</ele>
        <time>2020-08-11T14:38:58Z</time>
      </trkpt>
      <trkpt lat="42.255286" lon="1.692582">
        <ele>1794.215</ele>
        <time>2020-08-11T14:39:07Z</time>
      </trkpt>
      <trkpt lat="42.255296" lon="1.692704">
        <ele>1791.879</ele>
        <time>2020-08-11T14:39:16Z</time>
      </trkpt>
      <trkpt lat="42.255268" lon="1.692841">
        <ele>1791.605</ele>
        <time>2020-08-11T14:39:29Z</time>
      </trkpt>
      <trkpt lat="42.255239" lon="1.692979">
        <ele>1791.225</ele>
        <time>2020-08-11T14:39:39Z</time>
      </trkpt>
      <trkpt lat="42.255236" lon="1.693109">
        <ele>1788.608</ele>
        <time>2020-08-11T14:39:47Z</time>
      </trkpt>
      <trkpt lat="42.255189" lon="1.693221">
        <ele>1789.083</ele>
        <time>2020-08-11T14:39:57Z</time>
      </trkpt>
      <trkpt lat="42.255147" lon="1.693332">
        <ele>1789.060</ele>
        <time>2020-08-11T14:40:03Z</time>
      </trkpt>
      <trkpt lat="42.255096" lon="1.693451">
        <ele>1788.147</ele>
        <time>2020-08-11T14:40:11Z</time>
      </trkpt>
      <trkpt lat="42.255031" lon="1.693558">
        <ele>1788.293</ele>
        <time>2020-08-11T14:40:19Z</time>
      </trkpt>
      <trkpt lat="42.254979" lon="1.693664">
        <ele>1788.097</ele>
        <time>2020-08-11T14:40:26Z</time>
      </trkpt>
      <trkpt lat="42.254928" lon="1.693783">
        <ele>1788.158</ele>
        <time>2020-08-11T14:40:35Z</time>
      </trkpt>
      <trkpt lat="42.254876" lon="1.693888">
        <ele>1788.591</ele>
        <time>2020-08-11T14:40:44Z</time>
      </trkpt>
      <trkpt lat="42.254818" lon="1.694001">
        <ele>1787.910</ele>
        <time>2020-08-11T14:40:53Z</time>
      </trkpt>
      <trkpt lat="42.254766" lon="1.694102">
        <ele>1787.082</ele>
        <time>2020-08-11T14:41:00Z</time>
      </trkpt>
      <trkpt lat="42.254712" lon="1.694210">
        <ele>1785.943</ele>
        <time>2020-08-11T14:41:10Z</time>
      </trkpt>
      <trkpt lat="42.254672" lon="1.694320">
        <ele>1783.817</ele>
        <time>2020-08-11T14:41:18Z</time>
      </trkpt>
      <trkpt lat="42.254630" lon="1.694433">
        <ele>1780.908</ele>
        <time>2020-08-11T14:41:27Z</time>
      </trkpt>
      <trkpt lat="42.254562" lon="1.694528">
        <ele>1779.924</ele>
        <time>2020-08-11T14:41:35Z</time>
      </trkpt>
      <trkpt lat="42.254476" lon="1.694582">
        <ele>1781.141</ele>
        <time>2020-08-11T14:41:43Z</time>
      </trkpt>
      <trkpt lat="42.254378" lon="1.694610">
        <ele>1782.238</ele>
        <time>2020-08-11T14:41:51Z</time>
      </trkpt>
      <trkpt lat="42.254274" lon="1.694643">
        <ele>1782.434</ele>
        <time>2020-08-11T14:41:56Z</time>
      </trkpt>
      <trkpt lat="42.254187" lon="1.694716">
        <ele>1779.948</ele>
        <time>2020-08-11T14:42:06Z</time>
      </trkpt>
      <trkpt lat="42.254120" lon="1.694797">
        <ele>1778.159</ele>
        <time>2020-08-11T14:42:13Z</time>
      </trkpt>
      <trkpt lat="42.254031" lon="1.694863">
        <ele>1779.392</ele>
        <time>2020-08-11T14:42:22Z</time>
      </trkpt>
      <trkpt lat="42.253967" lon="1.694948">
        <ele>1779.231</ele>
        <time>2020-08-11T14:42:31Z</time>
      </trkpt>
      <trkpt lat="42.253927" lon="1.695065">
        <ele>1779.493</ele>
        <time>2020-08-11T14:42:38Z</time>
      </trkpt>
      <trkpt lat="42.253936" lon="1.695187">
        <ele>1778.265</ele>
        <time>2020-08-11T14:42:48Z</time>
      </trkpt>
      <trkpt lat="42.253959" lon="1.695305">
        <ele>1776.221</ele>
        <time>2020-08-11T14:42:57Z</time>
      </trkpt>
      <trkpt lat="42.253997" lon="1.695418">
        <ele>1775.208</ele>
        <time>2020-08-11T14:43:05Z</time>
      </trkpt>
      <trkpt lat="42.254033" lon="1.695531">
        <ele>1774.555</ele>
        <time>2020-08-11T14:43:13Z</time>
      </trkpt>
      <trkpt lat="42.254065" lon="1.695652">
        <ele>1773.092</ele>
        <time>2020-08-11T14:43:22Z</time>
      </trkpt>
      <trkpt lat="42.254061" lon="1.695775">
        <ele>1774.029</ele>
        <time>2020-08-11T14:43:32Z</time>
      </trkpt>
      <trkpt lat="42.254036" lon="1.695900">
        <ele>1775.575</ele>
        <time>2020-08-11T14:43:39Z</time>
      </trkpt>
      <trkpt lat="42.254033" lon="1.696032">
        <ele>1774.159</ele>
        <time>2020-08-11T14:43:48Z</time>
      </trkpt>
      <trkpt lat="42.254020" lon="1.696153">
        <ele>1773.830</ele>
        <time>2020-08-11T14:43:57Z</time>
      </trkpt>
      <trkpt lat="42.254014" lon="1.696285">
        <ele>1773.313</ele>
        <time>2020-08-11T14:44:05Z</time>
      </trkpt>
      <trkpt lat="42.254007" lon="1.696416">
        <ele>1772.642</ele>
        <time>2020-08-11T14:44:14Z</time>
      </trkpt>
      <trkpt lat="42.253990" lon="1.696544">
        <ele>1771.393</ele>
        <time>2020-08-11T14:44:22Z</time>
      </trkpt>
      <trkpt lat="42.253936" lon="1.696655">
        <ele>1772.465</ele>
        <time>2020-08-11T14:44:29Z</time>
      </trkpt>
      <trkpt lat="42.253856" lon="1.696741">
        <ele>1774.221</ele>
        <time>2020-08-11T14:44:37Z</time>
      </trkpt>
      <trkpt lat="42.253796" lon="1.696855">
        <ele>1773.808</ele>
        <time>2020-08-11T14:44:47Z</time>
      </trkpt>
      <trkpt lat="42.253751" lon="1.696962">
        <ele>1772.885</ele>
        <time>2020-08-11T14:44:53Z</time>
      </trkpt>
      <trkpt lat="42.253712" lon="1.697079">
        <ele>1771.132</ele>
        <time>2020-08-11T14:45:00Z</time>
      </trkpt>
      <trkpt lat="42.253645" lon="1.697194">
        <ele>1771.689</ele>
        <time>2020-08-11T14:45:08Z</time>
      </trkpt>
      <trkpt lat="42.253604" lon="1.697310">
        <ele>1769.625</ele>
        <time>2020-08-11T14:45:15Z</time>
      </trkpt>
      <trkpt lat="42.253524" lon="1.697386">
        <ele>1770.419</ele>
        <time>2020-08-11T14:45:23Z</time>
      </trkpt>
      <trkpt lat="42.253435" lon="1.697451">
        <ele>1771.760</ele>
        <time>2020-08-11T14:45:30Z</time>
      </trkpt>
      <trkpt lat="42.253342" lon="1.697495">
        <ele>1773.993</ele>
        <time>2020-08-11T14:45:38Z</time>
      </trkpt>
      <trkpt lat="42.253269" lon="1.697578">
        <ele>1775.912</ele>
        <time>2020-08-11T14:45:45Z</time>
      </trkpt>
      <trkpt lat="42.253200" lon="1.697661">
        <ele>1777.645</ele>
        <time>2020-08-11T14:45:54Z</time>
      </trkpt>
      <trkpt lat="42.253151" lon="1.697776">
        <ele>1775.547</ele>
        <time>2020-08-11T14:46:02Z</time>
      </trkpt>
      <trkpt lat="42.253080" lon="1.697863">
        <ele>1776.111</ele>
        <time>2020-08-11T14:46:09Z</time>
      </trkpt>
      <trkpt lat="42.253034" lon="1.697976">
        <ele>1771.508</ele>
        <time>2020-08-11T14:46:17Z</time>
      </trkpt>
      <trkpt lat="42.252978" lon="1.698088">
        <ele>1765.330</ele>
        <time>2020-08-11T14:46:22Z</time>
      </trkpt>
      <trkpt lat="42.252891" lon="1.698150">
        <ele>1762.377</ele>
        <time>2020-08-11T14:46:32Z</time>
      </trkpt>
      <trkpt lat="42.252800" lon="1.698091">
        <ele>1765.394</ele>
        <time>2020-08-11T14:46:42Z</time>
      </trkpt>
      <trkpt lat="42.252711" lon="1.698053">
        <ele>1764.530</ele>
        <time>2020-08-11T14:46:47Z</time>
      </trkpt>
      <trkpt lat="42.252616" lon="1.698027">
        <ele>1761.984</ele>
        <time>2020-08-11T14:46:52Z</time>
      </trkpt>
      <trkpt lat="42.252511" lon="1.698011">
        <ele>1758.565</ele>
        <time>2020-08-11T14:47:02Z</time>
      </trkpt>
      <trkpt lat="42.252425" lon="1.697966">
        <ele>1760.168</ele>
        <time>2020-08-11T14:47:13Z</time>
      </trkpt>
      <trkpt lat="42.252324" lon="1.697993">
        <ele>1758.637</ele>
        <time>2020-08-11T14:47:19Z</time>
      </trkpt>
      <trkpt lat="42.252242" lon="1.698074">
        <ele>1754.016</ele>
        <time>2020-08-11T14:47:29Z</time>
      </trkpt>
      <trkpt lat="42.252148" lon="1.698067">
        <ele>1753.576</ele>
        <time>2020-08-11T14:47:33Z</time>
      </trkpt>
      <trkpt lat="42.252059" lon="1.697985">
        <ele>1757.213</ele>
        <time>2020-08-11T14:47:44Z</time>
      </trkpt>
      <trkpt lat="42.251963" lon="1.698006">
        <ele>1755.008</ele>
        <time>2020-08-11T14:47:48Z</time>
      </trkpt>
      <trkpt lat="42.251873" lon="1.698035">
        <ele>1754.337</ele>
        <time>2020-08-11T14:47:58Z</time>
      </trkpt>
      <trkpt lat="42.251768" lon="1.698086">
        <ele>1752.824</ele>
        <time>2020-08-11T14:48:06Z</time>
      </trkpt>
      <trkpt lat="42.251686" lon="1.698151">
        <ele>1750.561</ele>
        <time>2020-08-11T14:48:13Z</time>
      </trkpt>
      <trkpt lat="42.251580" lon="1.698178">
        <ele>1751.677</ele>
        <time>2020-08-11T14:48:19Z</time>
      </trkpt>
      <trkpt lat="42.251489" lon="1.698213">
        <ele>1752.571</ele>
        <time>2020-08-11T14:48:28Z</time>
      </trkpt>
      <trkpt lat="42.251390" lon="1.698254">
        <ele>1753.822</ele>
        <time>2020-08-11T14:48:36Z</time>
      </trkpt>
      <trkpt lat="42.251307" lon="1.698336">
        <ele>1758.575</ele>
        <time>2020-08-11T14:48:48Z</time>
      </trkpt>
      <trkpt lat="42.251381" lon="1.698406">
        <ele>1754.114</ele>
        <time>2020-08-11T14:49:07Z</time>
      </trkpt>
      <trkpt lat="42.251405" lon="1.698256">
        <ele>1753.323</ele>
        <time>2020-08-11T14:49:22Z</time>
      </trkpt>
      <trkpt lat="42.251311" lon="1.698306">
        <ele>1758.683</ele>
        <time>2020-08-11T14:49:37Z</time>
      </trkpt>
      <trkpt lat="42.251331" lon="1.698185">
        <ele>1759.811</ele>
        <time>2020-08-11T14:50:28Z</time>
      </trkpt>
      <trkpt lat="42.251306" lon="1.698304">
        <ele>1759.008</ele>
        <time>2020-08-11T14:51:53Z</time>
      </trkpt>
      <trkpt lat="42.251403" lon="1.698170">
        <ele>1756.568</ele>
        <time>2020-08-11T14:52:42Z</time>
      </trkpt>
      <trkpt lat="42.251395" lon="1.698034">
        <ele>1762.455</ele>
        <time>2020-08-11T14:52:51Z</time>
      </trkpt>
      <trkpt lat="42.251406" lon="1.698157">
        <ele>1756.992</ele>
        <time>2020-08-11T14:52:56Z</time>
      </trkpt>
      <trkpt lat="42.251387" lon="1.698284">
        <ele>1752.918</ele>
        <time>2020-08-11T14:53:27Z</time>
      </trkpt>
      <trkpt lat="42.251499" lon="1.698335">
        <ele>1747.142</ele>
        <time>2020-08-11T14:53:55Z</time>
      </trkpt>
      <trkpt lat="42.251515" lon="1.698460">
        <ele>1748.343</ele>
        <time>2020-08-11T14:54:14Z</time>
      </trkpt>
      <trkpt lat="42.251560" lon="1.698595">
        <ele>1746.916</ele>
        <time>2020-08-11T14:54:27Z</time>
      </trkpt>
      <trkpt lat="42.251585" lon="1.698714">
        <ele>1748.365</ele>
        <time>2020-08-11T14:54:35Z</time>
      </trkpt>
      <trkpt lat="42.251651" lon="1.698799">
        <ele>1745.174</ele>
        <time>2020-08-11T14:54:40Z</time>
      </trkpt>
      <trkpt lat="42.251680" lon="1.698929">
        <ele>1744.456</ele>
        <time>2020-08-11T14:54:48Z</time>
      </trkpt>
      <trkpt lat="42.251671" lon="1.699057">
        <ele>1743.821</ele>
        <time>2020-08-11T14:54:55Z</time>
      </trkpt>
      <trkpt lat="42.251678" lon="1.699187">
        <ele>1742.208</ele>
        <time>2020-08-11T14:55:02Z</time>
      </trkpt>
      <trkpt lat="42.251658" lon="1.699306">
        <ele>1744.333</ele>
        <time>2020-08-11T14:55:08Z</time>
      </trkpt>
      <trkpt lat="42.251663" lon="1.699436">
        <ele>1744.370</ele>
        <time>2020-08-11T14:55:16Z</time>
      </trkpt>
      <trkpt lat="42.251658" lon="1.699563">
        <ele>1743.187</ele>
        <time>2020-08-11T14:55:22Z</time>
      </trkpt>
      <trkpt lat="42.251623" lon="1.699696">
        <ele>1745.053</ele>
        <time>2020-08-11T14:55:30Z</time>
      </trkpt>
      <trkpt lat="42.251601" lon="1.699832">
        <ele>1750.177</ele>
        <time>2020-08-11T14:55:39Z</time>
      </trkpt>
      <trkpt lat="42.251688" lon="1.699880">
        <ele>1744.448</ele>
        <time>2020-08-11T14:55:42Z</time>
      </trkpt>
      <trkpt lat="42.251746" lon="1.699977">
        <ele>1744.331</ele>
        <time>2020-08-11T14:55:49Z</time>
      </trkpt>
      <trkpt lat="42.251739" lon="1.700107">
        <ele>1749.180</ele>
        <time>2020-08-11T14:55:59Z</time>
      </trkpt>
      <trkpt lat="42.251759" lon="1.700230">
        <ele>1752.125</ele>
        <time>2020-08-11T14:56:08Z</time>
      </trkpt>
      <trkpt lat="42.251807" lon="1.700337">
        <ele>1753.426</ele>
        <time>2020-08-11T14:56:15Z</time>
      </trkpt>
      <trkpt lat="42.251863" lon="1.700433">
        <ele>1754.008</ele>
        <time>2020-08-11T14:56:24Z</time>
      </trkpt>
      <trkpt lat="42.251939" lon="1.700516">
        <ele>1752.808</ele>
        <time>2020-08-11T14:56:33Z</time>
      </trkpt>
      <trkpt lat="42.252014" lon="1.700608">
        <ele>1753.448</ele>
        <time>2020-08-11T14:56:43Z</time>
      </trkpt>
      <trkpt lat="42.252091" lon="1.700672">
        <ele>1752.575</ele>
        <time>2020-08-11T14:56:50Z</time>
      </trkpt>
      <trkpt lat="42.252125" lon="1.700800">
        <ele>1754.912</ele>
        <time>2020-08-11T14:56:59Z</time>
      </trkpt>
      <trkpt lat="42.252112" lon="1.700930">
        <ele>1756.948</ele>
        <time>2020-08-11T14:57:08Z</time>
      </trkpt>
      <trkpt lat="42.252090" lon="1.701053">
        <ele>1758.862</ele>
        <time>2020-08-11T14:57:16Z</time>
      </trkpt>
      <trkpt lat="42.252071" lon="1.701173">
        <ele>1759.273</ele>
        <time>2020-08-11T14:57:23Z</time>
      </trkpt>
      <trkpt lat="42.252046" lon="1.701295">
        <ele>1758.916</ele>
        <time>2020-08-11T14:57:29Z</time>
      </trkpt>
      <trkpt lat="42.252014" lon="1.701413">
        <ele>1759.545</ele>
        <time>2020-08-11T14:57:35Z</time>
      </trkpt>
      <trkpt lat="42.252045" lon="1.701552">
        <ele>1756.385</ele>
        <time>2020-08-11T14:57:45Z</time>
      </trkpt>
      <trkpt lat="42.252087" lon="1.701662">
        <ele>1752.889</ele>
        <time>2020-08-11T14:57:50Z</time>
      </trkpt>
      <trkpt lat="42.252113" lon="1.701785">
        <ele>1754.717</ele>
        <time>2020-08-11T14:57:57Z</time>
      </trkpt>
      <trkpt lat="42.252120" lon="1.701917">
        <ele>1758.408</ele>
        <time>2020-08-11T14:58:06Z</time>
      </trkpt>
      <trkpt lat="42.252161" lon="1.702029">
        <ele>1760.944</ele>
        <time>2020-08-11T14:58:14Z</time>
      </trkpt>
      <trkpt lat="42.252210" lon="1.702136">
        <ele>1762.871</ele>
        <time>2020-08-11T14:58:24Z</time>
      </trkpt>
      <trkpt lat="42.252272" lon="1.702228">
        <ele>1764.358</ele>
        <time>2020-08-11T14:58:34Z</time>
      </trkpt>
      <trkpt lat="42.252347" lon="1.702322">
        <ele>1765.694</ele>
        <time>2020-08-11T14:58:44Z</time>
      </trkpt>
      <trkpt lat="42.252394" lon="1.702431">
        <ele>1768.198</ele>
        <time>2020-08-11T14:58:51Z</time>
      </trkpt>
      <trkpt lat="42.252475" lon="1.702522">
        <ele>1767.319</ele>
        <time>2020-08-11T14:59:00Z</time>
      </trkpt>
      <trkpt lat="42.252538" lon="1.702618">
        <ele>1767.792</ele>
        <time>2020-08-11T14:59:09Z</time>
      </trkpt>
      <trkpt lat="42.252619" lon="1.702693">
        <ele>1767.141</ele>
        <time>2020-08-11T14:59:17Z</time>
      </trkpt>
      <trkpt lat="42.252652" lon="1.702821">
        <ele>1769.478</ele>
        <time>2020-08-11T14:59:25Z</time>
      </trkpt>
      <trkpt lat="42.252719" lon="1.702933">
        <ele>1767.033</ele>
        <time>2020-08-11T14:59:34Z</time>
      </trkpt>
      <trkpt lat="42.252713" lon="1.703061">
        <ele>1767.926</ele>
        <time>2020-08-11T14:59:44Z</time>
      </trkpt>
      <trkpt lat="42.252743" lon="1.703185">
        <ele>1765.108</ele>
        <time>2020-08-11T14:59:51Z</time>
      </trkpt>
      <trkpt lat="42.252699" lon="1.703297">
        <ele>1766.893</ele>
        <time>2020-08-11T15:00:00Z</time>
      </trkpt>
      <trkpt lat="42.252670" lon="1.703430">
        <ele>1767.730</ele>
        <time>2020-08-11T15:00:05Z</time>
      </trkpt>
      <trkpt lat="42.252644" lon="1.703557">
        <ele>1768.287</ele>
        <time>2020-08-11T15:00:14Z</time>
      </trkpt>
      <trkpt lat="42.252613" lon="1.703691">
        <ele>1769.233</ele>
        <time>2020-08-11T15:00:22Z</time>
      </trkpt>
      <trkpt lat="42.252544" lon="1.703788">
        <ele>1770.157</ele>
        <time>2020-08-11T15:00:29Z</time>
      </trkpt>
      <trkpt lat="42.252470" lon="1.703871">
        <ele>1769.388</ele>
        <time>2020-08-11T15:00:34Z</time>
      </trkpt>
      <trkpt lat="42.252385" lon="1.703921">
        <ele>1768.341</ele>
        <time>2020-08-11T15:00:40Z</time>
      </trkpt>
      <trkpt lat="42.252287" lon="1.703964">
        <ele>1766.460</ele>
        <time>2020-08-11T15:00:49Z</time>
      </trkpt>
      <trkpt lat="42.252191" lon="1.703999">
        <ele>1764.463</ele>
        <time>2020-08-11T15:00:56Z</time>
      </trkpt>
      <trkpt lat="42.252099" lon="1.704025">
        <ele>1763.644</ele>
        <time>2020-08-11T15:01:04Z</time>
      </trkpt>
      <trkpt lat="42.252014" lon="1.704064">
        <ele>1761.818</ele>
        <time>2020-08-11T15:01:09Z</time>
      </trkpt>
      <trkpt lat="42.251924" lon="1.704069">
        <ele>1761.608</ele>
        <time>2020-08-11T15:01:16Z</time>
      </trkpt>
      <trkpt lat="42.251828" lon="1.704101">
        <ele>1759.522</ele>
        <time>2020-08-11T15:01:24Z</time>
      </trkpt>
      <trkpt lat="42.251731" lon="1.704128">
        <ele>1757.699</ele>
        <time>2020-08-11T15:01:32Z</time>
      </trkpt>
      <trkpt lat="42.251631" lon="1.704137">
        <ele>1757.686</ele>
        <time>2020-08-11T15:01:40Z</time>
      </trkpt>
      <trkpt lat="42.251540" lon="1.704153">
        <ele>1758.672</ele>
        <time>2020-08-11T15:01:47Z</time>
      </trkpt>
      <trkpt lat="42.251461" lon="1.704215">
        <ele>1756.856</ele>
        <time>2020-08-11T15:01:55Z</time>
      </trkpt>
      <trkpt lat="42.251390" lon="1.704299">
        <ele>1754.397</ele>
        <time>2020-08-11T15:02:02Z</time>
      </trkpt>
      <trkpt lat="42.251305" lon="1.704359">
        <ele>1753.610</ele>
        <time>2020-08-11T15:02:11Z</time>
      </trkpt>
      <trkpt lat="42.251208" lon="1.704415">
        <ele>1753.219</ele>
        <time>2020-08-11T15:02:19Z</time>
      </trkpt>
      <trkpt lat="42.251105" lon="1.704442">
        <ele>1754.275</ele>
        <time>2020-08-11T15:02:27Z</time>
      </trkpt>
      <trkpt lat="42.251011" lon="1.704469">
        <ele>1753.428</ele>
        <time>2020-08-11T15:02:34Z</time>
      </trkpt>
      <trkpt lat="42.250908" lon="1.704524">
        <ele>1751.420</ele>
        <time>2020-08-11T15:02:42Z</time>
      </trkpt>
      <trkpt lat="42.250818" lon="1.704573">
        <ele>1749.708</ele>
        <time>2020-08-11T15:02:51Z</time>
      </trkpt>
      <trkpt lat="42.250733" lon="1.704660">
        <ele>1745.933</ele>
        <time>2020-08-11T15:02:57Z</time>
      </trkpt>
      <trkpt lat="42.250639" lon="1.704679">
        <ele>1745.770</ele>
        <time>2020-08-11T15:03:15Z</time>
      </trkpt>
      <trkpt lat="42.250541" lon="1.704660">
        <ele>1747.027</ele>
        <time>2020-08-11T15:03:24Z</time>
      </trkpt>
      <trkpt lat="42.250451" lon="1.704662">
        <ele>1744.643</ele>
        <time>2020-08-11T15:03:32Z</time>
      </trkpt>
      <trkpt lat="42.250352" lon="1.704671">
        <ele>1741.637</ele>
        <time>2020-08-11T15:03:37Z</time>
      </trkpt>
      <trkpt lat="42.250254" lon="1.704681">
        <ele>1739.588</ele>
        <time>2020-08-11T15:03:46Z</time>
      </trkpt>
      <trkpt lat="42.250154" lon="1.704692">
        <ele>1740.131</ele>
        <time>2020-08-11T15:03:54Z</time>
      </trkpt>
      <trkpt lat="42.250058" lon="1.704726">
        <ele>1739.110</ele>
        <time>2020-08-11T15:04:01Z</time>
      </trkpt>
      <trkpt lat="42.249973" lon="1.704783">
        <ele>1737.095</ele>
        <time>2020-08-11T15:04:09Z</time>
      </trkpt>
      <trkpt lat="42.249881" lon="1.704821">
        <ele>1737.449</ele>
        <time>2020-08-11T15:04:14Z</time>
      </trkpt>
      <trkpt lat="42.249806" lon="1.704896">
        <ele>1735.623</ele>
        <time>2020-08-11T15:04:25Z</time>
      </trkpt>
      <trkpt lat="42.249720" lon="1.704958">
        <ele>1735.208</ele>
        <time>2020-08-11T15:04:32Z</time>
      </trkpt>
      <trkpt lat="42.249626" lon="1.705028">
        <ele>1733.155</ele>
        <time>2020-08-11T15:04:41Z</time>
      </trkpt>
      <trkpt lat="42.249524" lon="1.705085">
        <ele>1731.662</ele>
        <time>2020-08-11T15:04:50Z</time>
      </trkpt>
      <trkpt lat="42.249438" lon="1.705142">
        <ele>1729.949</ele>
        <time>2020-08-11T15:04:57Z</time>
      </trkpt>
      <trkpt lat="42.249343" lon="1.705164">
        <ele>1729.685</ele>
        <time>2020-08-11T15:05:02Z</time>
      </trkpt>
      <trkpt lat="42.249253" lon="1.705190">
        <ele>1729.169</ele>
        <time>2020-08-11T15:05:09Z</time>
      </trkpt>
      <trkpt lat="42.249165" lon="1.705228">
        <ele>1727.980</ele>
        <time>2020-08-11T15:05:17Z</time>
      </trkpt>
      <trkpt lat="42.249086" lon="1.705283">
        <ele>1727.323</ele>
        <time>2020-08-11T15:05:25Z</time>
      </trkpt>
      <trkpt lat="42.248996" lon="1.705334">
        <ele>1727.592</ele>
        <time>2020-08-11T15:05:34Z</time>
      </trkpt>
      <trkpt lat="42.248906" lon="1.705383">
        <ele>1729.074</ele>
        <time>2020-08-11T15:05:44Z</time>
      </trkpt>
      <trkpt lat="42.248817" lon="1.705438">
        <ele>1734.156</ele>
        <time>2020-08-11T15:06:02Z</time>
      </trkpt>
      <trkpt lat="42.248893" lon="1.705361">
        <ele>1730.521</ele>
        <time>2020-08-11T15:06:22Z</time>
      </trkpt>
      <trkpt lat="42.248809" lon="1.705296">
        <ele>1738.408</ele>
        <time>2020-08-11T15:07:04Z</time>
      </trkpt>
      <trkpt lat="42.248867" lon="1.705400">
        <ele>1731.073</ele>
        <time>2020-08-11T15:07:22Z</time>
      </trkpt>
      <trkpt lat="42.248835" lon="1.705517">
        <ele>1730.260</ele>
        <time>2020-08-11T15:07:42Z</time>
      </trkpt>
      <trkpt lat="42.248794" lon="1.705634">
        <ele>1733.897</ele>
        <time>2020-08-11T15:08:07Z</time>
      </trkpt>
      <trkpt lat="42.248786" lon="1.705755">
        <ele>1734.943</ele>
        <time>2020-08-11T15:08:14Z</time>
      </trkpt>
      <trkpt lat="42.248796" lon="1.705878">
        <ele>1733.057</ele>
        <time>2020-08-11T15:08:22Z</time>
      </trkpt>
      <trkpt lat="42.248797" lon="1.706016">
        <ele>1729.858</ele>
        <time>2020-08-11T15:08:27Z</time>
      </trkpt>
      <trkpt lat="42.248793" lon="1.706140">
        <ele>1726.821</ele>
        <time>2020-08-11T15:08:38Z</time>
      </trkpt>
      <trkpt lat="42.248753" lon="1.706269">
        <ele>1724.320</ele>
        <time>2020-08-11T15:08:46Z</time>
      </trkpt>
      <trkpt lat="42.248696" lon="1.706363">
        <ele>1723.679</ele>
        <time>2020-08-11T15:08:50Z</time>
      </trkpt>
      <trkpt lat="42.248643" lon="1.706464">
        <ele>1722.505</ele>
        <time>2020-08-11T15:08:58Z</time>
      </trkpt>
      <trkpt lat="42.248574" lon="1.706574">
        <ele>1723.425</ele>
        <time>2020-08-11T15:09:03Z</time>
      </trkpt>
      <trkpt lat="42.248553" lon="1.706697">
        <ele>1721.608</ele>
        <time>2020-08-11T15:09:11Z</time>
      </trkpt>
      <trkpt lat="42.248536" lon="1.706820">
        <ele>1721.483</ele>
        <time>2020-08-11T15:09:20Z</time>
      </trkpt>
      <trkpt lat="42.248505" lon="1.706953">
        <ele>1721.740</ele>
        <time>2020-08-11T15:09:28Z</time>
      </trkpt>
      <trkpt lat="42.248468" lon="1.707078">
        <ele>1719.767</ele>
        <time>2020-08-11T15:09:37Z</time>
      </trkpt>
      <trkpt lat="42.248446" lon="1.707209">
        <ele>1715.913</ele>
        <time>2020-08-11T15:09:45Z</time>
      </trkpt>
      <trkpt lat="42.248392" lon="1.707314">
        <ele>1713.827</ele>
        <time>2020-08-11T15:09:57Z</time>
      </trkpt>
      <trkpt lat="42.248295" lon="1.707384">
        <ele>1713.558</ele>
        <time>2020-08-11T15:10:04Z</time>
      </trkpt>
      <trkpt lat="42.248227" lon="1.707468">
        <ele>1709.931</ele>
        <time>2020-08-11T15:10:13Z</time>
      </trkpt>
      <trkpt lat="42.248136" lon="1.707460">
        <ele>1711.630</ele>
        <time>2020-08-11T15:10:18Z</time>
      </trkpt>
      <trkpt lat="42.248037" lon="1.707486">
        <ele>1711.039</ele>
        <time>2020-08-11T15:10:28Z</time>
      </trkpt>
      <trkpt lat="42.247957" lon="1.707560">
        <ele>1706.701</ele>
        <time>2020-08-11T15:10:35Z</time>
      </trkpt>
      <trkpt lat="42.247866" lon="1.707594">
        <ele>1704.921</ele>
        <time>2020-08-11T15:10:42Z</time>
      </trkpt>
      <trkpt lat="42.247766" lon="1.707620">
        <ele>1703.808</ele>
        <time>2020-08-11T15:10:50Z</time>
      </trkpt>
      <trkpt lat="42.247675" lon="1.707644">
        <ele>1703.579</ele>
        <time>2020-08-11T15:10:57Z</time>
      </trkpt>
      <trkpt lat="42.247581" lon="1.707649">
        <ele>1704.376</ele>
        <time>2020-08-11T15:11:04Z</time>
      </trkpt>
      <trkpt lat="42.247500" lon="1.707714">
        <ele>1701.113</ele>
        <time>2020-08-11T15:11:11Z</time>
      </trkpt>
      <trkpt lat="42.247412" lon="1.707751">
        <ele>1701.069</ele>
        <time>2020-08-11T15:11:19Z</time>
      </trkpt>
      <trkpt lat="42.247314" lon="1.707784">
        <ele>1701.483</ele>
        <time>2020-08-11T15:11:33Z</time>
      </trkpt>
      <trkpt lat="42.247248" lon="1.707875">
        <ele>1698.694</ele>
        <time>2020-08-11T15:11:40Z</time>
      </trkpt>
      <trkpt lat="42.247174" lon="1.707982">
        <ele>1697.367</ele>
        <time>2020-08-11T15:11:45Z</time>
      </trkpt>
      <trkpt lat="42.247119" lon="1.708086">
        <ele>1695.066</ele>
        <time>2020-08-11T15:11:54Z</time>
      </trkpt>
      <trkpt lat="42.247068" lon="1.708194">
        <ele>1692.169</ele>
        <time>2020-08-11T15:12:02Z</time>
      </trkpt>
      <trkpt lat="42.247000" lon="1.708283">
        <ele>1690.904</ele>
        <time>2020-08-11T15:12:09Z</time>
      </trkpt>
      <trkpt lat="42.246920" lon="1.708351">
        <ele>1689.724</ele>
        <time>2020-08-11T15:12:15Z</time>
      </trkpt>
      <trkpt lat="42.246825" lon="1.708381">
        <ele>1687.508</ele>
        <time>2020-08-11T15:12:24Z</time>
      </trkpt>
      <trkpt lat="42.246728" lon="1.708366">
        <ele>1688.222</ele>
        <time>2020-08-11T15:12:34Z</time>
      </trkpt>
      <trkpt lat="42.246636" lon="1.708393">
        <ele>1686.689</ele>
        <time>2020-08-11T15:12:44Z</time>
      </trkpt>
      <trkpt lat="42.246526" lon="1.708365">
        <ele>1689.186</ele>
        <time>2020-08-11T15:12:49Z</time>
      </trkpt>
      <trkpt lat="42.246444" lon="1.708427">
        <ele>1686.132</ele>
        <time>2020-08-11T15:12:57Z</time>
      </trkpt>
      <trkpt lat="42.246350" lon="1.708475">
        <ele>1684.856</ele>
        <time>2020-08-11T15:13:05Z</time>
      </trkpt>
      <trkpt lat="42.246271" lon="1.708556">
        <ele>1681.977</ele>
        <time>2020-08-11T15:13:11Z</time>
      </trkpt>
      <trkpt lat="42.246173" lon="1.708631">
        <ele>1679.560</ele>
        <time>2020-08-11T15:13:20Z</time>
      </trkpt>
      <trkpt lat="42.246108" lon="1.708722">
        <ele>1675.599</ele>
        <time>2020-08-11T15:13:30Z</time>
      </trkpt>
      <trkpt lat="42.246023" lon="1.708768">
        <ele>1670.944</ele>
        <time>2020-08-11T15:13:41Z</time>
      </trkpt>
      <trkpt lat="42.245940" lon="1.708712">
        <ele>1672.305</ele>
        <time>2020-08-11T15:13:45Z</time>
      </trkpt>
      <trkpt lat="42.245844" lon="1.708693">
        <ele>1671.215</ele>
        <time>2020-08-11T15:13:52Z</time>
      </trkpt>
      <trkpt lat="42.245753" lon="1.708666">
        <ele>1671.708</ele>
        <time>2020-08-11T15:14:00Z</time>
      </trkpt>
      <trkpt lat="42.245669" lon="1.708615">
        <ele>1672.920</ele>
        <time>2020-08-11T15:14:06Z</time>
      </trkpt>
      <trkpt lat="42.245566" lon="1.708607">
        <ele>1671.477</ele>
        <time>2020-08-11T15:14:15Z</time>
      </trkpt>
      <trkpt lat="42.245478" lon="1.708676">
        <ele>1674.584</ele>
        <time>2020-08-11T15:14:22Z</time>
      </trkpt>
      <trkpt lat="42.245448" lon="1.708796">
        <ele>1672.860</ele>
        <time>2020-08-11T15:14:30Z</time>
      </trkpt>
      <trkpt lat="42.245432" lon="1.708922">
        <ele>1670.324</ele>
        <time>2020-08-11T15:14:36Z</time>
      </trkpt>
      <trkpt lat="42.245396" lon="1.709035">
        <ele>1670.525</ele>
        <time>2020-08-11T15:14:46Z</time>
      </trkpt>
      <trkpt lat="42.245373" lon="1.709155">
        <ele>1669.458</ele>
        <time>2020-08-11T15:14:51Z</time>
      </trkpt>
      <trkpt lat="42.245372" lon="1.709291">
        <ele>1664.977</ele>
        <time>2020-08-11T15:14:58Z</time>
      </trkpt>
      <trkpt lat="42.245324" lon="1.709397">
        <ele>1662.882</ele>
        <time>2020-08-11T15:15:08Z</time>
      </trkpt>
      <trkpt lat="42.245232" lon="1.709425">
        <ele>1664.143</ele>
        <time>2020-08-11T15:15:18Z</time>
      </trkpt>
      <trkpt lat="42.245140" lon="1.709435">
        <ele>1665.917</ele>
        <time>2020-08-11T15:15:25Z</time>
      </trkpt>
      <trkpt lat="42.245086" lon="1.709542">
        <ele>1665.608</ele>
        <time>2020-08-11T15:15:46Z</time>
      </trkpt>
      <trkpt lat="42.244996" lon="1.709532">
        <ele>1670.434</ele>
        <time>2020-08-11T15:16:04Z</time>
      </trkpt>
      <trkpt lat="42.244892" lon="1.709581">
        <ele>1682.081</ele>
        <time>2020-08-11T15:16:30Z</time>
      </trkpt>
      <trkpt lat="42.244798" lon="1.709613">
        <ele>1692.068</ele>
        <time>2020-08-11T15:16:52Z</time>
      </trkpt>
      <trkpt lat="42.244886" lon="1.709559">
        <ele>1682.594</ele>
        <time>2020-08-11T15:17:01Z</time>
      </trkpt>
      <trkpt lat="42.245006" lon="1.709583">
        <ele>1670.158</ele>
        <time>2020-08-11T15:17:08Z</time>
      </trkpt>
      <trkpt lat="42.245101" lon="1.709544">
        <ele>1664.829</ele>
        <time>2020-08-11T15:17:10Z</time>
      </trkpt>
      <trkpt lat="42.245082" lon="1.709678">
        <ele>1664.262</ele>
        <time>2020-08-11T15:17:16Z</time>
      </trkpt>
      <trkpt lat="42.245103" lon="1.709799">
        <ele>1661.551</ele>
        <time>2020-08-11T15:17:24Z</time>
      </trkpt>
      <trkpt lat="42.245103" lon="1.709930">
        <ele>1661.455</ele>
        <time>2020-08-11T15:17:32Z</time>
      </trkpt>
      <trkpt lat="42.245080" lon="1.710066">
        <ele>1663.107</ele>
        <time>2020-08-11T15:17:39Z</time>
      </trkpt>
      <trkpt lat="42.245069" lon="1.710215">
        <ele>1663.217</ele>
        <time>2020-08-11T15:17:48Z</time>
      </trkpt>
      <trkpt lat="42.245048" lon="1.710360">
        <ele>1663.908</ele>
        <time>2020-08-11T15:17:58Z</time>
      </trkpt>
      <trkpt lat="42.245054" lon="1.710486">
        <ele>1662.781</ele>
        <time>2020-08-11T15:18:07Z</time>
      </trkpt>
      <trkpt lat="42.245102" lon="1.710602">
        <ele>1659.818</ele>
        <time>2020-08-11T15:18:13Z</time>
      </trkpt>
      <trkpt lat="42.245129" lon="1.710734">
        <ele>1660.365</ele>
        <time>2020-08-11T15:18:20Z</time>
      </trkpt>
      <trkpt lat="42.245161" lon="1.710855">
        <ele>1659.631</ele>
        <time>2020-08-11T15:18:29Z</time>
      </trkpt>
      <trkpt lat="42.245165" lon="1.710978">
        <ele>1656.585</ele>
        <time>2020-08-11T15:18:39Z</time>
      </trkpt>
      <trkpt lat="42.245130" lon="1.711103">
        <ele>1655.176</ele>
        <time>2020-08-11T15:18:48Z</time>
      </trkpt>
      <trkpt lat="42.245052" lon="1.711178">
        <ele>1654.799</ele>
        <time>2020-08-11T15:18:53Z</time>
      </trkpt>
      <trkpt lat="42.244992" lon="1.711278">
        <ele>1653.338</ele>
        <time>2020-08-11T15:19:02Z</time>
      </trkpt>
      <trkpt lat="42.244971" lon="1.711402">
        <ele>1649.871</ele>
        <time>2020-08-11T15:19:17Z</time>
      </trkpt>
      <trkpt lat="42.244986" lon="1.711532">
        <ele>1650.541</ele>
        <time>2020-08-11T15:19:25Z</time>
      </trkpt>
      <trkpt lat="42.245017" lon="1.711662">
        <ele>1649.515</ele>
        <time>2020-08-11T15:19:32Z</time>
      </trkpt>
      <trkpt lat="42.245021" lon="1.711790">
        <ele>1650.208</ele>
        <time>2020-08-11T15:19:39Z</time>
      </trkpt>
      <trkpt lat="42.245050" lon="1.711918">
        <ele>1648.873</ele>
        <time>2020-08-11T15:19:47Z</time>
      </trkpt>
      <trkpt lat="42.245040" lon="1.712046">
        <ele>1649.630</ele>
        <time>2020-08-11T15:19:55Z</time>
      </trkpt>
      <trkpt lat="42.245045" lon="1.712183">
        <ele>1648.917</ele>
        <time>2020-08-11T15:20:03Z</time>
      </trkpt>
      <trkpt lat="42.245093" lon="1.712300">
        <ele>1647.263</ele>
        <time>2020-08-11T15:20:12Z</time>
      </trkpt>
      <trkpt lat="42.245161" lon="1.712410">
        <ele>1645.277</ele>
        <time>2020-08-11T15:20:20Z</time>
      </trkpt>
      <trkpt lat="42.245206" lon="1.712532">
        <ele>1645.148</ele>
        <time>2020-08-11T15:20:28Z</time>
      </trkpt>
      <trkpt lat="42.245251" lon="1.712639">
        <ele>1643.321</ele>
        <time>2020-08-11T15:20:35Z</time>
      </trkpt>
      <trkpt lat="42.245282" lon="1.712758">
        <ele>1642.560</ele>
        <time>2020-08-11T15:20:42Z</time>
      </trkpt>
      <trkpt lat="42.245316" lon="1.712880">
        <ele>1641.927</ele>
        <time>2020-08-11T15:20:49Z</time>
      </trkpt>
      <trkpt lat="42.245352" lon="1.713003">
        <ele>1641.468</ele>
        <time>2020-08-11T15:20:57Z</time>
      </trkpt>
      <trkpt lat="42.245415" lon="1.713102">
        <ele>1638.214</ele>
        <time>2020-08-11T15:21:05Z</time>
      </trkpt>
      <trkpt lat="42.245452" lon="1.713219">
        <ele>1635.608</ele>
        <time>2020-08-11T15:21:11Z</time>
      </trkpt>
      <trkpt lat="42.245457" lon="1.713357">
        <ele>1635.158</ele>
        <time>2020-08-11T15:21:19Z</time>
      </trkpt>
      <trkpt lat="42.245429" lon="1.713482">
        <ele>1636.815</ele>
        <time>2020-08-11T15:21:25Z</time>
      </trkpt>
      <trkpt lat="42.245441" lon="1.713603">
        <ele>1635.512</ele>
        <time>2020-08-11T15:21:34Z</time>
      </trkpt>
      <trkpt lat="42.245473" lon="1.713717">
        <ele>1635.358</ele>
        <time>2020-08-11T15:21:40Z</time>
      </trkpt>
      <trkpt lat="42.245539" lon="1.713807">
        <ele>1632.612</ele>
        <time>2020-08-11T15:21:46Z</time>
      </trkpt>
      <trkpt lat="42.245591" lon="1.713919">
        <ele>1629.983</ele>
        <time>2020-08-11T15:21:54Z</time>
      </trkpt>
      <trkpt lat="42.245592" lon="1.714052">
        <ele>1628.916</ele>
        <time>2020-08-11T15:22:04Z</time>
      </trkpt>
      <trkpt lat="42.245585" lon="1.714190">
        <ele>1628.395</ele>
        <time>2020-08-11T15:22:14Z</time>
      </trkpt>
      <trkpt lat="42.245565" lon="1.714327">
        <ele>1627.421</ele>
        <time>2020-08-11T15:22:24Z</time>
      </trkpt>
      <trkpt lat="42.245593" lon="1.714447">
        <ele>1623.141</ele>
        <time>2020-08-11T15:22:34Z</time>
      </trkpt>
      <trkpt lat="42.245577" lon="1.714579">
        <ele>1622.905</ele>
        <time>2020-08-11T15:22:41Z</time>
      </trkpt>
      <trkpt lat="42.245581" lon="1.714702">
        <ele>1621.208</ele>
        <time>2020-08-11T15:22:49Z</time>
      </trkpt>
      <trkpt lat="42.245594" lon="1.714845">
        <ele>1620.188</ele>
        <time>2020-08-11T15:22:56Z</time>
      </trkpt>
      <trkpt lat="42.245601" lon="1.714974">
        <ele>1619.765</ele>
        <time>2020-08-11T15:23:05Z</time>
      </trkpt>
      <trkpt lat="42.245615" lon="1.715112">
        <ele>1622.872</ele>
        <time>2020-08-11T15:23:14Z</time>
      </trkpt>
      <trkpt lat="42.245694" lon="1.715192">
        <ele>1621.078</ele>
        <time>2020-08-11T15:23:25Z</time>
      </trkpt>
      <trkpt lat="42.245775" lon="1.715259">
        <ele>1619.352</ele>
        <time>2020-08-11T15:23:39Z</time>
      </trkpt>
      <trkpt lat="42.245852" lon="1.715322">
        <ele>1617.733</ele>
        <time>2020-08-11T15:23:46Z</time>
      </trkpt>
      <trkpt lat="42.245921" lon="1.715401">
        <ele>1617.086</ele>
        <time>2020-08-11T15:23:53Z</time>
      </trkpt>
      <trkpt lat="42.245997" lon="1.715489">
        <ele>1616.495</ele>
        <time>2020-08-11T15:23:59Z</time>
      </trkpt>
      <trkpt lat="42.246074" lon="1.715556">
        <ele>1615.045</ele>
        <time>2020-08-11T15:24:06Z</time>
      </trkpt>
      <trkpt lat="42.246145" lon="1.715645">
        <ele>1614.447</ele>
        <time>2020-08-11T15:24:14Z</time>
      </trkpt>
      <trkpt lat="42.246232" lon="1.715694">
        <ele>1612.311</ele>
        <time>2020-08-11T15:24:22Z</time>
      </trkpt>
      <trkpt lat="42.246309" lon="1.715793">
        <ele>1612.108</ele>
        <time>2020-08-11T15:24:27Z</time>
      </trkpt>
      <trkpt lat="42.246378" lon="1.715885">
        <ele>1611.280</ele>
        <time>2020-08-11T15:24:36Z</time>
      </trkpt>
      <trkpt lat="42.246448" lon="1.715978">
        <ele>1609.377</ele>
        <time>2020-08-11T15:24:45Z</time>
      </trkpt>
      <trkpt lat="42.246514" lon="1.716085">
        <ele>1607.034</ele>
        <time>2020-08-11T15:24:54Z</time>
      </trkpt>
      <trkpt lat="42.246560" lon="1.716198">
        <ele>1603.410</ele>
        <time>2020-08-11T15:25:04Z</time>
      </trkpt>
      <trkpt lat="42.246468" lon="1.716229">
        <ele>1608.434</ele>
        <time>2020-08-11T15:25:12Z</time>
      </trkpt>
      <trkpt lat="42.246466" lon="1.716365">
        <ele>1607.045</ele>
        <time>2020-08-11T15:25:51Z</time>
      </trkpt>
      <trkpt lat="42.246454" lon="1.716506">
        <ele>1604.958</ele>
        <time>2020-08-11T15:26:01Z</time>
      </trkpt>
      <trkpt lat="42.246450" lon="1.716634">
        <ele>1602.357</ele>
        <time>2020-08-11T15:26:10Z</time>
      </trkpt>
      <trkpt lat="42.246421" lon="1.716750">
        <ele>1601.963</ele>
        <time>2020-08-11T15:26:14Z</time>
      </trkpt>
      <trkpt lat="42.246385" lon="1.716889">
        <ele>1601.544</ele>
        <time>2020-08-11T15:26:24Z</time>
      </trkpt>
      <trkpt lat="42.246376" lon="1.717013">
        <ele>1600.018</ele>
        <time>2020-08-11T15:26:29Z</time>
      </trkpt>
      <trkpt lat="42.246391" lon="1.717154">
        <ele>1596.808</ele>
        <time>2020-08-11T15:26:39Z</time>
      </trkpt>
      <trkpt lat="42.246401" lon="1.717277">
        <ele>1594.992</ele>
        <time>2020-08-11T15:26:47Z</time>
      </trkpt>
      <trkpt lat="42.246387" lon="1.717423">
        <ele>1595.469</ele>
        <time>2020-08-11T15:26:54Z</time>
      </trkpt>
      <trkpt lat="42.246429" lon="1.717537">
        <ele>1591.736</ele>
        <time>2020-08-11T15:26:59Z</time>
      </trkpt>
      <trkpt lat="42.246454" lon="1.717654">
        <ele>1589.182</ele>
        <time>2020-08-11T15:27:08Z</time>
      </trkpt>
      <trkpt lat="42.246460" lon="1.717809">
        <ele>1587.726</ele>
        <time>2020-08-11T15:27:18Z</time>
      </trkpt>
      <trkpt lat="42.246462" lon="1.717931">
        <ele>1586.847</ele>
        <time>2020-08-11T15:27:28Z</time>
      </trkpt>
      <trkpt lat="42.246465" lon="1.718076">
        <ele>1585.850</ele>
        <time>2020-08-11T15:27:36Z</time>
      </trkpt>
      <trkpt lat="42.246482" lon="1.718231">
        <ele>1584.249</ele>
        <time>2020-08-11T15:27:45Z</time>
      </trkpt>
      <trkpt lat="42.246504" lon="1.718366">
        <ele>1582.786</ele>
        <time>2020-08-11T15:27:53Z</time>
      </trkpt>
      <trkpt lat="42.246523" lon="1.718499">
        <ele>1582.960</ele>
        <time>2020-08-11T15:27:58Z</time>
      </trkpt>
      <trkpt lat="42.246545" lon="1.718624">
        <ele>1583.326</ele>
        <time>2020-08-11T15:28:05Z</time>
      </trkpt>
      <trkpt lat="42.246596" lon="1.718729">
        <ele>1583.808</ele>
        <time>2020-08-11T15:28:14Z</time>
      </trkpt>
      <trkpt lat="42.246668" lon="1.718807">
        <ele>1583.514</ele>
        <time>2020-08-11T15:28:23Z</time>
      </trkpt>
      <trkpt lat="42.246756" lon="1.718862">
        <ele>1585.441</ele>
        <time>2020-08-11T15:28:30Z</time>
      </trkpt>
      <trkpt lat="42.246857" lon="1.718889">
        <ele>1586.378</ele>
        <time>2020-08-11T15:28:38Z</time>
      </trkpt>
      <trkpt lat="42.246958" lon="1.718885">
        <ele>1585.734</ele>
        <time>2020-08-11T15:28:48Z</time>
      </trkpt>
      <trkpt lat="42.247054" lon="1.718895">
        <ele>1586.028</ele>
        <time>2020-08-11T15:28:56Z</time>
      </trkpt>
      <trkpt lat="42.247151" lon="1.718896">
        <ele>1585.779</ele>
        <time>2020-08-11T15:29:04Z</time>
      </trkpt>
      <trkpt lat="42.247248" lon="1.718887">
        <ele>1584.812</ele>
        <time>2020-08-11T15:29:13Z</time>
      </trkpt>
      <trkpt lat="42.247340" lon="1.718892">
        <ele>1584.841</ele>
        <time>2020-08-11T15:29:20Z</time>
      </trkpt>
      <trkpt lat="42.247434" lon="1.718896">
        <ele>1584.796</ele>
        <time>2020-08-11T15:29:28Z</time>
      </trkpt>
      <trkpt lat="42.247526" lon="1.718926">
        <ele>1585.731</ele>
        <time>2020-08-11T15:29:36Z</time>
      </trkpt>
      <trkpt lat="42.247618" lon="1.718950">
        <ele>1585.124</ele>
        <time>2020-08-11T15:29:48Z</time>
      </trkpt>
      <trkpt lat="42.247698" lon="1.719008">
        <ele>1585.608</ele>
        <time>2020-08-11T15:30:01Z</time>
      </trkpt>
      <trkpt lat="42.247778" lon="1.719074">
        <ele>1585.395</ele>
        <time>2020-08-11T15:30:09Z</time>
      </trkpt>
      <trkpt lat="42.247828" lon="1.719187">
        <ele>1582.282</ele>
        <time>2020-08-11T15:30:19Z</time>
      </trkpt>
      <trkpt lat="42.247856" lon="1.719320">
        <ele>1578.139</ele>
        <time>2020-08-11T15:30:28Z</time>
      </trkpt>
      <trkpt lat="42.247834" lon="1.719452">
        <ele>1579.375</ele>
        <time>2020-08-11T15:30:35Z</time>
      </trkpt>
      <trkpt lat="42.247834" lon="1.719581">
        <ele>1579.049</ele>
        <time>2020-08-11T15:30:43Z</time>
      </trkpt>
      <trkpt lat="42.247873" lon="1.719706">
        <ele>1575.110</ele>
        <time>2020-08-11T15:30:53Z</time>
      </trkpt>
      <trkpt lat="42.247860" lon="1.719836">
        <ele>1575.213</ele>
        <time>2020-08-11T15:30:59Z</time>
      </trkpt>
      <trkpt lat="42.247830" lon="1.719953">
        <ele>1577.352</ele>
        <time>2020-08-11T15:31:08Z</time>
      </trkpt>
      <trkpt lat="42.247744" lon="1.720029">
        <ele>1583.277</ele>
        <time>2020-08-11T15:31:14Z</time>
      </trkpt>
      <trkpt lat="42.247659" lon="1.720103">
        <ele>1583.061</ele>
        <time>2020-08-11T15:31:21Z</time>
      </trkpt>
      <trkpt lat="42.247577" lon="1.720163">
        <ele>1582.527</ele>
        <time>2020-08-11T15:31:33Z</time>
      </trkpt>
      <trkpt lat="42.247502" lon="1.720232">
        <ele>1580.608</ele>
        <time>2020-08-11T15:31:39Z</time>
      </trkpt>
      <trkpt lat="42.247440" lon="1.720330">
        <ele>1580.343</ele>
        <time>2020-08-11T15:31:48Z</time>
      </trkpt>
      <trkpt lat="42.247409" lon="1.720469">
        <ele>1577.930</ele>
        <time>2020-08-11T15:31:56Z</time>
      </trkpt>
      <trkpt lat="42.247375" lon="1.720591">
        <ele>1577.197</ele>
        <time>2020-08-11T15:32:02Z</time>
      </trkpt>
      <trkpt lat="42.247329" lon="1.720713">
        <ele>1577.613</ele>
        <time>2020-08-11T15:32:09Z</time>
      </trkpt>
      <trkpt lat="42.247294" lon="1.720837">
        <ele>1576.897</ele>
        <time>2020-08-11T15:32:19Z</time>
      </trkpt>
      <trkpt lat="42.247288" lon="1.720972">
        <ele>1575.928</ele>
        <time>2020-08-11T15:32:28Z</time>
      </trkpt>
      <trkpt lat="42.247247" lon="1.721108">
        <ele>1578.051</ele>
        <time>2020-08-11T15:32:36Z</time>
      </trkpt>
      <trkpt lat="42.247237" lon="1.721233">
        <ele>1576.150</ele>
        <time>2020-08-11T15:32:44Z</time>
      </trkpt>
      <trkpt lat="42.247231" lon="1.721355">
        <ele>1574.027</ele>
        <time>2020-08-11T15:32:51Z</time>
      </trkpt>
      <trkpt lat="42.247223" lon="1.721482">
        <ele>1574.368</ele>
        <time>2020-08-11T15:33:01Z</time>
      </trkpt>
      <trkpt lat="42.247253" lon="1.721613">
        <ele>1572.414</ele>
        <time>2020-08-11T15:33:08Z</time>
      </trkpt>
      <trkpt lat="42.247285" lon="1.721732">
        <ele>1571.808</ele>
        <time>2020-08-11T15:33:16Z</time>
      </trkpt>
      <trkpt lat="42.247312" lon="1.721849">
        <ele>1572.888</ele>
        <time>2020-08-11T15:33:40Z</time>
      </trkpt>
      <trkpt lat="42.247369" lon="1.721963">
        <ele>1571.995</ele>
        <time>2020-08-11T15:33:49Z</time>
      </trkpt>
      <trkpt lat="42.247415" lon="1.722077">
        <ele>1571.272</ele>
        <time>2020-08-11T15:34:00Z</time>
      </trkpt>
      <trkpt lat="42.247408" lon="1.722207">
        <ele>1574.328</ele>
        <time>2020-08-11T15:34:08Z</time>
      </trkpt>
      <trkpt lat="42.247415" lon="1.722340">
        <ele>1572.552</ele>
        <time>2020-08-11T15:34:15Z</time>
      </trkpt>
      <trkpt lat="42.247430" lon="1.722465">
        <ele>1570.083</ele>
        <time>2020-08-11T15:34:23Z</time>
      </trkpt>
      <trkpt lat="42.247395" lon="1.722592">
        <ele>1569.356</ele>
        <time>2020-08-11T15:34:33Z</time>
      </trkpt>
      <trkpt lat="42.247310" lon="1.722642">
        <ele>1572.095</ele>
        <time>2020-08-11T15:34:39Z</time>
      </trkpt>
      <trkpt lat="42.247213" lon="1.722627">
        <ele>1576.131</ele>
        <time>2020-08-11T15:34:48Z</time>
      </trkpt>
      <trkpt lat="42.247113" lon="1.722618">
        <ele>1573.861</ele>
        <time>2020-08-11T15:34:58Z</time>
      </trkpt>
      <trkpt lat="42.247016" lon="1.722585">
        <ele>1572.107</ele>
        <time>2020-08-11T15:35:05Z</time>
      </trkpt>
      <trkpt lat="42.246945" lon="1.722503">
        <ele>1572.008</ele>
        <time>2020-08-11T15:35:14Z</time>
      </trkpt>
      <trkpt lat="42.246854" lon="1.722492">
        <ele>1568.789</ele>
        <time>2020-08-11T15:35:48Z</time>
      </trkpt>
      <trkpt lat="42.246783" lon="1.722403">
        <ele>1568.376</ele>
        <time>2020-08-11T15:35:56Z</time>
      </trkpt>
      <trkpt lat="42.246710" lon="1.722307">
        <ele>1567.823</ele>
        <time>2020-08-11T15:36:03Z</time>
      </trkpt>
      <trkpt lat="42.246641" lon="1.722222">
        <ele>1567.229</ele>
        <time>2020-08-11T15:36:10Z</time>
      </trkpt>
      <trkpt lat="42.246567" lon="1.722154">
        <ele>1566.973</ele>
        <time>2020-08-11T15:36:20Z</time>
      </trkpt>
      <trkpt lat="42.246485" lon="1.722078">
        <ele>1566.914</ele>
        <time>2020-08-11T15:36:29Z</time>
      </trkpt>
      <trkpt lat="42.246387" lon="1.722026">
        <ele>1566.087</ele>
        <time>2020-08-11T15:36:39Z</time>
      </trkpt>
      <trkpt lat="42.246296" lon="1.722032">
        <ele>1565.056</ele>
        <time>2020-08-11T15:36:44Z</time>
      </trkpt>
      <trkpt lat="42.246201" lon="1.722040">
        <ele>1563.768</ele>
        <time>2020-08-11T15:36:57Z</time>
      </trkpt>
      <trkpt lat="42.246099" lon="1.722023">
        <ele>1563.542</ele>
        <time>2020-08-11T15:37:06Z</time>
      </trkpt>
      <trkpt lat="42.246001" lon="1.722058">
        <ele>1561.226</ele>
        <time>2020-08-11T15:37:16Z</time>
      </trkpt>
      <trkpt lat="42.245911" lon="1.722039">
        <ele>1561.008</ele>
        <time>2020-08-11T15:37:25Z</time>
      </trkpt>
      <trkpt lat="42.245833" lon="1.722111">
        <ele>1558.292</ele>
        <time>2020-08-11T15:37:41Z</time>
      </trkpt>
      <trkpt lat="42.245805" lon="1.722240">
        <ele>1553.229</ele>
        <time>2020-08-11T15:37:53Z</time>
      </trkpt>
      <trkpt lat="42.245749" lon="1.722339">
        <ele>1548.196</ele>
        <time>2020-08-11T15:38:05Z</time>
      </trkpt>
      <trkpt lat="42.245760" lon="1.722464">
        <ele>1544.912</ele>
        <time>2020-08-11T15:38:18Z</time>
      </trkpt>
      <trkpt lat="42.245722" lon="1.722582">
        <ele>1540.856</ele>
        <time>2020-08-11T15:38:30Z</time>
      </trkpt>
      <trkpt lat="42.245709" lon="1.722708">
        <ele>1537.497</ele>
        <time>2020-08-11T15:38:46Z</time>
      </trkpt>
      <trkpt lat="42.245678" lon="1.722835">
        <ele>1533.980</ele>
        <time>2020-08-11T15:38:59Z</time>
      </trkpt>
      <trkpt lat="42.245664" lon="1.722958">
        <ele>1531.119</ele>
        <time>2020-08-11T15:39:09Z</time>
      </trkpt>
      <trkpt lat="42.245652" lon="1.723090">
        <ele>1528.153</ele>
        <time>2020-08-11T15:39:26Z</time>
      </trkpt>
      <trkpt lat="42.245611" lon="1.723203">
        <ele>1525.504</ele>
        <time>2020-08-11T15:39:39Z</time>
      </trkpt>
      <trkpt lat="42.245638" lon="1.723322">
        <ele>1522.414</ele>
        <time>2020-08-11T15:40:03Z</time>
      </trkpt>
      <trkpt lat="42.245649" lon="1.723444">
        <ele>1518.308</ele>
        <time>2020-08-11T15:40:14Z</time>
      </trkpt>
      <trkpt lat="42.245588" lon="1.723536">
        <ele>1516.011</ele>
        <time>2020-08-11T15:40:32Z</time>
      </trkpt>
      <trkpt lat="42.245676" lon="1.723573">
        <ele>1513.658</ele>
        <time>2020-08-11T15:41:07Z</time>
      </trkpt>
      <trkpt lat="42.245739" lon="1.723486">
        <ele>1515.725</ele>
        <time>2020-08-11T15:41:20Z</time>
      </trkpt>
      <trkpt lat="42.245848" lon="1.723553">
        <ele>1512.091</ele>
        <time>2020-08-11T15:41:37Z</time>
      </trkpt>
      <trkpt lat="42.245880" lon="1.723678">
        <ele>1507.375</ele>
        <time>2020-08-11T15:41:48Z</time>
      </trkpt>
      <trkpt lat="42.245862" lon="1.723804">
        <ele>1503.096</ele>
        <time>2020-08-11T15:42:05Z</time>
      </trkpt>
      <trkpt lat="42.245819" lon="1.723926">
        <ele>1498.859</ele>
        <time>2020-08-11T15:42:17Z</time>
      </trkpt>
      <trkpt lat="42.245805" lon="1.724068">
        <ele>1493.428</ele>
        <time>2020-08-11T15:42:38Z</time>
      </trkpt>
      <trkpt lat="42.245771" lon="1.724186">
        <ele>1489.355</ele>
        <time>2020-08-11T15:42:48Z</time>
      </trkpt>
      <trkpt lat="42.245736" lon="1.724308">
        <ele>1485.007</ele>
        <time>2020-08-11T15:42:55Z</time>
      </trkpt>
      <trkpt lat="42.245651" lon="1.724388">
        <ele>1483.017</ele>
        <time>2020-08-11T15:43:09Z</time>
      </trkpt>
      <trkpt lat="42.245576" lon="1.724458">
        <ele>1481.108</ele>
        <time>2020-08-11T15:43:23Z</time>
      </trkpt>
      <trkpt lat="42.245478" lon="1.724487">
        <ele>1479.441</ele>
        <time>2020-08-11T15:43:40Z</time>
      </trkpt>
      <trkpt lat="42.245397" lon="1.724544">
        <ele>1476.728</ele>
        <time>2020-08-11T15:43:51Z</time>
      </trkpt>
      <trkpt lat="42.245319" lon="1.724609">
        <ele>1474.355</ele>
        <time>2020-08-11T15:44:01Z</time>
      </trkpt>
      <trkpt lat="42.245241" lon="1.724673">
        <ele>1470.511</ele>
        <time>2020-08-11T15:44:14Z</time>
      </trkpt>
      <trkpt lat="42.245164" lon="1.724589">
        <ele>1468.535</ele>
        <time>2020-08-11T15:44:23Z</time>
      </trkpt>
      <trkpt lat="42.245119" lon="1.724476">
        <ele>1468.646</ele>
        <time>2020-08-11T15:44:33Z</time>
      </trkpt>
      <trkpt lat="42.245083" lon="1.724349">
        <ele>1469.049</ele>
        <time>2020-08-11T15:44:43Z</time>
      </trkpt>
      <trkpt lat="42.245043" lon="1.724236">
        <ele>1468.618</ele>
        <time>2020-08-11T15:44:53Z</time>
      </trkpt>
      <trkpt lat="42.245023" lon="1.724116">
        <ele>1469.529</ele>
        <time>2020-08-11T15:44:58Z</time>
      </trkpt>
      <trkpt lat="42.244984" lon="1.724003">
        <ele>1468.700</ele>
        <time>2020-08-11T15:45:39Z</time>
      </trkpt>
      <trkpt lat="42.244923" lon="1.723894">
        <ele>1465.820</ele>
        <time>2020-08-11T15:45:58Z</time>
      </trkpt>
      <trkpt lat="42.244856" lon="1.723795">
        <ele>1462.308</ele>
        <time>2020-08-11T15:46:06Z</time>
      </trkpt>
      <trkpt lat="42.244805" lon="1.723687">
        <ele>1460.258</ele>
        <time>2020-08-11T15:46:17Z</time>
      </trkpt>
      <trkpt lat="42.244779" lon="1.723568">
        <ele>1460.255</ele>
        <time>2020-08-11T15:46:32Z</time>
      </trkpt>
      <trkpt lat="42.244731" lon="1.723446">
        <ele>1458.692</ele>
        <time>2020-08-11T15:46:43Z</time>
      </trkpt>
      <trkpt lat="42.244667" lon="1.723339">
        <ele>1455.788</ele>
        <time>2020-08-11T15:46:56Z</time>
      </trkpt>
      <trkpt lat="42.244601" lon="1.723248">
        <ele>1452.532</ele>
        <time>2020-08-11T15:47:06Z</time>
      </trkpt>
      <trkpt lat="42.244550" lon="1.723144">
        <ele>1450.833</ele>
        <time>2020-08-11T15:47:16Z</time>
      </trkpt>
      <trkpt lat="42.244483" lon="1.723047">
        <ele>1447.976</ele>
        <time>2020-08-11T15:47:21Z</time>
      </trkpt>
      <trkpt lat="42.244389" lon="1.722982">
        <ele>1444.565</ele>
        <time>2020-08-11T15:47:30Z</time>
      </trkpt>
      <trkpt lat="42.244255" lon="1.722873">
        <ele>1443.976</ele>
        <time>2020-08-11T15:47:38Z</time>
      </trkpt>
      <trkpt lat="42.244183" lon="1.722792">
        <ele>1445.690</ele>
        <time>2020-08-11T15:47:45Z</time>
      </trkpt>
      <trkpt lat="42.244225" lon="1.722906">
        <ele>1442.019</ele>
        <time>2020-08-11T15:48:10Z</time>
      </trkpt>
      <trkpt lat="42.244187" lon="1.723022">
        <ele>1436.208</ele>
        <time>2020-08-11T15:48:22Z</time>
      </trkpt>
      <trkpt lat="42.244087" lon="1.723068">
        <ele>1437.643</ele>
        <time>2020-08-11T15:48:32Z</time>
      </trkpt>
      <trkpt lat="42.244034" lon="1.723167">
        <ele>1436.780</ele>
        <time>2020-08-11T15:48:41Z</time>
      </trkpt>
      <trkpt lat="42.243964" lon="1.723252">
        <ele>1436.827</ele>
        <time>2020-08-11T15:48:48Z</time>
      </trkpt>
      <trkpt lat="42.243877" lon="1.723289">
        <ele>1439.093</ele>
        <time>2020-08-11T15:48:57Z</time>
      </trkpt>
      <trkpt lat="42.243787" lon="1.723307">
        <ele>1439.997</ele>
        <time>2020-08-11T15:49:04Z</time>
      </trkpt>
      <trkpt lat="42.243686" lon="1.723343">
        <ele>1440.258</ele>
        <time>2020-08-11T15:49:14Z</time>
      </trkpt>
      <trkpt lat="42.243597" lon="1.723314">
        <ele>1443.021</ele>
        <time>2020-08-11T15:49:21Z</time>
      </trkpt>
      <trkpt lat="42.243506" lon="1.723328">
        <ele>1443.760</ele>
        <time>2020-08-11T15:49:30Z</time>
      </trkpt>
      <trkpt lat="42.243406" lon="1.723357">
        <ele>1443.922</ele>
        <time>2020-08-11T15:49:40Z</time>
      </trkpt>
      <trkpt lat="42.243320" lon="1.723299">
        <ele>1447.762</ele>
        <time>2020-08-11T15:49:45Z</time>
      </trkpt>
      <trkpt lat="42.243242" lon="1.723368">
        <ele>1445.808</ele>
        <time>2020-08-11T15:50:00Z</time>
      </trkpt>
      <trkpt lat="42.243143" lon="1.723354">
        <ele>1447.808</ele>
        <time>2020-08-11T15:50:09Z</time>
      </trkpt>
      <trkpt lat="42.243053" lon="1.723326">
        <ele>1450.338</ele>
        <time>2020-08-11T15:50:16Z</time>
      </trkpt>
      <trkpt lat="42.242967" lon="1.723369">
        <ele>1449.865</ele>
        <time>2020-08-11T15:50:24Z</time>
      </trkpt>
      <trkpt lat="42.242888" lon="1.723440">
        <ele>1448.052</ele>
        <time>2020-08-11T15:50:32Z</time>
      </trkpt>
      <trkpt lat="42.242789" lon="1.723410">
        <ele>1450.848</ele>
        <time>2020-08-11T15:50:42Z</time>
      </trkpt>
      <trkpt lat="42.242701" lon="1.723448">
        <ele>1451.132</ele>
        <time>2020-08-11T15:50:51Z</time>
      </trkpt>
      <trkpt lat="42.242630" lon="1.723532">
        <ele>1449.343</ele>
        <time>2020-08-11T15:51:01Z</time>
      </trkpt>
      <trkpt lat="42.242538" lon="1.723561">
        <ele>1450.226</ele>
        <time>2020-08-11T15:51:09Z</time>
      </trkpt>
      <trkpt lat="42.242446" lon="1.723587">
        <ele>1451.385</ele>
        <time>2020-08-11T15:51:17Z</time>
      </trkpt>
      <trkpt lat="42.242357" lon="1.723611">
        <ele>1452.648</ele>
        <time>2020-08-11T15:51:25Z</time>
      </trkpt>
      <trkpt lat="42.242258" lon="1.723641">
        <ele>1453.961</ele>
        <time>2020-08-11T15:51:35Z</time>
      </trkpt>
      <trkpt lat="42.242168" lon="1.723687">
        <ele>1454.417</ele>
        <time>2020-08-11T15:51:47Z</time>
      </trkpt>
      <trkpt lat="42.242100" lon="1.723777">
        <ele>1452.508</ele>
        <time>2020-08-11T15:51:56Z</time>
      </trkpt>
      <trkpt lat="42.242002" lon="1.723782">
        <ele>1454.880</ele>
        <time>2020-08-11T15:52:05Z</time>
      </trkpt>
      <trkpt lat="42.241931" lon="1.723862">
        <ele>1453.097</ele>
        <time>2020-08-11T15:52:17Z</time>
      </trkpt>
      <trkpt lat="42.241844" lon="1.723898">
        <ele>1451.294</ele>
        <time>2020-08-11T15:52:25Z</time>
      </trkpt>
      <trkpt lat="42.241759" lon="1.723951">
        <ele>1448.590</ele>
        <time>2020-08-11T15:52:33Z</time>
      </trkpt>
      <trkpt lat="42.241655" lon="1.723935">
        <ele>1448.854</ele>
        <time>2020-08-11T15:52:41Z</time>
      </trkpt>
      <trkpt lat="42.241560" lon="1.723944">
        <ele>1448.365</ele>
        <time>2020-08-11T15:52:48Z</time>
      </trkpt>
      <trkpt lat="42.241472" lon="1.723973">
        <ele>1446.928</ele>
        <time>2020-08-11T15:52:57Z</time>
      </trkpt>
      <trkpt lat="42.241377" lon="1.723972">
        <ele>1446.877</ele>
        <time>2020-08-11T15:53:04Z</time>
      </trkpt>
      <trkpt lat="42.241273" lon="1.723956">
        <ele>1447.849</ele>
        <time>2020-08-11T15:53:12Z</time>
      </trkpt>
      <trkpt lat="42.241179" lon="1.723980">
        <ele>1446.902</ele>
        <time>2020-08-11T15:53:19Z</time>
      </trkpt>
      <trkpt lat="42.241086" lon="1.723995">
        <ele>1446.522</ele>
        <time>2020-08-11T15:53:26Z</time>
      </trkpt>
      <trkpt lat="42.241011" lon="1.724070">
        <ele>1443.408</ele>
        <time>2020-08-11T15:53:34Z</time>
      </trkpt>
      <trkpt lat="42.240920" lon="1.724051">
        <ele>1444.480</ele>
        <time>2020-08-11T15:53:44Z</time>
      </trkpt>
      <trkpt lat="42.240848" lon="1.724145">
        <ele>1440.867</ele>
        <time>2020-08-11T15:54:03Z</time>
      </trkpt>
      <trkpt lat="42.240761" lon="1.724203">
        <ele>1439.154</ele>
        <time>2020-08-11T15:54:11Z</time>
      </trkpt>
      <trkpt lat="42.240674" lon="1.724251">
        <ele>1438.030</ele>
        <time>2020-08-11T15:54:18Z</time>
      </trkpt>
      <trkpt lat="42.240576" lon="1.724247">
        <ele>1439.234</ele>
        <time>2020-08-11T15:54:28Z</time>
      </trkpt>
      <trkpt lat="42.240472" lon="1.724276">
        <ele>1441.515</ele>
        <time>2020-08-11T15:54:40Z</time>
      </trkpt>
      <trkpt lat="42.240436" lon="1.724392">
        <ele>1439.928</ele>
        <time>2020-08-11T15:54:58Z</time>
      </trkpt>
      <trkpt lat="42.240384" lon="1.724494">
        <ele>1440.157</ele>
        <time>2020-08-11T15:55:04Z</time>
      </trkpt>
      <trkpt lat="42.240308" lon="1.724568">
        <ele>1442.039</ele>
        <time>2020-08-11T15:55:14Z</time>
      </trkpt>
      <trkpt lat="42.240228" lon="1.724667">
        <ele>1443.201</ele>
        <time>2020-08-11T15:55:25Z</time>
      </trkpt>
      <trkpt lat="42.240172" lon="1.724765">
        <ele>1442.721</ele>
        <time>2020-08-11T15:55:31Z</time>
      </trkpt>
      <trkpt lat="42.240097" lon="1.724836">
        <ele>1442.408</ele>
        <time>2020-08-11T15:55:39Z</time>
      </trkpt>
      <trkpt lat="42.240001" lon="1.724878">
        <ele>1443.129</ele>
        <time>2020-08-11T15:55:46Z</time>
      </trkpt>
      <trkpt lat="42.239932" lon="1.724979">
        <ele>1441.016</ele>
        <time>2020-08-11T15:55:57Z</time>
      </trkpt>
      <trkpt lat="42.240034" lon="1.724980">
        <ele>1437.553</ele>
        <time>2020-08-11T15:57:17Z</time>
      </trkpt>
      <trkpt lat="42.239948" lon="1.724931">
        <ele>1442.769</ele>
        <time>2020-08-11T15:57:24Z</time>
      </trkpt>
      <trkpt lat="42.239854" lon="1.724962">
        <ele>1445.223</ele>
        <time>2020-08-11T15:57:34Z</time>
      </trkpt>
      <trkpt lat="42.239769" lon="1.725042">
        <ele>1444.924</ele>
        <time>2020-08-11T15:57:47Z</time>
      </trkpt>
      <trkpt lat="42.239675" lon="1.725078">
        <ele>1447.387</ele>
        <time>2020-08-11T15:57:57Z</time>
      </trkpt>
      <trkpt lat="42.239607" lon="1.725199">
        <ele>1445.476</ele>
        <time>2020-08-11T15:58:09Z</time>
      </trkpt>
      <trkpt lat="42.239533" lon="1.725281">
        <ele>1446.548</ele>
        <time>2020-08-11T15:58:18Z</time>
      </trkpt>
      <trkpt lat="42.239467" lon="1.725365">
        <ele>1448.061</ele>
        <time>2020-08-11T15:58:26Z</time>
      </trkpt>
      <trkpt lat="42.239373" lon="1.725426">
        <ele>1451.317</ele>
        <time>2020-08-11T15:58:35Z</time>
      </trkpt>
      <trkpt lat="42.239295" lon="1.725496">
        <ele>1452.908</ele>
        <time>2020-08-11T15:58:50Z</time>
      </trkpt>
      <trkpt lat="42.239232" lon="1.725597">
        <ele>1452.520</ele>
        <time>2020-08-11T15:58:58Z</time>
      </trkpt>
      <trkpt lat="42.239165" lon="1.725681">
        <ele>1452.577</ele>
        <time>2020-08-11T15:59:07Z</time>
      </trkpt>
      <trkpt lat="42.239084" lon="1.725742">
        <ele>1448.244</ele>
        <time>2020-08-11T15:59:14Z</time>
      </trkpt>
      <trkpt lat="42.239039" lon="1.725623">
        <ele>1453.130</ele>
        <time>2020-08-11T15:59:31Z</time>
      </trkpt>
      <trkpt lat="42.238935" lon="1.725614">
        <ele>1452.594</ele>
        <time>2020-08-11T15:59:40Z</time>
      </trkpt>
      <trkpt lat="42.238847" lon="1.725576">
        <ele>1453.335</ele>
        <time>2020-08-11T15:59:45Z</time>
      </trkpt>
      <trkpt lat="42.238755" lon="1.725512">
        <ele>1453.518</ele>
        <time>2020-08-11T15:59:47Z</time>
      </trkpt>
      <trkpt lat="42.238682" lon="1.725424">
        <ele>1454.627</ele>
        <time>2020-08-11T16:00:05Z</time>
      </trkpt>
      <trkpt lat="42.238604" lon="1.725339">
        <ele>1455.249</ele>
        <time>2020-08-11T16:00:14Z</time>
      </trkpt>
      <trkpt lat="42.238501" lon="1.725337">
        <ele>1450.602</ele>
        <time>2020-08-11T16:00:25Z</time>
      </trkpt>
      <trkpt lat="42.238460" lon="1.725216">
        <ele>1452.822</ele>
        <time>2020-08-11T16:00:32Z</time>
      </trkpt>
      <trkpt lat="42.238382" lon="1.725132">
        <ele>1451.608</ele>
        <time>2020-08-11T16:00:44Z</time>
      </trkpt>
      <trkpt lat="42.238301" lon="1.725034">
        <ele>1451.370</ele>
        <time>2020-08-11T16:00:55Z</time>
      </trkpt>
      <trkpt lat="42.238205" lon="1.725004">
        <ele>1450.177</ele>
        <time>2020-08-11T16:01:06Z</time>
      </trkpt>
      <trkpt lat="42.238115" lon="1.724953">
        <ele>1450.164</ele>
        <time>2020-08-11T16:01:16Z</time>
      </trkpt>
      <trkpt lat="42.238024" lon="1.724919">
        <ele>1450.860</ele>
        <time>2020-08-11T16:01:21Z</time>
      </trkpt>
      <trkpt lat="42.237931" lon="1.724930">
        <ele>1451.474</ele>
        <time>2020-08-11T16:01:33Z</time>
      </trkpt>
      <trkpt lat="42.237836" lon="1.724962">
        <ele>1451.415</ele>
        <time>2020-08-11T16:01:43Z</time>
      </trkpt>
      <trkpt lat="42.237750" lon="1.725033">
        <ele>1451.018</ele>
        <time>2020-08-11T16:01:56Z</time>
      </trkpt>
      <trkpt lat="42.237680" lon="1.725120">
        <ele>1450.637</ele>
        <time>2020-08-11T16:02:08Z</time>
      </trkpt>
      <trkpt lat="42.237584" lon="1.725166">
        <ele>1451.978</ele>
        <time>2020-08-11T16:02:18Z</time>
      </trkpt>
      <trkpt lat="42.237483" lon="1.725190">
        <ele>1453.933</ele>
        <time>2020-08-11T16:02:25Z</time>
      </trkpt>
      <trkpt lat="42.237424" lon="1.725289">
        <ele>1451.526</ele>
        <time>2020-08-11T16:02:34Z</time>
      </trkpt>
      <trkpt lat="42.237338" lon="1.725355">
        <ele>1451.208</ele>
        <time>2020-08-11T16:02:43Z</time>
      </trkpt>
      <trkpt lat="42.237262" lon="1.725421">
        <ele>1450.893</ele>
        <time>2020-08-11T16:02:52Z</time>
      </trkpt>
      <trkpt lat="42.237162" lon="1.725454">
        <ele>1452.880</ele>
        <time>2020-08-11T16:03:00Z</time>
      </trkpt>
      <trkpt lat="42.237064" lon="1.725488">
        <ele>1455.147</ele>
        <time>2020-08-11T16:03:06Z</time>
      </trkpt>
      <trkpt lat="42.236978" lon="1.725561">
        <ele>1455.653</ele>
        <time>2020-08-11T16:03:22Z</time>
      </trkpt>
      <trkpt lat="42.236911" lon="1.725656">
        <ele>1455.297</ele>
        <time>2020-08-11T16:03:27Z</time>
      </trkpt>
      <trkpt lat="42.236866" lon="1.725762">
        <ele>1453.768</ele>
        <time>2020-08-11T16:03:33Z</time>
      </trkpt>
      <trkpt lat="42.236807" lon="1.725858">
        <ele>1453.231</ele>
        <time>2020-08-11T16:03:38Z</time>
      </trkpt>
      <trkpt lat="42.236724" lon="1.725926">
        <ele>1454.690</ele>
        <time>2020-08-11T16:03:47Z</time>
      </trkpt>
      <trkpt lat="42.236655" lon="1.726022">
        <ele>1454.376</ele>
        <time>2020-08-11T16:03:58Z</time>
      </trkpt>
      <trkpt lat="42.236556" lon="1.726049">
        <ele>1456.590</ele>
        <time>2020-08-11T16:04:09Z</time>
      </trkpt>
      <trkpt lat="42.236461" lon="1.726087">
        <ele>1457.919</ele>
        <time>2020-08-11T16:04:17Z</time>
      </trkpt>
      <trkpt lat="42.236352" lon="1.726131">
        <ele>1459.308</ele>
        <time>2020-08-11T16:04:25Z</time>
      </trkpt>
      <trkpt lat="42.236257" lon="1.726101">
        <ele>1464.243</ele>
        <time>2020-08-11T16:04:28Z</time>
      </trkpt>
      <trkpt lat="42.236168" lon="1.726176">
        <ele>1463.560</ele>
        <time>2020-08-11T16:04:38Z</time>
      </trkpt>
      <trkpt lat="42.236116" lon="1.726277">
        <ele>1459.917</ele>
        <time>2020-08-11T16:04:50Z</time>
      </trkpt>
      <trkpt lat="42.236078" lon="1.726400">
        <ele>1454.843</ele>
        <time>2020-08-11T16:05:00Z</time>
      </trkpt>
      <trkpt lat="42.236060" lon="1.726529">
        <ele>1450.037</ele>
        <time>2020-08-11T16:05:15Z</time>
      </trkpt>
      <trkpt lat="42.236017" lon="1.726644">
        <ele>1446.758</ele>
        <time>2020-08-11T16:05:24Z</time>
      </trkpt>
      <trkpt lat="42.235953" lon="1.726730">
        <ele>1445.611</ele>
        <time>2020-08-11T16:05:32Z</time>
      </trkpt>
      <trkpt lat="42.235890" lon="1.726823">
        <ele>1444.190</ele>
        <time>2020-08-11T16:05:42Z</time>
      </trkpt>
      <trkpt lat="42.235811" lon="1.726904">
        <ele>1443.663</ele>
        <time>2020-08-11T16:05:51Z</time>
      </trkpt>
      <trkpt lat="42.235749" lon="1.726996">
        <ele>1441.844</ele>
        <time>2020-08-11T16:05:58Z</time>
      </trkpt>
      <trkpt lat="42.235683" lon="1.727080">
        <ele>1440.618</ele>
        <time>2020-08-11T16:06:07Z</time>
      </trkpt>
      <trkpt lat="42.235629" lon="1.727181">
        <ele>1438.108</ele>
        <time>2020-08-11T16:06:14Z</time>
      </trkpt>
      <trkpt lat="42.235551" lon="1.727260">
        <ele>1437.412</ele>
        <time>2020-08-11T16:06:21Z</time>
      </trkpt>
      <trkpt lat="42.235444" lon="1.727288">
        <ele>1440.669</ele>
        <time>2020-08-11T16:06:31Z</time>
      </trkpt>
      <trkpt lat="42.235365" lon="1.727363">
        <ele>1440.326</ele>
        <time>2020-08-11T16:06:42Z</time>
      </trkpt>
      <trkpt lat="42.235292" lon="1.727435">
        <ele>1439.762</ele>
        <time>2020-08-11T16:06:50Z</time>
      </trkpt>
      <trkpt lat="42.235231" lon="1.727537">
        <ele>1438.496</ele>
        <time>2020-08-11T16:06:57Z</time>
      </trkpt>
      <trkpt lat="42.235172" lon="1.727646">
        <ele>1438.097</ele>
        <time>2020-08-11T16:07:05Z</time>
      </trkpt>
      <trkpt lat="42.235099" lon="1.727749">
        <ele>1438.930</ele>
        <time>2020-08-11T16:07:16Z</time>
      </trkpt>
      <trkpt lat="42.235116" lon="1.727873">
        <ele>1434.479</ele>
        <time>2020-08-11T16:07:28Z</time>
      </trkpt>
      <trkpt lat="42.235060" lon="1.727996">
        <ele>1434.746</ele>
        <time>2020-08-11T16:07:41Z</time>
      </trkpt>
      <trkpt lat="42.235048" lon="1.728136">
        <ele>1431.788</ele>
        <time>2020-08-11T16:07:53Z</time>
      </trkpt>
      <trkpt lat="42.235016" lon="1.728266">
        <ele>1430.016</ele>
        <time>2020-08-11T16:08:00Z</time>
      </trkpt>
      <trkpt lat="42.234972" lon="1.728384">
        <ele>1429.708</ele>
        <time>2020-08-11T16:08:08Z</time>
      </trkpt>
      <trkpt lat="42.234881" lon="1.728459">
        <ele>1434.060</ele>
        <time>2020-08-11T16:08:16Z</time>
      </trkpt>
      <trkpt lat="42.234831" lon="1.728597">
        <ele>1434.377</ele>
        <time>2020-08-11T16:08:26Z</time>
      </trkpt>
      <trkpt lat="42.234845" lon="1.728720">
        <ele>1430.924</ele>
        <time>2020-08-11T16:08:32Z</time>
      </trkpt>
      <trkpt lat="42.234797" lon="1.728856">
        <ele>1431.110</ele>
        <time>2020-08-11T16:08:44Z</time>
      </trkpt>
      <trkpt lat="42.234721" lon="1.728942">
        <ele>1433.934</ele>
        <time>2020-08-11T16:08:50Z</time>
      </trkpt>
      <trkpt lat="42.234665" lon="1.729059">
        <ele>1434.535</ele>
        <time>2020-08-11T16:08:58Z</time>
      </trkpt>
      <trkpt lat="42.234659" lon="1.729183">
        <ele>1432.328</ele>
        <time>2020-08-11T16:09:05Z</time>
      </trkpt>
      <trkpt lat="42.234638" lon="1.729323">
        <ele>1430.717</ele>
        <time>2020-08-11T16:09:16Z</time>
      </trkpt>
      <trkpt lat="42.234670" lon="1.729443">
        <ele>1426.796</ele>
        <time>2020-08-11T16:09:23Z</time>
      </trkpt>
      <trkpt lat="42.234677" lon="1.729580">
        <ele>1423.731</ele>
        <time>2020-08-11T16:09:29Z</time>
      </trkpt>
      <trkpt lat="42.234683" lon="1.729718">
        <ele>1420.824</ele>
        <time>2020-08-11T16:09:34Z</time>
      </trkpt>
      <trkpt lat="42.234732" lon="1.729833">
        <ele>1416.008</ele>
        <time>2020-08-11T16:09:42Z</time>
      </trkpt>
      <trkpt lat="42.234670" lon="1.729992">
        <ele>1415.155</ele>
        <time>2020-08-11T16:10:06Z</time>
      </trkpt>
      <trkpt lat="42.234638" lon="1.730108">
        <ele>1413.362</ele>
        <time>2020-08-11T16:10:10Z</time>
      </trkpt>
      <trkpt lat="42.234682" lon="1.730239">
        <ele>1408.489</ele>
        <time>2020-08-11T16:10:18Z</time>
      </trkpt>
      <trkpt lat="42.234632" lon="1.730340">
        <ele>1407.915</ele>
        <time>2020-08-11T16:10:27Z</time>
      </trkpt>
      <trkpt lat="42.234613" lon="1.730460">
        <ele>1406.039</ele>
        <time>2020-08-11T16:10:34Z</time>
      </trkpt>
      <trkpt lat="42.234610" lon="1.730584">
        <ele>1403.440</ele>
        <time>2020-08-11T16:10:40Z</time>
      </trkpt>
      <trkpt lat="42.234576" lon="1.730699">
        <ele>1402.293</ele>
        <time>2020-08-11T16:10:51Z</time>
      </trkpt>
      <trkpt lat="42.234556" lon="1.730838">
        <ele>1399.932</ele>
        <time>2020-08-11T16:10:59Z</time>
      </trkpt>
      <trkpt lat="42.234582" lon="1.730958">
        <ele>1396.676</ele>
        <time>2020-08-11T16:11:05Z</time>
      </trkpt>
      <trkpt lat="42.234491" lon="1.730979">
        <ele>1399.390</ele>
        <time>2020-08-11T16:11:11Z</time>
      </trkpt>
      <trkpt lat="42.234510" lon="1.731098">
        <ele>1396.119</ele>
        <time>2020-08-11T16:11:21Z</time>
      </trkpt>
      <trkpt lat="42.234443" lon="1.731186">
        <ele>1396.408</ele>
        <time>2020-08-11T16:11:37Z</time>
      </trkpt>
      <trkpt lat="42.234518" lon="1.731263">
        <ele>1392.563</ele>
        <time>2020-08-11T16:11:59Z</time>
      </trkpt>
      <trkpt lat="42.234451" lon="1.731160">
        <ele>1396.760</ele>
        <time>2020-08-11T16:13:18Z</time>
      </trkpt>
      <trkpt lat="42.234536" lon="1.731237">
        <ele>1392.577</ele>
        <time>2020-08-11T16:13:44Z</time>
      </trkpt>
      <trkpt lat="42.234441" lon="1.731210">
        <ele>1395.983</ele>
        <time>2020-08-11T16:14:06Z</time>
      </trkpt>
      <trkpt lat="42.234338" lon="1.731160">
        <ele>1397.367</ele>
        <time>2020-08-11T16:14:25Z</time>
      </trkpt>
      <trkpt lat="42.234436" lon="1.731220">
        <ele>1395.798</ele>
        <time>2020-08-11T16:14:39Z</time>
      </trkpt>
      <trkpt lat="42.234435" lon="1.731349">
        <ele>1392.971</ele>
        <time>2020-08-11T16:15:31Z</time>
      </trkpt>
      <trkpt lat="42.234412" lon="1.731492">
        <ele>1390.260</ele>
        <time>2020-08-11T16:15:41Z</time>
      </trkpt>
      <trkpt lat="42.234369" lon="1.731615">
        <ele>1387.843</ele>
        <time>2020-08-11T16:15:57Z</time>
      </trkpt>
      <trkpt lat="42.234273" lon="1.731655">
        <ele>1386.664</ele>
        <time>2020-08-11T16:16:09Z</time>
      </trkpt>
      <trkpt lat="42.234193" lon="1.731740">
        <ele>1384.810</ele>
        <time>2020-08-11T16:16:19Z</time>
      </trkpt>
      <trkpt lat="42.234141" lon="1.731841">
        <ele>1382.908</ele>
        <time>2020-08-11T16:16:34Z</time>
      </trkpt>
      <trkpt lat="42.234067" lon="1.731929">
        <ele>1381.380</ele>
        <time>2020-08-11T16:16:47Z</time>
      </trkpt>
      <trkpt lat="42.233999" lon="1.732033">
        <ele>1379.187</ele>
        <time>2020-08-11T16:16:57Z</time>
      </trkpt>
      <trkpt lat="42.233954" lon="1.732147">
        <ele>1376.624</ele>
        <time>2020-08-11T16:17:06Z</time>
      </trkpt>
      <trkpt lat="42.233888" lon="1.732233">
        <ele>1374.840</ele>
        <time>2020-08-11T16:17:15Z</time>
      </trkpt>
      <trkpt lat="42.233857" lon="1.732358">
        <ele>1373.284</ele>
        <time>2020-08-11T16:17:25Z</time>
      </trkpt>
      <trkpt lat="42.233884" lon="1.732489">
        <ele>1370.365</ele>
        <time>2020-08-11T16:17:37Z</time>
      </trkpt>
      <trkpt lat="42.233765" lon="1.732522">
        <ele>1372.268</ele>
        <time>2020-08-11T16:17:47Z</time>
      </trkpt>
      <trkpt lat="42.233749" lon="1.732677">
        <ele>1368.917</ele>
        <time>2020-08-11T16:17:57Z</time>
      </trkpt>
      <trkpt lat="42.233657" lon="1.732758">
        <ele>1368.753</ele>
        <time>2020-08-11T16:18:07Z</time>
      </trkpt>
      <trkpt lat="42.233586" lon="1.732859">
        <ele>1367.104</ele>
        <time>2020-08-11T16:18:15Z</time>
      </trkpt>
      <trkpt lat="42.233527" lon="1.732950">
        <ele>1365.414</ele>
        <time>2020-08-11T16:18:22Z</time>
      </trkpt>
      <trkpt lat="42.233431" lon="1.733038">
        <ele>1364.108</ele>
        <time>2020-08-11T16:18:34Z</time>
      </trkpt>
      <trkpt lat="42.233347" lon="1.733109">
        <ele>1363.121</ele>
        <time>2020-08-11T16:18:51Z</time>
      </trkpt>
      <trkpt lat="42.233260" lon="1.733140">
        <ele>1362.328</ele>
        <time>2020-08-11T16:19:00Z</time>
      </trkpt>
      <trkpt lat="42.233179" lon="1.733226">
        <ele>1359.585</ele>
        <time>2020-08-11T16:19:18Z</time>
      </trkpt>
      <trkpt lat="42.233092" lon="1.733330">
        <ele>1356.191</ele>
        <time>2020-08-11T16:19:25Z</time>
      </trkpt>
      <trkpt lat="42.232991" lon="1.733344">
        <ele>1355.875</ele>
        <time>2020-08-11T16:19:31Z</time>
      </trkpt>
      <trkpt lat="42.232898" lon="1.733343">
        <ele>1355.886</ele>
        <time>2020-08-11T16:19:54Z</time>
      </trkpt>
      <trkpt lat="42.232805" lon="1.733348">
        <ele>1355.799</ele>
        <time>2020-08-11T16:20:00Z</time>
      </trkpt>
      <trkpt lat="42.232697" lon="1.733340">
        <ele>1355.368</ele>
        <time>2020-08-11T16:20:05Z</time>
      </trkpt>
      <trkpt lat="42.232617" lon="1.733396">
        <ele>1353.668</ele>
        <time>2020-08-11T16:20:10Z</time>
      </trkpt>
      <trkpt lat="42.232535" lon="1.733469">
        <ele>1351.742</ele>
        <time>2020-08-11T16:20:16Z</time>
      </trkpt>
      <trkpt lat="42.232446" lon="1.733495">
        <ele>1351.326</ele>
        <time>2020-08-11T16:20:23Z</time>
      </trkpt>
      <trkpt lat="42.232346" lon="1.733547">
        <ele>1350.708</ele>
        <time>2020-08-11T16:20:35Z</time>
      </trkpt>
      <trkpt lat="42.232271" lon="1.733615">
        <ele>1349.882</ele>
        <time>2020-08-11T16:20:43Z</time>
      </trkpt>
      <trkpt lat="42.232221" lon="1.733717">
        <ele>1348.519</ele>
        <time>2020-08-11T16:20:49Z</time>
      </trkpt>
      <trkpt lat="42.232202" lon="1.733838">
        <ele>1346.826</ele>
        <time>2020-08-11T16:20:59Z</time>
      </trkpt>
      <trkpt lat="42.232216" lon="1.733968">
        <ele>1345.132</ele>
        <time>2020-08-11T16:21:20Z</time>
      </trkpt>
      <trkpt lat="42.232137" lon="1.734043">
        <ele>1344.286</ele>
        <time>2020-08-11T16:21:28Z</time>
      </trkpt>
      <trkpt lat="42.232082" lon="1.734162">
        <ele>1342.687</ele>
        <time>2020-08-11T16:21:39Z</time>
      </trkpt>
      <trkpt lat="42.232018" lon="1.734292">
        <ele>1340.550</ele>
        <time>2020-08-11T16:21:49Z</time>
      </trkpt>
      <trkpt lat="42.231940" lon="1.734366">
        <ele>1339.059</ele>
        <time>2020-08-11T16:22:05Z</time>
      </trkpt>
      <trkpt lat="42.231832" lon="1.734412">
        <ele>1335.183</ele>
        <time>2020-08-11T16:22:11Z</time>
      </trkpt>
      <trkpt lat="42.231731" lon="1.734373">
        <ele>1332.525</ele>
        <time>2020-08-11T16:22:18Z</time>
      </trkpt>
      <trkpt lat="42.231758" lon="1.734497">
        <ele>1332.217</ele>
        <time>2020-08-11T16:22:39Z</time>
      </trkpt>
      <trkpt lat="42.231680" lon="1.734567">
        <ele>1329.508</ele>
        <time>2020-08-11T16:22:52Z</time>
      </trkpt>
      <trkpt lat="42.231610" lon="1.734490">
        <ele>1326.824</ele>
        <time>2020-08-11T16:23:11Z</time>
      </trkpt>
      <trkpt lat="42.231555" lon="1.734389">
        <ele>1324.861</ele>
        <time>2020-08-11T16:23:26Z</time>
      </trkpt>
      <trkpt lat="42.231485" lon="1.734293">
        <ele>1321.958</ele>
        <time>2020-08-11T16:23:38Z</time>
      </trkpt>
      <trkpt lat="42.231385" lon="1.734301">
        <ele>1316.874</ele>
        <time>2020-08-11T16:24:08Z</time>
      </trkpt>
      <trkpt lat="42.231368" lon="1.734429">
        <ele>1314.958</ele>
        <time>2020-08-11T16:24:16Z</time>
      </trkpt>
      <trkpt lat="42.231379" lon="1.734555">
        <ele>1315.119</ele>
        <time>2020-08-11T16:24:25Z</time>
      </trkpt>
      <trkpt lat="42.231288" lon="1.734592">
        <ele>1310.262</ele>
        <time>2020-08-11T16:24:52Z</time>
      </trkpt>
      <trkpt lat="42.231227" lon="1.734689">
        <ele>1307.331</ele>
        <time>2020-08-11T16:24:58Z</time>
      </trkpt>
      <trkpt lat="42.231226" lon="1.734817">
        <ele>1307.971</ele>
        <time>2020-08-11T16:25:11Z</time>
      </trkpt>
      <trkpt lat="42.231187" lon="1.734928">
        <ele>1306.541</ele>
        <time>2020-08-11T16:25:30Z</time>
      </trkpt>
      <trkpt lat="42.231177" lon="1.735049">
        <ele>1306.415</ele>
        <time>2020-08-11T16:25:45Z</time>
      </trkpt>
      <trkpt lat="42.231132" lon="1.735156">
        <ele>1304.508</ele>
        <time>2020-08-11T16:25:57Z</time>
      </trkpt>
      <trkpt lat="42.231031" lon="1.735197">
        <ele>1299.363</ele>
        <time>2020-08-11T16:26:08Z</time>
      </trkpt>
      <trkpt lat="42.231092" lon="1.735291">
        <ele>1303.080</ele>
        <time>2020-08-11T16:26:26Z</time>
      </trkpt>
      <trkpt lat="42.230996" lon="1.735326">
        <ele>1297.797</ele>
        <time>2020-08-11T16:26:41Z</time>
      </trkpt>
      <trkpt lat="42.230947" lon="1.735428">
        <ele>1295.773</ele>
        <time>2020-08-11T16:26:52Z</time>
      </trkpt>
      <trkpt lat="42.230924" lon="1.735560">
        <ele>1295.647</ele>
        <time>2020-08-11T16:27:07Z</time>
      </trkpt>
      <trkpt lat="42.230831" lon="1.735554">
        <ele>1290.858</ele>
        <time>2020-08-11T16:27:24Z</time>
      </trkpt>
      <trkpt lat="42.230783" lon="1.735447">
        <ele>1287.041</ele>
        <time>2020-08-11T16:27:36Z</time>
      </trkpt>
      <trkpt lat="42.230734" lon="1.735330">
        <ele>1283.630</ele>
        <time>2020-08-11T16:27:50Z</time>
      </trkpt>
      <trkpt lat="42.230719" lon="1.735207">
        <ele>1283.081</ele>
        <time>2020-08-11T16:28:04Z</time>
      </trkpt>
      <trkpt lat="42.230643" lon="1.735102">
        <ele>1280.261</ele>
        <time>2020-08-11T16:28:14Z</time>
      </trkpt>
      <trkpt lat="42.230559" lon="1.735014">
        <ele>1277.017</ele>
        <time>2020-08-11T16:28:21Z</time>
      </trkpt>
      <trkpt lat="42.230466" lon="1.734988">
        <ele>1273.608</ele>
        <time>2020-08-11T16:28:31Z</time>
      </trkpt>
      <trkpt lat="42.230414" lon="1.734885">
        <ele>1272.824</ele>
        <time>2020-08-11T16:28:55Z</time>
      </trkpt>
      <trkpt lat="42.230387" lon="1.734762">
        <ele>1273.281</ele>
        <time>2020-08-11T16:29:09Z</time>
      </trkpt>
      <trkpt lat="42.230377" lon="1.734638">
        <ele>1273.978</ele>
        <time>2020-08-11T16:29:20Z</time>
      </trkpt>
      <trkpt lat="42.230350" lon="1.734504">
        <ele>1273.724</ele>
        <time>2020-08-11T16:29:27Z</time>
      </trkpt>
      <trkpt lat="42.230345" lon="1.734381">
        <ele>1274.228</ele>
        <time>2020-08-11T16:29:34Z</time>
      </trkpt>
      <trkpt lat="42.230298" lon="1.734263">
        <ele>1272.659</ele>
        <time>2020-08-11T16:29:44Z</time>
      </trkpt>
      <trkpt lat="42.230264" lon="1.734145">
        <ele>1271.692</ele>
        <time>2020-08-11T16:29:51Z</time>
      </trkpt>
      <trkpt lat="42.230217" lon="1.734025">
        <ele>1270.341</ele>
        <time>2020-08-11T16:29:59Z</time>
      </trkpt>
      <trkpt lat="42.230193" lon="1.733888">
        <ele>1270.095</ele>
        <time>2020-08-11T16:30:07Z</time>
      </trkpt>
      <trkpt lat="42.230167" lon="1.733765">
        <ele>1270.149</ele>
        <time>2020-08-11T16:30:19Z</time>
      </trkpt>
      <trkpt lat="42.230132" lon="1.733648">
        <ele>1269.823</ele>
        <time>2020-08-11T16:30:24Z</time>
      </trkpt>
      <trkpt lat="42.230073" lon="1.733546">
        <ele>1269.108</ele>
        <time>2020-08-11T16:30:32Z</time>
      </trkpt>
      <trkpt lat="42.230043" lon="1.733432">
        <ele>1269.965</ele>
        <time>2020-08-11T16:30:39Z</time>
      </trkpt>
      <trkpt lat="42.229989" lon="1.733308">
        <ele>1270.512</ele>
        <time>2020-08-11T16:30:47Z</time>
      </trkpt>
      <trkpt lat="42.229930" lon="1.733200">
        <ele>1272.159</ele>
        <time>2020-08-11T16:30:55Z</time>
      </trkpt>
      <trkpt lat="42.229834" lon="1.733193">
        <ele>1269.225</ele>
        <time>2020-08-11T16:31:01Z</time>
      </trkpt>
      <trkpt lat="42.229750" lon="1.733124">
        <ele>1268.299</ele>
        <time>2020-08-11T16:31:09Z</time>
      </trkpt>
      <trkpt lat="42.229653" lon="1.733086">
        <ele>1265.540</ele>
        <time>2020-08-11T16:31:16Z</time>
      </trkpt>
      <trkpt lat="42.229554" lon="1.733032">
        <ele>1262.643</ele>
        <time>2020-08-11T16:31:25Z</time>
      </trkpt>
      <trkpt lat="42.229449" lon="1.732998">
        <ele>1258.832</ele>
        <time>2020-08-11T16:31:34Z</time>
      </trkpt>
      <trkpt lat="42.229364" lon="1.732948">
        <ele>1256.773</ele>
        <time>2020-08-11T16:31:43Z</time>
      </trkpt>
      <trkpt lat="42.229292" lon="1.733022">
        <ele>1253.585</ele>
        <time>2020-08-11T16:31:56Z</time>
      </trkpt>
      <trkpt lat="42.229349" lon="1.733123">
        <ele>1253.813</ele>
        <time>2020-08-11T16:32:04Z</time>
      </trkpt>
      <trkpt lat="42.229383" lon="1.733257">
        <ele>1252.508</ele>
        <time>2020-08-11T16:32:15Z</time>
      </trkpt>
      <trkpt lat="42.229378" lon="1.733386">
        <ele>1250.063</ele>
        <time>2020-08-11T16:32:24Z</time>
      </trkpt>
      <trkpt lat="42.229376" lon="1.733514">
        <ele>1247.440</ele>
        <time>2020-08-11T16:32:36Z</time>
      </trkpt>
      <trkpt lat="42.229449" lon="1.733607">
        <ele>1247.277</ele>
        <time>2020-08-11T16:32:42Z</time>
      </trkpt>
      <trkpt lat="42.229487" lon="1.733732">
        <ele>1245.783</ele>
        <time>2020-08-11T16:32:52Z</time>
      </trkpt>
      <trkpt lat="42.229523" lon="1.733861">
        <ele>1244.487</ele>
        <time>2020-08-11T16:33:01Z</time>
      </trkpt>
      <trkpt lat="42.229536" lon="1.733984">
        <ele>1243.698</ele>
        <time>2020-08-11T16:33:08Z</time>
      </trkpt>
      <trkpt lat="42.229445" lon="1.733970">
        <ele>1240.491</ele>
        <time>2020-08-11T16:33:21Z</time>
      </trkpt>
      <trkpt lat="42.229376" lon="1.734058">
        <ele>1238.530</ele>
        <time>2020-08-11T16:33:27Z</time>
      </trkpt>
      <trkpt lat="42.229295" lon="1.734148">
        <ele>1236.479</ele>
        <time>2020-08-11T16:33:34Z</time>
      </trkpt>
      <trkpt lat="42.229204" lon="1.734105">
        <ele>1235.105</ele>
        <time>2020-08-11T16:33:41Z</time>
      </trkpt>
      <trkpt lat="42.229122" lon="1.734038">
        <ele>1233.825</ele>
        <time>2020-08-11T16:33:51Z</time>
      </trkpt>
      <trkpt lat="42.229039" lon="1.733967">
        <ele>1232.208</ele>
        <time>2020-08-11T16:34:03Z</time>
      </trkpt>
      <trkpt lat="42.228949" lon="1.733942">
        <ele>1230.183</ele>
        <time>2020-08-11T16:34:11Z</time>
      </trkpt>
      <trkpt lat="42.228898" lon="1.733840">
        <ele>1229.430</ele>
        <time>2020-08-11T16:34:19Z</time>
      </trkpt>
      <trkpt lat="42.228883" lon="1.733707">
        <ele>1229.597</ele>
        <time>2020-08-11T16:34:26Z</time>
      </trkpt>
      <trkpt lat="42.228834" lon="1.733586">
        <ele>1228.843</ele>
        <time>2020-08-11T16:34:34Z</time>
      </trkpt>
      <trkpt lat="42.228757" lon="1.733521">
        <ele>1227.577</ele>
        <time>2020-08-11T16:34:42Z</time>
      </trkpt>
      <trkpt lat="42.228659" lon="1.733564">
        <ele>1224.728</ele>
        <time>2020-08-11T16:34:49Z</time>
      </trkpt>
      <trkpt lat="42.228556" lon="1.733546">
        <ele>1222.951</ele>
        <time>2020-08-11T16:35:01Z</time>
      </trkpt>
      <trkpt lat="42.228491" lon="1.733448">
        <ele>1223.050</ele>
        <time>2020-08-11T16:35:09Z</time>
      </trkpt>
      <trkpt lat="42.228407" lon="1.733389">
        <ele>1222.572</ele>
        <time>2020-08-11T16:35:18Z</time>
      </trkpt>
      <trkpt lat="42.228317" lon="1.733382">
        <ele>1221.213</ele>
        <time>2020-08-11T16:35:26Z</time>
      </trkpt>
      <trkpt lat="42.228225" lon="1.733378">
        <ele>1220.014</ele>
        <time>2020-08-11T16:35:33Z</time>
      </trkpt>
      <trkpt lat="42.228136" lon="1.733353">
        <ele>1219.008</ele>
        <time>2020-08-11T16:35:39Z</time>
      </trkpt>
      <trkpt lat="42.228066" lon="1.733434">
        <ele>1217.413</ele>
        <time>2020-08-11T16:35:48Z</time>
      </trkpt>
      <trkpt lat="42.228042" lon="1.733552">
        <ele>1216.310</ele>
        <time>2020-08-11T16:35:53Z</time>
      </trkpt>
      <trkpt lat="42.228062" lon="1.733674">
        <ele>1215.497</ele>
        <time>2020-08-11T16:36:00Z</time>
      </trkpt>
      <trkpt lat="42.228108" lon="1.733788">
        <ele>1214.953</ele>
        <time>2020-08-11T16:36:11Z</time>
      </trkpt>
      <trkpt lat="42.228154" lon="1.733897">
        <ele>1214.787</ele>
        <time>2020-08-11T16:36:21Z</time>
      </trkpt>
      <trkpt lat="42.228155" lon="1.734030">
        <ele>1213.818</ele>
        <time>2020-08-11T16:36:29Z</time>
      </trkpt>
      <trkpt lat="42.228228" lon="1.734105">
        <ele>1214.521</ele>
        <time>2020-08-11T16:36:32Z</time>
      </trkpt>
      <trkpt lat="42.228294" lon="1.734198">
        <ele>1215.130</ele>
        <time>2020-08-11T16:36:40Z</time>
      </trkpt>
      <trkpt lat="42.228339" lon="1.734307">
        <ele>1215.173</ele>
        <time>2020-08-11T16:36:50Z</time>
      </trkpt>
      <trkpt lat="42.228386" lon="1.734425">
        <ele>1214.985</ele>
        <time>2020-08-11T16:37:00Z</time>
      </trkpt>
      <trkpt lat="42.228427" lon="1.734539">
        <ele>1214.413</ele>
        <time>2020-08-11T16:37:07Z</time>
      </trkpt>
      <trkpt lat="42.228454" lon="1.734679">
        <ele>1213.608</ele>
        <time>2020-08-11T16:37:12Z</time>
      </trkpt>
      <trkpt lat="42.228486" lon="1.734807">
        <ele>1212.723</ele>
        <time>2020-08-11T16:37:17Z</time>
      </trkpt>
      <trkpt lat="42.228508" lon="1.734927">
        <ele>1211.770</ele>
        <time>2020-08-11T16:37:30Z</time>
      </trkpt>
      <trkpt lat="42.228559" lon="1.735050">
        <ele>1211.777</ele>
        <time>2020-08-11T16:37:40Z</time>
      </trkpt>
      <trkpt lat="42.228663" lon="1.735143">
        <ele>1212.963</ele>
        <time>2020-08-11T16:37:47Z</time>
      </trkpt>
      <trkpt lat="42.228733" lon="1.735223">
        <ele>1212.947</ele>
        <time>2020-08-11T16:37:54Z</time>
      </trkpt>
      <trkpt lat="42.228699" lon="1.735388">
        <ele>1211.618</ele>
        <time>2020-08-11T16:38:03Z</time>
      </trkpt>
      <trkpt lat="42.228784" lon="1.735427">
        <ele>1211.961</ele>
        <time>2020-08-11T16:38:10Z</time>
      </trkpt>
      <trkpt lat="42.228739" lon="1.735461">
        <ele>1211.470</ele>
        <time>2020-08-11T16:38:32Z</time>
      </trkpt>
    </trkseg>
  </trk>
</gpx>
